<?xml version="1.0" encoding="UTF-8" standalone="no" ?>
<gpx xmlns="http://www.topografix.com/GPX/1/1" xmlns:xsi="http://www.w3.org/2001/XMLSchema-instance" xsi:schemaLocation="http://www.topografix.com/GPX/1/1 http://www.topografix.com/GPX/1/1/gpx.xsd" version="1.1" creator="VisuGPX - https://www.visugpx.com">
  <metadata>
    <name>2020-12-13 10:13:28 [Strava]</name>
  </metadata>
  <trk>
    <name><![CDATA[2020-12-13 10:13:28 [Strava]_1]]></name>
    <trkseg>
      <trkpt lat="45.89194" lon="4.6168">
        <ele>260.4</ele>
        <time>2020-12-13T09:13:28Z</time>
      </trkpt>
      <trkpt lat="45.89195" lon="4.61679">
        <ele>260.4</ele>
        <time>2020-12-13T09:13:29Z</time>
      </trkpt>
      <trkpt lat="45.89195" lon="4.61679">
        <ele>260.3</ele>
        <time>2020-12-13T09:13:30Z</time>
      </trkpt>
      <trkpt lat="45.89195" lon="4.61678">
        <ele>260.3</ele>
        <time>2020-12-13T09:13:31Z</time>
      </trkpt>
      <trkpt lat="45.89195" lon="4.61679">
        <ele>260.2</ele>
        <time>2020-12-13T09:13:32Z</time>
      </trkpt>
      <trkpt lat="45.89195" lon="4.61681">
        <ele>260.1</ele>
        <time>2020-12-13T09:13:33Z</time>
      </trkpt>
      <trkpt lat="45.89196" lon="4.61682">
        <ele>260</ele>
        <time>2020-12-13T09:13:34Z</time>
      </trkpt>
      <trkpt lat="45.89196" lon="4.61684">
        <ele>259.9</ele>
        <time>2020-12-13T09:13:35Z</time>
      </trkpt>
      <trkpt lat="45.89197" lon="4.61685">
        <ele>259.9</ele>
        <time>2020-12-13T09:13:36Z</time>
      </trkpt>
      <trkpt lat="45.89198" lon="4.61687">
        <ele>259.8</ele>
        <time>2020-12-13T09:13:37Z</time>
      </trkpt>
      <trkpt lat="45.89199" lon="4.61688">
        <ele>259.7</ele>
        <time>2020-12-13T09:13:38Z</time>
      </trkpt>
      <trkpt lat="45.89199" lon="4.61689">
        <ele>259.6</ele>
        <time>2020-12-13T09:13:39Z</time>
      </trkpt>
      <trkpt lat="45.892" lon="4.6169">
        <ele>259.5</ele>
        <time>2020-12-13T09:13:40Z</time>
      </trkpt>
      <trkpt lat="45.892" lon="4.61692">
        <ele>259.4</ele>
        <time>2020-12-13T09:13:41Z</time>
      </trkpt>
      <trkpt lat="45.892" lon="4.61694">
        <ele>259.4</ele>
        <time>2020-12-13T09:13:42Z</time>
      </trkpt>
      <trkpt lat="45.89201" lon="4.61695">
        <ele>259.3</ele>
        <time>2020-12-13T09:13:43Z</time>
      </trkpt>
      <trkpt lat="45.89202" lon="4.61696">
        <ele>259.2</ele>
        <time>2020-12-13T09:13:44Z</time>
      </trkpt>
      <trkpt lat="45.89203" lon="4.61698">
        <ele>259.1</ele>
        <time>2020-12-13T09:13:45Z</time>
      </trkpt>
      <trkpt lat="45.89204" lon="4.61699">
        <ele>259.1</ele>
        <time>2020-12-13T09:13:46Z</time>
      </trkpt>
      <trkpt lat="45.89204" lon="4.61699">
        <ele>259</ele>
        <time>2020-12-13T09:13:47Z</time>
      </trkpt>
      <trkpt lat="45.89205" lon="4.61701">
        <ele>258.9</ele>
        <time>2020-12-13T09:13:48Z</time>
      </trkpt>
      <trkpt lat="45.89206" lon="4.61702">
        <ele>258.9</ele>
        <time>2020-12-13T09:13:49Z</time>
      </trkpt>
      <trkpt lat="45.89207" lon="4.61703">
        <ele>258.8</ele>
        <time>2020-12-13T09:13:50Z</time>
      </trkpt>
      <trkpt lat="45.89208" lon="4.61705">
        <ele>258.7</ele>
        <time>2020-12-13T09:13:51Z</time>
      </trkpt>
      <trkpt lat="45.89209" lon="4.61707">
        <ele>258.6</ele>
        <time>2020-12-13T09:13:52Z</time>
      </trkpt>
      <trkpt lat="45.89209" lon="4.61709">
        <ele>258.5</ele>
        <time>2020-12-13T09:13:53Z</time>
      </trkpt>
      <trkpt lat="45.8921" lon="4.61711">
        <ele>258.5</ele>
        <time>2020-12-13T09:13:54Z</time>
      </trkpt>
      <trkpt lat="45.89211" lon="4.61713">
        <ele>258.4</ele>
        <time>2020-12-13T09:13:55Z</time>
      </trkpt>
      <trkpt lat="45.89212" lon="4.61715">
        <ele>258.3</ele>
        <time>2020-12-13T09:13:56Z</time>
      </trkpt>
      <trkpt lat="45.89213" lon="4.61716">
        <ele>258.2</ele>
        <time>2020-12-13T09:13:57Z</time>
      </trkpt>
      <trkpt lat="45.89212" lon="4.61719">
        <ele>258.2</ele>
        <time>2020-12-13T09:13:58Z</time>
      </trkpt>
      <trkpt lat="45.89213" lon="4.6172">
        <ele>258.1</ele>
        <time>2020-12-13T09:13:59Z</time>
      </trkpt>
      <trkpt lat="45.89214" lon="4.61721">
        <ele>258.1</ele>
        <time>2020-12-13T09:14:00Z</time>
      </trkpt>
      <trkpt lat="45.89214" lon="4.61723">
        <ele>258</ele>
        <time>2020-12-13T09:14:01Z</time>
      </trkpt>
      <trkpt lat="45.89215" lon="4.61724">
        <ele>258</ele>
        <time>2020-12-13T09:14:02Z</time>
      </trkpt>
      <trkpt lat="45.89216" lon="4.61725">
        <ele>257.9</ele>
        <time>2020-12-13T09:14:03Z</time>
      </trkpt>
      <trkpt lat="45.89217" lon="4.61727">
        <ele>257.9</ele>
        <time>2020-12-13T09:14:04Z</time>
      </trkpt>
      <trkpt lat="45.89218" lon="4.61727">
        <ele>257.9</ele>
        <time>2020-12-13T09:14:05Z</time>
      </trkpt>
      <trkpt lat="45.89219" lon="4.61729">
        <ele>257.8</ele>
        <time>2020-12-13T09:14:06Z</time>
      </trkpt>
      <trkpt lat="45.8922" lon="4.6173">
        <ele>257.7</ele>
        <time>2020-12-13T09:14:07Z</time>
      </trkpt>
      <trkpt lat="45.89221" lon="4.61731">
        <ele>257.7</ele>
        <time>2020-12-13T09:14:08Z</time>
      </trkpt>
      <trkpt lat="45.89221" lon="4.61733">
        <ele>257.7</ele>
        <time>2020-12-13T09:14:09Z</time>
      </trkpt>
      <trkpt lat="45.89222" lon="4.61735">
        <ele>257.6</ele>
        <time>2020-12-13T09:14:10Z</time>
      </trkpt>
      <trkpt lat="45.89223" lon="4.61736">
        <ele>257.6</ele>
        <time>2020-12-13T09:14:11Z</time>
      </trkpt>
      <trkpt lat="45.89223" lon="4.61737">
        <ele>257.6</ele>
        <time>2020-12-13T09:14:12Z</time>
      </trkpt>
      <trkpt lat="45.89225" lon="4.61738">
        <ele>257.9</ele>
        <time>2020-12-13T09:14:13Z</time>
      </trkpt>
      <trkpt lat="45.89226" lon="4.61737">
        <ele>258</ele>
        <time>2020-12-13T09:14:14Z</time>
      </trkpt>
      <trkpt lat="45.89228" lon="4.6174">
        <ele>258.3</ele>
        <time>2020-12-13T09:14:15Z</time>
      </trkpt>
      <trkpt lat="45.89229" lon="4.6174">
        <ele>258.4</ele>
        <time>2020-12-13T09:14:16Z</time>
      </trkpt>
      <trkpt lat="45.8923" lon="4.61741">
        <ele>258.5</ele>
        <time>2020-12-13T09:14:17Z</time>
      </trkpt>
      <trkpt lat="45.89231" lon="4.61741">
        <ele>258.6</ele>
        <time>2020-12-13T09:14:18Z</time>
      </trkpt>
      <trkpt lat="45.89232" lon="4.6174">
        <ele>258.7</ele>
        <time>2020-12-13T09:14:19Z</time>
      </trkpt>
      <trkpt lat="45.89233" lon="4.61741">
        <ele>258.8</ele>
        <time>2020-12-13T09:14:20Z</time>
      </trkpt>
      <trkpt lat="45.89235" lon="4.6174">
        <ele>259</ele>
        <time>2020-12-13T09:14:21Z</time>
      </trkpt>
      <trkpt lat="45.89236" lon="4.6174">
        <ele>259.1</ele>
        <time>2020-12-13T09:14:22Z</time>
      </trkpt>
      <trkpt lat="45.89237" lon="4.61739">
        <ele>259.2</ele>
        <time>2020-12-13T09:14:23Z</time>
      </trkpt>
      <trkpt lat="45.89238" lon="4.61739">
        <ele>259.3</ele>
        <time>2020-12-13T09:14:24Z</time>
      </trkpt>
      <trkpt lat="45.8924" lon="4.61738">
        <ele>259.5</ele>
        <time>2020-12-13T09:14:25Z</time>
      </trkpt>
      <trkpt lat="45.89242" lon="4.61738">
        <ele>259.7</ele>
        <time>2020-12-13T09:14:26Z</time>
      </trkpt>
      <trkpt lat="45.89243" lon="4.61737">
        <ele>259.8</ele>
        <time>2020-12-13T09:14:27Z</time>
      </trkpt>
      <trkpt lat="45.89244" lon="4.61737">
        <ele>259.9</ele>
        <time>2020-12-13T09:14:28Z</time>
      </trkpt>
      <trkpt lat="45.89245" lon="4.61736">
        <ele>260</ele>
        <time>2020-12-13T09:14:29Z</time>
      </trkpt>
      <trkpt lat="45.89246" lon="4.61736">
        <ele>260.1</ele>
        <time>2020-12-13T09:14:30Z</time>
      </trkpt>
      <trkpt lat="45.89247" lon="4.61735">
        <ele>260.2</ele>
        <time>2020-12-13T09:14:31Z</time>
      </trkpt>
      <trkpt lat="45.89248" lon="4.61734">
        <ele>260.3</ele>
        <time>2020-12-13T09:14:32Z</time>
      </trkpt>
      <trkpt lat="45.89249" lon="4.61733">
        <ele>260.5</ele>
        <time>2020-12-13T09:14:33Z</time>
      </trkpt>
      <trkpt lat="45.89251" lon="4.61731">
        <ele>260.7</ele>
        <time>2020-12-13T09:14:34Z</time>
      </trkpt>
      <trkpt lat="45.89252" lon="4.61731">
        <ele>260.8</ele>
        <time>2020-12-13T09:14:35Z</time>
      </trkpt>
      <trkpt lat="45.89253" lon="4.61731">
        <ele>260.8</ele>
        <time>2020-12-13T09:14:36Z</time>
      </trkpt>
      <trkpt lat="45.89254" lon="4.61731">
        <ele>261</ele>
        <time>2020-12-13T09:14:37Z</time>
      </trkpt>
      <trkpt lat="45.89255" lon="4.61731">
        <ele>261</ele>
        <time>2020-12-13T09:14:38Z</time>
      </trkpt>
      <trkpt lat="45.89256" lon="4.6173">
        <ele>261.2</ele>
        <time>2020-12-13T09:14:39Z</time>
      </trkpt>
      <trkpt lat="45.89258" lon="4.61729">
        <ele>261.4</ele>
        <time>2020-12-13T09:14:40Z</time>
      </trkpt>
      <trkpt lat="45.8926" lon="4.61728">
        <ele>261.6</ele>
        <time>2020-12-13T09:14:41Z</time>
      </trkpt>
      <trkpt lat="45.89261" lon="4.61728">
        <ele>261.6</ele>
        <time>2020-12-13T09:14:42Z</time>
      </trkpt>
      <trkpt lat="45.89262" lon="4.61727">
        <ele>261.7</ele>
        <time>2020-12-13T09:14:43Z</time>
      </trkpt>
      <trkpt lat="45.89264" lon="4.61727">
        <ele>261.9</ele>
        <time>2020-12-13T09:14:44Z</time>
      </trkpt>
      <trkpt lat="45.89265" lon="4.61726">
        <ele>262</ele>
        <time>2020-12-13T09:14:45Z</time>
      </trkpt>
      <trkpt lat="45.89266" lon="4.61726">
        <ele>262.1</ele>
        <time>2020-12-13T09:14:46Z</time>
      </trkpt>
      <trkpt lat="45.89267" lon="4.61724">
        <ele>262.2</ele>
        <time>2020-12-13T09:14:47Z</time>
      </trkpt>
      <trkpt lat="45.89268" lon="4.61725">
        <ele>262.3</ele>
        <time>2020-12-13T09:14:48Z</time>
      </trkpt>
      <trkpt lat="45.8927" lon="4.61723">
        <ele>262.5</ele>
        <time>2020-12-13T09:14:49Z</time>
      </trkpt>
      <trkpt lat="45.89271" lon="4.61723">
        <ele>262.6</ele>
        <time>2020-12-13T09:14:50Z</time>
      </trkpt>
      <trkpt lat="45.89272" lon="4.61721">
        <ele>262.7</ele>
        <time>2020-12-13T09:14:51Z</time>
      </trkpt>
      <trkpt lat="45.89274" lon="4.61721">
        <ele>262.9</ele>
        <time>2020-12-13T09:14:52Z</time>
      </trkpt>
      <trkpt lat="45.89276" lon="4.6172">
        <ele>263</ele>
        <time>2020-12-13T09:14:53Z</time>
      </trkpt>
      <trkpt lat="45.89277" lon="4.6172">
        <ele>263.1</ele>
        <time>2020-12-13T09:14:54Z</time>
      </trkpt>
      <trkpt lat="45.89278" lon="4.61718">
        <ele>263.3</ele>
        <time>2020-12-13T09:14:55Z</time>
      </trkpt>
      <trkpt lat="45.8928" lon="4.61718">
        <ele>263.4</ele>
        <time>2020-12-13T09:14:56Z</time>
      </trkpt>
      <trkpt lat="45.89282" lon="4.61717">
        <ele>263.6</ele>
        <time>2020-12-13T09:14:57Z</time>
      </trkpt>
      <trkpt lat="45.89282" lon="4.61717">
        <ele>263.7</ele>
        <time>2020-12-13T09:14:58Z</time>
      </trkpt>
      <trkpt lat="45.89283" lon="4.61716">
        <ele>263.7</ele>
        <time>2020-12-13T09:14:59Z</time>
      </trkpt>
      <trkpt lat="45.89285" lon="4.61715">
        <ele>263.9</ele>
        <time>2020-12-13T09:15:00Z</time>
      </trkpt>
      <trkpt lat="45.89286" lon="4.61714">
        <ele>264</ele>
        <time>2020-12-13T09:15:01Z</time>
      </trkpt>
      <trkpt lat="45.89286" lon="4.61713">
        <ele>264</ele>
        <time>2020-12-13T09:15:02Z</time>
      </trkpt>
      <trkpt lat="45.89288" lon="4.61712">
        <ele>264.2</ele>
        <time>2020-12-13T09:15:03Z</time>
      </trkpt>
      <trkpt lat="45.89289" lon="4.6171">
        <ele>264.3</ele>
        <time>2020-12-13T09:15:04Z</time>
      </trkpt>
      <trkpt lat="45.8929" lon="4.6171">
        <ele>264.4</ele>
        <time>2020-12-13T09:15:05Z</time>
      </trkpt>
      <trkpt lat="45.89291" lon="4.61709">
        <ele>264.5</ele>
        <time>2020-12-13T09:15:06Z</time>
      </trkpt>
      <trkpt lat="45.89293" lon="4.61708">
        <ele>264.7</ele>
        <time>2020-12-13T09:15:07Z</time>
      </trkpt>
      <trkpt lat="45.89294" lon="4.61707">
        <ele>264.8</ele>
        <time>2020-12-13T09:15:08Z</time>
      </trkpt>
      <trkpt lat="45.89295" lon="4.61706">
        <ele>264.9</ele>
        <time>2020-12-13T09:15:09Z</time>
      </trkpt>
      <trkpt lat="45.89297" lon="4.61705">
        <ele>265.1</ele>
        <time>2020-12-13T09:15:10Z</time>
      </trkpt>
      <trkpt lat="45.89298" lon="4.61705">
        <ele>265.1</ele>
        <time>2020-12-13T09:15:11Z</time>
      </trkpt>
      <trkpt lat="45.89299" lon="4.61705">
        <ele>265.2</ele>
        <time>2020-12-13T09:15:12Z</time>
      </trkpt>
      <trkpt lat="45.893" lon="4.61704">
        <ele>265.3</ele>
        <time>2020-12-13T09:15:13Z</time>
      </trkpt>
      <trkpt lat="45.89301" lon="4.61703">
        <ele>265.4</ele>
        <time>2020-12-13T09:15:14Z</time>
      </trkpt>
      <trkpt lat="45.89302" lon="4.61703">
        <ele>265.6</ele>
        <time>2020-12-13T09:15:15Z</time>
      </trkpt>
      <trkpt lat="45.89304" lon="4.61701">
        <ele>265.8</ele>
        <time>2020-12-13T09:15:16Z</time>
      </trkpt>
      <trkpt lat="45.89304" lon="4.61701">
        <ele>265.9</ele>
        <time>2020-12-13T09:15:17Z</time>
      </trkpt>
      <trkpt lat="45.89305" lon="4.617">
        <ele>266</ele>
        <time>2020-12-13T09:15:18Z</time>
      </trkpt>
      <trkpt lat="45.89307" lon="4.61699">
        <ele>266.1</ele>
        <time>2020-12-13T09:15:19Z</time>
      </trkpt>
      <trkpt lat="45.89308" lon="4.61698">
        <ele>266.2</ele>
        <time>2020-12-13T09:15:20Z</time>
      </trkpt>
      <trkpt lat="45.89309" lon="4.61698">
        <ele>266.4</ele>
        <time>2020-12-13T09:15:21Z</time>
      </trkpt>
      <trkpt lat="45.89311" lon="4.61696">
        <ele>266.6</ele>
        <time>2020-12-13T09:15:22Z</time>
      </trkpt>
      <trkpt lat="45.89311" lon="4.61696">
        <ele>266.6</ele>
        <time>2020-12-13T09:15:23Z</time>
      </trkpt>
      <trkpt lat="45.89312" lon="4.61695">
        <ele>266.7</ele>
        <time>2020-12-13T09:15:24Z</time>
      </trkpt>
      <trkpt lat="45.89313" lon="4.61694">
        <ele>266.8</ele>
        <time>2020-12-13T09:15:25Z</time>
      </trkpt>
      <trkpt lat="45.89314" lon="4.61693">
        <ele>267</ele>
        <time>2020-12-13T09:15:26Z</time>
      </trkpt>
      <trkpt lat="45.89315" lon="4.61692">
        <ele>267.1</ele>
        <time>2020-12-13T09:15:27Z</time>
      </trkpt>
      <trkpt lat="45.89316" lon="4.61691">
        <ele>267.2</ele>
        <time>2020-12-13T09:15:28Z</time>
      </trkpt>
      <trkpt lat="45.89317" lon="4.6169">
        <ele>267.3</ele>
        <time>2020-12-13T09:15:29Z</time>
      </trkpt>
      <trkpt lat="45.89318" lon="4.61689">
        <ele>267.5</ele>
        <time>2020-12-13T09:15:30Z</time>
      </trkpt>
      <trkpt lat="45.8932" lon="4.61688">
        <ele>267.7</ele>
        <time>2020-12-13T09:15:31Z</time>
      </trkpt>
      <trkpt lat="45.89321" lon="4.61687">
        <ele>267.8</ele>
        <time>2020-12-13T09:15:32Z</time>
      </trkpt>
      <trkpt lat="45.89321" lon="4.61686">
        <ele>267.9</ele>
        <time>2020-12-13T09:15:33Z</time>
      </trkpt>
      <trkpt lat="45.89323" lon="4.61684">
        <ele>268.1</ele>
        <time>2020-12-13T09:15:34Z</time>
      </trkpt>
      <trkpt lat="45.89323" lon="4.61683">
        <ele>268.2</ele>
        <time>2020-12-13T09:15:35Z</time>
      </trkpt>
      <trkpt lat="45.89324" lon="4.61682">
        <ele>268.3</ele>
        <time>2020-12-13T09:15:36Z</time>
      </trkpt>
      <trkpt lat="45.89325" lon="4.6168">
        <ele>268.4</ele>
        <time>2020-12-13T09:15:38Z</time>
      </trkpt>
      <trkpt lat="45.89326" lon="4.6168">
        <ele>268.6</ele>
        <time>2020-12-13T09:15:39Z</time>
      </trkpt>
      <trkpt lat="45.89328" lon="4.61678">
        <ele>268.8</ele>
        <time>2020-12-13T09:15:40Z</time>
      </trkpt>
      <trkpt lat="45.89329" lon="4.61677">
        <ele>269</ele>
        <time>2020-12-13T09:15:41Z</time>
      </trkpt>
      <trkpt lat="45.8933" lon="4.61674">
        <ele>269.2</ele>
        <time>2020-12-13T09:15:42Z</time>
      </trkpt>
      <trkpt lat="45.89331" lon="4.61673">
        <ele>269.3</ele>
        <time>2020-12-13T09:15:43Z</time>
      </trkpt>
      <trkpt lat="45.89331" lon="4.61672">
        <ele>269.4</ele>
        <time>2020-12-13T09:15:44Z</time>
      </trkpt>
      <trkpt lat="45.89332" lon="4.61671">
        <ele>269.5</ele>
        <time>2020-12-13T09:15:45Z</time>
      </trkpt>
      <trkpt lat="45.89333" lon="4.61669">
        <ele>269.7</ele>
        <time>2020-12-13T09:15:46Z</time>
      </trkpt>
      <trkpt lat="45.89334" lon="4.61668">
        <ele>269.8</ele>
        <time>2020-12-13T09:15:47Z</time>
      </trkpt>
      <trkpt lat="45.89335" lon="4.61668">
        <ele>269.9</ele>
        <time>2020-12-13T09:15:48Z</time>
      </trkpt>
      <trkpt lat="45.89336" lon="4.61666">
        <ele>270.1</ele>
        <time>2020-12-13T09:15:49Z</time>
      </trkpt>
      <trkpt lat="45.89337" lon="4.61665">
        <ele>270.2</ele>
        <time>2020-12-13T09:15:50Z</time>
      </trkpt>
      <trkpt lat="45.89338" lon="4.61663">
        <ele>270.4</ele>
        <time>2020-12-13T09:15:51Z</time>
      </trkpt>
      <trkpt lat="45.89339" lon="4.61662">
        <ele>270.5</ele>
        <time>2020-12-13T09:15:52Z</time>
      </trkpt>
      <trkpt lat="45.8934" lon="4.61661">
        <ele>270.7</ele>
        <time>2020-12-13T09:15:53Z</time>
      </trkpt>
      <trkpt lat="45.8934" lon="4.6166">
        <ele>270.8</ele>
        <time>2020-12-13T09:15:54Z</time>
      </trkpt>
      <trkpt lat="45.89341" lon="4.61659">
        <ele>270.9</ele>
        <time>2020-12-13T09:15:55Z</time>
      </trkpt>
      <trkpt lat="45.89342" lon="4.61657">
        <ele>271</ele>
        <time>2020-12-13T09:15:56Z</time>
      </trkpt>
      <trkpt lat="45.89342" lon="4.61656">
        <ele>271.2</ele>
        <time>2020-12-13T09:15:57Z</time>
      </trkpt>
      <trkpt lat="45.89343" lon="4.61655">
        <ele>271.3</ele>
        <time>2020-12-13T09:15:58Z</time>
      </trkpt>
      <trkpt lat="45.89344" lon="4.61653">
        <ele>271.4</ele>
        <time>2020-12-13T09:15:59Z</time>
      </trkpt>
      <trkpt lat="45.89345" lon="4.6165">
        <ele>271.7</ele>
        <time>2020-12-13T09:16:00Z</time>
      </trkpt>
      <trkpt lat="45.89346" lon="4.61649">
        <ele>271.8</ele>
        <time>2020-12-13T09:16:01Z</time>
      </trkpt>
      <trkpt lat="45.89346" lon="4.61648">
        <ele>272</ele>
        <time>2020-12-13T09:16:02Z</time>
      </trkpt>
      <trkpt lat="45.89348" lon="4.61647">
        <ele>272.1</ele>
        <time>2020-12-13T09:16:03Z</time>
      </trkpt>
      <trkpt lat="45.89348" lon="4.61646">
        <ele>272.2</ele>
        <time>2020-12-13T09:16:04Z</time>
      </trkpt>
      <trkpt lat="45.8935" lon="4.61644">
        <ele>272.4</ele>
        <time>2020-12-13T09:16:05Z</time>
      </trkpt>
      <trkpt lat="45.8935" lon="4.61643">
        <ele>272.5</ele>
        <time>2020-12-13T09:16:06Z</time>
      </trkpt>
      <trkpt lat="45.89351" lon="4.61642">
        <ele>272.6</ele>
        <time>2020-12-13T09:16:07Z</time>
      </trkpt>
      <trkpt lat="45.89352" lon="4.6164">
        <ele>272.9</ele>
        <time>2020-12-13T09:16:08Z</time>
      </trkpt>
      <trkpt lat="45.89353" lon="4.61639">
        <ele>273</ele>
        <time>2020-12-13T09:16:09Z</time>
      </trkpt>
      <trkpt lat="45.89353" lon="4.61639">
        <ele>273.1</ele>
        <time>2020-12-13T09:16:10Z</time>
      </trkpt>
      <trkpt lat="45.89355" lon="4.61637">
        <ele>273.2</ele>
        <time>2020-12-13T09:16:11Z</time>
      </trkpt>
      <trkpt lat="45.89356" lon="4.61636">
        <ele>273.4</ele>
        <time>2020-12-13T09:16:12Z</time>
      </trkpt>
      <trkpt lat="45.89357" lon="4.61635">
        <ele>273.5</ele>
        <time>2020-12-13T09:16:13Z</time>
      </trkpt>
      <trkpt lat="45.89358" lon="4.61633">
        <ele>273.7</ele>
        <time>2020-12-13T09:16:14Z</time>
      </trkpt>
      <trkpt lat="45.89358" lon="4.61632">
        <ele>273.8</ele>
        <time>2020-12-13T09:16:15Z</time>
      </trkpt>
      <trkpt lat="45.89359" lon="4.61631">
        <ele>273.9</ele>
        <time>2020-12-13T09:16:16Z</time>
      </trkpt>
      <trkpt lat="45.8936" lon="4.6163">
        <ele>274</ele>
        <time>2020-12-13T09:16:17Z</time>
      </trkpt>
      <trkpt lat="45.89361" lon="4.61629">
        <ele>274.1</ele>
        <time>2020-12-13T09:16:18Z</time>
      </trkpt>
      <trkpt lat="45.89362" lon="4.61628">
        <ele>274.3</ele>
        <time>2020-12-13T09:16:19Z</time>
      </trkpt>
      <trkpt lat="45.89362" lon="4.61627">
        <ele>274.4</ele>
        <time>2020-12-13T09:16:20Z</time>
      </trkpt>
      <trkpt lat="45.89363" lon="4.61626">
        <ele>274.5</ele>
        <time>2020-12-13T09:16:21Z</time>
      </trkpt>
      <trkpt lat="45.89365" lon="4.61626">
        <ele>274.7</ele>
        <time>2020-12-13T09:16:22Z</time>
      </trkpt>
      <trkpt lat="45.89366" lon="4.61625">
        <ele>274.8</ele>
        <time>2020-12-13T09:16:23Z</time>
      </trkpt>
      <trkpt lat="45.89368" lon="4.61624">
        <ele>275</ele>
        <time>2020-12-13T09:16:24Z</time>
      </trkpt>
      <trkpt lat="45.89368" lon="4.61623">
        <ele>275.1</ele>
        <time>2020-12-13T09:16:25Z</time>
      </trkpt>
      <trkpt lat="45.8937" lon="4.61622">
        <ele>275.3</ele>
        <time>2020-12-13T09:16:26Z</time>
      </trkpt>
      <trkpt lat="45.89371" lon="4.61621">
        <ele>275.5</ele>
        <time>2020-12-13T09:16:27Z</time>
      </trkpt>
      <trkpt lat="45.89372" lon="4.6162">
        <ele>275.6</ele>
        <time>2020-12-13T09:16:28Z</time>
      </trkpt>
      <trkpt lat="45.89373" lon="4.61619">
        <ele>275.7</ele>
        <time>2020-12-13T09:16:29Z</time>
      </trkpt>
      <trkpt lat="45.89374" lon="4.61619">
        <ele>275.8</ele>
        <time>2020-12-13T09:16:30Z</time>
      </trkpt>
      <trkpt lat="45.89376" lon="4.61618">
        <ele>276</ele>
        <time>2020-12-13T09:16:31Z</time>
      </trkpt>
      <trkpt lat="45.89377" lon="4.61618">
        <ele>276.1</ele>
        <time>2020-12-13T09:16:32Z</time>
      </trkpt>
      <trkpt lat="45.89377" lon="4.61618">
        <ele>276.1</ele>
        <time>2020-12-13T09:16:33Z</time>
      </trkpt>
      <trkpt lat="45.89378" lon="4.61617">
        <ele>276.2</ele>
        <time>2020-12-13T09:16:34Z</time>
      </trkpt>
      <trkpt lat="45.8938" lon="4.61617">
        <ele>276.4</ele>
        <time>2020-12-13T09:16:35Z</time>
      </trkpt>
      <trkpt lat="45.89381" lon="4.61615">
        <ele>276.6</ele>
        <time>2020-12-13T09:16:36Z</time>
      </trkpt>
      <trkpt lat="45.89382" lon="4.61614">
        <ele>276.7</ele>
        <time>2020-12-13T09:16:37Z</time>
      </trkpt>
      <trkpt lat="45.89383" lon="4.61613">
        <ele>276.8</ele>
        <time>2020-12-13T09:16:38Z</time>
      </trkpt>
      <trkpt lat="45.89384" lon="4.61612">
        <ele>276.9</ele>
        <time>2020-12-13T09:16:39Z</time>
      </trkpt>
      <trkpt lat="45.89385" lon="4.61611">
        <ele>277</ele>
        <time>2020-12-13T09:16:40Z</time>
      </trkpt>
      <trkpt lat="45.89386" lon="4.6161">
        <ele>277.2</ele>
        <time>2020-12-13T09:16:41Z</time>
      </trkpt>
      <trkpt lat="45.89388" lon="4.61609">
        <ele>277.3</ele>
        <time>2020-12-13T09:16:42Z</time>
      </trkpt>
      <trkpt lat="45.89389" lon="4.61608">
        <ele>277.5</ele>
        <time>2020-12-13T09:16:43Z</time>
      </trkpt>
      <trkpt lat="45.8939" lon="4.61607">
        <ele>277.6</ele>
        <time>2020-12-13T09:16:44Z</time>
      </trkpt>
      <trkpt lat="45.89391" lon="4.61606">
        <ele>277.7</ele>
        <time>2020-12-13T09:16:45Z</time>
      </trkpt>
      <trkpt lat="45.89392" lon="4.61606">
        <ele>277.8</ele>
        <time>2020-12-13T09:16:46Z</time>
      </trkpt>
      <trkpt lat="45.89394" lon="4.61604">
        <ele>278</ele>
        <time>2020-12-13T09:16:47Z</time>
      </trkpt>
      <trkpt lat="45.89395" lon="4.61604">
        <ele>278.1</ele>
        <time>2020-12-13T09:16:48Z</time>
      </trkpt>
      <trkpt lat="45.89395" lon="4.61603">
        <ele>278.1</ele>
        <time>2020-12-13T09:16:49Z</time>
      </trkpt>
      <trkpt lat="45.89397" lon="4.61603">
        <ele>278.3</ele>
        <time>2020-12-13T09:16:50Z</time>
      </trkpt>
      <trkpt lat="45.89397" lon="4.61602">
        <ele>278.3</ele>
        <time>2020-12-13T09:16:51Z</time>
      </trkpt>
      <trkpt lat="45.89399" lon="4.61601">
        <ele>278.5</ele>
        <time>2020-12-13T09:16:52Z</time>
      </trkpt>
      <trkpt lat="45.89399" lon="4.616">
        <ele>278.6</ele>
        <time>2020-12-13T09:16:53Z</time>
      </trkpt>
      <trkpt lat="45.89401" lon="4.61599">
        <ele>278.7</ele>
        <time>2020-12-13T09:16:54Z</time>
      </trkpt>
      <trkpt lat="45.89403" lon="4.61597">
        <ele>278.9</ele>
        <time>2020-12-13T09:16:55Z</time>
      </trkpt>
      <trkpt lat="45.89403" lon="4.61597">
        <ele>279</ele>
        <time>2020-12-13T09:16:56Z</time>
      </trkpt>
      <trkpt lat="45.89404" lon="4.61596">
        <ele>279.1</ele>
        <time>2020-12-13T09:16:57Z</time>
      </trkpt>
      <trkpt lat="45.89406" lon="4.61595">
        <ele>279.2</ele>
        <time>2020-12-13T09:16:58Z</time>
      </trkpt>
      <trkpt lat="45.89406" lon="4.61594">
        <ele>279.3</ele>
        <time>2020-12-13T09:16:59Z</time>
      </trkpt>
      <trkpt lat="45.89407" lon="4.61593">
        <ele>279.4</ele>
        <time>2020-12-13T09:17:00Z</time>
      </trkpt>
      <trkpt lat="45.89408" lon="4.61592">
        <ele>279.5</ele>
        <time>2020-12-13T09:17:01Z</time>
      </trkpt>
      <trkpt lat="45.89409" lon="4.6159">
        <ele>279.7</ele>
        <time>2020-12-13T09:17:02Z</time>
      </trkpt>
      <trkpt lat="45.8941" lon="4.61589">
        <ele>279.8</ele>
        <time>2020-12-13T09:17:03Z</time>
      </trkpt>
      <trkpt lat="45.89411" lon="4.61588">
        <ele>279.9</ele>
        <time>2020-12-13T09:17:04Z</time>
      </trkpt>
      <trkpt lat="45.89411" lon="4.61586">
        <ele>280</ele>
        <time>2020-12-13T09:17:05Z</time>
      </trkpt>
      <trkpt lat="45.89413" lon="4.61586">
        <ele>280.1</ele>
        <time>2020-12-13T09:17:06Z</time>
      </trkpt>
      <trkpt lat="45.89413" lon="4.61585">
        <ele>280.2</ele>
        <time>2020-12-13T09:17:07Z</time>
      </trkpt>
      <trkpt lat="45.89414" lon="4.61584">
        <ele>280.3</ele>
        <time>2020-12-13T09:17:08Z</time>
      </trkpt>
      <trkpt lat="45.89415" lon="4.61582">
        <ele>280.4</ele>
        <time>2020-12-13T09:17:09Z</time>
      </trkpt>
      <trkpt lat="45.89417" lon="4.61581">
        <ele>280.5</ele>
        <time>2020-12-13T09:17:10Z</time>
      </trkpt>
      <trkpt lat="45.89417" lon="4.6158">
        <ele>280.6</ele>
        <time>2020-12-13T09:17:11Z</time>
      </trkpt>
      <trkpt lat="45.89418" lon="4.6158">
        <ele>280.7</ele>
        <time>2020-12-13T09:17:12Z</time>
      </trkpt>
      <trkpt lat="45.89419" lon="4.61579">
        <ele>280.8</ele>
        <time>2020-12-13T09:17:13Z</time>
      </trkpt>
      <trkpt lat="45.89421" lon="4.61577">
        <ele>281</ele>
        <time>2020-12-13T09:17:14Z</time>
      </trkpt>
      <trkpt lat="45.89422" lon="4.61576">
        <ele>281.1</ele>
        <time>2020-12-13T09:17:15Z</time>
      </trkpt>
      <trkpt lat="45.89423" lon="4.61575">
        <ele>281.2</ele>
        <time>2020-12-13T09:17:16Z</time>
      </trkpt>
      <trkpt lat="45.89425" lon="4.61574">
        <ele>281.4</ele>
        <time>2020-12-13T09:17:17Z</time>
      </trkpt>
      <trkpt lat="45.89425" lon="4.61573">
        <ele>281.4</ele>
        <time>2020-12-13T09:17:18Z</time>
      </trkpt>
      <trkpt lat="45.89427" lon="4.61571">
        <ele>281.6</ele>
        <time>2020-12-13T09:17:19Z</time>
      </trkpt>
      <trkpt lat="45.89428" lon="4.6157">
        <ele>281.7</ele>
        <time>2020-12-13T09:17:20Z</time>
      </trkpt>
      <trkpt lat="45.89429" lon="4.61569">
        <ele>281.9</ele>
        <time>2020-12-13T09:17:21Z</time>
      </trkpt>
      <trkpt lat="45.89431" lon="4.61567">
        <ele>282</ele>
        <time>2020-12-13T09:17:22Z</time>
      </trkpt>
      <trkpt lat="45.89431" lon="4.61566">
        <ele>282.1</ele>
        <time>2020-12-13T09:17:23Z</time>
      </trkpt>
      <trkpt lat="45.89433" lon="4.61565">
        <ele>282.2</ele>
        <time>2020-12-13T09:17:24Z</time>
      </trkpt>
      <trkpt lat="45.89433" lon="4.61564">
        <ele>282.3</ele>
        <time>2020-12-13T09:17:25Z</time>
      </trkpt>
      <trkpt lat="45.89434" lon="4.61563">
        <ele>282.4</ele>
        <time>2020-12-13T09:17:26Z</time>
      </trkpt>
      <trkpt lat="45.89434" lon="4.61562">
        <ele>282.4</ele>
        <time>2020-12-13T09:17:27Z</time>
      </trkpt>
      <trkpt lat="45.89436" lon="4.6156">
        <ele>282.6</ele>
        <time>2020-12-13T09:17:28Z</time>
      </trkpt>
      <trkpt lat="45.89437" lon="4.61559">
        <ele>282.7</ele>
        <time>2020-12-13T09:17:29Z</time>
      </trkpt>
      <trkpt lat="45.89438" lon="4.61558">
        <ele>282.8</ele>
        <time>2020-12-13T09:17:30Z</time>
      </trkpt>
      <trkpt lat="45.8944" lon="4.61557">
        <ele>282.9</ele>
        <time>2020-12-13T09:17:31Z</time>
      </trkpt>
      <trkpt lat="45.89441" lon="4.61556">
        <ele>283.1</ele>
        <time>2020-12-13T09:17:32Z</time>
      </trkpt>
      <trkpt lat="45.89442" lon="4.61555">
        <ele>283.1</ele>
        <time>2020-12-13T09:17:33Z</time>
      </trkpt>
      <trkpt lat="45.89443" lon="4.61554">
        <ele>283.2</ele>
        <time>2020-12-13T09:17:34Z</time>
      </trkpt>
      <trkpt lat="45.89443" lon="4.61553">
        <ele>283.3</ele>
        <time>2020-12-13T09:17:35Z</time>
      </trkpt>
      <trkpt lat="45.89444" lon="4.61552">
        <ele>283.4</ele>
        <time>2020-12-13T09:17:36Z</time>
      </trkpt>
      <trkpt lat="45.89446" lon="4.61552">
        <ele>283.5</ele>
        <time>2020-12-13T09:17:37Z</time>
      </trkpt>
      <trkpt lat="45.89447" lon="4.6155">
        <ele>283.6</ele>
        <time>2020-12-13T09:17:38Z</time>
      </trkpt>
      <trkpt lat="45.89448" lon="4.61549">
        <ele>283.7</ele>
        <time>2020-12-13T09:17:39Z</time>
      </trkpt>
      <trkpt lat="45.89449" lon="4.61548">
        <ele>283.8</ele>
        <time>2020-12-13T09:17:40Z</time>
      </trkpt>
      <trkpt lat="45.89449" lon="4.61547">
        <ele>283.8</ele>
        <time>2020-12-13T09:17:41Z</time>
      </trkpt>
      <trkpt lat="45.8945" lon="4.61546">
        <ele>283.9</ele>
        <time>2020-12-13T09:17:42Z</time>
      </trkpt>
      <trkpt lat="45.89452" lon="4.61544">
        <ele>284.1</ele>
        <time>2020-12-13T09:17:44Z</time>
      </trkpt>
      <trkpt lat="45.89454" lon="4.61542">
        <ele>284.2</ele>
        <time>2020-12-13T09:17:45Z</time>
      </trkpt>
      <trkpt lat="45.89454" lon="4.61541">
        <ele>284.3</ele>
        <time>2020-12-13T09:17:46Z</time>
      </trkpt>
      <trkpt lat="45.89455" lon="4.6154">
        <ele>284.4</ele>
        <time>2020-12-13T09:17:47Z</time>
      </trkpt>
      <trkpt lat="45.89456" lon="4.61539">
        <ele>284.5</ele>
        <time>2020-12-13T09:17:48Z</time>
      </trkpt>
      <trkpt lat="45.89457" lon="4.61538">
        <ele>284.6</ele>
        <time>2020-12-13T09:17:49Z</time>
      </trkpt>
      <trkpt lat="45.89458" lon="4.61538">
        <ele>284.6</ele>
        <time>2020-12-13T09:17:50Z</time>
      </trkpt>
      <trkpt lat="45.89458" lon="4.61538">
        <ele>284.6</ele>
        <time>2020-12-13T09:17:51Z</time>
      </trkpt>
      <trkpt lat="45.89459" lon="4.61536">
        <ele>284.8</ele>
        <time>2020-12-13T09:17:52Z</time>
      </trkpt>
      <trkpt lat="45.8946" lon="4.61535">
        <ele>284.9</ele>
        <time>2020-12-13T09:17:53Z</time>
      </trkpt>
      <trkpt lat="45.89463" lon="4.61532">
        <ele>285.1</ele>
        <time>2020-12-13T09:17:54Z</time>
      </trkpt>
      <trkpt lat="45.89463" lon="4.61531">
        <ele>285.1</ele>
        <time>2020-12-13T09:17:55Z</time>
      </trkpt>
      <trkpt lat="45.89466" lon="4.61528">
        <ele>285.4</ele>
        <time>2020-12-13T09:17:56Z</time>
      </trkpt>
      <trkpt lat="45.89468" lon="4.61527">
        <ele>285.5</ele>
        <time>2020-12-13T09:17:58Z</time>
      </trkpt>
      <trkpt lat="45.89469" lon="4.61526">
        <ele>285.5</ele>
        <time>2020-12-13T09:17:59Z</time>
      </trkpt>
      <trkpt lat="45.89469" lon="4.61526">
        <ele>285.6</ele>
        <time>2020-12-13T09:18:00Z</time>
      </trkpt>
      <trkpt lat="45.8947" lon="4.61524">
        <ele>285.7</ele>
        <time>2020-12-13T09:18:01Z</time>
      </trkpt>
      <trkpt lat="45.89471" lon="4.61523">
        <ele>285.8</ele>
        <time>2020-12-13T09:18:02Z</time>
      </trkpt>
      <trkpt lat="45.89473" lon="4.61519">
        <ele>286</ele>
        <time>2020-12-13T09:18:03Z</time>
      </trkpt>
      <trkpt lat="45.89474" lon="4.61518">
        <ele>286.1</ele>
        <time>2020-12-13T09:18:04Z</time>
      </trkpt>
      <trkpt lat="45.89477" lon="4.61517">
        <ele>286.2</ele>
        <time>2020-12-13T09:18:05Z</time>
      </trkpt>
      <trkpt lat="45.89478" lon="4.61516">
        <ele>286.3</ele>
        <time>2020-12-13T09:18:06Z</time>
      </trkpt>
      <trkpt lat="45.89478" lon="4.61515">
        <ele>286.4</ele>
        <time>2020-12-13T09:18:07Z</time>
      </trkpt>
      <trkpt lat="45.89479" lon="4.61514">
        <ele>286.4</ele>
        <time>2020-12-13T09:18:08Z</time>
      </trkpt>
      <trkpt lat="45.8948" lon="4.61513">
        <ele>286.5</ele>
        <time>2020-12-13T09:18:09Z</time>
      </trkpt>
      <trkpt lat="45.89482" lon="4.61511">
        <ele>286.7</ele>
        <time>2020-12-13T09:18:10Z</time>
      </trkpt>
      <trkpt lat="45.89483" lon="4.6151">
        <ele>286.7</ele>
        <time>2020-12-13T09:18:11Z</time>
      </trkpt>
      <trkpt lat="45.89484" lon="4.61509">
        <ele>286.8</ele>
        <time>2020-12-13T09:18:12Z</time>
      </trkpt>
      <trkpt lat="45.89485" lon="4.61507">
        <ele>287</ele>
        <time>2020-12-13T09:18:13Z</time>
      </trkpt>
      <trkpt lat="45.89486" lon="4.61506">
        <ele>287</ele>
        <time>2020-12-13T09:18:14Z</time>
      </trkpt>
      <trkpt lat="45.89487" lon="4.61504">
        <ele>287.1</ele>
        <time>2020-12-13T09:18:15Z</time>
      </trkpt>
      <trkpt lat="45.89488" lon="4.61503">
        <ele>287.2</ele>
        <time>2020-12-13T09:18:16Z</time>
      </trkpt>
      <trkpt lat="45.89489" lon="4.61503">
        <ele>287.2</ele>
        <time>2020-12-13T09:18:17Z</time>
      </trkpt>
      <trkpt lat="45.89489" lon="4.61503">
        <ele>287.3</ele>
        <time>2020-12-13T09:18:18Z</time>
      </trkpt>
      <trkpt lat="45.89491" lon="4.61501">
        <ele>287.4</ele>
        <time>2020-12-13T09:18:19Z</time>
      </trkpt>
      <trkpt lat="45.89492" lon="4.615">
        <ele>287.5</ele>
        <time>2020-12-13T09:18:20Z</time>
      </trkpt>
      <trkpt lat="45.89493" lon="4.61499">
        <ele>287.5</ele>
        <time>2020-12-13T09:18:21Z</time>
      </trkpt>
      <trkpt lat="45.89495" lon="4.61497">
        <ele>287.7</ele>
        <time>2020-12-13T09:18:22Z</time>
      </trkpt>
      <trkpt lat="45.89496" lon="4.61495">
        <ele>287.8</ele>
        <time>2020-12-13T09:18:23Z</time>
      </trkpt>
      <trkpt lat="45.89496" lon="4.61496">
        <ele>287.8</ele>
        <time>2020-12-13T09:18:24Z</time>
      </trkpt>
      <trkpt lat="45.89497" lon="4.61494">
        <ele>287.9</ele>
        <time>2020-12-13T09:18:25Z</time>
      </trkpt>
      <trkpt lat="45.89499" lon="4.61493">
        <ele>288</ele>
        <time>2020-12-13T09:18:26Z</time>
      </trkpt>
      <trkpt lat="45.895" lon="4.61492">
        <ele>288.1</ele>
        <time>2020-12-13T09:18:27Z</time>
      </trkpt>
      <trkpt lat="45.89501" lon="4.61491">
        <ele>288.2</ele>
        <time>2020-12-13T09:18:28Z</time>
      </trkpt>
      <trkpt lat="45.89503" lon="4.61489">
        <ele>288.3</ele>
        <time>2020-12-13T09:18:29Z</time>
      </trkpt>
      <trkpt lat="45.89503" lon="4.61489">
        <ele>288.3</ele>
        <time>2020-12-13T09:18:30Z</time>
      </trkpt>
      <trkpt lat="45.89504" lon="4.61488">
        <ele>288.4</ele>
        <time>2020-12-13T09:18:31Z</time>
      </trkpt>
      <trkpt lat="45.89505" lon="4.61486">
        <ele>288.5</ele>
        <time>2020-12-13T09:18:32Z</time>
      </trkpt>
      <trkpt lat="45.89507" lon="4.61485">
        <ele>288.5</ele>
        <time>2020-12-13T09:18:33Z</time>
      </trkpt>
      <trkpt lat="45.89508" lon="4.61484">
        <ele>288.6</ele>
        <time>2020-12-13T09:18:34Z</time>
      </trkpt>
      <trkpt lat="45.89508" lon="4.61483">
        <ele>288.7</ele>
        <time>2020-12-13T09:18:35Z</time>
      </trkpt>
      <trkpt lat="45.8951" lon="4.61482">
        <ele>288.8</ele>
        <time>2020-12-13T09:18:36Z</time>
      </trkpt>
      <trkpt lat="45.89511" lon="4.61481">
        <ele>288.8</ele>
        <time>2020-12-13T09:18:37Z</time>
      </trkpt>
      <trkpt lat="45.89512" lon="4.61479">
        <ele>288.9</ele>
        <time>2020-12-13T09:18:38Z</time>
      </trkpt>
      <trkpt lat="45.89513" lon="4.61478">
        <ele>289</ele>
        <time>2020-12-13T09:18:39Z</time>
      </trkpt>
      <trkpt lat="45.89513" lon="4.61478">
        <ele>289</ele>
        <time>2020-12-13T09:18:40Z</time>
      </trkpt>
      <trkpt lat="45.89514" lon="4.61477">
        <ele>289.1</ele>
        <time>2020-12-13T09:18:41Z</time>
      </trkpt>
      <trkpt lat="45.89515" lon="4.61475">
        <ele>289.2</ele>
        <time>2020-12-13T09:18:42Z</time>
      </trkpt>
      <trkpt lat="45.89516" lon="4.61473">
        <ele>289.3</ele>
        <time>2020-12-13T09:18:43Z</time>
      </trkpt>
      <trkpt lat="45.89517" lon="4.61472">
        <ele>289.4</ele>
        <time>2020-12-13T09:18:44Z</time>
      </trkpt>
      <trkpt lat="45.89518" lon="4.61471">
        <ele>289.4</ele>
        <time>2020-12-13T09:18:45Z</time>
      </trkpt>
      <trkpt lat="45.89519" lon="4.6147">
        <ele>289.5</ele>
        <time>2020-12-13T09:18:46Z</time>
      </trkpt>
      <trkpt lat="45.8952" lon="4.61469">
        <ele>289.6</ele>
        <time>2020-12-13T09:18:47Z</time>
      </trkpt>
      <trkpt lat="45.89522" lon="4.61467">
        <ele>289.7</ele>
        <time>2020-12-13T09:18:48Z</time>
      </trkpt>
      <trkpt lat="45.89523" lon="4.61466">
        <ele>289.7</ele>
        <time>2020-12-13T09:18:49Z</time>
      </trkpt>
      <trkpt lat="45.89524" lon="4.61466">
        <ele>289.8</ele>
        <time>2020-12-13T09:18:50Z</time>
      </trkpt>
      <trkpt lat="45.89524" lon="4.61465">
        <ele>289.8</ele>
        <time>2020-12-13T09:18:51Z</time>
      </trkpt>
      <trkpt lat="45.89525" lon="4.61464">
        <ele>289.9</ele>
        <time>2020-12-13T09:18:52Z</time>
      </trkpt>
      <trkpt lat="45.89526" lon="4.61463">
        <ele>290</ele>
        <time>2020-12-13T09:18:53Z</time>
      </trkpt>
      <trkpt lat="45.89528" lon="4.61461">
        <ele>290.1</ele>
        <time>2020-12-13T09:18:54Z</time>
      </trkpt>
      <trkpt lat="45.8953" lon="4.61459">
        <ele>290.2</ele>
        <time>2020-12-13T09:18:55Z</time>
      </trkpt>
      <trkpt lat="45.89531" lon="4.61458">
        <ele>290.2</ele>
        <time>2020-12-13T09:18:56Z</time>
      </trkpt>
      <trkpt lat="45.89532" lon="4.61458">
        <ele>290.3</ele>
        <time>2020-12-13T09:18:57Z</time>
      </trkpt>
      <trkpt lat="45.89533" lon="4.61457">
        <ele>290.3</ele>
        <time>2020-12-13T09:18:58Z</time>
      </trkpt>
      <trkpt lat="45.89533" lon="4.61456">
        <ele>290.4</ele>
        <time>2020-12-13T09:18:59Z</time>
      </trkpt>
      <trkpt lat="45.89534" lon="4.61455">
        <ele>290.4</ele>
        <time>2020-12-13T09:19:00Z</time>
      </trkpt>
      <trkpt lat="45.89536" lon="4.61452">
        <ele>290.6</ele>
        <time>2020-12-13T09:19:01Z</time>
      </trkpt>
      <trkpt lat="45.89537" lon="4.61451">
        <ele>290.6</ele>
        <time>2020-12-13T09:19:02Z</time>
      </trkpt>
      <trkpt lat="45.89539" lon="4.6145">
        <ele>290.7</ele>
        <time>2020-12-13T09:19:03Z</time>
      </trkpt>
      <trkpt lat="45.8954" lon="4.61449">
        <ele>290.7</ele>
        <time>2020-12-13T09:19:04Z</time>
      </trkpt>
      <trkpt lat="45.89541" lon="4.61448">
        <ele>290.8</ele>
        <time>2020-12-13T09:19:05Z</time>
      </trkpt>
      <trkpt lat="45.89542" lon="4.61447">
        <ele>290.9</ele>
        <time>2020-12-13T09:19:06Z</time>
      </trkpt>
      <trkpt lat="45.89543" lon="4.61446">
        <ele>290.9</ele>
        <time>2020-12-13T09:19:07Z</time>
      </trkpt>
      <trkpt lat="45.89545" lon="4.61444">
        <ele>291</ele>
        <time>2020-12-13T09:19:08Z</time>
      </trkpt>
      <trkpt lat="45.89546" lon="4.61443">
        <ele>291.1</ele>
        <time>2020-12-13T09:19:09Z</time>
      </trkpt>
      <trkpt lat="45.89546" lon="4.61442">
        <ele>291.1</ele>
        <time>2020-12-13T09:19:10Z</time>
      </trkpt>
      <trkpt lat="45.89547" lon="4.61441">
        <ele>291.1</ele>
        <time>2020-12-13T09:19:11Z</time>
      </trkpt>
      <trkpt lat="45.89548" lon="4.6144">
        <ele>291.2</ele>
        <time>2020-12-13T09:19:12Z</time>
      </trkpt>
      <trkpt lat="45.89548" lon="4.61439">
        <ele>291.2</ele>
        <time>2020-12-13T09:19:13Z</time>
      </trkpt>
      <trkpt lat="45.89549" lon="4.61439">
        <ele>291.2</ele>
        <time>2020-12-13T09:19:14Z</time>
      </trkpt>
      <trkpt lat="45.89551" lon="4.61437">
        <ele>291.3</ele>
        <time>2020-12-13T09:19:15Z</time>
      </trkpt>
      <trkpt lat="45.89551" lon="4.61436">
        <ele>291.3</ele>
        <time>2020-12-13T09:19:16Z</time>
      </trkpt>
      <trkpt lat="45.89552" lon="4.61436">
        <ele>291.4</ele>
        <time>2020-12-13T09:19:17Z</time>
      </trkpt>
      <trkpt lat="45.89553" lon="4.61434">
        <ele>291.4</ele>
        <time>2020-12-13T09:19:18Z</time>
      </trkpt>
      <trkpt lat="45.89554" lon="4.61433">
        <ele>291.5</ele>
        <time>2020-12-13T09:19:19Z</time>
      </trkpt>
      <trkpt lat="45.89555" lon="4.61432">
        <ele>291.5</ele>
        <time>2020-12-13T09:19:20Z</time>
      </trkpt>
      <trkpt lat="45.89556" lon="4.61431">
        <ele>291.6</ele>
        <time>2020-12-13T09:19:21Z</time>
      </trkpt>
      <trkpt lat="45.89557" lon="4.6143">
        <ele>291.6</ele>
        <time>2020-12-13T09:19:22Z</time>
      </trkpt>
      <trkpt lat="45.89558" lon="4.61429">
        <ele>291.7</ele>
        <time>2020-12-13T09:19:23Z</time>
      </trkpt>
      <trkpt lat="45.8956" lon="4.61427">
        <ele>291.8</ele>
        <time>2020-12-13T09:19:24Z</time>
      </trkpt>
      <trkpt lat="45.8956" lon="4.61426">
        <ele>291.8</ele>
        <time>2020-12-13T09:19:25Z</time>
      </trkpt>
      <trkpt lat="45.89561" lon="4.61426">
        <ele>291.8</ele>
        <time>2020-12-13T09:19:26Z</time>
      </trkpt>
      <trkpt lat="45.89562" lon="4.61424">
        <ele>291.9</ele>
        <time>2020-12-13T09:19:27Z</time>
      </trkpt>
      <trkpt lat="45.89563" lon="4.61423">
        <ele>291.9</ele>
        <time>2020-12-13T09:19:28Z</time>
      </trkpt>
      <trkpt lat="45.89564" lon="4.61423">
        <ele>291.9</ele>
        <time>2020-12-13T09:19:29Z</time>
      </trkpt>
      <trkpt lat="45.89564" lon="4.61422">
        <ele>292</ele>
        <time>2020-12-13T09:19:30Z</time>
      </trkpt>
      <trkpt lat="45.89564" lon="4.61421">
        <ele>292</ele>
        <time>2020-12-13T09:19:31Z</time>
      </trkpt>
      <trkpt lat="45.89565" lon="4.61419">
        <ele>292.1</ele>
        <time>2020-12-13T09:19:32Z</time>
      </trkpt>
      <trkpt lat="45.89566" lon="4.61418">
        <ele>292.1</ele>
        <time>2020-12-13T09:19:33Z</time>
      </trkpt>
      <trkpt lat="45.89567" lon="4.61417">
        <ele>292.1</ele>
        <time>2020-12-13T09:19:34Z</time>
      </trkpt>
      <trkpt lat="45.89567" lon="4.61416">
        <ele>292.2</ele>
        <time>2020-12-13T09:19:35Z</time>
      </trkpt>
      <trkpt lat="45.8957" lon="4.61414">
        <ele>292.3</ele>
        <time>2020-12-13T09:19:36Z</time>
      </trkpt>
      <trkpt lat="45.89571" lon="4.61413">
        <ele>292.3</ele>
        <time>2020-12-13T09:19:37Z</time>
      </trkpt>
      <trkpt lat="45.89572" lon="4.61412">
        <ele>292.4</ele>
        <time>2020-12-13T09:19:38Z</time>
      </trkpt>
      <trkpt lat="45.89573" lon="4.61411">
        <ele>292.4</ele>
        <time>2020-12-13T09:19:39Z</time>
      </trkpt>
      <trkpt lat="45.89575" lon="4.6141">
        <ele>292.5</ele>
        <time>2020-12-13T09:19:40Z</time>
      </trkpt>
      <trkpt lat="45.89576" lon="4.61409">
        <ele>292.5</ele>
        <time>2020-12-13T09:19:41Z</time>
      </trkpt>
      <trkpt lat="45.89576" lon="4.61408">
        <ele>292.5</ele>
        <time>2020-12-13T09:19:42Z</time>
      </trkpt>
      <trkpt lat="45.89578" lon="4.61406">
        <ele>292.7</ele>
        <time>2020-12-13T09:19:43Z</time>
      </trkpt>
      <trkpt lat="45.89579" lon="4.61405">
        <ele>292.7</ele>
        <time>2020-12-13T09:19:44Z</time>
      </trkpt>
      <trkpt lat="45.89581" lon="4.61403">
        <ele>292.8</ele>
        <time>2020-12-13T09:19:45Z</time>
      </trkpt>
      <trkpt lat="45.89581" lon="4.61402">
        <ele>292.9</ele>
        <time>2020-12-13T09:19:46Z</time>
      </trkpt>
      <trkpt lat="45.89582" lon="4.61401">
        <ele>292.9</ele>
        <time>2020-12-13T09:19:47Z</time>
      </trkpt>
      <trkpt lat="45.89584" lon="4.614">
        <ele>293</ele>
        <time>2020-12-13T09:19:48Z</time>
      </trkpt>
      <trkpt lat="45.89584" lon="4.61399">
        <ele>293</ele>
        <time>2020-12-13T09:19:50Z</time>
      </trkpt>
      <trkpt lat="45.89586" lon="4.61397">
        <ele>293.1</ele>
        <time>2020-12-13T09:19:51Z</time>
      </trkpt>
      <trkpt lat="45.89587" lon="4.61396">
        <ele>293.2</ele>
        <time>2020-12-13T09:19:52Z</time>
      </trkpt>
      <trkpt lat="45.89587" lon="4.61395">
        <ele>293.2</ele>
        <time>2020-12-13T09:19:53Z</time>
      </trkpt>
      <trkpt lat="45.89588" lon="4.61394">
        <ele>293.3</ele>
        <time>2020-12-13T09:19:54Z</time>
      </trkpt>
      <trkpt lat="45.8959" lon="4.61393">
        <ele>293.4</ele>
        <time>2020-12-13T09:19:55Z</time>
      </trkpt>
      <trkpt lat="45.89591" lon="4.61391">
        <ele>293.5</ele>
        <time>2020-12-13T09:19:56Z</time>
      </trkpt>
      <trkpt lat="45.89592" lon="4.6139">
        <ele>293.5</ele>
        <time>2020-12-13T09:19:57Z</time>
      </trkpt>
      <trkpt lat="45.89593" lon="4.61388">
        <ele>293.6</ele>
        <time>2020-12-13T09:19:58Z</time>
      </trkpt>
      <trkpt lat="45.89596" lon="4.61385">
        <ele>293.8</ele>
        <time>2020-12-13T09:19:59Z</time>
      </trkpt>
      <trkpt lat="45.89597" lon="4.61384">
        <ele>293.9</ele>
        <time>2020-12-13T09:20:00Z</time>
      </trkpt>
      <trkpt lat="45.89598" lon="4.61382">
        <ele>294</ele>
        <time>2020-12-13T09:20:01Z</time>
      </trkpt>
      <trkpt lat="45.89599" lon="4.61382">
        <ele>294</ele>
        <time>2020-12-13T09:20:02Z</time>
      </trkpt>
      <trkpt lat="45.896" lon="4.61381">
        <ele>294.1</ele>
        <time>2020-12-13T09:20:03Z</time>
      </trkpt>
      <trkpt lat="45.89601" lon="4.61379">
        <ele>294.2</ele>
        <time>2020-12-13T09:20:04Z</time>
      </trkpt>
      <trkpt lat="45.89602" lon="4.61378">
        <ele>294.3</ele>
        <time>2020-12-13T09:20:05Z</time>
      </trkpt>
      <trkpt lat="45.89603" lon="4.61377">
        <ele>294.4</ele>
        <time>2020-12-13T09:20:06Z</time>
      </trkpt>
      <trkpt lat="45.89604" lon="4.61376">
        <ele>294.5</ele>
        <time>2020-12-13T09:20:07Z</time>
      </trkpt>
      <trkpt lat="45.89605" lon="4.61375">
        <ele>294.5</ele>
        <time>2020-12-13T09:20:08Z</time>
      </trkpt>
      <trkpt lat="45.89605" lon="4.61374">
        <ele>294.6</ele>
        <time>2020-12-13T09:20:09Z</time>
      </trkpt>
      <trkpt lat="45.89607" lon="4.61372">
        <ele>294.7</ele>
        <time>2020-12-13T09:20:10Z</time>
      </trkpt>
      <trkpt lat="45.89609" lon="4.6137">
        <ele>294.9</ele>
        <time>2020-12-13T09:20:11Z</time>
      </trkpt>
      <trkpt lat="45.8961" lon="4.61369">
        <ele>295</ele>
        <time>2020-12-13T09:20:12Z</time>
      </trkpt>
      <trkpt lat="45.89611" lon="4.61368">
        <ele>295</ele>
        <time>2020-12-13T09:20:13Z</time>
      </trkpt>
      <trkpt lat="45.89612" lon="4.61366">
        <ele>295.1</ele>
        <time>2020-12-13T09:20:14Z</time>
      </trkpt>
      <trkpt lat="45.89613" lon="4.61366">
        <ele>295.2</ele>
        <time>2020-12-13T09:20:15Z</time>
      </trkpt>
      <trkpt lat="45.89614" lon="4.61365">
        <ele>295.3</ele>
        <time>2020-12-13T09:20:16Z</time>
      </trkpt>
      <trkpt lat="45.89615" lon="4.61363">
        <ele>295.3</ele>
        <time>2020-12-13T09:20:17Z</time>
      </trkpt>
      <trkpt lat="45.89615" lon="4.61362">
        <ele>295.3</ele>
        <time>2020-12-13T09:20:18Z</time>
      </trkpt>
      <trkpt lat="45.89616" lon="4.61362">
        <ele>295.3</ele>
        <time>2020-12-13T09:20:19Z</time>
      </trkpt>
      <trkpt lat="45.89617" lon="4.61361">
        <ele>295.4</ele>
        <time>2020-12-13T09:20:20Z</time>
      </trkpt>
      <trkpt lat="45.89617" lon="4.6136">
        <ele>295.4</ele>
        <time>2020-12-13T09:20:21Z</time>
      </trkpt>
      <trkpt lat="45.89618" lon="4.61359">
        <ele>295.4</ele>
        <time>2020-12-13T09:20:22Z</time>
      </trkpt>
      <trkpt lat="45.8962" lon="4.61357">
        <ele>295.4</ele>
        <time>2020-12-13T09:20:23Z</time>
      </trkpt>
      <trkpt lat="45.8962" lon="4.61356">
        <ele>295.4</ele>
        <time>2020-12-13T09:20:24Z</time>
      </trkpt>
      <trkpt lat="45.89621" lon="4.61355">
        <ele>295.5</ele>
        <time>2020-12-13T09:20:25Z</time>
      </trkpt>
      <trkpt lat="45.89623" lon="4.61353">
        <ele>295.5</ele>
        <time>2020-12-13T09:20:26Z</time>
      </trkpt>
      <trkpt lat="45.89624" lon="4.61352">
        <ele>295.6</ele>
        <time>2020-12-13T09:20:27Z</time>
      </trkpt>
      <trkpt lat="45.89625" lon="4.6135">
        <ele>295.7</ele>
        <time>2020-12-13T09:20:28Z</time>
      </trkpt>
      <trkpt lat="45.89626" lon="4.61349">
        <ele>295.7</ele>
        <time>2020-12-13T09:20:29Z</time>
      </trkpt>
      <trkpt lat="45.89627" lon="4.61348">
        <ele>295.7</ele>
        <time>2020-12-13T09:20:30Z</time>
      </trkpt>
      <trkpt lat="45.89628" lon="4.61347">
        <ele>295.8</ele>
        <time>2020-12-13T09:20:31Z</time>
      </trkpt>
      <trkpt lat="45.89629" lon="4.61345">
        <ele>295.9</ele>
        <time>2020-12-13T09:20:32Z</time>
      </trkpt>
      <trkpt lat="45.89631" lon="4.61344">
        <ele>296</ele>
        <time>2020-12-13T09:20:33Z</time>
      </trkpt>
      <trkpt lat="45.89632" lon="4.61343">
        <ele>296</ele>
        <time>2020-12-13T09:20:34Z</time>
      </trkpt>
      <trkpt lat="45.89633" lon="4.61342">
        <ele>296</ele>
        <time>2020-12-13T09:20:35Z</time>
      </trkpt>
      <trkpt lat="45.89634" lon="4.61341">
        <ele>296.1</ele>
        <time>2020-12-13T09:20:36Z</time>
      </trkpt>
      <trkpt lat="45.89635" lon="4.6134">
        <ele>296.1</ele>
        <time>2020-12-13T09:20:37Z</time>
      </trkpt>
      <trkpt lat="45.89637" lon="4.61338">
        <ele>296.2</ele>
        <time>2020-12-13T09:20:38Z</time>
      </trkpt>
      <trkpt lat="45.89637" lon="4.61338">
        <ele>296.3</ele>
        <time>2020-12-13T09:20:39Z</time>
      </trkpt>
      <trkpt lat="45.89638" lon="4.61337">
        <ele>296.3</ele>
        <time>2020-12-13T09:20:40Z</time>
      </trkpt>
      <trkpt lat="45.89639" lon="4.61336">
        <ele>296.4</ele>
        <time>2020-12-13T09:20:41Z</time>
      </trkpt>
      <trkpt lat="45.8964" lon="4.61335">
        <ele>296.4</ele>
        <time>2020-12-13T09:20:42Z</time>
      </trkpt>
      <trkpt lat="45.89642" lon="4.61334">
        <ele>296.4</ele>
        <time>2020-12-13T09:20:43Z</time>
      </trkpt>
      <trkpt lat="45.89643" lon="4.61333">
        <ele>296.5</ele>
        <time>2020-12-13T09:20:44Z</time>
      </trkpt>
      <trkpt lat="45.89647" lon="4.61333">
        <ele>296.6</ele>
        <time>2020-12-13T09:20:45Z</time>
      </trkpt>
      <trkpt lat="45.89648" lon="4.61333">
        <ele>296.6</ele>
        <time>2020-12-13T09:20:46Z</time>
      </trkpt>
      <trkpt lat="45.89648" lon="4.61332">
        <ele>296.7</ele>
        <time>2020-12-13T09:20:47Z</time>
      </trkpt>
      <trkpt lat="45.89649" lon="4.61331">
        <ele>296.7</ele>
        <time>2020-12-13T09:20:48Z</time>
      </trkpt>
      <trkpt lat="45.89651" lon="4.6133">
        <ele>296.7</ele>
        <time>2020-12-13T09:20:49Z</time>
      </trkpt>
      <trkpt lat="45.89653" lon="4.61329">
        <ele>296.8</ele>
        <time>2020-12-13T09:20:50Z</time>
      </trkpt>
      <trkpt lat="45.89654" lon="4.61328">
        <ele>296.8</ele>
        <time>2020-12-13T09:20:51Z</time>
      </trkpt>
      <trkpt lat="45.89655" lon="4.61328">
        <ele>296.8</ele>
        <time>2020-12-13T09:20:52Z</time>
      </trkpt>
      <trkpt lat="45.89656" lon="4.61327">
        <ele>296.9</ele>
        <time>2020-12-13T09:20:53Z</time>
      </trkpt>
      <trkpt lat="45.89657" lon="4.61327">
        <ele>296.9</ele>
        <time>2020-12-13T09:20:54Z</time>
      </trkpt>
      <trkpt lat="45.89658" lon="4.61326">
        <ele>296.9</ele>
        <time>2020-12-13T09:20:55Z</time>
      </trkpt>
      <trkpt lat="45.89659" lon="4.61325">
        <ele>297</ele>
        <time>2020-12-13T09:20:56Z</time>
      </trkpt>
      <trkpt lat="45.89661" lon="4.61324">
        <ele>297</ele>
        <time>2020-12-13T09:20:57Z</time>
      </trkpt>
      <trkpt lat="45.89662" lon="4.61323">
        <ele>297</ele>
        <time>2020-12-13T09:20:58Z</time>
      </trkpt>
      <trkpt lat="45.89664" lon="4.61323">
        <ele>297.1</ele>
        <time>2020-12-13T09:20:59Z</time>
      </trkpt>
      <trkpt lat="45.89665" lon="4.61323">
        <ele>297.1</ele>
        <time>2020-12-13T09:21:00Z</time>
      </trkpt>
      <trkpt lat="45.89667" lon="4.61322">
        <ele>297.1</ele>
        <time>2020-12-13T09:21:01Z</time>
      </trkpt>
      <trkpt lat="45.89668" lon="4.61322">
        <ele>297.2</ele>
        <time>2020-12-13T09:21:02Z</time>
      </trkpt>
      <trkpt lat="45.89669" lon="4.61322">
        <ele>297.2</ele>
        <time>2020-12-13T09:21:03Z</time>
      </trkpt>
      <trkpt lat="45.89671" lon="4.61321">
        <ele>297.2</ele>
        <time>2020-12-13T09:21:04Z</time>
      </trkpt>
      <trkpt lat="45.89672" lon="4.61321">
        <ele>297.2</ele>
        <time>2020-12-13T09:21:05Z</time>
      </trkpt>
      <trkpt lat="45.89673" lon="4.61321">
        <ele>297.3</ele>
        <time>2020-12-13T09:21:06Z</time>
      </trkpt>
      <trkpt lat="45.89675" lon="4.6132">
        <ele>297.3</ele>
        <time>2020-12-13T09:21:07Z</time>
      </trkpt>
      <trkpt lat="45.89677" lon="4.61319">
        <ele>297.4</ele>
        <time>2020-12-13T09:21:08Z</time>
      </trkpt>
      <trkpt lat="45.89678" lon="4.61319">
        <ele>297.4</ele>
        <time>2020-12-13T09:21:09Z</time>
      </trkpt>
      <trkpt lat="45.89678" lon="4.61318">
        <ele>297.4</ele>
        <time>2020-12-13T09:21:10Z</time>
      </trkpt>
      <trkpt lat="45.8968" lon="4.61318">
        <ele>297.4</ele>
        <time>2020-12-13T09:21:11Z</time>
      </trkpt>
      <trkpt lat="45.8968" lon="4.61317">
        <ele>297.4</ele>
        <time>2020-12-13T09:21:12Z</time>
      </trkpt>
      <trkpt lat="45.89681" lon="4.61316">
        <ele>297.4</ele>
        <time>2020-12-13T09:21:13Z</time>
      </trkpt>
      <trkpt lat="45.89683" lon="4.61316">
        <ele>297.5</ele>
        <time>2020-12-13T09:21:14Z</time>
      </trkpt>
      <trkpt lat="45.89684" lon="4.61315">
        <ele>297.5</ele>
        <time>2020-12-13T09:21:15Z</time>
      </trkpt>
      <trkpt lat="45.89686" lon="4.61315">
        <ele>297.5</ele>
        <time>2020-12-13T09:21:16Z</time>
      </trkpt>
      <trkpt lat="45.89687" lon="4.61314">
        <ele>297.6</ele>
        <time>2020-12-13T09:21:17Z</time>
      </trkpt>
      <trkpt lat="45.89688" lon="4.61314">
        <ele>297.6</ele>
        <time>2020-12-13T09:21:18Z</time>
      </trkpt>
      <trkpt lat="45.8969" lon="4.61313">
        <ele>297.6</ele>
        <time>2020-12-13T09:21:19Z</time>
      </trkpt>
      <trkpt lat="45.89691" lon="4.61313">
        <ele>297.6</ele>
        <time>2020-12-13T09:21:20Z</time>
      </trkpt>
      <trkpt lat="45.89693" lon="4.61312">
        <ele>297.7</ele>
        <time>2020-12-13T09:21:21Z</time>
      </trkpt>
      <trkpt lat="45.89693" lon="4.61311">
        <ele>297.7</ele>
        <time>2020-12-13T09:21:22Z</time>
      </trkpt>
      <trkpt lat="45.89695" lon="4.61311">
        <ele>297.7</ele>
        <time>2020-12-13T09:21:23Z</time>
      </trkpt>
      <trkpt lat="45.89695" lon="4.61311">
        <ele>297.7</ele>
        <time>2020-12-13T09:21:24Z</time>
      </trkpt>
      <trkpt lat="45.89698" lon="4.6131">
        <ele>297.8</ele>
        <time>2020-12-13T09:21:25Z</time>
      </trkpt>
      <trkpt lat="45.89699" lon="4.6131">
        <ele>297.8</ele>
        <time>2020-12-13T09:21:26Z</time>
      </trkpt>
      <trkpt lat="45.89701" lon="4.61309">
        <ele>297.8</ele>
        <time>2020-12-13T09:21:27Z</time>
      </trkpt>
      <trkpt lat="45.89703" lon="4.61309">
        <ele>297.8</ele>
        <time>2020-12-13T09:21:28Z</time>
      </trkpt>
      <trkpt lat="45.89704" lon="4.61308">
        <ele>297.9</ele>
        <time>2020-12-13T09:21:29Z</time>
      </trkpt>
      <trkpt lat="45.89705" lon="4.61308">
        <ele>297.9</ele>
        <time>2020-12-13T09:21:30Z</time>
      </trkpt>
      <trkpt lat="45.89706" lon="4.61307">
        <ele>297.9</ele>
        <time>2020-12-13T09:21:31Z</time>
      </trkpt>
      <trkpt lat="45.89707" lon="4.61306">
        <ele>297.9</ele>
        <time>2020-12-13T09:21:32Z</time>
      </trkpt>
      <trkpt lat="45.89708" lon="4.61306">
        <ele>297.9</ele>
        <time>2020-12-13T09:21:33Z</time>
      </trkpt>
      <trkpt lat="45.89709" lon="4.61305">
        <ele>297.9</ele>
        <time>2020-12-13T09:21:34Z</time>
      </trkpt>
      <trkpt lat="45.89711" lon="4.61305">
        <ele>298</ele>
        <time>2020-12-13T09:21:35Z</time>
      </trkpt>
      <trkpt lat="45.89713" lon="4.61304">
        <ele>298</ele>
        <time>2020-12-13T09:21:36Z</time>
      </trkpt>
      <trkpt lat="45.89714" lon="4.61304">
        <ele>298</ele>
        <time>2020-12-13T09:21:37Z</time>
      </trkpt>
      <trkpt lat="45.89715" lon="4.61303">
        <ele>298</ele>
        <time>2020-12-13T09:21:38Z</time>
      </trkpt>
      <trkpt lat="45.89716" lon="4.61303">
        <ele>298.1</ele>
        <time>2020-12-13T09:21:39Z</time>
      </trkpt>
      <trkpt lat="45.89718" lon="4.61302">
        <ele>298.1</ele>
        <time>2020-12-13T09:21:40Z</time>
      </trkpt>
      <trkpt lat="45.89719" lon="4.61302">
        <ele>298.1</ele>
        <time>2020-12-13T09:21:41Z</time>
      </trkpt>
      <trkpt lat="45.8972" lon="4.61302">
        <ele>298.1</ele>
        <time>2020-12-13T09:21:42Z</time>
      </trkpt>
      <trkpt lat="45.89722" lon="4.61302">
        <ele>298.1</ele>
        <time>2020-12-13T09:21:43Z</time>
      </trkpt>
      <trkpt lat="45.89723" lon="4.61302">
        <ele>298.2</ele>
        <time>2020-12-13T09:21:44Z</time>
      </trkpt>
      <trkpt lat="45.89724" lon="4.61302">
        <ele>298.2</ele>
        <time>2020-12-13T09:21:45Z</time>
      </trkpt>
      <trkpt lat="45.89725" lon="4.61301">
        <ele>298.2</ele>
        <time>2020-12-13T09:21:46Z</time>
      </trkpt>
      <trkpt lat="45.89727" lon="4.61301">
        <ele>298.2</ele>
        <time>2020-12-13T09:21:47Z</time>
      </trkpt>
      <trkpt lat="45.89729" lon="4.613">
        <ele>298.2</ele>
        <time>2020-12-13T09:21:48Z</time>
      </trkpt>
      <trkpt lat="45.8973" lon="4.613">
        <ele>298.2</ele>
        <time>2020-12-13T09:21:49Z</time>
      </trkpt>
      <trkpt lat="45.8973" lon="4.613">
        <ele>298.2</ele>
        <time>2020-12-13T09:21:50Z</time>
      </trkpt>
      <trkpt lat="45.89733" lon="4.61299">
        <ele>298.3</ele>
        <time>2020-12-13T09:21:51Z</time>
      </trkpt>
      <trkpt lat="45.89734" lon="4.61299">
        <ele>298.3</ele>
        <time>2020-12-13T09:21:52Z</time>
      </trkpt>
      <trkpt lat="45.89735" lon="4.61299">
        <ele>298.3</ele>
        <time>2020-12-13T09:21:53Z</time>
      </trkpt>
      <trkpt lat="45.89736" lon="4.61298">
        <ele>298.3</ele>
        <time>2020-12-13T09:21:54Z</time>
      </trkpt>
      <trkpt lat="45.89738" lon="4.61297">
        <ele>298.3</ele>
        <time>2020-12-13T09:21:56Z</time>
      </trkpt>
      <trkpt lat="45.89741" lon="4.61297">
        <ele>298.3</ele>
        <time>2020-12-13T09:21:57Z</time>
      </trkpt>
      <trkpt lat="45.89742" lon="4.61297">
        <ele>298.3</ele>
        <time>2020-12-13T09:21:58Z</time>
      </trkpt>
      <trkpt lat="45.89742" lon="4.61297">
        <ele>298.3</ele>
        <time>2020-12-13T09:21:59Z</time>
      </trkpt>
      <trkpt lat="45.89744" lon="4.61296">
        <ele>298.3</ele>
        <time>2020-12-13T09:22:00Z</time>
      </trkpt>
      <trkpt lat="45.89745" lon="4.61296">
        <ele>298.3</ele>
        <time>2020-12-13T09:22:01Z</time>
      </trkpt>
      <trkpt lat="45.89746" lon="4.61295">
        <ele>298.3</ele>
        <time>2020-12-13T09:22:02Z</time>
      </trkpt>
      <trkpt lat="45.89748" lon="4.61294">
        <ele>298.3</ele>
        <time>2020-12-13T09:22:03Z</time>
      </trkpt>
      <trkpt lat="45.89749" lon="4.61294">
        <ele>298.3</ele>
        <time>2020-12-13T09:22:04Z</time>
      </trkpt>
      <trkpt lat="45.8975" lon="4.61294">
        <ele>298.3</ele>
        <time>2020-12-13T09:22:05Z</time>
      </trkpt>
      <trkpt lat="45.89752" lon="4.61294">
        <ele>298.3</ele>
        <time>2020-12-13T09:22:06Z</time>
      </trkpt>
      <trkpt lat="45.89753" lon="4.61293">
        <ele>298.3</ele>
        <time>2020-12-13T09:22:07Z</time>
      </trkpt>
      <trkpt lat="45.89755" lon="4.61292">
        <ele>298.3</ele>
        <time>2020-12-13T09:22:08Z</time>
      </trkpt>
      <trkpt lat="45.89757" lon="4.61291">
        <ele>298.3</ele>
        <time>2020-12-13T09:22:09Z</time>
      </trkpt>
      <trkpt lat="45.89759" lon="4.6129">
        <ele>298.3</ele>
        <time>2020-12-13T09:22:10Z</time>
      </trkpt>
      <trkpt lat="45.8976" lon="4.6129">
        <ele>298.3</ele>
        <time>2020-12-13T09:22:11Z</time>
      </trkpt>
      <trkpt lat="45.89762" lon="4.61289">
        <ele>298.3</ele>
        <time>2020-12-13T09:22:12Z</time>
      </trkpt>
      <trkpt lat="45.89762" lon="4.61288">
        <ele>298.2</ele>
        <time>2020-12-13T09:22:13Z</time>
      </trkpt>
      <trkpt lat="45.89764" lon="4.61287">
        <ele>298.2</ele>
        <time>2020-12-13T09:22:14Z</time>
      </trkpt>
      <trkpt lat="45.89765" lon="4.61287">
        <ele>298.2</ele>
        <time>2020-12-13T09:22:15Z</time>
      </trkpt>
      <trkpt lat="45.89767" lon="4.61286">
        <ele>298.2</ele>
        <time>2020-12-13T09:22:16Z</time>
      </trkpt>
      <trkpt lat="45.89768" lon="4.61285">
        <ele>298.2</ele>
        <time>2020-12-13T09:22:17Z</time>
      </trkpt>
      <trkpt lat="45.89768" lon="4.61284">
        <ele>298.2</ele>
        <time>2020-12-13T09:22:18Z</time>
      </trkpt>
      <trkpt lat="45.8977" lon="4.61283">
        <ele>298.2</ele>
        <time>2020-12-13T09:22:19Z</time>
      </trkpt>
      <trkpt lat="45.89772" lon="4.61282">
        <ele>298.2</ele>
        <time>2020-12-13T09:22:20Z</time>
      </trkpt>
      <trkpt lat="45.89773" lon="4.61281">
        <ele>298.2</ele>
        <time>2020-12-13T09:22:21Z</time>
      </trkpt>
      <trkpt lat="45.89774" lon="4.61281">
        <ele>298.2</ele>
        <time>2020-12-13T09:22:22Z</time>
      </trkpt>
      <trkpt lat="45.89775" lon="4.61279">
        <ele>298.2</ele>
        <time>2020-12-13T09:22:23Z</time>
      </trkpt>
      <trkpt lat="45.89776" lon="4.61279">
        <ele>298.2</ele>
        <time>2020-12-13T09:22:24Z</time>
      </trkpt>
      <trkpt lat="45.89777" lon="4.61278">
        <ele>298.1</ele>
        <time>2020-12-13T09:22:25Z</time>
      </trkpt>
      <trkpt lat="45.89779" lon="4.61277">
        <ele>298.1</ele>
        <time>2020-12-13T09:22:26Z</time>
      </trkpt>
      <trkpt lat="45.8978" lon="4.61276">
        <ele>298.1</ele>
        <time>2020-12-13T09:22:27Z</time>
      </trkpt>
      <trkpt lat="45.89781" lon="4.61276">
        <ele>298.1</ele>
        <time>2020-12-13T09:22:28Z</time>
      </trkpt>
      <trkpt lat="45.89783" lon="4.61275">
        <ele>298.1</ele>
        <time>2020-12-13T09:22:29Z</time>
      </trkpt>
      <trkpt lat="45.89784" lon="4.61274">
        <ele>298.1</ele>
        <time>2020-12-13T09:22:30Z</time>
      </trkpt>
      <trkpt lat="45.89785" lon="4.61274">
        <ele>298.1</ele>
        <time>2020-12-13T09:22:31Z</time>
      </trkpt>
      <trkpt lat="45.89786" lon="4.61273">
        <ele>298.1</ele>
        <time>2020-12-13T09:22:32Z</time>
      </trkpt>
      <trkpt lat="45.89787" lon="4.61273">
        <ele>298.1</ele>
        <time>2020-12-13T09:22:33Z</time>
      </trkpt>
      <trkpt lat="45.89789" lon="4.61273">
        <ele>298</ele>
        <time>2020-12-13T09:22:34Z</time>
      </trkpt>
      <trkpt lat="45.89789" lon="4.61272">
        <ele>298</ele>
        <time>2020-12-13T09:22:35Z</time>
      </trkpt>
      <trkpt lat="45.8979" lon="4.61271">
        <ele>298</ele>
        <time>2020-12-13T09:22:36Z</time>
      </trkpt>
      <trkpt lat="45.89793" lon="4.6127">
        <ele>298</ele>
        <time>2020-12-13T09:22:37Z</time>
      </trkpt>
      <trkpt lat="45.89794" lon="4.61269">
        <ele>298</ele>
        <time>2020-12-13T09:22:38Z</time>
      </trkpt>
      <trkpt lat="45.89795" lon="4.61268">
        <ele>298</ele>
        <time>2020-12-13T09:22:39Z</time>
      </trkpt>
      <trkpt lat="45.89797" lon="4.61268">
        <ele>298</ele>
        <time>2020-12-13T09:22:40Z</time>
      </trkpt>
      <trkpt lat="45.89798" lon="4.61267">
        <ele>298</ele>
        <time>2020-12-13T09:22:41Z</time>
      </trkpt>
      <trkpt lat="45.898" lon="4.61267">
        <ele>298</ele>
        <time>2020-12-13T09:22:42Z</time>
      </trkpt>
      <trkpt lat="45.89801" lon="4.61266">
        <ele>298</ele>
        <time>2020-12-13T09:22:43Z</time>
      </trkpt>
      <trkpt lat="45.89803" lon="4.61266">
        <ele>298</ele>
        <time>2020-12-13T09:22:44Z</time>
      </trkpt>
      <trkpt lat="45.89805" lon="4.61266">
        <ele>297.9</ele>
        <time>2020-12-13T09:22:45Z</time>
      </trkpt>
      <trkpt lat="45.89806" lon="4.61266">
        <ele>297.9</ele>
        <time>2020-12-13T09:22:46Z</time>
      </trkpt>
      <trkpt lat="45.89807" lon="4.61265">
        <ele>297.9</ele>
        <time>2020-12-13T09:22:47Z</time>
      </trkpt>
      <trkpt lat="45.89809" lon="4.61265">
        <ele>297.9</ele>
        <time>2020-12-13T09:22:48Z</time>
      </trkpt>
      <trkpt lat="45.8981" lon="4.61264">
        <ele>297.9</ele>
        <time>2020-12-13T09:22:49Z</time>
      </trkpt>
      <trkpt lat="45.8981" lon="4.61264">
        <ele>297.9</ele>
        <time>2020-12-13T09:22:50Z</time>
      </trkpt>
      <trkpt lat="45.89812" lon="4.61264">
        <ele>297.9</ele>
        <time>2020-12-13T09:22:51Z</time>
      </trkpt>
      <trkpt lat="45.89813" lon="4.61263">
        <ele>297.9</ele>
        <time>2020-12-13T09:22:52Z</time>
      </trkpt>
      <trkpt lat="45.89814" lon="4.61263">
        <ele>297.9</ele>
        <time>2020-12-13T09:22:53Z</time>
      </trkpt>
      <trkpt lat="45.89816" lon="4.61262">
        <ele>297.9</ele>
        <time>2020-12-13T09:22:54Z</time>
      </trkpt>
      <trkpt lat="45.89817" lon="4.61262">
        <ele>297.9</ele>
        <time>2020-12-13T09:22:55Z</time>
      </trkpt>
      <trkpt lat="45.89818" lon="4.61262">
        <ele>297.9</ele>
        <time>2020-12-13T09:22:56Z</time>
      </trkpt>
      <trkpt lat="45.89819" lon="4.61262">
        <ele>297.9</ele>
        <time>2020-12-13T09:22:57Z</time>
      </trkpt>
      <trkpt lat="45.8982" lon="4.61262">
        <ele>297.9</ele>
        <time>2020-12-13T09:22:58Z</time>
      </trkpt>
      <trkpt lat="45.89822" lon="4.61263">
        <ele>297.9</ele>
        <time>2020-12-13T09:22:59Z</time>
      </trkpt>
      <trkpt lat="45.89824" lon="4.61263">
        <ele>297.9</ele>
        <time>2020-12-13T09:23:00Z</time>
      </trkpt>
      <trkpt lat="45.89826" lon="4.61263">
        <ele>297.9</ele>
        <time>2020-12-13T09:23:01Z</time>
      </trkpt>
      <trkpt lat="45.89827" lon="4.61263">
        <ele>297.9</ele>
        <time>2020-12-13T09:23:02Z</time>
      </trkpt>
      <trkpt lat="45.89828" lon="4.61263">
        <ele>297.9</ele>
        <time>2020-12-13T09:23:03Z</time>
      </trkpt>
      <trkpt lat="45.8983" lon="4.61263">
        <ele>297.9</ele>
        <time>2020-12-13T09:23:04Z</time>
      </trkpt>
      <trkpt lat="45.89831" lon="4.61263">
        <ele>297.9</ele>
        <time>2020-12-13T09:23:05Z</time>
      </trkpt>
      <trkpt lat="45.89832" lon="4.61263">
        <ele>297.9</ele>
        <time>2020-12-13T09:23:06Z</time>
      </trkpt>
      <trkpt lat="45.89834" lon="4.61262">
        <ele>297.9</ele>
        <time>2020-12-13T09:23:07Z</time>
      </trkpt>
      <trkpt lat="45.89835" lon="4.61262">
        <ele>297.9</ele>
        <time>2020-12-13T09:23:08Z</time>
      </trkpt>
      <trkpt lat="45.89836" lon="4.61262">
        <ele>297.9</ele>
        <time>2020-12-13T09:23:09Z</time>
      </trkpt>
      <trkpt lat="45.89838" lon="4.61262">
        <ele>297.9</ele>
        <time>2020-12-13T09:23:10Z</time>
      </trkpt>
      <trkpt lat="45.89839" lon="4.61263">
        <ele>297.9</ele>
        <time>2020-12-13T09:23:11Z</time>
      </trkpt>
      <trkpt lat="45.89842" lon="4.61263">
        <ele>297.9</ele>
        <time>2020-12-13T09:23:12Z</time>
      </trkpt>
      <trkpt lat="45.89842" lon="4.61263">
        <ele>297.9</ele>
        <time>2020-12-13T09:23:13Z</time>
      </trkpt>
      <trkpt lat="45.89843" lon="4.61264">
        <ele>297.9</ele>
        <time>2020-12-13T09:23:14Z</time>
      </trkpt>
      <trkpt lat="45.89845" lon="4.61264">
        <ele>297.9</ele>
        <time>2020-12-13T09:23:15Z</time>
      </trkpt>
      <trkpt lat="45.89847" lon="4.61264">
        <ele>297.9</ele>
        <time>2020-12-13T09:23:16Z</time>
      </trkpt>
      <trkpt lat="45.89848" lon="4.61263">
        <ele>297.9</ele>
        <time>2020-12-13T09:23:17Z</time>
      </trkpt>
      <trkpt lat="45.89849" lon="4.61263">
        <ele>297.9</ele>
        <time>2020-12-13T09:23:18Z</time>
      </trkpt>
      <trkpt lat="45.8985" lon="4.61264">
        <ele>297.9</ele>
        <time>2020-12-13T09:23:19Z</time>
      </trkpt>
      <trkpt lat="45.89853" lon="4.61264">
        <ele>297.9</ele>
        <time>2020-12-13T09:23:20Z</time>
      </trkpt>
      <trkpt lat="45.89854" lon="4.61264">
        <ele>297.9</ele>
        <time>2020-12-13T09:23:21Z</time>
      </trkpt>
      <trkpt lat="45.89855" lon="4.61264">
        <ele>297.9</ele>
        <time>2020-12-13T09:23:22Z</time>
      </trkpt>
      <trkpt lat="45.89857" lon="4.61265">
        <ele>297.9</ele>
        <time>2020-12-13T09:23:23Z</time>
      </trkpt>
      <trkpt lat="45.89859" lon="4.61266">
        <ele>297.9</ele>
        <time>2020-12-13T09:23:24Z</time>
      </trkpt>
      <trkpt lat="45.8986" lon="4.61266">
        <ele>297.9</ele>
        <time>2020-12-13T09:23:25Z</time>
      </trkpt>
      <trkpt lat="45.89861" lon="4.61266">
        <ele>297.9</ele>
        <time>2020-12-13T09:23:26Z</time>
      </trkpt>
      <trkpt lat="45.89862" lon="4.61265">
        <ele>297.9</ele>
        <time>2020-12-13T09:23:27Z</time>
      </trkpt>
      <trkpt lat="45.89863" lon="4.61265">
        <ele>297.9</ele>
        <time>2020-12-13T09:23:28Z</time>
      </trkpt>
      <trkpt lat="45.89864" lon="4.61265">
        <ele>297.9</ele>
        <time>2020-12-13T09:23:29Z</time>
      </trkpt>
      <trkpt lat="45.89867" lon="4.61266">
        <ele>297.9</ele>
        <time>2020-12-13T09:23:30Z</time>
      </trkpt>
      <trkpt lat="45.89869" lon="4.61267">
        <ele>297.9</ele>
        <time>2020-12-13T09:23:31Z</time>
      </trkpt>
      <trkpt lat="45.8987" lon="4.61268">
        <ele>297.9</ele>
        <time>2020-12-13T09:23:32Z</time>
      </trkpt>
      <trkpt lat="45.89872" lon="4.61269">
        <ele>297.9</ele>
        <time>2020-12-13T09:23:33Z</time>
      </trkpt>
      <trkpt lat="45.89873" lon="4.61269">
        <ele>297.9</ele>
        <time>2020-12-13T09:23:34Z</time>
      </trkpt>
      <trkpt lat="45.89874" lon="4.6127">
        <ele>297.9</ele>
        <time>2020-12-13T09:23:35Z</time>
      </trkpt>
      <trkpt lat="45.89875" lon="4.6127">
        <ele>297.9</ele>
        <time>2020-12-13T09:23:36Z</time>
      </trkpt>
      <trkpt lat="45.89877" lon="4.61271">
        <ele>297.9</ele>
        <time>2020-12-13T09:23:37Z</time>
      </trkpt>
      <trkpt lat="45.89878" lon="4.61272">
        <ele>297.9</ele>
        <time>2020-12-13T09:23:38Z</time>
      </trkpt>
      <trkpt lat="45.8988" lon="4.61273">
        <ele>297.9</ele>
        <time>2020-12-13T09:23:39Z</time>
      </trkpt>
      <trkpt lat="45.89881" lon="4.61273">
        <ele>297.9</ele>
        <time>2020-12-13T09:23:40Z</time>
      </trkpt>
      <trkpt lat="45.89882" lon="4.61274">
        <ele>297.9</ele>
        <time>2020-12-13T09:23:41Z</time>
      </trkpt>
      <trkpt lat="45.89882" lon="4.61275">
        <ele>297.9</ele>
        <time>2020-12-13T09:23:42Z</time>
      </trkpt>
      <trkpt lat="45.89883" lon="4.61275">
        <ele>297.9</ele>
        <time>2020-12-13T09:23:43Z</time>
      </trkpt>
      <trkpt lat="45.89885" lon="4.61276">
        <ele>297.9</ele>
        <time>2020-12-13T09:23:44Z</time>
      </trkpt>
      <trkpt lat="45.89886" lon="4.61277">
        <ele>297.9</ele>
        <time>2020-12-13T09:23:45Z</time>
      </trkpt>
      <trkpt lat="45.89887" lon="4.61278">
        <ele>297.9</ele>
        <time>2020-12-13T09:23:46Z</time>
      </trkpt>
      <trkpt lat="45.89888" lon="4.61279">
        <ele>297.9</ele>
        <time>2020-12-13T09:23:47Z</time>
      </trkpt>
      <trkpt lat="45.89889" lon="4.6128">
        <ele>297.9</ele>
        <time>2020-12-13T09:23:48Z</time>
      </trkpt>
      <trkpt lat="45.89891" lon="4.61281">
        <ele>297.9</ele>
        <time>2020-12-13T09:23:49Z</time>
      </trkpt>
      <trkpt lat="45.89892" lon="4.61282">
        <ele>297.9</ele>
        <time>2020-12-13T09:23:50Z</time>
      </trkpt>
      <trkpt lat="45.89893" lon="4.61283">
        <ele>297.9</ele>
        <time>2020-12-13T09:23:51Z</time>
      </trkpt>
      <trkpt lat="45.89895" lon="4.61284">
        <ele>297.9</ele>
        <time>2020-12-13T09:23:52Z</time>
      </trkpt>
      <trkpt lat="45.89897" lon="4.61285">
        <ele>297.9</ele>
        <time>2020-12-13T09:23:53Z</time>
      </trkpt>
      <trkpt lat="45.89898" lon="4.61286">
        <ele>297.9</ele>
        <time>2020-12-13T09:23:54Z</time>
      </trkpt>
      <trkpt lat="45.89899" lon="4.61286">
        <ele>297.9</ele>
        <time>2020-12-13T09:23:55Z</time>
      </trkpt>
      <trkpt lat="45.899" lon="4.61287">
        <ele>297.9</ele>
        <time>2020-12-13T09:23:56Z</time>
      </trkpt>
      <trkpt lat="45.89901" lon="4.61287">
        <ele>297.9</ele>
        <time>2020-12-13T09:23:57Z</time>
      </trkpt>
      <trkpt lat="45.89902" lon="4.61287">
        <ele>297.9</ele>
        <time>2020-12-13T09:23:58Z</time>
      </trkpt>
      <trkpt lat="45.89904" lon="4.61288">
        <ele>297.9</ele>
        <time>2020-12-13T09:23:59Z</time>
      </trkpt>
      <trkpt lat="45.89905" lon="4.61288">
        <ele>297.9</ele>
        <time>2020-12-13T09:24:00Z</time>
      </trkpt>
      <trkpt lat="45.89906" lon="4.61289">
        <ele>297.9</ele>
        <time>2020-12-13T09:24:01Z</time>
      </trkpt>
      <trkpt lat="45.89908" lon="4.61289">
        <ele>297.9</ele>
        <time>2020-12-13T09:24:02Z</time>
      </trkpt>
      <trkpt lat="45.89909" lon="4.61289">
        <ele>297.9</ele>
        <time>2020-12-13T09:24:03Z</time>
      </trkpt>
      <trkpt lat="45.8991" lon="4.61289">
        <ele>297.9</ele>
        <time>2020-12-13T09:24:04Z</time>
      </trkpt>
      <trkpt lat="45.89913" lon="4.61291">
        <ele>297.9</ele>
        <time>2020-12-13T09:24:06Z</time>
      </trkpt>
      <trkpt lat="45.89914" lon="4.61291">
        <ele>297.9</ele>
        <time>2020-12-13T09:24:07Z</time>
      </trkpt>
      <trkpt lat="45.89916" lon="4.61292">
        <ele>297.9</ele>
        <time>2020-12-13T09:24:08Z</time>
      </trkpt>
      <trkpt lat="45.89916" lon="4.61292">
        <ele>297.9</ele>
        <time>2020-12-13T09:24:09Z</time>
      </trkpt>
      <trkpt lat="45.89918" lon="4.61292">
        <ele>297.9</ele>
        <time>2020-12-13T09:24:10Z</time>
      </trkpt>
      <trkpt lat="45.89919" lon="4.61292">
        <ele>297.9</ele>
        <time>2020-12-13T09:24:11Z</time>
      </trkpt>
      <trkpt lat="45.89921" lon="4.61292">
        <ele>297.9</ele>
        <time>2020-12-13T09:24:12Z</time>
      </trkpt>
      <trkpt lat="45.89922" lon="4.61291">
        <ele>297.9</ele>
        <time>2020-12-13T09:24:13Z</time>
      </trkpt>
      <trkpt lat="45.89923" lon="4.61291">
        <ele>297.9</ele>
        <time>2020-12-13T09:24:14Z</time>
      </trkpt>
      <trkpt lat="45.89924" lon="4.61291">
        <ele>297.9</ele>
        <time>2020-12-13T09:24:15Z</time>
      </trkpt>
      <trkpt lat="45.89926" lon="4.61291">
        <ele>297.9</ele>
        <time>2020-12-13T09:24:16Z</time>
      </trkpt>
      <trkpt lat="45.89928" lon="4.61291">
        <ele>297.9</ele>
        <time>2020-12-13T09:24:17Z</time>
      </trkpt>
      <trkpt lat="45.89929" lon="4.61291">
        <ele>297.9</ele>
        <time>2020-12-13T09:24:18Z</time>
      </trkpt>
      <trkpt lat="45.8993" lon="4.61291">
        <ele>297.9</ele>
        <time>2020-12-13T09:24:19Z</time>
      </trkpt>
      <trkpt lat="45.89931" lon="4.61291">
        <ele>297.9</ele>
        <time>2020-12-13T09:24:20Z</time>
      </trkpt>
      <trkpt lat="45.89931" lon="4.6129">
        <ele>297.9</ele>
        <time>2020-12-13T09:24:21Z</time>
      </trkpt>
      <trkpt lat="45.89932" lon="4.6129">
        <ele>297.9</ele>
        <time>2020-12-13T09:24:22Z</time>
      </trkpt>
      <trkpt lat="45.89936" lon="4.6129">
        <ele>297.9</ele>
        <time>2020-12-13T09:24:23Z</time>
      </trkpt>
      <trkpt lat="45.89936" lon="4.6129">
        <ele>297.9</ele>
        <time>2020-12-13T09:24:24Z</time>
      </trkpt>
      <trkpt lat="45.89939" lon="4.61289">
        <ele>297.9</ele>
        <time>2020-12-13T09:24:25Z</time>
      </trkpt>
      <trkpt lat="45.8994" lon="4.61289">
        <ele>297.9</ele>
        <time>2020-12-13T09:24:26Z</time>
      </trkpt>
      <trkpt lat="45.89941" lon="4.61289">
        <ele>297.9</ele>
        <time>2020-12-13T09:24:27Z</time>
      </trkpt>
      <trkpt lat="45.89942" lon="4.61288">
        <ele>297.9</ele>
        <time>2020-12-13T09:24:28Z</time>
      </trkpt>
      <trkpt lat="45.89943" lon="4.61288">
        <ele>297.9</ele>
        <time>2020-12-13T09:24:29Z</time>
      </trkpt>
      <trkpt lat="45.89944" lon="4.61288">
        <ele>297.9</ele>
        <time>2020-12-13T09:24:30Z</time>
      </trkpt>
      <trkpt lat="45.89945" lon="4.61288">
        <ele>297.9</ele>
        <time>2020-12-13T09:24:31Z</time>
      </trkpt>
      <trkpt lat="45.89947" lon="4.61288">
        <ele>297.9</ele>
        <time>2020-12-13T09:24:32Z</time>
      </trkpt>
      <trkpt lat="45.89948" lon="4.61288">
        <ele>297.9</ele>
        <time>2020-12-13T09:24:33Z</time>
      </trkpt>
      <trkpt lat="45.8995" lon="4.61287">
        <ele>297.9</ele>
        <time>2020-12-13T09:24:34Z</time>
      </trkpt>
      <trkpt lat="45.89952" lon="4.61288">
        <ele>297.9</ele>
        <time>2020-12-13T09:24:35Z</time>
      </trkpt>
      <trkpt lat="45.89953" lon="4.61287">
        <ele>297.9</ele>
        <time>2020-12-13T09:24:36Z</time>
      </trkpt>
      <trkpt lat="45.89954" lon="4.61287">
        <ele>297.9</ele>
        <time>2020-12-13T09:24:37Z</time>
      </trkpt>
      <trkpt lat="45.89955" lon="4.61287">
        <ele>297.9</ele>
        <time>2020-12-13T09:24:38Z</time>
      </trkpt>
      <trkpt lat="45.89956" lon="4.61287">
        <ele>297.8</ele>
        <time>2020-12-13T09:24:39Z</time>
      </trkpt>
      <trkpt lat="45.89957" lon="4.61286">
        <ele>297.8</ele>
        <time>2020-12-13T09:24:40Z</time>
      </trkpt>
      <trkpt lat="45.89958" lon="4.61286">
        <ele>297.8</ele>
        <time>2020-12-13T09:24:41Z</time>
      </trkpt>
      <trkpt lat="45.8996" lon="4.61286">
        <ele>297.8</ele>
        <time>2020-12-13T09:24:42Z</time>
      </trkpt>
      <trkpt lat="45.89962" lon="4.61286">
        <ele>297.8</ele>
        <time>2020-12-13T09:24:43Z</time>
      </trkpt>
      <trkpt lat="45.89963" lon="4.61286">
        <ele>297.8</ele>
        <time>2020-12-13T09:24:44Z</time>
      </trkpt>
      <trkpt lat="45.89964" lon="4.61285">
        <ele>297.8</ele>
        <time>2020-12-13T09:24:45Z</time>
      </trkpt>
      <trkpt lat="45.89965" lon="4.61286">
        <ele>297.8</ele>
        <time>2020-12-13T09:24:46Z</time>
      </trkpt>
      <trkpt lat="45.89966" lon="4.61285">
        <ele>297.8</ele>
        <time>2020-12-13T09:24:47Z</time>
      </trkpt>
      <trkpt lat="45.89967" lon="4.61285">
        <ele>297.8</ele>
        <time>2020-12-13T09:24:48Z</time>
      </trkpt>
      <trkpt lat="45.8997" lon="4.61284">
        <ele>297.8</ele>
        <time>2020-12-13T09:24:49Z</time>
      </trkpt>
      <trkpt lat="45.89971" lon="4.61284">
        <ele>297.8</ele>
        <time>2020-12-13T09:24:50Z</time>
      </trkpt>
      <trkpt lat="45.89973" lon="4.61283">
        <ele>297.8</ele>
        <time>2020-12-13T09:24:51Z</time>
      </trkpt>
      <trkpt lat="45.89974" lon="4.61283">
        <ele>297.8</ele>
        <time>2020-12-13T09:24:52Z</time>
      </trkpt>
      <trkpt lat="45.89975" lon="4.61283">
        <ele>297.8</ele>
        <time>2020-12-13T09:24:53Z</time>
      </trkpt>
      <trkpt lat="45.89977" lon="4.61283">
        <ele>297.8</ele>
        <time>2020-12-13T09:24:54Z</time>
      </trkpt>
      <trkpt lat="45.89979" lon="4.61283">
        <ele>297.8</ele>
        <time>2020-12-13T09:24:55Z</time>
      </trkpt>
      <trkpt lat="45.89979" lon="4.61282">
        <ele>297.8</ele>
        <time>2020-12-13T09:24:56Z</time>
      </trkpt>
      <trkpt lat="45.89981" lon="4.61282">
        <ele>297.8</ele>
        <time>2020-12-13T09:24:57Z</time>
      </trkpt>
      <trkpt lat="45.89982" lon="4.61281">
        <ele>297.9</ele>
        <time>2020-12-13T09:24:58Z</time>
      </trkpt>
      <trkpt lat="45.89984" lon="4.61281">
        <ele>297.9</ele>
        <time>2020-12-13T09:24:59Z</time>
      </trkpt>
      <trkpt lat="45.89985" lon="4.6128">
        <ele>297.9</ele>
        <time>2020-12-13T09:25:00Z</time>
      </trkpt>
      <trkpt lat="45.89987" lon="4.61279">
        <ele>297.9</ele>
        <time>2020-12-13T09:25:01Z</time>
      </trkpt>
      <trkpt lat="45.89988" lon="4.61278">
        <ele>297.9</ele>
        <time>2020-12-13T09:25:02Z</time>
      </trkpt>
      <trkpt lat="45.89989" lon="4.61278">
        <ele>297.9</ele>
        <time>2020-12-13T09:25:03Z</time>
      </trkpt>
      <trkpt lat="45.89991" lon="4.61277">
        <ele>297.9</ele>
        <time>2020-12-13T09:25:04Z</time>
      </trkpt>
      <trkpt lat="45.89993" lon="4.61277">
        <ele>297.9</ele>
        <time>2020-12-13T09:25:05Z</time>
      </trkpt>
      <trkpt lat="45.89994" lon="4.61276">
        <ele>297.9</ele>
        <time>2020-12-13T09:25:06Z</time>
      </trkpt>
      <trkpt lat="45.89995" lon="4.61276">
        <ele>297.9</ele>
        <time>2020-12-13T09:25:07Z</time>
      </trkpt>
      <trkpt lat="45.89995" lon="4.61275">
        <ele>297.9</ele>
        <time>2020-12-13T09:25:08Z</time>
      </trkpt>
      <trkpt lat="45.89997" lon="4.61274">
        <ele>297.9</ele>
        <time>2020-12-13T09:25:09Z</time>
      </trkpt>
      <trkpt lat="45.89998" lon="4.61274">
        <ele>297.9</ele>
        <time>2020-12-13T09:25:10Z</time>
      </trkpt>
      <trkpt lat="45.89999" lon="4.61273">
        <ele>298</ele>
        <time>2020-12-13T09:25:11Z</time>
      </trkpt>
      <trkpt lat="45.90001" lon="4.61272">
        <ele>298</ele>
        <time>2020-12-13T09:25:12Z</time>
      </trkpt>
      <trkpt lat="45.90002" lon="4.61272">
        <ele>298</ele>
        <time>2020-12-13T09:25:13Z</time>
      </trkpt>
      <trkpt lat="45.90004" lon="4.61271">
        <ele>298</ele>
        <time>2020-12-13T09:25:14Z</time>
      </trkpt>
      <trkpt lat="45.90006" lon="4.6127">
        <ele>298</ele>
        <time>2020-12-13T09:25:15Z</time>
      </trkpt>
      <trkpt lat="45.90007" lon="4.61269">
        <ele>298</ele>
        <time>2020-12-13T09:25:16Z</time>
      </trkpt>
      <trkpt lat="45.90009" lon="4.61268">
        <ele>298</ele>
        <time>2020-12-13T09:25:17Z</time>
      </trkpt>
      <trkpt lat="45.90009" lon="4.61268">
        <ele>298</ele>
        <time>2020-12-13T09:25:18Z</time>
      </trkpt>
      <trkpt lat="45.9001" lon="4.61267">
        <ele>298</ele>
        <time>2020-12-13T09:25:19Z</time>
      </trkpt>
      <trkpt lat="45.90011" lon="4.61266">
        <ele>298</ele>
        <time>2020-12-13T09:25:20Z</time>
      </trkpt>
      <trkpt lat="45.90012" lon="4.61265">
        <ele>298.1</ele>
        <time>2020-12-13T09:25:21Z</time>
      </trkpt>
      <trkpt lat="45.90014" lon="4.61263">
        <ele>298.1</ele>
        <time>2020-12-13T09:25:22Z</time>
      </trkpt>
      <trkpt lat="45.90015" lon="4.61262">
        <ele>298.1</ele>
        <time>2020-12-13T09:25:23Z</time>
      </trkpt>
      <trkpt lat="45.90017" lon="4.61262">
        <ele>298.1</ele>
        <time>2020-12-13T09:25:24Z</time>
      </trkpt>
      <trkpt lat="45.90018" lon="4.61261">
        <ele>298.1</ele>
        <time>2020-12-13T09:25:25Z</time>
      </trkpt>
      <trkpt lat="45.9002" lon="4.6126">
        <ele>298.1</ele>
        <time>2020-12-13T09:25:26Z</time>
      </trkpt>
      <trkpt lat="45.90021" lon="4.61259">
        <ele>298.2</ele>
        <time>2020-12-13T09:25:27Z</time>
      </trkpt>
      <trkpt lat="45.90023" lon="4.61259">
        <ele>298.2</ele>
        <time>2020-12-13T09:25:28Z</time>
      </trkpt>
      <trkpt lat="45.90024" lon="4.61257">
        <ele>298.2</ele>
        <time>2020-12-13T09:25:29Z</time>
      </trkpt>
      <trkpt lat="45.90025" lon="4.61257">
        <ele>298.2</ele>
        <time>2020-12-13T09:25:30Z</time>
      </trkpt>
      <trkpt lat="45.90025" lon="4.61255">
        <ele>298.2</ele>
        <time>2020-12-13T09:25:31Z</time>
      </trkpt>
      <trkpt lat="45.90027" lon="4.61255">
        <ele>298.2</ele>
        <time>2020-12-13T09:25:32Z</time>
      </trkpt>
      <trkpt lat="45.90028" lon="4.61254">
        <ele>298.3</ele>
        <time>2020-12-13T09:25:33Z</time>
      </trkpt>
      <trkpt lat="45.9003" lon="4.61252">
        <ele>298.3</ele>
        <time>2020-12-13T09:25:34Z</time>
      </trkpt>
      <trkpt lat="45.90031" lon="4.61251">
        <ele>298.3</ele>
        <time>2020-12-13T09:25:35Z</time>
      </trkpt>
      <trkpt lat="45.90032" lon="4.6125">
        <ele>298.3</ele>
        <time>2020-12-13T09:25:36Z</time>
      </trkpt>
      <trkpt lat="45.90033" lon="4.61249">
        <ele>298.3</ele>
        <time>2020-12-13T09:25:37Z</time>
      </trkpt>
      <trkpt lat="45.90034" lon="4.61249">
        <ele>298.3</ele>
        <time>2020-12-13T09:25:38Z</time>
      </trkpt>
      <trkpt lat="45.90035" lon="4.61247">
        <ele>298.4</ele>
        <time>2020-12-13T09:25:39Z</time>
      </trkpt>
      <trkpt lat="45.90036" lon="4.61246">
        <ele>298.4</ele>
        <time>2020-12-13T09:25:40Z</time>
      </trkpt>
      <trkpt lat="45.90038" lon="4.61245">
        <ele>298.4</ele>
        <time>2020-12-13T09:25:41Z</time>
      </trkpt>
      <trkpt lat="45.90039" lon="4.61245">
        <ele>298.4</ele>
        <time>2020-12-13T09:25:42Z</time>
      </trkpt>
      <trkpt lat="45.9004" lon="4.61243">
        <ele>298.4</ele>
        <time>2020-12-13T09:25:43Z</time>
      </trkpt>
      <trkpt lat="45.90041" lon="4.61242">
        <ele>298.5</ele>
        <time>2020-12-13T09:25:44Z</time>
      </trkpt>
      <trkpt lat="45.90043" lon="4.61241">
        <ele>298.5</ele>
        <time>2020-12-13T09:25:45Z</time>
      </trkpt>
      <trkpt lat="45.90045" lon="4.6124">
        <ele>298.5</ele>
        <time>2020-12-13T09:25:46Z</time>
      </trkpt>
      <trkpt lat="45.90046" lon="4.6124">
        <ele>298.5</ele>
        <time>2020-12-13T09:25:47Z</time>
      </trkpt>
      <trkpt lat="45.90047" lon="4.6124">
        <ele>298.6</ele>
        <time>2020-12-13T09:25:48Z</time>
      </trkpt>
      <trkpt lat="45.90048" lon="4.61239">
        <ele>298.6</ele>
        <time>2020-12-13T09:25:49Z</time>
      </trkpt>
      <trkpt lat="45.9005" lon="4.61238">
        <ele>298.6</ele>
        <time>2020-12-13T09:25:50Z</time>
      </trkpt>
      <trkpt lat="45.90051" lon="4.61237">
        <ele>298.6</ele>
        <time>2020-12-13T09:25:51Z</time>
      </trkpt>
      <trkpt lat="45.90053" lon="4.61236">
        <ele>298.7</ele>
        <time>2020-12-13T09:25:52Z</time>
      </trkpt>
      <trkpt lat="45.90054" lon="4.61234">
        <ele>298.7</ele>
        <time>2020-12-13T09:25:53Z</time>
      </trkpt>
      <trkpt lat="45.90056" lon="4.61234">
        <ele>298.7</ele>
        <time>2020-12-13T09:25:54Z</time>
      </trkpt>
      <trkpt lat="45.90057" lon="4.61233">
        <ele>298.8</ele>
        <time>2020-12-13T09:25:55Z</time>
      </trkpt>
      <trkpt lat="45.90058" lon="4.61232">
        <ele>298.8</ele>
        <time>2020-12-13T09:25:56Z</time>
      </trkpt>
      <trkpt lat="45.90059" lon="4.61231">
        <ele>298.8</ele>
        <time>2020-12-13T09:25:57Z</time>
      </trkpt>
      <trkpt lat="45.90061" lon="4.61231">
        <ele>298.9</ele>
        <time>2020-12-13T09:25:58Z</time>
      </trkpt>
      <trkpt lat="45.90062" lon="4.6123">
        <ele>298.9</ele>
        <time>2020-12-13T09:25:59Z</time>
      </trkpt>
      <trkpt lat="45.90062" lon="4.6123">
        <ele>298.9</ele>
        <time>2020-12-13T09:26:00Z</time>
      </trkpt>
      <trkpt lat="45.90063" lon="4.61229">
        <ele>298.9</ele>
        <time>2020-12-13T09:26:01Z</time>
      </trkpt>
      <trkpt lat="45.90064" lon="4.61227">
        <ele>299</ele>
        <time>2020-12-13T09:26:02Z</time>
      </trkpt>
      <trkpt lat="45.90066" lon="4.61226">
        <ele>299</ele>
        <time>2020-12-13T09:26:03Z</time>
      </trkpt>
      <trkpt lat="45.90067" lon="4.61225">
        <ele>299</ele>
        <time>2020-12-13T09:26:04Z</time>
      </trkpt>
      <trkpt lat="45.90068" lon="4.61224">
        <ele>299.1</ele>
        <time>2020-12-13T09:26:05Z</time>
      </trkpt>
      <trkpt lat="45.90069" lon="4.61223">
        <ele>299.1</ele>
        <time>2020-12-13T09:26:06Z</time>
      </trkpt>
      <trkpt lat="45.90071" lon="4.61222">
        <ele>299.2</ele>
        <time>2020-12-13T09:26:08Z</time>
      </trkpt>
      <trkpt lat="45.90072" lon="4.6122">
        <ele>299.2</ele>
        <time>2020-12-13T09:26:09Z</time>
      </trkpt>
      <trkpt lat="45.90073" lon="4.61219">
        <ele>299.2</ele>
        <time>2020-12-13T09:26:10Z</time>
      </trkpt>
      <trkpt lat="45.90076" lon="4.61217">
        <ele>299.3</ele>
        <time>2020-12-13T09:26:11Z</time>
      </trkpt>
      <trkpt lat="45.90076" lon="4.61216">
        <ele>299.3</ele>
        <time>2020-12-13T09:26:12Z</time>
      </trkpt>
      <trkpt lat="45.90078" lon="4.61215">
        <ele>299.4</ele>
        <time>2020-12-13T09:26:13Z</time>
      </trkpt>
      <trkpt lat="45.90079" lon="4.61214">
        <ele>299.4</ele>
        <time>2020-12-13T09:26:14Z</time>
      </trkpt>
      <trkpt lat="45.90081" lon="4.61213">
        <ele>299.5</ele>
        <time>2020-12-13T09:26:15Z</time>
      </trkpt>
      <trkpt lat="45.90082" lon="4.61213">
        <ele>299.5</ele>
        <time>2020-12-13T09:26:16Z</time>
      </trkpt>
      <trkpt lat="45.90084" lon="4.61212">
        <ele>299.5</ele>
        <time>2020-12-13T09:26:17Z</time>
      </trkpt>
      <trkpt lat="45.90085" lon="4.61211">
        <ele>299.6</ele>
        <time>2020-12-13T09:26:18Z</time>
      </trkpt>
      <trkpt lat="45.90085" lon="4.6121">
        <ele>299.6</ele>
        <time>2020-12-13T09:26:19Z</time>
      </trkpt>
      <trkpt lat="45.90086" lon="4.6121">
        <ele>299.6</ele>
        <time>2020-12-13T09:26:20Z</time>
      </trkpt>
      <trkpt lat="45.90087" lon="4.61209">
        <ele>299.6</ele>
        <time>2020-12-13T09:26:21Z</time>
      </trkpt>
      <trkpt lat="45.90088" lon="4.61208">
        <ele>299.7</ele>
        <time>2020-12-13T09:26:22Z</time>
      </trkpt>
      <trkpt lat="45.90089" lon="4.61206">
        <ele>299.7</ele>
        <time>2020-12-13T09:26:23Z</time>
      </trkpt>
      <trkpt lat="45.9009" lon="4.61205">
        <ele>299.7</ele>
        <time>2020-12-13T09:26:24Z</time>
      </trkpt>
      <trkpt lat="45.90091" lon="4.61205">
        <ele>299.7</ele>
        <time>2020-12-13T09:26:25Z</time>
      </trkpt>
      <trkpt lat="45.90091" lon="4.61204">
        <ele>299.8</ele>
        <time>2020-12-13T09:26:26Z</time>
      </trkpt>
      <trkpt lat="45.90092" lon="4.61203">
        <ele>299.8</ele>
        <time>2020-12-13T09:26:27Z</time>
      </trkpt>
      <trkpt lat="45.90094" lon="4.61201">
        <ele>299.8</ele>
        <time>2020-12-13T09:26:28Z</time>
      </trkpt>
      <trkpt lat="45.90096" lon="4.612">
        <ele>299.9</ele>
        <time>2020-12-13T09:26:29Z</time>
      </trkpt>
      <trkpt lat="45.90097" lon="4.61199">
        <ele>299.9</ele>
        <time>2020-12-13T09:26:30Z</time>
      </trkpt>
      <trkpt lat="45.90098" lon="4.61197">
        <ele>300</ele>
        <time>2020-12-13T09:26:31Z</time>
      </trkpt>
      <trkpt lat="45.901" lon="4.61196">
        <ele>300</ele>
        <time>2020-12-13T09:26:32Z</time>
      </trkpt>
      <trkpt lat="45.90101" lon="4.61195">
        <ele>300</ele>
        <time>2020-12-13T09:26:33Z</time>
      </trkpt>
      <trkpt lat="45.90102" lon="4.61193">
        <ele>300.1</ele>
        <time>2020-12-13T09:26:34Z</time>
      </trkpt>
      <trkpt lat="45.90103" lon="4.61191">
        <ele>300.1</ele>
        <time>2020-12-13T09:26:35Z</time>
      </trkpt>
      <trkpt lat="45.90104" lon="4.6119">
        <ele>300.1</ele>
        <time>2020-12-13T09:26:36Z</time>
      </trkpt>
      <trkpt lat="45.90105" lon="4.61187">
        <ele>300.2</ele>
        <time>2020-12-13T09:26:37Z</time>
      </trkpt>
      <trkpt lat="45.90106" lon="4.61186">
        <ele>300.2</ele>
        <time>2020-12-13T09:26:38Z</time>
      </trkpt>
      <trkpt lat="45.90106" lon="4.61184">
        <ele>300.2</ele>
        <time>2020-12-13T09:26:39Z</time>
      </trkpt>
      <trkpt lat="45.90107" lon="4.61183">
        <ele>300.3</ele>
        <time>2020-12-13T09:26:40Z</time>
      </trkpt>
      <trkpt lat="45.90109" lon="4.61181">
        <ele>300.3</ele>
        <time>2020-12-13T09:26:41Z</time>
      </trkpt>
      <trkpt lat="45.90109" lon="4.61179">
        <ele>300.4</ele>
        <time>2020-12-13T09:26:42Z</time>
      </trkpt>
      <trkpt lat="45.9011" lon="4.61178">
        <ele>300.4</ele>
        <time>2020-12-13T09:26:43Z</time>
      </trkpt>
      <trkpt lat="45.90111" lon="4.61177">
        <ele>300.4</ele>
        <time>2020-12-13T09:26:44Z</time>
      </trkpt>
      <trkpt lat="45.90112" lon="4.61174">
        <ele>300.5</ele>
        <time>2020-12-13T09:26:45Z</time>
      </trkpt>
      <trkpt lat="45.90113" lon="4.61173">
        <ele>300.5</ele>
        <time>2020-12-13T09:26:46Z</time>
      </trkpt>
      <trkpt lat="45.90113" lon="4.61171">
        <ele>300.6</ele>
        <time>2020-12-13T09:26:47Z</time>
      </trkpt>
      <trkpt lat="45.90114" lon="4.61168">
        <ele>300.6</ele>
        <time>2020-12-13T09:26:48Z</time>
      </trkpt>
      <trkpt lat="45.90115" lon="4.61166">
        <ele>300.7</ele>
        <time>2020-12-13T09:26:49Z</time>
      </trkpt>
      <trkpt lat="45.90116" lon="4.61165">
        <ele>300.7</ele>
        <time>2020-12-13T09:26:50Z</time>
      </trkpt>
      <trkpt lat="45.90117" lon="4.61163">
        <ele>300.8</ele>
        <time>2020-12-13T09:26:51Z</time>
      </trkpt>
      <trkpt lat="45.90118" lon="4.61162">
        <ele>300.8</ele>
        <time>2020-12-13T09:26:52Z</time>
      </trkpt>
      <trkpt lat="45.9012" lon="4.61159">
        <ele>300.9</ele>
        <time>2020-12-13T09:26:53Z</time>
      </trkpt>
      <trkpt lat="45.9012" lon="4.61158">
        <ele>300.9</ele>
        <time>2020-12-13T09:26:54Z</time>
      </trkpt>
      <trkpt lat="45.90121" lon="4.61156">
        <ele>301</ele>
        <time>2020-12-13T09:26:55Z</time>
      </trkpt>
      <trkpt lat="45.90121" lon="4.61154">
        <ele>301</ele>
        <time>2020-12-13T09:26:56Z</time>
      </trkpt>
      <trkpt lat="45.90123" lon="4.61152">
        <ele>301.1</ele>
        <time>2020-12-13T09:26:57Z</time>
      </trkpt>
      <trkpt lat="45.90123" lon="4.61151">
        <ele>301.2</ele>
        <time>2020-12-13T09:26:58Z</time>
      </trkpt>
      <trkpt lat="45.90124" lon="4.6115">
        <ele>301.2</ele>
        <time>2020-12-13T09:26:59Z</time>
      </trkpt>
      <trkpt lat="45.90126" lon="4.61149">
        <ele>301.3</ele>
        <time>2020-12-13T09:27:00Z</time>
      </trkpt>
      <trkpt lat="45.90127" lon="4.61147">
        <ele>301.3</ele>
        <time>2020-12-13T09:27:01Z</time>
      </trkpt>
      <trkpt lat="45.90128" lon="4.61146">
        <ele>301.4</ele>
        <time>2020-12-13T09:27:02Z</time>
      </trkpt>
      <trkpt lat="45.90129" lon="4.61144">
        <ele>301.4</ele>
        <time>2020-12-13T09:27:03Z</time>
      </trkpt>
      <trkpt lat="45.9013" lon="4.61143">
        <ele>301.5</ele>
        <time>2020-12-13T09:27:04Z</time>
      </trkpt>
      <trkpt lat="45.90131" lon="4.61141">
        <ele>301.6</ele>
        <time>2020-12-13T09:27:05Z</time>
      </trkpt>
      <trkpt lat="45.90132" lon="4.6114">
        <ele>301.6</ele>
        <time>2020-12-13T09:27:06Z</time>
      </trkpt>
      <trkpt lat="45.90133" lon="4.61138">
        <ele>301.7</ele>
        <time>2020-12-13T09:27:07Z</time>
      </trkpt>
      <trkpt lat="45.90135" lon="4.61137">
        <ele>301.7</ele>
        <time>2020-12-13T09:27:08Z</time>
      </trkpt>
      <trkpt lat="45.90135" lon="4.61136">
        <ele>301.8</ele>
        <time>2020-12-13T09:27:09Z</time>
      </trkpt>
      <trkpt lat="45.90136" lon="4.61135">
        <ele>301.8</ele>
        <time>2020-12-13T09:27:10Z</time>
      </trkpt>
      <trkpt lat="45.90137" lon="4.61132">
        <ele>301.9</ele>
        <time>2020-12-13T09:27:11Z</time>
      </trkpt>
      <trkpt lat="45.90138" lon="4.61131">
        <ele>302</ele>
        <time>2020-12-13T09:27:12Z</time>
      </trkpt>
      <trkpt lat="45.90139" lon="4.6113">
        <ele>302</ele>
        <time>2020-12-13T09:27:13Z</time>
      </trkpt>
      <trkpt lat="45.9014" lon="4.61128">
        <ele>302.1</ele>
        <time>2020-12-13T09:27:14Z</time>
      </trkpt>
      <trkpt lat="45.90141" lon="4.61127">
        <ele>302.1</ele>
        <time>2020-12-13T09:27:15Z</time>
      </trkpt>
      <trkpt lat="45.90141" lon="4.61126">
        <ele>302.2</ele>
        <time>2020-12-13T09:27:16Z</time>
      </trkpt>
      <trkpt lat="45.90143" lon="4.61125">
        <ele>302.2</ele>
        <time>2020-12-13T09:27:17Z</time>
      </trkpt>
      <trkpt lat="45.90144" lon="4.61124">
        <ele>302.3</ele>
        <time>2020-12-13T09:27:18Z</time>
      </trkpt>
      <trkpt lat="45.90146" lon="4.61122">
        <ele>302.4</ele>
        <time>2020-12-13T09:27:19Z</time>
      </trkpt>
      <trkpt lat="45.90146" lon="4.61121">
        <ele>302.4</ele>
        <time>2020-12-13T09:27:20Z</time>
      </trkpt>
      <trkpt lat="45.90147" lon="4.6112">
        <ele>302.5</ele>
        <time>2020-12-13T09:27:21Z</time>
      </trkpt>
      <trkpt lat="45.90148" lon="4.61119">
        <ele>302.5</ele>
        <time>2020-12-13T09:27:22Z</time>
      </trkpt>
      <trkpt lat="45.90149" lon="4.61118">
        <ele>302.6</ele>
        <time>2020-12-13T09:27:23Z</time>
      </trkpt>
      <trkpt lat="45.9015" lon="4.61117">
        <ele>302.6</ele>
        <time>2020-12-13T09:27:24Z</time>
      </trkpt>
      <trkpt lat="45.90151" lon="4.61116">
        <ele>302.7</ele>
        <time>2020-12-13T09:27:25Z</time>
      </trkpt>
      <trkpt lat="45.90153" lon="4.61114">
        <ele>302.8</ele>
        <time>2020-12-13T09:27:26Z</time>
      </trkpt>
      <trkpt lat="45.90155" lon="4.61113">
        <ele>302.9</ele>
        <time>2020-12-13T09:27:27Z</time>
      </trkpt>
      <trkpt lat="45.90155" lon="4.61112">
        <ele>302.9</ele>
        <time>2020-12-13T09:27:28Z</time>
      </trkpt>
      <trkpt lat="45.90156" lon="4.61112">
        <ele>303</ele>
        <time>2020-12-13T09:27:29Z</time>
      </trkpt>
      <trkpt lat="45.90158" lon="4.6111">
        <ele>303.1</ele>
        <time>2020-12-13T09:27:30Z</time>
      </trkpt>
      <trkpt lat="45.90158" lon="4.61109">
        <ele>303.1</ele>
        <time>2020-12-13T09:27:31Z</time>
      </trkpt>
      <trkpt lat="45.9016" lon="4.61106">
        <ele>303.2</ele>
        <time>2020-12-13T09:27:32Z</time>
      </trkpt>
      <trkpt lat="45.9016" lon="4.61105">
        <ele>303.3</ele>
        <time>2020-12-13T09:27:33Z</time>
      </trkpt>
      <trkpt lat="45.90161" lon="4.61105">
        <ele>303.3</ele>
        <time>2020-12-13T09:27:34Z</time>
      </trkpt>
      <trkpt lat="45.90162" lon="4.61103">
        <ele>303.4</ele>
        <time>2020-12-13T09:27:35Z</time>
      </trkpt>
      <trkpt lat="45.90163" lon="4.61103">
        <ele>303.4</ele>
        <time>2020-12-13T09:27:36Z</time>
      </trkpt>
      <trkpt lat="45.90164" lon="4.61102">
        <ele>303.5</ele>
        <time>2020-12-13T09:27:37Z</time>
      </trkpt>
      <trkpt lat="45.90165" lon="4.61101">
        <ele>303.6</ele>
        <time>2020-12-13T09:27:38Z</time>
      </trkpt>
      <trkpt lat="45.90167" lon="4.611">
        <ele>303.6</ele>
        <time>2020-12-13T09:27:39Z</time>
      </trkpt>
      <trkpt lat="45.90168" lon="4.61098">
        <ele>303.7</ele>
        <time>2020-12-13T09:27:40Z</time>
      </trkpt>
      <trkpt lat="45.90169" lon="4.61097">
        <ele>303.8</ele>
        <time>2020-12-13T09:27:41Z</time>
      </trkpt>
      <trkpt lat="45.9017" lon="4.61096">
        <ele>303.8</ele>
        <time>2020-12-13T09:27:42Z</time>
      </trkpt>
      <trkpt lat="45.90172" lon="4.61095">
        <ele>304</ele>
        <time>2020-12-13T09:27:43Z</time>
      </trkpt>
      <trkpt lat="45.90173" lon="4.61095">
        <ele>304.1</ele>
        <time>2020-12-13T09:27:44Z</time>
      </trkpt>
      <trkpt lat="45.90175" lon="4.61093">
        <ele>304.1</ele>
        <time>2020-12-13T09:27:45Z</time>
      </trkpt>
      <trkpt lat="45.90176" lon="4.61093">
        <ele>304.2</ele>
        <time>2020-12-13T09:27:46Z</time>
      </trkpt>
      <trkpt lat="45.90177" lon="4.61092">
        <ele>304.3</ele>
        <time>2020-12-13T09:27:47Z</time>
      </trkpt>
      <trkpt lat="45.90178" lon="4.61091">
        <ele>304.4</ele>
        <time>2020-12-13T09:27:48Z</time>
      </trkpt>
      <trkpt lat="45.9018" lon="4.61089">
        <ele>304.5</ele>
        <time>2020-12-13T09:27:49Z</time>
      </trkpt>
      <trkpt lat="45.9018" lon="4.61088">
        <ele>304.5</ele>
        <time>2020-12-13T09:27:50Z</time>
      </trkpt>
      <trkpt lat="45.90181" lon="4.61088">
        <ele>304.6</ele>
        <time>2020-12-13T09:27:51Z</time>
      </trkpt>
      <trkpt lat="45.90183" lon="4.61087">
        <ele>304.7</ele>
        <time>2020-12-13T09:27:52Z</time>
      </trkpt>
      <trkpt lat="45.90184" lon="4.61087">
        <ele>304.7</ele>
        <time>2020-12-13T09:27:53Z</time>
      </trkpt>
      <trkpt lat="45.90186" lon="4.61085">
        <ele>304.8</ele>
        <time>2020-12-13T09:27:54Z</time>
      </trkpt>
      <trkpt lat="45.90187" lon="4.61085">
        <ele>304.9</ele>
        <time>2020-12-13T09:27:55Z</time>
      </trkpt>
      <trkpt lat="45.90188" lon="4.61084">
        <ele>305</ele>
        <time>2020-12-13T09:27:56Z</time>
      </trkpt>
      <trkpt lat="45.90189" lon="4.61083">
        <ele>305</ele>
        <time>2020-12-13T09:27:57Z</time>
      </trkpt>
      <trkpt lat="45.90191" lon="4.61082">
        <ele>305.1</ele>
        <time>2020-12-13T09:27:58Z</time>
      </trkpt>
      <trkpt lat="45.90192" lon="4.61082">
        <ele>305.1</ele>
        <time>2020-12-13T09:27:59Z</time>
      </trkpt>
      <trkpt lat="45.90193" lon="4.61081">
        <ele>305.2</ele>
        <time>2020-12-13T09:28:00Z</time>
      </trkpt>
      <trkpt lat="45.90194" lon="4.61079">
        <ele>305.3</ele>
        <time>2020-12-13T09:28:01Z</time>
      </trkpt>
      <trkpt lat="45.90195" lon="4.61079">
        <ele>305.3</ele>
        <time>2020-12-13T09:28:02Z</time>
      </trkpt>
      <trkpt lat="45.90196" lon="4.61078">
        <ele>305.3</ele>
        <time>2020-12-13T09:28:03Z</time>
      </trkpt>
      <trkpt lat="45.90198" lon="4.61077">
        <ele>305.4</ele>
        <time>2020-12-13T09:28:04Z</time>
      </trkpt>
      <trkpt lat="45.90199" lon="4.61077">
        <ele>305.5</ele>
        <time>2020-12-13T09:28:05Z</time>
      </trkpt>
      <trkpt lat="45.902" lon="4.61076">
        <ele>305.5</ele>
        <time>2020-12-13T09:28:06Z</time>
      </trkpt>
      <trkpt lat="45.90201" lon="4.61075">
        <ele>305.6</ele>
        <time>2020-12-13T09:28:07Z</time>
      </trkpt>
      <trkpt lat="45.90202" lon="4.61074">
        <ele>305.6</ele>
        <time>2020-12-13T09:28:08Z</time>
      </trkpt>
      <trkpt lat="45.90203" lon="4.61073">
        <ele>305.7</ele>
        <time>2020-12-13T09:28:09Z</time>
      </trkpt>
      <trkpt lat="45.90204" lon="4.61072">
        <ele>305.7</ele>
        <time>2020-12-13T09:28:10Z</time>
      </trkpt>
      <trkpt lat="45.90205" lon="4.61071">
        <ele>305.8</ele>
        <time>2020-12-13T09:28:11Z</time>
      </trkpt>
      <trkpt lat="45.90207" lon="4.61071">
        <ele>305.8</ele>
        <time>2020-12-13T09:28:12Z</time>
      </trkpt>
      <trkpt lat="45.90209" lon="4.6107">
        <ele>305.9</ele>
        <time>2020-12-13T09:28:14Z</time>
      </trkpt>
      <trkpt lat="45.9021" lon="4.6107">
        <ele>305.9</ele>
        <time>2020-12-13T09:28:15Z</time>
      </trkpt>
      <trkpt lat="45.90211" lon="4.61069">
        <ele>306</ele>
        <time>2020-12-13T09:28:16Z</time>
      </trkpt>
      <trkpt lat="45.90213" lon="4.61069">
        <ele>306</ele>
        <time>2020-12-13T09:28:17Z</time>
      </trkpt>
      <trkpt lat="45.90214" lon="4.61068">
        <ele>306.1</ele>
        <time>2020-12-13T09:28:18Z</time>
      </trkpt>
      <trkpt lat="45.90215" lon="4.61068">
        <ele>306.1</ele>
        <time>2020-12-13T09:28:19Z</time>
      </trkpt>
      <trkpt lat="45.90217" lon="4.61068">
        <ele>306.2</ele>
        <time>2020-12-13T09:28:20Z</time>
      </trkpt>
      <trkpt lat="45.90221" lon="4.61066">
        <ele>306.3</ele>
        <time>2020-12-13T09:28:21Z</time>
      </trkpt>
      <trkpt lat="45.90221" lon="4.61066">
        <ele>306.3</ele>
        <time>2020-12-13T09:28:22Z</time>
      </trkpt>
      <trkpt lat="45.90223" lon="4.61066">
        <ele>306.4</ele>
        <time>2020-12-13T09:28:23Z</time>
      </trkpt>
      <trkpt lat="45.90224" lon="4.61065">
        <ele>306.4</ele>
        <time>2020-12-13T09:28:24Z</time>
      </trkpt>
      <trkpt lat="45.90224" lon="4.61064">
        <ele>306.4</ele>
        <time>2020-12-13T09:28:25Z</time>
      </trkpt>
      <trkpt lat="45.90225" lon="4.61063">
        <ele>306.5</ele>
        <time>2020-12-13T09:28:26Z</time>
      </trkpt>
      <trkpt lat="45.90227" lon="4.61062">
        <ele>306.5</ele>
        <time>2020-12-13T09:28:27Z</time>
      </trkpt>
      <trkpt lat="45.90228" lon="4.61061">
        <ele>306.5</ele>
        <time>2020-12-13T09:28:28Z</time>
      </trkpt>
      <trkpt lat="45.90229" lon="4.6106">
        <ele>306.6</ele>
        <time>2020-12-13T09:28:29Z</time>
      </trkpt>
      <trkpt lat="45.9023" lon="4.6106">
        <ele>306.6</ele>
        <time>2020-12-13T09:28:30Z</time>
      </trkpt>
      <trkpt lat="45.90232" lon="4.61059">
        <ele>306.7</ele>
        <time>2020-12-13T09:28:31Z</time>
      </trkpt>
      <trkpt lat="45.90232" lon="4.61058">
        <ele>306.7</ele>
        <time>2020-12-13T09:28:32Z</time>
      </trkpt>
      <trkpt lat="45.90234" lon="4.61058">
        <ele>306.7</ele>
        <time>2020-12-13T09:28:33Z</time>
      </trkpt>
      <trkpt lat="45.90235" lon="4.61057">
        <ele>306.8</ele>
        <time>2020-12-13T09:28:34Z</time>
      </trkpt>
      <trkpt lat="45.90237" lon="4.61056">
        <ele>306.8</ele>
        <time>2020-12-13T09:28:35Z</time>
      </trkpt>
      <trkpt lat="45.90238" lon="4.61055">
        <ele>306.9</ele>
        <time>2020-12-13T09:28:36Z</time>
      </trkpt>
      <trkpt lat="45.90239" lon="4.61055">
        <ele>306.9</ele>
        <time>2020-12-13T09:28:37Z</time>
      </trkpt>
      <trkpt lat="45.9024" lon="4.61054">
        <ele>306.9</ele>
        <time>2020-12-13T09:28:38Z</time>
      </trkpt>
      <trkpt lat="45.90241" lon="4.61053">
        <ele>307</ele>
        <time>2020-12-13T09:28:39Z</time>
      </trkpt>
      <trkpt lat="45.90244" lon="4.61052">
        <ele>307</ele>
        <time>2020-12-13T09:28:40Z</time>
      </trkpt>
      <trkpt lat="45.90245" lon="4.61051">
        <ele>307.1</ele>
        <time>2020-12-13T09:28:41Z</time>
      </trkpt>
      <trkpt lat="45.90245" lon="4.61051">
        <ele>307.1</ele>
        <time>2020-12-13T09:28:42Z</time>
      </trkpt>
      <trkpt lat="45.90246" lon="4.6105">
        <ele>307.1</ele>
        <time>2020-12-13T09:28:43Z</time>
      </trkpt>
      <trkpt lat="45.90248" lon="4.61049">
        <ele>307.2</ele>
        <time>2020-12-13T09:28:44Z</time>
      </trkpt>
      <trkpt lat="45.90249" lon="4.61048">
        <ele>307.2</ele>
        <time>2020-12-13T09:28:45Z</time>
      </trkpt>
      <trkpt lat="45.9025" lon="4.61046">
        <ele>307.3</ele>
        <time>2020-12-13T09:28:46Z</time>
      </trkpt>
      <trkpt lat="45.90252" lon="4.61045">
        <ele>307.3</ele>
        <time>2020-12-13T09:28:47Z</time>
      </trkpt>
      <trkpt lat="45.90253" lon="4.61044">
        <ele>307.4</ele>
        <time>2020-12-13T09:28:48Z</time>
      </trkpt>
      <trkpt lat="45.90253" lon="4.61044">
        <ele>307.4</ele>
        <time>2020-12-13T09:28:49Z</time>
      </trkpt>
      <trkpt lat="45.90255" lon="4.61043">
        <ele>307.5</ele>
        <time>2020-12-13T09:28:50Z</time>
      </trkpt>
      <trkpt lat="45.90255" lon="4.61042">
        <ele>307.5</ele>
        <time>2020-12-13T09:28:51Z</time>
      </trkpt>
      <trkpt lat="45.90256" lon="4.61041">
        <ele>307.6</ele>
        <time>2020-12-13T09:28:52Z</time>
      </trkpt>
      <trkpt lat="45.90258" lon="4.61039">
        <ele>307.6</ele>
        <time>2020-12-13T09:28:53Z</time>
      </trkpt>
      <trkpt lat="45.90259" lon="4.61039">
        <ele>307.7</ele>
        <time>2020-12-13T09:28:54Z</time>
      </trkpt>
      <trkpt lat="45.9026" lon="4.61038">
        <ele>307.7</ele>
        <time>2020-12-13T09:28:55Z</time>
      </trkpt>
      <trkpt lat="45.90261" lon="4.61037">
        <ele>307.8</ele>
        <time>2020-12-13T09:28:56Z</time>
      </trkpt>
      <trkpt lat="45.90262" lon="4.61036">
        <ele>307.8</ele>
        <time>2020-12-13T09:28:57Z</time>
      </trkpt>
      <trkpt lat="45.90263" lon="4.61035">
        <ele>307.9</ele>
        <time>2020-12-13T09:28:58Z</time>
      </trkpt>
      <trkpt lat="45.90265" lon="4.61034">
        <ele>307.9</ele>
        <time>2020-12-13T09:28:59Z</time>
      </trkpt>
      <trkpt lat="45.90266" lon="4.61033">
        <ele>308</ele>
        <time>2020-12-13T09:29:00Z</time>
      </trkpt>
      <trkpt lat="45.90267" lon="4.61032">
        <ele>308.1</ele>
        <time>2020-12-13T09:29:01Z</time>
      </trkpt>
      <trkpt lat="45.90269" lon="4.61031">
        <ele>308.1</ele>
        <time>2020-12-13T09:29:02Z</time>
      </trkpt>
      <trkpt lat="45.9027" lon="4.61029">
        <ele>308.2</ele>
        <time>2020-12-13T09:29:03Z</time>
      </trkpt>
      <trkpt lat="45.90271" lon="4.61027">
        <ele>308.3</ele>
        <time>2020-12-13T09:29:04Z</time>
      </trkpt>
      <trkpt lat="45.90272" lon="4.61026">
        <ele>308.3</ele>
        <time>2020-12-13T09:29:05Z</time>
      </trkpt>
      <trkpt lat="45.90273" lon="4.61026">
        <ele>308.3</ele>
        <time>2020-12-13T09:29:06Z</time>
      </trkpt>
      <trkpt lat="45.90275" lon="4.61024">
        <ele>308.4</ele>
        <time>2020-12-13T09:29:07Z</time>
      </trkpt>
      <trkpt lat="45.90276" lon="4.61024">
        <ele>308.5</ele>
        <time>2020-12-13T09:29:08Z</time>
      </trkpt>
      <trkpt lat="45.90277" lon="4.61023">
        <ele>308.5</ele>
        <time>2020-12-13T09:29:09Z</time>
      </trkpt>
      <trkpt lat="45.90278" lon="4.61021">
        <ele>308.6</ele>
        <time>2020-12-13T09:29:10Z</time>
      </trkpt>
      <trkpt lat="45.90279" lon="4.6102">
        <ele>308.7</ele>
        <time>2020-12-13T09:29:11Z</time>
      </trkpt>
      <trkpt lat="45.9028" lon="4.6102">
        <ele>308.7</ele>
        <time>2020-12-13T09:29:12Z</time>
      </trkpt>
      <trkpt lat="45.90281" lon="4.61019">
        <ele>308.7</ele>
        <time>2020-12-13T09:29:13Z</time>
      </trkpt>
      <trkpt lat="45.90283" lon="4.61018">
        <ele>308.8</ele>
        <time>2020-12-13T09:29:14Z</time>
      </trkpt>
      <trkpt lat="45.90284" lon="4.61016">
        <ele>308.9</ele>
        <time>2020-12-13T09:29:15Z</time>
      </trkpt>
      <trkpt lat="45.90285" lon="4.61015">
        <ele>309</ele>
        <time>2020-12-13T09:29:16Z</time>
      </trkpt>
      <trkpt lat="45.90286" lon="4.61014">
        <ele>309</ele>
        <time>2020-12-13T09:29:17Z</time>
      </trkpt>
      <trkpt lat="45.90288" lon="4.61013">
        <ele>309.1</ele>
        <time>2020-12-13T09:29:18Z</time>
      </trkpt>
      <trkpt lat="45.90288" lon="4.61012">
        <ele>309.1</ele>
        <time>2020-12-13T09:29:19Z</time>
      </trkpt>
      <trkpt lat="45.90289" lon="4.61012">
        <ele>309.2</ele>
        <time>2020-12-13T09:29:20Z</time>
      </trkpt>
      <trkpt lat="45.9029" lon="4.61011">
        <ele>309.2</ele>
        <time>2020-12-13T09:29:21Z</time>
      </trkpt>
      <trkpt lat="45.90291" lon="4.6101">
        <ele>309.3</ele>
        <time>2020-12-13T09:29:22Z</time>
      </trkpt>
      <trkpt lat="45.90291" lon="4.61008">
        <ele>309.3</ele>
        <time>2020-12-13T09:29:23Z</time>
      </trkpt>
      <trkpt lat="45.90293" lon="4.61008">
        <ele>309.4</ele>
        <time>2020-12-13T09:29:24Z</time>
      </trkpt>
      <trkpt lat="45.90294" lon="4.61007">
        <ele>309.5</ele>
        <time>2020-12-13T09:29:25Z</time>
      </trkpt>
      <trkpt lat="45.90295" lon="4.61005">
        <ele>309.5</ele>
        <time>2020-12-13T09:29:26Z</time>
      </trkpt>
      <trkpt lat="45.90296" lon="4.61005">
        <ele>309.6</ele>
        <time>2020-12-13T09:29:27Z</time>
      </trkpt>
      <trkpt lat="45.90298" lon="4.61002">
        <ele>309.7</ele>
        <time>2020-12-13T09:29:28Z</time>
      </trkpt>
      <trkpt lat="45.90299" lon="4.61002">
        <ele>309.8</ele>
        <time>2020-12-13T09:29:29Z</time>
      </trkpt>
      <trkpt lat="45.903" lon="4.61001">
        <ele>309.8</ele>
        <time>2020-12-13T09:29:30Z</time>
      </trkpt>
      <trkpt lat="45.90301" lon="4.60999">
        <ele>309.9</ele>
        <time>2020-12-13T09:29:31Z</time>
      </trkpt>
      <trkpt lat="45.90302" lon="4.60999">
        <ele>309.9</ele>
        <time>2020-12-13T09:29:32Z</time>
      </trkpt>
      <trkpt lat="45.90303" lon="4.60998">
        <ele>310</ele>
        <time>2020-12-13T09:29:33Z</time>
      </trkpt>
      <trkpt lat="45.90304" lon="4.60997">
        <ele>310.1</ele>
        <time>2020-12-13T09:29:34Z</time>
      </trkpt>
      <trkpt lat="45.90306" lon="4.60996">
        <ele>310.1</ele>
        <time>2020-12-13T09:29:35Z</time>
      </trkpt>
      <trkpt lat="45.90307" lon="4.60994">
        <ele>310.2</ele>
        <time>2020-12-13T09:29:36Z</time>
      </trkpt>
      <trkpt lat="45.90308" lon="4.60994">
        <ele>310.3</ele>
        <time>2020-12-13T09:29:37Z</time>
      </trkpt>
      <trkpt lat="45.90309" lon="4.60993">
        <ele>310.3</ele>
        <time>2020-12-13T09:29:38Z</time>
      </trkpt>
      <trkpt lat="45.90311" lon="4.60991">
        <ele>310.4</ele>
        <time>2020-12-13T09:29:39Z</time>
      </trkpt>
      <trkpt lat="45.90312" lon="4.60991">
        <ele>310.5</ele>
        <time>2020-12-13T09:29:40Z</time>
      </trkpt>
      <trkpt lat="45.90312" lon="4.6099">
        <ele>310.5</ele>
        <time>2020-12-13T09:29:41Z</time>
      </trkpt>
      <trkpt lat="45.90313" lon="4.60989">
        <ele>310.6</ele>
        <time>2020-12-13T09:29:42Z</time>
      </trkpt>
      <trkpt lat="45.90313" lon="4.60988">
        <ele>310.6</ele>
        <time>2020-12-13T09:29:43Z</time>
      </trkpt>
      <trkpt lat="45.90314" lon="4.60987">
        <ele>310.7</ele>
        <time>2020-12-13T09:29:44Z</time>
      </trkpt>
      <trkpt lat="45.90316" lon="4.60986">
        <ele>310.8</ele>
        <time>2020-12-13T09:29:45Z</time>
      </trkpt>
      <trkpt lat="45.90317" lon="4.60984">
        <ele>310.8</ele>
        <time>2020-12-13T09:29:46Z</time>
      </trkpt>
      <trkpt lat="45.9032" lon="4.60985">
        <ele>311</ele>
        <time>2020-12-13T09:29:47Z</time>
      </trkpt>
      <trkpt lat="45.90321" lon="4.60985">
        <ele>311</ele>
        <time>2020-12-13T09:29:48Z</time>
      </trkpt>
      <trkpt lat="45.90323" lon="4.60983">
        <ele>311.1</ele>
        <time>2020-12-13T09:29:49Z</time>
      </trkpt>
      <trkpt lat="45.90323" lon="4.60982">
        <ele>311.2</ele>
        <time>2020-12-13T09:29:50Z</time>
      </trkpt>
      <trkpt lat="45.90324" lon="4.60982">
        <ele>311.2</ele>
        <time>2020-12-13T09:29:51Z</time>
      </trkpt>
      <trkpt lat="45.90326" lon="4.6098">
        <ele>311.3</ele>
        <time>2020-12-13T09:29:52Z</time>
      </trkpt>
      <trkpt lat="45.90327" lon="4.6098">
        <ele>311.4</ele>
        <time>2020-12-13T09:29:53Z</time>
      </trkpt>
      <trkpt lat="45.90328" lon="4.60979">
        <ele>311.4</ele>
        <time>2020-12-13T09:29:54Z</time>
      </trkpt>
      <trkpt lat="45.90329" lon="4.60979">
        <ele>311.5</ele>
        <time>2020-12-13T09:29:55Z</time>
      </trkpt>
      <trkpt lat="45.9033" lon="4.60978">
        <ele>311.5</ele>
        <time>2020-12-13T09:29:56Z</time>
      </trkpt>
      <trkpt lat="45.90332" lon="4.60977">
        <ele>311.6</ele>
        <time>2020-12-13T09:29:57Z</time>
      </trkpt>
      <trkpt lat="45.90333" lon="4.60977">
        <ele>311.7</ele>
        <time>2020-12-13T09:29:58Z</time>
      </trkpt>
      <trkpt lat="45.90334" lon="4.60976">
        <ele>311.7</ele>
        <time>2020-12-13T09:29:59Z</time>
      </trkpt>
      <trkpt lat="45.90335" lon="4.60976">
        <ele>311.8</ele>
        <time>2020-12-13T09:30:00Z</time>
      </trkpt>
      <trkpt lat="45.90336" lon="4.60975">
        <ele>311.9</ele>
        <time>2020-12-13T09:30:01Z</time>
      </trkpt>
      <trkpt lat="45.90337" lon="4.60974">
        <ele>311.9</ele>
        <time>2020-12-13T09:30:02Z</time>
      </trkpt>
      <trkpt lat="45.90339" lon="4.60974">
        <ele>312.1</ele>
        <time>2020-12-13T09:30:03Z</time>
      </trkpt>
      <trkpt lat="45.9034" lon="4.60974">
        <ele>312.1</ele>
        <time>2020-12-13T09:30:04Z</time>
      </trkpt>
      <trkpt lat="45.90341" lon="4.60974">
        <ele>312.2</ele>
        <time>2020-12-13T09:30:05Z</time>
      </trkpt>
      <trkpt lat="45.90343" lon="4.60973">
        <ele>312.3</ele>
        <time>2020-12-13T09:30:06Z</time>
      </trkpt>
      <trkpt lat="45.90344" lon="4.60973">
        <ele>312.4</ele>
        <time>2020-12-13T09:30:07Z</time>
      </trkpt>
      <trkpt lat="45.90345" lon="4.60972">
        <ele>312.4</ele>
        <time>2020-12-13T09:30:08Z</time>
      </trkpt>
      <trkpt lat="45.90347" lon="4.60972">
        <ele>312.5</ele>
        <time>2020-12-13T09:30:09Z</time>
      </trkpt>
      <trkpt lat="45.90349" lon="4.60972">
        <ele>312.6</ele>
        <time>2020-12-13T09:30:10Z</time>
      </trkpt>
      <trkpt lat="45.9035" lon="4.60972">
        <ele>312.7</ele>
        <time>2020-12-13T09:30:11Z</time>
      </trkpt>
      <trkpt lat="45.90352" lon="4.60971">
        <ele>312.8</ele>
        <time>2020-12-13T09:30:12Z</time>
      </trkpt>
      <trkpt lat="45.90354" lon="4.60971">
        <ele>312.9</ele>
        <time>2020-12-13T09:30:13Z</time>
      </trkpt>
      <trkpt lat="45.90355" lon="4.60971">
        <ele>313</ele>
        <time>2020-12-13T09:30:14Z</time>
      </trkpt>
      <trkpt lat="45.90355" lon="4.60971">
        <ele>313.1</ele>
        <time>2020-12-13T09:30:15Z</time>
      </trkpt>
      <trkpt lat="45.90357" lon="4.6097">
        <ele>313.2</ele>
        <time>2020-12-13T09:30:16Z</time>
      </trkpt>
      <trkpt lat="45.90358" lon="4.6097">
        <ele>313.2</ele>
        <time>2020-12-13T09:30:17Z</time>
      </trkpt>
      <trkpt lat="45.90359" lon="4.6097">
        <ele>313.3</ele>
        <time>2020-12-13T09:30:18Z</time>
      </trkpt>
      <trkpt lat="45.9036" lon="4.60969">
        <ele>313.4</ele>
        <time>2020-12-13T09:30:20Z</time>
      </trkpt>
      <trkpt lat="45.90361" lon="4.60969">
        <ele>313.5</ele>
        <time>2020-12-13T09:30:21Z</time>
      </trkpt>
      <trkpt lat="45.90362" lon="4.60968">
        <ele>313.5</ele>
        <time>2020-12-13T09:30:22Z</time>
      </trkpt>
      <trkpt lat="45.90364" lon="4.60968">
        <ele>313.6</ele>
        <time>2020-12-13T09:30:23Z</time>
      </trkpt>
      <trkpt lat="45.90365" lon="4.60967">
        <ele>313.7</ele>
        <time>2020-12-13T09:30:24Z</time>
      </trkpt>
      <trkpt lat="45.90367" lon="4.60967">
        <ele>313.9</ele>
        <time>2020-12-13T09:30:25Z</time>
      </trkpt>
      <trkpt lat="45.90369" lon="4.60966">
        <ele>314</ele>
        <time>2020-12-13T09:30:26Z</time>
      </trkpt>
      <trkpt lat="45.9037" lon="4.60966">
        <ele>314</ele>
        <time>2020-12-13T09:30:27Z</time>
      </trkpt>
      <trkpt lat="45.90372" lon="4.60965">
        <ele>314.2</ele>
        <time>2020-12-13T09:30:28Z</time>
      </trkpt>
      <trkpt lat="45.90372" lon="4.60965">
        <ele>314.3</ele>
        <time>2020-12-13T09:30:29Z</time>
      </trkpt>
      <trkpt lat="45.90373" lon="4.60964">
        <ele>314.3</ele>
        <time>2020-12-13T09:30:30Z</time>
      </trkpt>
      <trkpt lat="45.90375" lon="4.60964">
        <ele>314.5</ele>
        <time>2020-12-13T09:30:31Z</time>
      </trkpt>
      <trkpt lat="45.90376" lon="4.60963">
        <ele>314.5</ele>
        <time>2020-12-13T09:30:32Z</time>
      </trkpt>
      <trkpt lat="45.90377" lon="4.60963">
        <ele>314.6</ele>
        <time>2020-12-13T09:30:33Z</time>
      </trkpt>
      <trkpt lat="45.90379" lon="4.60963">
        <ele>314.8</ele>
        <time>2020-12-13T09:30:34Z</time>
      </trkpt>
      <trkpt lat="45.9038" lon="4.60963">
        <ele>314.8</ele>
        <time>2020-12-13T09:30:35Z</time>
      </trkpt>
      <trkpt lat="45.90381" lon="4.60962">
        <ele>314.9</ele>
        <time>2020-12-13T09:30:36Z</time>
      </trkpt>
      <trkpt lat="45.90381" lon="4.60962">
        <ele>314.9</ele>
        <time>2020-12-13T09:30:37Z</time>
      </trkpt>
      <trkpt lat="45.90382" lon="4.60961">
        <ele>315</ele>
        <time>2020-12-13T09:30:38Z</time>
      </trkpt>
      <trkpt lat="45.90383" lon="4.60961">
        <ele>315.1</ele>
        <time>2020-12-13T09:30:39Z</time>
      </trkpt>
      <trkpt lat="45.90383" lon="4.6096">
        <ele>315.1</ele>
        <time>2020-12-13T09:30:40Z</time>
      </trkpt>
      <trkpt lat="45.90385" lon="4.60959">
        <ele>315.3</ele>
        <time>2020-12-13T09:30:41Z</time>
      </trkpt>
      <trkpt lat="45.90386" lon="4.60958">
        <ele>315.3</ele>
        <time>2020-12-13T09:30:42Z</time>
      </trkpt>
      <trkpt lat="45.90387" lon="4.60958">
        <ele>315.4</ele>
        <time>2020-12-13T09:30:43Z</time>
      </trkpt>
      <trkpt lat="45.90388" lon="4.60957">
        <ele>315.5</ele>
        <time>2020-12-13T09:30:44Z</time>
      </trkpt>
      <trkpt lat="45.90389" lon="4.60956">
        <ele>315.6</ele>
        <time>2020-12-13T09:30:45Z</time>
      </trkpt>
      <trkpt lat="45.9039" lon="4.60956">
        <ele>315.7</ele>
        <time>2020-12-13T09:30:46Z</time>
      </trkpt>
      <trkpt lat="45.9039" lon="4.60955">
        <ele>315.7</ele>
        <time>2020-12-13T09:30:47Z</time>
      </trkpt>
      <trkpt lat="45.90391" lon="4.60955">
        <ele>315.8</ele>
        <time>2020-12-13T09:30:48Z</time>
      </trkpt>
      <trkpt lat="45.90393" lon="4.60954">
        <ele>316</ele>
        <time>2020-12-13T09:30:49Z</time>
      </trkpt>
      <trkpt lat="45.90396" lon="4.60953">
        <ele>316.2</ele>
        <time>2020-12-13T09:30:50Z</time>
      </trkpt>
      <trkpt lat="45.90397" lon="4.60953">
        <ele>316.3</ele>
        <time>2020-12-13T09:30:51Z</time>
      </trkpt>
      <trkpt lat="45.90397" lon="4.60952">
        <ele>316.3</ele>
        <time>2020-12-13T09:30:52Z</time>
      </trkpt>
      <trkpt lat="45.90399" lon="4.60952">
        <ele>316.4</ele>
        <time>2020-12-13T09:30:53Z</time>
      </trkpt>
      <trkpt lat="45.904" lon="4.60951">
        <ele>316.6</ele>
        <time>2020-12-13T09:30:54Z</time>
      </trkpt>
      <trkpt lat="45.90402" lon="4.60951">
        <ele>316.7</ele>
        <time>2020-12-13T09:30:55Z</time>
      </trkpt>
      <trkpt lat="45.90404" lon="4.6095">
        <ele>316.8</ele>
        <time>2020-12-13T09:30:56Z</time>
      </trkpt>
      <trkpt lat="45.90406" lon="4.6095">
        <ele>317</ele>
        <time>2020-12-13T09:30:57Z</time>
      </trkpt>
      <trkpt lat="45.90406" lon="4.60949">
        <ele>317</ele>
        <time>2020-12-13T09:30:58Z</time>
      </trkpt>
      <trkpt lat="45.90408" lon="4.60949">
        <ele>317.2</ele>
        <time>2020-12-13T09:30:59Z</time>
      </trkpt>
      <trkpt lat="45.90409" lon="4.60948">
        <ele>317.3</ele>
        <time>2020-12-13T09:31:00Z</time>
      </trkpt>
      <trkpt lat="45.9041" lon="4.60947">
        <ele>317.4</ele>
        <time>2020-12-13T09:31:01Z</time>
      </trkpt>
      <trkpt lat="45.90412" lon="4.60946">
        <ele>317.5</ele>
        <time>2020-12-13T09:31:02Z</time>
      </trkpt>
      <trkpt lat="45.90414" lon="4.60946">
        <ele>317.6</ele>
        <time>2020-12-13T09:31:03Z</time>
      </trkpt>
      <trkpt lat="45.90415" lon="4.60945">
        <ele>317.7</ele>
        <time>2020-12-13T09:31:04Z</time>
      </trkpt>
      <trkpt lat="45.90416" lon="4.60944">
        <ele>317.8</ele>
        <time>2020-12-13T09:31:05Z</time>
      </trkpt>
      <trkpt lat="45.90418" lon="4.60943">
        <ele>318</ele>
        <time>2020-12-13T09:31:06Z</time>
      </trkpt>
      <trkpt lat="45.90419" lon="4.60942">
        <ele>318</ele>
        <time>2020-12-13T09:31:07Z</time>
      </trkpt>
      <trkpt lat="45.9042" lon="4.60941">
        <ele>318.1</ele>
        <time>2020-12-13T09:31:08Z</time>
      </trkpt>
      <trkpt lat="45.90421" lon="4.6094">
        <ele>318.2</ele>
        <time>2020-12-13T09:31:09Z</time>
      </trkpt>
      <trkpt lat="45.90421" lon="4.60939">
        <ele>318.3</ele>
        <time>2020-12-13T09:31:10Z</time>
      </trkpt>
      <trkpt lat="45.90422" lon="4.60939">
        <ele>318.3</ele>
        <time>2020-12-13T09:31:11Z</time>
      </trkpt>
      <trkpt lat="45.90423" lon="4.60937">
        <ele>318.4</ele>
        <time>2020-12-13T09:31:12Z</time>
      </trkpt>
      <trkpt lat="45.90424" lon="4.60936">
        <ele>318.5</ele>
        <time>2020-12-13T09:31:13Z</time>
      </trkpt>
      <trkpt lat="45.90425" lon="4.60935">
        <ele>318.6</ele>
        <time>2020-12-13T09:31:14Z</time>
      </trkpt>
      <trkpt lat="45.90427" lon="4.60933">
        <ele>318.8</ele>
        <time>2020-12-13T09:31:15Z</time>
      </trkpt>
      <trkpt lat="45.90428" lon="4.60932">
        <ele>318.8</ele>
        <time>2020-12-13T09:31:16Z</time>
      </trkpt>
      <trkpt lat="45.90428" lon="4.60932">
        <ele>318.9</ele>
        <time>2020-12-13T09:31:17Z</time>
      </trkpt>
      <trkpt lat="45.9043" lon="4.60929">
        <ele>319</ele>
        <time>2020-12-13T09:31:18Z</time>
      </trkpt>
      <trkpt lat="45.9043" lon="4.60928">
        <ele>319.1</ele>
        <time>2020-12-13T09:31:19Z</time>
      </trkpt>
      <trkpt lat="45.90431" lon="4.60927">
        <ele>319.1</ele>
        <time>2020-12-13T09:31:20Z</time>
      </trkpt>
      <trkpt lat="45.90432" lon="4.60926">
        <ele>319.2</ele>
        <time>2020-12-13T09:31:21Z</time>
      </trkpt>
      <trkpt lat="45.90434" lon="4.60925">
        <ele>319.3</ele>
        <time>2020-12-13T09:31:22Z</time>
      </trkpt>
      <trkpt lat="45.90434" lon="4.60924">
        <ele>319.4</ele>
        <time>2020-12-13T09:31:23Z</time>
      </trkpt>
      <trkpt lat="45.90435" lon="4.60922">
        <ele>319.5</ele>
        <time>2020-12-13T09:31:24Z</time>
      </trkpt>
      <trkpt lat="45.90436" lon="4.60921">
        <ele>319.5</ele>
        <time>2020-12-13T09:31:25Z</time>
      </trkpt>
      <trkpt lat="45.90437" lon="4.60919">
        <ele>319.6</ele>
        <time>2020-12-13T09:31:26Z</time>
      </trkpt>
      <trkpt lat="45.90437" lon="4.60918">
        <ele>319.6</ele>
        <time>2020-12-13T09:31:27Z</time>
      </trkpt>
      <trkpt lat="45.90438" lon="4.60917">
        <ele>319.7</ele>
        <time>2020-12-13T09:31:28Z</time>
      </trkpt>
      <trkpt lat="45.90439" lon="4.60916">
        <ele>319.8</ele>
        <time>2020-12-13T09:31:29Z</time>
      </trkpt>
      <trkpt lat="45.90441" lon="4.60914">
        <ele>319.8</ele>
        <time>2020-12-13T09:31:30Z</time>
      </trkpt>
      <trkpt lat="45.90442" lon="4.60913">
        <ele>319.9</ele>
        <time>2020-12-13T09:31:31Z</time>
      </trkpt>
      <trkpt lat="45.90443" lon="4.60911">
        <ele>320</ele>
        <time>2020-12-13T09:31:32Z</time>
      </trkpt>
      <trkpt lat="45.90444" lon="4.60909">
        <ele>320.1</ele>
        <time>2020-12-13T09:31:33Z</time>
      </trkpt>
      <trkpt lat="45.90445" lon="4.60908">
        <ele>320.1</ele>
        <time>2020-12-13T09:31:34Z</time>
      </trkpt>
      <trkpt lat="45.90445" lon="4.60907">
        <ele>320.2</ele>
        <time>2020-12-13T09:31:35Z</time>
      </trkpt>
      <trkpt lat="45.90446" lon="4.60906">
        <ele>320.2</ele>
        <time>2020-12-13T09:31:36Z</time>
      </trkpt>
      <trkpt lat="45.90447" lon="4.60905">
        <ele>320.3</ele>
        <time>2020-12-13T09:31:37Z</time>
      </trkpt>
      <trkpt lat="45.90448" lon="4.60903">
        <ele>320.3</ele>
        <time>2020-12-13T09:31:38Z</time>
      </trkpt>
      <trkpt lat="45.90448" lon="4.60901">
        <ele>320.4</ele>
        <time>2020-12-13T09:31:39Z</time>
      </trkpt>
      <trkpt lat="45.90449" lon="4.609">
        <ele>320.4</ele>
        <time>2020-12-13T09:31:40Z</time>
      </trkpt>
      <trkpt lat="45.9045" lon="4.60897">
        <ele>320.5</ele>
        <time>2020-12-13T09:31:41Z</time>
      </trkpt>
      <trkpt lat="45.90451" lon="4.60896">
        <ele>320.6</ele>
        <time>2020-12-13T09:31:42Z</time>
      </trkpt>
      <trkpt lat="45.90451" lon="4.60895">
        <ele>320.6</ele>
        <time>2020-12-13T09:31:43Z</time>
      </trkpt>
      <trkpt lat="45.90452" lon="4.60892">
        <ele>320.7</ele>
        <time>2020-12-13T09:31:44Z</time>
      </trkpt>
      <trkpt lat="45.90453" lon="4.60891">
        <ele>320.7</ele>
        <time>2020-12-13T09:31:45Z</time>
      </trkpt>
      <trkpt lat="45.90453" lon="4.6089">
        <ele>320.7</ele>
        <time>2020-12-13T09:31:46Z</time>
      </trkpt>
      <trkpt lat="45.90455" lon="4.60888">
        <ele>320.8</ele>
        <time>2020-12-13T09:31:47Z</time>
      </trkpt>
      <trkpt lat="45.90455" lon="4.60887">
        <ele>320.9</ele>
        <time>2020-12-13T09:31:48Z</time>
      </trkpt>
      <trkpt lat="45.90456" lon="4.60887">
        <ele>320.9</ele>
        <time>2020-12-13T09:31:49Z</time>
      </trkpt>
      <trkpt lat="45.90457" lon="4.60885">
        <ele>320.9</ele>
        <time>2020-12-13T09:31:50Z</time>
      </trkpt>
      <trkpt lat="45.90458" lon="4.60884">
        <ele>320.9</ele>
        <time>2020-12-13T09:31:51Z</time>
      </trkpt>
      <trkpt lat="45.90459" lon="4.60883">
        <ele>321</ele>
        <time>2020-12-13T09:31:52Z</time>
      </trkpt>
      <trkpt lat="45.9046" lon="4.6088">
        <ele>321</ele>
        <time>2020-12-13T09:31:53Z</time>
      </trkpt>
      <trkpt lat="45.90461" lon="4.60879">
        <ele>321</ele>
        <time>2020-12-13T09:31:54Z</time>
      </trkpt>
      <trkpt lat="45.90461" lon="4.60878">
        <ele>321</ele>
        <time>2020-12-13T09:31:55Z</time>
      </trkpt>
      <trkpt lat="45.90462" lon="4.60876">
        <ele>321.1</ele>
        <time>2020-12-13T09:31:56Z</time>
      </trkpt>
      <trkpt lat="45.90463" lon="4.60875">
        <ele>321.1</ele>
        <time>2020-12-13T09:31:57Z</time>
      </trkpt>
      <trkpt lat="45.90464" lon="4.60874">
        <ele>321.1</ele>
        <time>2020-12-13T09:31:58Z</time>
      </trkpt>
      <trkpt lat="45.90464" lon="4.60873">
        <ele>321.1</ele>
        <time>2020-12-13T09:31:59Z</time>
      </trkpt>
      <trkpt lat="45.90465" lon="4.60872">
        <ele>321.2</ele>
        <time>2020-12-13T09:32:00Z</time>
      </trkpt>
      <trkpt lat="45.90466" lon="4.60871">
        <ele>321.2</ele>
        <time>2020-12-13T09:32:01Z</time>
      </trkpt>
      <trkpt lat="45.90467" lon="4.60869">
        <ele>321.2</ele>
        <time>2020-12-13T09:32:02Z</time>
      </trkpt>
      <trkpt lat="45.90468" lon="4.60868">
        <ele>321.3</ele>
        <time>2020-12-13T09:32:03Z</time>
      </trkpt>
      <trkpt lat="45.90469" lon="4.60867">
        <ele>321.3</ele>
        <time>2020-12-13T09:32:04Z</time>
      </trkpt>
      <trkpt lat="45.9047" lon="4.60866">
        <ele>321.3</ele>
        <time>2020-12-13T09:32:05Z</time>
      </trkpt>
      <trkpt lat="45.9047" lon="4.60865">
        <ele>321.3</ele>
        <time>2020-12-13T09:32:06Z</time>
      </trkpt>
      <trkpt lat="45.90471" lon="4.60864">
        <ele>321.3</ele>
        <time>2020-12-13T09:32:07Z</time>
      </trkpt>
      <trkpt lat="45.90472" lon="4.60863">
        <ele>321.4</ele>
        <time>2020-12-13T09:32:08Z</time>
      </trkpt>
      <trkpt lat="45.90473" lon="4.60862">
        <ele>321.4</ele>
        <time>2020-12-13T09:32:09Z</time>
      </trkpt>
      <trkpt lat="45.90476" lon="4.60861">
        <ele>321.5</ele>
        <time>2020-12-13T09:32:10Z</time>
      </trkpt>
      <trkpt lat="45.90477" lon="4.6086">
        <ele>321.5</ele>
        <time>2020-12-13T09:32:11Z</time>
      </trkpt>
      <trkpt lat="45.90477" lon="4.6086">
        <ele>321.5</ele>
        <time>2020-12-13T09:32:12Z</time>
      </trkpt>
      <trkpt lat="45.90479" lon="4.60858">
        <ele>321.5</ele>
        <time>2020-12-13T09:32:13Z</time>
      </trkpt>
      <trkpt lat="45.90479" lon="4.60857">
        <ele>321.6</ele>
        <time>2020-12-13T09:32:14Z</time>
      </trkpt>
      <trkpt lat="45.9048" lon="4.60856">
        <ele>321.6</ele>
        <time>2020-12-13T09:32:15Z</time>
      </trkpt>
      <trkpt lat="45.90482" lon="4.60855">
        <ele>321.6</ele>
        <time>2020-12-13T09:32:16Z</time>
      </trkpt>
      <trkpt lat="45.90483" lon="4.60854">
        <ele>321.7</ele>
        <time>2020-12-13T09:32:17Z</time>
      </trkpt>
      <trkpt lat="45.90484" lon="4.60853">
        <ele>321.7</ele>
        <time>2020-12-13T09:32:18Z</time>
      </trkpt>
      <trkpt lat="45.90485" lon="4.60853">
        <ele>321.7</ele>
        <time>2020-12-13T09:32:19Z</time>
      </trkpt>
      <trkpt lat="45.90486" lon="4.60852">
        <ele>321.8</ele>
        <time>2020-12-13T09:32:20Z</time>
      </trkpt>
      <trkpt lat="45.90486" lon="4.60851">
        <ele>321.8</ele>
        <time>2020-12-13T09:32:21Z</time>
      </trkpt>
      <trkpt lat="45.90488" lon="4.6085">
        <ele>321.8</ele>
        <time>2020-12-13T09:32:22Z</time>
      </trkpt>
      <trkpt lat="45.90489" lon="4.6085">
        <ele>321.9</ele>
        <time>2020-12-13T09:32:23Z</time>
      </trkpt>
      <trkpt lat="45.9049" lon="4.60849">
        <ele>321.9</ele>
        <time>2020-12-13T09:32:24Z</time>
      </trkpt>
      <trkpt lat="45.90491" lon="4.60848">
        <ele>322</ele>
        <time>2020-12-13T09:32:26Z</time>
      </trkpt>
      <trkpt lat="45.90493" lon="4.60848">
        <ele>322</ele>
        <time>2020-12-13T09:32:27Z</time>
      </trkpt>
      <trkpt lat="45.90495" lon="4.60846">
        <ele>322.1</ele>
        <time>2020-12-13T09:32:28Z</time>
      </trkpt>
      <trkpt lat="45.90496" lon="4.60846">
        <ele>322.1</ele>
        <time>2020-12-13T09:32:29Z</time>
      </trkpt>
      <trkpt lat="45.90497" lon="4.60846">
        <ele>322.2</ele>
        <time>2020-12-13T09:32:30Z</time>
      </trkpt>
      <trkpt lat="45.90497" lon="4.60845">
        <ele>322.2</ele>
        <time>2020-12-13T09:32:31Z</time>
      </trkpt>
      <trkpt lat="45.90499" lon="4.60844">
        <ele>322.2</ele>
        <time>2020-12-13T09:32:32Z</time>
      </trkpt>
      <trkpt lat="45.905" lon="4.60843">
        <ele>322.3</ele>
        <time>2020-12-13T09:32:33Z</time>
      </trkpt>
      <trkpt lat="45.90501" lon="4.60843">
        <ele>322.3</ele>
        <time>2020-12-13T09:32:34Z</time>
      </trkpt>
      <trkpt lat="45.90502" lon="4.60842">
        <ele>322.4</ele>
        <time>2020-12-13T09:32:35Z</time>
      </trkpt>
      <trkpt lat="45.90503" lon="4.60841">
        <ele>322.4</ele>
        <time>2020-12-13T09:32:36Z</time>
      </trkpt>
      <trkpt lat="45.90505" lon="4.60839">
        <ele>322.5</ele>
        <time>2020-12-13T09:32:37Z</time>
      </trkpt>
      <trkpt lat="45.90506" lon="4.60839">
        <ele>322.6</ele>
        <time>2020-12-13T09:32:38Z</time>
      </trkpt>
      <trkpt lat="45.90508" lon="4.60838">
        <ele>322.6</ele>
        <time>2020-12-13T09:32:39Z</time>
      </trkpt>
      <trkpt lat="45.9051" lon="4.60837">
        <ele>322.7</ele>
        <time>2020-12-13T09:32:40Z</time>
      </trkpt>
      <trkpt lat="45.90511" lon="4.60836">
        <ele>322.8</ele>
        <time>2020-12-13T09:32:41Z</time>
      </trkpt>
      <trkpt lat="45.90512" lon="4.60836">
        <ele>322.8</ele>
        <time>2020-12-13T09:32:42Z</time>
      </trkpt>
      <trkpt lat="45.90514" lon="4.60835">
        <ele>322.9</ele>
        <time>2020-12-13T09:32:43Z</time>
      </trkpt>
      <trkpt lat="45.90515" lon="4.60835">
        <ele>323</ele>
        <time>2020-12-13T09:32:44Z</time>
      </trkpt>
      <trkpt lat="45.90516" lon="4.60835">
        <ele>323</ele>
        <time>2020-12-13T09:32:45Z</time>
      </trkpt>
      <trkpt lat="45.90517" lon="4.60834">
        <ele>323.1</ele>
        <time>2020-12-13T09:32:46Z</time>
      </trkpt>
      <trkpt lat="45.90519" lon="4.60833">
        <ele>323.2</ele>
        <time>2020-12-13T09:32:47Z</time>
      </trkpt>
      <trkpt lat="45.9052" lon="4.60832">
        <ele>323.3</ele>
        <time>2020-12-13T09:32:48Z</time>
      </trkpt>
      <trkpt lat="45.90521" lon="4.60832">
        <ele>323.3</ele>
        <time>2020-12-13T09:32:49Z</time>
      </trkpt>
      <trkpt lat="45.90522" lon="4.60831">
        <ele>323.4</ele>
        <time>2020-12-13T09:32:50Z</time>
      </trkpt>
      <trkpt lat="45.90523" lon="4.6083">
        <ele>323.5</ele>
        <time>2020-12-13T09:32:51Z</time>
      </trkpt>
      <trkpt lat="45.90524" lon="4.60829">
        <ele>323.5</ele>
        <time>2020-12-13T09:32:52Z</time>
      </trkpt>
      <trkpt lat="45.90526" lon="4.60828">
        <ele>323.6</ele>
        <time>2020-12-13T09:32:53Z</time>
      </trkpt>
      <trkpt lat="45.90527" lon="4.60828">
        <ele>323.7</ele>
        <time>2020-12-13T09:32:54Z</time>
      </trkpt>
      <trkpt lat="45.90528" lon="4.60827">
        <ele>323.7</ele>
        <time>2020-12-13T09:32:55Z</time>
      </trkpt>
      <trkpt lat="45.9053" lon="4.60826">
        <ele>323.9</ele>
        <time>2020-12-13T09:32:56Z</time>
      </trkpt>
      <trkpt lat="45.90531" lon="4.60825">
        <ele>323.9</ele>
        <time>2020-12-13T09:32:57Z</time>
      </trkpt>
      <trkpt lat="45.90532" lon="4.60825">
        <ele>323.9</ele>
        <time>2020-12-13T09:32:58Z</time>
      </trkpt>
      <trkpt lat="45.90533" lon="4.60824">
        <ele>324.1</ele>
        <time>2020-12-13T09:32:59Z</time>
      </trkpt>
      <trkpt lat="45.90534" lon="4.60823">
        <ele>324.1</ele>
        <time>2020-12-13T09:33:00Z</time>
      </trkpt>
      <trkpt lat="45.90535" lon="4.60823">
        <ele>324.2</ele>
        <time>2020-12-13T09:33:01Z</time>
      </trkpt>
      <trkpt lat="45.90537" lon="4.60822">
        <ele>324.3</ele>
        <time>2020-12-13T09:33:02Z</time>
      </trkpt>
      <trkpt lat="45.90538" lon="4.60822">
        <ele>324.3</ele>
        <time>2020-12-13T09:33:03Z</time>
      </trkpt>
      <trkpt lat="45.90539" lon="4.60821">
        <ele>324.4</ele>
        <time>2020-12-13T09:33:04Z</time>
      </trkpt>
      <trkpt lat="45.9054" lon="4.60821">
        <ele>324.5</ele>
        <time>2020-12-13T09:33:05Z</time>
      </trkpt>
      <trkpt lat="45.90541" lon="4.6082">
        <ele>324.5</ele>
        <time>2020-12-13T09:33:06Z</time>
      </trkpt>
      <trkpt lat="45.90542" lon="4.6082">
        <ele>324.6</ele>
        <time>2020-12-13T09:33:07Z</time>
      </trkpt>
      <trkpt lat="45.90544" lon="4.6082">
        <ele>324.7</ele>
        <time>2020-12-13T09:33:08Z</time>
      </trkpt>
      <trkpt lat="45.90546" lon="4.60819">
        <ele>324.8</ele>
        <time>2020-12-13T09:33:09Z</time>
      </trkpt>
      <trkpt lat="45.90547" lon="4.60818">
        <ele>324.9</ele>
        <time>2020-12-13T09:33:10Z</time>
      </trkpt>
      <trkpt lat="45.90548" lon="4.60818">
        <ele>325</ele>
        <time>2020-12-13T09:33:11Z</time>
      </trkpt>
      <trkpt lat="45.9055" lon="4.60818">
        <ele>325.1</ele>
        <time>2020-12-13T09:33:12Z</time>
      </trkpt>
      <trkpt lat="45.9055" lon="4.60818">
        <ele>325.1</ele>
        <time>2020-12-13T09:33:13Z</time>
      </trkpt>
      <trkpt lat="45.90552" lon="4.60817">
        <ele>325.2</ele>
        <time>2020-12-13T09:33:14Z</time>
      </trkpt>
      <trkpt lat="45.90553" lon="4.60817">
        <ele>325.3</ele>
        <time>2020-12-13T09:33:15Z</time>
      </trkpt>
      <trkpt lat="45.90554" lon="4.60817">
        <ele>325.4</ele>
        <time>2020-12-13T09:33:16Z</time>
      </trkpt>
      <trkpt lat="45.90556" lon="4.60816">
        <ele>325.5</ele>
        <time>2020-12-13T09:33:17Z</time>
      </trkpt>
      <trkpt lat="45.90557" lon="4.60816">
        <ele>325.6</ele>
        <time>2020-12-13T09:33:18Z</time>
      </trkpt>
      <trkpt lat="45.90558" lon="4.60816">
        <ele>325.6</ele>
        <time>2020-12-13T09:33:19Z</time>
      </trkpt>
      <trkpt lat="45.9056" lon="4.60815">
        <ele>325.8</ele>
        <time>2020-12-13T09:33:20Z</time>
      </trkpt>
      <trkpt lat="45.90561" lon="4.60815">
        <ele>325.8</ele>
        <time>2020-12-13T09:33:21Z</time>
      </trkpt>
      <trkpt lat="45.90562" lon="4.60815">
        <ele>325.9</ele>
        <time>2020-12-13T09:33:22Z</time>
      </trkpt>
      <trkpt lat="45.90564" lon="4.60814">
        <ele>326</ele>
        <time>2020-12-13T09:33:23Z</time>
      </trkpt>
      <trkpt lat="45.90565" lon="4.60814">
        <ele>326.1</ele>
        <time>2020-12-13T09:33:24Z</time>
      </trkpt>
      <trkpt lat="45.90566" lon="4.60814">
        <ele>326.2</ele>
        <time>2020-12-13T09:33:25Z</time>
      </trkpt>
      <trkpt lat="45.90568" lon="4.60814">
        <ele>326.3</ele>
        <time>2020-12-13T09:33:26Z</time>
      </trkpt>
      <trkpt lat="45.9057" lon="4.60814">
        <ele>326.4</ele>
        <time>2020-12-13T09:33:27Z</time>
      </trkpt>
      <trkpt lat="45.90571" lon="4.60813">
        <ele>326.5</ele>
        <time>2020-12-13T09:33:28Z</time>
      </trkpt>
      <trkpt lat="45.90572" lon="4.60813">
        <ele>326.6</ele>
        <time>2020-12-13T09:33:29Z</time>
      </trkpt>
      <trkpt lat="45.90574" lon="4.60813">
        <ele>326.7</ele>
        <time>2020-12-13T09:33:30Z</time>
      </trkpt>
      <trkpt lat="45.90575" lon="4.60812">
        <ele>326.7</ele>
        <time>2020-12-13T09:33:31Z</time>
      </trkpt>
      <trkpt lat="45.90576" lon="4.60812">
        <ele>326.8</ele>
        <time>2020-12-13T09:33:32Z</time>
      </trkpt>
      <trkpt lat="45.90577" lon="4.60812">
        <ele>326.9</ele>
        <time>2020-12-13T09:33:33Z</time>
      </trkpt>
      <trkpt lat="45.9058" lon="4.60812">
        <ele>327.1</ele>
        <time>2020-12-13T09:33:34Z</time>
      </trkpt>
      <trkpt lat="45.90581" lon="4.60812">
        <ele>327.1</ele>
        <time>2020-12-13T09:33:35Z</time>
      </trkpt>
      <trkpt lat="45.90581" lon="4.60812">
        <ele>327.2</ele>
        <time>2020-12-13T09:33:36Z</time>
      </trkpt>
      <trkpt lat="45.90582" lon="4.60812">
        <ele>327.2</ele>
        <time>2020-12-13T09:33:37Z</time>
      </trkpt>
      <trkpt lat="45.90582" lon="4.60812">
        <ele>327.2</ele>
        <time>2020-12-13T09:33:38Z</time>
      </trkpt>
      <trkpt lat="45.90582" lon="4.60812">
        <ele>327.3</ele>
        <time>2020-12-13T09:33:39Z</time>
      </trkpt>
      <trkpt lat="45.90584" lon="4.6081">
        <ele>327.4</ele>
        <time>2020-12-13T09:33:40Z</time>
      </trkpt>
      <trkpt lat="45.90586" lon="4.6081">
        <ele>327.5</ele>
        <time>2020-12-13T09:33:41Z</time>
      </trkpt>
      <trkpt lat="45.90587" lon="4.60809">
        <ele>327.6</ele>
        <time>2020-12-13T09:33:42Z</time>
      </trkpt>
      <trkpt lat="45.90588" lon="4.60809">
        <ele>327.7</ele>
        <time>2020-12-13T09:33:43Z</time>
      </trkpt>
      <trkpt lat="45.9059" lon="4.60809">
        <ele>327.8</ele>
        <time>2020-12-13T09:33:44Z</time>
      </trkpt>
      <trkpt lat="45.90591" lon="4.6081">
        <ele>327.9</ele>
        <time>2020-12-13T09:33:45Z</time>
      </trkpt>
      <trkpt lat="45.90592" lon="4.60809">
        <ele>328</ele>
        <time>2020-12-13T09:33:46Z</time>
      </trkpt>
      <trkpt lat="45.90593" lon="4.60809">
        <ele>328</ele>
        <time>2020-12-13T09:33:47Z</time>
      </trkpt>
      <trkpt lat="45.90594" lon="4.60808">
        <ele>328.1</ele>
        <time>2020-12-13T09:33:48Z</time>
      </trkpt>
      <trkpt lat="45.90595" lon="4.60808">
        <ele>328.2</ele>
        <time>2020-12-13T09:33:49Z</time>
      </trkpt>
      <trkpt lat="45.90596" lon="4.60807">
        <ele>328.3</ele>
        <time>2020-12-13T09:33:50Z</time>
      </trkpt>
      <trkpt lat="45.90598" lon="4.60806">
        <ele>328.4</ele>
        <time>2020-12-13T09:33:51Z</time>
      </trkpt>
      <trkpt lat="45.90599" lon="4.60807">
        <ele>328.5</ele>
        <time>2020-12-13T09:33:52Z</time>
      </trkpt>
      <trkpt lat="45.90601" lon="4.60806">
        <ele>328.7</ele>
        <time>2020-12-13T09:33:53Z</time>
      </trkpt>
      <trkpt lat="45.90602" lon="4.60806">
        <ele>328.7</ele>
        <time>2020-12-13T09:33:54Z</time>
      </trkpt>
      <trkpt lat="45.90603" lon="4.60806">
        <ele>328.8</ele>
        <time>2020-12-13T09:33:55Z</time>
      </trkpt>
      <trkpt lat="45.90604" lon="4.60806">
        <ele>328.9</ele>
        <time>2020-12-13T09:33:56Z</time>
      </trkpt>
      <trkpt lat="45.90606" lon="4.60805">
        <ele>329</ele>
        <time>2020-12-13T09:33:57Z</time>
      </trkpt>
      <trkpt lat="45.90608" lon="4.60805">
        <ele>329.1</ele>
        <time>2020-12-13T09:33:58Z</time>
      </trkpt>
      <trkpt lat="45.90609" lon="4.60804">
        <ele>329.2</ele>
        <time>2020-12-13T09:33:59Z</time>
      </trkpt>
      <trkpt lat="45.90612" lon="4.60804">
        <ele>329.4</ele>
        <time>2020-12-13T09:34:00Z</time>
      </trkpt>
      <trkpt lat="45.90612" lon="4.60803">
        <ele>329.4</ele>
        <time>2020-12-13T09:34:01Z</time>
      </trkpt>
      <trkpt lat="45.90613" lon="4.60803">
        <ele>329.5</ele>
        <time>2020-12-13T09:34:02Z</time>
      </trkpt>
      <trkpt lat="45.90614" lon="4.60802">
        <ele>329.6</ele>
        <time>2020-12-13T09:34:03Z</time>
      </trkpt>
      <trkpt lat="45.90615" lon="4.60802">
        <ele>329.6</ele>
        <time>2020-12-13T09:34:04Z</time>
      </trkpt>
      <trkpt lat="45.90616" lon="4.60802">
        <ele>329.7</ele>
        <time>2020-12-13T09:34:05Z</time>
      </trkpt>
      <trkpt lat="45.90617" lon="4.60801">
        <ele>329.8</ele>
        <time>2020-12-13T09:34:06Z</time>
      </trkpt>
      <trkpt lat="45.90619" lon="4.60801">
        <ele>329.9</ele>
        <time>2020-12-13T09:34:07Z</time>
      </trkpt>
      <trkpt lat="45.9062" lon="4.60801">
        <ele>330</ele>
        <time>2020-12-13T09:34:08Z</time>
      </trkpt>
      <trkpt lat="45.90621" lon="4.60801">
        <ele>330</ele>
        <time>2020-12-13T09:34:09Z</time>
      </trkpt>
      <trkpt lat="45.90622" lon="4.60801">
        <ele>330.1</ele>
        <time>2020-12-13T09:34:10Z</time>
      </trkpt>
      <trkpt lat="45.90623" lon="4.608">
        <ele>330.2</ele>
        <time>2020-12-13T09:34:11Z</time>
      </trkpt>
      <trkpt lat="45.90625" lon="4.608">
        <ele>330.3</ele>
        <time>2020-12-13T09:34:12Z</time>
      </trkpt>
      <trkpt lat="45.90627" lon="4.608">
        <ele>330.4</ele>
        <time>2020-12-13T09:34:13Z</time>
      </trkpt>
      <trkpt lat="45.90628" lon="4.60799">
        <ele>330.6</ele>
        <time>2020-12-13T09:34:14Z</time>
      </trkpt>
      <trkpt lat="45.9063" lon="4.60798">
        <ele>330.7</ele>
        <time>2020-12-13T09:34:15Z</time>
      </trkpt>
      <trkpt lat="45.90631" lon="4.60798">
        <ele>330.8</ele>
        <time>2020-12-13T09:34:16Z</time>
      </trkpt>
      <trkpt lat="45.90633" lon="4.60797">
        <ele>330.9</ele>
        <time>2020-12-13T09:34:17Z</time>
      </trkpt>
      <trkpt lat="45.90634" lon="4.60797">
        <ele>331</ele>
        <time>2020-12-13T09:34:18Z</time>
      </trkpt>
      <trkpt lat="45.90635" lon="4.60797">
        <ele>331</ele>
        <time>2020-12-13T09:34:19Z</time>
      </trkpt>
      <trkpt lat="45.90636" lon="4.60797">
        <ele>331.2</ele>
        <time>2020-12-13T09:34:20Z</time>
      </trkpt>
      <trkpt lat="45.90637" lon="4.60796">
        <ele>331.2</ele>
        <time>2020-12-13T09:34:21Z</time>
      </trkpt>
      <trkpt lat="45.90638" lon="4.60796">
        <ele>331.3</ele>
        <time>2020-12-13T09:34:22Z</time>
      </trkpt>
      <trkpt lat="45.90639" lon="4.60796">
        <ele>331.4</ele>
        <time>2020-12-13T09:34:23Z</time>
      </trkpt>
      <trkpt lat="45.9064" lon="4.60796">
        <ele>331.5</ele>
        <time>2020-12-13T09:34:24Z</time>
      </trkpt>
      <trkpt lat="45.90641" lon="4.60795">
        <ele>331.5</ele>
        <time>2020-12-13T09:34:25Z</time>
      </trkpt>
      <trkpt lat="45.90642" lon="4.60795">
        <ele>331.6</ele>
        <time>2020-12-13T09:34:26Z</time>
      </trkpt>
      <trkpt lat="45.90643" lon="4.60794">
        <ele>331.7</ele>
        <time>2020-12-13T09:34:27Z</time>
      </trkpt>
      <trkpt lat="45.90645" lon="4.60794">
        <ele>331.8</ele>
        <time>2020-12-13T09:34:28Z</time>
      </trkpt>
      <trkpt lat="45.90647" lon="4.60793">
        <ele>332</ele>
        <time>2020-12-13T09:34:29Z</time>
      </trkpt>
      <trkpt lat="45.90648" lon="4.60793">
        <ele>332</ele>
        <time>2020-12-13T09:34:30Z</time>
      </trkpt>
      <trkpt lat="45.90648" lon="4.60793">
        <ele>332.1</ele>
        <time>2020-12-13T09:34:31Z</time>
      </trkpt>
      <trkpt lat="45.90649" lon="4.60792">
        <ele>332.1</ele>
        <time>2020-12-13T09:34:32Z</time>
      </trkpt>
      <trkpt lat="45.9065" lon="4.60792">
        <ele>332.2</ele>
        <time>2020-12-13T09:34:33Z</time>
      </trkpt>
      <trkpt lat="45.90652" lon="4.60791">
        <ele>332.4</ele>
        <time>2020-12-13T09:34:34Z</time>
      </trkpt>
      <trkpt lat="45.90654" lon="4.60791">
        <ele>332.6</ele>
        <time>2020-12-13T09:34:35Z</time>
      </trkpt>
      <trkpt lat="45.90655" lon="4.60791">
        <ele>332.7</ele>
        <time>2020-12-13T09:34:36Z</time>
      </trkpt>
      <trkpt lat="45.90656" lon="4.60791">
        <ele>332.7</ele>
        <time>2020-12-13T09:34:37Z</time>
      </trkpt>
      <trkpt lat="45.90658" lon="4.6079">
        <ele>332.9</ele>
        <time>2020-12-13T09:34:38Z</time>
      </trkpt>
      <trkpt lat="45.90658" lon="4.60789">
        <ele>333</ele>
        <time>2020-12-13T09:34:39Z</time>
      </trkpt>
      <trkpt lat="45.90659" lon="4.60789">
        <ele>333</ele>
        <time>2020-12-13T09:34:40Z</time>
      </trkpt>
      <trkpt lat="45.90661" lon="4.60789">
        <ele>333.1</ele>
        <time>2020-12-13T09:34:41Z</time>
      </trkpt>
      <trkpt lat="45.90662" lon="4.60789">
        <ele>333.3</ele>
        <time>2020-12-13T09:34:42Z</time>
      </trkpt>
      <trkpt lat="45.90663" lon="4.60788">
        <ele>333.4</ele>
        <time>2020-12-13T09:34:43Z</time>
      </trkpt>
      <trkpt lat="45.90665" lon="4.60788">
        <ele>333.5</ele>
        <time>2020-12-13T09:34:44Z</time>
      </trkpt>
      <trkpt lat="45.90665" lon="4.60788">
        <ele>333.6</ele>
        <time>2020-12-13T09:34:45Z</time>
      </trkpt>
      <trkpt lat="45.90667" lon="4.60788">
        <ele>333.7</ele>
        <time>2020-12-13T09:34:46Z</time>
      </trkpt>
      <trkpt lat="45.90668" lon="4.60787">
        <ele>333.8</ele>
        <time>2020-12-13T09:34:47Z</time>
      </trkpt>
      <trkpt lat="45.90669" lon="4.60787">
        <ele>333.9</ele>
        <time>2020-12-13T09:34:48Z</time>
      </trkpt>
      <trkpt lat="45.9067" lon="4.60787">
        <ele>334</ele>
        <time>2020-12-13T09:34:49Z</time>
      </trkpt>
      <trkpt lat="45.90672" lon="4.60787">
        <ele>334.1</ele>
        <time>2020-12-13T09:34:50Z</time>
      </trkpt>
      <trkpt lat="45.90673" lon="4.60787">
        <ele>334.2</ele>
        <time>2020-12-13T09:34:51Z</time>
      </trkpt>
      <trkpt lat="45.90674" lon="4.60787">
        <ele>334.4</ele>
        <time>2020-12-13T09:34:52Z</time>
      </trkpt>
      <trkpt lat="45.90676" lon="4.60787">
        <ele>334.5</ele>
        <time>2020-12-13T09:34:53Z</time>
      </trkpt>
      <trkpt lat="45.90677" lon="4.60786">
        <ele>334.7</ele>
        <time>2020-12-13T09:34:54Z</time>
      </trkpt>
      <trkpt lat="45.90678" lon="4.60785">
        <ele>334.7</ele>
        <time>2020-12-13T09:34:55Z</time>
      </trkpt>
      <trkpt lat="45.90679" lon="4.60785">
        <ele>334.8</ele>
        <time>2020-12-13T09:34:56Z</time>
      </trkpt>
      <trkpt lat="45.9068" lon="4.60785">
        <ele>335</ele>
        <time>2020-12-13T09:34:57Z</time>
      </trkpt>
      <trkpt lat="45.90682" lon="4.60784">
        <ele>335.1</ele>
        <time>2020-12-13T09:34:58Z</time>
      </trkpt>
      <trkpt lat="45.90685" lon="4.60784">
        <ele>335.4</ele>
        <time>2020-12-13T09:34:59Z</time>
      </trkpt>
      <trkpt lat="45.90685" lon="4.60784">
        <ele>335.4</ele>
        <time>2020-12-13T09:35:00Z</time>
      </trkpt>
      <trkpt lat="45.90686" lon="4.60784">
        <ele>335.5</ele>
        <time>2020-12-13T09:35:01Z</time>
      </trkpt>
      <trkpt lat="45.90688" lon="4.60783">
        <ele>335.7</ele>
        <time>2020-12-13T09:35:02Z</time>
      </trkpt>
      <trkpt lat="45.90689" lon="4.60783">
        <ele>335.8</ele>
        <time>2020-12-13T09:35:03Z</time>
      </trkpt>
      <trkpt lat="45.9069" lon="4.60782">
        <ele>335.9</ele>
        <time>2020-12-13T09:35:04Z</time>
      </trkpt>
      <trkpt lat="45.90691" lon="4.60782">
        <ele>336</ele>
        <time>2020-12-13T09:35:05Z</time>
      </trkpt>
      <trkpt lat="45.90692" lon="4.60781">
        <ele>336.1</ele>
        <time>2020-12-13T09:35:06Z</time>
      </trkpt>
      <trkpt lat="45.90693" lon="4.60781">
        <ele>336.2</ele>
        <time>2020-12-13T09:35:07Z</time>
      </trkpt>
      <trkpt lat="45.90695" lon="4.6078">
        <ele>336.4</ele>
        <time>2020-12-13T09:35:08Z</time>
      </trkpt>
      <trkpt lat="45.90696" lon="4.60779">
        <ele>336.5</ele>
        <time>2020-12-13T09:35:09Z</time>
      </trkpt>
      <trkpt lat="45.90697" lon="4.60779">
        <ele>336.6</ele>
        <time>2020-12-13T09:35:10Z</time>
      </trkpt>
      <trkpt lat="45.90699" lon="4.60778">
        <ele>336.7</ele>
        <time>2020-12-13T09:35:11Z</time>
      </trkpt>
      <trkpt lat="45.90699" lon="4.60777">
        <ele>336.8</ele>
        <time>2020-12-13T09:35:12Z</time>
      </trkpt>
      <trkpt lat="45.907" lon="4.60777">
        <ele>336.9</ele>
        <time>2020-12-13T09:35:13Z</time>
      </trkpt>
      <trkpt lat="45.90702" lon="4.60776">
        <ele>337</ele>
        <time>2020-12-13T09:35:14Z</time>
      </trkpt>
      <trkpt lat="45.90703" lon="4.60777">
        <ele>337.1</ele>
        <time>2020-12-13T09:35:15Z</time>
      </trkpt>
      <trkpt lat="45.90704" lon="4.60776">
        <ele>337.3</ele>
        <time>2020-12-13T09:35:16Z</time>
      </trkpt>
      <trkpt lat="45.90705" lon="4.60776">
        <ele>337.3</ele>
        <time>2020-12-13T09:35:17Z</time>
      </trkpt>
      <trkpt lat="45.90706" lon="4.60775">
        <ele>337.5</ele>
        <time>2020-12-13T09:35:18Z</time>
      </trkpt>
      <trkpt lat="45.90708" lon="4.60775">
        <ele>337.6</ele>
        <time>2020-12-13T09:35:19Z</time>
      </trkpt>
      <trkpt lat="45.90709" lon="4.60774">
        <ele>337.7</ele>
        <time>2020-12-13T09:35:20Z</time>
      </trkpt>
      <trkpt lat="45.9071" lon="4.60774">
        <ele>337.8</ele>
        <time>2020-12-13T09:35:21Z</time>
      </trkpt>
      <trkpt lat="45.90711" lon="4.60773">
        <ele>337.9</ele>
        <time>2020-12-13T09:35:22Z</time>
      </trkpt>
      <trkpt lat="45.90713" lon="4.60773">
        <ele>338</ele>
        <time>2020-12-13T09:35:23Z</time>
      </trkpt>
      <trkpt lat="45.90714" lon="4.60773">
        <ele>338.1</ele>
        <time>2020-12-13T09:35:24Z</time>
      </trkpt>
      <trkpt lat="45.90715" lon="4.60772">
        <ele>338.2</ele>
        <time>2020-12-13T09:35:25Z</time>
      </trkpt>
      <trkpt lat="45.90716" lon="4.60772">
        <ele>338.3</ele>
        <time>2020-12-13T09:35:26Z</time>
      </trkpt>
      <trkpt lat="45.90717" lon="4.60771">
        <ele>338.4</ele>
        <time>2020-12-13T09:35:27Z</time>
      </trkpt>
      <trkpt lat="45.90718" lon="4.60771">
        <ele>338.5</ele>
        <time>2020-12-13T09:35:28Z</time>
      </trkpt>
      <trkpt lat="45.90719" lon="4.6077">
        <ele>338.6</ele>
        <time>2020-12-13T09:35:29Z</time>
      </trkpt>
      <trkpt lat="45.90721" lon="4.6077">
        <ele>338.8</ele>
        <time>2020-12-13T09:35:30Z</time>
      </trkpt>
      <trkpt lat="45.90721" lon="4.60769">
        <ele>338.8</ele>
        <time>2020-12-13T09:35:31Z</time>
      </trkpt>
      <trkpt lat="45.90722" lon="4.60769">
        <ele>338.9</ele>
        <time>2020-12-13T09:35:32Z</time>
      </trkpt>
      <trkpt lat="45.90724" lon="4.60768">
        <ele>339.1</ele>
        <time>2020-12-13T09:35:33Z</time>
      </trkpt>
      <trkpt lat="45.90725" lon="4.60767">
        <ele>339.2</ele>
        <time>2020-12-13T09:35:34Z</time>
      </trkpt>
      <trkpt lat="45.90726" lon="4.60767">
        <ele>339.3</ele>
        <time>2020-12-13T09:35:35Z</time>
      </trkpt>
      <trkpt lat="45.90727" lon="4.60767">
        <ele>339.4</ele>
        <time>2020-12-13T09:35:36Z</time>
      </trkpt>
      <trkpt lat="45.90728" lon="4.60767">
        <ele>339.5</ele>
        <time>2020-12-13T09:35:37Z</time>
      </trkpt>
      <trkpt lat="45.9073" lon="4.60766">
        <ele>339.7</ele>
        <time>2020-12-13T09:35:38Z</time>
      </trkpt>
      <trkpt lat="45.90731" lon="4.60766">
        <ele>339.8</ele>
        <time>2020-12-13T09:35:39Z</time>
      </trkpt>
      <trkpt lat="45.90732" lon="4.60765">
        <ele>339.8</ele>
        <time>2020-12-13T09:35:40Z</time>
      </trkpt>
      <trkpt lat="45.90733" lon="4.60765">
        <ele>339.9</ele>
        <time>2020-12-13T09:35:41Z</time>
      </trkpt>
      <trkpt lat="45.90734" lon="4.60765">
        <ele>340</ele>
        <time>2020-12-13T09:35:42Z</time>
      </trkpt>
      <trkpt lat="45.90735" lon="4.60764">
        <ele>340.1</ele>
        <time>2020-12-13T09:35:43Z</time>
      </trkpt>
      <trkpt lat="45.90736" lon="4.60764">
        <ele>340.2</ele>
        <time>2020-12-13T09:35:44Z</time>
      </trkpt>
      <trkpt lat="45.90738" lon="4.60763">
        <ele>340.4</ele>
        <time>2020-12-13T09:35:45Z</time>
      </trkpt>
      <trkpt lat="45.90739" lon="4.60763">
        <ele>340.5</ele>
        <time>2020-12-13T09:35:46Z</time>
      </trkpt>
      <trkpt lat="45.9074" lon="4.60762">
        <ele>340.6</ele>
        <time>2020-12-13T09:35:47Z</time>
      </trkpt>
      <trkpt lat="45.90741" lon="4.60762">
        <ele>340.7</ele>
        <time>2020-12-13T09:35:48Z</time>
      </trkpt>
      <trkpt lat="45.90743" lon="4.60761">
        <ele>340.8</ele>
        <time>2020-12-13T09:35:49Z</time>
      </trkpt>
      <trkpt lat="45.90744" lon="4.60761">
        <ele>340.9</ele>
        <time>2020-12-13T09:35:50Z</time>
      </trkpt>
      <trkpt lat="45.90746" lon="4.6076">
        <ele>341</ele>
        <time>2020-12-13T09:35:51Z</time>
      </trkpt>
      <trkpt lat="45.90747" lon="4.6076">
        <ele>341.1</ele>
        <time>2020-12-13T09:35:52Z</time>
      </trkpt>
      <trkpt lat="45.90747" lon="4.6076">
        <ele>341.2</ele>
        <time>2020-12-13T09:35:53Z</time>
      </trkpt>
      <trkpt lat="45.90748" lon="4.60759">
        <ele>341.3</ele>
        <time>2020-12-13T09:35:54Z</time>
      </trkpt>
      <trkpt lat="45.9075" lon="4.60759">
        <ele>341.4</ele>
        <time>2020-12-13T09:35:55Z</time>
      </trkpt>
      <trkpt lat="45.90752" lon="4.60759">
        <ele>341.6</ele>
        <time>2020-12-13T09:35:56Z</time>
      </trkpt>
      <trkpt lat="45.90754" lon="4.60759">
        <ele>341.7</ele>
        <time>2020-12-13T09:35:57Z</time>
      </trkpt>
      <trkpt lat="45.90755" lon="4.60758">
        <ele>341.8</ele>
        <time>2020-12-13T09:35:58Z</time>
      </trkpt>
      <trkpt lat="45.90756" lon="4.60758">
        <ele>341.9</ele>
        <time>2020-12-13T09:35:59Z</time>
      </trkpt>
      <trkpt lat="45.90758" lon="4.60758">
        <ele>342.1</ele>
        <time>2020-12-13T09:36:00Z</time>
      </trkpt>
      <trkpt lat="45.90758" lon="4.60757">
        <ele>342.1</ele>
        <time>2020-12-13T09:36:01Z</time>
      </trkpt>
      <trkpt lat="45.90759" lon="4.60757">
        <ele>342.2</ele>
        <time>2020-12-13T09:36:02Z</time>
      </trkpt>
      <trkpt lat="45.9076" lon="4.60756">
        <ele>342.2</ele>
        <time>2020-12-13T09:36:03Z</time>
      </trkpt>
      <trkpt lat="45.9076" lon="4.60756">
        <ele>342.2</ele>
        <time>2020-12-13T09:36:04Z</time>
      </trkpt>
      <trkpt lat="45.90761" lon="4.60755">
        <ele>342.3</ele>
        <time>2020-12-13T09:36:05Z</time>
      </trkpt>
      <trkpt lat="45.90761" lon="4.60755">
        <ele>342.3</ele>
        <time>2020-12-13T09:36:06Z</time>
      </trkpt>
      <trkpt lat="45.90763" lon="4.60755">
        <ele>342.4</ele>
        <time>2020-12-13T09:36:07Z</time>
      </trkpt>
      <trkpt lat="45.90764" lon="4.60754">
        <ele>342.5</ele>
        <time>2020-12-13T09:36:08Z</time>
      </trkpt>
      <trkpt lat="45.90766" lon="4.60754">
        <ele>342.5</ele>
        <time>2020-12-13T09:36:09Z</time>
      </trkpt>
      <trkpt lat="45.90767" lon="4.60754">
        <ele>342.6</ele>
        <time>2020-12-13T09:36:10Z</time>
      </trkpt>
      <trkpt lat="45.90768" lon="4.60753">
        <ele>342.7</ele>
        <time>2020-12-13T09:36:11Z</time>
      </trkpt>
      <trkpt lat="45.90769" lon="4.60753">
        <ele>342.7</ele>
        <time>2020-12-13T09:36:12Z</time>
      </trkpt>
      <trkpt lat="45.90771" lon="4.60752">
        <ele>342.8</ele>
        <time>2020-12-13T09:36:13Z</time>
      </trkpt>
      <trkpt lat="45.90772" lon="4.60752">
        <ele>342.9</ele>
        <time>2020-12-13T09:36:14Z</time>
      </trkpt>
      <trkpt lat="45.90774" lon="4.60752">
        <ele>342.9</ele>
        <time>2020-12-13T09:36:15Z</time>
      </trkpt>
      <trkpt lat="45.90775" lon="4.60752">
        <ele>343</ele>
        <time>2020-12-13T09:36:16Z</time>
      </trkpt>
      <trkpt lat="45.90777" lon="4.60751">
        <ele>343.1</ele>
        <time>2020-12-13T09:36:17Z</time>
      </trkpt>
      <trkpt lat="45.90778" lon="4.60751">
        <ele>343.2</ele>
        <time>2020-12-13T09:36:18Z</time>
      </trkpt>
      <trkpt lat="45.90778" lon="4.60751">
        <ele>343.2</ele>
        <time>2020-12-13T09:36:19Z</time>
      </trkpt>
      <trkpt lat="45.9078" lon="4.60751">
        <ele>343.3</ele>
        <time>2020-12-13T09:36:20Z</time>
      </trkpt>
      <trkpt lat="45.9078" lon="4.60751">
        <ele>343.3</ele>
        <time>2020-12-13T09:36:21Z</time>
      </trkpt>
      <trkpt lat="45.90782" lon="4.6075">
        <ele>343.4</ele>
        <time>2020-12-13T09:36:22Z</time>
      </trkpt>
      <trkpt lat="45.90783" lon="4.60749">
        <ele>343.4</ele>
        <time>2020-12-13T09:36:23Z</time>
      </trkpt>
      <trkpt lat="45.90785" lon="4.60749">
        <ele>343.5</ele>
        <time>2020-12-13T09:36:24Z</time>
      </trkpt>
      <trkpt lat="45.90787" lon="4.60749">
        <ele>343.6</ele>
        <time>2020-12-13T09:36:25Z</time>
      </trkpt>
      <trkpt lat="45.90788" lon="4.60748">
        <ele>343.7</ele>
        <time>2020-12-13T09:36:26Z</time>
      </trkpt>
      <trkpt lat="45.90788" lon="4.60748">
        <ele>343.7</ele>
        <time>2020-12-13T09:36:27Z</time>
      </trkpt>
      <trkpt lat="45.90789" lon="4.60748">
        <ele>343.8</ele>
        <time>2020-12-13T09:36:28Z</time>
      </trkpt>
      <trkpt lat="45.90791" lon="4.60747">
        <ele>343.9</ele>
        <time>2020-12-13T09:36:29Z</time>
      </trkpt>
      <trkpt lat="45.90792" lon="4.60747">
        <ele>343.9</ele>
        <time>2020-12-13T09:36:30Z</time>
      </trkpt>
      <trkpt lat="45.90794" lon="4.60745">
        <ele>344</ele>
        <time>2020-12-13T09:36:31Z</time>
      </trkpt>
      <trkpt lat="45.90795" lon="4.60745">
        <ele>344.1</ele>
        <time>2020-12-13T09:36:32Z</time>
      </trkpt>
      <trkpt lat="45.90796" lon="4.60745">
        <ele>344.2</ele>
        <time>2020-12-13T09:36:33Z</time>
      </trkpt>
      <trkpt lat="45.90796" lon="4.60744">
        <ele>344.2</ele>
        <time>2020-12-13T09:36:34Z</time>
      </trkpt>
      <trkpt lat="45.90797" lon="4.60744">
        <ele>344.3</ele>
        <time>2020-12-13T09:36:35Z</time>
      </trkpt>
      <trkpt lat="45.90798" lon="4.60743">
        <ele>344.3</ele>
        <time>2020-12-13T09:36:36Z</time>
      </trkpt>
      <trkpt lat="45.90799" lon="4.60743">
        <ele>344.4</ele>
        <time>2020-12-13T09:36:38Z</time>
      </trkpt>
      <trkpt lat="45.90799" lon="4.60743">
        <ele>344.4</ele>
        <time>2020-12-13T09:36:39Z</time>
      </trkpt>
      <trkpt lat="45.908" lon="4.60742">
        <ele>344.4</ele>
        <time>2020-12-13T09:36:40Z</time>
      </trkpt>
      <trkpt lat="45.90802" lon="4.60742">
        <ele>344.5</ele>
        <time>2020-12-13T09:36:41Z</time>
      </trkpt>
      <trkpt lat="45.90802" lon="4.60741">
        <ele>344.6</ele>
        <time>2020-12-13T09:36:42Z</time>
      </trkpt>
      <trkpt lat="45.90804" lon="4.60741">
        <ele>344.7</ele>
        <time>2020-12-13T09:36:43Z</time>
      </trkpt>
      <trkpt lat="45.90806" lon="4.6074">
        <ele>344.8</ele>
        <time>2020-12-13T09:36:44Z</time>
      </trkpt>
      <trkpt lat="45.90806" lon="4.6074">
        <ele>344.8</ele>
        <time>2020-12-13T09:36:45Z</time>
      </trkpt>
      <trkpt lat="45.90807" lon="4.60739">
        <ele>344.8</ele>
        <time>2020-12-13T09:36:46Z</time>
      </trkpt>
      <trkpt lat="45.90808" lon="4.60738">
        <ele>344.9</ele>
        <time>2020-12-13T09:36:47Z</time>
      </trkpt>
      <trkpt lat="45.9081" lon="4.60738">
        <ele>345</ele>
        <time>2020-12-13T09:36:48Z</time>
      </trkpt>
      <trkpt lat="45.90812" lon="4.60737">
        <ele>345.1</ele>
        <time>2020-12-13T09:36:50Z</time>
      </trkpt>
      <trkpt lat="45.90814" lon="4.60735">
        <ele>345.3</ele>
        <time>2020-12-13T09:36:51Z</time>
      </trkpt>
      <trkpt lat="45.90815" lon="4.60734">
        <ele>345.3</ele>
        <time>2020-12-13T09:36:52Z</time>
      </trkpt>
      <trkpt lat="45.90816" lon="4.60733">
        <ele>345.4</ele>
        <time>2020-12-13T09:36:53Z</time>
      </trkpt>
      <trkpt lat="45.90818" lon="4.60732">
        <ele>345.5</ele>
        <time>2020-12-13T09:36:54Z</time>
      </trkpt>
      <trkpt lat="45.90819" lon="4.60732">
        <ele>345.6</ele>
        <time>2020-12-13T09:36:55Z</time>
      </trkpt>
      <trkpt lat="45.9082" lon="4.60731">
        <ele>345.6</ele>
        <time>2020-12-13T09:36:56Z</time>
      </trkpt>
      <trkpt lat="45.90822" lon="4.6073">
        <ele>345.7</ele>
        <time>2020-12-13T09:36:57Z</time>
      </trkpt>
      <trkpt lat="45.90823" lon="4.6073">
        <ele>345.8</ele>
        <time>2020-12-13T09:36:58Z</time>
      </trkpt>
      <trkpt lat="45.90824" lon="4.60729">
        <ele>345.8</ele>
        <time>2020-12-13T09:36:59Z</time>
      </trkpt>
      <trkpt lat="45.90826" lon="4.60729">
        <ele>345.9</ele>
        <time>2020-12-13T09:37:00Z</time>
      </trkpt>
      <trkpt lat="45.90827" lon="4.60728">
        <ele>346</ele>
        <time>2020-12-13T09:37:01Z</time>
      </trkpt>
      <trkpt lat="45.90828" lon="4.60728">
        <ele>346</ele>
        <time>2020-12-13T09:37:02Z</time>
      </trkpt>
      <trkpt lat="45.90829" lon="4.60727">
        <ele>346.1</ele>
        <time>2020-12-13T09:37:03Z</time>
      </trkpt>
      <trkpt lat="45.9083" lon="4.60727">
        <ele>346.1</ele>
        <time>2020-12-13T09:37:04Z</time>
      </trkpt>
      <trkpt lat="45.90831" lon="4.60727">
        <ele>346.2</ele>
        <time>2020-12-13T09:37:05Z</time>
      </trkpt>
      <trkpt lat="45.90832" lon="4.60727">
        <ele>346.3</ele>
        <time>2020-12-13T09:37:06Z</time>
      </trkpt>
      <trkpt lat="45.90833" lon="4.60726">
        <ele>346.3</ele>
        <time>2020-12-13T09:37:07Z</time>
      </trkpt>
      <trkpt lat="45.90835" lon="4.60725">
        <ele>346.4</ele>
        <time>2020-12-13T09:37:08Z</time>
      </trkpt>
      <trkpt lat="45.90836" lon="4.60725">
        <ele>346.5</ele>
        <time>2020-12-13T09:37:09Z</time>
      </trkpt>
      <trkpt lat="45.90838" lon="4.60726">
        <ele>346.6</ele>
        <time>2020-12-13T09:37:10Z</time>
      </trkpt>
      <trkpt lat="45.9084" lon="4.60726">
        <ele>346.7</ele>
        <time>2020-12-13T09:37:11Z</time>
      </trkpt>
      <trkpt lat="45.9084" lon="4.60725">
        <ele>346.7</ele>
        <time>2020-12-13T09:37:12Z</time>
      </trkpt>
      <trkpt lat="45.90841" lon="4.60725">
        <ele>346.7</ele>
        <time>2020-12-13T09:37:13Z</time>
      </trkpt>
      <trkpt lat="45.90842" lon="4.60725">
        <ele>346.8</ele>
        <time>2020-12-13T09:37:14Z</time>
      </trkpt>
      <trkpt lat="45.90844" lon="4.60724">
        <ele>346.9</ele>
        <time>2020-12-13T09:37:15Z</time>
      </trkpt>
      <trkpt lat="45.90846" lon="4.60724">
        <ele>347</ele>
        <time>2020-12-13T09:37:16Z</time>
      </trkpt>
      <trkpt lat="45.90847" lon="4.60723">
        <ele>347.1</ele>
        <time>2020-12-13T09:37:17Z</time>
      </trkpt>
      <trkpt lat="45.90848" lon="4.60723">
        <ele>347.1</ele>
        <time>2020-12-13T09:37:18Z</time>
      </trkpt>
      <trkpt lat="45.90849" lon="4.60723">
        <ele>347.2</ele>
        <time>2020-12-13T09:37:19Z</time>
      </trkpt>
      <trkpt lat="45.90851" lon="4.60722">
        <ele>347.3</ele>
        <time>2020-12-13T09:37:20Z</time>
      </trkpt>
      <trkpt lat="45.90852" lon="4.60722">
        <ele>347.4</ele>
        <time>2020-12-13T09:37:21Z</time>
      </trkpt>
      <trkpt lat="45.90853" lon="4.60722">
        <ele>347.4</ele>
        <time>2020-12-13T09:37:22Z</time>
      </trkpt>
      <trkpt lat="45.90853" lon="4.60721">
        <ele>347.4</ele>
        <time>2020-12-13T09:37:23Z</time>
      </trkpt>
      <trkpt lat="45.90853" lon="4.60721">
        <ele>347.4</ele>
        <time>2020-12-13T09:37:24Z</time>
      </trkpt>
      <trkpt lat="45.90855" lon="4.60721">
        <ele>347.5</ele>
        <time>2020-12-13T09:37:25Z</time>
      </trkpt>
      <trkpt lat="45.90856" lon="4.60721">
        <ele>347.6</ele>
        <time>2020-12-13T09:37:26Z</time>
      </trkpt>
      <trkpt lat="45.90856" lon="4.6072">
        <ele>347.6</ele>
        <time>2020-12-13T09:37:27Z</time>
      </trkpt>
      <trkpt lat="45.90859" lon="4.6072">
        <ele>347.8</ele>
        <time>2020-12-13T09:37:28Z</time>
      </trkpt>
      <trkpt lat="45.90862" lon="4.60719">
        <ele>347.9</ele>
        <time>2020-12-13T09:37:29Z</time>
      </trkpt>
      <trkpt lat="45.90863" lon="4.60718">
        <ele>348</ele>
        <time>2020-12-13T09:37:30Z</time>
      </trkpt>
      <trkpt lat="45.90864" lon="4.60718">
        <ele>348.1</ele>
        <time>2020-12-13T09:37:31Z</time>
      </trkpt>
      <trkpt lat="45.90865" lon="4.60718">
        <ele>348.1</ele>
        <time>2020-12-13T09:37:32Z</time>
      </trkpt>
      <trkpt lat="45.90867" lon="4.60718">
        <ele>348.2</ele>
        <time>2020-12-13T09:37:33Z</time>
      </trkpt>
      <trkpt lat="45.90868" lon="4.60718">
        <ele>348.2</ele>
        <time>2020-12-13T09:37:34Z</time>
      </trkpt>
      <trkpt lat="45.90869" lon="4.60716">
        <ele>348.4</ele>
        <time>2020-12-13T09:37:35Z</time>
      </trkpt>
      <trkpt lat="45.9087" lon="4.60715">
        <ele>348.4</ele>
        <time>2020-12-13T09:37:36Z</time>
      </trkpt>
      <trkpt lat="45.90871" lon="4.60715">
        <ele>348.5</ele>
        <time>2020-12-13T09:37:37Z</time>
      </trkpt>
      <trkpt lat="45.90873" lon="4.60715">
        <ele>348.6</ele>
        <time>2020-12-13T09:37:38Z</time>
      </trkpt>
      <trkpt lat="45.90874" lon="4.60715">
        <ele>348.6</ele>
        <time>2020-12-13T09:37:39Z</time>
      </trkpt>
      <trkpt lat="45.90876" lon="4.60716">
        <ele>348.7</ele>
        <time>2020-12-13T09:37:40Z</time>
      </trkpt>
      <trkpt lat="45.90877" lon="4.60715">
        <ele>348.8</ele>
        <time>2020-12-13T09:37:41Z</time>
      </trkpt>
      <trkpt lat="45.90878" lon="4.60715">
        <ele>348.9</ele>
        <time>2020-12-13T09:37:42Z</time>
      </trkpt>
      <trkpt lat="45.90879" lon="4.60714">
        <ele>348.9</ele>
        <time>2020-12-13T09:37:43Z</time>
      </trkpt>
      <trkpt lat="45.9088" lon="4.60713">
        <ele>349</ele>
        <time>2020-12-13T09:37:44Z</time>
      </trkpt>
      <trkpt lat="45.90881" lon="4.60713">
        <ele>349</ele>
        <time>2020-12-13T09:37:45Z</time>
      </trkpt>
      <trkpt lat="45.90883" lon="4.60712">
        <ele>349.1</ele>
        <time>2020-12-13T09:37:46Z</time>
      </trkpt>
      <trkpt lat="45.90885" lon="4.60712">
        <ele>349.3</ele>
        <time>2020-12-13T09:37:47Z</time>
      </trkpt>
      <trkpt lat="45.90886" lon="4.60711">
        <ele>349.3</ele>
        <time>2020-12-13T09:37:48Z</time>
      </trkpt>
      <trkpt lat="45.90887" lon="4.60711">
        <ele>349.3</ele>
        <time>2020-12-13T09:37:49Z</time>
      </trkpt>
      <trkpt lat="45.90889" lon="4.6071">
        <ele>349.5</ele>
        <time>2020-12-13T09:37:50Z</time>
      </trkpt>
      <trkpt lat="45.9089" lon="4.6071">
        <ele>349.5</ele>
        <time>2020-12-13T09:37:51Z</time>
      </trkpt>
      <trkpt lat="45.90891" lon="4.6071">
        <ele>349.6</ele>
        <time>2020-12-13T09:37:52Z</time>
      </trkpt>
      <trkpt lat="45.90892" lon="4.6071">
        <ele>349.6</ele>
        <time>2020-12-13T09:37:53Z</time>
      </trkpt>
      <trkpt lat="45.90894" lon="4.60709">
        <ele>349.7</ele>
        <time>2020-12-13T09:37:54Z</time>
      </trkpt>
      <trkpt lat="45.90895" lon="4.60709">
        <ele>349.8</ele>
        <time>2020-12-13T09:37:55Z</time>
      </trkpt>
      <trkpt lat="45.90896" lon="4.60709">
        <ele>349.9</ele>
        <time>2020-12-13T09:37:56Z</time>
      </trkpt>
      <trkpt lat="45.90898" lon="4.60708">
        <ele>349.9</ele>
        <time>2020-12-13T09:37:57Z</time>
      </trkpt>
      <trkpt lat="45.90899" lon="4.60708">
        <ele>350</ele>
        <time>2020-12-13T09:37:58Z</time>
      </trkpt>
      <trkpt lat="45.909" lon="4.60707">
        <ele>350.1</ele>
        <time>2020-12-13T09:37:59Z</time>
      </trkpt>
      <trkpt lat="45.90901" lon="4.60706">
        <ele>350.1</ele>
        <time>2020-12-13T09:38:00Z</time>
      </trkpt>
      <trkpt lat="45.90903" lon="4.60706">
        <ele>350.2</ele>
        <time>2020-12-13T09:38:01Z</time>
      </trkpt>
      <trkpt lat="45.90904" lon="4.60705">
        <ele>350.3</ele>
        <time>2020-12-13T09:38:02Z</time>
      </trkpt>
      <trkpt lat="45.90906" lon="4.60704">
        <ele>350.4</ele>
        <time>2020-12-13T09:38:03Z</time>
      </trkpt>
      <trkpt lat="45.90906" lon="4.60703">
        <ele>350.4</ele>
        <time>2020-12-13T09:38:04Z</time>
      </trkpt>
      <trkpt lat="45.90907" lon="4.60702">
        <ele>350.4</ele>
        <time>2020-12-13T09:38:05Z</time>
      </trkpt>
      <trkpt lat="45.90908" lon="4.60702">
        <ele>350.5</ele>
        <time>2020-12-13T09:38:06Z</time>
      </trkpt>
      <trkpt lat="45.90909" lon="4.60701">
        <ele>350.6</ele>
        <time>2020-12-13T09:38:07Z</time>
      </trkpt>
      <trkpt lat="45.9091" lon="4.607">
        <ele>350.6</ele>
        <time>2020-12-13T09:38:08Z</time>
      </trkpt>
      <trkpt lat="45.90911" lon="4.607">
        <ele>350.6</ele>
        <time>2020-12-13T09:38:09Z</time>
      </trkpt>
      <trkpt lat="45.90911" lon="4.607">
        <ele>350.7</ele>
        <time>2020-12-13T09:38:10Z</time>
      </trkpt>
      <trkpt lat="45.90913" lon="4.607">
        <ele>350.7</ele>
        <time>2020-12-13T09:38:11Z</time>
      </trkpt>
      <trkpt lat="45.90916" lon="4.607">
        <ele>350.9</ele>
        <time>2020-12-13T09:38:12Z</time>
      </trkpt>
      <trkpt lat="45.90917" lon="4.60699">
        <ele>350.9</ele>
        <time>2020-12-13T09:38:13Z</time>
      </trkpt>
      <trkpt lat="45.90918" lon="4.607">
        <ele>351</ele>
        <time>2020-12-13T09:38:14Z</time>
      </trkpt>
      <trkpt lat="45.9092" lon="4.60699">
        <ele>351.1</ele>
        <time>2020-12-13T09:38:15Z</time>
      </trkpt>
      <trkpt lat="45.90921" lon="4.60699">
        <ele>351.1</ele>
        <time>2020-12-13T09:38:16Z</time>
      </trkpt>
      <trkpt lat="45.90922" lon="4.607">
        <ele>351.2</ele>
        <time>2020-12-13T09:38:17Z</time>
      </trkpt>
      <trkpt lat="45.90924" lon="4.60699">
        <ele>351.3</ele>
        <time>2020-12-13T09:38:18Z</time>
      </trkpt>
      <trkpt lat="45.90925" lon="4.60699">
        <ele>351.3</ele>
        <time>2020-12-13T09:38:19Z</time>
      </trkpt>
      <trkpt lat="45.90926" lon="4.60699">
        <ele>351.4</ele>
        <time>2020-12-13T09:38:20Z</time>
      </trkpt>
      <trkpt lat="45.90927" lon="4.60699">
        <ele>351.4</ele>
        <time>2020-12-13T09:38:21Z</time>
      </trkpt>
      <trkpt lat="45.90929" lon="4.60698">
        <ele>351.5</ele>
        <time>2020-12-13T09:38:22Z</time>
      </trkpt>
      <trkpt lat="45.90929" lon="4.60698">
        <ele>351.5</ele>
        <time>2020-12-13T09:38:23Z</time>
      </trkpt>
      <trkpt lat="45.90931" lon="4.60696">
        <ele>351.6</ele>
        <time>2020-12-13T09:38:24Z</time>
      </trkpt>
      <trkpt lat="45.90932" lon="4.60696">
        <ele>351.7</ele>
        <time>2020-12-13T09:38:25Z</time>
      </trkpt>
      <trkpt lat="45.90933" lon="4.60695">
        <ele>351.7</ele>
        <time>2020-12-13T09:38:26Z</time>
      </trkpt>
      <trkpt lat="45.90935" lon="4.60694">
        <ele>351.8</ele>
        <time>2020-12-13T09:38:27Z</time>
      </trkpt>
      <trkpt lat="45.90936" lon="4.60693">
        <ele>351.9</ele>
        <time>2020-12-13T09:38:28Z</time>
      </trkpt>
      <trkpt lat="45.90936" lon="4.60693">
        <ele>351.9</ele>
        <time>2020-12-13T09:38:29Z</time>
      </trkpt>
      <trkpt lat="45.90937" lon="4.60693">
        <ele>351.9</ele>
        <time>2020-12-13T09:38:30Z</time>
      </trkpt>
      <trkpt lat="45.90938" lon="4.60692">
        <ele>351.9</ele>
        <time>2020-12-13T09:38:31Z</time>
      </trkpt>
      <trkpt lat="45.9094" lon="4.60692">
        <ele>352</ele>
        <time>2020-12-13T09:38:32Z</time>
      </trkpt>
      <trkpt lat="45.90941" lon="4.60692">
        <ele>352.1</ele>
        <time>2020-12-13T09:38:33Z</time>
      </trkpt>
      <trkpt lat="45.90943" lon="4.60692">
        <ele>352.1</ele>
        <time>2020-12-13T09:38:34Z</time>
      </trkpt>
      <trkpt lat="45.90945" lon="4.60691">
        <ele>352.2</ele>
        <time>2020-12-13T09:38:35Z</time>
      </trkpt>
      <trkpt lat="45.90945" lon="4.60691">
        <ele>352.2</ele>
        <time>2020-12-13T09:38:36Z</time>
      </trkpt>
      <trkpt lat="45.90946" lon="4.6069">
        <ele>352.3</ele>
        <time>2020-12-13T09:38:37Z</time>
      </trkpt>
      <trkpt lat="45.90948" lon="4.6069">
        <ele>352.3</ele>
        <time>2020-12-13T09:38:38Z</time>
      </trkpt>
      <trkpt lat="45.90949" lon="4.6069">
        <ele>352.4</ele>
        <time>2020-12-13T09:38:39Z</time>
      </trkpt>
      <trkpt lat="45.9095" lon="4.60689">
        <ele>352.4</ele>
        <time>2020-12-13T09:38:40Z</time>
      </trkpt>
      <trkpt lat="45.90951" lon="4.60689">
        <ele>352.4</ele>
        <time>2020-12-13T09:38:41Z</time>
      </trkpt>
      <trkpt lat="45.90952" lon="4.60688">
        <ele>352.5</ele>
        <time>2020-12-13T09:38:42Z</time>
      </trkpt>
      <trkpt lat="45.90953" lon="4.60688">
        <ele>352.5</ele>
        <time>2020-12-13T09:38:44Z</time>
      </trkpt>
      <trkpt lat="45.90954" lon="4.60688">
        <ele>352.5</ele>
        <time>2020-12-13T09:38:45Z</time>
      </trkpt>
      <trkpt lat="45.90955" lon="4.60687">
        <ele>352.6</ele>
        <time>2020-12-13T09:38:46Z</time>
      </trkpt>
      <trkpt lat="45.90956" lon="4.60686">
        <ele>352.6</ele>
        <time>2020-12-13T09:38:47Z</time>
      </trkpt>
      <trkpt lat="45.90959" lon="4.60686">
        <ele>352.7</ele>
        <time>2020-12-13T09:38:48Z</time>
      </trkpt>
      <trkpt lat="45.9096" lon="4.60685">
        <ele>352.7</ele>
        <time>2020-12-13T09:38:49Z</time>
      </trkpt>
      <trkpt lat="45.90961" lon="4.60685">
        <ele>352.8</ele>
        <time>2020-12-13T09:38:50Z</time>
      </trkpt>
      <trkpt lat="45.90963" lon="4.60684">
        <ele>352.8</ele>
        <time>2020-12-13T09:38:51Z</time>
      </trkpt>
      <trkpt lat="45.90964" lon="4.60684">
        <ele>352.9</ele>
        <time>2020-12-13T09:38:52Z</time>
      </trkpt>
      <trkpt lat="45.90966" lon="4.60684">
        <ele>352.9</ele>
        <time>2020-12-13T09:38:53Z</time>
      </trkpt>
      <trkpt lat="45.90968" lon="4.60683">
        <ele>353</ele>
        <time>2020-12-13T09:38:54Z</time>
      </trkpt>
      <trkpt lat="45.90969" lon="4.60683">
        <ele>353</ele>
        <time>2020-12-13T09:38:55Z</time>
      </trkpt>
      <trkpt lat="45.9097" lon="4.60682">
        <ele>353</ele>
        <time>2020-12-13T09:38:56Z</time>
      </trkpt>
      <trkpt lat="45.9097" lon="4.60682">
        <ele>353</ele>
        <time>2020-12-13T09:38:57Z</time>
      </trkpt>
      <trkpt lat="45.90973" lon="4.60682">
        <ele>353.1</ele>
        <time>2020-12-13T09:38:58Z</time>
      </trkpt>
      <trkpt lat="45.90975" lon="4.60682">
        <ele>353.1</ele>
        <time>2020-12-13T09:38:59Z</time>
      </trkpt>
      <trkpt lat="45.90976" lon="4.60681">
        <ele>353.2</ele>
        <time>2020-12-13T09:39:00Z</time>
      </trkpt>
      <trkpt lat="45.90977" lon="4.60681">
        <ele>353.2</ele>
        <time>2020-12-13T09:39:01Z</time>
      </trkpt>
      <trkpt lat="45.90979" lon="4.60679">
        <ele>353.2</ele>
        <time>2020-12-13T09:39:02Z</time>
      </trkpt>
      <trkpt lat="45.9098" lon="4.60679">
        <ele>353.3</ele>
        <time>2020-12-13T09:39:03Z</time>
      </trkpt>
      <trkpt lat="45.9098" lon="4.60679">
        <ele>353.3</ele>
        <time>2020-12-13T09:39:04Z</time>
      </trkpt>
      <trkpt lat="45.90981" lon="4.60678">
        <ele>353.3</ele>
        <time>2020-12-13T09:39:05Z</time>
      </trkpt>
      <trkpt lat="45.90983" lon="4.60677">
        <ele>353.3</ele>
        <time>2020-12-13T09:39:06Z</time>
      </trkpt>
      <trkpt lat="45.90984" lon="4.60677">
        <ele>353.4</ele>
        <time>2020-12-13T09:39:07Z</time>
      </trkpt>
      <trkpt lat="45.90986" lon="4.60676">
        <ele>353.4</ele>
        <time>2020-12-13T09:39:08Z</time>
      </trkpt>
      <trkpt lat="45.90986" lon="4.60676">
        <ele>353.4</ele>
        <time>2020-12-13T09:39:09Z</time>
      </trkpt>
      <trkpt lat="45.90988" lon="4.60675">
        <ele>353.5</ele>
        <time>2020-12-13T09:39:10Z</time>
      </trkpt>
      <trkpt lat="45.90988" lon="4.60674">
        <ele>353.5</ele>
        <time>2020-12-13T09:39:11Z</time>
      </trkpt>
      <trkpt lat="45.90989" lon="4.60673">
        <ele>353.5</ele>
        <time>2020-12-13T09:39:12Z</time>
      </trkpt>
      <trkpt lat="45.90992" lon="4.60672">
        <ele>353.6</ele>
        <time>2020-12-13T09:39:13Z</time>
      </trkpt>
      <trkpt lat="45.90993" lon="4.60672">
        <ele>353.6</ele>
        <time>2020-12-13T09:39:14Z</time>
      </trkpt>
      <trkpt lat="45.90995" lon="4.60671">
        <ele>353.6</ele>
        <time>2020-12-13T09:39:15Z</time>
      </trkpt>
      <trkpt lat="45.90996" lon="4.60671">
        <ele>353.7</ele>
        <time>2020-12-13T09:39:16Z</time>
      </trkpt>
      <trkpt lat="45.90997" lon="4.6067">
        <ele>353.7</ele>
        <time>2020-12-13T09:39:17Z</time>
      </trkpt>
      <trkpt lat="45.90999" lon="4.6067">
        <ele>353.7</ele>
        <time>2020-12-13T09:39:18Z</time>
      </trkpt>
      <trkpt lat="45.91001" lon="4.60669">
        <ele>353.8</ele>
        <time>2020-12-13T09:39:19Z</time>
      </trkpt>
      <trkpt lat="45.91001" lon="4.60668">
        <ele>353.8</ele>
        <time>2020-12-13T09:39:20Z</time>
      </trkpt>
      <trkpt lat="45.91002" lon="4.60667">
        <ele>353.8</ele>
        <time>2020-12-13T09:39:21Z</time>
      </trkpt>
      <trkpt lat="45.91003" lon="4.60667">
        <ele>353.8</ele>
        <time>2020-12-13T09:39:22Z</time>
      </trkpt>
      <trkpt lat="45.91004" lon="4.60666">
        <ele>353.9</ele>
        <time>2020-12-13T09:39:23Z</time>
      </trkpt>
      <trkpt lat="45.91005" lon="4.60666">
        <ele>353.9</ele>
        <time>2020-12-13T09:39:24Z</time>
      </trkpt>
      <trkpt lat="45.91006" lon="4.60665">
        <ele>353.9</ele>
        <time>2020-12-13T09:39:25Z</time>
      </trkpt>
      <trkpt lat="45.91007" lon="4.60665">
        <ele>353.9</ele>
        <time>2020-12-13T09:39:26Z</time>
      </trkpt>
      <trkpt lat="45.91009" lon="4.60665">
        <ele>354</ele>
        <time>2020-12-13T09:39:27Z</time>
      </trkpt>
      <trkpt lat="45.9101" lon="4.60664">
        <ele>354</ele>
        <time>2020-12-13T09:39:28Z</time>
      </trkpt>
      <trkpt lat="45.91012" lon="4.60663">
        <ele>354</ele>
        <time>2020-12-13T09:39:29Z</time>
      </trkpt>
      <trkpt lat="45.91014" lon="4.60663">
        <ele>354.1</ele>
        <time>2020-12-13T09:39:30Z</time>
      </trkpt>
      <trkpt lat="45.91014" lon="4.60662">
        <ele>354.1</ele>
        <time>2020-12-13T09:39:31Z</time>
      </trkpt>
      <trkpt lat="45.91015" lon="4.60662">
        <ele>354.1</ele>
        <time>2020-12-13T09:39:32Z</time>
      </trkpt>
      <trkpt lat="45.91017" lon="4.60661">
        <ele>354.1</ele>
        <time>2020-12-13T09:39:33Z</time>
      </trkpt>
      <trkpt lat="45.91018" lon="4.6066">
        <ele>354.2</ele>
        <time>2020-12-13T09:39:34Z</time>
      </trkpt>
      <trkpt lat="45.9102" lon="4.60659">
        <ele>354.2</ele>
        <time>2020-12-13T09:39:35Z</time>
      </trkpt>
      <trkpt lat="45.9102" lon="4.60658">
        <ele>354.2</ele>
        <time>2020-12-13T09:39:36Z</time>
      </trkpt>
      <trkpt lat="45.91021" lon="4.60658">
        <ele>354.2</ele>
        <time>2020-12-13T09:39:37Z</time>
      </trkpt>
      <trkpt lat="45.91023" lon="4.60657">
        <ele>354.3</ele>
        <time>2020-12-13T09:39:38Z</time>
      </trkpt>
      <trkpt lat="45.91024" lon="4.60657">
        <ele>354.3</ele>
        <time>2020-12-13T09:39:39Z</time>
      </trkpt>
      <trkpt lat="45.91024" lon="4.60656">
        <ele>354.3</ele>
        <time>2020-12-13T09:39:40Z</time>
      </trkpt>
      <trkpt lat="45.91025" lon="4.60655">
        <ele>354.3</ele>
        <time>2020-12-13T09:39:41Z</time>
      </trkpt>
      <trkpt lat="45.91027" lon="4.60655">
        <ele>354.3</ele>
        <time>2020-12-13T09:39:42Z</time>
      </trkpt>
      <trkpt lat="45.9103" lon="4.60653">
        <ele>354.4</ele>
        <time>2020-12-13T09:39:43Z</time>
      </trkpt>
      <trkpt lat="45.91031" lon="4.60653">
        <ele>354.4</ele>
        <time>2020-12-13T09:39:44Z</time>
      </trkpt>
      <trkpt lat="45.91032" lon="4.60652">
        <ele>354.4</ele>
        <time>2020-12-13T09:39:45Z</time>
      </trkpt>
      <trkpt lat="45.91033" lon="4.60651">
        <ele>354.5</ele>
        <time>2020-12-13T09:39:46Z</time>
      </trkpt>
      <trkpt lat="45.91034" lon="4.60651">
        <ele>354.5</ele>
        <time>2020-12-13T09:39:47Z</time>
      </trkpt>
      <trkpt lat="45.91036" lon="4.60651">
        <ele>354.5</ele>
        <time>2020-12-13T09:39:48Z</time>
      </trkpt>
      <trkpt lat="45.91036" lon="4.6065">
        <ele>354.5</ele>
        <time>2020-12-13T09:39:49Z</time>
      </trkpt>
      <trkpt lat="45.91037" lon="4.6065">
        <ele>354.5</ele>
        <time>2020-12-13T09:39:50Z</time>
      </trkpt>
      <trkpt lat="45.91037" lon="4.60649">
        <ele>354.5</ele>
        <time>2020-12-13T09:39:51Z</time>
      </trkpt>
      <trkpt lat="45.91039" lon="4.60649">
        <ele>354.6</ele>
        <time>2020-12-13T09:39:52Z</time>
      </trkpt>
      <trkpt lat="45.91039" lon="4.60648">
        <ele>354.6</ele>
        <time>2020-12-13T09:39:53Z</time>
      </trkpt>
      <trkpt lat="45.91042" lon="4.60647">
        <ele>354.6</ele>
        <time>2020-12-13T09:39:54Z</time>
      </trkpt>
      <trkpt lat="45.91043" lon="4.60646">
        <ele>354.6</ele>
        <time>2020-12-13T09:39:55Z</time>
      </trkpt>
      <trkpt lat="45.91045" lon="4.60645">
        <ele>354.7</ele>
        <time>2020-12-13T09:39:56Z</time>
      </trkpt>
      <trkpt lat="45.91047" lon="4.60645">
        <ele>354.7</ele>
        <time>2020-12-13T09:39:57Z</time>
      </trkpt>
      <trkpt lat="45.91048" lon="4.60645">
        <ele>354.7</ele>
        <time>2020-12-13T09:39:58Z</time>
      </trkpt>
      <trkpt lat="45.91049" lon="4.60644">
        <ele>354.7</ele>
        <time>2020-12-13T09:39:59Z</time>
      </trkpt>
      <trkpt lat="45.9105" lon="4.60644">
        <ele>354.7</ele>
        <time>2020-12-13T09:40:00Z</time>
      </trkpt>
      <trkpt lat="45.91051" lon="4.60643">
        <ele>354.7</ele>
        <time>2020-12-13T09:40:01Z</time>
      </trkpt>
      <trkpt lat="45.91052" lon="4.60643">
        <ele>354.8</ele>
        <time>2020-12-13T09:40:02Z</time>
      </trkpt>
      <trkpt lat="45.91053" lon="4.60642">
        <ele>354.8</ele>
        <time>2020-12-13T09:40:03Z</time>
      </trkpt>
      <trkpt lat="45.91055" lon="4.60642">
        <ele>354.8</ele>
        <time>2020-12-13T09:40:04Z</time>
      </trkpt>
      <trkpt lat="45.91057" lon="4.60641">
        <ele>354.8</ele>
        <time>2020-12-13T09:40:05Z</time>
      </trkpt>
      <trkpt lat="45.91059" lon="4.6064">
        <ele>354.8</ele>
        <time>2020-12-13T09:40:06Z</time>
      </trkpt>
      <trkpt lat="45.91059" lon="4.6064">
        <ele>354.8</ele>
        <time>2020-12-13T09:40:07Z</time>
      </trkpt>
      <trkpt lat="45.9106" lon="4.60639">
        <ele>354.9</ele>
        <time>2020-12-13T09:40:08Z</time>
      </trkpt>
      <trkpt lat="45.91061" lon="4.60639">
        <ele>354.9</ele>
        <time>2020-12-13T09:40:09Z</time>
      </trkpt>
      <trkpt lat="45.91063" lon="4.60639">
        <ele>354.9</ele>
        <time>2020-12-13T09:40:10Z</time>
      </trkpt>
      <trkpt lat="45.91064" lon="4.60639">
        <ele>354.9</ele>
        <time>2020-12-13T09:40:11Z</time>
      </trkpt>
      <trkpt lat="45.91065" lon="4.60638">
        <ele>354.9</ele>
        <time>2020-12-13T09:40:12Z</time>
      </trkpt>
      <trkpt lat="45.91068" lon="4.60638">
        <ele>354.9</ele>
        <time>2020-12-13T09:40:13Z</time>
      </trkpt>
      <trkpt lat="45.91069" lon="4.60638">
        <ele>355</ele>
        <time>2020-12-13T09:40:14Z</time>
      </trkpt>
      <trkpt lat="45.91069" lon="4.60637">
        <ele>355</ele>
        <time>2020-12-13T09:40:15Z</time>
      </trkpt>
      <trkpt lat="45.91069" lon="4.60637">
        <ele>355</ele>
        <time>2020-12-13T09:40:16Z</time>
      </trkpt>
      <trkpt lat="45.91072" lon="4.60637">
        <ele>355</ele>
        <time>2020-12-13T09:40:17Z</time>
      </trkpt>
      <trkpt lat="45.91072" lon="4.60637">
        <ele>355</ele>
        <time>2020-12-13T09:40:18Z</time>
      </trkpt>
      <trkpt lat="45.91074" lon="4.60636">
        <ele>355.1</ele>
        <time>2020-12-13T09:40:19Z</time>
      </trkpt>
      <trkpt lat="45.91075" lon="4.60637">
        <ele>355.1</ele>
        <time>2020-12-13T09:40:20Z</time>
      </trkpt>
      <trkpt lat="45.91077" lon="4.60637">
        <ele>355.1</ele>
        <time>2020-12-13T09:40:21Z</time>
      </trkpt>
      <trkpt lat="45.91078" lon="4.60637">
        <ele>355.1</ele>
        <time>2020-12-13T09:40:22Z</time>
      </trkpt>
      <trkpt lat="45.91078" lon="4.60637">
        <ele>355.1</ele>
        <time>2020-12-13T09:40:23Z</time>
      </trkpt>
      <trkpt lat="45.9108" lon="4.60637">
        <ele>355.1</ele>
        <time>2020-12-13T09:40:24Z</time>
      </trkpt>
      <trkpt lat="45.91083" lon="4.60637">
        <ele>355.2</ele>
        <time>2020-12-13T09:40:25Z</time>
      </trkpt>
      <trkpt lat="45.91083" lon="4.60637">
        <ele>355.2</ele>
        <time>2020-12-13T09:40:26Z</time>
      </trkpt>
      <trkpt lat="45.91084" lon="4.60637">
        <ele>355.2</ele>
        <time>2020-12-13T09:40:27Z</time>
      </trkpt>
      <trkpt lat="45.91085" lon="4.60638">
        <ele>355.2</ele>
        <time>2020-12-13T09:40:28Z</time>
      </trkpt>
      <trkpt lat="45.91086" lon="4.60637">
        <ele>355.2</ele>
        <time>2020-12-13T09:40:29Z</time>
      </trkpt>
      <trkpt lat="45.91087" lon="4.60637">
        <ele>355.2</ele>
        <time>2020-12-13T09:40:30Z</time>
      </trkpt>
      <trkpt lat="45.91089" lon="4.60638">
        <ele>355.2</ele>
        <time>2020-12-13T09:40:31Z</time>
      </trkpt>
      <trkpt lat="45.9109" lon="4.60638">
        <ele>355.3</ele>
        <time>2020-12-13T09:40:32Z</time>
      </trkpt>
      <trkpt lat="45.91091" lon="4.60638">
        <ele>355.3</ele>
        <time>2020-12-13T09:40:33Z</time>
      </trkpt>
      <trkpt lat="45.91093" lon="4.60638">
        <ele>355.3</ele>
        <time>2020-12-13T09:40:34Z</time>
      </trkpt>
      <trkpt lat="45.91094" lon="4.60639">
        <ele>355.3</ele>
        <time>2020-12-13T09:40:35Z</time>
      </trkpt>
      <trkpt lat="45.91096" lon="4.60639">
        <ele>355.3</ele>
        <time>2020-12-13T09:40:36Z</time>
      </trkpt>
      <trkpt lat="45.91097" lon="4.60639">
        <ele>355.3</ele>
        <time>2020-12-13T09:40:37Z</time>
      </trkpt>
      <trkpt lat="45.91098" lon="4.60639">
        <ele>355.3</ele>
        <time>2020-12-13T09:40:38Z</time>
      </trkpt>
      <trkpt lat="45.911" lon="4.60639">
        <ele>355.4</ele>
        <time>2020-12-13T09:40:39Z</time>
      </trkpt>
      <trkpt lat="45.91102" lon="4.60639">
        <ele>355.4</ele>
        <time>2020-12-13T09:40:40Z</time>
      </trkpt>
      <trkpt lat="45.91103" lon="4.6064">
        <ele>355.4</ele>
        <time>2020-12-13T09:40:41Z</time>
      </trkpt>
      <trkpt lat="45.91104" lon="4.60639">
        <ele>355.4</ele>
        <time>2020-12-13T09:40:42Z</time>
      </trkpt>
      <trkpt lat="45.91105" lon="4.60639">
        <ele>355.4</ele>
        <time>2020-12-13T09:40:43Z</time>
      </trkpt>
      <trkpt lat="45.91105" lon="4.60639">
        <ele>355.4</ele>
        <time>2020-12-13T09:40:44Z</time>
      </trkpt>
      <trkpt lat="45.91105" lon="4.60639">
        <ele>355.4</ele>
        <time>2020-12-13T09:40:45Z</time>
      </trkpt>
      <trkpt lat="45.91108" lon="4.60639">
        <ele>355.5</ele>
        <time>2020-12-13T09:40:46Z</time>
      </trkpt>
      <trkpt lat="45.91111" lon="4.60639">
        <ele>355.5</ele>
        <time>2020-12-13T09:40:47Z</time>
      </trkpt>
      <trkpt lat="45.91111" lon="4.60639">
        <ele>355.5</ele>
        <time>2020-12-13T09:40:48Z</time>
      </trkpt>
      <trkpt lat="45.91113" lon="4.6064">
        <ele>355.5</ele>
        <time>2020-12-13T09:40:50Z</time>
      </trkpt>
      <trkpt lat="45.91114" lon="4.6064">
        <ele>355.6</ele>
        <time>2020-12-13T09:40:51Z</time>
      </trkpt>
      <trkpt lat="45.91115" lon="4.6064">
        <ele>355.6</ele>
        <time>2020-12-13T09:40:52Z</time>
      </trkpt>
      <trkpt lat="45.91116" lon="4.6064">
        <ele>355.6</ele>
        <time>2020-12-13T09:40:53Z</time>
      </trkpt>
      <trkpt lat="45.91118" lon="4.60641">
        <ele>355.6</ele>
        <time>2020-12-13T09:40:54Z</time>
      </trkpt>
      <trkpt lat="45.9112" lon="4.60641">
        <ele>355.6</ele>
        <time>2020-12-13T09:40:55Z</time>
      </trkpt>
      <trkpt lat="45.91121" lon="4.60641">
        <ele>355.7</ele>
        <time>2020-12-13T09:40:56Z</time>
      </trkpt>
      <trkpt lat="45.91123" lon="4.60641">
        <ele>355.7</ele>
        <time>2020-12-13T09:40:57Z</time>
      </trkpt>
      <trkpt lat="45.91125" lon="4.60642">
        <ele>355.7</ele>
        <time>2020-12-13T09:40:58Z</time>
      </trkpt>
      <trkpt lat="45.91126" lon="4.60642">
        <ele>355.7</ele>
        <time>2020-12-13T09:40:59Z</time>
      </trkpt>
      <trkpt lat="45.91127" lon="4.60642">
        <ele>355.7</ele>
        <time>2020-12-13T09:41:00Z</time>
      </trkpt>
      <trkpt lat="45.91128" lon="4.60642">
        <ele>355.8</ele>
        <time>2020-12-13T09:41:01Z</time>
      </trkpt>
      <trkpt lat="45.91129" lon="4.60643">
        <ele>355.8</ele>
        <time>2020-12-13T09:41:02Z</time>
      </trkpt>
      <trkpt lat="45.91131" lon="4.60643">
        <ele>355.8</ele>
        <time>2020-12-13T09:41:03Z</time>
      </trkpt>
      <trkpt lat="45.91133" lon="4.60643">
        <ele>355.9</ele>
        <time>2020-12-13T09:41:04Z</time>
      </trkpt>
      <trkpt lat="45.91134" lon="4.60643">
        <ele>355.9</ele>
        <time>2020-12-13T09:41:05Z</time>
      </trkpt>
      <trkpt lat="45.91135" lon="4.60643">
        <ele>355.9</ele>
        <time>2020-12-13T09:41:06Z</time>
      </trkpt>
      <trkpt lat="45.91137" lon="4.60643">
        <ele>355.9</ele>
        <time>2020-12-13T09:41:07Z</time>
      </trkpt>
      <trkpt lat="45.91138" lon="4.60643">
        <ele>355.9</ele>
        <time>2020-12-13T09:41:08Z</time>
      </trkpt>
      <trkpt lat="45.91139" lon="4.60643">
        <ele>356</ele>
        <time>2020-12-13T09:41:09Z</time>
      </trkpt>
      <trkpt lat="45.9114" lon="4.60642">
        <ele>356</ele>
        <time>2020-12-13T09:41:10Z</time>
      </trkpt>
      <trkpt lat="45.91141" lon="4.60642">
        <ele>356</ele>
        <time>2020-12-13T09:41:11Z</time>
      </trkpt>
      <trkpt lat="45.91143" lon="4.60642">
        <ele>356</ele>
        <time>2020-12-13T09:41:12Z</time>
      </trkpt>
      <trkpt lat="45.91145" lon="4.60642">
        <ele>356.1</ele>
        <time>2020-12-13T09:41:13Z</time>
      </trkpt>
      <trkpt lat="45.91146" lon="4.60641">
        <ele>356.1</ele>
        <time>2020-12-13T09:41:14Z</time>
      </trkpt>
      <trkpt lat="45.91147" lon="4.60641">
        <ele>356.1</ele>
        <time>2020-12-13T09:41:15Z</time>
      </trkpt>
      <trkpt lat="45.9115" lon="4.60641">
        <ele>356.2</ele>
        <time>2020-12-13T09:41:16Z</time>
      </trkpt>
      <trkpt lat="45.91151" lon="4.60641">
        <ele>356.2</ele>
        <time>2020-12-13T09:41:17Z</time>
      </trkpt>
      <trkpt lat="45.91152" lon="4.60641">
        <ele>356.2</ele>
        <time>2020-12-13T09:41:18Z</time>
      </trkpt>
      <trkpt lat="45.91154" lon="4.60641">
        <ele>356.3</ele>
        <time>2020-12-13T09:41:19Z</time>
      </trkpt>
      <trkpt lat="45.91154" lon="4.60641">
        <ele>356.3</ele>
        <time>2020-12-13T09:41:20Z</time>
      </trkpt>
      <trkpt lat="45.91155" lon="4.60641">
        <ele>356.3</ele>
        <time>2020-12-13T09:41:21Z</time>
      </trkpt>
      <trkpt lat="45.91156" lon="4.6064">
        <ele>356.3</ele>
        <time>2020-12-13T09:41:22Z</time>
      </trkpt>
      <trkpt lat="45.91158" lon="4.60641">
        <ele>356.4</ele>
        <time>2020-12-13T09:41:23Z</time>
      </trkpt>
      <trkpt lat="45.9116" lon="4.60642">
        <ele>356.4</ele>
        <time>2020-12-13T09:41:24Z</time>
      </trkpt>
      <trkpt lat="45.91161" lon="4.60642">
        <ele>356.5</ele>
        <time>2020-12-13T09:41:25Z</time>
      </trkpt>
      <trkpt lat="45.91162" lon="4.60643">
        <ele>356.5</ele>
        <time>2020-12-13T09:41:26Z</time>
      </trkpt>
      <trkpt lat="45.91164" lon="4.60643">
        <ele>356.5</ele>
        <time>2020-12-13T09:41:27Z</time>
      </trkpt>
      <trkpt lat="45.91165" lon="4.60643">
        <ele>356.6</ele>
        <time>2020-12-13T09:41:28Z</time>
      </trkpt>
      <trkpt lat="45.91166" lon="4.60642">
        <ele>356.6</ele>
        <time>2020-12-13T09:41:29Z</time>
      </trkpt>
      <trkpt lat="45.91168" lon="4.60643">
        <ele>356.6</ele>
        <time>2020-12-13T09:41:30Z</time>
      </trkpt>
      <trkpt lat="45.91168" lon="4.60642">
        <ele>356.6</ele>
        <time>2020-12-13T09:41:31Z</time>
      </trkpt>
      <trkpt lat="45.9117" lon="4.60643">
        <ele>356.7</ele>
        <time>2020-12-13T09:41:32Z</time>
      </trkpt>
      <trkpt lat="45.91171" lon="4.60643">
        <ele>356.7</ele>
        <time>2020-12-13T09:41:33Z</time>
      </trkpt>
      <trkpt lat="45.91173" lon="4.60643">
        <ele>356.8</ele>
        <time>2020-12-13T09:41:34Z</time>
      </trkpt>
      <trkpt lat="45.91174" lon="4.60643">
        <ele>356.8</ele>
        <time>2020-12-13T09:41:35Z</time>
      </trkpt>
      <trkpt lat="45.91175" lon="4.60643">
        <ele>356.9</ele>
        <time>2020-12-13T09:41:36Z</time>
      </trkpt>
      <trkpt lat="45.91176" lon="4.60643">
        <ele>356.9</ele>
        <time>2020-12-13T09:41:37Z</time>
      </trkpt>
      <trkpt lat="45.91178" lon="4.60643">
        <ele>356.9</ele>
        <time>2020-12-13T09:41:38Z</time>
      </trkpt>
      <trkpt lat="45.91179" lon="4.60643">
        <ele>357</ele>
        <time>2020-12-13T09:41:39Z</time>
      </trkpt>
      <trkpt lat="45.91181" lon="4.60643">
        <ele>357</ele>
        <time>2020-12-13T09:41:40Z</time>
      </trkpt>
      <trkpt lat="45.91182" lon="4.60643">
        <ele>357</ele>
        <time>2020-12-13T09:41:41Z</time>
      </trkpt>
      <trkpt lat="45.91184" lon="4.60643">
        <ele>357.1</ele>
        <time>2020-12-13T09:41:42Z</time>
      </trkpt>
      <trkpt lat="45.91185" lon="4.60643">
        <ele>357.1</ele>
        <time>2020-12-13T09:41:43Z</time>
      </trkpt>
      <trkpt lat="45.91186" lon="4.60643">
        <ele>357.1</ele>
        <time>2020-12-13T09:41:44Z</time>
      </trkpt>
      <trkpt lat="45.91187" lon="4.60642">
        <ele>357.1</ele>
        <time>2020-12-13T09:41:45Z</time>
      </trkpt>
      <trkpt lat="45.91188" lon="4.60641">
        <ele>357.1</ele>
        <time>2020-12-13T09:41:46Z</time>
      </trkpt>
      <trkpt lat="45.91188" lon="4.60641">
        <ele>357.1</ele>
        <time>2020-12-13T09:41:47Z</time>
      </trkpt>
      <trkpt lat="45.91189" lon="4.60641">
        <ele>357.2</ele>
        <time>2020-12-13T09:41:48Z</time>
      </trkpt>
      <trkpt lat="45.9119" lon="4.6064">
        <ele>357.2</ele>
        <time>2020-12-13T09:41:49Z</time>
      </trkpt>
      <trkpt lat="45.91191" lon="4.6064">
        <ele>357.2</ele>
        <time>2020-12-13T09:41:50Z</time>
      </trkpt>
      <trkpt lat="45.91192" lon="4.6064">
        <ele>357.2</ele>
        <time>2020-12-13T09:41:51Z</time>
      </trkpt>
      <trkpt lat="45.91194" lon="4.60639">
        <ele>357.3</ele>
        <time>2020-12-13T09:41:52Z</time>
      </trkpt>
      <trkpt lat="45.91195" lon="4.60639">
        <ele>357.3</ele>
        <time>2020-12-13T09:41:53Z</time>
      </trkpt>
      <trkpt lat="45.91196" lon="4.60639">
        <ele>357.3</ele>
        <time>2020-12-13T09:41:54Z</time>
      </trkpt>
      <trkpt lat="45.91197" lon="4.60639">
        <ele>357.4</ele>
        <time>2020-12-13T09:41:55Z</time>
      </trkpt>
      <trkpt lat="45.91198" lon="4.60638">
        <ele>357.4</ele>
        <time>2020-12-13T09:41:56Z</time>
      </trkpt>
      <trkpt lat="45.91199" lon="4.60638">
        <ele>357.4</ele>
        <time>2020-12-13T09:41:57Z</time>
      </trkpt>
      <trkpt lat="45.912" lon="4.60637">
        <ele>357.5</ele>
        <time>2020-12-13T09:41:58Z</time>
      </trkpt>
      <trkpt lat="45.91203" lon="4.60637">
        <ele>357.5</ele>
        <time>2020-12-13T09:41:59Z</time>
      </trkpt>
      <trkpt lat="45.91204" lon="4.60636">
        <ele>357.6</ele>
        <time>2020-12-13T09:42:00Z</time>
      </trkpt>
      <trkpt lat="45.91205" lon="4.60636">
        <ele>357.6</ele>
        <time>2020-12-13T09:42:01Z</time>
      </trkpt>
      <trkpt lat="45.91207" lon="4.60636">
        <ele>357.7</ele>
        <time>2020-12-13T09:42:02Z</time>
      </trkpt>
      <trkpt lat="45.91208" lon="4.60636">
        <ele>357.7</ele>
        <time>2020-12-13T09:42:03Z</time>
      </trkpt>
      <trkpt lat="45.91208" lon="4.60636">
        <ele>357.7</ele>
        <time>2020-12-13T09:42:04Z</time>
      </trkpt>
      <trkpt lat="45.9121" lon="4.60636">
        <ele>357.8</ele>
        <time>2020-12-13T09:42:05Z</time>
      </trkpt>
      <trkpt lat="45.91211" lon="4.60636">
        <ele>357.8</ele>
        <time>2020-12-13T09:42:06Z</time>
      </trkpt>
      <trkpt lat="45.91212" lon="4.60636">
        <ele>357.8</ele>
        <time>2020-12-13T09:42:07Z</time>
      </trkpt>
      <trkpt lat="45.91212" lon="4.60636">
        <ele>357.8</ele>
        <time>2020-12-13T09:42:08Z</time>
      </trkpt>
      <trkpt lat="45.91214" lon="4.60634">
        <ele>357.9</ele>
        <time>2020-12-13T09:42:09Z</time>
      </trkpt>
      <trkpt lat="45.91215" lon="4.60634">
        <ele>357.9</ele>
        <time>2020-12-13T09:42:10Z</time>
      </trkpt>
      <trkpt lat="45.91216" lon="4.60633">
        <ele>358</ele>
        <time>2020-12-13T09:42:11Z</time>
      </trkpt>
      <trkpt lat="45.91218" lon="4.60632">
        <ele>358</ele>
        <time>2020-12-13T09:42:12Z</time>
      </trkpt>
      <trkpt lat="45.91219" lon="4.60632">
        <ele>358.1</ele>
        <time>2020-12-13T09:42:13Z</time>
      </trkpt>
      <trkpt lat="45.9122" lon="4.6063">
        <ele>358.2</ele>
        <time>2020-12-13T09:42:14Z</time>
      </trkpt>
      <trkpt lat="45.91221" lon="4.60629">
        <ele>358.2</ele>
        <time>2020-12-13T09:42:15Z</time>
      </trkpt>
      <trkpt lat="45.91222" lon="4.60628">
        <ele>358.3</ele>
        <time>2020-12-13T09:42:16Z</time>
      </trkpt>
      <trkpt lat="45.91223" lon="4.60626">
        <ele>358.4</ele>
        <time>2020-12-13T09:42:17Z</time>
      </trkpt>
      <trkpt lat="45.91224" lon="4.60626">
        <ele>358.4</ele>
        <time>2020-12-13T09:42:18Z</time>
      </trkpt>
      <trkpt lat="45.91225" lon="4.60625">
        <ele>358.5</ele>
        <time>2020-12-13T09:42:19Z</time>
      </trkpt>
      <trkpt lat="45.91226" lon="4.60625">
        <ele>358.5</ele>
        <time>2020-12-13T09:42:20Z</time>
      </trkpt>
      <trkpt lat="45.91227" lon="4.60625">
        <ele>358.5</ele>
        <time>2020-12-13T09:42:21Z</time>
      </trkpt>
      <trkpt lat="45.91228" lon="4.60625">
        <ele>358.6</ele>
        <time>2020-12-13T09:42:22Z</time>
      </trkpt>
      <trkpt lat="45.91228" lon="4.60625">
        <ele>358.6</ele>
        <time>2020-12-13T09:42:23Z</time>
      </trkpt>
      <trkpt lat="45.91229" lon="4.60625">
        <ele>358.7</ele>
        <time>2020-12-13T09:42:24Z</time>
      </trkpt>
      <trkpt lat="45.91231" lon="4.60626">
        <ele>358.8</ele>
        <time>2020-12-13T09:42:25Z</time>
      </trkpt>
      <trkpt lat="45.91233" lon="4.60628">
        <ele>358.9</ele>
        <time>2020-12-13T09:42:26Z</time>
      </trkpt>
      <trkpt lat="45.91234" lon="4.60628">
        <ele>358.9</ele>
        <time>2020-12-13T09:42:27Z</time>
      </trkpt>
      <trkpt lat="45.91235" lon="4.60629">
        <ele>359</ele>
        <time>2020-12-13T09:42:28Z</time>
      </trkpt>
      <trkpt lat="45.91236" lon="4.6063">
        <ele>359.1</ele>
        <time>2020-12-13T09:42:29Z</time>
      </trkpt>
      <trkpt lat="45.91237" lon="4.60632">
        <ele>359.1</ele>
        <time>2020-12-13T09:42:30Z</time>
      </trkpt>
      <trkpt lat="45.91238" lon="4.60632">
        <ele>359.2</ele>
        <time>2020-12-13T09:42:31Z</time>
      </trkpt>
      <trkpt lat="45.91239" lon="4.60634">
        <ele>359.3</ele>
        <time>2020-12-13T09:42:32Z</time>
      </trkpt>
      <trkpt lat="45.9124" lon="4.60634">
        <ele>359.3</ele>
        <time>2020-12-13T09:42:33Z</time>
      </trkpt>
      <trkpt lat="45.91241" lon="4.60636">
        <ele>359.4</ele>
        <time>2020-12-13T09:42:34Z</time>
      </trkpt>
      <trkpt lat="45.91243" lon="4.60637">
        <ele>359.5</ele>
        <time>2020-12-13T09:42:35Z</time>
      </trkpt>
      <trkpt lat="45.91244" lon="4.60638">
        <ele>359.6</ele>
        <time>2020-12-13T09:42:36Z</time>
      </trkpt>
      <trkpt lat="45.91245" lon="4.60639">
        <ele>359.7</ele>
        <time>2020-12-13T09:42:37Z</time>
      </trkpt>
      <trkpt lat="45.91247" lon="4.6064">
        <ele>359.8</ele>
        <time>2020-12-13T09:42:38Z</time>
      </trkpt>
      <trkpt lat="45.91248" lon="4.6064">
        <ele>359.9</ele>
        <time>2020-12-13T09:42:39Z</time>
      </trkpt>
      <trkpt lat="45.91249" lon="4.60641">
        <ele>359.9</ele>
        <time>2020-12-13T09:42:40Z</time>
      </trkpt>
      <trkpt lat="45.91249" lon="4.60642">
        <ele>360</ele>
        <time>2020-12-13T09:42:41Z</time>
      </trkpt>
      <trkpt lat="45.91251" lon="4.60643">
        <ele>360.1</ele>
        <time>2020-12-13T09:42:42Z</time>
      </trkpt>
      <trkpt lat="45.91251" lon="4.60644">
        <ele>360.2</ele>
        <time>2020-12-13T09:42:43Z</time>
      </trkpt>
      <trkpt lat="45.91253" lon="4.60646">
        <ele>360.3</ele>
        <time>2020-12-13T09:42:44Z</time>
      </trkpt>
      <trkpt lat="45.91254" lon="4.60647">
        <ele>360.4</ele>
        <time>2020-12-13T09:42:45Z</time>
      </trkpt>
      <trkpt lat="45.91254" lon="4.60648">
        <ele>360.5</ele>
        <time>2020-12-13T09:42:46Z</time>
      </trkpt>
      <trkpt lat="45.91255" lon="4.60649">
        <ele>360.6</ele>
        <time>2020-12-13T09:42:47Z</time>
      </trkpt>
      <trkpt lat="45.91256" lon="4.6065">
        <ele>360.7</ele>
        <time>2020-12-13T09:42:48Z</time>
      </trkpt>
      <trkpt lat="45.91258" lon="4.60651">
        <ele>360.8</ele>
        <time>2020-12-13T09:42:49Z</time>
      </trkpt>
      <trkpt lat="45.91259" lon="4.60652">
        <ele>360.9</ele>
        <time>2020-12-13T09:42:50Z</time>
      </trkpt>
      <trkpt lat="45.9126" lon="4.60653">
        <ele>360.9</ele>
        <time>2020-12-13T09:42:51Z</time>
      </trkpt>
      <trkpt lat="45.91261" lon="4.60654">
        <ele>361.1</ele>
        <time>2020-12-13T09:42:52Z</time>
      </trkpt>
      <trkpt lat="45.91262" lon="4.60654">
        <ele>361.1</ele>
        <time>2020-12-13T09:42:53Z</time>
      </trkpt>
      <trkpt lat="45.91264" lon="4.60656">
        <ele>361.3</ele>
        <time>2020-12-13T09:42:54Z</time>
      </trkpt>
      <trkpt lat="45.91265" lon="4.60657">
        <ele>361.4</ele>
        <time>2020-12-13T09:42:56Z</time>
      </trkpt>
      <trkpt lat="45.91265" lon="4.60657">
        <ele>361.4</ele>
        <time>2020-12-13T09:42:57Z</time>
      </trkpt>
      <trkpt lat="45.91267" lon="4.60659">
        <ele>361.6</ele>
        <time>2020-12-13T09:42:58Z</time>
      </trkpt>
      <trkpt lat="45.91268" lon="4.60659">
        <ele>361.6</ele>
        <time>2020-12-13T09:42:59Z</time>
      </trkpt>
      <trkpt lat="45.91269" lon="4.6066">
        <ele>361.7</ele>
        <time>2020-12-13T09:43:00Z</time>
      </trkpt>
      <trkpt lat="45.9127" lon="4.6066">
        <ele>361.8</ele>
        <time>2020-12-13T09:43:01Z</time>
      </trkpt>
      <trkpt lat="45.91271" lon="4.60661">
        <ele>361.9</ele>
        <time>2020-12-13T09:43:02Z</time>
      </trkpt>
      <trkpt lat="45.91274" lon="4.60663">
        <ele>362.2</ele>
        <time>2020-12-13T09:43:03Z</time>
      </trkpt>
      <trkpt lat="45.91275" lon="4.60663">
        <ele>362.2</ele>
        <time>2020-12-13T09:43:04Z</time>
      </trkpt>
      <trkpt lat="45.91276" lon="4.60664">
        <ele>362.3</ele>
        <time>2020-12-13T09:43:05Z</time>
      </trkpt>
      <trkpt lat="45.91278" lon="4.60665">
        <ele>362.4</ele>
        <time>2020-12-13T09:43:06Z</time>
      </trkpt>
      <trkpt lat="45.91278" lon="4.60665">
        <ele>362.5</ele>
        <time>2020-12-13T09:43:07Z</time>
      </trkpt>
      <trkpt lat="45.91279" lon="4.60665">
        <ele>362.5</ele>
        <time>2020-12-13T09:43:08Z</time>
      </trkpt>
      <trkpt lat="45.9128" lon="4.60666">
        <ele>362.6</ele>
        <time>2020-12-13T09:43:09Z</time>
      </trkpt>
      <trkpt lat="45.91281" lon="4.60666">
        <ele>362.7</ele>
        <time>2020-12-13T09:43:10Z</time>
      </trkpt>
      <trkpt lat="45.91282" lon="4.60667">
        <ele>362.8</ele>
        <time>2020-12-13T09:43:11Z</time>
      </trkpt>
      <trkpt lat="45.91283" lon="4.60667">
        <ele>362.9</ele>
        <time>2020-12-13T09:43:12Z</time>
      </trkpt>
      <trkpt lat="45.91285" lon="4.60668">
        <ele>363</ele>
        <time>2020-12-13T09:43:14Z</time>
      </trkpt>
      <trkpt lat="45.91286" lon="4.60668">
        <ele>363.1</ele>
        <time>2020-12-13T09:43:15Z</time>
      </trkpt>
      <trkpt lat="45.91287" lon="4.60669">
        <ele>363.2</ele>
        <time>2020-12-13T09:43:16Z</time>
      </trkpt>
      <trkpt lat="45.91288" lon="4.60669">
        <ele>363.3</ele>
        <time>2020-12-13T09:43:17Z</time>
      </trkpt>
      <trkpt lat="45.9129" lon="4.60671">
        <ele>363.5</ele>
        <time>2020-12-13T09:43:18Z</time>
      </trkpt>
      <trkpt lat="45.91291" lon="4.60672">
        <ele>363.6</ele>
        <time>2020-12-13T09:43:19Z</time>
      </trkpt>
      <trkpt lat="45.91292" lon="4.60673">
        <ele>363.7</ele>
        <time>2020-12-13T09:43:20Z</time>
      </trkpt>
      <trkpt lat="45.91294" lon="4.60674">
        <ele>363.8</ele>
        <time>2020-12-13T09:43:21Z</time>
      </trkpt>
      <trkpt lat="45.91295" lon="4.60674">
        <ele>363.9</ele>
        <time>2020-12-13T09:43:22Z</time>
      </trkpt>
      <trkpt lat="45.91296" lon="4.60675">
        <ele>364</ele>
        <time>2020-12-13T09:43:23Z</time>
      </trkpt>
      <trkpt lat="45.91297" lon="4.60675">
        <ele>364.1</ele>
        <time>2020-12-13T09:43:24Z</time>
      </trkpt>
      <trkpt lat="45.91298" lon="4.60676">
        <ele>364.2</ele>
        <time>2020-12-13T09:43:25Z</time>
      </trkpt>
      <trkpt lat="45.91299" lon="4.60676">
        <ele>364.3</ele>
        <time>2020-12-13T09:43:26Z</time>
      </trkpt>
      <trkpt lat="45.91299" lon="4.60677">
        <ele>364.3</ele>
        <time>2020-12-13T09:43:27Z</time>
      </trkpt>
      <trkpt lat="45.91301" lon="4.60677">
        <ele>364.4</ele>
        <time>2020-12-13T09:43:28Z</time>
      </trkpt>
      <trkpt lat="45.91303" lon="4.60678">
        <ele>364.6</ele>
        <time>2020-12-13T09:43:29Z</time>
      </trkpt>
      <trkpt lat="45.91304" lon="4.60679">
        <ele>364.7</ele>
        <time>2020-12-13T09:43:30Z</time>
      </trkpt>
      <trkpt lat="45.91305" lon="4.60679">
        <ele>364.7</ele>
        <time>2020-12-13T09:43:31Z</time>
      </trkpt>
      <trkpt lat="45.91307" lon="4.6068">
        <ele>364.9</ele>
        <time>2020-12-13T09:43:32Z</time>
      </trkpt>
      <trkpt lat="45.91308" lon="4.60681">
        <ele>364.9</ele>
        <time>2020-12-13T09:43:33Z</time>
      </trkpt>
      <trkpt lat="45.91308" lon="4.60681">
        <ele>365</ele>
        <time>2020-12-13T09:43:34Z</time>
      </trkpt>
      <trkpt lat="45.91309" lon="4.60681">
        <ele>365</ele>
        <time>2020-12-13T09:43:35Z</time>
      </trkpt>
      <trkpt lat="45.91309" lon="4.60682">
        <ele>365</ele>
        <time>2020-12-13T09:43:36Z</time>
      </trkpt>
      <trkpt lat="45.91311" lon="4.60683">
        <ele>365.1</ele>
        <time>2020-12-13T09:43:37Z</time>
      </trkpt>
      <trkpt lat="45.91313" lon="4.60683">
        <ele>365.3</ele>
        <time>2020-12-13T09:43:38Z</time>
      </trkpt>
      <trkpt lat="45.91313" lon="4.60683">
        <ele>365.3</ele>
        <time>2020-12-13T09:43:39Z</time>
      </trkpt>
      <trkpt lat="45.91314" lon="4.60683">
        <ele>365.4</ele>
        <time>2020-12-13T09:43:40Z</time>
      </trkpt>
      <trkpt lat="45.91316" lon="4.60684">
        <ele>365.5</ele>
        <time>2020-12-13T09:43:41Z</time>
      </trkpt>
      <trkpt lat="45.91317" lon="4.60684">
        <ele>365.5</ele>
        <time>2020-12-13T09:43:42Z</time>
      </trkpt>
      <trkpt lat="45.91318" lon="4.60685">
        <ele>365.6</ele>
        <time>2020-12-13T09:43:43Z</time>
      </trkpt>
      <trkpt lat="45.91319" lon="4.60687">
        <ele>365.7</ele>
        <time>2020-12-13T09:43:44Z</time>
      </trkpt>
      <trkpt lat="45.9132" lon="4.60687">
        <ele>365.8</ele>
        <time>2020-12-13T09:43:45Z</time>
      </trkpt>
      <trkpt lat="45.91321" lon="4.60688">
        <ele>365.8</ele>
        <time>2020-12-13T09:43:46Z</time>
      </trkpt>
      <trkpt lat="45.91323" lon="4.60691">
        <ele>366</ele>
        <time>2020-12-13T09:43:47Z</time>
      </trkpt>
      <trkpt lat="45.91324" lon="4.60691">
        <ele>366.1</ele>
        <time>2020-12-13T09:43:48Z</time>
      </trkpt>
      <trkpt lat="45.91324" lon="4.60692">
        <ele>366.1</ele>
        <time>2020-12-13T09:43:49Z</time>
      </trkpt>
      <trkpt lat="45.91325" lon="4.60693">
        <ele>366.2</ele>
        <time>2020-12-13T09:43:50Z</time>
      </trkpt>
      <trkpt lat="45.91327" lon="4.60693">
        <ele>366.3</ele>
        <time>2020-12-13T09:43:51Z</time>
      </trkpt>
      <trkpt lat="45.91328" lon="4.60693">
        <ele>366.3</ele>
        <time>2020-12-13T09:43:52Z</time>
      </trkpt>
      <trkpt lat="45.9133" lon="4.60694">
        <ele>366.5</ele>
        <time>2020-12-13T09:43:53Z</time>
      </trkpt>
      <trkpt lat="45.91331" lon="4.60694">
        <ele>366.5</ele>
        <time>2020-12-13T09:43:54Z</time>
      </trkpt>
      <trkpt lat="45.91333" lon="4.60695">
        <ele>366.7</ele>
        <time>2020-12-13T09:43:55Z</time>
      </trkpt>
      <trkpt lat="45.91334" lon="4.60695">
        <ele>366.7</ele>
        <time>2020-12-13T09:43:56Z</time>
      </trkpt>
      <trkpt lat="45.91335" lon="4.60696">
        <ele>366.8</ele>
        <time>2020-12-13T09:43:57Z</time>
      </trkpt>
      <trkpt lat="45.91337" lon="4.60697">
        <ele>366.9</ele>
        <time>2020-12-13T09:43:58Z</time>
      </trkpt>
      <trkpt lat="45.91338" lon="4.60698">
        <ele>366.9</ele>
        <time>2020-12-13T09:43:59Z</time>
      </trkpt>
      <trkpt lat="45.91338" lon="4.60698">
        <ele>367</ele>
        <time>2020-12-13T09:44:00Z</time>
      </trkpt>
      <trkpt lat="45.91339" lon="4.60698">
        <ele>367</ele>
        <time>2020-12-13T09:44:01Z</time>
      </trkpt>
      <trkpt lat="45.9134" lon="4.60699">
        <ele>367.1</ele>
        <time>2020-12-13T09:44:02Z</time>
      </trkpt>
      <trkpt lat="45.91342" lon="4.607">
        <ele>367.2</ele>
        <time>2020-12-13T09:44:03Z</time>
      </trkpt>
      <trkpt lat="45.91343" lon="4.60701">
        <ele>367.3</ele>
        <time>2020-12-13T09:44:04Z</time>
      </trkpt>
      <trkpt lat="45.91345" lon="4.60701">
        <ele>367.3</ele>
        <time>2020-12-13T09:44:05Z</time>
      </trkpt>
      <trkpt lat="45.91346" lon="4.60702">
        <ele>367.4</ele>
        <time>2020-12-13T09:44:06Z</time>
      </trkpt>
      <trkpt lat="45.91347" lon="4.60702">
        <ele>367.5</ele>
        <time>2020-12-13T09:44:07Z</time>
      </trkpt>
      <trkpt lat="45.91348" lon="4.60702">
        <ele>367.5</ele>
        <time>2020-12-13T09:44:08Z</time>
      </trkpt>
      <trkpt lat="45.9135" lon="4.60703">
        <ele>367.7</ele>
        <time>2020-12-13T09:44:09Z</time>
      </trkpt>
      <trkpt lat="45.91351" lon="4.60703">
        <ele>367.7</ele>
        <time>2020-12-13T09:44:10Z</time>
      </trkpt>
      <trkpt lat="45.91352" lon="4.60703">
        <ele>367.7</ele>
        <time>2020-12-13T09:44:11Z</time>
      </trkpt>
      <trkpt lat="45.91353" lon="4.60703">
        <ele>367.8</ele>
        <time>2020-12-13T09:44:12Z</time>
      </trkpt>
      <trkpt lat="45.91354" lon="4.60703">
        <ele>367.8</ele>
        <time>2020-12-13T09:44:13Z</time>
      </trkpt>
      <trkpt lat="45.91355" lon="4.60701">
        <ele>367.9</ele>
        <time>2020-12-13T09:44:14Z</time>
      </trkpt>
      <trkpt lat="45.91355" lon="4.607">
        <ele>368</ele>
        <time>2020-12-13T09:44:15Z</time>
      </trkpt>
      <trkpt lat="45.91355" lon="4.60701">
        <ele>368</ele>
        <time>2020-12-13T09:44:16Z</time>
      </trkpt>
      <trkpt lat="45.91355" lon="4.60701">
        <ele>368</ele>
        <time>2020-12-13T09:44:17Z</time>
      </trkpt>
      <trkpt lat="45.91355" lon="4.60701">
        <ele>368</ele>
        <time>2020-12-13T09:44:18Z</time>
      </trkpt>
      <trkpt lat="45.91356" lon="4.60701">
        <ele>368</ele>
        <time>2020-12-13T09:44:19Z</time>
      </trkpt>
      <trkpt lat="45.91355" lon="4.60701">
        <ele>368</ele>
        <time>2020-12-13T09:44:20Z</time>
      </trkpt>
      <trkpt lat="45.91356" lon="4.60701">
        <ele>368</ele>
        <time>2020-12-13T09:44:21Z</time>
      </trkpt>
      <trkpt lat="45.91356" lon="4.60701">
        <ele>368</ele>
        <time>2020-12-13T09:44:22Z</time>
      </trkpt>
      <trkpt lat="45.91356" lon="4.60701">
        <ele>368</ele>
        <time>2020-12-13T09:44:23Z</time>
      </trkpt>
      <trkpt lat="45.91356" lon="4.60701">
        <ele>368</ele>
        <time>2020-12-13T09:44:24Z</time>
      </trkpt>
      <trkpt lat="45.91356" lon="4.60701">
        <ele>368</ele>
        <time>2020-12-13T09:44:25Z</time>
      </trkpt>
      <trkpt lat="45.91356" lon="4.60702">
        <ele>368.1</ele>
        <time>2020-12-13T09:44:26Z</time>
      </trkpt>
      <trkpt lat="45.91356" lon="4.60703">
        <ele>368.1</ele>
        <time>2020-12-13T09:44:27Z</time>
      </trkpt>
      <trkpt lat="45.91356" lon="4.60705">
        <ele>368.2</ele>
        <time>2020-12-13T09:44:28Z</time>
      </trkpt>
      <trkpt lat="45.91357" lon="4.60706">
        <ele>368.2</ele>
        <time>2020-12-13T09:44:29Z</time>
      </trkpt>
      <trkpt lat="45.91358" lon="4.60708">
        <ele>368.4</ele>
        <time>2020-12-13T09:44:30Z</time>
      </trkpt>
      <trkpt lat="45.9136" lon="4.60709">
        <ele>368.5</ele>
        <time>2020-12-13T09:44:31Z</time>
      </trkpt>
      <trkpt lat="45.91362" lon="4.6071">
        <ele>368.6</ele>
        <time>2020-12-13T09:44:32Z</time>
      </trkpt>
      <trkpt lat="45.91363" lon="4.60711">
        <ele>368.6</ele>
        <time>2020-12-13T09:44:33Z</time>
      </trkpt>
      <trkpt lat="45.91364" lon="4.60711">
        <ele>368.7</ele>
        <time>2020-12-13T09:44:34Z</time>
      </trkpt>
      <trkpt lat="45.91365" lon="4.60712">
        <ele>368.7</ele>
        <time>2020-12-13T09:44:35Z</time>
      </trkpt>
      <trkpt lat="45.91367" lon="4.60713">
        <ele>368.9</ele>
        <time>2020-12-13T09:44:36Z</time>
      </trkpt>
      <trkpt lat="45.91367" lon="4.60713">
        <ele>368.9</ele>
        <time>2020-12-13T09:44:37Z</time>
      </trkpt>
      <trkpt lat="45.91368" lon="4.60714">
        <ele>369</ele>
        <time>2020-12-13T09:44:38Z</time>
      </trkpt>
      <trkpt lat="45.9137" lon="4.60715">
        <ele>369.1</ele>
        <time>2020-12-13T09:44:39Z</time>
      </trkpt>
      <trkpt lat="45.91371" lon="4.60715">
        <ele>369.1</ele>
        <time>2020-12-13T09:44:40Z</time>
      </trkpt>
      <trkpt lat="45.91372" lon="4.60716">
        <ele>369.2</ele>
        <time>2020-12-13T09:44:41Z</time>
      </trkpt>
      <trkpt lat="45.91374" lon="4.60717">
        <ele>369.3</ele>
        <time>2020-12-13T09:44:42Z</time>
      </trkpt>
      <trkpt lat="45.91375" lon="4.60718">
        <ele>369.4</ele>
        <time>2020-12-13T09:44:43Z</time>
      </trkpt>
      <trkpt lat="45.91376" lon="4.60718">
        <ele>369.4</ele>
        <time>2020-12-13T09:44:44Z</time>
      </trkpt>
      <trkpt lat="45.91377" lon="4.60719">
        <ele>369.5</ele>
        <time>2020-12-13T09:44:45Z</time>
      </trkpt>
      <trkpt lat="45.91378" lon="4.60719">
        <ele>369.6</ele>
        <time>2020-12-13T09:44:46Z</time>
      </trkpt>
      <trkpt lat="45.9138" lon="4.60721">
        <ele>369.7</ele>
        <time>2020-12-13T09:44:47Z</time>
      </trkpt>
      <trkpt lat="45.91381" lon="4.60721">
        <ele>369.8</ele>
        <time>2020-12-13T09:44:48Z</time>
      </trkpt>
      <trkpt lat="45.91382" lon="4.60722">
        <ele>369.8</ele>
        <time>2020-12-13T09:44:49Z</time>
      </trkpt>
      <trkpt lat="45.91384" lon="4.60723">
        <ele>369.9</ele>
        <time>2020-12-13T09:44:50Z</time>
      </trkpt>
      <trkpt lat="45.91385" lon="4.60723">
        <ele>370</ele>
        <time>2020-12-13T09:44:51Z</time>
      </trkpt>
      <trkpt lat="45.91386" lon="4.60724">
        <ele>370</ele>
        <time>2020-12-13T09:44:52Z</time>
      </trkpt>
      <trkpt lat="45.91388" lon="4.60725">
        <ele>370.1</ele>
        <time>2020-12-13T09:44:53Z</time>
      </trkpt>
      <trkpt lat="45.91388" lon="4.60726">
        <ele>370.2</ele>
        <time>2020-12-13T09:44:54Z</time>
      </trkpt>
      <trkpt lat="45.91389" lon="4.60726">
        <ele>370.2</ele>
        <time>2020-12-13T09:44:55Z</time>
      </trkpt>
      <trkpt lat="45.91391" lon="4.60727">
        <ele>370.4</ele>
        <time>2020-12-13T09:44:56Z</time>
      </trkpt>
      <trkpt lat="45.91392" lon="4.60727">
        <ele>370.4</ele>
        <time>2020-12-13T09:44:57Z</time>
      </trkpt>
      <trkpt lat="45.91393" lon="4.60728">
        <ele>370.5</ele>
        <time>2020-12-13T09:44:58Z</time>
      </trkpt>
      <trkpt lat="45.91394" lon="4.60729">
        <ele>370.5</ele>
        <time>2020-12-13T09:44:59Z</time>
      </trkpt>
      <trkpt lat="45.91395" lon="4.6073">
        <ele>370.6</ele>
        <time>2020-12-13T09:45:00Z</time>
      </trkpt>
      <trkpt lat="45.91398" lon="4.60731">
        <ele>370.7</ele>
        <time>2020-12-13T09:45:02Z</time>
      </trkpt>
      <trkpt lat="45.91398" lon="4.60731">
        <ele>370.8</ele>
        <time>2020-12-13T09:45:03Z</time>
      </trkpt>
      <trkpt lat="45.91399" lon="4.60731">
        <ele>370.8</ele>
        <time>2020-12-13T09:45:04Z</time>
      </trkpt>
      <trkpt lat="45.91401" lon="4.60732">
        <ele>370.9</ele>
        <time>2020-12-13T09:45:05Z</time>
      </trkpt>
      <trkpt lat="45.91402" lon="4.60732">
        <ele>371</ele>
        <time>2020-12-13T09:45:06Z</time>
      </trkpt>
      <trkpt lat="45.91405" lon="4.60734">
        <ele>371.1</ele>
        <time>2020-12-13T09:45:07Z</time>
      </trkpt>
      <trkpt lat="45.91406" lon="4.60735">
        <ele>371.2</ele>
        <time>2020-12-13T09:45:08Z</time>
      </trkpt>
      <trkpt lat="45.91407" lon="4.60736">
        <ele>371.3</ele>
        <time>2020-12-13T09:45:09Z</time>
      </trkpt>
      <trkpt lat="45.91408" lon="4.60737">
        <ele>371.4</ele>
        <time>2020-12-13T09:45:10Z</time>
      </trkpt>
      <trkpt lat="45.9141" lon="4.60737">
        <ele>371.5</ele>
        <time>2020-12-13T09:45:11Z</time>
      </trkpt>
      <trkpt lat="45.91411" lon="4.60737">
        <ele>371.5</ele>
        <time>2020-12-13T09:45:12Z</time>
      </trkpt>
      <trkpt lat="45.91412" lon="4.60738">
        <ele>371.6</ele>
        <time>2020-12-13T09:45:13Z</time>
      </trkpt>
      <trkpt lat="45.91414" lon="4.60739">
        <ele>371.7</ele>
        <time>2020-12-13T09:45:14Z</time>
      </trkpt>
      <trkpt lat="45.91415" lon="4.6074">
        <ele>371.8</ele>
        <time>2020-12-13T09:45:15Z</time>
      </trkpt>
      <trkpt lat="45.91417" lon="4.60741">
        <ele>371.9</ele>
        <time>2020-12-13T09:45:16Z</time>
      </trkpt>
      <trkpt lat="45.91418" lon="4.60741">
        <ele>372</ele>
        <time>2020-12-13T09:45:17Z</time>
      </trkpt>
      <trkpt lat="45.91418" lon="4.60742">
        <ele>372</ele>
        <time>2020-12-13T09:45:18Z</time>
      </trkpt>
      <trkpt lat="45.9142" lon="4.60743">
        <ele>372.1</ele>
        <time>2020-12-13T09:45:19Z</time>
      </trkpt>
      <trkpt lat="45.91421" lon="4.60744">
        <ele>372.2</ele>
        <time>2020-12-13T09:45:20Z</time>
      </trkpt>
      <trkpt lat="45.91422" lon="4.60745">
        <ele>372.2</ele>
        <time>2020-12-13T09:45:21Z</time>
      </trkpt>
      <trkpt lat="45.91423" lon="4.60745">
        <ele>372.3</ele>
        <time>2020-12-13T09:45:22Z</time>
      </trkpt>
      <trkpt lat="45.91425" lon="4.60746">
        <ele>372.4</ele>
        <time>2020-12-13T09:45:23Z</time>
      </trkpt>
      <trkpt lat="45.91426" lon="4.60746">
        <ele>372.5</ele>
        <time>2020-12-13T09:45:24Z</time>
      </trkpt>
      <trkpt lat="45.91427" lon="4.60747">
        <ele>372.6</ele>
        <time>2020-12-13T09:45:25Z</time>
      </trkpt>
      <trkpt lat="45.91429" lon="4.60748">
        <ele>372.7</ele>
        <time>2020-12-13T09:45:26Z</time>
      </trkpt>
      <trkpt lat="45.9143" lon="4.60749">
        <ele>372.8</ele>
        <time>2020-12-13T09:45:27Z</time>
      </trkpt>
      <trkpt lat="45.91432" lon="4.6075">
        <ele>372.9</ele>
        <time>2020-12-13T09:45:28Z</time>
      </trkpt>
      <trkpt lat="45.91433" lon="4.6075">
        <ele>372.9</ele>
        <time>2020-12-13T09:45:29Z</time>
      </trkpt>
      <trkpt lat="45.91433" lon="4.6075">
        <ele>373</ele>
        <time>2020-12-13T09:45:30Z</time>
      </trkpt>
      <trkpt lat="45.91435" lon="4.6075">
        <ele>373.1</ele>
        <time>2020-12-13T09:45:31Z</time>
      </trkpt>
      <trkpt lat="45.91435" lon="4.6075">
        <ele>373.1</ele>
        <time>2020-12-13T09:45:32Z</time>
      </trkpt>
      <trkpt lat="45.91435" lon="4.6075">
        <ele>373.1</ele>
        <time>2020-12-13T09:45:33Z</time>
      </trkpt>
      <trkpt lat="45.91434" lon="4.6075">
        <ele>373.1</ele>
        <time>2020-12-13T09:45:34Z</time>
      </trkpt>
      <trkpt lat="45.91436" lon="4.60751">
        <ele>373.2</ele>
        <time>2020-12-13T09:45:35Z</time>
      </trkpt>
      <trkpt lat="45.91437" lon="4.60752">
        <ele>373.3</ele>
        <time>2020-12-13T09:45:36Z</time>
      </trkpt>
      <trkpt lat="45.91438" lon="4.60752">
        <ele>373.4</ele>
        <time>2020-12-13T09:45:37Z</time>
      </trkpt>
      <trkpt lat="45.91439" lon="4.60753">
        <ele>373.5</ele>
        <time>2020-12-13T09:45:38Z</time>
      </trkpt>
      <trkpt lat="45.9144" lon="4.60753">
        <ele>373.5</ele>
        <time>2020-12-13T09:45:39Z</time>
      </trkpt>
      <trkpt lat="45.91441" lon="4.60754">
        <ele>373.6</ele>
        <time>2020-12-13T09:45:40Z</time>
      </trkpt>
      <trkpt lat="45.91441" lon="4.60755">
        <ele>373.6</ele>
        <time>2020-12-13T09:45:41Z</time>
      </trkpt>
      <trkpt lat="45.91442" lon="4.60755">
        <ele>373.7</ele>
        <time>2020-12-13T09:45:42Z</time>
      </trkpt>
      <trkpt lat="45.91444" lon="4.60757">
        <ele>373.8</ele>
        <time>2020-12-13T09:45:43Z</time>
      </trkpt>
      <trkpt lat="45.91445" lon="4.60757">
        <ele>373.9</ele>
        <time>2020-12-13T09:45:44Z</time>
      </trkpt>
      <trkpt lat="45.91446" lon="4.60757">
        <ele>373.9</ele>
        <time>2020-12-13T09:45:45Z</time>
      </trkpt>
      <trkpt lat="45.91447" lon="4.60758">
        <ele>374</ele>
        <time>2020-12-13T09:45:46Z</time>
      </trkpt>
      <trkpt lat="45.91448" lon="4.60759">
        <ele>374</ele>
        <time>2020-12-13T09:45:47Z</time>
      </trkpt>
      <trkpt lat="45.91449" lon="4.60759">
        <ele>374.1</ele>
        <time>2020-12-13T09:45:48Z</time>
      </trkpt>
      <trkpt lat="45.9145" lon="4.6076">
        <ele>374.2</ele>
        <time>2020-12-13T09:45:49Z</time>
      </trkpt>
      <trkpt lat="45.91451" lon="4.6076">
        <ele>374.3</ele>
        <time>2020-12-13T09:45:50Z</time>
      </trkpt>
      <trkpt lat="45.91452" lon="4.6076">
        <ele>374.3</ele>
        <time>2020-12-13T09:45:51Z</time>
      </trkpt>
      <trkpt lat="45.91451" lon="4.6076">
        <ele>374.4</ele>
        <time>2020-12-13T09:45:52Z</time>
      </trkpt>
      <trkpt lat="45.9145" lon="4.6076">
        <ele>374.4</ele>
        <time>2020-12-13T09:45:53Z</time>
      </trkpt>
      <trkpt lat="45.9145" lon="4.6076">
        <ele>374.4</ele>
        <time>2020-12-13T09:45:54Z</time>
      </trkpt>
      <trkpt lat="45.9145" lon="4.6076">
        <ele>374.4</ele>
        <time>2020-12-13T09:45:55Z</time>
      </trkpt>
      <trkpt lat="45.9145" lon="4.6076">
        <ele>374.4</ele>
        <time>2020-12-13T09:45:56Z</time>
      </trkpt>
      <trkpt lat="45.9145" lon="4.6076">
        <ele>374.4</ele>
        <time>2020-12-13T09:45:57Z</time>
      </trkpt>
      <trkpt lat="45.9145" lon="4.60759">
        <ele>374.4</ele>
        <time>2020-12-13T09:45:58Z</time>
      </trkpt>
      <trkpt lat="45.9145" lon="4.60759">
        <ele>374.4</ele>
        <time>2020-12-13T09:45:59Z</time>
      </trkpt>
      <trkpt lat="45.9145" lon="4.60759">
        <ele>374.5</ele>
        <time>2020-12-13T09:46:00Z</time>
      </trkpt>
      <trkpt lat="45.9145" lon="4.60759">
        <ele>374.5</ele>
        <time>2020-12-13T09:46:01Z</time>
      </trkpt>
      <trkpt lat="45.9145" lon="4.60759">
        <ele>374.5</ele>
        <time>2020-12-13T09:46:02Z</time>
      </trkpt>
      <trkpt lat="45.9145" lon="4.60759">
        <ele>374.5</ele>
        <time>2020-12-13T09:46:03Z</time>
      </trkpt>
      <trkpt lat="45.91449" lon="4.60759">
        <ele>374.5</ele>
        <time>2020-12-13T09:46:04Z</time>
      </trkpt>
      <trkpt lat="45.91449" lon="4.60759">
        <ele>374.5</ele>
        <time>2020-12-13T09:46:05Z</time>
      </trkpt>
      <trkpt lat="45.91449" lon="4.60759">
        <ele>374.5</ele>
        <time>2020-12-13T09:46:06Z</time>
      </trkpt>
      <trkpt lat="45.91449" lon="4.60759">
        <ele>374.5</ele>
        <time>2020-12-13T09:46:07Z</time>
      </trkpt>
      <trkpt lat="45.91448" lon="4.60759">
        <ele>374.5</ele>
        <time>2020-12-13T09:46:08Z</time>
      </trkpt>
      <trkpt lat="45.91448" lon="4.60759">
        <ele>374.6</ele>
        <time>2020-12-13T09:46:09Z</time>
      </trkpt>
      <trkpt lat="45.91448" lon="4.60759">
        <ele>374.6</ele>
        <time>2020-12-13T09:46:10Z</time>
      </trkpt>
      <trkpt lat="45.91448" lon="4.60759">
        <ele>374.6</ele>
        <time>2020-12-13T09:46:11Z</time>
      </trkpt>
      <trkpt lat="45.91448" lon="4.60759">
        <ele>374.6</ele>
        <time>2020-12-13T09:46:12Z</time>
      </trkpt>
      <trkpt lat="45.91448" lon="4.60759">
        <ele>374.6</ele>
        <time>2020-12-13T09:46:13Z</time>
      </trkpt>
      <trkpt lat="45.91449" lon="4.6076">
        <ele>374.6</ele>
        <time>2020-12-13T09:46:14Z</time>
      </trkpt>
      <trkpt lat="45.9145" lon="4.60761">
        <ele>374.7</ele>
        <time>2020-12-13T09:46:15Z</time>
      </trkpt>
      <trkpt lat="45.91451" lon="4.60763">
        <ele>374.8</ele>
        <time>2020-12-13T09:46:16Z</time>
      </trkpt>
      <trkpt lat="45.91452" lon="4.60764">
        <ele>374.9</ele>
        <time>2020-12-13T09:46:17Z</time>
      </trkpt>
      <trkpt lat="45.91453" lon="4.60764">
        <ele>374.9</ele>
        <time>2020-12-13T09:46:18Z</time>
      </trkpt>
      <trkpt lat="45.91453" lon="4.60765">
        <ele>375</ele>
        <time>2020-12-13T09:46:19Z</time>
      </trkpt>
      <trkpt lat="45.91454" lon="4.60765">
        <ele>375</ele>
        <time>2020-12-13T09:46:20Z</time>
      </trkpt>
      <trkpt lat="45.91454" lon="4.60766">
        <ele>375.1</ele>
        <time>2020-12-13T09:46:21Z</time>
      </trkpt>
      <trkpt lat="45.91456" lon="4.60767">
        <ele>375.2</ele>
        <time>2020-12-13T09:46:22Z</time>
      </trkpt>
      <trkpt lat="45.91457" lon="4.60768">
        <ele>375.3</ele>
        <time>2020-12-13T09:46:23Z</time>
      </trkpt>
      <trkpt lat="45.91458" lon="4.60769">
        <ele>375.3</ele>
        <time>2020-12-13T09:46:24Z</time>
      </trkpt>
      <trkpt lat="45.91459" lon="4.60769">
        <ele>375.4</ele>
        <time>2020-12-13T09:46:25Z</time>
      </trkpt>
      <trkpt lat="45.9146" lon="4.6077">
        <ele>375.5</ele>
        <time>2020-12-13T09:46:26Z</time>
      </trkpt>
      <trkpt lat="45.9146" lon="4.60769">
        <ele>375.5</ele>
        <time>2020-12-13T09:46:27Z</time>
      </trkpt>
      <trkpt lat="45.91462" lon="4.6077">
        <ele>375.6</ele>
        <time>2020-12-13T09:46:28Z</time>
      </trkpt>
      <trkpt lat="45.91462" lon="4.6077">
        <ele>375.7</ele>
        <time>2020-12-13T09:46:29Z</time>
      </trkpt>
      <trkpt lat="45.91465" lon="4.60772">
        <ele>375.8</ele>
        <time>2020-12-13T09:46:30Z</time>
      </trkpt>
      <trkpt lat="45.91467" lon="4.60773">
        <ele>376</ele>
        <time>2020-12-13T09:46:31Z</time>
      </trkpt>
      <trkpt lat="45.91468" lon="4.60773">
        <ele>376</ele>
        <time>2020-12-13T09:46:32Z</time>
      </trkpt>
      <trkpt lat="45.91468" lon="4.60773">
        <ele>376.1</ele>
        <time>2020-12-13T09:46:33Z</time>
      </trkpt>
      <trkpt lat="45.9147" lon="4.60774">
        <ele>376.2</ele>
        <time>2020-12-13T09:46:34Z</time>
      </trkpt>
      <trkpt lat="45.91471" lon="4.60774">
        <ele>376.3</ele>
        <time>2020-12-13T09:46:35Z</time>
      </trkpt>
      <trkpt lat="45.91472" lon="4.60774">
        <ele>376.3</ele>
        <time>2020-12-13T09:46:36Z</time>
      </trkpt>
      <trkpt lat="45.91474" lon="4.60776">
        <ele>376.5</ele>
        <time>2020-12-13T09:46:37Z</time>
      </trkpt>
      <trkpt lat="45.91475" lon="4.60776">
        <ele>376.6</ele>
        <time>2020-12-13T09:46:38Z</time>
      </trkpt>
      <trkpt lat="45.91476" lon="4.60777">
        <ele>376.6</ele>
        <time>2020-12-13T09:46:39Z</time>
      </trkpt>
      <trkpt lat="45.91477" lon="4.60777">
        <ele>376.7</ele>
        <time>2020-12-13T09:46:40Z</time>
      </trkpt>
      <trkpt lat="45.91478" lon="4.60778">
        <ele>376.7</ele>
        <time>2020-12-13T09:46:41Z</time>
      </trkpt>
      <trkpt lat="45.91479" lon="4.60778">
        <ele>376.8</ele>
        <time>2020-12-13T09:46:42Z</time>
      </trkpt>
      <trkpt lat="45.9148" lon="4.60779">
        <ele>376.9</ele>
        <time>2020-12-13T09:46:43Z</time>
      </trkpt>
      <trkpt lat="45.91481" lon="4.6078">
        <ele>377</ele>
        <time>2020-12-13T09:46:44Z</time>
      </trkpt>
      <trkpt lat="45.91483" lon="4.60781">
        <ele>377.2</ele>
        <time>2020-12-13T09:46:45Z</time>
      </trkpt>
      <trkpt lat="45.91484" lon="4.60782">
        <ele>377.2</ele>
        <time>2020-12-13T09:46:46Z</time>
      </trkpt>
      <trkpt lat="45.91485" lon="4.60782">
        <ele>377.3</ele>
        <time>2020-12-13T09:46:47Z</time>
      </trkpt>
      <trkpt lat="45.91486" lon="4.60784">
        <ele>377.4</ele>
        <time>2020-12-13T09:46:48Z</time>
      </trkpt>
      <trkpt lat="45.91487" lon="4.60785">
        <ele>377.5</ele>
        <time>2020-12-13T09:46:49Z</time>
      </trkpt>
      <trkpt lat="45.91489" lon="4.60785">
        <ele>377.6</ele>
        <time>2020-12-13T09:46:50Z</time>
      </trkpt>
      <trkpt lat="45.9149" lon="4.60786">
        <ele>377.7</ele>
        <time>2020-12-13T09:46:51Z</time>
      </trkpt>
      <trkpt lat="45.91491" lon="4.60786">
        <ele>377.8</ele>
        <time>2020-12-13T09:46:52Z</time>
      </trkpt>
      <trkpt lat="45.91493" lon="4.60788">
        <ele>378</ele>
        <time>2020-12-13T09:46:53Z</time>
      </trkpt>
      <trkpt lat="45.91494" lon="4.60789">
        <ele>378</ele>
        <time>2020-12-13T09:46:54Z</time>
      </trkpt>
      <trkpt lat="45.91494" lon="4.60789">
        <ele>378</ele>
        <time>2020-12-13T09:46:55Z</time>
      </trkpt>
      <trkpt lat="45.91497" lon="4.60791">
        <ele>378.2</ele>
        <time>2020-12-13T09:46:56Z</time>
      </trkpt>
      <trkpt lat="45.91497" lon="4.60791">
        <ele>378.3</ele>
        <time>2020-12-13T09:46:57Z</time>
      </trkpt>
      <trkpt lat="45.91498" lon="4.60792">
        <ele>378.4</ele>
        <time>2020-12-13T09:46:58Z</time>
      </trkpt>
      <trkpt lat="45.915" lon="4.60793">
        <ele>378.5</ele>
        <time>2020-12-13T09:46:59Z</time>
      </trkpt>
      <trkpt lat="45.91501" lon="4.60794">
        <ele>378.6</ele>
        <time>2020-12-13T09:47:00Z</time>
      </trkpt>
      <trkpt lat="45.91502" lon="4.60794">
        <ele>378.6</ele>
        <time>2020-12-13T09:47:01Z</time>
      </trkpt>
      <trkpt lat="45.91503" lon="4.60795">
        <ele>378.7</ele>
        <time>2020-12-13T09:47:02Z</time>
      </trkpt>
      <trkpt lat="45.91504" lon="4.60796">
        <ele>378.8</ele>
        <time>2020-12-13T09:47:03Z</time>
      </trkpt>
      <trkpt lat="45.91505" lon="4.60797">
        <ele>378.9</ele>
        <time>2020-12-13T09:47:04Z</time>
      </trkpt>
      <trkpt lat="45.91507" lon="4.60798">
        <ele>379.1</ele>
        <time>2020-12-13T09:47:05Z</time>
      </trkpt>
      <trkpt lat="45.91508" lon="4.60799">
        <ele>379.2</ele>
        <time>2020-12-13T09:47:06Z</time>
      </trkpt>
      <trkpt lat="45.91509" lon="4.60799">
        <ele>379.2</ele>
        <time>2020-12-13T09:47:08Z</time>
      </trkpt>
      <trkpt lat="45.9151" lon="4.608">
        <ele>379.3</ele>
        <time>2020-12-13T09:47:09Z</time>
      </trkpt>
      <trkpt lat="45.9151" lon="4.608">
        <ele>379.4</ele>
        <time>2020-12-13T09:47:10Z</time>
      </trkpt>
      <trkpt lat="45.91511" lon="4.60801">
        <ele>379.5</ele>
        <time>2020-12-13T09:47:11Z</time>
      </trkpt>
      <trkpt lat="45.91513" lon="4.60802">
        <ele>379.6</ele>
        <time>2020-12-13T09:47:12Z</time>
      </trkpt>
      <trkpt lat="45.91514" lon="4.60803">
        <ele>379.7</ele>
        <time>2020-12-13T09:47:13Z</time>
      </trkpt>
      <trkpt lat="45.91515" lon="4.60804">
        <ele>379.8</ele>
        <time>2020-12-13T09:47:14Z</time>
      </trkpt>
      <trkpt lat="45.91515" lon="4.60805">
        <ele>379.9</ele>
        <time>2020-12-13T09:47:15Z</time>
      </trkpt>
      <trkpt lat="45.91517" lon="4.60805">
        <ele>380</ele>
        <time>2020-12-13T09:47:16Z</time>
      </trkpt>
      <trkpt lat="45.91518" lon="4.60806">
        <ele>380.1</ele>
        <time>2020-12-13T09:47:17Z</time>
      </trkpt>
      <trkpt lat="45.91519" lon="4.60806">
        <ele>380.1</ele>
        <time>2020-12-13T09:47:18Z</time>
      </trkpt>
      <trkpt lat="45.9152" lon="4.60806">
        <ele>380.3</ele>
        <time>2020-12-13T09:47:19Z</time>
      </trkpt>
      <trkpt lat="45.91522" lon="4.60808">
        <ele>380.4</ele>
        <time>2020-12-13T09:47:20Z</time>
      </trkpt>
      <trkpt lat="45.91523" lon="4.60808">
        <ele>380.5</ele>
        <time>2020-12-13T09:47:21Z</time>
      </trkpt>
      <trkpt lat="45.91524" lon="4.60809">
        <ele>380.6</ele>
        <time>2020-12-13T09:47:22Z</time>
      </trkpt>
      <trkpt lat="45.91525" lon="4.60809">
        <ele>380.7</ele>
        <time>2020-12-13T09:47:23Z</time>
      </trkpt>
      <trkpt lat="45.91526" lon="4.60809">
        <ele>380.8</ele>
        <time>2020-12-13T09:47:24Z</time>
      </trkpt>
      <trkpt lat="45.91528" lon="4.60811">
        <ele>381</ele>
        <time>2020-12-13T09:47:25Z</time>
      </trkpt>
      <trkpt lat="45.91529" lon="4.60811">
        <ele>381.1</ele>
        <time>2020-12-13T09:47:26Z</time>
      </trkpt>
      <trkpt lat="45.9153" lon="4.60812">
        <ele>381.1</ele>
        <time>2020-12-13T09:47:27Z</time>
      </trkpt>
      <trkpt lat="45.91532" lon="4.60814">
        <ele>381.3</ele>
        <time>2020-12-13T09:47:28Z</time>
      </trkpt>
      <trkpt lat="45.91532" lon="4.60814">
        <ele>381.4</ele>
        <time>2020-12-13T09:47:29Z</time>
      </trkpt>
      <trkpt lat="45.91533" lon="4.60814">
        <ele>381.5</ele>
        <time>2020-12-13T09:47:30Z</time>
      </trkpt>
      <trkpt lat="45.91534" lon="4.60814">
        <ele>381.6</ele>
        <time>2020-12-13T09:47:31Z</time>
      </trkpt>
      <trkpt lat="45.91535" lon="4.60814">
        <ele>381.7</ele>
        <time>2020-12-13T09:47:32Z</time>
      </trkpt>
      <trkpt lat="45.91536" lon="4.60814">
        <ele>381.8</ele>
        <time>2020-12-13T09:47:33Z</time>
      </trkpt>
      <trkpt lat="45.91539" lon="4.60815">
        <ele>382</ele>
        <time>2020-12-13T09:47:34Z</time>
      </trkpt>
      <trkpt lat="45.9154" lon="4.60815">
        <ele>382.1</ele>
        <time>2020-12-13T09:47:35Z</time>
      </trkpt>
      <trkpt lat="45.9154" lon="4.60816">
        <ele>382.1</ele>
        <time>2020-12-13T09:47:36Z</time>
      </trkpt>
      <trkpt lat="45.91541" lon="4.60817">
        <ele>382.2</ele>
        <time>2020-12-13T09:47:37Z</time>
      </trkpt>
      <trkpt lat="45.91542" lon="4.60819">
        <ele>382.3</ele>
        <time>2020-12-13T09:47:38Z</time>
      </trkpt>
      <trkpt lat="45.91542" lon="4.60821">
        <ele>382.4</ele>
        <time>2020-12-13T09:47:39Z</time>
      </trkpt>
      <trkpt lat="45.91543" lon="4.60823">
        <ele>382.5</ele>
        <time>2020-12-13T09:47:40Z</time>
      </trkpt>
      <trkpt lat="45.91543" lon="4.60825">
        <ele>382.6</ele>
        <time>2020-12-13T09:47:41Z</time>
      </trkpt>
      <trkpt lat="45.91543" lon="4.60827">
        <ele>382.7</ele>
        <time>2020-12-13T09:47:42Z</time>
      </trkpt>
      <trkpt lat="45.91544" lon="4.60828">
        <ele>382.7</ele>
        <time>2020-12-13T09:47:43Z</time>
      </trkpt>
      <trkpt lat="45.91544" lon="4.60832">
        <ele>382.9</ele>
        <time>2020-12-13T09:47:44Z</time>
      </trkpt>
      <trkpt lat="45.91544" lon="4.60833">
        <ele>382.9</ele>
        <time>2020-12-13T09:47:45Z</time>
      </trkpt>
      <trkpt lat="45.91544" lon="4.60834">
        <ele>383</ele>
        <time>2020-12-13T09:47:46Z</time>
      </trkpt>
      <trkpt lat="45.91544" lon="4.60837">
        <ele>383.1</ele>
        <time>2020-12-13T09:47:47Z</time>
      </trkpt>
      <trkpt lat="45.91545" lon="4.60838">
        <ele>383.2</ele>
        <time>2020-12-13T09:47:48Z</time>
      </trkpt>
      <trkpt lat="45.91545" lon="4.6084">
        <ele>383.3</ele>
        <time>2020-12-13T09:47:49Z</time>
      </trkpt>
      <trkpt lat="45.91545" lon="4.60844">
        <ele>383.4</ele>
        <time>2020-12-13T09:47:50Z</time>
      </trkpt>
      <trkpt lat="45.91546" lon="4.60847">
        <ele>383.6</ele>
        <time>2020-12-13T09:47:51Z</time>
      </trkpt>
      <trkpt lat="45.91547" lon="4.60848">
        <ele>383.6</ele>
        <time>2020-12-13T09:47:52Z</time>
      </trkpt>
      <trkpt lat="45.91546" lon="4.6085">
        <ele>383.7</ele>
        <time>2020-12-13T09:47:53Z</time>
      </trkpt>
      <trkpt lat="45.91546" lon="4.60852">
        <ele>383.8</ele>
        <time>2020-12-13T09:47:54Z</time>
      </trkpt>
      <trkpt lat="45.91547" lon="4.60855">
        <ele>383.9</ele>
        <time>2020-12-13T09:47:55Z</time>
      </trkpt>
      <trkpt lat="45.91547" lon="4.60857">
        <ele>383.9</ele>
        <time>2020-12-13T09:47:56Z</time>
      </trkpt>
      <trkpt lat="45.91546" lon="4.60859">
        <ele>384</ele>
        <time>2020-12-13T09:47:57Z</time>
      </trkpt>
      <trkpt lat="45.91545" lon="4.6086">
        <ele>384.1</ele>
        <time>2020-12-13T09:47:58Z</time>
      </trkpt>
      <trkpt lat="45.91545" lon="4.60861">
        <ele>384.1</ele>
        <time>2020-12-13T09:47:59Z</time>
      </trkpt>
      <trkpt lat="45.91544" lon="4.60863">
        <ele>384.2</ele>
        <time>2020-12-13T09:48:00Z</time>
      </trkpt>
      <trkpt lat="45.91543" lon="4.60865">
        <ele>384.3</ele>
        <time>2020-12-13T09:48:01Z</time>
      </trkpt>
      <trkpt lat="45.91544" lon="4.60869">
        <ele>384.4</ele>
        <time>2020-12-13T09:48:02Z</time>
      </trkpt>
      <trkpt lat="45.91544" lon="4.6087">
        <ele>384.4</ele>
        <time>2020-12-13T09:48:03Z</time>
      </trkpt>
      <trkpt lat="45.91544" lon="4.60872">
        <ele>384.5</ele>
        <time>2020-12-13T09:48:04Z</time>
      </trkpt>
      <trkpt lat="45.91544" lon="4.60873">
        <ele>384.5</ele>
        <time>2020-12-13T09:48:05Z</time>
      </trkpt>
      <trkpt lat="45.91544" lon="4.60875">
        <ele>384.6</ele>
        <time>2020-12-13T09:48:06Z</time>
      </trkpt>
      <trkpt lat="45.91545" lon="4.60877">
        <ele>384.7</ele>
        <time>2020-12-13T09:48:07Z</time>
      </trkpt>
      <trkpt lat="45.91545" lon="4.60879">
        <ele>384.7</ele>
        <time>2020-12-13T09:48:08Z</time>
      </trkpt>
      <trkpt lat="45.91545" lon="4.60882">
        <ele>384.8</ele>
        <time>2020-12-13T09:48:09Z</time>
      </trkpt>
      <trkpt lat="45.91546" lon="4.60884">
        <ele>384.9</ele>
        <time>2020-12-13T09:48:10Z</time>
      </trkpt>
      <trkpt lat="45.91546" lon="4.60887">
        <ele>385</ele>
        <time>2020-12-13T09:48:11Z</time>
      </trkpt>
      <trkpt lat="45.91546" lon="4.60888">
        <ele>385</ele>
        <time>2020-12-13T09:48:12Z</time>
      </trkpt>
      <trkpt lat="45.91546" lon="4.6089">
        <ele>385.1</ele>
        <time>2020-12-13T09:48:13Z</time>
      </trkpt>
      <trkpt lat="45.91546" lon="4.60893">
        <ele>385.1</ele>
        <time>2020-12-13T09:48:14Z</time>
      </trkpt>
      <trkpt lat="45.91546" lon="4.60894">
        <ele>385.2</ele>
        <time>2020-12-13T09:48:15Z</time>
      </trkpt>
      <trkpt lat="45.91547" lon="4.60895">
        <ele>385.2</ele>
        <time>2020-12-13T09:48:16Z</time>
      </trkpt>
      <trkpt lat="45.91547" lon="4.60898">
        <ele>385.3</ele>
        <time>2020-12-13T09:48:17Z</time>
      </trkpt>
      <trkpt lat="45.91548" lon="4.60899">
        <ele>385.4</ele>
        <time>2020-12-13T09:48:18Z</time>
      </trkpt>
      <trkpt lat="45.91547" lon="4.609">
        <ele>385.4</ele>
        <time>2020-12-13T09:48:19Z</time>
      </trkpt>
      <trkpt lat="45.91547" lon="4.60901">
        <ele>385.4</ele>
        <time>2020-12-13T09:48:20Z</time>
      </trkpt>
      <trkpt lat="45.91547" lon="4.60904">
        <ele>385.5</ele>
        <time>2020-12-13T09:48:21Z</time>
      </trkpt>
      <trkpt lat="45.91547" lon="4.60906">
        <ele>385.6</ele>
        <time>2020-12-13T09:48:22Z</time>
      </trkpt>
      <trkpt lat="45.91547" lon="4.60909">
        <ele>385.6</ele>
        <time>2020-12-13T09:48:23Z</time>
      </trkpt>
      <trkpt lat="45.91548" lon="4.6091">
        <ele>385.7</ele>
        <time>2020-12-13T09:48:24Z</time>
      </trkpt>
      <trkpt lat="45.91549" lon="4.60911">
        <ele>385.7</ele>
        <time>2020-12-13T09:48:25Z</time>
      </trkpt>
      <trkpt lat="45.91548" lon="4.60913">
        <ele>385.8</ele>
        <time>2020-12-13T09:48:26Z</time>
      </trkpt>
      <trkpt lat="45.91548" lon="4.60915">
        <ele>385.8</ele>
        <time>2020-12-13T09:48:27Z</time>
      </trkpt>
      <trkpt lat="45.91548" lon="4.60917">
        <ele>385.9</ele>
        <time>2020-12-13T09:48:28Z</time>
      </trkpt>
      <trkpt lat="45.91548" lon="4.60919">
        <ele>386</ele>
        <time>2020-12-13T09:48:29Z</time>
      </trkpt>
      <trkpt lat="45.91549" lon="4.60921">
        <ele>386</ele>
        <time>2020-12-13T09:48:30Z</time>
      </trkpt>
      <trkpt lat="45.91549" lon="4.60923">
        <ele>386.1</ele>
        <time>2020-12-13T09:48:31Z</time>
      </trkpt>
      <trkpt lat="45.91549" lon="4.60926">
        <ele>386.2</ele>
        <time>2020-12-13T09:48:32Z</time>
      </trkpt>
      <trkpt lat="45.9155" lon="4.60929">
        <ele>386.2</ele>
        <time>2020-12-13T09:48:33Z</time>
      </trkpt>
      <trkpt lat="45.9155" lon="4.6093">
        <ele>386.3</ele>
        <time>2020-12-13T09:48:34Z</time>
      </trkpt>
      <trkpt lat="45.9155" lon="4.60931">
        <ele>386.3</ele>
        <time>2020-12-13T09:48:35Z</time>
      </trkpt>
      <trkpt lat="45.91551" lon="4.60934">
        <ele>386.4</ele>
        <time>2020-12-13T09:48:36Z</time>
      </trkpt>
      <trkpt lat="45.91551" lon="4.60935">
        <ele>386.4</ele>
        <time>2020-12-13T09:48:37Z</time>
      </trkpt>
      <trkpt lat="45.91552" lon="4.60936">
        <ele>386.5</ele>
        <time>2020-12-13T09:48:38Z</time>
      </trkpt>
      <trkpt lat="45.91551" lon="4.60938">
        <ele>386.5</ele>
        <time>2020-12-13T09:48:39Z</time>
      </trkpt>
      <trkpt lat="45.91552" lon="4.6094">
        <ele>386.6</ele>
        <time>2020-12-13T09:48:40Z</time>
      </trkpt>
      <trkpt lat="45.91552" lon="4.60944">
        <ele>386.7</ele>
        <time>2020-12-13T09:48:41Z</time>
      </trkpt>
      <trkpt lat="45.91552" lon="4.60945">
        <ele>386.7</ele>
        <time>2020-12-13T09:48:42Z</time>
      </trkpt>
      <trkpt lat="45.91552" lon="4.60946">
        <ele>386.8</ele>
        <time>2020-12-13T09:48:43Z</time>
      </trkpt>
      <trkpt lat="45.91553" lon="4.60949">
        <ele>386.9</ele>
        <time>2020-12-13T09:48:44Z</time>
      </trkpt>
      <trkpt lat="45.91553" lon="4.6095">
        <ele>386.9</ele>
        <time>2020-12-13T09:48:45Z</time>
      </trkpt>
      <trkpt lat="45.91554" lon="4.60951">
        <ele>387</ele>
        <time>2020-12-13T09:48:46Z</time>
      </trkpt>
      <trkpt lat="45.91555" lon="4.60953">
        <ele>387.1</ele>
        <time>2020-12-13T09:48:47Z</time>
      </trkpt>
      <trkpt lat="45.91556" lon="4.60953">
        <ele>387.1</ele>
        <time>2020-12-13T09:48:48Z</time>
      </trkpt>
      <trkpt lat="45.91557" lon="4.60953">
        <ele>387.1</ele>
        <time>2020-12-13T09:48:49Z</time>
      </trkpt>
      <trkpt lat="45.91559" lon="4.60954">
        <ele>387.2</ele>
        <time>2020-12-13T09:48:50Z</time>
      </trkpt>
      <trkpt lat="45.9156" lon="4.60954">
        <ele>387.3</ele>
        <time>2020-12-13T09:48:51Z</time>
      </trkpt>
      <trkpt lat="45.91561" lon="4.60954">
        <ele>387.3</ele>
        <time>2020-12-13T09:48:52Z</time>
      </trkpt>
      <trkpt lat="45.91562" lon="4.60954">
        <ele>387.4</ele>
        <time>2020-12-13T09:48:53Z</time>
      </trkpt>
      <trkpt lat="45.91564" lon="4.60954">
        <ele>387.5</ele>
        <time>2020-12-13T09:48:54Z</time>
      </trkpt>
      <trkpt lat="45.91565" lon="4.60954">
        <ele>387.5</ele>
        <time>2020-12-13T09:48:55Z</time>
      </trkpt>
      <trkpt lat="45.91566" lon="4.60955">
        <ele>387.6</ele>
        <time>2020-12-13T09:48:56Z</time>
      </trkpt>
      <trkpt lat="45.91568" lon="4.60956">
        <ele>387.6</ele>
        <time>2020-12-13T09:48:57Z</time>
      </trkpt>
      <trkpt lat="45.91569" lon="4.60956">
        <ele>387.7</ele>
        <time>2020-12-13T09:48:58Z</time>
      </trkpt>
      <trkpt lat="45.91571" lon="4.60955">
        <ele>387.8</ele>
        <time>2020-12-13T09:48:59Z</time>
      </trkpt>
      <trkpt lat="45.91572" lon="4.60955">
        <ele>387.9</ele>
        <time>2020-12-13T09:49:00Z</time>
      </trkpt>
      <trkpt lat="45.91574" lon="4.60955">
        <ele>387.9</ele>
        <time>2020-12-13T09:49:01Z</time>
      </trkpt>
      <trkpt lat="45.91576" lon="4.60954">
        <ele>388</ele>
        <time>2020-12-13T09:49:02Z</time>
      </trkpt>
      <trkpt lat="45.91577" lon="4.60954">
        <ele>388.1</ele>
        <time>2020-12-13T09:49:03Z</time>
      </trkpt>
      <trkpt lat="45.91578" lon="4.60954">
        <ele>388.2</ele>
        <time>2020-12-13T09:49:04Z</time>
      </trkpt>
      <trkpt lat="45.91579" lon="4.60954">
        <ele>388.2</ele>
        <time>2020-12-13T09:49:05Z</time>
      </trkpt>
      <trkpt lat="45.91582" lon="4.60954">
        <ele>388.4</ele>
        <time>2020-12-13T09:49:06Z</time>
      </trkpt>
      <trkpt lat="45.91582" lon="4.60954">
        <ele>388.4</ele>
        <time>2020-12-13T09:49:07Z</time>
      </trkpt>
      <trkpt lat="45.91583" lon="4.60954">
        <ele>388.4</ele>
        <time>2020-12-13T09:49:08Z</time>
      </trkpt>
      <trkpt lat="45.91585" lon="4.60953">
        <ele>388.5</ele>
        <time>2020-12-13T09:49:09Z</time>
      </trkpt>
      <trkpt lat="45.91586" lon="4.60953">
        <ele>388.6</ele>
        <time>2020-12-13T09:49:10Z</time>
      </trkpt>
      <trkpt lat="45.91587" lon="4.60953">
        <ele>388.7</ele>
        <time>2020-12-13T09:49:11Z</time>
      </trkpt>
      <trkpt lat="45.91588" lon="4.60953">
        <ele>388.7</ele>
        <time>2020-12-13T09:49:12Z</time>
      </trkpt>
      <trkpt lat="45.9159" lon="4.60953">
        <ele>388.8</ele>
        <time>2020-12-13T09:49:14Z</time>
      </trkpt>
      <trkpt lat="45.91592" lon="4.60952">
        <ele>389</ele>
        <time>2020-12-13T09:49:15Z</time>
      </trkpt>
      <trkpt lat="45.91593" lon="4.60952">
        <ele>389</ele>
        <time>2020-12-13T09:49:16Z</time>
      </trkpt>
      <trkpt lat="45.91594" lon="4.60952">
        <ele>389.1</ele>
        <time>2020-12-13T09:49:17Z</time>
      </trkpt>
      <trkpt lat="45.91595" lon="4.60952">
        <ele>389.2</ele>
        <time>2020-12-13T09:49:18Z</time>
      </trkpt>
      <trkpt lat="45.91596" lon="4.60952">
        <ele>389.2</ele>
        <time>2020-12-13T09:49:19Z</time>
      </trkpt>
      <trkpt lat="45.91597" lon="4.60952">
        <ele>389.3</ele>
        <time>2020-12-13T09:49:20Z</time>
      </trkpt>
      <trkpt lat="45.916" lon="4.60952">
        <ele>389.5</ele>
        <time>2020-12-13T09:49:21Z</time>
      </trkpt>
      <trkpt lat="45.91601" lon="4.60952">
        <ele>389.5</ele>
        <time>2020-12-13T09:49:22Z</time>
      </trkpt>
      <trkpt lat="45.91601" lon="4.60952">
        <ele>389.6</ele>
        <time>2020-12-13T09:49:23Z</time>
      </trkpt>
      <trkpt lat="45.91603" lon="4.60951">
        <ele>389.7</ele>
        <time>2020-12-13T09:49:24Z</time>
      </trkpt>
      <trkpt lat="45.91604" lon="4.60951">
        <ele>389.8</ele>
        <time>2020-12-13T09:49:25Z</time>
      </trkpt>
      <trkpt lat="45.91605" lon="4.60951">
        <ele>389.8</ele>
        <time>2020-12-13T09:49:26Z</time>
      </trkpt>
      <trkpt lat="45.91606" lon="4.60952">
        <ele>389.9</ele>
        <time>2020-12-13T09:49:27Z</time>
      </trkpt>
      <trkpt lat="45.91607" lon="4.60951">
        <ele>390</ele>
        <time>2020-12-13T09:49:28Z</time>
      </trkpt>
      <trkpt lat="45.91609" lon="4.6095">
        <ele>390.1</ele>
        <time>2020-12-13T09:49:29Z</time>
      </trkpt>
      <trkpt lat="45.9161" lon="4.60949">
        <ele>390.2</ele>
        <time>2020-12-13T09:49:30Z</time>
      </trkpt>
      <trkpt lat="45.91612" lon="4.60949">
        <ele>390.3</ele>
        <time>2020-12-13T09:49:31Z</time>
      </trkpt>
      <trkpt lat="45.91614" lon="4.60949">
        <ele>390.5</ele>
        <time>2020-12-13T09:49:32Z</time>
      </trkpt>
      <trkpt lat="45.91615" lon="4.60949">
        <ele>390.5</ele>
        <time>2020-12-13T09:49:33Z</time>
      </trkpt>
      <trkpt lat="45.91615" lon="4.60948">
        <ele>390.6</ele>
        <time>2020-12-13T09:49:34Z</time>
      </trkpt>
      <trkpt lat="45.91618" lon="4.60949">
        <ele>390.8</ele>
        <time>2020-12-13T09:49:35Z</time>
      </trkpt>
      <trkpt lat="45.9162" lon="4.60949">
        <ele>390.9</ele>
        <time>2020-12-13T09:49:36Z</time>
      </trkpt>
      <trkpt lat="45.91622" lon="4.60948">
        <ele>391.1</ele>
        <time>2020-12-13T09:49:37Z</time>
      </trkpt>
      <trkpt lat="45.91623" lon="4.60948">
        <ele>391.1</ele>
        <time>2020-12-13T09:49:38Z</time>
      </trkpt>
      <trkpt lat="45.91624" lon="4.60948">
        <ele>391.2</ele>
        <time>2020-12-13T09:49:39Z</time>
      </trkpt>
      <trkpt lat="45.91625" lon="4.60947">
        <ele>391.3</ele>
        <time>2020-12-13T09:49:40Z</time>
      </trkpt>
      <trkpt lat="45.91626" lon="4.60947">
        <ele>391.4</ele>
        <time>2020-12-13T09:49:41Z</time>
      </trkpt>
      <trkpt lat="45.91627" lon="4.60947">
        <ele>391.5</ele>
        <time>2020-12-13T09:49:42Z</time>
      </trkpt>
      <trkpt lat="45.91629" lon="4.60947">
        <ele>391.6</ele>
        <time>2020-12-13T09:49:43Z</time>
      </trkpt>
      <trkpt lat="45.9163" lon="4.60946">
        <ele>391.7</ele>
        <time>2020-12-13T09:49:44Z</time>
      </trkpt>
      <trkpt lat="45.91632" lon="4.60945">
        <ele>391.9</ele>
        <time>2020-12-13T09:49:45Z</time>
      </trkpt>
      <trkpt lat="45.91633" lon="4.60945">
        <ele>391.9</ele>
        <time>2020-12-13T09:49:46Z</time>
      </trkpt>
      <trkpt lat="45.91635" lon="4.60944">
        <ele>392.1</ele>
        <time>2020-12-13T09:49:47Z</time>
      </trkpt>
      <trkpt lat="45.91636" lon="4.60944">
        <ele>392.2</ele>
        <time>2020-12-13T09:49:48Z</time>
      </trkpt>
      <trkpt lat="45.91637" lon="4.60945">
        <ele>392.2</ele>
        <time>2020-12-13T09:49:49Z</time>
      </trkpt>
      <trkpt lat="45.91639" lon="4.60945">
        <ele>392.4</ele>
        <time>2020-12-13T09:49:50Z</time>
      </trkpt>
      <trkpt lat="45.9164" lon="4.60945">
        <ele>392.5</ele>
        <time>2020-12-13T09:49:51Z</time>
      </trkpt>
      <trkpt lat="45.9164" lon="4.60945">
        <ele>392.5</ele>
        <time>2020-12-13T09:49:52Z</time>
      </trkpt>
      <trkpt lat="45.91642" lon="4.60944">
        <ele>392.7</ele>
        <time>2020-12-13T09:49:53Z</time>
      </trkpt>
      <trkpt lat="45.91643" lon="4.60945">
        <ele>392.7</ele>
        <time>2020-12-13T09:49:54Z</time>
      </trkpt>
      <trkpt lat="45.91644" lon="4.60945">
        <ele>392.8</ele>
        <time>2020-12-13T09:49:55Z</time>
      </trkpt>
      <trkpt lat="45.91645" lon="4.60945">
        <ele>392.9</ele>
        <time>2020-12-13T09:49:56Z</time>
      </trkpt>
      <trkpt lat="45.91646" lon="4.60944">
        <ele>393</ele>
        <time>2020-12-13T09:49:57Z</time>
      </trkpt>
      <trkpt lat="45.91647" lon="4.60944">
        <ele>393.1</ele>
        <time>2020-12-13T09:49:58Z</time>
      </trkpt>
      <trkpt lat="45.91649" lon="4.60945">
        <ele>393.2</ele>
        <time>2020-12-13T09:49:59Z</time>
      </trkpt>
      <trkpt lat="45.9165" lon="4.60945">
        <ele>393.3</ele>
        <time>2020-12-13T09:50:00Z</time>
      </trkpt>
      <trkpt lat="45.91651" lon="4.60945">
        <ele>393.4</ele>
        <time>2020-12-13T09:50:01Z</time>
      </trkpt>
      <trkpt lat="45.91652" lon="4.60945">
        <ele>393.5</ele>
        <time>2020-12-13T09:50:02Z</time>
      </trkpt>
      <trkpt lat="45.91654" lon="4.60945">
        <ele>393.6</ele>
        <time>2020-12-13T09:50:03Z</time>
      </trkpt>
      <trkpt lat="45.91655" lon="4.60945">
        <ele>393.6</ele>
        <time>2020-12-13T09:50:04Z</time>
      </trkpt>
      <trkpt lat="45.91656" lon="4.60943">
        <ele>393.8</ele>
        <time>2020-12-13T09:50:05Z</time>
      </trkpt>
      <trkpt lat="45.91657" lon="4.60943">
        <ele>393.9</ele>
        <time>2020-12-13T09:50:06Z</time>
      </trkpt>
      <trkpt lat="45.91659" lon="4.60942">
        <ele>394</ele>
        <time>2020-12-13T09:50:07Z</time>
      </trkpt>
      <trkpt lat="45.9166" lon="4.60942">
        <ele>394.1</ele>
        <time>2020-12-13T09:50:08Z</time>
      </trkpt>
      <trkpt lat="45.91661" lon="4.60941">
        <ele>394.2</ele>
        <time>2020-12-13T09:50:09Z</time>
      </trkpt>
      <trkpt lat="45.91663" lon="4.60939">
        <ele>394.3</ele>
        <time>2020-12-13T09:50:10Z</time>
      </trkpt>
      <trkpt lat="45.91664" lon="4.6094">
        <ele>394.4</ele>
        <time>2020-12-13T09:50:11Z</time>
      </trkpt>
      <trkpt lat="45.91666" lon="4.60939">
        <ele>394.5</ele>
        <time>2020-12-13T09:50:12Z</time>
      </trkpt>
      <trkpt lat="45.91667" lon="4.60938">
        <ele>394.6</ele>
        <time>2020-12-13T09:50:13Z</time>
      </trkpt>
      <trkpt lat="45.91668" lon="4.60938">
        <ele>394.6</ele>
        <time>2020-12-13T09:50:14Z</time>
      </trkpt>
      <trkpt lat="45.9167" lon="4.60939">
        <ele>394.8</ele>
        <time>2020-12-13T09:50:15Z</time>
      </trkpt>
      <trkpt lat="45.91671" lon="4.60939">
        <ele>394.8</ele>
        <time>2020-12-13T09:50:16Z</time>
      </trkpt>
      <trkpt lat="45.91672" lon="4.60939">
        <ele>394.9</ele>
        <time>2020-12-13T09:50:17Z</time>
      </trkpt>
      <trkpt lat="45.91674" lon="4.60938">
        <ele>395</ele>
        <time>2020-12-13T09:50:18Z</time>
      </trkpt>
      <trkpt lat="45.91674" lon="4.60938">
        <ele>395</ele>
        <time>2020-12-13T09:50:19Z</time>
      </trkpt>
      <trkpt lat="45.91676" lon="4.60939">
        <ele>395.1</ele>
        <time>2020-12-13T09:50:20Z</time>
      </trkpt>
      <trkpt lat="45.91677" lon="4.60939">
        <ele>395.2</ele>
        <time>2020-12-13T09:50:21Z</time>
      </trkpt>
      <trkpt lat="45.91678" lon="4.60938">
        <ele>395.3</ele>
        <time>2020-12-13T09:50:22Z</time>
      </trkpt>
      <trkpt lat="45.9168" lon="4.60939">
        <ele>395.3</ele>
        <time>2020-12-13T09:50:23Z</time>
      </trkpt>
      <trkpt lat="45.91681" lon="4.6094">
        <ele>395.4</ele>
        <time>2020-12-13T09:50:24Z</time>
      </trkpt>
      <trkpt lat="45.91682" lon="4.6094">
        <ele>395.5</ele>
        <time>2020-12-13T09:50:25Z</time>
      </trkpt>
      <trkpt lat="45.91684" lon="4.6094">
        <ele>395.6</ele>
        <time>2020-12-13T09:50:26Z</time>
      </trkpt>
      <trkpt lat="45.91685" lon="4.60941">
        <ele>395.6</ele>
        <time>2020-12-13T09:50:27Z</time>
      </trkpt>
      <trkpt lat="45.91687" lon="4.60942">
        <ele>395.7</ele>
        <time>2020-12-13T09:50:28Z</time>
      </trkpt>
      <trkpt lat="45.91688" lon="4.60943">
        <ele>395.8</ele>
        <time>2020-12-13T09:50:29Z</time>
      </trkpt>
      <trkpt lat="45.91689" lon="4.60943">
        <ele>395.9</ele>
        <time>2020-12-13T09:50:30Z</time>
      </trkpt>
      <trkpt lat="45.9169" lon="4.60943">
        <ele>395.9</ele>
        <time>2020-12-13T09:50:31Z</time>
      </trkpt>
      <trkpt lat="45.91692" lon="4.60943">
        <ele>396</ele>
        <time>2020-12-13T09:50:32Z</time>
      </trkpt>
      <trkpt lat="45.91694" lon="4.60944">
        <ele>396</ele>
        <time>2020-12-13T09:50:33Z</time>
      </trkpt>
      <trkpt lat="45.91695" lon="4.60944">
        <ele>396.1</ele>
        <time>2020-12-13T09:50:34Z</time>
      </trkpt>
      <trkpt lat="45.91696" lon="4.60946">
        <ele>396.2</ele>
        <time>2020-12-13T09:50:35Z</time>
      </trkpt>
      <trkpt lat="45.91697" lon="4.60946">
        <ele>396.2</ele>
        <time>2020-12-13T09:50:36Z</time>
      </trkpt>
      <trkpt lat="45.91698" lon="4.60947">
        <ele>396.2</ele>
        <time>2020-12-13T09:50:37Z</time>
      </trkpt>
      <trkpt lat="45.91698" lon="4.60948">
        <ele>395.7</ele>
        <time>2020-12-13T09:50:38Z</time>
      </trkpt>
      <trkpt lat="45.917" lon="4.60951">
        <ele>395.6</ele>
        <time>2020-12-13T09:50:39Z</time>
      </trkpt>
      <trkpt lat="45.917" lon="4.60952">
        <ele>395.5</ele>
        <time>2020-12-13T09:50:40Z</time>
      </trkpt>
      <trkpt lat="45.917" lon="4.60953">
        <ele>395.5</ele>
        <time>2020-12-13T09:50:41Z</time>
      </trkpt>
      <trkpt lat="45.91701" lon="4.60953">
        <ele>395.4</ele>
        <time>2020-12-13T09:50:42Z</time>
      </trkpt>
      <trkpt lat="45.91702" lon="4.60955">
        <ele>395.3</ele>
        <time>2020-12-13T09:50:43Z</time>
      </trkpt>
      <trkpt lat="45.91703" lon="4.60956">
        <ele>395.2</ele>
        <time>2020-12-13T09:50:44Z</time>
      </trkpt>
      <trkpt lat="45.91704" lon="4.60958">
        <ele>395.1</ele>
        <time>2020-12-13T09:50:45Z</time>
      </trkpt>
      <trkpt lat="45.91704" lon="4.60959">
        <ele>395.1</ele>
        <time>2020-12-13T09:50:46Z</time>
      </trkpt>
      <trkpt lat="45.91705" lon="4.60961">
        <ele>395</ele>
        <time>2020-12-13T09:50:47Z</time>
      </trkpt>
      <trkpt lat="45.91705" lon="4.60963">
        <ele>394.9</ele>
        <time>2020-12-13T09:50:48Z</time>
      </trkpt>
      <trkpt lat="45.91704" lon="4.60965">
        <ele>394.8</ele>
        <time>2020-12-13T09:50:49Z</time>
      </trkpt>
      <trkpt lat="45.91706" lon="4.60968">
        <ele>394.6</ele>
        <time>2020-12-13T09:50:50Z</time>
      </trkpt>
      <trkpt lat="45.91707" lon="4.6097">
        <ele>394.5</ele>
        <time>2020-12-13T09:50:51Z</time>
      </trkpt>
      <trkpt lat="45.91708" lon="4.60971">
        <ele>394.5</ele>
        <time>2020-12-13T09:50:52Z</time>
      </trkpt>
      <trkpt lat="45.91709" lon="4.60972">
        <ele>394.4</ele>
        <time>2020-12-13T09:50:53Z</time>
      </trkpt>
      <trkpt lat="45.91709" lon="4.60973">
        <ele>394.3</ele>
        <time>2020-12-13T09:50:54Z</time>
      </trkpt>
      <trkpt lat="45.9171" lon="4.60975">
        <ele>394.2</ele>
        <time>2020-12-13T09:50:55Z</time>
      </trkpt>
      <trkpt lat="45.91711" lon="4.60976">
        <ele>394.2</ele>
        <time>2020-12-13T09:50:56Z</time>
      </trkpt>
      <trkpt lat="45.91711" lon="4.60978">
        <ele>394.1</ele>
        <time>2020-12-13T09:50:57Z</time>
      </trkpt>
      <trkpt lat="45.91711" lon="4.6098">
        <ele>394</ele>
        <time>2020-12-13T09:50:58Z</time>
      </trkpt>
      <trkpt lat="45.9171" lon="4.60982">
        <ele>393.9</ele>
        <time>2020-12-13T09:50:59Z</time>
      </trkpt>
      <trkpt lat="45.91711" lon="4.60984">
        <ele>393.8</ele>
        <time>2020-12-13T09:51:00Z</time>
      </trkpt>
      <trkpt lat="45.91713" lon="4.60985">
        <ele>393.7</ele>
        <time>2020-12-13T09:51:01Z</time>
      </trkpt>
      <trkpt lat="45.91713" lon="4.60986">
        <ele>393.6</ele>
        <time>2020-12-13T09:51:02Z</time>
      </trkpt>
      <trkpt lat="45.91714" lon="4.60988">
        <ele>393.5</ele>
        <time>2020-12-13T09:51:03Z</time>
      </trkpt>
      <trkpt lat="45.91715" lon="4.6099">
        <ele>393.4</ele>
        <time>2020-12-13T09:51:04Z</time>
      </trkpt>
      <trkpt lat="45.91715" lon="4.60991">
        <ele>393.4</ele>
        <time>2020-12-13T09:51:05Z</time>
      </trkpt>
      <trkpt lat="45.91716" lon="4.60992">
        <ele>393.3</ele>
        <time>2020-12-13T09:51:06Z</time>
      </trkpt>
      <trkpt lat="45.91716" lon="4.60995">
        <ele>393.2</ele>
        <time>2020-12-13T09:51:07Z</time>
      </trkpt>
      <trkpt lat="45.91717" lon="4.60997">
        <ele>393.1</ele>
        <time>2020-12-13T09:51:08Z</time>
      </trkpt>
      <trkpt lat="45.91717" lon="4.60998">
        <ele>393.1</ele>
        <time>2020-12-13T09:51:09Z</time>
      </trkpt>
      <trkpt lat="45.91718" lon="4.60999">
        <ele>393</ele>
        <time>2020-12-13T09:51:10Z</time>
      </trkpt>
      <trkpt lat="45.91719" lon="4.61001">
        <ele>392.9</ele>
        <time>2020-12-13T09:51:11Z</time>
      </trkpt>
      <trkpt lat="45.91721" lon="4.61003">
        <ele>392.8</ele>
        <time>2020-12-13T09:51:12Z</time>
      </trkpt>
      <trkpt lat="45.91722" lon="4.61004">
        <ele>392.8</ele>
        <time>2020-12-13T09:51:13Z</time>
      </trkpt>
      <trkpt lat="45.91722" lon="4.61005">
        <ele>392.7</ele>
        <time>2020-12-13T09:51:14Z</time>
      </trkpt>
      <trkpt lat="45.91722" lon="4.61007">
        <ele>392.6</ele>
        <time>2020-12-13T09:51:15Z</time>
      </trkpt>
      <trkpt lat="45.91723" lon="4.61008">
        <ele>392.6</ele>
        <time>2020-12-13T09:51:16Z</time>
      </trkpt>
      <trkpt lat="45.91723" lon="4.61009">
        <ele>392.6</ele>
        <time>2020-12-13T09:51:17Z</time>
      </trkpt>
      <trkpt lat="45.91723" lon="4.6101">
        <ele>392.5</ele>
        <time>2020-12-13T09:51:18Z</time>
      </trkpt>
      <trkpt lat="45.91724" lon="4.61012">
        <ele>392.4</ele>
        <time>2020-12-13T09:51:20Z</time>
      </trkpt>
      <trkpt lat="45.91725" lon="4.61014">
        <ele>392.4</ele>
        <time>2020-12-13T09:51:21Z</time>
      </trkpt>
      <trkpt lat="45.91725" lon="4.61015">
        <ele>392.3</ele>
        <time>2020-12-13T09:51:22Z</time>
      </trkpt>
      <trkpt lat="45.91726" lon="4.61018">
        <ele>392.2</ele>
        <time>2020-12-13T09:51:23Z</time>
      </trkpt>
      <trkpt lat="45.91727" lon="4.6102">
        <ele>392.1</ele>
        <time>2020-12-13T09:51:24Z</time>
      </trkpt>
      <trkpt lat="45.91727" lon="4.61021">
        <ele>392.1</ele>
        <time>2020-12-13T09:51:25Z</time>
      </trkpt>
      <trkpt lat="45.91728" lon="4.61022">
        <ele>392</ele>
        <time>2020-12-13T09:51:26Z</time>
      </trkpt>
      <trkpt lat="45.91728" lon="4.61024">
        <ele>392</ele>
        <time>2020-12-13T09:51:27Z</time>
      </trkpt>
      <trkpt lat="45.91729" lon="4.61026">
        <ele>391.9</ele>
        <time>2020-12-13T09:51:28Z</time>
      </trkpt>
      <trkpt lat="45.9173" lon="4.61027">
        <ele>391.9</ele>
        <time>2020-12-13T09:51:29Z</time>
      </trkpt>
      <trkpt lat="45.9173" lon="4.61028">
        <ele>391.8</ele>
        <time>2020-12-13T09:51:30Z</time>
      </trkpt>
      <trkpt lat="45.9173" lon="4.6103">
        <ele>391.8</ele>
        <time>2020-12-13T09:51:31Z</time>
      </trkpt>
      <trkpt lat="45.91731" lon="4.61032">
        <ele>391.7</ele>
        <time>2020-12-13T09:51:32Z</time>
      </trkpt>
      <trkpt lat="45.91731" lon="4.61033">
        <ele>391.7</ele>
        <time>2020-12-13T09:51:33Z</time>
      </trkpt>
      <trkpt lat="45.91732" lon="4.61035">
        <ele>391.6</ele>
        <time>2020-12-13T09:51:34Z</time>
      </trkpt>
      <trkpt lat="45.91733" lon="4.61039">
        <ele>391.5</ele>
        <time>2020-12-13T09:51:35Z</time>
      </trkpt>
      <trkpt lat="45.91733" lon="4.6104">
        <ele>391.5</ele>
        <time>2020-12-13T09:51:36Z</time>
      </trkpt>
      <trkpt lat="45.91734" lon="4.61043">
        <ele>391.4</ele>
        <time>2020-12-13T09:51:37Z</time>
      </trkpt>
      <trkpt lat="45.91735" lon="4.61044">
        <ele>391.3</ele>
        <time>2020-12-13T09:51:38Z</time>
      </trkpt>
      <trkpt lat="45.91735" lon="4.61045">
        <ele>391.3</ele>
        <time>2020-12-13T09:51:39Z</time>
      </trkpt>
      <trkpt lat="45.91735" lon="4.61047">
        <ele>391.2</ele>
        <time>2020-12-13T09:51:40Z</time>
      </trkpt>
      <trkpt lat="45.91736" lon="4.6105">
        <ele>391.2</ele>
        <time>2020-12-13T09:51:41Z</time>
      </trkpt>
      <trkpt lat="45.91737" lon="4.6105">
        <ele>391.1</ele>
        <time>2020-12-13T09:51:42Z</time>
      </trkpt>
      <trkpt lat="45.91737" lon="4.61052">
        <ele>391.1</ele>
        <time>2020-12-13T09:51:43Z</time>
      </trkpt>
      <trkpt lat="45.91738" lon="4.61054">
        <ele>391</ele>
        <time>2020-12-13T09:51:44Z</time>
      </trkpt>
      <trkpt lat="45.91738" lon="4.61056">
        <ele>391</ele>
        <time>2020-12-13T09:51:45Z</time>
      </trkpt>
      <trkpt lat="45.91739" lon="4.61057">
        <ele>390.9</ele>
        <time>2020-12-13T09:51:46Z</time>
      </trkpt>
      <trkpt lat="45.91739" lon="4.61058">
        <ele>390.9</ele>
        <time>2020-12-13T09:51:47Z</time>
      </trkpt>
      <trkpt lat="45.9174" lon="4.61059">
        <ele>390.9</ele>
        <time>2020-12-13T09:51:48Z</time>
      </trkpt>
      <trkpt lat="45.9174" lon="4.61059">
        <ele>390.8</ele>
        <time>2020-12-13T09:51:49Z</time>
      </trkpt>
      <trkpt lat="45.91741" lon="4.61062">
        <ele>390.8</ele>
        <time>2020-12-13T09:51:50Z</time>
      </trkpt>
      <trkpt lat="45.91741" lon="4.61063">
        <ele>390.7</ele>
        <time>2020-12-13T09:51:51Z</time>
      </trkpt>
      <trkpt lat="45.91742" lon="4.61063">
        <ele>390.7</ele>
        <time>2020-12-13T09:51:52Z</time>
      </trkpt>
      <trkpt lat="45.91743" lon="4.61064">
        <ele>390.7</ele>
        <time>2020-12-13T09:51:53Z</time>
      </trkpt>
      <trkpt lat="45.91743" lon="4.61066">
        <ele>390.6</ele>
        <time>2020-12-13T09:51:54Z</time>
      </trkpt>
      <trkpt lat="45.91743" lon="4.61068">
        <ele>390.5</ele>
        <time>2020-12-13T09:51:55Z</time>
      </trkpt>
      <trkpt lat="45.91743" lon="4.61071">
        <ele>390.6</ele>
        <time>2020-12-13T09:51:56Z</time>
      </trkpt>
      <trkpt lat="45.91745" lon="4.61074">
        <ele>390.6</ele>
        <time>2020-12-13T09:51:57Z</time>
      </trkpt>
      <trkpt lat="45.91745" lon="4.61076">
        <ele>390.6</ele>
        <time>2020-12-13T09:51:58Z</time>
      </trkpt>
      <trkpt lat="45.91745" lon="4.61077">
        <ele>390.6</ele>
        <time>2020-12-13T09:51:59Z</time>
      </trkpt>
      <trkpt lat="45.91746" lon="4.61077">
        <ele>390.6</ele>
        <time>2020-12-13T09:52:00Z</time>
      </trkpt>
      <trkpt lat="45.91746" lon="4.61077">
        <ele>390.6</ele>
        <time>2020-12-13T09:52:01Z</time>
      </trkpt>
      <trkpt lat="45.91747" lon="4.61081">
        <ele>390.7</ele>
        <time>2020-12-13T09:52:02Z</time>
      </trkpt>
      <trkpt lat="45.91749" lon="4.61083">
        <ele>390.7</ele>
        <time>2020-12-13T09:52:03Z</time>
      </trkpt>
      <trkpt lat="45.91749" lon="4.61084">
        <ele>390.7</ele>
        <time>2020-12-13T09:52:04Z</time>
      </trkpt>
      <trkpt lat="45.9175" lon="4.61085">
        <ele>390.7</ele>
        <time>2020-12-13T09:52:05Z</time>
      </trkpt>
      <trkpt lat="45.91751" lon="4.61089">
        <ele>390.8</ele>
        <time>2020-12-13T09:52:06Z</time>
      </trkpt>
      <trkpt lat="45.91751" lon="4.61089">
        <ele>390.8</ele>
        <time>2020-12-13T09:52:07Z</time>
      </trkpt>
      <trkpt lat="45.91752" lon="4.6109">
        <ele>390.8</ele>
        <time>2020-12-13T09:52:08Z</time>
      </trkpt>
      <trkpt lat="45.91752" lon="4.61092">
        <ele>390.8</ele>
        <time>2020-12-13T09:52:09Z</time>
      </trkpt>
      <trkpt lat="45.91753" lon="4.61094">
        <ele>390.8</ele>
        <time>2020-12-13T09:52:10Z</time>
      </trkpt>
      <trkpt lat="45.91753" lon="4.61096">
        <ele>390.9</ele>
        <time>2020-12-13T09:52:11Z</time>
      </trkpt>
      <trkpt lat="45.91754" lon="4.61097">
        <ele>390.9</ele>
        <time>2020-12-13T09:52:12Z</time>
      </trkpt>
      <trkpt lat="45.91754" lon="4.61098">
        <ele>390.9</ele>
        <time>2020-12-13T09:52:13Z</time>
      </trkpt>
      <trkpt lat="45.91755" lon="4.611">
        <ele>390.9</ele>
        <time>2020-12-13T09:52:14Z</time>
      </trkpt>
      <trkpt lat="45.91755" lon="4.61102">
        <ele>390.9</ele>
        <time>2020-12-13T09:52:15Z</time>
      </trkpt>
      <trkpt lat="45.91756" lon="4.61103">
        <ele>390.9</ele>
        <time>2020-12-13T09:52:16Z</time>
      </trkpt>
      <trkpt lat="45.91757" lon="4.61106">
        <ele>390.9</ele>
        <time>2020-12-13T09:52:17Z</time>
      </trkpt>
      <trkpt lat="45.91757" lon="4.61107">
        <ele>390.9</ele>
        <time>2020-12-13T09:52:18Z</time>
      </trkpt>
      <trkpt lat="45.91757" lon="4.61108">
        <ele>390.9</ele>
        <time>2020-12-13T09:52:19Z</time>
      </trkpt>
      <trkpt lat="45.91758" lon="4.61111">
        <ele>390.9</ele>
        <time>2020-12-13T09:52:20Z</time>
      </trkpt>
      <trkpt lat="45.91759" lon="4.61112">
        <ele>391</ele>
        <time>2020-12-13T09:52:21Z</time>
      </trkpt>
      <trkpt lat="45.91759" lon="4.61113">
        <ele>391</ele>
        <time>2020-12-13T09:52:22Z</time>
      </trkpt>
      <trkpt lat="45.9176" lon="4.61116">
        <ele>391</ele>
        <time>2020-12-13T09:52:23Z</time>
      </trkpt>
      <trkpt lat="45.9176" lon="4.61117">
        <ele>391</ele>
        <time>2020-12-13T09:52:24Z</time>
      </trkpt>
      <trkpt lat="45.91761" lon="4.61119">
        <ele>391</ele>
        <time>2020-12-13T09:52:25Z</time>
      </trkpt>
      <trkpt lat="45.91761" lon="4.61122">
        <ele>391</ele>
        <time>2020-12-13T09:52:26Z</time>
      </trkpt>
      <trkpt lat="45.91761" lon="4.61124">
        <ele>391</ele>
        <time>2020-12-13T09:52:27Z</time>
      </trkpt>
      <trkpt lat="45.91762" lon="4.61126">
        <ele>391</ele>
        <time>2020-12-13T09:52:28Z</time>
      </trkpt>
      <trkpt lat="45.91762" lon="4.61127">
        <ele>391</ele>
        <time>2020-12-13T09:52:29Z</time>
      </trkpt>
      <trkpt lat="45.91763" lon="4.61128">
        <ele>391</ele>
        <time>2020-12-13T09:52:30Z</time>
      </trkpt>
      <trkpt lat="45.91763" lon="4.61129">
        <ele>391</ele>
        <time>2020-12-13T09:52:31Z</time>
      </trkpt>
      <trkpt lat="45.91764" lon="4.61131">
        <ele>391</ele>
        <time>2020-12-13T09:52:32Z</time>
      </trkpt>
      <trkpt lat="45.91765" lon="4.61133">
        <ele>391.1</ele>
        <time>2020-12-13T09:52:33Z</time>
      </trkpt>
      <trkpt lat="45.91765" lon="4.61135">
        <ele>391.1</ele>
        <time>2020-12-13T09:52:34Z</time>
      </trkpt>
      <trkpt lat="45.91766" lon="4.61136">
        <ele>391.1</ele>
        <time>2020-12-13T09:52:35Z</time>
      </trkpt>
      <trkpt lat="45.91766" lon="4.61137">
        <ele>391.1</ele>
        <time>2020-12-13T09:52:36Z</time>
      </trkpt>
      <trkpt lat="45.91767" lon="4.61142">
        <ele>391.1</ele>
        <time>2020-12-13T09:52:37Z</time>
      </trkpt>
      <trkpt lat="45.91767" lon="4.61143">
        <ele>391.2</ele>
        <time>2020-12-13T09:52:38Z</time>
      </trkpt>
      <trkpt lat="45.91767" lon="4.61146">
        <ele>391.2</ele>
        <time>2020-12-13T09:52:39Z</time>
      </trkpt>
      <trkpt lat="45.91768" lon="4.61147">
        <ele>391.2</ele>
        <time>2020-12-13T09:52:40Z</time>
      </trkpt>
      <trkpt lat="45.91768" lon="4.61149">
        <ele>391.2</ele>
        <time>2020-12-13T09:52:41Z</time>
      </trkpt>
      <trkpt lat="45.91769" lon="4.6115">
        <ele>391.2</ele>
        <time>2020-12-13T09:52:42Z</time>
      </trkpt>
      <trkpt lat="45.9177" lon="4.61153">
        <ele>391.2</ele>
        <time>2020-12-13T09:52:43Z</time>
      </trkpt>
      <trkpt lat="45.9177" lon="4.61154">
        <ele>391.2</ele>
        <time>2020-12-13T09:52:44Z</time>
      </trkpt>
      <trkpt lat="45.9177" lon="4.61157">
        <ele>391.3</ele>
        <time>2020-12-13T09:52:45Z</time>
      </trkpt>
      <trkpt lat="45.9177" lon="4.61158">
        <ele>391.3</ele>
        <time>2020-12-13T09:52:46Z</time>
      </trkpt>
      <trkpt lat="45.91771" lon="4.6116">
        <ele>391.3</ele>
        <time>2020-12-13T09:52:47Z</time>
      </trkpt>
      <trkpt lat="45.91772" lon="4.61161">
        <ele>391.3</ele>
        <time>2020-12-13T09:52:48Z</time>
      </trkpt>
      <trkpt lat="45.91773" lon="4.61164">
        <ele>391.4</ele>
        <time>2020-12-13T09:52:49Z</time>
      </trkpt>
      <trkpt lat="45.91773" lon="4.61165">
        <ele>391.4</ele>
        <time>2020-12-13T09:52:50Z</time>
      </trkpt>
      <trkpt lat="45.91774" lon="4.61166">
        <ele>391.4</ele>
        <time>2020-12-13T09:52:51Z</time>
      </trkpt>
      <trkpt lat="45.91774" lon="4.61168">
        <ele>391.4</ele>
        <time>2020-12-13T09:52:52Z</time>
      </trkpt>
      <trkpt lat="45.91774" lon="4.61171">
        <ele>391.5</ele>
        <time>2020-12-13T09:52:53Z</time>
      </trkpt>
      <trkpt lat="45.91775" lon="4.61172">
        <ele>391.5</ele>
        <time>2020-12-13T09:52:54Z</time>
      </trkpt>
      <trkpt lat="45.91775" lon="4.61173">
        <ele>391.5</ele>
        <time>2020-12-13T09:52:55Z</time>
      </trkpt>
      <trkpt lat="45.91776" lon="4.61174">
        <ele>391.5</ele>
        <time>2020-12-13T09:52:56Z</time>
      </trkpt>
      <trkpt lat="45.91777" lon="4.61176">
        <ele>391.6</ele>
        <time>2020-12-13T09:52:57Z</time>
      </trkpt>
      <trkpt lat="45.91778" lon="4.61178">
        <ele>391.6</ele>
        <time>2020-12-13T09:52:58Z</time>
      </trkpt>
      <trkpt lat="45.91778" lon="4.61179">
        <ele>391.6</ele>
        <time>2020-12-13T09:52:59Z</time>
      </trkpt>
      <trkpt lat="45.9178" lon="4.61182">
        <ele>391.7</ele>
        <time>2020-12-13T09:53:00Z</time>
      </trkpt>
      <trkpt lat="45.9178" lon="4.61183">
        <ele>391.7</ele>
        <time>2020-12-13T09:53:01Z</time>
      </trkpt>
      <trkpt lat="45.9178" lon="4.61184">
        <ele>391.7</ele>
        <time>2020-12-13T09:53:02Z</time>
      </trkpt>
      <trkpt lat="45.91782" lon="4.61186">
        <ele>391.8</ele>
        <time>2020-12-13T09:53:03Z</time>
      </trkpt>
      <trkpt lat="45.91782" lon="4.61188">
        <ele>391.8</ele>
        <time>2020-12-13T09:53:04Z</time>
      </trkpt>
      <trkpt lat="45.91782" lon="4.61189">
        <ele>391.8</ele>
        <time>2020-12-13T09:53:05Z</time>
      </trkpt>
      <trkpt lat="45.91782" lon="4.61191">
        <ele>391.9</ele>
        <time>2020-12-13T09:53:06Z</time>
      </trkpt>
      <trkpt lat="45.91784" lon="4.61192">
        <ele>391.9</ele>
        <time>2020-12-13T09:53:07Z</time>
      </trkpt>
      <trkpt lat="45.91784" lon="4.61194">
        <ele>391.9</ele>
        <time>2020-12-13T09:53:08Z</time>
      </trkpt>
      <trkpt lat="45.91785" lon="4.61195">
        <ele>392</ele>
        <time>2020-12-13T09:53:09Z</time>
      </trkpt>
      <trkpt lat="45.91785" lon="4.61197">
        <ele>392</ele>
        <time>2020-12-13T09:53:10Z</time>
      </trkpt>
      <trkpt lat="45.91785" lon="4.612">
        <ele>392.1</ele>
        <time>2020-12-13T09:53:11Z</time>
      </trkpt>
      <trkpt lat="45.91786" lon="4.61202">
        <ele>392.1</ele>
        <time>2020-12-13T09:53:12Z</time>
      </trkpt>
      <trkpt lat="45.91787" lon="4.61204">
        <ele>392.1</ele>
        <time>2020-12-13T09:53:13Z</time>
      </trkpt>
      <trkpt lat="45.91787" lon="4.61206">
        <ele>392.2</ele>
        <time>2020-12-13T09:53:14Z</time>
      </trkpt>
      <trkpt lat="45.91787" lon="4.61207">
        <ele>392.2</ele>
        <time>2020-12-13T09:53:15Z</time>
      </trkpt>
      <trkpt lat="45.91788" lon="4.6121">
        <ele>392.2</ele>
        <time>2020-12-13T09:53:16Z</time>
      </trkpt>
      <trkpt lat="45.91789" lon="4.6121">
        <ele>392.2</ele>
        <time>2020-12-13T09:53:17Z</time>
      </trkpt>
      <trkpt lat="45.91789" lon="4.61211">
        <ele>392.2</ele>
        <time>2020-12-13T09:53:18Z</time>
      </trkpt>
      <trkpt lat="45.9179" lon="4.61212">
        <ele>392.3</ele>
        <time>2020-12-13T09:53:19Z</time>
      </trkpt>
      <trkpt lat="45.9179" lon="4.61213">
        <ele>392.3</ele>
        <time>2020-12-13T09:53:20Z</time>
      </trkpt>
      <trkpt lat="45.91791" lon="4.61215">
        <ele>392.3</ele>
        <time>2020-12-13T09:53:21Z</time>
      </trkpt>
      <trkpt lat="45.91792" lon="4.61217">
        <ele>392.4</ele>
        <time>2020-12-13T09:53:22Z</time>
      </trkpt>
      <trkpt lat="45.91793" lon="4.61219">
        <ele>392.4</ele>
        <time>2020-12-13T09:53:23Z</time>
      </trkpt>
      <trkpt lat="45.91793" lon="4.61221">
        <ele>392.4</ele>
        <time>2020-12-13T09:53:24Z</time>
      </trkpt>
      <trkpt lat="45.91794" lon="4.61222">
        <ele>392.4</ele>
        <time>2020-12-13T09:53:26Z</time>
      </trkpt>
      <trkpt lat="45.91795" lon="4.61224">
        <ele>392.5</ele>
        <time>2020-12-13T09:53:27Z</time>
      </trkpt>
      <trkpt lat="45.91795" lon="4.61226">
        <ele>392.5</ele>
        <time>2020-12-13T09:53:28Z</time>
      </trkpt>
      <trkpt lat="45.91796" lon="4.61227">
        <ele>392.5</ele>
        <time>2020-12-13T09:53:29Z</time>
      </trkpt>
      <trkpt lat="45.91796" lon="4.61228">
        <ele>392.6</ele>
        <time>2020-12-13T09:53:30Z</time>
      </trkpt>
      <trkpt lat="45.91797" lon="4.6123">
        <ele>392.6</ele>
        <time>2020-12-13T09:53:31Z</time>
      </trkpt>
      <trkpt lat="45.91797" lon="4.61231">
        <ele>392.6</ele>
        <time>2020-12-13T09:53:32Z</time>
      </trkpt>
      <trkpt lat="45.91798" lon="4.61236">
        <ele>392.7</ele>
        <time>2020-12-13T09:53:33Z</time>
      </trkpt>
      <trkpt lat="45.91799" lon="4.6124">
        <ele>392.7</ele>
        <time>2020-12-13T09:53:34Z</time>
      </trkpt>
      <trkpt lat="45.91799" lon="4.61241">
        <ele>392.8</ele>
        <time>2020-12-13T09:53:35Z</time>
      </trkpt>
      <trkpt lat="45.91799" lon="4.61242">
        <ele>392.8</ele>
        <time>2020-12-13T09:53:36Z</time>
      </trkpt>
      <trkpt lat="45.918" lon="4.61243">
        <ele>392.8</ele>
        <time>2020-12-13T09:53:37Z</time>
      </trkpt>
      <trkpt lat="45.91801" lon="4.61245">
        <ele>392.8</ele>
        <time>2020-12-13T09:53:38Z</time>
      </trkpt>
      <trkpt lat="45.91801" lon="4.61248">
        <ele>392.9</ele>
        <time>2020-12-13T09:53:39Z</time>
      </trkpt>
      <trkpt lat="45.91802" lon="4.61249">
        <ele>392.9</ele>
        <time>2020-12-13T09:53:40Z</time>
      </trkpt>
      <trkpt lat="45.91802" lon="4.61251">
        <ele>392.9</ele>
        <time>2020-12-13T09:53:41Z</time>
      </trkpt>
      <trkpt lat="45.91803" lon="4.61254">
        <ele>392.9</ele>
        <time>2020-12-13T09:53:42Z</time>
      </trkpt>
      <trkpt lat="45.91803" lon="4.61255">
        <ele>393</ele>
        <time>2020-12-13T09:53:43Z</time>
      </trkpt>
      <trkpt lat="45.91804" lon="4.61256">
        <ele>393</ele>
        <time>2020-12-13T09:53:44Z</time>
      </trkpt>
      <trkpt lat="45.91804" lon="4.6126">
        <ele>393</ele>
        <time>2020-12-13T09:53:45Z</time>
      </trkpt>
      <trkpt lat="45.91804" lon="4.61261">
        <ele>393</ele>
        <time>2020-12-13T09:53:46Z</time>
      </trkpt>
      <trkpt lat="45.91805" lon="4.61262">
        <ele>393</ele>
        <time>2020-12-13T09:53:47Z</time>
      </trkpt>
      <trkpt lat="45.91806" lon="4.61264">
        <ele>393.1</ele>
        <time>2020-12-13T09:53:48Z</time>
      </trkpt>
      <trkpt lat="45.91806" lon="4.61265">
        <ele>393.1</ele>
        <time>2020-12-13T09:53:49Z</time>
      </trkpt>
      <trkpt lat="45.91807" lon="4.61265">
        <ele>393.1</ele>
        <time>2020-12-13T09:53:50Z</time>
      </trkpt>
      <trkpt lat="45.91807" lon="4.61266">
        <ele>393.1</ele>
        <time>2020-12-13T09:53:51Z</time>
      </trkpt>
      <trkpt lat="45.91808" lon="4.61268">
        <ele>393.1</ele>
        <time>2020-12-13T09:53:52Z</time>
      </trkpt>
      <trkpt lat="45.91809" lon="4.61271">
        <ele>393.1</ele>
        <time>2020-12-13T09:53:53Z</time>
      </trkpt>
      <trkpt lat="45.91809" lon="4.61272">
        <ele>393.1</ele>
        <time>2020-12-13T09:53:54Z</time>
      </trkpt>
      <trkpt lat="45.91809" lon="4.61275">
        <ele>393.1</ele>
        <time>2020-12-13T09:53:55Z</time>
      </trkpt>
      <trkpt lat="45.91809" lon="4.61276">
        <ele>393.1</ele>
        <time>2020-12-13T09:53:56Z</time>
      </trkpt>
      <trkpt lat="45.91809" lon="4.61278">
        <ele>393.2</ele>
        <time>2020-12-13T09:53:57Z</time>
      </trkpt>
      <trkpt lat="45.9181" lon="4.6128">
        <ele>393.2</ele>
        <time>2020-12-13T09:53:58Z</time>
      </trkpt>
      <trkpt lat="45.9181" lon="4.61281">
        <ele>393.2</ele>
        <time>2020-12-13T09:53:59Z</time>
      </trkpt>
      <trkpt lat="45.91811" lon="4.61284">
        <ele>393.2</ele>
        <time>2020-12-13T09:54:00Z</time>
      </trkpt>
      <trkpt lat="45.91812" lon="4.61285">
        <ele>393.2</ele>
        <time>2020-12-13T09:54:01Z</time>
      </trkpt>
      <trkpt lat="45.91812" lon="4.61287">
        <ele>393.2</ele>
        <time>2020-12-13T09:54:02Z</time>
      </trkpt>
      <trkpt lat="45.91812" lon="4.61289">
        <ele>393.2</ele>
        <time>2020-12-13T09:54:03Z</time>
      </trkpt>
      <trkpt lat="45.91813" lon="4.61291">
        <ele>393.2</ele>
        <time>2020-12-13T09:54:04Z</time>
      </trkpt>
      <trkpt lat="45.91813" lon="4.61293">
        <ele>393.2</ele>
        <time>2020-12-13T09:54:05Z</time>
      </trkpt>
      <trkpt lat="45.91813" lon="4.61294">
        <ele>393.2</ele>
        <time>2020-12-13T09:54:06Z</time>
      </trkpt>
      <trkpt lat="45.91814" lon="4.61295">
        <ele>393.2</ele>
        <time>2020-12-13T09:54:07Z</time>
      </trkpt>
      <trkpt lat="45.91814" lon="4.61297">
        <ele>393.2</ele>
        <time>2020-12-13T09:54:08Z</time>
      </trkpt>
      <trkpt lat="45.91815" lon="4.61298">
        <ele>393.3</ele>
        <time>2020-12-13T09:54:09Z</time>
      </trkpt>
      <trkpt lat="45.91815" lon="4.61301">
        <ele>393.3</ele>
        <time>2020-12-13T09:54:10Z</time>
      </trkpt>
      <trkpt lat="45.91816" lon="4.61304">
        <ele>393.3</ele>
        <time>2020-12-13T09:54:11Z</time>
      </trkpt>
      <trkpt lat="45.91816" lon="4.61305">
        <ele>393.3</ele>
        <time>2020-12-13T09:54:12Z</time>
      </trkpt>
      <trkpt lat="45.91816" lon="4.61306">
        <ele>393.3</ele>
        <time>2020-12-13T09:54:13Z</time>
      </trkpt>
      <trkpt lat="45.91816" lon="4.61308">
        <ele>393.3</ele>
        <time>2020-12-13T09:54:14Z</time>
      </trkpt>
      <trkpt lat="45.91817" lon="4.6131">
        <ele>393.3</ele>
        <time>2020-12-13T09:54:15Z</time>
      </trkpt>
      <trkpt lat="45.91817" lon="4.61312">
        <ele>393.3</ele>
        <time>2020-12-13T09:54:16Z</time>
      </trkpt>
      <trkpt lat="45.91816" lon="4.61314">
        <ele>393.3</ele>
        <time>2020-12-13T09:54:17Z</time>
      </trkpt>
      <trkpt lat="45.91817" lon="4.61318">
        <ele>393.3</ele>
        <time>2020-12-13T09:54:18Z</time>
      </trkpt>
      <trkpt lat="45.91817" lon="4.61319">
        <ele>393.3</ele>
        <time>2020-12-13T09:54:19Z</time>
      </trkpt>
      <trkpt lat="45.91817" lon="4.61323">
        <ele>393.3</ele>
        <time>2020-12-13T09:54:20Z</time>
      </trkpt>
      <trkpt lat="45.91817" lon="4.61324">
        <ele>393.3</ele>
        <time>2020-12-13T09:54:21Z</time>
      </trkpt>
      <trkpt lat="45.91817" lon="4.61324">
        <ele>393.3</ele>
        <time>2020-12-13T09:54:22Z</time>
      </trkpt>
      <trkpt lat="45.91818" lon="4.61327">
        <ele>393.3</ele>
        <time>2020-12-13T09:54:23Z</time>
      </trkpt>
      <trkpt lat="45.91819" lon="4.61328">
        <ele>393.3</ele>
        <time>2020-12-13T09:54:24Z</time>
      </trkpt>
      <trkpt lat="45.91819" lon="4.6133">
        <ele>393.3</ele>
        <time>2020-12-13T09:54:25Z</time>
      </trkpt>
      <trkpt lat="45.9182" lon="4.61332">
        <ele>393.3</ele>
        <time>2020-12-13T09:54:26Z</time>
      </trkpt>
      <trkpt lat="45.9182" lon="4.61334">
        <ele>393.3</ele>
        <time>2020-12-13T09:54:27Z</time>
      </trkpt>
      <trkpt lat="45.9182" lon="4.61335">
        <ele>393.3</ele>
        <time>2020-12-13T09:54:28Z</time>
      </trkpt>
      <trkpt lat="45.9182" lon="4.61337">
        <ele>393.3</ele>
        <time>2020-12-13T09:54:29Z</time>
      </trkpt>
      <trkpt lat="45.9182" lon="4.61339">
        <ele>393.3</ele>
        <time>2020-12-13T09:54:30Z</time>
      </trkpt>
      <trkpt lat="45.9182" lon="4.61341">
        <ele>393.3</ele>
        <time>2020-12-13T09:54:31Z</time>
      </trkpt>
      <trkpt lat="45.91821" lon="4.61342">
        <ele>393.3</ele>
        <time>2020-12-13T09:54:32Z</time>
      </trkpt>
      <trkpt lat="45.9182" lon="4.61344">
        <ele>393.3</ele>
        <time>2020-12-13T09:54:33Z</time>
      </trkpt>
      <trkpt lat="45.91821" lon="4.61346">
        <ele>393.3</ele>
        <time>2020-12-13T09:54:34Z</time>
      </trkpt>
      <trkpt lat="45.91821" lon="4.61348">
        <ele>393.3</ele>
        <time>2020-12-13T09:54:35Z</time>
      </trkpt>
      <trkpt lat="45.91821" lon="4.61351">
        <ele>393.3</ele>
        <time>2020-12-13T09:54:36Z</time>
      </trkpt>
      <trkpt lat="45.91822" lon="4.61352">
        <ele>393.3</ele>
        <time>2020-12-13T09:54:37Z</time>
      </trkpt>
      <trkpt lat="45.91822" lon="4.61354">
        <ele>393.3</ele>
        <time>2020-12-13T09:54:38Z</time>
      </trkpt>
      <trkpt lat="45.91822" lon="4.61356">
        <ele>393.3</ele>
        <time>2020-12-13T09:54:39Z</time>
      </trkpt>
      <trkpt lat="45.91822" lon="4.61357">
        <ele>393.3</ele>
        <time>2020-12-13T09:54:40Z</time>
      </trkpt>
      <trkpt lat="45.91823" lon="4.6136">
        <ele>393.3</ele>
        <time>2020-12-13T09:54:41Z</time>
      </trkpt>
      <trkpt lat="45.91823" lon="4.61362">
        <ele>393.3</ele>
        <time>2020-12-13T09:54:42Z</time>
      </trkpt>
      <trkpt lat="45.91823" lon="4.61363">
        <ele>393.3</ele>
        <time>2020-12-13T09:54:43Z</time>
      </trkpt>
      <trkpt lat="45.91824" lon="4.61366">
        <ele>393.3</ele>
        <time>2020-12-13T09:54:44Z</time>
      </trkpt>
      <trkpt lat="45.91824" lon="4.61367">
        <ele>393.3</ele>
        <time>2020-12-13T09:54:45Z</time>
      </trkpt>
      <trkpt lat="45.91824" lon="4.61368">
        <ele>393.3</ele>
        <time>2020-12-13T09:54:46Z</time>
      </trkpt>
      <trkpt lat="45.91823" lon="4.61372">
        <ele>393.3</ele>
        <time>2020-12-13T09:54:47Z</time>
      </trkpt>
      <trkpt lat="45.91823" lon="4.61373">
        <ele>393.3</ele>
        <time>2020-12-13T09:54:48Z</time>
      </trkpt>
      <trkpt lat="45.91823" lon="4.61376">
        <ele>393.3</ele>
        <time>2020-12-13T09:54:49Z</time>
      </trkpt>
      <trkpt lat="45.91823" lon="4.61377">
        <ele>393.3</ele>
        <time>2020-12-13T09:54:50Z</time>
      </trkpt>
      <trkpt lat="45.91823" lon="4.61379">
        <ele>393.3</ele>
        <time>2020-12-13T09:54:51Z</time>
      </trkpt>
      <trkpt lat="45.91824" lon="4.6138">
        <ele>393.3</ele>
        <time>2020-12-13T09:54:52Z</time>
      </trkpt>
      <trkpt lat="45.91825" lon="4.61381">
        <ele>393.3</ele>
        <time>2020-12-13T09:54:53Z</time>
      </trkpt>
      <trkpt lat="45.91825" lon="4.61383">
        <ele>393.3</ele>
        <time>2020-12-13T09:54:54Z</time>
      </trkpt>
      <trkpt lat="45.91824" lon="4.61386">
        <ele>393.3</ele>
        <time>2020-12-13T09:54:55Z</time>
      </trkpt>
      <trkpt lat="45.91825" lon="4.61387">
        <ele>393.3</ele>
        <time>2020-12-13T09:54:56Z</time>
      </trkpt>
      <trkpt lat="45.91825" lon="4.6139">
        <ele>393.3</ele>
        <time>2020-12-13T09:54:57Z</time>
      </trkpt>
      <trkpt lat="45.91825" lon="4.61391">
        <ele>393.3</ele>
        <time>2020-12-13T09:54:58Z</time>
      </trkpt>
      <trkpt lat="45.91825" lon="4.61392">
        <ele>393.4</ele>
        <time>2020-12-13T09:54:59Z</time>
      </trkpt>
      <trkpt lat="45.91825" lon="4.61394">
        <ele>393.4</ele>
        <time>2020-12-13T09:55:00Z</time>
      </trkpt>
      <trkpt lat="45.91825" lon="4.61396">
        <ele>393.4</ele>
        <time>2020-12-13T09:55:01Z</time>
      </trkpt>
      <trkpt lat="45.91826" lon="4.614">
        <ele>393.4</ele>
        <time>2020-12-13T09:55:02Z</time>
      </trkpt>
      <trkpt lat="45.91826" lon="4.61401">
        <ele>393.4</ele>
        <time>2020-12-13T09:55:03Z</time>
      </trkpt>
      <trkpt lat="45.91826" lon="4.61402">
        <ele>393.4</ele>
        <time>2020-12-13T09:55:04Z</time>
      </trkpt>
      <trkpt lat="45.91826" lon="4.61404">
        <ele>393.4</ele>
        <time>2020-12-13T09:55:05Z</time>
      </trkpt>
      <trkpt lat="45.91827" lon="4.61406">
        <ele>393.4</ele>
        <time>2020-12-13T09:55:06Z</time>
      </trkpt>
      <trkpt lat="45.91827" lon="4.61408">
        <ele>393.4</ele>
        <time>2020-12-13T09:55:07Z</time>
      </trkpt>
      <trkpt lat="45.91826" lon="4.61411">
        <ele>393.4</ele>
        <time>2020-12-13T09:55:08Z</time>
      </trkpt>
      <trkpt lat="45.91827" lon="4.61414">
        <ele>393.4</ele>
        <time>2020-12-13T09:55:09Z</time>
      </trkpt>
      <trkpt lat="45.91827" lon="4.61415">
        <ele>393.4</ele>
        <time>2020-12-13T09:55:10Z</time>
      </trkpt>
      <trkpt lat="45.91827" lon="4.61416">
        <ele>393.4</ele>
        <time>2020-12-13T09:55:11Z</time>
      </trkpt>
      <trkpt lat="45.91827" lon="4.6142">
        <ele>393.4</ele>
        <time>2020-12-13T09:55:12Z</time>
      </trkpt>
      <trkpt lat="45.91827" lon="4.61421">
        <ele>393.5</ele>
        <time>2020-12-13T09:55:13Z</time>
      </trkpt>
      <trkpt lat="45.91827" lon="4.61423">
        <ele>393.5</ele>
        <time>2020-12-13T09:55:14Z</time>
      </trkpt>
      <trkpt lat="45.91828" lon="4.61423">
        <ele>393.5</ele>
        <time>2020-12-13T09:55:15Z</time>
      </trkpt>
      <trkpt lat="45.91827" lon="4.61427">
        <ele>393.5</ele>
        <time>2020-12-13T09:55:16Z</time>
      </trkpt>
      <trkpt lat="45.91827" lon="4.61428">
        <ele>393.5</ele>
        <time>2020-12-13T09:55:17Z</time>
      </trkpt>
      <trkpt lat="45.91827" lon="4.61431">
        <ele>393.5</ele>
        <time>2020-12-13T09:55:18Z</time>
      </trkpt>
      <trkpt lat="45.91827" lon="4.61433">
        <ele>393.5</ele>
        <time>2020-12-13T09:55:19Z</time>
      </trkpt>
      <trkpt lat="45.91827" lon="4.61435">
        <ele>393.6</ele>
        <time>2020-12-13T09:55:20Z</time>
      </trkpt>
      <trkpt lat="45.91827" lon="4.61436">
        <ele>393.6</ele>
        <time>2020-12-13T09:55:21Z</time>
      </trkpt>
      <trkpt lat="45.91828" lon="4.61437">
        <ele>393.6</ele>
        <time>2020-12-13T09:55:22Z</time>
      </trkpt>
      <trkpt lat="45.91828" lon="4.61439">
        <ele>393.6</ele>
        <time>2020-12-13T09:55:23Z</time>
      </trkpt>
      <trkpt lat="45.91828" lon="4.61443">
        <ele>393.7</ele>
        <time>2020-12-13T09:55:24Z</time>
      </trkpt>
      <trkpt lat="45.91828" lon="4.61445">
        <ele>393.7</ele>
        <time>2020-12-13T09:55:25Z</time>
      </trkpt>
      <trkpt lat="45.91828" lon="4.61446">
        <ele>393.7</ele>
        <time>2020-12-13T09:55:26Z</time>
      </trkpt>
      <trkpt lat="45.91828" lon="4.61447">
        <ele>393.8</ele>
        <time>2020-12-13T09:55:27Z</time>
      </trkpt>
      <trkpt lat="45.91828" lon="4.6145">
        <ele>393.8</ele>
        <time>2020-12-13T09:55:28Z</time>
      </trkpt>
      <trkpt lat="45.91828" lon="4.61452">
        <ele>393.8</ele>
        <time>2020-12-13T09:55:29Z</time>
      </trkpt>
      <trkpt lat="45.91829" lon="4.61453">
        <ele>393.9</ele>
        <time>2020-12-13T09:55:30Z</time>
      </trkpt>
      <trkpt lat="45.91829" lon="4.61455">
        <ele>393.9</ele>
        <time>2020-12-13T09:55:32Z</time>
      </trkpt>
      <trkpt lat="45.91829" lon="4.61458">
        <ele>394</ele>
        <time>2020-12-13T09:55:33Z</time>
      </trkpt>
      <trkpt lat="45.91829" lon="4.6146">
        <ele>394</ele>
        <time>2020-12-13T09:55:34Z</time>
      </trkpt>
      <trkpt lat="45.91829" lon="4.61461">
        <ele>394</ele>
        <time>2020-12-13T09:55:35Z</time>
      </trkpt>
      <trkpt lat="45.9183" lon="4.61464">
        <ele>394.1</ele>
        <time>2020-12-13T09:55:36Z</time>
      </trkpt>
      <trkpt lat="45.9183" lon="4.61465">
        <ele>394.1</ele>
        <time>2020-12-13T09:55:37Z</time>
      </trkpt>
      <trkpt lat="45.9183" lon="4.61466">
        <ele>394.1</ele>
        <time>2020-12-13T09:55:38Z</time>
      </trkpt>
      <trkpt lat="45.9183" lon="4.6147">
        <ele>394.2</ele>
        <time>2020-12-13T09:55:39Z</time>
      </trkpt>
      <trkpt lat="45.9183" lon="4.61471">
        <ele>394.3</ele>
        <time>2020-12-13T09:55:40Z</time>
      </trkpt>
      <trkpt lat="45.9183" lon="4.61472">
        <ele>394.3</ele>
        <time>2020-12-13T09:55:41Z</time>
      </trkpt>
      <trkpt lat="45.9183" lon="4.61474">
        <ele>394.4</ele>
        <time>2020-12-13T09:55:42Z</time>
      </trkpt>
      <trkpt lat="45.91831" lon="4.61477">
        <ele>394.5</ele>
        <time>2020-12-13T09:55:43Z</time>
      </trkpt>
      <trkpt lat="45.91832" lon="4.6148">
        <ele>394.5</ele>
        <time>2020-12-13T09:55:44Z</time>
      </trkpt>
      <trkpt lat="45.91832" lon="4.61481">
        <ele>394.6</ele>
        <time>2020-12-13T09:55:45Z</time>
      </trkpt>
      <trkpt lat="45.91832" lon="4.61482">
        <ele>394.6</ele>
        <time>2020-12-13T09:55:46Z</time>
      </trkpt>
      <trkpt lat="45.91833" lon="4.61484">
        <ele>394.7</ele>
        <time>2020-12-13T09:55:47Z</time>
      </trkpt>
      <trkpt lat="45.91834" lon="4.61486">
        <ele>394.8</ele>
        <time>2020-12-13T09:55:48Z</time>
      </trkpt>
      <trkpt lat="45.91834" lon="4.61488">
        <ele>394.8</ele>
        <time>2020-12-13T09:55:49Z</time>
      </trkpt>
      <trkpt lat="45.91834" lon="4.61491">
        <ele>394.9</ele>
        <time>2020-12-13T09:55:50Z</time>
      </trkpt>
      <trkpt lat="45.91834" lon="4.61492">
        <ele>395</ele>
        <time>2020-12-13T09:55:51Z</time>
      </trkpt>
      <trkpt lat="45.91835" lon="4.61494">
        <ele>395.1</ele>
        <time>2020-12-13T09:55:52Z</time>
      </trkpt>
      <trkpt lat="45.91836" lon="4.61495">
        <ele>395.1</ele>
        <time>2020-12-13T09:55:53Z</time>
      </trkpt>
      <trkpt lat="45.91837" lon="4.61497">
        <ele>395.2</ele>
        <time>2020-12-13T09:55:54Z</time>
      </trkpt>
      <trkpt lat="45.91837" lon="4.61498">
        <ele>395.2</ele>
        <time>2020-12-13T09:55:55Z</time>
      </trkpt>
      <trkpt lat="45.91838" lon="4.61501">
        <ele>395.3</ele>
        <time>2020-12-13T09:55:56Z</time>
      </trkpt>
      <trkpt lat="45.91838" lon="4.61503">
        <ele>395.4</ele>
        <time>2020-12-13T09:55:57Z</time>
      </trkpt>
      <trkpt lat="45.91839" lon="4.61506">
        <ele>395.5</ele>
        <time>2020-12-13T09:55:58Z</time>
      </trkpt>
      <trkpt lat="45.9184" lon="4.61507">
        <ele>395.5</ele>
        <time>2020-12-13T09:55:59Z</time>
      </trkpt>
      <trkpt lat="45.9184" lon="4.61508">
        <ele>395.6</ele>
        <time>2020-12-13T09:56:00Z</time>
      </trkpt>
      <trkpt lat="45.91841" lon="4.61509">
        <ele>395.6</ele>
        <time>2020-12-13T09:56:01Z</time>
      </trkpt>
      <trkpt lat="45.91842" lon="4.61512">
        <ele>395.7</ele>
        <time>2020-12-13T09:56:02Z</time>
      </trkpt>
      <trkpt lat="45.91843" lon="4.61515">
        <ele>395.8</ele>
        <time>2020-12-13T09:56:03Z</time>
      </trkpt>
      <trkpt lat="45.91844" lon="4.61516">
        <ele>395.9</ele>
        <time>2020-12-13T09:56:04Z</time>
      </trkpt>
      <trkpt lat="45.91845" lon="4.61517">
        <ele>396</ele>
        <time>2020-12-13T09:56:05Z</time>
      </trkpt>
      <trkpt lat="45.91845" lon="4.61518">
        <ele>396</ele>
        <time>2020-12-13T09:56:06Z</time>
      </trkpt>
      <trkpt lat="45.91846" lon="4.61519">
        <ele>396</ele>
        <time>2020-12-13T09:56:07Z</time>
      </trkpt>
      <trkpt lat="45.91846" lon="4.61521">
        <ele>396.1</ele>
        <time>2020-12-13T09:56:08Z</time>
      </trkpt>
      <trkpt lat="45.91847" lon="4.61522">
        <ele>396.2</ele>
        <time>2020-12-13T09:56:09Z</time>
      </trkpt>
      <trkpt lat="45.91848" lon="4.61522">
        <ele>396.2</ele>
        <time>2020-12-13T09:56:10Z</time>
      </trkpt>
      <trkpt lat="45.91848" lon="4.61522">
        <ele>396.2</ele>
        <time>2020-12-13T09:56:11Z</time>
      </trkpt>
      <trkpt lat="45.91848" lon="4.61522">
        <ele>396.2</ele>
        <time>2020-12-13T09:56:12Z</time>
      </trkpt>
      <trkpt lat="45.91849" lon="4.61524">
        <ele>396.3</ele>
        <time>2020-12-13T09:56:13Z</time>
      </trkpt>
      <trkpt lat="45.91847" lon="4.61523">
        <ele>396.4</ele>
        <time>2020-12-13T09:56:14Z</time>
      </trkpt>
      <trkpt lat="45.91848" lon="4.61523">
        <ele>396.4</ele>
        <time>2020-12-13T09:56:15Z</time>
      </trkpt>
      <trkpt lat="45.91848" lon="4.61523">
        <ele>396.4</ele>
        <time>2020-12-13T09:56:16Z</time>
      </trkpt>
      <trkpt lat="45.91849" lon="4.61524">
        <ele>396.4</ele>
        <time>2020-12-13T09:56:17Z</time>
      </trkpt>
      <trkpt lat="45.91849" lon="4.61524">
        <ele>396.4</ele>
        <time>2020-12-13T09:56:18Z</time>
      </trkpt>
      <trkpt lat="45.91849" lon="4.61525">
        <ele>396.5</ele>
        <time>2020-12-13T09:56:19Z</time>
      </trkpt>
      <trkpt lat="45.91849" lon="4.61524">
        <ele>396.5</ele>
        <time>2020-12-13T09:56:20Z</time>
      </trkpt>
      <trkpt lat="45.91849" lon="4.61523">
        <ele>396.5</ele>
        <time>2020-12-13T09:56:21Z</time>
      </trkpt>
      <trkpt lat="45.91849" lon="4.61524">
        <ele>396.6</ele>
        <time>2020-12-13T09:56:22Z</time>
      </trkpt>
      <trkpt lat="45.9185" lon="4.61525">
        <ele>396.6</ele>
        <time>2020-12-13T09:56:23Z</time>
      </trkpt>
      <trkpt lat="45.9185" lon="4.61525">
        <ele>396.6</ele>
        <time>2020-12-13T09:56:24Z</time>
      </trkpt>
      <trkpt lat="45.9185" lon="4.61526">
        <ele>396.6</ele>
        <time>2020-12-13T09:56:25Z</time>
      </trkpt>
      <trkpt lat="45.9185" lon="4.61526">
        <ele>396.6</ele>
        <time>2020-12-13T09:56:26Z</time>
      </trkpt>
      <trkpt lat="45.9185" lon="4.61526">
        <ele>396.6</ele>
        <time>2020-12-13T09:56:27Z</time>
      </trkpt>
      <trkpt lat="45.9185" lon="4.61526">
        <ele>396.6</ele>
        <time>2020-12-13T09:56:28Z</time>
      </trkpt>
      <trkpt lat="45.9185" lon="4.61526">
        <ele>396.7</ele>
        <time>2020-12-13T09:56:29Z</time>
      </trkpt>
      <trkpt lat="45.91851" lon="4.61526">
        <ele>396.7</ele>
        <time>2020-12-13T09:56:30Z</time>
      </trkpt>
      <trkpt lat="45.91851" lon="4.61527">
        <ele>396.7</ele>
        <time>2020-12-13T09:56:31Z</time>
      </trkpt>
      <trkpt lat="45.91851" lon="4.61526">
        <ele>396.7</ele>
        <time>2020-12-13T09:56:32Z</time>
      </trkpt>
      <trkpt lat="45.91851" lon="4.61526">
        <ele>396.7</ele>
        <time>2020-12-13T09:56:33Z</time>
      </trkpt>
      <trkpt lat="45.9185" lon="4.61526">
        <ele>396.7</ele>
        <time>2020-12-13T09:56:34Z</time>
      </trkpt>
      <trkpt lat="45.9185" lon="4.61526">
        <ele>396.7</ele>
        <time>2020-12-13T09:56:35Z</time>
      </trkpt>
      <trkpt lat="45.9185" lon="4.61526">
        <ele>396.7</ele>
        <time>2020-12-13T09:56:36Z</time>
      </trkpt>
      <trkpt lat="45.9185" lon="4.61526">
        <ele>396.7</ele>
        <time>2020-12-13T09:56:37Z</time>
      </trkpt>
      <trkpt lat="45.9185" lon="4.61526">
        <ele>396.7</ele>
        <time>2020-12-13T09:56:38Z</time>
      </trkpt>
      <trkpt lat="45.9185" lon="4.61528">
        <ele>396.8</ele>
        <time>2020-12-13T09:56:39Z</time>
      </trkpt>
      <trkpt lat="45.91851" lon="4.61528">
        <ele>396.8</ele>
        <time>2020-12-13T09:56:40Z</time>
      </trkpt>
      <trkpt lat="45.91852" lon="4.61528">
        <ele>396.8</ele>
        <time>2020-12-13T09:56:41Z</time>
      </trkpt>
      <trkpt lat="45.91853" lon="4.61531">
        <ele>396.9</ele>
        <time>2020-12-13T09:56:42Z</time>
      </trkpt>
      <trkpt lat="45.91854" lon="4.61532">
        <ele>396.9</ele>
        <time>2020-12-13T09:56:43Z</time>
      </trkpt>
      <trkpt lat="45.91854" lon="4.61534">
        <ele>397</ele>
        <time>2020-12-13T09:56:44Z</time>
      </trkpt>
      <trkpt lat="45.91855" lon="4.61536">
        <ele>397</ele>
        <time>2020-12-13T09:56:45Z</time>
      </trkpt>
      <trkpt lat="45.91856" lon="4.61537">
        <ele>397</ele>
        <time>2020-12-13T09:56:46Z</time>
      </trkpt>
      <trkpt lat="45.91857" lon="4.61538">
        <ele>397</ele>
        <time>2020-12-13T09:56:47Z</time>
      </trkpt>
      <trkpt lat="45.91858" lon="4.61539">
        <ele>397</ele>
        <time>2020-12-13T09:56:48Z</time>
      </trkpt>
      <trkpt lat="45.91858" lon="4.61541">
        <ele>397.1</ele>
        <time>2020-12-13T09:56:49Z</time>
      </trkpt>
      <trkpt lat="45.91859" lon="4.61543">
        <ele>397.1</ele>
        <time>2020-12-13T09:56:50Z</time>
      </trkpt>
      <trkpt lat="45.9186" lon="4.61544">
        <ele>397.1</ele>
        <time>2020-12-13T09:56:51Z</time>
      </trkpt>
      <trkpt lat="45.91861" lon="4.61545">
        <ele>397.1</ele>
        <time>2020-12-13T09:56:52Z</time>
      </trkpt>
      <trkpt lat="45.91861" lon="4.61546">
        <ele>397.1</ele>
        <time>2020-12-13T09:56:53Z</time>
      </trkpt>
      <trkpt lat="45.91862" lon="4.61548">
        <ele>397.1</ele>
        <time>2020-12-13T09:56:54Z</time>
      </trkpt>
      <trkpt lat="45.91863" lon="4.61549">
        <ele>397.1</ele>
        <time>2020-12-13T09:56:55Z</time>
      </trkpt>
      <trkpt lat="45.91865" lon="4.6155">
        <ele>397.1</ele>
        <time>2020-12-13T09:56:56Z</time>
      </trkpt>
      <trkpt lat="45.91865" lon="4.61552">
        <ele>397</ele>
        <time>2020-12-13T09:56:57Z</time>
      </trkpt>
      <trkpt lat="45.91866" lon="4.61553">
        <ele>397</ele>
        <time>2020-12-13T09:56:58Z</time>
      </trkpt>
      <trkpt lat="45.91867" lon="4.61555">
        <ele>397</ele>
        <time>2020-12-13T09:56:59Z</time>
      </trkpt>
      <trkpt lat="45.91869" lon="4.61557">
        <ele>397</ele>
        <time>2020-12-13T09:57:00Z</time>
      </trkpt>
      <trkpt lat="45.91869" lon="4.61558">
        <ele>396.9</ele>
        <time>2020-12-13T09:57:01Z</time>
      </trkpt>
      <trkpt lat="45.9187" lon="4.61559">
        <ele>396.9</ele>
        <time>2020-12-13T09:57:02Z</time>
      </trkpt>
      <trkpt lat="45.9187" lon="4.6156">
        <ele>396.9</ele>
        <time>2020-12-13T09:57:03Z</time>
      </trkpt>
      <trkpt lat="45.91871" lon="4.61561">
        <ele>396.8</ele>
        <time>2020-12-13T09:57:04Z</time>
      </trkpt>
      <trkpt lat="45.91872" lon="4.61562">
        <ele>396.8</ele>
        <time>2020-12-13T09:57:05Z</time>
      </trkpt>
      <trkpt lat="45.91873" lon="4.61563">
        <ele>396.7</ele>
        <time>2020-12-13T09:57:06Z</time>
      </trkpt>
      <trkpt lat="45.91874" lon="4.61564">
        <ele>396.6</ele>
        <time>2020-12-13T09:57:07Z</time>
      </trkpt>
      <trkpt lat="45.91875" lon="4.61565">
        <ele>396.6</ele>
        <time>2020-12-13T09:57:08Z</time>
      </trkpt>
      <trkpt lat="45.91876" lon="4.61566">
        <ele>396.5</ele>
        <time>2020-12-13T09:57:09Z</time>
      </trkpt>
      <trkpt lat="45.91877" lon="4.61567">
        <ele>396.5</ele>
        <time>2020-12-13T09:57:10Z</time>
      </trkpt>
      <trkpt lat="45.91878" lon="4.61568">
        <ele>396.4</ele>
        <time>2020-12-13T09:57:11Z</time>
      </trkpt>
      <trkpt lat="45.91879" lon="4.61569">
        <ele>396.3</ele>
        <time>2020-12-13T09:57:12Z</time>
      </trkpt>
      <trkpt lat="45.9188" lon="4.61571">
        <ele>396.3</ele>
        <time>2020-12-13T09:57:13Z</time>
      </trkpt>
      <trkpt lat="45.91881" lon="4.61572">
        <ele>396.2</ele>
        <time>2020-12-13T09:57:14Z</time>
      </trkpt>
      <trkpt lat="45.91882" lon="4.61573">
        <ele>396.1</ele>
        <time>2020-12-13T09:57:15Z</time>
      </trkpt>
      <trkpt lat="45.91883" lon="4.61574">
        <ele>396.1</ele>
        <time>2020-12-13T09:57:16Z</time>
      </trkpt>
      <trkpt lat="45.91884" lon="4.61575">
        <ele>396</ele>
        <time>2020-12-13T09:57:17Z</time>
      </trkpt>
      <trkpt lat="45.91885" lon="4.61575">
        <ele>396</ele>
        <time>2020-12-13T09:57:18Z</time>
      </trkpt>
      <trkpt lat="45.91886" lon="4.61576">
        <ele>395.9</ele>
        <time>2020-12-13T09:57:19Z</time>
      </trkpt>
      <trkpt lat="45.91887" lon="4.61578">
        <ele>395.8</ele>
        <time>2020-12-13T09:57:20Z</time>
      </trkpt>
      <trkpt lat="45.91888" lon="4.61579">
        <ele>395.8</ele>
        <time>2020-12-13T09:57:21Z</time>
      </trkpt>
      <trkpt lat="45.91889" lon="4.61579">
        <ele>395.7</ele>
        <time>2020-12-13T09:57:22Z</time>
      </trkpt>
      <trkpt lat="45.91891" lon="4.6158">
        <ele>395.6</ele>
        <time>2020-12-13T09:57:23Z</time>
      </trkpt>
      <trkpt lat="45.91892" lon="4.61581">
        <ele>395.6</ele>
        <time>2020-12-13T09:57:24Z</time>
      </trkpt>
      <trkpt lat="45.91893" lon="4.61581">
        <ele>395.5</ele>
        <time>2020-12-13T09:57:25Z</time>
      </trkpt>
      <trkpt lat="45.91894" lon="4.61582">
        <ele>395.4</ele>
        <time>2020-12-13T09:57:26Z</time>
      </trkpt>
      <trkpt lat="45.91896" lon="4.61583">
        <ele>395.3</ele>
        <time>2020-12-13T09:57:27Z</time>
      </trkpt>
      <trkpt lat="45.91897" lon="4.61584">
        <ele>395.3</ele>
        <time>2020-12-13T09:57:28Z</time>
      </trkpt>
      <trkpt lat="45.91897" lon="4.61584">
        <ele>395.2</ele>
        <time>2020-12-13T09:57:29Z</time>
      </trkpt>
      <trkpt lat="45.91899" lon="4.61585">
        <ele>395.2</ele>
        <time>2020-12-13T09:57:30Z</time>
      </trkpt>
      <trkpt lat="45.919" lon="4.61587">
        <ele>395</ele>
        <time>2020-12-13T09:57:31Z</time>
      </trkpt>
      <trkpt lat="45.91901" lon="4.61587">
        <ele>395</ele>
        <time>2020-12-13T09:57:32Z</time>
      </trkpt>
      <trkpt lat="45.91903" lon="4.61588">
        <ele>394.9</ele>
        <time>2020-12-13T09:57:33Z</time>
      </trkpt>
      <trkpt lat="45.91904" lon="4.61589">
        <ele>394.8</ele>
        <time>2020-12-13T09:57:34Z</time>
      </trkpt>
      <trkpt lat="45.91904" lon="4.6159">
        <ele>394.8</ele>
        <time>2020-12-13T09:57:35Z</time>
      </trkpt>
      <trkpt lat="45.91905" lon="4.61591">
        <ele>394.7</ele>
        <time>2020-12-13T09:57:36Z</time>
      </trkpt>
      <trkpt lat="45.91907" lon="4.61591">
        <ele>394.6</ele>
        <time>2020-12-13T09:57:38Z</time>
      </trkpt>
      <trkpt lat="45.91909" lon="4.61591">
        <ele>394.5</ele>
        <time>2020-12-13T09:57:39Z</time>
      </trkpt>
      <trkpt lat="45.9191" lon="4.61593">
        <ele>394.4</ele>
        <time>2020-12-13T09:57:40Z</time>
      </trkpt>
      <trkpt lat="45.91911" lon="4.61594">
        <ele>394.3</ele>
        <time>2020-12-13T09:57:41Z</time>
      </trkpt>
      <trkpt lat="45.91912" lon="4.61595">
        <ele>394.3</ele>
        <time>2020-12-13T09:57:42Z</time>
      </trkpt>
      <trkpt lat="45.91915" lon="4.61596">
        <ele>394.1</ele>
        <time>2020-12-13T09:57:43Z</time>
      </trkpt>
      <trkpt lat="45.91915" lon="4.61596">
        <ele>394.1</ele>
        <time>2020-12-13T09:57:44Z</time>
      </trkpt>
      <trkpt lat="45.91916" lon="4.61597">
        <ele>394</ele>
        <time>2020-12-13T09:57:45Z</time>
      </trkpt>
      <trkpt lat="45.91917" lon="4.61598">
        <ele>394</ele>
        <time>2020-12-13T09:57:46Z</time>
      </trkpt>
      <trkpt lat="45.91918" lon="4.61599">
        <ele>393.9</ele>
        <time>2020-12-13T09:57:47Z</time>
      </trkpt>
      <trkpt lat="45.91919" lon="4.616">
        <ele>393.8</ele>
        <time>2020-12-13T09:57:48Z</time>
      </trkpt>
      <trkpt lat="45.91921" lon="4.61601">
        <ele>393.7</ele>
        <time>2020-12-13T09:57:49Z</time>
      </trkpt>
      <trkpt lat="45.91922" lon="4.61601">
        <ele>393.7</ele>
        <time>2020-12-13T09:57:50Z</time>
      </trkpt>
      <trkpt lat="45.91923" lon="4.61602">
        <ele>393.6</ele>
        <time>2020-12-13T09:57:51Z</time>
      </trkpt>
      <trkpt lat="45.91924" lon="4.61603">
        <ele>393.5</ele>
        <time>2020-12-13T09:57:52Z</time>
      </trkpt>
      <trkpt lat="45.91925" lon="4.61604">
        <ele>393.5</ele>
        <time>2020-12-13T09:57:53Z</time>
      </trkpt>
      <trkpt lat="45.91926" lon="4.61605">
        <ele>393.4</ele>
        <time>2020-12-13T09:57:54Z</time>
      </trkpt>
      <trkpt lat="45.91927" lon="4.61606">
        <ele>393.3</ele>
        <time>2020-12-13T09:57:55Z</time>
      </trkpt>
      <trkpt lat="45.91929" lon="4.61607">
        <ele>393.2</ele>
        <time>2020-12-13T09:57:56Z</time>
      </trkpt>
      <trkpt lat="45.9193" lon="4.61608">
        <ele>393.2</ele>
        <time>2020-12-13T09:57:57Z</time>
      </trkpt>
      <trkpt lat="45.91931" lon="4.61609">
        <ele>393.1</ele>
        <time>2020-12-13T09:57:58Z</time>
      </trkpt>
      <trkpt lat="45.91932" lon="4.61609">
        <ele>393.1</ele>
        <time>2020-12-13T09:57:59Z</time>
      </trkpt>
      <trkpt lat="45.91933" lon="4.61611">
        <ele>393</ele>
        <time>2020-12-13T09:58:00Z</time>
      </trkpt>
      <trkpt lat="45.91935" lon="4.61612">
        <ele>392.9</ele>
        <time>2020-12-13T09:58:01Z</time>
      </trkpt>
      <trkpt lat="45.91936" lon="4.61612">
        <ele>392.8</ele>
        <time>2020-12-13T09:58:02Z</time>
      </trkpt>
      <trkpt lat="45.91937" lon="4.61612">
        <ele>392.8</ele>
        <time>2020-12-13T09:58:03Z</time>
      </trkpt>
      <trkpt lat="45.9194" lon="4.61614">
        <ele>392.6</ele>
        <time>2020-12-13T09:58:04Z</time>
      </trkpt>
      <trkpt lat="45.91941" lon="4.61614">
        <ele>392.6</ele>
        <time>2020-12-13T09:58:05Z</time>
      </trkpt>
      <trkpt lat="45.91943" lon="4.61615">
        <ele>392.5</ele>
        <time>2020-12-13T09:58:06Z</time>
      </trkpt>
      <trkpt lat="45.91943" lon="4.61616">
        <ele>392.4</ele>
        <time>2020-12-13T09:58:07Z</time>
      </trkpt>
      <trkpt lat="45.91946" lon="4.61616">
        <ele>392.3</ele>
        <time>2020-12-13T09:58:08Z</time>
      </trkpt>
      <trkpt lat="45.91947" lon="4.61616">
        <ele>392.2</ele>
        <time>2020-12-13T09:58:09Z</time>
      </trkpt>
      <trkpt lat="45.91949" lon="4.61617">
        <ele>392.1</ele>
        <time>2020-12-13T09:58:10Z</time>
      </trkpt>
      <trkpt lat="45.9195" lon="4.61618">
        <ele>392.1</ele>
        <time>2020-12-13T09:58:11Z</time>
      </trkpt>
      <trkpt lat="45.91951" lon="4.61619">
        <ele>392</ele>
        <time>2020-12-13T09:58:12Z</time>
      </trkpt>
      <trkpt lat="45.91953" lon="4.61619">
        <ele>391.9</ele>
        <time>2020-12-13T09:58:13Z</time>
      </trkpt>
      <trkpt lat="45.91954" lon="4.6162">
        <ele>391.8</ele>
        <time>2020-12-13T09:58:14Z</time>
      </trkpt>
      <trkpt lat="45.91954" lon="4.61622">
        <ele>391.8</ele>
        <time>2020-12-13T09:58:15Z</time>
      </trkpt>
      <trkpt lat="45.91955" lon="4.61622">
        <ele>391.7</ele>
        <time>2020-12-13T09:58:16Z</time>
      </trkpt>
      <trkpt lat="45.91957" lon="4.61623">
        <ele>391.6</ele>
        <time>2020-12-13T09:58:17Z</time>
      </trkpt>
      <trkpt lat="45.91958" lon="4.61623">
        <ele>391.5</ele>
        <time>2020-12-13T09:58:18Z</time>
      </trkpt>
      <trkpt lat="45.9196" lon="4.61625">
        <ele>391.5</ele>
        <time>2020-12-13T09:58:19Z</time>
      </trkpt>
      <trkpt lat="45.91961" lon="4.61625">
        <ele>391.4</ele>
        <time>2020-12-13T09:58:20Z</time>
      </trkpt>
      <trkpt lat="45.91961" lon="4.61627">
        <ele>391.3</ele>
        <time>2020-12-13T09:58:21Z</time>
      </trkpt>
      <trkpt lat="45.91963" lon="4.61628">
        <ele>391.2</ele>
        <time>2020-12-13T09:58:22Z</time>
      </trkpt>
      <trkpt lat="45.91964" lon="4.61629">
        <ele>391.2</ele>
        <time>2020-12-13T09:58:23Z</time>
      </trkpt>
      <trkpt lat="45.91965" lon="4.61629">
        <ele>391.1</ele>
        <time>2020-12-13T09:58:24Z</time>
      </trkpt>
      <trkpt lat="45.91966" lon="4.61631">
        <ele>391</ele>
        <time>2020-12-13T09:58:25Z</time>
      </trkpt>
      <trkpt lat="45.91967" lon="4.61631">
        <ele>390.9</ele>
        <time>2020-12-13T09:58:26Z</time>
      </trkpt>
      <trkpt lat="45.91968" lon="4.61632">
        <ele>390.9</ele>
        <time>2020-12-13T09:58:27Z</time>
      </trkpt>
      <trkpt lat="45.9197" lon="4.61632">
        <ele>390.8</ele>
        <time>2020-12-13T09:58:28Z</time>
      </trkpt>
      <trkpt lat="45.91971" lon="4.61634">
        <ele>390.7</ele>
        <time>2020-12-13T09:58:29Z</time>
      </trkpt>
      <trkpt lat="45.91972" lon="4.61635">
        <ele>390.7</ele>
        <time>2020-12-13T09:58:30Z</time>
      </trkpt>
      <trkpt lat="45.91973" lon="4.61635">
        <ele>390.6</ele>
        <time>2020-12-13T09:58:31Z</time>
      </trkpt>
      <trkpt lat="45.91974" lon="4.61636">
        <ele>390.5</ele>
        <time>2020-12-13T09:58:32Z</time>
      </trkpt>
      <trkpt lat="45.91976" lon="4.61637">
        <ele>390.4</ele>
        <time>2020-12-13T09:58:33Z</time>
      </trkpt>
      <trkpt lat="45.91977" lon="4.61637">
        <ele>390.3</ele>
        <time>2020-12-13T09:58:34Z</time>
      </trkpt>
      <trkpt lat="45.91978" lon="4.61638">
        <ele>390.2</ele>
        <time>2020-12-13T09:58:35Z</time>
      </trkpt>
      <trkpt lat="45.9198" lon="4.61638">
        <ele>390.1</ele>
        <time>2020-12-13T09:58:36Z</time>
      </trkpt>
      <trkpt lat="45.91981" lon="4.61638">
        <ele>390.1</ele>
        <time>2020-12-13T09:58:37Z</time>
      </trkpt>
      <trkpt lat="45.91982" lon="4.61638">
        <ele>390</ele>
        <time>2020-12-13T09:58:38Z</time>
      </trkpt>
      <trkpt lat="45.91983" lon="4.61639">
        <ele>389.9</ele>
        <time>2020-12-13T09:58:39Z</time>
      </trkpt>
      <trkpt lat="45.91984" lon="4.6164">
        <ele>389.8</ele>
        <time>2020-12-13T09:58:40Z</time>
      </trkpt>
      <trkpt lat="45.91985" lon="4.6164">
        <ele>389.8</ele>
        <time>2020-12-13T09:58:41Z</time>
      </trkpt>
      <trkpt lat="45.91986" lon="4.6164">
        <ele>389.7</ele>
        <time>2020-12-13T09:58:42Z</time>
      </trkpt>
      <trkpt lat="45.91986" lon="4.61641">
        <ele>389.7</ele>
        <time>2020-12-13T09:58:43Z</time>
      </trkpt>
      <trkpt lat="45.91987" lon="4.61642">
        <ele>389.6</ele>
        <time>2020-12-13T09:58:44Z</time>
      </trkpt>
      <trkpt lat="45.9199" lon="4.61643">
        <ele>389.4</ele>
        <time>2020-12-13T09:58:45Z</time>
      </trkpt>
      <trkpt lat="45.91991" lon="4.61644">
        <ele>389.4</ele>
        <time>2020-12-13T09:58:46Z</time>
      </trkpt>
      <trkpt lat="45.91991" lon="4.61645">
        <ele>389.3</ele>
        <time>2020-12-13T09:58:47Z</time>
      </trkpt>
      <trkpt lat="45.91993" lon="4.61646">
        <ele>389.2</ele>
        <time>2020-12-13T09:58:48Z</time>
      </trkpt>
      <trkpt lat="45.91994" lon="4.61646">
        <ele>389.1</ele>
        <time>2020-12-13T09:58:49Z</time>
      </trkpt>
      <trkpt lat="45.91995" lon="4.61646">
        <ele>389.1</ele>
        <time>2020-12-13T09:58:50Z</time>
      </trkpt>
      <trkpt lat="45.91996" lon="4.61647">
        <ele>389</ele>
        <time>2020-12-13T09:58:51Z</time>
      </trkpt>
      <trkpt lat="45.91998" lon="4.61648">
        <ele>388.9</ele>
        <time>2020-12-13T09:58:52Z</time>
      </trkpt>
      <trkpt lat="45.91999" lon="4.61648">
        <ele>388.8</ele>
        <time>2020-12-13T09:58:53Z</time>
      </trkpt>
      <trkpt lat="45.92001" lon="4.61648">
        <ele>388.7</ele>
        <time>2020-12-13T09:58:54Z</time>
      </trkpt>
      <trkpt lat="45.92003" lon="4.61648">
        <ele>388.6</ele>
        <time>2020-12-13T09:58:55Z</time>
      </trkpt>
      <trkpt lat="45.92004" lon="4.61648">
        <ele>388.5</ele>
        <time>2020-12-13T09:58:56Z</time>
      </trkpt>
      <trkpt lat="45.92005" lon="4.61648">
        <ele>388.4</ele>
        <time>2020-12-13T09:58:57Z</time>
      </trkpt>
      <trkpt lat="45.92007" lon="4.61649">
        <ele>388.3</ele>
        <time>2020-12-13T09:58:58Z</time>
      </trkpt>
      <trkpt lat="45.92008" lon="4.61649">
        <ele>388.3</ele>
        <time>2020-12-13T09:58:59Z</time>
      </trkpt>
      <trkpt lat="45.9201" lon="4.61649">
        <ele>388.1</ele>
        <time>2020-12-13T09:59:00Z</time>
      </trkpt>
      <trkpt lat="45.92012" lon="4.6165">
        <ele>388.1</ele>
        <time>2020-12-13T09:59:01Z</time>
      </trkpt>
      <trkpt lat="45.92013" lon="4.61649">
        <ele>388.1</ele>
        <time>2020-12-13T09:59:02Z</time>
      </trkpt>
      <trkpt lat="45.92014" lon="4.61649">
        <ele>388</ele>
        <time>2020-12-13T09:59:03Z</time>
      </trkpt>
      <trkpt lat="45.92016" lon="4.6165">
        <ele>388</ele>
        <time>2020-12-13T09:59:04Z</time>
      </trkpt>
      <trkpt lat="45.92017" lon="4.6165">
        <ele>388</ele>
        <time>2020-12-13T09:59:05Z</time>
      </trkpt>
      <trkpt lat="45.92018" lon="4.6165">
        <ele>388</ele>
        <time>2020-12-13T09:59:06Z</time>
      </trkpt>
      <trkpt lat="45.92019" lon="4.61651">
        <ele>388</ele>
        <time>2020-12-13T09:59:07Z</time>
      </trkpt>
      <trkpt lat="45.9202" lon="4.61652">
        <ele>387.9</ele>
        <time>2020-12-13T09:59:08Z</time>
      </trkpt>
      <trkpt lat="45.92021" lon="4.61652">
        <ele>387.9</ele>
        <time>2020-12-13T09:59:09Z</time>
      </trkpt>
      <trkpt lat="45.92022" lon="4.61653">
        <ele>387.9</ele>
        <time>2020-12-13T09:59:10Z</time>
      </trkpt>
      <trkpt lat="45.92024" lon="4.61652">
        <ele>387.9</ele>
        <time>2020-12-13T09:59:11Z</time>
      </trkpt>
      <trkpt lat="45.92026" lon="4.61653">
        <ele>387.8</ele>
        <time>2020-12-13T09:59:12Z</time>
      </trkpt>
      <trkpt lat="45.92027" lon="4.61653">
        <ele>387.8</ele>
        <time>2020-12-13T09:59:13Z</time>
      </trkpt>
      <trkpt lat="45.92028" lon="4.61653">
        <ele>387.6</ele>
        <time>2020-12-13T09:59:14Z</time>
      </trkpt>
      <trkpt lat="45.9203" lon="4.61653">
        <ele>387.5</ele>
        <time>2020-12-13T09:59:15Z</time>
      </trkpt>
      <trkpt lat="45.92032" lon="4.61653">
        <ele>387.4</ele>
        <time>2020-12-13T09:59:16Z</time>
      </trkpt>
      <trkpt lat="45.92033" lon="4.61653">
        <ele>387.3</ele>
        <time>2020-12-13T09:59:17Z</time>
      </trkpt>
      <trkpt lat="45.92034" lon="4.61653">
        <ele>387.2</ele>
        <time>2020-12-13T09:59:18Z</time>
      </trkpt>
      <trkpt lat="45.92036" lon="4.61654">
        <ele>387</ele>
        <time>2020-12-13T09:59:19Z</time>
      </trkpt>
      <trkpt lat="45.92037" lon="4.61654">
        <ele>387</ele>
        <time>2020-12-13T09:59:20Z</time>
      </trkpt>
      <trkpt lat="45.92038" lon="4.61654">
        <ele>386.9</ele>
        <time>2020-12-13T09:59:21Z</time>
      </trkpt>
      <trkpt lat="45.9204" lon="4.61653">
        <ele>386.7</ele>
        <time>2020-12-13T09:59:22Z</time>
      </trkpt>
      <trkpt lat="45.92041" lon="4.61653">
        <ele>386.6</ele>
        <time>2020-12-13T09:59:23Z</time>
      </trkpt>
      <trkpt lat="45.92042" lon="4.61654">
        <ele>386.5</ele>
        <time>2020-12-13T09:59:24Z</time>
      </trkpt>
      <trkpt lat="45.92044" lon="4.61654">
        <ele>386.3</ele>
        <time>2020-12-13T09:59:25Z</time>
      </trkpt>
      <trkpt lat="45.92045" lon="4.61655">
        <ele>386.2</ele>
        <time>2020-12-13T09:59:26Z</time>
      </trkpt>
      <trkpt lat="45.92046" lon="4.61653">
        <ele>386.1</ele>
        <time>2020-12-13T09:59:27Z</time>
      </trkpt>
      <trkpt lat="45.92047" lon="4.61654">
        <ele>386</ele>
        <time>2020-12-13T09:59:28Z</time>
      </trkpt>
      <trkpt lat="45.92049" lon="4.61655">
        <ele>385.8</ele>
        <time>2020-12-13T09:59:29Z</time>
      </trkpt>
      <trkpt lat="45.9205" lon="4.61655">
        <ele>385.7</ele>
        <time>2020-12-13T09:59:30Z</time>
      </trkpt>
      <trkpt lat="45.92051" lon="4.61655">
        <ele>385.7</ele>
        <time>2020-12-13T09:59:31Z</time>
      </trkpt>
      <trkpt lat="45.92052" lon="4.61656">
        <ele>385.6</ele>
        <time>2020-12-13T09:59:32Z</time>
      </trkpt>
      <trkpt lat="45.92054" lon="4.61656">
        <ele>385.4</ele>
        <time>2020-12-13T09:59:33Z</time>
      </trkpt>
      <trkpt lat="45.92056" lon="4.61656">
        <ele>385.2</ele>
        <time>2020-12-13T09:59:34Z</time>
      </trkpt>
      <trkpt lat="45.92057" lon="4.61656">
        <ele>385.1</ele>
        <time>2020-12-13T09:59:35Z</time>
      </trkpt>
      <trkpt lat="45.92058" lon="4.61656">
        <ele>385.1</ele>
        <time>2020-12-13T09:59:36Z</time>
      </trkpt>
      <trkpt lat="45.92059" lon="4.61656">
        <ele>384.9</ele>
        <time>2020-12-13T09:59:37Z</time>
      </trkpt>
      <trkpt lat="45.92061" lon="4.61656">
        <ele>384.8</ele>
        <time>2020-12-13T09:59:38Z</time>
      </trkpt>
      <trkpt lat="45.92063" lon="4.61656">
        <ele>384.6</ele>
        <time>2020-12-13T09:59:39Z</time>
      </trkpt>
      <trkpt lat="45.92064" lon="4.61656">
        <ele>384.6</ele>
        <time>2020-12-13T09:59:40Z</time>
      </trkpt>
      <trkpt lat="45.92065" lon="4.61657">
        <ele>384.5</ele>
        <time>2020-12-13T09:59:41Z</time>
      </trkpt>
      <trkpt lat="45.92067" lon="4.61657">
        <ele>384.3</ele>
        <time>2020-12-13T09:59:42Z</time>
      </trkpt>
      <trkpt lat="45.92068" lon="4.61657">
        <ele>384.2</ele>
        <time>2020-12-13T09:59:44Z</time>
      </trkpt>
      <trkpt lat="45.92068" lon="4.61658">
        <ele>384.1</ele>
        <time>2020-12-13T09:59:45Z</time>
      </trkpt>
      <trkpt lat="45.9207" lon="4.61658">
        <ele>384</ele>
        <time>2020-12-13T09:59:46Z</time>
      </trkpt>
      <trkpt lat="45.92071" lon="4.61658">
        <ele>383.9</ele>
        <time>2020-12-13T09:59:47Z</time>
      </trkpt>
      <trkpt lat="45.92072" lon="4.61657">
        <ele>383.8</ele>
        <time>2020-12-13T09:59:48Z</time>
      </trkpt>
      <trkpt lat="45.92074" lon="4.61658">
        <ele>383.7</ele>
        <time>2020-12-13T09:59:49Z</time>
      </trkpt>
      <trkpt lat="45.92075" lon="4.61658">
        <ele>383.6</ele>
        <time>2020-12-13T09:59:50Z</time>
      </trkpt>
      <trkpt lat="45.92077" lon="4.61659">
        <ele>383.4</ele>
        <time>2020-12-13T09:59:51Z</time>
      </trkpt>
      <trkpt lat="45.92079" lon="4.61659">
        <ele>383.3</ele>
        <time>2020-12-13T09:59:52Z</time>
      </trkpt>
      <trkpt lat="45.92079" lon="4.61659">
        <ele>383.2</ele>
        <time>2020-12-13T09:59:53Z</time>
      </trkpt>
      <trkpt lat="45.92082" lon="4.61659">
        <ele>383</ele>
        <time>2020-12-13T09:59:54Z</time>
      </trkpt>
      <trkpt lat="45.92082" lon="4.61659">
        <ele>383</ele>
        <time>2020-12-13T09:59:56Z</time>
      </trkpt>
      <trkpt lat="45.92083" lon="4.61659">
        <ele>382.9</ele>
        <time>2020-12-13T09:59:57Z</time>
      </trkpt>
      <trkpt lat="45.92084" lon="4.6166">
        <ele>382.8</ele>
        <time>2020-12-13T09:59:58Z</time>
      </trkpt>
      <trkpt lat="45.92086" lon="4.61659">
        <ele>382.6</ele>
        <time>2020-12-13T09:59:59Z</time>
      </trkpt>
      <trkpt lat="45.92087" lon="4.61659">
        <ele>382.5</ele>
        <time>2020-12-13T10:00:00Z</time>
      </trkpt>
      <trkpt lat="45.9209" lon="4.6166">
        <ele>382.2</ele>
        <time>2020-12-13T10:00:01Z</time>
      </trkpt>
      <trkpt lat="45.92091" lon="4.6166">
        <ele>382.2</ele>
        <time>2020-12-13T10:00:02Z</time>
      </trkpt>
      <trkpt lat="45.92091" lon="4.61662">
        <ele>382</ele>
        <time>2020-12-13T10:00:03Z</time>
      </trkpt>
      <trkpt lat="45.92092" lon="4.61663">
        <ele>382</ele>
        <time>2020-12-13T10:00:04Z</time>
      </trkpt>
      <trkpt lat="45.92093" lon="4.61663">
        <ele>381.9</ele>
        <time>2020-12-13T10:00:05Z</time>
      </trkpt>
      <trkpt lat="45.92095" lon="4.61663">
        <ele>381.7</ele>
        <time>2020-12-13T10:00:06Z</time>
      </trkpt>
      <trkpt lat="45.92096" lon="4.61664">
        <ele>381.6</ele>
        <time>2020-12-13T10:00:07Z</time>
      </trkpt>
      <trkpt lat="45.92099" lon="4.61664">
        <ele>381.4</ele>
        <time>2020-12-13T10:00:08Z</time>
      </trkpt>
      <trkpt lat="45.92099" lon="4.61664">
        <ele>381.4</ele>
        <time>2020-12-13T10:00:09Z</time>
      </trkpt>
      <trkpt lat="45.921" lon="4.61664">
        <ele>381.3</ele>
        <time>2020-12-13T10:00:10Z</time>
      </trkpt>
      <trkpt lat="45.92102" lon="4.61665">
        <ele>381.2</ele>
        <time>2020-12-13T10:00:11Z</time>
      </trkpt>
      <trkpt lat="45.92103" lon="4.61665">
        <ele>381.1</ele>
        <time>2020-12-13T10:00:12Z</time>
      </trkpt>
      <trkpt lat="45.92104" lon="4.61666">
        <ele>381.1</ele>
        <time>2020-12-13T10:00:13Z</time>
      </trkpt>
      <trkpt lat="45.92105" lon="4.61666">
        <ele>381</ele>
        <time>2020-12-13T10:00:14Z</time>
      </trkpt>
      <trkpt lat="45.92107" lon="4.61665">
        <ele>380.9</ele>
        <time>2020-12-13T10:00:15Z</time>
      </trkpt>
      <trkpt lat="45.92108" lon="4.61666">
        <ele>380.8</ele>
        <time>2020-12-13T10:00:16Z</time>
      </trkpt>
      <trkpt lat="45.9211" lon="4.61667">
        <ele>380.7</ele>
        <time>2020-12-13T10:00:17Z</time>
      </trkpt>
      <trkpt lat="45.92112" lon="4.61667">
        <ele>380.6</ele>
        <time>2020-12-13T10:00:18Z</time>
      </trkpt>
      <trkpt lat="45.92113" lon="4.61668">
        <ele>380.5</ele>
        <time>2020-12-13T10:00:19Z</time>
      </trkpt>
      <trkpt lat="45.92113" lon="4.61668">
        <ele>380.5</ele>
        <time>2020-12-13T10:00:20Z</time>
      </trkpt>
      <trkpt lat="45.92114" lon="4.61668">
        <ele>380.4</ele>
        <time>2020-12-13T10:00:21Z</time>
      </trkpt>
      <trkpt lat="45.92115" lon="4.61669">
        <ele>380.3</ele>
        <time>2020-12-13T10:00:22Z</time>
      </trkpt>
      <trkpt lat="45.92117" lon="4.61669">
        <ele>380.2</ele>
        <time>2020-12-13T10:00:23Z</time>
      </trkpt>
      <trkpt lat="45.92118" lon="4.6167">
        <ele>380.2</ele>
        <time>2020-12-13T10:00:24Z</time>
      </trkpt>
      <trkpt lat="45.92118" lon="4.61671">
        <ele>380.1</ele>
        <time>2020-12-13T10:00:25Z</time>
      </trkpt>
      <trkpt lat="45.92119" lon="4.61671">
        <ele>380</ele>
        <time>2020-12-13T10:00:26Z</time>
      </trkpt>
      <trkpt lat="45.92121" lon="4.61671">
        <ele>379.9</ele>
        <time>2020-12-13T10:00:27Z</time>
      </trkpt>
      <trkpt lat="45.92123" lon="4.61672">
        <ele>379.9</ele>
        <time>2020-12-13T10:00:28Z</time>
      </trkpt>
      <trkpt lat="45.92123" lon="4.61672">
        <ele>379.8</ele>
        <time>2020-12-13T10:00:29Z</time>
      </trkpt>
      <trkpt lat="45.92125" lon="4.61673">
        <ele>379.7</ele>
        <time>2020-12-13T10:00:30Z</time>
      </trkpt>
      <trkpt lat="45.92128" lon="4.61672">
        <ele>379.6</ele>
        <time>2020-12-13T10:00:31Z</time>
      </trkpt>
      <trkpt lat="45.92128" lon="4.61673">
        <ele>379.5</ele>
        <time>2020-12-13T10:00:32Z</time>
      </trkpt>
      <trkpt lat="45.92129" lon="4.61674">
        <ele>379.5</ele>
        <time>2020-12-13T10:00:33Z</time>
      </trkpt>
      <trkpt lat="45.92131" lon="4.61674">
        <ele>379.4</ele>
        <time>2020-12-13T10:00:34Z</time>
      </trkpt>
      <trkpt lat="45.92133" lon="4.61674">
        <ele>379.2</ele>
        <time>2020-12-13T10:00:35Z</time>
      </trkpt>
      <trkpt lat="45.92133" lon="4.61675">
        <ele>379.2</ele>
        <time>2020-12-13T10:00:36Z</time>
      </trkpt>
      <trkpt lat="45.92134" lon="4.61675">
        <ele>379.1</ele>
        <time>2020-12-13T10:00:37Z</time>
      </trkpt>
      <trkpt lat="45.92136" lon="4.61675">
        <ele>379</ele>
        <time>2020-12-13T10:00:38Z</time>
      </trkpt>
      <trkpt lat="45.92138" lon="4.61676">
        <ele>379</ele>
        <time>2020-12-13T10:00:39Z</time>
      </trkpt>
      <trkpt lat="45.92139" lon="4.61677">
        <ele>378.9</ele>
        <time>2020-12-13T10:00:40Z</time>
      </trkpt>
      <trkpt lat="45.9214" lon="4.61676">
        <ele>378.8</ele>
        <time>2020-12-13T10:00:41Z</time>
      </trkpt>
      <trkpt lat="45.92142" lon="4.61676">
        <ele>378.7</ele>
        <time>2020-12-13T10:00:42Z</time>
      </trkpt>
      <trkpt lat="45.92143" lon="4.61677">
        <ele>378.6</ele>
        <time>2020-12-13T10:00:43Z</time>
      </trkpt>
      <trkpt lat="45.92144" lon="4.61677">
        <ele>378.6</ele>
        <time>2020-12-13T10:00:44Z</time>
      </trkpt>
      <trkpt lat="45.92145" lon="4.61678">
        <ele>378.5</ele>
        <time>2020-12-13T10:00:45Z</time>
      </trkpt>
      <trkpt lat="45.92146" lon="4.61678">
        <ele>378.4</ele>
        <time>2020-12-13T10:00:46Z</time>
      </trkpt>
      <trkpt lat="45.92148" lon="4.61678">
        <ele>378.4</ele>
        <time>2020-12-13T10:00:47Z</time>
      </trkpt>
      <trkpt lat="45.92149" lon="4.61678">
        <ele>378.3</ele>
        <time>2020-12-13T10:00:48Z</time>
      </trkpt>
      <trkpt lat="45.92151" lon="4.61679">
        <ele>378.2</ele>
        <time>2020-12-13T10:00:49Z</time>
      </trkpt>
      <trkpt lat="45.92152" lon="4.61679">
        <ele>378.2</ele>
        <time>2020-12-13T10:00:50Z</time>
      </trkpt>
      <trkpt lat="45.92152" lon="4.61679">
        <ele>378.1</ele>
        <time>2020-12-13T10:00:51Z</time>
      </trkpt>
      <trkpt lat="45.92153" lon="4.61679">
        <ele>378.1</ele>
        <time>2020-12-13T10:00:52Z</time>
      </trkpt>
      <trkpt lat="45.92156" lon="4.61679">
        <ele>378</ele>
        <time>2020-12-13T10:00:53Z</time>
      </trkpt>
      <trkpt lat="45.92157" lon="4.61679">
        <ele>377.9</ele>
        <time>2020-12-13T10:00:54Z</time>
      </trkpt>
      <trkpt lat="45.92157" lon="4.61679">
        <ele>377.9</ele>
        <time>2020-12-13T10:00:55Z</time>
      </trkpt>
      <trkpt lat="45.9216" lon="4.61679">
        <ele>377.8</ele>
        <time>2020-12-13T10:00:56Z</time>
      </trkpt>
      <trkpt lat="45.9216" lon="4.6168">
        <ele>377.7</ele>
        <time>2020-12-13T10:00:57Z</time>
      </trkpt>
      <trkpt lat="45.92162" lon="4.6168">
        <ele>377.7</ele>
        <time>2020-12-13T10:00:58Z</time>
      </trkpt>
      <trkpt lat="45.92164" lon="4.6168">
        <ele>377.6</ele>
        <time>2020-12-13T10:00:59Z</time>
      </trkpt>
      <trkpt lat="45.92165" lon="4.61681">
        <ele>377.5</ele>
        <time>2020-12-13T10:01:00Z</time>
      </trkpt>
      <trkpt lat="45.92166" lon="4.61681">
        <ele>377.5</ele>
        <time>2020-12-13T10:01:01Z</time>
      </trkpt>
      <trkpt lat="45.92167" lon="4.61681">
        <ele>377.4</ele>
        <time>2020-12-13T10:01:02Z</time>
      </trkpt>
      <trkpt lat="45.92168" lon="4.61681">
        <ele>377.4</ele>
        <time>2020-12-13T10:01:03Z</time>
      </trkpt>
      <trkpt lat="45.92169" lon="4.61682">
        <ele>377.4</ele>
        <time>2020-12-13T10:01:04Z</time>
      </trkpt>
      <trkpt lat="45.9217" lon="4.61682">
        <ele>377.3</ele>
        <time>2020-12-13T10:01:05Z</time>
      </trkpt>
      <trkpt lat="45.92171" lon="4.61683">
        <ele>377.3</ele>
        <time>2020-12-13T10:01:06Z</time>
      </trkpt>
      <trkpt lat="45.92173" lon="4.61684">
        <ele>377.2</ele>
        <time>2020-12-13T10:01:07Z</time>
      </trkpt>
      <trkpt lat="45.92174" lon="4.61683">
        <ele>377.2</ele>
        <time>2020-12-13T10:01:08Z</time>
      </trkpt>
      <trkpt lat="45.92176" lon="4.61684">
        <ele>377.1</ele>
        <time>2020-12-13T10:01:09Z</time>
      </trkpt>
      <trkpt lat="45.92177" lon="4.61684">
        <ele>377.1</ele>
        <time>2020-12-13T10:01:10Z</time>
      </trkpt>
      <trkpt lat="45.92179" lon="4.61685">
        <ele>377</ele>
        <time>2020-12-13T10:01:11Z</time>
      </trkpt>
      <trkpt lat="45.9218" lon="4.61686">
        <ele>377</ele>
        <time>2020-12-13T10:01:12Z</time>
      </trkpt>
      <trkpt lat="45.92182" lon="4.61686">
        <ele>376.9</ele>
        <time>2020-12-13T10:01:13Z</time>
      </trkpt>
      <trkpt lat="45.92183" lon="4.61686">
        <ele>376.9</ele>
        <time>2020-12-13T10:01:14Z</time>
      </trkpt>
      <trkpt lat="45.92183" lon="4.61686">
        <ele>376.8</ele>
        <time>2020-12-13T10:01:15Z</time>
      </trkpt>
      <trkpt lat="45.92185" lon="4.61687">
        <ele>376.8</ele>
        <time>2020-12-13T10:01:16Z</time>
      </trkpt>
      <trkpt lat="45.92187" lon="4.61688">
        <ele>376.7</ele>
        <time>2020-12-13T10:01:17Z</time>
      </trkpt>
      <trkpt lat="45.92188" lon="4.61688">
        <ele>376.7</ele>
        <time>2020-12-13T10:01:18Z</time>
      </trkpt>
      <trkpt lat="45.9219" lon="4.61688">
        <ele>376.6</ele>
        <time>2020-12-13T10:01:19Z</time>
      </trkpt>
      <trkpt lat="45.92192" lon="4.61688">
        <ele>376.6</ele>
        <time>2020-12-13T10:01:20Z</time>
      </trkpt>
      <trkpt lat="45.92193" lon="4.61688">
        <ele>376.6</ele>
        <time>2020-12-13T10:01:21Z</time>
      </trkpt>
      <trkpt lat="45.92194" lon="4.61689">
        <ele>376.5</ele>
        <time>2020-12-13T10:01:22Z</time>
      </trkpt>
      <trkpt lat="45.92195" lon="4.61689">
        <ele>376.5</ele>
        <time>2020-12-13T10:01:23Z</time>
      </trkpt>
      <trkpt lat="45.92196" lon="4.6169">
        <ele>376.4</ele>
        <time>2020-12-13T10:01:24Z</time>
      </trkpt>
      <trkpt lat="45.92197" lon="4.61691">
        <ele>376.4</ele>
        <time>2020-12-13T10:01:25Z</time>
      </trkpt>
      <trkpt lat="45.92199" lon="4.61691">
        <ele>376.4</ele>
        <time>2020-12-13T10:01:26Z</time>
      </trkpt>
      <trkpt lat="45.92199" lon="4.6169">
        <ele>376.3</ele>
        <time>2020-12-13T10:01:27Z</time>
      </trkpt>
      <trkpt lat="45.92202" lon="4.61691">
        <ele>376.3</ele>
        <time>2020-12-13T10:01:28Z</time>
      </trkpt>
      <trkpt lat="45.92203" lon="4.61691">
        <ele>376.2</ele>
        <time>2020-12-13T10:01:29Z</time>
      </trkpt>
      <trkpt lat="45.92205" lon="4.61691">
        <ele>376.2</ele>
        <time>2020-12-13T10:01:30Z</time>
      </trkpt>
      <trkpt lat="45.92205" lon="4.61691">
        <ele>376.2</ele>
        <time>2020-12-13T10:01:31Z</time>
      </trkpt>
      <trkpt lat="45.92206" lon="4.6169">
        <ele>376.1</ele>
        <time>2020-12-13T10:01:32Z</time>
      </trkpt>
      <trkpt lat="45.92208" lon="4.61691">
        <ele>376.1</ele>
        <time>2020-12-13T10:01:33Z</time>
      </trkpt>
      <trkpt lat="45.92209" lon="4.61691">
        <ele>376</ele>
        <time>2020-12-13T10:01:34Z</time>
      </trkpt>
      <trkpt lat="45.92209" lon="4.61691">
        <ele>376</ele>
        <time>2020-12-13T10:01:35Z</time>
      </trkpt>
      <trkpt lat="45.9221" lon="4.6169">
        <ele>376</ele>
        <time>2020-12-13T10:01:36Z</time>
      </trkpt>
      <trkpt lat="45.92212" lon="4.61691">
        <ele>376</ele>
        <time>2020-12-13T10:01:37Z</time>
      </trkpt>
      <trkpt lat="45.92214" lon="4.61691">
        <ele>375.9</ele>
        <time>2020-12-13T10:01:38Z</time>
      </trkpt>
      <trkpt lat="45.92215" lon="4.6169">
        <ele>375.9</ele>
        <time>2020-12-13T10:01:39Z</time>
      </trkpt>
      <trkpt lat="45.92216" lon="4.61691">
        <ele>375.9</ele>
        <time>2020-12-13T10:01:40Z</time>
      </trkpt>
      <trkpt lat="45.92218" lon="4.6169">
        <ele>375.8</ele>
        <time>2020-12-13T10:01:41Z</time>
      </trkpt>
      <trkpt lat="45.92219" lon="4.6169">
        <ele>375.8</ele>
        <time>2020-12-13T10:01:42Z</time>
      </trkpt>
      <trkpt lat="45.9222" lon="4.6169">
        <ele>375.8</ele>
        <time>2020-12-13T10:01:43Z</time>
      </trkpt>
      <trkpt lat="45.92221" lon="4.6169">
        <ele>375.7</ele>
        <time>2020-12-13T10:01:44Z</time>
      </trkpt>
      <trkpt lat="45.92222" lon="4.6169">
        <ele>375.7</ele>
        <time>2020-12-13T10:01:45Z</time>
      </trkpt>
      <trkpt lat="45.92223" lon="4.61691">
        <ele>375.7</ele>
        <time>2020-12-13T10:01:46Z</time>
      </trkpt>
      <trkpt lat="45.92225" lon="4.6169">
        <ele>375.6</ele>
        <time>2020-12-13T10:01:47Z</time>
      </trkpt>
      <trkpt lat="45.92227" lon="4.61691">
        <ele>375.6</ele>
        <time>2020-12-13T10:01:48Z</time>
      </trkpt>
      <trkpt lat="45.9223" lon="4.61691">
        <ele>375.5</ele>
        <time>2020-12-13T10:01:50Z</time>
      </trkpt>
      <trkpt lat="45.9223" lon="4.61691">
        <ele>375.5</ele>
        <time>2020-12-13T10:01:51Z</time>
      </trkpt>
      <trkpt lat="45.92231" lon="4.61691">
        <ele>375.5</ele>
        <time>2020-12-13T10:01:52Z</time>
      </trkpt>
      <trkpt lat="45.92232" lon="4.61691">
        <ele>375.4</ele>
        <time>2020-12-13T10:01:53Z</time>
      </trkpt>
      <trkpt lat="45.92234" lon="4.61691">
        <ele>375.4</ele>
        <time>2020-12-13T10:01:54Z</time>
      </trkpt>
      <trkpt lat="45.92235" lon="4.61691">
        <ele>375.3</ele>
        <time>2020-12-13T10:01:55Z</time>
      </trkpt>
      <trkpt lat="45.92236" lon="4.6169">
        <ele>375.3</ele>
        <time>2020-12-13T10:01:56Z</time>
      </trkpt>
      <trkpt lat="45.92237" lon="4.6169">
        <ele>375.2</ele>
        <time>2020-12-13T10:01:57Z</time>
      </trkpt>
      <trkpt lat="45.92239" lon="4.6169">
        <ele>375.2</ele>
        <time>2020-12-13T10:01:58Z</time>
      </trkpt>
      <trkpt lat="45.9224" lon="4.6169">
        <ele>375.1</ele>
        <time>2020-12-13T10:01:59Z</time>
      </trkpt>
      <trkpt lat="45.92242" lon="4.61691">
        <ele>375.1</ele>
        <time>2020-12-13T10:02:00Z</time>
      </trkpt>
      <trkpt lat="45.92244" lon="4.61691">
        <ele>375</ele>
        <time>2020-12-13T10:02:01Z</time>
      </trkpt>
      <trkpt lat="45.92244" lon="4.61691">
        <ele>375</ele>
        <time>2020-12-13T10:02:02Z</time>
      </trkpt>
      <trkpt lat="45.92245" lon="4.61691">
        <ele>375</ele>
        <time>2020-12-13T10:02:03Z</time>
      </trkpt>
      <trkpt lat="45.92247" lon="4.61691">
        <ele>374.9</ele>
        <time>2020-12-13T10:02:04Z</time>
      </trkpt>
      <trkpt lat="45.9225" lon="4.61691">
        <ele>374.8</ele>
        <time>2020-12-13T10:02:05Z</time>
      </trkpt>
      <trkpt lat="45.92251" lon="4.61691">
        <ele>374.7</ele>
        <time>2020-12-13T10:02:06Z</time>
      </trkpt>
      <trkpt lat="45.92251" lon="4.61691">
        <ele>374.7</ele>
        <time>2020-12-13T10:02:07Z</time>
      </trkpt>
      <trkpt lat="45.92253" lon="4.61692">
        <ele>374.7</ele>
        <time>2020-12-13T10:02:08Z</time>
      </trkpt>
      <trkpt lat="45.92254" lon="4.61692">
        <ele>374.6</ele>
        <time>2020-12-13T10:02:09Z</time>
      </trkpt>
      <trkpt lat="45.92257" lon="4.61692">
        <ele>374.5</ele>
        <time>2020-12-13T10:02:10Z</time>
      </trkpt>
      <trkpt lat="45.92258" lon="4.61692">
        <ele>374.4</ele>
        <time>2020-12-13T10:02:11Z</time>
      </trkpt>
      <trkpt lat="45.92259" lon="4.61692">
        <ele>374.4</ele>
        <time>2020-12-13T10:02:12Z</time>
      </trkpt>
      <trkpt lat="45.92259" lon="4.61693">
        <ele>374.4</ele>
        <time>2020-12-13T10:02:13Z</time>
      </trkpt>
      <trkpt lat="45.92261" lon="4.61693">
        <ele>374.3</ele>
        <time>2020-12-13T10:02:14Z</time>
      </trkpt>
      <trkpt lat="45.92264" lon="4.61694">
        <ele>374.2</ele>
        <time>2020-12-13T10:02:15Z</time>
      </trkpt>
      <trkpt lat="45.92265" lon="4.61694">
        <ele>374.1</ele>
        <time>2020-12-13T10:02:16Z</time>
      </trkpt>
      <trkpt lat="45.92267" lon="4.61695">
        <ele>374</ele>
        <time>2020-12-13T10:02:17Z</time>
      </trkpt>
      <trkpt lat="45.92268" lon="4.61695">
        <ele>374</ele>
        <time>2020-12-13T10:02:18Z</time>
      </trkpt>
      <trkpt lat="45.92268" lon="4.61695">
        <ele>373.9</ele>
        <time>2020-12-13T10:02:19Z</time>
      </trkpt>
      <trkpt lat="45.92269" lon="4.61695">
        <ele>373.9</ele>
        <time>2020-12-13T10:02:20Z</time>
      </trkpt>
      <trkpt lat="45.9227" lon="4.61695">
        <ele>373.9</ele>
        <time>2020-12-13T10:02:21Z</time>
      </trkpt>
      <trkpt lat="45.92271" lon="4.61696">
        <ele>373.8</ele>
        <time>2020-12-13T10:02:22Z</time>
      </trkpt>
      <trkpt lat="45.92272" lon="4.61696">
        <ele>373.8</ele>
        <time>2020-12-13T10:02:23Z</time>
      </trkpt>
      <trkpt lat="45.92274" lon="4.61696">
        <ele>373.7</ele>
        <time>2020-12-13T10:02:24Z</time>
      </trkpt>
      <trkpt lat="45.92275" lon="4.61697">
        <ele>373.6</ele>
        <time>2020-12-13T10:02:25Z</time>
      </trkpt>
      <trkpt lat="45.92278" lon="4.61698">
        <ele>373.5</ele>
        <time>2020-12-13T10:02:26Z</time>
      </trkpt>
      <trkpt lat="45.92279" lon="4.61698">
        <ele>373.4</ele>
        <time>2020-12-13T10:02:27Z</time>
      </trkpt>
      <trkpt lat="45.9228" lon="4.61698">
        <ele>373.3</ele>
        <time>2020-12-13T10:02:28Z</time>
      </trkpt>
      <trkpt lat="45.92281" lon="4.61698">
        <ele>373.3</ele>
        <time>2020-12-13T10:02:29Z</time>
      </trkpt>
      <trkpt lat="45.92282" lon="4.61698">
        <ele>373.2</ele>
        <time>2020-12-13T10:02:30Z</time>
      </trkpt>
      <trkpt lat="45.92282" lon="4.61699">
        <ele>373.2</ele>
        <time>2020-12-13T10:02:31Z</time>
      </trkpt>
      <trkpt lat="45.92284" lon="4.61698">
        <ele>373.1</ele>
        <time>2020-12-13T10:02:32Z</time>
      </trkpt>
      <trkpt lat="45.92285" lon="4.61699">
        <ele>373</ele>
        <time>2020-12-13T10:02:33Z</time>
      </trkpt>
      <trkpt lat="45.92287" lon="4.617">
        <ele>372.9</ele>
        <time>2020-12-13T10:02:34Z</time>
      </trkpt>
      <trkpt lat="45.92288" lon="4.61701">
        <ele>372.9</ele>
        <time>2020-12-13T10:02:35Z</time>
      </trkpt>
      <trkpt lat="45.92289" lon="4.617">
        <ele>372.8</ele>
        <time>2020-12-13T10:02:36Z</time>
      </trkpt>
      <trkpt lat="45.9229" lon="4.61701">
        <ele>372.7</ele>
        <time>2020-12-13T10:02:37Z</time>
      </trkpt>
      <trkpt lat="45.92292" lon="4.61701">
        <ele>372.6</ele>
        <time>2020-12-13T10:02:38Z</time>
      </trkpt>
      <trkpt lat="45.92292" lon="4.61702">
        <ele>372.5</ele>
        <time>2020-12-13T10:02:39Z</time>
      </trkpt>
      <trkpt lat="45.92293" lon="4.61703">
        <ele>372.5</ele>
        <time>2020-12-13T10:02:40Z</time>
      </trkpt>
      <trkpt lat="45.92294" lon="4.61703">
        <ele>372.4</ele>
        <time>2020-12-13T10:02:41Z</time>
      </trkpt>
      <trkpt lat="45.92296" lon="4.61704">
        <ele>372.2</ele>
        <time>2020-12-13T10:02:42Z</time>
      </trkpt>
      <trkpt lat="45.92297" lon="4.61705">
        <ele>372.2</ele>
        <time>2020-12-13T10:02:43Z</time>
      </trkpt>
      <trkpt lat="45.92299" lon="4.61705">
        <ele>372.1</ele>
        <time>2020-12-13T10:02:44Z</time>
      </trkpt>
      <trkpt lat="45.923" lon="4.61705">
        <ele>372</ele>
        <time>2020-12-13T10:02:45Z</time>
      </trkpt>
      <trkpt lat="45.92301" lon="4.61706">
        <ele>371.9</ele>
        <time>2020-12-13T10:02:46Z</time>
      </trkpt>
      <trkpt lat="45.92302" lon="4.61706">
        <ele>371.9</ele>
        <time>2020-12-13T10:02:47Z</time>
      </trkpt>
      <trkpt lat="45.92303" lon="4.61706">
        <ele>371.8</ele>
        <time>2020-12-13T10:02:48Z</time>
      </trkpt>
      <trkpt lat="45.92305" lon="4.61707">
        <ele>371.6</ele>
        <time>2020-12-13T10:02:49Z</time>
      </trkpt>
      <trkpt lat="45.92306" lon="4.61708">
        <ele>371.5</ele>
        <time>2020-12-13T10:02:50Z</time>
      </trkpt>
      <trkpt lat="45.92308" lon="4.6171">
        <ele>371.4</ele>
        <time>2020-12-13T10:02:51Z</time>
      </trkpt>
      <trkpt lat="45.92309" lon="4.6171">
        <ele>371.3</ele>
        <time>2020-12-13T10:02:52Z</time>
      </trkpt>
      <trkpt lat="45.9231" lon="4.6171">
        <ele>371.3</ele>
        <time>2020-12-13T10:02:53Z</time>
      </trkpt>
      <trkpt lat="45.92312" lon="4.61712">
        <ele>371.1</ele>
        <time>2020-12-13T10:02:54Z</time>
      </trkpt>
      <trkpt lat="45.92313" lon="4.61712">
        <ele>371</ele>
        <time>2020-12-13T10:02:55Z</time>
      </trkpt>
      <trkpt lat="45.92313" lon="4.61713">
        <ele>371</ele>
        <time>2020-12-13T10:02:56Z</time>
      </trkpt>
      <trkpt lat="45.92314" lon="4.61713">
        <ele>370.9</ele>
        <time>2020-12-13T10:02:57Z</time>
      </trkpt>
      <trkpt lat="45.92316" lon="4.61714">
        <ele>370.8</ele>
        <time>2020-12-13T10:02:58Z</time>
      </trkpt>
      <trkpt lat="45.92317" lon="4.61714">
        <ele>370.7</ele>
        <time>2020-12-13T10:02:59Z</time>
      </trkpt>
      <trkpt lat="45.92319" lon="4.61715">
        <ele>370.6</ele>
        <time>2020-12-13T10:03:00Z</time>
      </trkpt>
      <trkpt lat="45.9232" lon="4.61715">
        <ele>370.5</ele>
        <time>2020-12-13T10:03:01Z</time>
      </trkpt>
      <trkpt lat="45.9232" lon="4.61715">
        <ele>370.5</ele>
        <time>2020-12-13T10:03:02Z</time>
      </trkpt>
      <trkpt lat="45.92321" lon="4.61716">
        <ele>370.4</ele>
        <time>2020-12-13T10:03:03Z</time>
      </trkpt>
      <trkpt lat="45.92323" lon="4.61717">
        <ele>370.3</ele>
        <time>2020-12-13T10:03:04Z</time>
      </trkpt>
      <trkpt lat="45.92324" lon="4.61719">
        <ele>370.2</ele>
        <time>2020-12-13T10:03:05Z</time>
      </trkpt>
      <trkpt lat="45.92325" lon="4.6172">
        <ele>370.1</ele>
        <time>2020-12-13T10:03:06Z</time>
      </trkpt>
      <trkpt lat="45.92326" lon="4.61721">
        <ele>370</ele>
        <time>2020-12-13T10:03:07Z</time>
      </trkpt>
      <trkpt lat="45.92327" lon="4.61721">
        <ele>369.9</ele>
        <time>2020-12-13T10:03:08Z</time>
      </trkpt>
      <trkpt lat="45.92328" lon="4.61721">
        <ele>369.8</ele>
        <time>2020-12-13T10:03:09Z</time>
      </trkpt>
      <trkpt lat="45.9233" lon="4.61722">
        <ele>369.7</ele>
        <time>2020-12-13T10:03:10Z</time>
      </trkpt>
      <trkpt lat="45.92331" lon="4.61723">
        <ele>369.6</ele>
        <time>2020-12-13T10:03:11Z</time>
      </trkpt>
      <trkpt lat="45.92332" lon="4.61724">
        <ele>369.5</ele>
        <time>2020-12-13T10:03:12Z</time>
      </trkpt>
      <trkpt lat="45.92333" lon="4.61725">
        <ele>369.5</ele>
        <time>2020-12-13T10:03:13Z</time>
      </trkpt>
      <trkpt lat="45.92335" lon="4.61725">
        <ele>369.4</ele>
        <time>2020-12-13T10:03:14Z</time>
      </trkpt>
      <trkpt lat="45.92336" lon="4.61726">
        <ele>369.3</ele>
        <time>2020-12-13T10:03:15Z</time>
      </trkpt>
      <trkpt lat="45.92337" lon="4.61726">
        <ele>369.2</ele>
        <time>2020-12-13T10:03:16Z</time>
      </trkpt>
      <trkpt lat="45.92338" lon="4.61727">
        <ele>369.1</ele>
        <time>2020-12-13T10:03:17Z</time>
      </trkpt>
      <trkpt lat="45.92339" lon="4.61728">
        <ele>369</ele>
        <time>2020-12-13T10:03:18Z</time>
      </trkpt>
      <trkpt lat="45.9234" lon="4.61729">
        <ele>368.9</ele>
        <time>2020-12-13T10:03:19Z</time>
      </trkpt>
      <trkpt lat="45.92342" lon="4.61731">
        <ele>368.8</ele>
        <time>2020-12-13T10:03:20Z</time>
      </trkpt>
      <trkpt lat="45.92343" lon="4.61732">
        <ele>368.8</ele>
        <time>2020-12-13T10:03:21Z</time>
      </trkpt>
      <trkpt lat="45.92344" lon="4.61732">
        <ele>368.7</ele>
        <time>2020-12-13T10:03:22Z</time>
      </trkpt>
      <trkpt lat="45.92345" lon="4.61731">
        <ele>368.6</ele>
        <time>2020-12-13T10:03:23Z</time>
      </trkpt>
      <trkpt lat="45.92346" lon="4.61732">
        <ele>368.5</ele>
        <time>2020-12-13T10:03:24Z</time>
      </trkpt>
      <trkpt lat="45.92347" lon="4.61732">
        <ele>368.5</ele>
        <time>2020-12-13T10:03:25Z</time>
      </trkpt>
      <trkpt lat="45.92349" lon="4.61733">
        <ele>368.4</ele>
        <time>2020-12-13T10:03:26Z</time>
      </trkpt>
      <trkpt lat="45.92351" lon="4.61733">
        <ele>368.3</ele>
        <time>2020-12-13T10:03:27Z</time>
      </trkpt>
      <trkpt lat="45.92352" lon="4.61734">
        <ele>368.2</ele>
        <time>2020-12-13T10:03:28Z</time>
      </trkpt>
      <trkpt lat="45.92354" lon="4.61735">
        <ele>368.1</ele>
        <time>2020-12-13T10:03:29Z</time>
      </trkpt>
      <trkpt lat="45.92355" lon="4.61735">
        <ele>368.1</ele>
        <time>2020-12-13T10:03:30Z</time>
      </trkpt>
      <trkpt lat="45.92356" lon="4.61736">
        <ele>368</ele>
        <time>2020-12-13T10:03:31Z</time>
      </trkpt>
      <trkpt lat="45.92357" lon="4.61737">
        <ele>367.9</ele>
        <time>2020-12-13T10:03:32Z</time>
      </trkpt>
      <trkpt lat="45.92358" lon="4.61739">
        <ele>367.8</ele>
        <time>2020-12-13T10:03:33Z</time>
      </trkpt>
      <trkpt lat="45.92359" lon="4.61739">
        <ele>367.8</ele>
        <time>2020-12-13T10:03:34Z</time>
      </trkpt>
      <trkpt lat="45.9236" lon="4.61739">
        <ele>367.7</ele>
        <time>2020-12-13T10:03:35Z</time>
      </trkpt>
      <trkpt lat="45.92361" lon="4.61739">
        <ele>367.7</ele>
        <time>2020-12-13T10:03:36Z</time>
      </trkpt>
      <trkpt lat="45.92362" lon="4.61739">
        <ele>367.6</ele>
        <time>2020-12-13T10:03:37Z</time>
      </trkpt>
      <trkpt lat="45.92364" lon="4.61741">
        <ele>367.5</ele>
        <time>2020-12-13T10:03:38Z</time>
      </trkpt>
      <trkpt lat="45.92365" lon="4.61741">
        <ele>367.4</ele>
        <time>2020-12-13T10:03:39Z</time>
      </trkpt>
      <trkpt lat="45.92367" lon="4.61743">
        <ele>367.3</ele>
        <time>2020-12-13T10:03:40Z</time>
      </trkpt>
      <trkpt lat="45.92368" lon="4.61743">
        <ele>367.3</ele>
        <time>2020-12-13T10:03:41Z</time>
      </trkpt>
      <trkpt lat="45.92368" lon="4.61743">
        <ele>367.2</ele>
        <time>2020-12-13T10:03:42Z</time>
      </trkpt>
      <trkpt lat="45.92371" lon="4.61744">
        <ele>367.1</ele>
        <time>2020-12-13T10:03:43Z</time>
      </trkpt>
      <trkpt lat="45.92372" lon="4.61745">
        <ele>367.1</ele>
        <time>2020-12-13T10:03:44Z</time>
      </trkpt>
      <trkpt lat="45.92373" lon="4.61746">
        <ele>367</ele>
        <time>2020-12-13T10:03:45Z</time>
      </trkpt>
      <trkpt lat="45.92373" lon="4.61746">
        <ele>367</ele>
        <time>2020-12-13T10:03:46Z</time>
      </trkpt>
      <trkpt lat="45.92374" lon="4.61746">
        <ele>366.9</ele>
        <time>2020-12-13T10:03:47Z</time>
      </trkpt>
      <trkpt lat="45.92376" lon="4.61746">
        <ele>366.8</ele>
        <time>2020-12-13T10:03:48Z</time>
      </trkpt>
      <trkpt lat="45.92377" lon="4.61746">
        <ele>366.7</ele>
        <time>2020-12-13T10:03:49Z</time>
      </trkpt>
      <trkpt lat="45.92378" lon="4.61747">
        <ele>366.7</ele>
        <time>2020-12-13T10:03:50Z</time>
      </trkpt>
      <trkpt lat="45.92379" lon="4.61747">
        <ele>366.6</ele>
        <time>2020-12-13T10:03:51Z</time>
      </trkpt>
      <trkpt lat="45.92381" lon="4.61748">
        <ele>366.5</ele>
        <time>2020-12-13T10:03:52Z</time>
      </trkpt>
      <trkpt lat="45.92381" lon="4.61748">
        <ele>366.5</ele>
        <time>2020-12-13T10:03:53Z</time>
      </trkpt>
      <trkpt lat="45.92382" lon="4.61748">
        <ele>366.4</ele>
        <time>2020-12-13T10:03:54Z</time>
      </trkpt>
      <trkpt lat="45.92383" lon="4.61748">
        <ele>366.4</ele>
        <time>2020-12-13T10:03:55Z</time>
      </trkpt>
      <trkpt lat="45.92384" lon="4.61748">
        <ele>366.3</ele>
        <time>2020-12-13T10:03:56Z</time>
      </trkpt>
      <trkpt lat="45.92386" lon="4.61748">
        <ele>366.3</ele>
        <time>2020-12-13T10:03:57Z</time>
      </trkpt>
      <trkpt lat="45.92387" lon="4.61749">
        <ele>366.2</ele>
        <time>2020-12-13T10:03:58Z</time>
      </trkpt>
      <trkpt lat="45.92388" lon="4.6175">
        <ele>366.1</ele>
        <time>2020-12-13T10:03:59Z</time>
      </trkpt>
      <trkpt lat="45.92389" lon="4.6175">
        <ele>366.1</ele>
        <time>2020-12-13T10:04:00Z</time>
      </trkpt>
      <trkpt lat="45.92392" lon="4.61752">
        <ele>365.9</ele>
        <time>2020-12-13T10:04:02Z</time>
      </trkpt>
      <trkpt lat="45.92395" lon="4.61753">
        <ele>365.7</ele>
        <time>2020-12-13T10:04:04Z</time>
      </trkpt>
      <trkpt lat="45.92395" lon="4.61754">
        <ele>365.7</ele>
        <time>2020-12-13T10:04:05Z</time>
      </trkpt>
      <trkpt lat="45.92397" lon="4.61754">
        <ele>365.6</ele>
        <time>2020-12-13T10:04:06Z</time>
      </trkpt>
      <trkpt lat="45.92398" lon="4.61755">
        <ele>365.6</ele>
        <time>2020-12-13T10:04:07Z</time>
      </trkpt>
      <trkpt lat="45.92399" lon="4.61755">
        <ele>365.5</ele>
        <time>2020-12-13T10:04:08Z</time>
      </trkpt>
      <trkpt lat="45.924" lon="4.61756">
        <ele>365.4</ele>
        <time>2020-12-13T10:04:09Z</time>
      </trkpt>
      <trkpt lat="45.92402" lon="4.61757">
        <ele>365.3</ele>
        <time>2020-12-13T10:04:10Z</time>
      </trkpt>
      <trkpt lat="45.92403" lon="4.61758">
        <ele>365.2</ele>
        <time>2020-12-13T10:04:11Z</time>
      </trkpt>
      <trkpt lat="45.92404" lon="4.61758">
        <ele>365.2</ele>
        <time>2020-12-13T10:04:12Z</time>
      </trkpt>
      <trkpt lat="45.92406" lon="4.61759">
        <ele>365</ele>
        <time>2020-12-13T10:04:13Z</time>
      </trkpt>
      <trkpt lat="45.92407" lon="4.6176">
        <ele>365</ele>
        <time>2020-12-13T10:04:14Z</time>
      </trkpt>
      <trkpt lat="45.92408" lon="4.6176">
        <ele>364.9</ele>
        <time>2020-12-13T10:04:15Z</time>
      </trkpt>
      <trkpt lat="45.92409" lon="4.61761">
        <ele>364.9</ele>
        <time>2020-12-13T10:04:16Z</time>
      </trkpt>
      <trkpt lat="45.9241" lon="4.61764">
        <ele>364.7</ele>
        <time>2020-12-13T10:04:17Z</time>
      </trkpt>
      <trkpt lat="45.92411" lon="4.61762">
        <ele>364.7</ele>
        <time>2020-12-13T10:04:18Z</time>
      </trkpt>
      <trkpt lat="45.92413" lon="4.61764">
        <ele>364.6</ele>
        <time>2020-12-13T10:04:19Z</time>
      </trkpt>
      <trkpt lat="45.92414" lon="4.61765">
        <ele>364.5</ele>
        <time>2020-12-13T10:04:20Z</time>
      </trkpt>
      <trkpt lat="45.92416" lon="4.61765">
        <ele>364.4</ele>
        <time>2020-12-13T10:04:21Z</time>
      </trkpt>
      <trkpt lat="45.92417" lon="4.61766">
        <ele>364.3</ele>
        <time>2020-12-13T10:04:22Z</time>
      </trkpt>
      <trkpt lat="45.92419" lon="4.61768">
        <ele>364.2</ele>
        <time>2020-12-13T10:04:23Z</time>
      </trkpt>
      <trkpt lat="45.92419" lon="4.61769">
        <ele>364.1</ele>
        <time>2020-12-13T10:04:24Z</time>
      </trkpt>
      <trkpt lat="45.92421" lon="4.61769">
        <ele>364.1</ele>
        <time>2020-12-13T10:04:25Z</time>
      </trkpt>
      <trkpt lat="45.92422" lon="4.61769">
        <ele>364</ele>
        <time>2020-12-13T10:04:26Z</time>
      </trkpt>
      <trkpt lat="45.92423" lon="4.61771">
        <ele>363.9</ele>
        <time>2020-12-13T10:04:27Z</time>
      </trkpt>
      <trkpt lat="45.92424" lon="4.61772">
        <ele>363.9</ele>
        <time>2020-12-13T10:04:28Z</time>
      </trkpt>
      <trkpt lat="45.92425" lon="4.61772">
        <ele>363.8</ele>
        <time>2020-12-13T10:04:29Z</time>
      </trkpt>
      <trkpt lat="45.92426" lon="4.61774">
        <ele>363.7</ele>
        <time>2020-12-13T10:04:30Z</time>
      </trkpt>
      <trkpt lat="45.92426" lon="4.61775">
        <ele>363.7</ele>
        <time>2020-12-13T10:04:31Z</time>
      </trkpt>
      <trkpt lat="45.92427" lon="4.61776">
        <ele>363.6</ele>
        <time>2020-12-13T10:04:32Z</time>
      </trkpt>
      <trkpt lat="45.92428" lon="4.61777">
        <ele>363.6</ele>
        <time>2020-12-13T10:04:33Z</time>
      </trkpt>
      <trkpt lat="45.92429" lon="4.61779">
        <ele>363.5</ele>
        <time>2020-12-13T10:04:34Z</time>
      </trkpt>
      <trkpt lat="45.9243" lon="4.61781">
        <ele>363.4</ele>
        <time>2020-12-13T10:04:35Z</time>
      </trkpt>
      <trkpt lat="45.92431" lon="4.61782">
        <ele>363.3</ele>
        <time>2020-12-13T10:04:36Z</time>
      </trkpt>
      <trkpt lat="45.92432" lon="4.61784">
        <ele>363.2</ele>
        <time>2020-12-13T10:04:37Z</time>
      </trkpt>
      <trkpt lat="45.92432" lon="4.61785">
        <ele>363.2</ele>
        <time>2020-12-13T10:04:38Z</time>
      </trkpt>
      <trkpt lat="45.92433" lon="4.61785">
        <ele>363.1</ele>
        <time>2020-12-13T10:04:39Z</time>
      </trkpt>
      <trkpt lat="45.92435" lon="4.61787">
        <ele>363</ele>
        <time>2020-12-13T10:04:40Z</time>
      </trkpt>
      <trkpt lat="45.92435" lon="4.61789">
        <ele>362.9</ele>
        <time>2020-12-13T10:04:41Z</time>
      </trkpt>
      <trkpt lat="45.92436" lon="4.6179">
        <ele>362.8</ele>
        <time>2020-12-13T10:04:42Z</time>
      </trkpt>
      <trkpt lat="45.92437" lon="4.61791">
        <ele>362.7</ele>
        <time>2020-12-13T10:04:43Z</time>
      </trkpt>
      <trkpt lat="45.92438" lon="4.61792">
        <ele>362.7</ele>
        <time>2020-12-13T10:04:44Z</time>
      </trkpt>
      <trkpt lat="45.92439" lon="4.61794">
        <ele>362.6</ele>
        <time>2020-12-13T10:04:45Z</time>
      </trkpt>
      <trkpt lat="45.92439" lon="4.61795">
        <ele>362.5</ele>
        <time>2020-12-13T10:04:46Z</time>
      </trkpt>
      <trkpt lat="45.92439" lon="4.61796">
        <ele>362.5</ele>
        <time>2020-12-13T10:04:47Z</time>
      </trkpt>
      <trkpt lat="45.9244" lon="4.61797">
        <ele>362.4</ele>
        <time>2020-12-13T10:04:48Z</time>
      </trkpt>
      <trkpt lat="45.92441" lon="4.61798">
        <ele>362.3</ele>
        <time>2020-12-13T10:04:49Z</time>
      </trkpt>
      <trkpt lat="45.92442" lon="4.618">
        <ele>362.2</ele>
        <time>2020-12-13T10:04:50Z</time>
      </trkpt>
      <trkpt lat="45.92443" lon="4.61801">
        <ele>362.1</ele>
        <time>2020-12-13T10:04:51Z</time>
      </trkpt>
      <trkpt lat="45.92443" lon="4.61802">
        <ele>362.1</ele>
        <time>2020-12-13T10:04:52Z</time>
      </trkpt>
      <trkpt lat="45.92445" lon="4.61805">
        <ele>361.9</ele>
        <time>2020-12-13T10:04:53Z</time>
      </trkpt>
      <trkpt lat="45.92445" lon="4.61806">
        <ele>361.8</ele>
        <time>2020-12-13T10:04:54Z</time>
      </trkpt>
      <trkpt lat="45.92446" lon="4.61808">
        <ele>361.7</ele>
        <time>2020-12-13T10:04:55Z</time>
      </trkpt>
      <trkpt lat="45.92447" lon="4.6181">
        <ele>361.6</ele>
        <time>2020-12-13T10:04:56Z</time>
      </trkpt>
      <trkpt lat="45.92448" lon="4.6181">
        <ele>361.5</ele>
        <time>2020-12-13T10:04:57Z</time>
      </trkpt>
      <trkpt lat="45.92449" lon="4.61812">
        <ele>361.4</ele>
        <time>2020-12-13T10:04:58Z</time>
      </trkpt>
      <trkpt lat="45.92449" lon="4.61813">
        <ele>361.4</ele>
        <time>2020-12-13T10:04:59Z</time>
      </trkpt>
      <trkpt lat="45.92449" lon="4.61814">
        <ele>361.3</ele>
        <time>2020-12-13T10:05:00Z</time>
      </trkpt>
      <trkpt lat="45.92451" lon="4.61817">
        <ele>361.2</ele>
        <time>2020-12-13T10:05:01Z</time>
      </trkpt>
      <trkpt lat="45.92452" lon="4.61818">
        <ele>361.1</ele>
        <time>2020-12-13T10:05:02Z</time>
      </trkpt>
      <trkpt lat="45.92453" lon="4.6182">
        <ele>361</ele>
        <time>2020-12-13T10:05:03Z</time>
      </trkpt>
      <trkpt lat="45.92453" lon="4.61822">
        <ele>360.9</ele>
        <time>2020-12-13T10:05:04Z</time>
      </trkpt>
      <trkpt lat="45.92454" lon="4.61823">
        <ele>360.8</ele>
        <time>2020-12-13T10:05:05Z</time>
      </trkpt>
      <trkpt lat="45.92454" lon="4.61827">
        <ele>360.7</ele>
        <time>2020-12-13T10:05:06Z</time>
      </trkpt>
      <trkpt lat="45.92455" lon="4.61828">
        <ele>360.6</ele>
        <time>2020-12-13T10:05:07Z</time>
      </trkpt>
      <trkpt lat="45.92456" lon="4.6183">
        <ele>360.5</ele>
        <time>2020-12-13T10:05:08Z</time>
      </trkpt>
      <trkpt lat="45.92456" lon="4.61832">
        <ele>360.5</ele>
        <time>2020-12-13T10:05:09Z</time>
      </trkpt>
      <trkpt lat="45.92457" lon="4.61834">
        <ele>360.4</ele>
        <time>2020-12-13T10:05:10Z</time>
      </trkpt>
      <trkpt lat="45.92458" lon="4.61835">
        <ele>360.3</ele>
        <time>2020-12-13T10:05:11Z</time>
      </trkpt>
      <trkpt lat="45.92459" lon="4.61837">
        <ele>360.2</ele>
        <time>2020-12-13T10:05:12Z</time>
      </trkpt>
      <trkpt lat="45.9246" lon="4.6184">
        <ele>360.1</ele>
        <time>2020-12-13T10:05:13Z</time>
      </trkpt>
      <trkpt lat="45.9246" lon="4.61841">
        <ele>360</ele>
        <time>2020-12-13T10:05:14Z</time>
      </trkpt>
      <trkpt lat="45.92461" lon="4.61843">
        <ele>359.9</ele>
        <time>2020-12-13T10:05:15Z</time>
      </trkpt>
      <trkpt lat="45.92463" lon="4.61845">
        <ele>359.7</ele>
        <time>2020-12-13T10:05:16Z</time>
      </trkpt>
      <trkpt lat="45.92465" lon="4.61846">
        <ele>359.6</ele>
        <time>2020-12-13T10:05:17Z</time>
      </trkpt>
      <trkpt lat="45.92465" lon="4.61847">
        <ele>359.5</ele>
        <time>2020-12-13T10:05:18Z</time>
      </trkpt>
      <trkpt lat="45.92467" lon="4.61847">
        <ele>359.4</ele>
        <time>2020-12-13T10:05:19Z</time>
      </trkpt>
      <trkpt lat="45.92468" lon="4.61849">
        <ele>359.4</ele>
        <time>2020-12-13T10:05:20Z</time>
      </trkpt>
      <trkpt lat="45.9247" lon="4.6185">
        <ele>359.4</ele>
        <time>2020-12-13T10:05:21Z</time>
      </trkpt>
      <trkpt lat="45.92471" lon="4.61851">
        <ele>359.4</ele>
        <time>2020-12-13T10:05:22Z</time>
      </trkpt>
      <trkpt lat="45.92472" lon="4.61851">
        <ele>359.4</ele>
        <time>2020-12-13T10:05:23Z</time>
      </trkpt>
      <trkpt lat="45.92473" lon="4.61852">
        <ele>359.4</ele>
        <time>2020-12-13T10:05:24Z</time>
      </trkpt>
      <trkpt lat="45.92474" lon="4.61853">
        <ele>359.4</ele>
        <time>2020-12-13T10:05:25Z</time>
      </trkpt>
      <trkpt lat="45.92475" lon="4.61855">
        <ele>359.4</ele>
        <time>2020-12-13T10:05:26Z</time>
      </trkpt>
      <trkpt lat="45.92476" lon="4.61857">
        <ele>359.4</ele>
        <time>2020-12-13T10:05:27Z</time>
      </trkpt>
      <trkpt lat="45.92477" lon="4.61859">
        <ele>359.4</ele>
        <time>2020-12-13T10:05:28Z</time>
      </trkpt>
      <trkpt lat="45.92478" lon="4.61859">
        <ele>359.4</ele>
        <time>2020-12-13T10:05:29Z</time>
      </trkpt>
      <trkpt lat="45.92479" lon="4.6186">
        <ele>359.4</ele>
        <time>2020-12-13T10:05:30Z</time>
      </trkpt>
      <trkpt lat="45.9248" lon="4.61862">
        <ele>359.5</ele>
        <time>2020-12-13T10:05:31Z</time>
      </trkpt>
      <trkpt lat="45.92481" lon="4.61863">
        <ele>359.5</ele>
        <time>2020-12-13T10:05:32Z</time>
      </trkpt>
      <trkpt lat="45.92482" lon="4.61862">
        <ele>359.5</ele>
        <time>2020-12-13T10:05:33Z</time>
      </trkpt>
      <trkpt lat="45.92483" lon="4.61862">
        <ele>359.5</ele>
        <time>2020-12-13T10:05:34Z</time>
      </trkpt>
      <trkpt lat="45.92485" lon="4.61862">
        <ele>359.5</ele>
        <time>2020-12-13T10:05:35Z</time>
      </trkpt>
      <trkpt lat="45.92486" lon="4.61863">
        <ele>359.5</ele>
        <time>2020-12-13T10:05:36Z</time>
      </trkpt>
      <trkpt lat="45.92488" lon="4.61863">
        <ele>359.5</ele>
        <time>2020-12-13T10:05:37Z</time>
      </trkpt>
      <trkpt lat="45.92489" lon="4.61864">
        <ele>359.5</ele>
        <time>2020-12-13T10:05:38Z</time>
      </trkpt>
      <trkpt lat="45.92491" lon="4.61865">
        <ele>359.6</ele>
        <time>2020-12-13T10:05:39Z</time>
      </trkpt>
      <trkpt lat="45.92492" lon="4.61866">
        <ele>359.6</ele>
        <time>2020-12-13T10:05:40Z</time>
      </trkpt>
      <trkpt lat="45.92492" lon="4.61867">
        <ele>359.6</ele>
        <time>2020-12-13T10:05:41Z</time>
      </trkpt>
      <trkpt lat="45.92493" lon="4.61868">
        <ele>359.6</ele>
        <time>2020-12-13T10:05:42Z</time>
      </trkpt>
      <trkpt lat="45.92495" lon="4.6187">
        <ele>359.6</ele>
        <time>2020-12-13T10:05:43Z</time>
      </trkpt>
      <trkpt lat="45.92495" lon="4.61871">
        <ele>359.6</ele>
        <time>2020-12-13T10:05:44Z</time>
      </trkpt>
      <trkpt lat="45.92495" lon="4.61872">
        <ele>359.6</ele>
        <time>2020-12-13T10:05:45Z</time>
      </trkpt>
      <trkpt lat="45.92497" lon="4.61874">
        <ele>359.6</ele>
        <time>2020-12-13T10:05:46Z</time>
      </trkpt>
      <trkpt lat="45.92499" lon="4.61875">
        <ele>359.6</ele>
        <time>2020-12-13T10:05:47Z</time>
      </trkpt>
      <trkpt lat="45.92499" lon="4.61877">
        <ele>359.6</ele>
        <time>2020-12-13T10:05:48Z</time>
      </trkpt>
      <trkpt lat="45.92501" lon="4.61879">
        <ele>359.5</ele>
        <time>2020-12-13T10:05:49Z</time>
      </trkpt>
      <trkpt lat="45.92502" lon="4.61879">
        <ele>359.5</ele>
        <time>2020-12-13T10:05:50Z</time>
      </trkpt>
      <trkpt lat="45.92502" lon="4.61881">
        <ele>359.5</ele>
        <time>2020-12-13T10:05:51Z</time>
      </trkpt>
      <trkpt lat="45.92502" lon="4.61883">
        <ele>359.5</ele>
        <time>2020-12-13T10:05:52Z</time>
      </trkpt>
      <trkpt lat="45.92502" lon="4.61886">
        <ele>359.6</ele>
        <time>2020-12-13T10:05:53Z</time>
      </trkpt>
      <trkpt lat="45.92502" lon="4.61887">
        <ele>359.6</ele>
        <time>2020-12-13T10:05:54Z</time>
      </trkpt>
      <trkpt lat="45.92503" lon="4.61888">
        <ele>359.6</ele>
        <time>2020-12-13T10:05:55Z</time>
      </trkpt>
      <trkpt lat="45.92503" lon="4.6189">
        <ele>359.6</ele>
        <time>2020-12-13T10:05:56Z</time>
      </trkpt>
      <trkpt lat="45.92503" lon="4.61892">
        <ele>359.6</ele>
        <time>2020-12-13T10:05:57Z</time>
      </trkpt>
      <trkpt lat="45.92504" lon="4.61893">
        <ele>359.6</ele>
        <time>2020-12-13T10:05:58Z</time>
      </trkpt>
      <trkpt lat="45.92505" lon="4.61896">
        <ele>359.6</ele>
        <time>2020-12-13T10:05:59Z</time>
      </trkpt>
      <trkpt lat="45.92505" lon="4.61898">
        <ele>359.6</ele>
        <time>2020-12-13T10:06:00Z</time>
      </trkpt>
      <trkpt lat="45.92507" lon="4.61903">
        <ele>359.7</ele>
        <time>2020-12-13T10:06:02Z</time>
      </trkpt>
      <trkpt lat="45.92507" lon="4.61904">
        <ele>359.7</ele>
        <time>2020-12-13T10:06:04Z</time>
      </trkpt>
      <trkpt lat="45.92508" lon="4.61905">
        <ele>359.7</ele>
        <time>2020-12-13T10:06:05Z</time>
      </trkpt>
      <trkpt lat="45.92508" lon="4.61906">
        <ele>359.7</ele>
        <time>2020-12-13T10:06:06Z</time>
      </trkpt>
      <trkpt lat="45.9251" lon="4.61909">
        <ele>359.7</ele>
        <time>2020-12-13T10:06:07Z</time>
      </trkpt>
      <trkpt lat="45.92511" lon="4.6191">
        <ele>359.7</ele>
        <time>2020-12-13T10:06:08Z</time>
      </trkpt>
      <trkpt lat="45.92511" lon="4.61911">
        <ele>359.8</ele>
        <time>2020-12-13T10:06:09Z</time>
      </trkpt>
      <trkpt lat="45.92512" lon="4.61913">
        <ele>359.8</ele>
        <time>2020-12-13T10:06:10Z</time>
      </trkpt>
      <trkpt lat="45.92514" lon="4.61914">
        <ele>359.8</ele>
        <time>2020-12-13T10:06:11Z</time>
      </trkpt>
      <trkpt lat="45.92514" lon="4.61915">
        <ele>359.8</ele>
        <time>2020-12-13T10:06:12Z</time>
      </trkpt>
      <trkpt lat="45.92515" lon="4.61918">
        <ele>359.8</ele>
        <time>2020-12-13T10:06:13Z</time>
      </trkpt>
      <trkpt lat="45.92515" lon="4.61918">
        <ele>359.9</ele>
        <time>2020-12-13T10:06:14Z</time>
      </trkpt>
      <trkpt lat="45.92516" lon="4.6192">
        <ele>359.9</ele>
        <time>2020-12-13T10:06:15Z</time>
      </trkpt>
      <trkpt lat="45.92517" lon="4.61921">
        <ele>359.9</ele>
        <time>2020-12-13T10:06:16Z</time>
      </trkpt>
      <trkpt lat="45.92518" lon="4.61923">
        <ele>359.9</ele>
        <time>2020-12-13T10:06:17Z</time>
      </trkpt>
      <trkpt lat="45.92519" lon="4.61925">
        <ele>359.9</ele>
        <time>2020-12-13T10:06:18Z</time>
      </trkpt>
      <trkpt lat="45.9252" lon="4.61926">
        <ele>360</ele>
        <time>2020-12-13T10:06:19Z</time>
      </trkpt>
      <trkpt lat="45.92521" lon="4.61929">
        <ele>360</ele>
        <time>2020-12-13T10:06:20Z</time>
      </trkpt>
      <trkpt lat="45.92522" lon="4.61931">
        <ele>360</ele>
        <time>2020-12-13T10:06:21Z</time>
      </trkpt>
      <trkpt lat="45.92523" lon="4.61932">
        <ele>360.1</ele>
        <time>2020-12-13T10:06:22Z</time>
      </trkpt>
      <trkpt lat="45.92523" lon="4.61933">
        <ele>360.1</ele>
        <time>2020-12-13T10:06:23Z</time>
      </trkpt>
      <trkpt lat="45.92525" lon="4.61935">
        <ele>360.1</ele>
        <time>2020-12-13T10:06:24Z</time>
      </trkpt>
      <trkpt lat="45.92525" lon="4.61936">
        <ele>360.1</ele>
        <time>2020-12-13T10:06:25Z</time>
      </trkpt>
      <trkpt lat="45.92525" lon="4.61937">
        <ele>360.1</ele>
        <time>2020-12-13T10:06:26Z</time>
      </trkpt>
      <trkpt lat="45.92526" lon="4.61938">
        <ele>360.2</ele>
        <time>2020-12-13T10:06:27Z</time>
      </trkpt>
      <trkpt lat="45.92528" lon="4.6194">
        <ele>360.2</ele>
        <time>2020-12-13T10:06:28Z</time>
      </trkpt>
      <trkpt lat="45.92528" lon="4.61941">
        <ele>360.2</ele>
        <time>2020-12-13T10:06:29Z</time>
      </trkpt>
      <trkpt lat="45.92529" lon="4.61941">
        <ele>360.3</ele>
        <time>2020-12-13T10:06:30Z</time>
      </trkpt>
      <trkpt lat="45.92529" lon="4.61942">
        <ele>360.3</ele>
        <time>2020-12-13T10:06:31Z</time>
      </trkpt>
      <trkpt lat="45.9253" lon="4.61944">
        <ele>360.3</ele>
        <time>2020-12-13T10:06:32Z</time>
      </trkpt>
      <trkpt lat="45.9253" lon="4.61945">
        <ele>360.3</ele>
        <time>2020-12-13T10:06:33Z</time>
      </trkpt>
      <trkpt lat="45.9253" lon="4.61947">
        <ele>360.4</ele>
        <time>2020-12-13T10:06:34Z</time>
      </trkpt>
      <trkpt lat="45.9253" lon="4.61948">
        <ele>360.4</ele>
        <time>2020-12-13T10:06:35Z</time>
      </trkpt>
      <trkpt lat="45.92531" lon="4.6195">
        <ele>360.5</ele>
        <time>2020-12-13T10:06:36Z</time>
      </trkpt>
      <trkpt lat="45.9253" lon="4.6195">
        <ele>360.5</ele>
        <time>2020-12-13T10:06:37Z</time>
      </trkpt>
      <trkpt lat="45.92531" lon="4.61951">
        <ele>360.5</ele>
        <time>2020-12-13T10:06:38Z</time>
      </trkpt>
      <trkpt lat="45.92533" lon="4.61953">
        <ele>360.6</ele>
        <time>2020-12-13T10:06:39Z</time>
      </trkpt>
      <trkpt lat="45.92533" lon="4.61954">
        <ele>360.6</ele>
        <time>2020-12-13T10:06:40Z</time>
      </trkpt>
      <trkpt lat="45.92535" lon="4.61955">
        <ele>360.7</ele>
        <time>2020-12-13T10:06:41Z</time>
      </trkpt>
      <trkpt lat="45.92537" lon="4.61958">
        <ele>360.8</ele>
        <time>2020-12-13T10:06:42Z</time>
      </trkpt>
      <trkpt lat="45.92538" lon="4.61959">
        <ele>360.9</ele>
        <time>2020-12-13T10:06:43Z</time>
      </trkpt>
      <trkpt lat="45.92539" lon="4.61959">
        <ele>360.9</ele>
        <time>2020-12-13T10:06:44Z</time>
      </trkpt>
      <trkpt lat="45.92539" lon="4.6196">
        <ele>361</ele>
        <time>2020-12-13T10:06:45Z</time>
      </trkpt>
      <trkpt lat="45.9254" lon="4.61962">
        <ele>361</ele>
        <time>2020-12-13T10:06:46Z</time>
      </trkpt>
      <trkpt lat="45.9254" lon="4.61964">
        <ele>361.1</ele>
        <time>2020-12-13T10:06:47Z</time>
      </trkpt>
      <trkpt lat="45.92541" lon="4.61965">
        <ele>361.1</ele>
        <time>2020-12-13T10:06:48Z</time>
      </trkpt>
      <trkpt lat="45.92542" lon="4.61968">
        <ele>361.3</ele>
        <time>2020-12-13T10:06:49Z</time>
      </trkpt>
      <trkpt lat="45.92543" lon="4.61971">
        <ele>361.4</ele>
        <time>2020-12-13T10:06:50Z</time>
      </trkpt>
      <trkpt lat="45.92544" lon="4.61973">
        <ele>361.5</ele>
        <time>2020-12-13T10:06:51Z</time>
      </trkpt>
      <trkpt lat="45.92545" lon="4.61975">
        <ele>361.6</ele>
        <time>2020-12-13T10:06:52Z</time>
      </trkpt>
      <trkpt lat="45.92546" lon="4.61975">
        <ele>361.7</ele>
        <time>2020-12-13T10:06:53Z</time>
      </trkpt>
      <trkpt lat="45.92547" lon="4.61976">
        <ele>361.7</ele>
        <time>2020-12-13T10:06:54Z</time>
      </trkpt>
      <trkpt lat="45.92548" lon="4.61976">
        <ele>361.8</ele>
        <time>2020-12-13T10:06:55Z</time>
      </trkpt>
      <trkpt lat="45.92549" lon="4.61978">
        <ele>361.9</ele>
        <time>2020-12-13T10:06:56Z</time>
      </trkpt>
      <trkpt lat="45.92549" lon="4.61979">
        <ele>362</ele>
        <time>2020-12-13T10:06:57Z</time>
      </trkpt>
      <trkpt lat="45.92551" lon="4.61982">
        <ele>362.2</ele>
        <time>2020-12-13T10:06:58Z</time>
      </trkpt>
      <trkpt lat="45.92552" lon="4.61983">
        <ele>362.2</ele>
        <time>2020-12-13T10:06:59Z</time>
      </trkpt>
      <trkpt lat="45.92552" lon="4.61984">
        <ele>362.3</ele>
        <time>2020-12-13T10:07:00Z</time>
      </trkpt>
      <trkpt lat="45.92553" lon="4.61985">
        <ele>362.4</ele>
        <time>2020-12-13T10:07:01Z</time>
      </trkpt>
      <trkpt lat="45.92555" lon="4.61987">
        <ele>362.5</ele>
        <time>2020-12-13T10:07:02Z</time>
      </trkpt>
      <trkpt lat="45.92555" lon="4.61989">
        <ele>362.6</ele>
        <time>2020-12-13T10:07:03Z</time>
      </trkpt>
      <trkpt lat="45.92556" lon="4.61989">
        <ele>362.6</ele>
        <time>2020-12-13T10:07:04Z</time>
      </trkpt>
      <trkpt lat="45.92557" lon="4.6199">
        <ele>362.7</ele>
        <time>2020-12-13T10:07:05Z</time>
      </trkpt>
      <trkpt lat="45.92557" lon="4.61992">
        <ele>362.8</ele>
        <time>2020-12-13T10:07:06Z</time>
      </trkpt>
      <trkpt lat="45.92558" lon="4.61993">
        <ele>362.8</ele>
        <time>2020-12-13T10:07:07Z</time>
      </trkpt>
      <trkpt lat="45.92558" lon="4.61994">
        <ele>362.9</ele>
        <time>2020-12-13T10:07:08Z</time>
      </trkpt>
      <trkpt lat="45.92559" lon="4.61995">
        <ele>363</ele>
        <time>2020-12-13T10:07:09Z</time>
      </trkpt>
      <trkpt lat="45.9256" lon="4.61997">
        <ele>363.1</ele>
        <time>2020-12-13T10:07:10Z</time>
      </trkpt>
      <trkpt lat="45.9256" lon="4.61999">
        <ele>363.1</ele>
        <time>2020-12-13T10:07:11Z</time>
      </trkpt>
      <trkpt lat="45.9256" lon="4.61999">
        <ele>363.2</ele>
        <time>2020-12-13T10:07:12Z</time>
      </trkpt>
      <trkpt lat="45.92561" lon="4.62001">
        <ele>363.3</ele>
        <time>2020-12-13T10:07:13Z</time>
      </trkpt>
      <trkpt lat="45.92562" lon="4.62002">
        <ele>363.3</ele>
        <time>2020-12-13T10:07:14Z</time>
      </trkpt>
      <trkpt lat="45.92563" lon="4.62006">
        <ele>363.5</ele>
        <time>2020-12-13T10:07:15Z</time>
      </trkpt>
      <trkpt lat="45.92563" lon="4.62009">
        <ele>363.7</ele>
        <time>2020-12-13T10:07:16Z</time>
      </trkpt>
      <trkpt lat="45.92563" lon="4.62011">
        <ele>363.7</ele>
        <time>2020-12-13T10:07:17Z</time>
      </trkpt>
      <trkpt lat="45.92564" lon="4.62013">
        <ele>363.8</ele>
        <time>2020-12-13T10:07:18Z</time>
      </trkpt>
      <trkpt lat="45.92564" lon="4.62014">
        <ele>363.9</ele>
        <time>2020-12-13T10:07:19Z</time>
      </trkpt>
      <trkpt lat="45.92564" lon="4.62017">
        <ele>364</ele>
        <time>2020-12-13T10:07:20Z</time>
      </trkpt>
      <trkpt lat="45.92564" lon="4.62019">
        <ele>364.1</ele>
        <time>2020-12-13T10:07:21Z</time>
      </trkpt>
      <trkpt lat="45.92564" lon="4.62022">
        <ele>364.2</ele>
        <time>2020-12-13T10:07:22Z</time>
      </trkpt>
      <trkpt lat="45.92563" lon="4.62025">
        <ele>364.3</ele>
        <time>2020-12-13T10:07:23Z</time>
      </trkpt>
      <trkpt lat="45.92563" lon="4.62027">
        <ele>364.2</ele>
        <time>2020-12-13T10:07:24Z</time>
      </trkpt>
      <trkpt lat="45.92563" lon="4.62029">
        <ele>364.2</ele>
        <time>2020-12-13T10:07:25Z</time>
      </trkpt>
      <trkpt lat="45.92563" lon="4.62031">
        <ele>364.2</ele>
        <time>2020-12-13T10:07:26Z</time>
      </trkpt>
      <trkpt lat="45.92563" lon="4.62032">
        <ele>364.2</ele>
        <time>2020-12-13T10:07:27Z</time>
      </trkpt>
      <trkpt lat="45.92562" lon="4.62036">
        <ele>364.2</ele>
        <time>2020-12-13T10:07:28Z</time>
      </trkpt>
      <trkpt lat="45.92561" lon="4.62037">
        <ele>364.2</ele>
        <time>2020-12-13T10:07:29Z</time>
      </trkpt>
      <trkpt lat="45.92561" lon="4.62038">
        <ele>364.2</ele>
        <time>2020-12-13T10:07:30Z</time>
      </trkpt>
      <trkpt lat="45.9256" lon="4.62041">
        <ele>364.2</ele>
        <time>2020-12-13T10:07:31Z</time>
      </trkpt>
      <trkpt lat="45.9256" lon="4.62041">
        <ele>364.1</ele>
        <time>2020-12-13T10:07:32Z</time>
      </trkpt>
      <trkpt lat="45.92559" lon="4.62044">
        <ele>364.1</ele>
        <time>2020-12-13T10:07:33Z</time>
      </trkpt>
      <trkpt lat="45.92559" lon="4.62047">
        <ele>364.1</ele>
        <time>2020-12-13T10:07:34Z</time>
      </trkpt>
      <trkpt lat="45.92558" lon="4.62048">
        <ele>364.1</ele>
        <time>2020-12-13T10:07:35Z</time>
      </trkpt>
      <trkpt lat="45.92557" lon="4.62048">
        <ele>364.1</ele>
        <time>2020-12-13T10:07:36Z</time>
      </trkpt>
      <trkpt lat="45.92557" lon="4.62051">
        <ele>364.1</ele>
        <time>2020-12-13T10:07:37Z</time>
      </trkpt>
      <trkpt lat="45.92556" lon="4.62052">
        <ele>364</ele>
        <time>2020-12-13T10:07:38Z</time>
      </trkpt>
      <trkpt lat="45.92556" lon="4.62054">
        <ele>364</ele>
        <time>2020-12-13T10:07:39Z</time>
      </trkpt>
      <trkpt lat="45.92555" lon="4.62057">
        <ele>364</ele>
        <time>2020-12-13T10:07:40Z</time>
      </trkpt>
      <trkpt lat="45.92554" lon="4.62058">
        <ele>363.9</ele>
        <time>2020-12-13T10:07:41Z</time>
      </trkpt>
      <trkpt lat="45.92553" lon="4.6206">
        <ele>363.9</ele>
        <time>2020-12-13T10:07:42Z</time>
      </trkpt>
      <trkpt lat="45.92552" lon="4.62061">
        <ele>363.9</ele>
        <time>2020-12-13T10:07:43Z</time>
      </trkpt>
      <trkpt lat="45.92552" lon="4.62064">
        <ele>363.8</ele>
        <time>2020-12-13T10:07:44Z</time>
      </trkpt>
      <trkpt lat="45.92551" lon="4.62064">
        <ele>363.8</ele>
        <time>2020-12-13T10:07:45Z</time>
      </trkpt>
      <trkpt lat="45.9255" lon="4.62066">
        <ele>363.8</ele>
        <time>2020-12-13T10:07:46Z</time>
      </trkpt>
      <trkpt lat="45.92549" lon="4.62068">
        <ele>363.7</ele>
        <time>2020-12-13T10:07:47Z</time>
      </trkpt>
      <trkpt lat="45.92549" lon="4.62069">
        <ele>363.7</ele>
        <time>2020-12-13T10:07:48Z</time>
      </trkpt>
      <trkpt lat="45.92548" lon="4.6207">
        <ele>363.7</ele>
        <time>2020-12-13T10:07:49Z</time>
      </trkpt>
      <trkpt lat="45.92548" lon="4.6207">
        <ele>363.7</ele>
        <time>2020-12-13T10:07:50Z</time>
      </trkpt>
      <trkpt lat="45.92547" lon="4.62072">
        <ele>363.6</ele>
        <time>2020-12-13T10:07:51Z</time>
      </trkpt>
      <trkpt lat="45.92547" lon="4.62072">
        <ele>363.6</ele>
        <time>2020-12-13T10:07:52Z</time>
      </trkpt>
      <trkpt lat="45.92546" lon="4.62073">
        <ele>363.6</ele>
        <time>2020-12-13T10:07:53Z</time>
      </trkpt>
      <trkpt lat="45.92544" lon="4.62076">
        <ele>363.5</ele>
        <time>2020-12-13T10:07:54Z</time>
      </trkpt>
      <trkpt lat="45.92543" lon="4.62078">
        <ele>363.5</ele>
        <time>2020-12-13T10:07:55Z</time>
      </trkpt>
      <trkpt lat="45.92543" lon="4.62079">
        <ele>363.4</ele>
        <time>2020-12-13T10:07:56Z</time>
      </trkpt>
      <trkpt lat="45.92542" lon="4.62081">
        <ele>363.4</ele>
        <time>2020-12-13T10:07:57Z</time>
      </trkpt>
      <trkpt lat="45.92541" lon="4.62083">
        <ele>363.3</ele>
        <time>2020-12-13T10:07:58Z</time>
      </trkpt>
      <trkpt lat="45.9254" lon="4.62085">
        <ele>363.3</ele>
        <time>2020-12-13T10:07:59Z</time>
      </trkpt>
      <trkpt lat="45.92538" lon="4.62087">
        <ele>363.2</ele>
        <time>2020-12-13T10:08:00Z</time>
      </trkpt>
      <trkpt lat="45.92538" lon="4.62088">
        <ele>363.2</ele>
        <time>2020-12-13T10:08:01Z</time>
      </trkpt>
      <trkpt lat="45.92537" lon="4.62089">
        <ele>363.2</ele>
        <time>2020-12-13T10:08:02Z</time>
      </trkpt>
      <trkpt lat="45.92537" lon="4.6209">
        <ele>363.2</ele>
        <time>2020-12-13T10:08:03Z</time>
      </trkpt>
      <trkpt lat="45.92535" lon="4.62092">
        <ele>363.1</ele>
        <time>2020-12-13T10:08:04Z</time>
      </trkpt>
      <trkpt lat="45.92534" lon="4.62093">
        <ele>363</ele>
        <time>2020-12-13T10:08:05Z</time>
      </trkpt>
      <trkpt lat="45.92533" lon="4.62095">
        <ele>363</ele>
        <time>2020-12-13T10:08:06Z</time>
      </trkpt>
      <trkpt lat="45.92532" lon="4.62096">
        <ele>363</ele>
        <time>2020-12-13T10:08:08Z</time>
      </trkpt>
      <trkpt lat="45.92532" lon="4.62097">
        <ele>362.9</ele>
        <time>2020-12-13T10:08:09Z</time>
      </trkpt>
      <trkpt lat="45.9253" lon="4.62098">
        <ele>362.9</ele>
        <time>2020-12-13T10:08:10Z</time>
      </trkpt>
      <trkpt lat="45.9253" lon="4.62098">
        <ele>362.9</ele>
        <time>2020-12-13T10:08:11Z</time>
      </trkpt>
      <trkpt lat="45.92529" lon="4.621">
        <ele>362.8</ele>
        <time>2020-12-13T10:08:12Z</time>
      </trkpt>
      <trkpt lat="45.92528" lon="4.62101">
        <ele>362.8</ele>
        <time>2020-12-13T10:08:13Z</time>
      </trkpt>
      <trkpt lat="45.92527" lon="4.62104">
        <ele>362.7</ele>
        <time>2020-12-13T10:08:14Z</time>
      </trkpt>
      <trkpt lat="45.92526" lon="4.62105">
        <ele>362.7</ele>
        <time>2020-12-13T10:08:15Z</time>
      </trkpt>
      <trkpt lat="45.92525" lon="4.62107">
        <ele>362.6</ele>
        <time>2020-12-13T10:08:16Z</time>
      </trkpt>
      <trkpt lat="45.92523" lon="4.6211">
        <ele>362.5</ele>
        <time>2020-12-13T10:08:17Z</time>
      </trkpt>
      <trkpt lat="45.92522" lon="4.62111">
        <ele>362.4</ele>
        <time>2020-12-13T10:08:18Z</time>
      </trkpt>
      <trkpt lat="45.92521" lon="4.62113">
        <ele>362.4</ele>
        <time>2020-12-13T10:08:19Z</time>
      </trkpt>
      <trkpt lat="45.9252" lon="4.62115">
        <ele>362.3</ele>
        <time>2020-12-13T10:08:20Z</time>
      </trkpt>
      <trkpt lat="45.92519" lon="4.62116">
        <ele>362.3</ele>
        <time>2020-12-13T10:08:21Z</time>
      </trkpt>
      <trkpt lat="45.92518" lon="4.62117">
        <ele>362.2</ele>
        <time>2020-12-13T10:08:22Z</time>
      </trkpt>
      <trkpt lat="45.92518" lon="4.62118">
        <ele>362.2</ele>
        <time>2020-12-13T10:08:23Z</time>
      </trkpt>
      <trkpt lat="45.92517" lon="4.62119">
        <ele>362.2</ele>
        <time>2020-12-13T10:08:24Z</time>
      </trkpt>
      <trkpt lat="45.92516" lon="4.62122">
        <ele>362.1</ele>
        <time>2020-12-13T10:08:25Z</time>
      </trkpt>
      <trkpt lat="45.92516" lon="4.62123">
        <ele>362</ele>
        <time>2020-12-13T10:08:26Z</time>
      </trkpt>
      <trkpt lat="45.92515" lon="4.62124">
        <ele>362</ele>
        <time>2020-12-13T10:08:27Z</time>
      </trkpt>
      <trkpt lat="45.92515" lon="4.62125">
        <ele>361.9</ele>
        <time>2020-12-13T10:08:28Z</time>
      </trkpt>
      <trkpt lat="45.92513" lon="4.62127">
        <ele>361.9</ele>
        <time>2020-12-13T10:08:29Z</time>
      </trkpt>
      <trkpt lat="45.92512" lon="4.62129">
        <ele>361.8</ele>
        <time>2020-12-13T10:08:30Z</time>
      </trkpt>
      <trkpt lat="45.92512" lon="4.6213">
        <ele>361.7</ele>
        <time>2020-12-13T10:08:31Z</time>
      </trkpt>
      <trkpt lat="45.92511" lon="4.62132">
        <ele>361.7</ele>
        <time>2020-12-13T10:08:32Z</time>
      </trkpt>
      <trkpt lat="45.9251" lon="4.62134">
        <ele>361.6</ele>
        <time>2020-12-13T10:08:33Z</time>
      </trkpt>
      <trkpt lat="45.92509" lon="4.62135">
        <ele>361.5</ele>
        <time>2020-12-13T10:08:34Z</time>
      </trkpt>
      <trkpt lat="45.92508" lon="4.62137">
        <ele>361.5</ele>
        <time>2020-12-13T10:08:35Z</time>
      </trkpt>
      <trkpt lat="45.92508" lon="4.62137">
        <ele>361.4</ele>
        <time>2020-12-13T10:08:36Z</time>
      </trkpt>
      <trkpt lat="45.92506" lon="4.6214">
        <ele>361.3</ele>
        <time>2020-12-13T10:08:37Z</time>
      </trkpt>
      <trkpt lat="45.92506" lon="4.62141">
        <ele>361.3</ele>
        <time>2020-12-13T10:08:38Z</time>
      </trkpt>
      <trkpt lat="45.92506" lon="4.62142">
        <ele>361.2</ele>
        <time>2020-12-13T10:08:39Z</time>
      </trkpt>
      <trkpt lat="45.92505" lon="4.62143">
        <ele>361.2</ele>
        <time>2020-12-13T10:08:40Z</time>
      </trkpt>
      <trkpt lat="45.92505" lon="4.62145">
        <ele>361.1</ele>
        <time>2020-12-13T10:08:41Z</time>
      </trkpt>
      <trkpt lat="45.92504" lon="4.62146">
        <ele>361</ele>
        <time>2020-12-13T10:08:42Z</time>
      </trkpt>
      <trkpt lat="45.92503" lon="4.62148">
        <ele>361</ele>
        <time>2020-12-13T10:08:43Z</time>
      </trkpt>
      <trkpt lat="45.92502" lon="4.6215">
        <ele>360.9</ele>
        <time>2020-12-13T10:08:44Z</time>
      </trkpt>
      <trkpt lat="45.92501" lon="4.62153">
        <ele>360.8</ele>
        <time>2020-12-13T10:08:45Z</time>
      </trkpt>
      <trkpt lat="45.925" lon="4.62154">
        <ele>360.7</ele>
        <time>2020-12-13T10:08:46Z</time>
      </trkpt>
      <trkpt lat="45.925" lon="4.62156">
        <ele>360.7</ele>
        <time>2020-12-13T10:08:47Z</time>
      </trkpt>
      <trkpt lat="45.92499" lon="4.62159">
        <ele>360.6</ele>
        <time>2020-12-13T10:08:48Z</time>
      </trkpt>
      <trkpt lat="45.92499" lon="4.6216">
        <ele>360.5</ele>
        <time>2020-12-13T10:08:49Z</time>
      </trkpt>
      <trkpt lat="45.92498" lon="4.62161">
        <ele>360.5</ele>
        <time>2020-12-13T10:08:50Z</time>
      </trkpt>
      <trkpt lat="45.92497" lon="4.62164">
        <ele>360.4</ele>
        <time>2020-12-13T10:08:51Z</time>
      </trkpt>
      <trkpt lat="45.92496" lon="4.62166">
        <ele>360.3</ele>
        <time>2020-12-13T10:08:52Z</time>
      </trkpt>
      <trkpt lat="45.92496" lon="4.62166">
        <ele>360.3</ele>
        <time>2020-12-13T10:08:53Z</time>
      </trkpt>
      <trkpt lat="45.92496" lon="4.62168">
        <ele>360.2</ele>
        <time>2020-12-13T10:08:54Z</time>
      </trkpt>
      <trkpt lat="45.92495" lon="4.6217">
        <ele>360.1</ele>
        <time>2020-12-13T10:08:55Z</time>
      </trkpt>
      <trkpt lat="45.92494" lon="4.62172">
        <ele>360</ele>
        <time>2020-12-13T10:08:56Z</time>
      </trkpt>
      <trkpt lat="45.92493" lon="4.62173">
        <ele>360</ele>
        <time>2020-12-13T10:08:57Z</time>
      </trkpt>
      <trkpt lat="45.92493" lon="4.62175">
        <ele>359.9</ele>
        <time>2020-12-13T10:08:58Z</time>
      </trkpt>
      <trkpt lat="45.92492" lon="4.62177">
        <ele>359.9</ele>
        <time>2020-12-13T10:08:59Z</time>
      </trkpt>
      <trkpt lat="45.92491" lon="4.62178">
        <ele>359.8</ele>
        <time>2020-12-13T10:09:00Z</time>
      </trkpt>
      <trkpt lat="45.92491" lon="4.6218">
        <ele>359.8</ele>
        <time>2020-12-13T10:09:01Z</time>
      </trkpt>
      <trkpt lat="45.9249" lon="4.62181">
        <ele>359.7</ele>
        <time>2020-12-13T10:09:02Z</time>
      </trkpt>
      <trkpt lat="45.9249" lon="4.62182">
        <ele>359.7</ele>
        <time>2020-12-13T10:09:03Z</time>
      </trkpt>
      <trkpt lat="45.92489" lon="4.62185">
        <ele>359.6</ele>
        <time>2020-12-13T10:09:04Z</time>
      </trkpt>
      <trkpt lat="45.92489" lon="4.62186">
        <ele>359.5</ele>
        <time>2020-12-13T10:09:05Z</time>
      </trkpt>
      <trkpt lat="45.92488" lon="4.62188">
        <ele>359.5</ele>
        <time>2020-12-13T10:09:06Z</time>
      </trkpt>
      <trkpt lat="45.92488" lon="4.62189">
        <ele>359.4</ele>
        <time>2020-12-13T10:09:07Z</time>
      </trkpt>
      <trkpt lat="45.92488" lon="4.62191">
        <ele>359.4</ele>
        <time>2020-12-13T10:09:08Z</time>
      </trkpt>
      <trkpt lat="45.92487" lon="4.62194">
        <ele>359.3</ele>
        <time>2020-12-13T10:09:09Z</time>
      </trkpt>
      <trkpt lat="45.92487" lon="4.62195">
        <ele>359.3</ele>
        <time>2020-12-13T10:09:10Z</time>
      </trkpt>
      <trkpt lat="45.92487" lon="4.62196">
        <ele>359.2</ele>
        <time>2020-12-13T10:09:11Z</time>
      </trkpt>
      <trkpt lat="45.92486" lon="4.62198">
        <ele>359.2</ele>
        <time>2020-12-13T10:09:12Z</time>
      </trkpt>
      <trkpt lat="45.92486" lon="4.62199">
        <ele>359.1</ele>
        <time>2020-12-13T10:09:13Z</time>
      </trkpt>
      <trkpt lat="45.92485" lon="4.62201">
        <ele>359.1</ele>
        <time>2020-12-13T10:09:14Z</time>
      </trkpt>
      <trkpt lat="45.92485" lon="4.62202">
        <ele>359</ele>
        <time>2020-12-13T10:09:15Z</time>
      </trkpt>
      <trkpt lat="45.92484" lon="4.62205">
        <ele>359</ele>
        <time>2020-12-13T10:09:16Z</time>
      </trkpt>
      <trkpt lat="45.92484" lon="4.62206">
        <ele>358.9</ele>
        <time>2020-12-13T10:09:17Z</time>
      </trkpt>
      <trkpt lat="45.92483" lon="4.62209">
        <ele>358.8</ele>
        <time>2020-12-13T10:09:18Z</time>
      </trkpt>
      <trkpt lat="45.92483" lon="4.6221">
        <ele>358.8</ele>
        <time>2020-12-13T10:09:19Z</time>
      </trkpt>
      <trkpt lat="45.92483" lon="4.62212">
        <ele>358.7</ele>
        <time>2020-12-13T10:09:20Z</time>
      </trkpt>
      <trkpt lat="45.92482" lon="4.62215">
        <ele>358.6</ele>
        <time>2020-12-13T10:09:21Z</time>
      </trkpt>
      <trkpt lat="45.92481" lon="4.62218">
        <ele>358.6</ele>
        <time>2020-12-13T10:09:22Z</time>
      </trkpt>
      <trkpt lat="45.92481" lon="4.62219">
        <ele>358.5</ele>
        <time>2020-12-13T10:09:23Z</time>
      </trkpt>
      <trkpt lat="45.9248" lon="4.6222">
        <ele>358.5</ele>
        <time>2020-12-13T10:09:24Z</time>
      </trkpt>
      <trkpt lat="45.92479" lon="4.62222">
        <ele>358.4</ele>
        <time>2020-12-13T10:09:25Z</time>
      </trkpt>
      <trkpt lat="45.92479" lon="4.62224">
        <ele>358.4</ele>
        <time>2020-12-13T10:09:26Z</time>
      </trkpt>
      <trkpt lat="45.92478" lon="4.62226">
        <ele>358.3</ele>
        <time>2020-12-13T10:09:27Z</time>
      </trkpt>
      <trkpt lat="45.92478" lon="4.62227">
        <ele>358.2</ele>
        <time>2020-12-13T10:09:28Z</time>
      </trkpt>
      <trkpt lat="45.92477" lon="4.62228">
        <ele>358.2</ele>
        <time>2020-12-13T10:09:29Z</time>
      </trkpt>
      <trkpt lat="45.92477" lon="4.62228">
        <ele>358.2</ele>
        <time>2020-12-13T10:09:30Z</time>
      </trkpt>
      <trkpt lat="45.92476" lon="4.6223">
        <ele>358.1</ele>
        <time>2020-12-13T10:09:31Z</time>
      </trkpt>
      <trkpt lat="45.92476" lon="4.62231">
        <ele>358.1</ele>
        <time>2020-12-13T10:09:32Z</time>
      </trkpt>
      <trkpt lat="45.92476" lon="4.62233">
        <ele>358</ele>
        <time>2020-12-13T10:09:33Z</time>
      </trkpt>
      <trkpt lat="45.92475" lon="4.62235">
        <ele>358</ele>
        <time>2020-12-13T10:09:34Z</time>
      </trkpt>
      <trkpt lat="45.92474" lon="4.62236">
        <ele>357.9</ele>
        <time>2020-12-13T10:09:35Z</time>
      </trkpt>
      <trkpt lat="45.92473" lon="4.6224">
        <ele>357.8</ele>
        <time>2020-12-13T10:09:36Z</time>
      </trkpt>
      <trkpt lat="45.92473" lon="4.62241">
        <ele>357.8</ele>
        <time>2020-12-13T10:09:37Z</time>
      </trkpt>
      <trkpt lat="45.92472" lon="4.62242">
        <ele>357.8</ele>
        <time>2020-12-13T10:09:38Z</time>
      </trkpt>
      <trkpt lat="45.92471" lon="4.62246">
        <ele>357.6</ele>
        <time>2020-12-13T10:09:39Z</time>
      </trkpt>
      <trkpt lat="45.9247" lon="4.62246">
        <ele>357.6</ele>
        <time>2020-12-13T10:09:40Z</time>
      </trkpt>
      <trkpt lat="45.92469" lon="4.62249">
        <ele>357.5</ele>
        <time>2020-12-13T10:09:41Z</time>
      </trkpt>
      <trkpt lat="45.92469" lon="4.6225">
        <ele>357.5</ele>
        <time>2020-12-13T10:09:42Z</time>
      </trkpt>
      <trkpt lat="45.92468" lon="4.62251">
        <ele>357.5</ele>
        <time>2020-12-13T10:09:43Z</time>
      </trkpt>
      <trkpt lat="45.92468" lon="4.62251">
        <ele>357.4</ele>
        <time>2020-12-13T10:09:44Z</time>
      </trkpt>
      <trkpt lat="45.92467" lon="4.62254">
        <ele>357.4</ele>
        <time>2020-12-13T10:09:45Z</time>
      </trkpt>
      <trkpt lat="45.92466" lon="4.62256">
        <ele>357.3</ele>
        <time>2020-12-13T10:09:46Z</time>
      </trkpt>
      <trkpt lat="45.92465" lon="4.62258">
        <ele>357.2</ele>
        <time>2020-12-13T10:09:47Z</time>
      </trkpt>
      <trkpt lat="45.92464" lon="4.6226">
        <ele>357.1</ele>
        <time>2020-12-13T10:09:48Z</time>
      </trkpt>
      <trkpt lat="45.92463" lon="4.62261">
        <ele>357.1</ele>
        <time>2020-12-13T10:09:49Z</time>
      </trkpt>
      <trkpt lat="45.92462" lon="4.62263">
        <ele>357</ele>
        <time>2020-12-13T10:09:50Z</time>
      </trkpt>
      <trkpt lat="45.92461" lon="4.62264">
        <ele>357</ele>
        <time>2020-12-13T10:09:51Z</time>
      </trkpt>
      <trkpt lat="45.92461" lon="4.62265">
        <ele>357</ele>
        <time>2020-12-13T10:09:52Z</time>
      </trkpt>
      <trkpt lat="45.9246" lon="4.62267">
        <ele>356.9</ele>
        <time>2020-12-13T10:09:53Z</time>
      </trkpt>
      <trkpt lat="45.92459" lon="4.62268">
        <ele>356.8</ele>
        <time>2020-12-13T10:09:54Z</time>
      </trkpt>
      <trkpt lat="45.92457" lon="4.62272">
        <ele>356.7</ele>
        <time>2020-12-13T10:09:55Z</time>
      </trkpt>
      <trkpt lat="45.92456" lon="4.62273">
        <ele>356.6</ele>
        <time>2020-12-13T10:09:56Z</time>
      </trkpt>
      <trkpt lat="45.92455" lon="4.62276">
        <ele>356.6</ele>
        <time>2020-12-13T10:09:57Z</time>
      </trkpt>
      <trkpt lat="45.92455" lon="4.62277">
        <ele>356.5</ele>
        <time>2020-12-13T10:09:58Z</time>
      </trkpt>
      <trkpt lat="45.92454" lon="4.62278">
        <ele>356.5</ele>
        <time>2020-12-13T10:09:59Z</time>
      </trkpt>
      <trkpt lat="45.92453" lon="4.62281">
        <ele>356.4</ele>
        <time>2020-12-13T10:10:00Z</time>
      </trkpt>
      <trkpt lat="45.92452" lon="4.62282">
        <ele>356.3</ele>
        <time>2020-12-13T10:10:01Z</time>
      </trkpt>
      <trkpt lat="45.92451" lon="4.62283">
        <ele>356.3</ele>
        <time>2020-12-13T10:10:02Z</time>
      </trkpt>
      <trkpt lat="45.92451" lon="4.62284">
        <ele>356.3</ele>
        <time>2020-12-13T10:10:03Z</time>
      </trkpt>
      <trkpt lat="45.9245" lon="4.62285">
        <ele>356.2</ele>
        <time>2020-12-13T10:10:04Z</time>
      </trkpt>
      <trkpt lat="45.92449" lon="4.62286">
        <ele>356.2</ele>
        <time>2020-12-13T10:10:05Z</time>
      </trkpt>
      <trkpt lat="45.92448" lon="4.62288">
        <ele>356.1</ele>
        <time>2020-12-13T10:10:06Z</time>
      </trkpt>
      <trkpt lat="45.92448" lon="4.62289">
        <ele>356</ele>
        <time>2020-12-13T10:10:07Z</time>
      </trkpt>
      <trkpt lat="45.92447" lon="4.6229">
        <ele>356</ele>
        <time>2020-12-13T10:10:08Z</time>
      </trkpt>
      <trkpt lat="45.92445" lon="4.62293">
        <ele>355.9</ele>
        <time>2020-12-13T10:10:09Z</time>
      </trkpt>
      <trkpt lat="45.92445" lon="4.62294">
        <ele>355.8</ele>
        <time>2020-12-13T10:10:10Z</time>
      </trkpt>
      <trkpt lat="45.92444" lon="4.62295">
        <ele>355.8</ele>
        <time>2020-12-13T10:10:11Z</time>
      </trkpt>
      <trkpt lat="45.92443" lon="4.62297">
        <ele>355.7</ele>
        <time>2020-12-13T10:10:12Z</time>
      </trkpt>
      <trkpt lat="45.92443" lon="4.62298">
        <ele>355.6</ele>
        <time>2020-12-13T10:10:13Z</time>
      </trkpt>
      <trkpt lat="45.92442" lon="4.62299">
        <ele>355.6</ele>
        <time>2020-12-13T10:10:14Z</time>
      </trkpt>
      <trkpt lat="45.92441" lon="4.62301">
        <ele>355.5</ele>
        <time>2020-12-13T10:10:15Z</time>
      </trkpt>
      <trkpt lat="45.92441" lon="4.62302">
        <ele>355.4</ele>
        <time>2020-12-13T10:10:16Z</time>
      </trkpt>
      <trkpt lat="45.92439" lon="4.62304">
        <ele>355.3</ele>
        <time>2020-12-13T10:10:17Z</time>
      </trkpt>
      <trkpt lat="45.92438" lon="4.62306">
        <ele>355.3</ele>
        <time>2020-12-13T10:10:18Z</time>
      </trkpt>
      <trkpt lat="45.92438" lon="4.62307">
        <ele>355.2</ele>
        <time>2020-12-13T10:10:19Z</time>
      </trkpt>
      <trkpt lat="45.92436" lon="4.62308">
        <ele>355.2</ele>
        <time>2020-12-13T10:10:20Z</time>
      </trkpt>
      <trkpt lat="45.92435" lon="4.62311">
        <ele>355.1</ele>
        <time>2020-12-13T10:10:22Z</time>
      </trkpt>
      <trkpt lat="45.92434" lon="4.62313">
        <ele>355</ele>
        <time>2020-12-13T10:10:24Z</time>
      </trkpt>
      <trkpt lat="45.92433" lon="4.62315">
        <ele>354.9</ele>
        <time>2020-12-13T10:10:25Z</time>
      </trkpt>
      <trkpt lat="45.92432" lon="4.62316">
        <ele>354.9</ele>
        <time>2020-12-13T10:10:26Z</time>
      </trkpt>
      <trkpt lat="45.92431" lon="4.62317">
        <ele>354.8</ele>
        <time>2020-12-13T10:10:27Z</time>
      </trkpt>
      <trkpt lat="45.9243" lon="4.62319">
        <ele>354.7</ele>
        <time>2020-12-13T10:10:28Z</time>
      </trkpt>
      <trkpt lat="45.92429" lon="4.6232">
        <ele>354.7</ele>
        <time>2020-12-13T10:10:29Z</time>
      </trkpt>
      <trkpt lat="45.92427" lon="4.62322">
        <ele>354.6</ele>
        <time>2020-12-13T10:10:30Z</time>
      </trkpt>
      <trkpt lat="45.92427" lon="4.62323">
        <ele>354.6</ele>
        <time>2020-12-13T10:10:31Z</time>
      </trkpt>
      <trkpt lat="45.92426" lon="4.62324">
        <ele>354.5</ele>
        <time>2020-12-13T10:10:32Z</time>
      </trkpt>
      <trkpt lat="45.92425" lon="4.62325">
        <ele>354.5</ele>
        <time>2020-12-13T10:10:33Z</time>
      </trkpt>
      <trkpt lat="45.92423" lon="4.62327">
        <ele>354.4</ele>
        <time>2020-12-13T10:10:34Z</time>
      </trkpt>
      <trkpt lat="45.92423" lon="4.62328">
        <ele>354.3</ele>
        <time>2020-12-13T10:10:35Z</time>
      </trkpt>
      <trkpt lat="45.92422" lon="4.62329">
        <ele>354.3</ele>
        <time>2020-12-13T10:10:36Z</time>
      </trkpt>
      <trkpt lat="45.92421" lon="4.6233">
        <ele>354.2</ele>
        <time>2020-12-13T10:10:37Z</time>
      </trkpt>
      <trkpt lat="45.9242" lon="4.62331">
        <ele>354.2</ele>
        <time>2020-12-13T10:10:38Z</time>
      </trkpt>
      <trkpt lat="45.92419" lon="4.62332">
        <ele>354.2</ele>
        <time>2020-12-13T10:10:39Z</time>
      </trkpt>
      <trkpt lat="45.92419" lon="4.62333">
        <ele>354.1</ele>
        <time>2020-12-13T10:10:40Z</time>
      </trkpt>
      <trkpt lat="45.92417" lon="4.62334">
        <ele>354.1</ele>
        <time>2020-12-13T10:10:41Z</time>
      </trkpt>
      <trkpt lat="45.92416" lon="4.62335">
        <ele>354</ele>
        <time>2020-12-13T10:10:42Z</time>
      </trkpt>
      <trkpt lat="45.92414" lon="4.62336">
        <ele>353.9</ele>
        <time>2020-12-13T10:10:43Z</time>
      </trkpt>
      <trkpt lat="45.92413" lon="4.62338">
        <ele>353.9</ele>
        <time>2020-12-13T10:10:44Z</time>
      </trkpt>
      <trkpt lat="45.92412" lon="4.62339">
        <ele>353.8</ele>
        <time>2020-12-13T10:10:45Z</time>
      </trkpt>
      <trkpt lat="45.92411" lon="4.6234">
        <ele>353.8</ele>
        <time>2020-12-13T10:10:46Z</time>
      </trkpt>
      <trkpt lat="45.9241" lon="4.62341">
        <ele>353.7</ele>
        <time>2020-12-13T10:10:47Z</time>
      </trkpt>
      <trkpt lat="45.92409" lon="4.62342">
        <ele>353.7</ele>
        <time>2020-12-13T10:10:48Z</time>
      </trkpt>
      <trkpt lat="45.92408" lon="4.62344">
        <ele>353.6</ele>
        <time>2020-12-13T10:10:49Z</time>
      </trkpt>
      <trkpt lat="45.92408" lon="4.62344">
        <ele>353.6</ele>
        <time>2020-12-13T10:10:50Z</time>
      </trkpt>
      <trkpt lat="45.92407" lon="4.62344">
        <ele>353.6</ele>
        <time>2020-12-13T10:10:51Z</time>
      </trkpt>
      <trkpt lat="45.92406" lon="4.62345">
        <ele>353.5</ele>
        <time>2020-12-13T10:10:52Z</time>
      </trkpt>
      <trkpt lat="45.92404" lon="4.62347">
        <ele>353.4</ele>
        <time>2020-12-13T10:10:53Z</time>
      </trkpt>
      <trkpt lat="45.92402" lon="4.62349">
        <ele>353.3</ele>
        <time>2020-12-13T10:10:54Z</time>
      </trkpt>
      <trkpt lat="45.92402" lon="4.6235">
        <ele>353.3</ele>
        <time>2020-12-13T10:10:55Z</time>
      </trkpt>
      <trkpt lat="45.92401" lon="4.62351">
        <ele>353.3</ele>
        <time>2020-12-13T10:10:56Z</time>
      </trkpt>
      <trkpt lat="45.92399" lon="4.62353">
        <ele>353.2</ele>
        <time>2020-12-13T10:10:57Z</time>
      </trkpt>
      <trkpt lat="45.92398" lon="4.62354">
        <ele>353.1</ele>
        <time>2020-12-13T10:10:58Z</time>
      </trkpt>
      <trkpt lat="45.92397" lon="4.62355">
        <ele>353</ele>
        <time>2020-12-13T10:10:59Z</time>
      </trkpt>
      <trkpt lat="45.92397" lon="4.62355">
        <ele>353</ele>
        <time>2020-12-13T10:11:00Z</time>
      </trkpt>
      <trkpt lat="45.92396" lon="4.62356">
        <ele>353</ele>
        <time>2020-12-13T10:11:01Z</time>
      </trkpt>
      <trkpt lat="45.92395" lon="4.62357">
        <ele>353</ele>
        <time>2020-12-13T10:11:02Z</time>
      </trkpt>
      <trkpt lat="45.92394" lon="4.62358">
        <ele>352.9</ele>
        <time>2020-12-13T10:11:03Z</time>
      </trkpt>
      <trkpt lat="45.92391" lon="4.6236">
        <ele>352.8</ele>
        <time>2020-12-13T10:11:04Z</time>
      </trkpt>
      <trkpt lat="45.92391" lon="4.62361">
        <ele>352.7</ele>
        <time>2020-12-13T10:11:05Z</time>
      </trkpt>
      <trkpt lat="45.92389" lon="4.62362">
        <ele>352.7</ele>
        <time>2020-12-13T10:11:06Z</time>
      </trkpt>
      <trkpt lat="45.92388" lon="4.62363">
        <ele>352.6</ele>
        <time>2020-12-13T10:11:07Z</time>
      </trkpt>
      <trkpt lat="45.92388" lon="4.62363">
        <ele>352.6</ele>
        <time>2020-12-13T10:11:08Z</time>
      </trkpt>
      <trkpt lat="45.92386" lon="4.62365">
        <ele>352.5</ele>
        <time>2020-12-13T10:11:09Z</time>
      </trkpt>
      <trkpt lat="45.92385" lon="4.62366">
        <ele>352.5</ele>
        <time>2020-12-13T10:11:10Z</time>
      </trkpt>
      <trkpt lat="45.92384" lon="4.62367">
        <ele>352.4</ele>
        <time>2020-12-13T10:11:11Z</time>
      </trkpt>
      <trkpt lat="45.92384" lon="4.62368">
        <ele>352.4</ele>
        <time>2020-12-13T10:11:12Z</time>
      </trkpt>
      <trkpt lat="45.92383" lon="4.6237">
        <ele>352.4</ele>
        <time>2020-12-13T10:11:13Z</time>
      </trkpt>
      <trkpt lat="45.92382" lon="4.62371">
        <ele>352.3</ele>
        <time>2020-12-13T10:11:14Z</time>
      </trkpt>
      <trkpt lat="45.92381" lon="4.62372">
        <ele>352.3</ele>
        <time>2020-12-13T10:11:15Z</time>
      </trkpt>
      <trkpt lat="45.9238" lon="4.62373">
        <ele>352.3</ele>
        <time>2020-12-13T10:11:16Z</time>
      </trkpt>
      <trkpt lat="45.92379" lon="4.62373">
        <ele>352.2</ele>
        <time>2020-12-13T10:11:17Z</time>
      </trkpt>
      <trkpt lat="45.92378" lon="4.62375">
        <ele>352.2</ele>
        <time>2020-12-13T10:11:18Z</time>
      </trkpt>
      <trkpt lat="45.92377" lon="4.62376">
        <ele>352.2</ele>
        <time>2020-12-13T10:11:19Z</time>
      </trkpt>
      <trkpt lat="45.92377" lon="4.62376">
        <ele>352.2</ele>
        <time>2020-12-13T10:11:20Z</time>
      </trkpt>
      <trkpt lat="45.92375" lon="4.62378">
        <ele>352.1</ele>
        <time>2020-12-13T10:11:21Z</time>
      </trkpt>
      <trkpt lat="45.92374" lon="4.62379">
        <ele>352.1</ele>
        <time>2020-12-13T10:11:22Z</time>
      </trkpt>
      <trkpt lat="45.92372" lon="4.6238">
        <ele>352.1</ele>
        <time>2020-12-13T10:11:23Z</time>
      </trkpt>
      <trkpt lat="45.92371" lon="4.62381">
        <ele>352</ele>
        <time>2020-12-13T10:11:24Z</time>
      </trkpt>
      <trkpt lat="45.9237" lon="4.62381">
        <ele>352</ele>
        <time>2020-12-13T10:11:25Z</time>
      </trkpt>
      <trkpt lat="45.92368" lon="4.62383">
        <ele>352</ele>
        <time>2020-12-13T10:11:26Z</time>
      </trkpt>
      <trkpt lat="45.92368" lon="4.62384">
        <ele>352</ele>
        <time>2020-12-13T10:11:27Z</time>
      </trkpt>
      <trkpt lat="45.92367" lon="4.62384">
        <ele>352</ele>
        <time>2020-12-13T10:11:28Z</time>
      </trkpt>
      <trkpt lat="45.92366" lon="4.62385">
        <ele>351.9</ele>
        <time>2020-12-13T10:11:29Z</time>
      </trkpt>
      <trkpt lat="45.92365" lon="4.62386">
        <ele>351.9</ele>
        <time>2020-12-13T10:11:30Z</time>
      </trkpt>
      <trkpt lat="45.92364" lon="4.62387">
        <ele>351.9</ele>
        <time>2020-12-13T10:11:31Z</time>
      </trkpt>
      <trkpt lat="45.92362" lon="4.6239">
        <ele>351.8</ele>
        <time>2020-12-13T10:11:32Z</time>
      </trkpt>
      <trkpt lat="45.9236" lon="4.6239">
        <ele>351.8</ele>
        <time>2020-12-13T10:11:33Z</time>
      </trkpt>
      <trkpt lat="45.9236" lon="4.6239">
        <ele>351.7</ele>
        <time>2020-12-13T10:11:34Z</time>
      </trkpt>
      <trkpt lat="45.92359" lon="4.62391">
        <ele>351.6</ele>
        <time>2020-12-13T10:11:35Z</time>
      </trkpt>
      <trkpt lat="45.92358" lon="4.62392">
        <ele>351.6</ele>
        <time>2020-12-13T10:11:36Z</time>
      </trkpt>
      <trkpt lat="45.92356" lon="4.62393">
        <ele>351.5</ele>
        <time>2020-12-13T10:11:37Z</time>
      </trkpt>
      <trkpt lat="45.92356" lon="4.62394">
        <ele>351.4</ele>
        <time>2020-12-13T10:11:38Z</time>
      </trkpt>
      <trkpt lat="45.92355" lon="4.62395">
        <ele>351.4</ele>
        <time>2020-12-13T10:11:39Z</time>
      </trkpt>
      <trkpt lat="45.92354" lon="4.62396">
        <ele>351.3</ele>
        <time>2020-12-13T10:11:40Z</time>
      </trkpt>
      <trkpt lat="45.92353" lon="4.62397">
        <ele>351.2</ele>
        <time>2020-12-13T10:11:41Z</time>
      </trkpt>
      <trkpt lat="45.92351" lon="4.62398">
        <ele>351.1</ele>
        <time>2020-12-13T10:11:42Z</time>
      </trkpt>
      <trkpt lat="45.92349" lon="4.624">
        <ele>351</ele>
        <time>2020-12-13T10:11:43Z</time>
      </trkpt>
      <trkpt lat="45.92348" lon="4.624">
        <ele>350.9</ele>
        <time>2020-12-13T10:11:44Z</time>
      </trkpt>
      <trkpt lat="45.92347" lon="4.62401">
        <ele>350.9</ele>
        <time>2020-12-13T10:11:45Z</time>
      </trkpt>
      <trkpt lat="45.92346" lon="4.62401">
        <ele>350.8</ele>
        <time>2020-12-13T10:11:46Z</time>
      </trkpt>
      <trkpt lat="45.92344" lon="4.62403">
        <ele>350.7</ele>
        <time>2020-12-13T10:11:47Z</time>
      </trkpt>
      <trkpt lat="45.92344" lon="4.62403">
        <ele>350.6</ele>
        <time>2020-12-13T10:11:48Z</time>
      </trkpt>
      <trkpt lat="45.92343" lon="4.62404">
        <ele>350.5</ele>
        <time>2020-12-13T10:11:49Z</time>
      </trkpt>
      <trkpt lat="45.92341" lon="4.62406">
        <ele>350.4</ele>
        <time>2020-12-13T10:11:50Z</time>
      </trkpt>
      <trkpt lat="45.92339" lon="4.62407">
        <ele>350.3</ele>
        <time>2020-12-13T10:11:51Z</time>
      </trkpt>
      <trkpt lat="45.92338" lon="4.62408">
        <ele>350.2</ele>
        <time>2020-12-13T10:11:52Z</time>
      </trkpt>
      <trkpt lat="45.92337" lon="4.62408">
        <ele>350.2</ele>
        <time>2020-12-13T10:11:53Z</time>
      </trkpt>
      <trkpt lat="45.92335" lon="4.6241">
        <ele>350</ele>
        <time>2020-12-13T10:11:54Z</time>
      </trkpt>
      <trkpt lat="45.92334" lon="4.62411">
        <ele>349.9</ele>
        <time>2020-12-13T10:11:55Z</time>
      </trkpt>
      <trkpt lat="45.92333" lon="4.62411">
        <ele>349.8</ele>
        <time>2020-12-13T10:11:56Z</time>
      </trkpt>
      <trkpt lat="45.92331" lon="4.62413">
        <ele>349.7</ele>
        <time>2020-12-13T10:11:57Z</time>
      </trkpt>
      <trkpt lat="45.92331" lon="4.62414">
        <ele>349.7</ele>
        <time>2020-12-13T10:11:58Z</time>
      </trkpt>
      <trkpt lat="45.9233" lon="4.62415">
        <ele>349.6</ele>
        <time>2020-12-13T10:11:59Z</time>
      </trkpt>
      <trkpt lat="45.9233" lon="4.62415">
        <ele>349.6</ele>
        <time>2020-12-13T10:12:00Z</time>
      </trkpt>
      <trkpt lat="45.92329" lon="4.62416">
        <ele>349.4</ele>
        <time>2020-12-13T10:12:01Z</time>
      </trkpt>
      <trkpt lat="45.92327" lon="4.62419">
        <ele>349.3</ele>
        <time>2020-12-13T10:12:02Z</time>
      </trkpt>
      <trkpt lat="45.92326" lon="4.6242">
        <ele>349.2</ele>
        <time>2020-12-13T10:12:03Z</time>
      </trkpt>
      <trkpt lat="45.92325" lon="4.62422">
        <ele>349.1</ele>
        <time>2020-12-13T10:12:04Z</time>
      </trkpt>
      <trkpt lat="45.92324" lon="4.62423">
        <ele>349</ele>
        <time>2020-12-13T10:12:05Z</time>
      </trkpt>
      <trkpt lat="45.92323" lon="4.62424">
        <ele>348.9</ele>
        <time>2020-12-13T10:12:06Z</time>
      </trkpt>
      <trkpt lat="45.92322" lon="4.62426">
        <ele>348.8</ele>
        <time>2020-12-13T10:12:07Z</time>
      </trkpt>
      <trkpt lat="45.92321" lon="4.62427">
        <ele>348.7</ele>
        <time>2020-12-13T10:12:08Z</time>
      </trkpt>
      <trkpt lat="45.92321" lon="4.62428">
        <ele>348.7</ele>
        <time>2020-12-13T10:12:09Z</time>
      </trkpt>
      <trkpt lat="45.9232" lon="4.6243">
        <ele>348.6</ele>
        <time>2020-12-13T10:12:10Z</time>
      </trkpt>
      <trkpt lat="45.92319" lon="4.62431">
        <ele>348.5</ele>
        <time>2020-12-13T10:12:11Z</time>
      </trkpt>
      <trkpt lat="45.92318" lon="4.62433">
        <ele>348.4</ele>
        <time>2020-12-13T10:12:12Z</time>
      </trkpt>
      <trkpt lat="45.92317" lon="4.62433">
        <ele>348.3</ele>
        <time>2020-12-13T10:12:13Z</time>
      </trkpt>
      <trkpt lat="45.92317" lon="4.62434">
        <ele>348.3</ele>
        <time>2020-12-13T10:12:14Z</time>
      </trkpt>
      <trkpt lat="45.92316" lon="4.62434">
        <ele>348.2</ele>
        <time>2020-12-13T10:12:15Z</time>
      </trkpt>
      <trkpt lat="45.92314" lon="4.62436">
        <ele>348.1</ele>
        <time>2020-12-13T10:12:16Z</time>
      </trkpt>
      <trkpt lat="45.92314" lon="4.62437">
        <ele>348</ele>
        <time>2020-12-13T10:12:17Z</time>
      </trkpt>
      <trkpt lat="45.92313" lon="4.62438">
        <ele>347.9</ele>
        <time>2020-12-13T10:12:18Z</time>
      </trkpt>
      <trkpt lat="45.92312" lon="4.62439">
        <ele>347.9</ele>
        <time>2020-12-13T10:12:19Z</time>
      </trkpt>
      <trkpt lat="45.92311" lon="4.6244">
        <ele>347.8</ele>
        <time>2020-12-13T10:12:20Z</time>
      </trkpt>
      <trkpt lat="45.92308" lon="4.62443">
        <ele>347.5</ele>
        <time>2020-12-13T10:12:22Z</time>
      </trkpt>
      <trkpt lat="45.92306" lon="4.62446">
        <ele>347.3</ele>
        <time>2020-12-13T10:12:24Z</time>
      </trkpt>
      <trkpt lat="45.92305" lon="4.62447">
        <ele>347.2</ele>
        <time>2020-12-13T10:12:26Z</time>
      </trkpt>
      <trkpt lat="45.92303" lon="4.6245">
        <ele>347.1</ele>
        <time>2020-12-13T10:12:27Z</time>
      </trkpt>
      <trkpt lat="45.92303" lon="4.62451">
        <ele>347</ele>
        <time>2020-12-13T10:12:28Z</time>
      </trkpt>
      <trkpt lat="45.92302" lon="4.62452">
        <ele>346.9</ele>
        <time>2020-12-13T10:12:29Z</time>
      </trkpt>
      <trkpt lat="45.923" lon="4.62453">
        <ele>346.8</ele>
        <time>2020-12-13T10:12:30Z</time>
      </trkpt>
      <trkpt lat="45.92299" lon="4.62454">
        <ele>346.7</ele>
        <time>2020-12-13T10:12:31Z</time>
      </trkpt>
      <trkpt lat="45.92298" lon="4.62455">
        <ele>346.6</ele>
        <time>2020-12-13T10:12:32Z</time>
      </trkpt>
      <trkpt lat="45.92298" lon="4.62457">
        <ele>346.5</ele>
        <time>2020-12-13T10:12:33Z</time>
      </trkpt>
      <trkpt lat="45.92297" lon="4.62457">
        <ele>346.4</ele>
        <time>2020-12-13T10:12:34Z</time>
      </trkpt>
      <trkpt lat="45.92296" lon="4.62459">
        <ele>346.3</ele>
        <time>2020-12-13T10:12:35Z</time>
      </trkpt>
      <trkpt lat="45.92295" lon="4.6246">
        <ele>346.2</ele>
        <time>2020-12-13T10:12:36Z</time>
      </trkpt>
      <trkpt lat="45.92294" lon="4.62461">
        <ele>346.2</ele>
        <time>2020-12-13T10:12:37Z</time>
      </trkpt>
      <trkpt lat="45.92294" lon="4.62462">
        <ele>346.1</ele>
        <time>2020-12-13T10:12:38Z</time>
      </trkpt>
      <trkpt lat="45.92293" lon="4.62464">
        <ele>346</ele>
        <time>2020-12-13T10:12:39Z</time>
      </trkpt>
      <trkpt lat="45.92292" lon="4.62465">
        <ele>345.9</ele>
        <time>2020-12-13T10:12:40Z</time>
      </trkpt>
      <trkpt lat="45.92291" lon="4.62467">
        <ele>345.8</ele>
        <time>2020-12-13T10:12:41Z</time>
      </trkpt>
      <trkpt lat="45.9229" lon="4.62468">
        <ele>345.7</ele>
        <time>2020-12-13T10:12:42Z</time>
      </trkpt>
      <trkpt lat="45.92289" lon="4.62468">
        <ele>345.6</ele>
        <time>2020-12-13T10:12:43Z</time>
      </trkpt>
      <trkpt lat="45.92288" lon="4.62469">
        <ele>345.5</ele>
        <time>2020-12-13T10:12:44Z</time>
      </trkpt>
      <trkpt lat="45.92287" lon="4.6247">
        <ele>345.5</ele>
        <time>2020-12-13T10:12:45Z</time>
      </trkpt>
      <trkpt lat="45.92285" lon="4.62472">
        <ele>345.3</ele>
        <time>2020-12-13T10:12:46Z</time>
      </trkpt>
      <trkpt lat="45.92283" lon="4.62473">
        <ele>345.1</ele>
        <time>2020-12-13T10:12:47Z</time>
      </trkpt>
      <trkpt lat="45.92283" lon="4.62474">
        <ele>345.1</ele>
        <time>2020-12-13T10:12:48Z</time>
      </trkpt>
      <trkpt lat="45.92282" lon="4.62475">
        <ele>345</ele>
        <time>2020-12-13T10:12:49Z</time>
      </trkpt>
      <trkpt lat="45.92281" lon="4.62476">
        <ele>344.9</ele>
        <time>2020-12-13T10:12:50Z</time>
      </trkpt>
      <trkpt lat="45.9228" lon="4.62477">
        <ele>344.8</ele>
        <time>2020-12-13T10:12:51Z</time>
      </trkpt>
      <trkpt lat="45.92279" lon="4.62478">
        <ele>344.8</ele>
        <time>2020-12-13T10:12:52Z</time>
      </trkpt>
      <trkpt lat="45.92277" lon="4.62479">
        <ele>344.6</ele>
        <time>2020-12-13T10:12:53Z</time>
      </trkpt>
      <trkpt lat="45.92276" lon="4.6248">
        <ele>344.5</ele>
        <time>2020-12-13T10:12:54Z</time>
      </trkpt>
      <trkpt lat="45.92275" lon="4.62481">
        <ele>344.4</ele>
        <time>2020-12-13T10:12:55Z</time>
      </trkpt>
      <trkpt lat="45.92274" lon="4.62482">
        <ele>344.4</ele>
        <time>2020-12-13T10:12:56Z</time>
      </trkpt>
      <trkpt lat="45.92273" lon="4.62483">
        <ele>344.3</ele>
        <time>2020-12-13T10:12:57Z</time>
      </trkpt>
      <trkpt lat="45.92273" lon="4.62485">
        <ele>344.2</ele>
        <time>2020-12-13T10:12:58Z</time>
      </trkpt>
      <trkpt lat="45.92271" lon="4.62486">
        <ele>344.1</ele>
        <time>2020-12-13T10:12:59Z</time>
      </trkpt>
      <trkpt lat="45.92271" lon="4.62487">
        <ele>344</ele>
        <time>2020-12-13T10:13:00Z</time>
      </trkpt>
      <trkpt lat="45.9227" lon="4.62489">
        <ele>343.9</ele>
        <time>2020-12-13T10:13:01Z</time>
      </trkpt>
      <trkpt lat="45.9227" lon="4.6249">
        <ele>343.9</ele>
        <time>2020-12-13T10:13:02Z</time>
      </trkpt>
      <trkpt lat="45.92269" lon="4.62492">
        <ele>343.8</ele>
        <time>2020-12-13T10:13:03Z</time>
      </trkpt>
      <trkpt lat="45.92268" lon="4.62493">
        <ele>343.7</ele>
        <time>2020-12-13T10:13:04Z</time>
      </trkpt>
      <trkpt lat="45.92267" lon="4.62496">
        <ele>343.6</ele>
        <time>2020-12-13T10:13:05Z</time>
      </trkpt>
      <trkpt lat="45.92266" lon="4.62496">
        <ele>343.5</ele>
        <time>2020-12-13T10:13:06Z</time>
      </trkpt>
      <trkpt lat="45.92265" lon="4.62497">
        <ele>343.5</ele>
        <time>2020-12-13T10:13:07Z</time>
      </trkpt>
      <trkpt lat="45.92265" lon="4.62498">
        <ele>343.4</ele>
        <time>2020-12-13T10:13:08Z</time>
      </trkpt>
      <trkpt lat="45.92264" lon="4.62499">
        <ele>343.4</ele>
        <time>2020-12-13T10:13:09Z</time>
      </trkpt>
      <trkpt lat="45.92263" lon="4.62501">
        <ele>343.3</ele>
        <time>2020-12-13T10:13:10Z</time>
      </trkpt>
      <trkpt lat="45.92263" lon="4.62502">
        <ele>343.3</ele>
        <time>2020-12-13T10:13:11Z</time>
      </trkpt>
      <trkpt lat="45.92262" lon="4.62504">
        <ele>343.2</ele>
        <time>2020-12-13T10:13:12Z</time>
      </trkpt>
      <trkpt lat="45.92261" lon="4.62505">
        <ele>343.1</ele>
        <time>2020-12-13T10:13:13Z</time>
      </trkpt>
      <trkpt lat="45.9226" lon="4.62507">
        <ele>343</ele>
        <time>2020-12-13T10:13:14Z</time>
      </trkpt>
      <trkpt lat="45.9226" lon="4.62509">
        <ele>343</ele>
        <time>2020-12-13T10:13:15Z</time>
      </trkpt>
      <trkpt lat="45.92258" lon="4.62511">
        <ele>342.9</ele>
        <time>2020-12-13T10:13:16Z</time>
      </trkpt>
      <trkpt lat="45.92258" lon="4.62512">
        <ele>342.8</ele>
        <time>2020-12-13T10:13:17Z</time>
      </trkpt>
      <trkpt lat="45.92258" lon="4.62515">
        <ele>342.7</ele>
        <time>2020-12-13T10:13:18Z</time>
      </trkpt>
      <trkpt lat="45.92257" lon="4.62517">
        <ele>342.6</ele>
        <time>2020-12-13T10:13:19Z</time>
      </trkpt>
      <trkpt lat="45.92255" lon="4.62518">
        <ele>342.5</ele>
        <time>2020-12-13T10:13:20Z</time>
      </trkpt>
      <trkpt lat="45.92254" lon="4.62519">
        <ele>342.5</ele>
        <time>2020-12-13T10:13:21Z</time>
      </trkpt>
      <trkpt lat="45.92254" lon="4.6252">
        <ele>342.5</ele>
        <time>2020-12-13T10:13:22Z</time>
      </trkpt>
      <trkpt lat="45.92254" lon="4.62522">
        <ele>342.4</ele>
        <time>2020-12-13T10:13:23Z</time>
      </trkpt>
      <trkpt lat="45.92253" lon="4.62523">
        <ele>342.3</ele>
        <time>2020-12-13T10:13:24Z</time>
      </trkpt>
      <trkpt lat="45.92253" lon="4.62525">
        <ele>342.3</ele>
        <time>2020-12-13T10:13:25Z</time>
      </trkpt>
      <trkpt lat="45.9225" lon="4.62528">
        <ele>342.2</ele>
        <time>2020-12-13T10:13:26Z</time>
      </trkpt>
      <trkpt lat="45.9225" lon="4.62528">
        <ele>342.2</ele>
        <time>2020-12-13T10:13:27Z</time>
      </trkpt>
      <trkpt lat="45.92249" lon="4.62531">
        <ele>342.1</ele>
        <time>2020-12-13T10:13:28Z</time>
      </trkpt>
      <trkpt lat="45.92248" lon="4.62532">
        <ele>342</ele>
        <time>2020-12-13T10:13:29Z</time>
      </trkpt>
      <trkpt lat="45.92248" lon="4.62533">
        <ele>342</ele>
        <time>2020-12-13T10:13:30Z</time>
      </trkpt>
      <trkpt lat="45.92247" lon="4.62534">
        <ele>341.9</ele>
        <time>2020-12-13T10:13:31Z</time>
      </trkpt>
      <trkpt lat="45.92246" lon="4.62535">
        <ele>341.9</ele>
        <time>2020-12-13T10:13:32Z</time>
      </trkpt>
      <trkpt lat="45.92245" lon="4.62537">
        <ele>341.9</ele>
        <time>2020-12-13T10:13:33Z</time>
      </trkpt>
      <trkpt lat="45.92244" lon="4.62539">
        <ele>341.8</ele>
        <time>2020-12-13T10:13:34Z</time>
      </trkpt>
      <trkpt lat="45.92244" lon="4.6254">
        <ele>341.8</ele>
        <time>2020-12-13T10:13:35Z</time>
      </trkpt>
      <trkpt lat="45.92243" lon="4.62541">
        <ele>341.8</ele>
        <time>2020-12-13T10:13:36Z</time>
      </trkpt>
      <trkpt lat="45.92243" lon="4.62543">
        <ele>341.7</ele>
        <time>2020-12-13T10:13:37Z</time>
      </trkpt>
      <trkpt lat="45.92242" lon="4.62545">
        <ele>341.7</ele>
        <time>2020-12-13T10:13:38Z</time>
      </trkpt>
      <trkpt lat="45.92241" lon="4.62547">
        <ele>341.6</ele>
        <time>2020-12-13T10:13:39Z</time>
      </trkpt>
      <trkpt lat="45.9224" lon="4.62547">
        <ele>341.6</ele>
        <time>2020-12-13T10:13:40Z</time>
      </trkpt>
      <trkpt lat="45.9224" lon="4.62548">
        <ele>341.6</ele>
        <time>2020-12-13T10:13:41Z</time>
      </trkpt>
      <trkpt lat="45.92239" lon="4.6255">
        <ele>341.5</ele>
        <time>2020-12-13T10:13:42Z</time>
      </trkpt>
      <trkpt lat="45.92239" lon="4.62552">
        <ele>341.5</ele>
        <time>2020-12-13T10:13:43Z</time>
      </trkpt>
      <trkpt lat="45.92239" lon="4.62553">
        <ele>341.5</ele>
        <time>2020-12-13T10:13:44Z</time>
      </trkpt>
      <trkpt lat="45.92237" lon="4.62555">
        <ele>341.4</ele>
        <time>2020-12-13T10:13:45Z</time>
      </trkpt>
      <trkpt lat="45.92236" lon="4.62556">
        <ele>341.4</ele>
        <time>2020-12-13T10:13:46Z</time>
      </trkpt>
      <trkpt lat="45.92236" lon="4.62557">
        <ele>341.4</ele>
        <time>2020-12-13T10:13:47Z</time>
      </trkpt>
      <trkpt lat="45.92235" lon="4.62559">
        <ele>341.4</ele>
        <time>2020-12-13T10:13:48Z</time>
      </trkpt>
      <trkpt lat="45.92234" lon="4.6256">
        <ele>341.3</ele>
        <time>2020-12-13T10:13:49Z</time>
      </trkpt>
      <trkpt lat="45.92234" lon="4.62561">
        <ele>341.3</ele>
        <time>2020-12-13T10:13:50Z</time>
      </trkpt>
      <trkpt lat="45.92232" lon="4.62562">
        <ele>341.3</ele>
        <time>2020-12-13T10:13:51Z</time>
      </trkpt>
      <trkpt lat="45.92232" lon="4.62563">
        <ele>341.3</ele>
        <time>2020-12-13T10:13:52Z</time>
      </trkpt>
      <trkpt lat="45.9223" lon="4.62566">
        <ele>341.2</ele>
        <time>2020-12-13T10:13:53Z</time>
      </trkpt>
      <trkpt lat="45.92229" lon="4.62567">
        <ele>341.2</ele>
        <time>2020-12-13T10:13:54Z</time>
      </trkpt>
      <trkpt lat="45.92228" lon="4.62568">
        <ele>341.2</ele>
        <time>2020-12-13T10:13:55Z</time>
      </trkpt>
      <trkpt lat="45.92227" lon="4.62569">
        <ele>341.2</ele>
        <time>2020-12-13T10:13:56Z</time>
      </trkpt>
      <trkpt lat="45.92226" lon="4.62571">
        <ele>341.2</ele>
        <time>2020-12-13T10:13:57Z</time>
      </trkpt>
      <trkpt lat="45.92225" lon="4.62572">
        <ele>341.1</ele>
        <time>2020-12-13T10:13:58Z</time>
      </trkpt>
      <trkpt lat="45.92223" lon="4.62574">
        <ele>341.1</ele>
        <time>2020-12-13T10:13:59Z</time>
      </trkpt>
      <trkpt lat="45.92223" lon="4.62575">
        <ele>341.1</ele>
        <time>2020-12-13T10:14:00Z</time>
      </trkpt>
      <trkpt lat="45.92222" lon="4.62576">
        <ele>341.1</ele>
        <time>2020-12-13T10:14:01Z</time>
      </trkpt>
      <trkpt lat="45.92221" lon="4.62577">
        <ele>341.1</ele>
        <time>2020-12-13T10:14:02Z</time>
      </trkpt>
      <trkpt lat="45.92221" lon="4.62578">
        <ele>341</ele>
        <time>2020-12-13T10:14:03Z</time>
      </trkpt>
      <trkpt lat="45.9222" lon="4.62579">
        <ele>341</ele>
        <time>2020-12-13T10:14:04Z</time>
      </trkpt>
      <trkpt lat="45.92219" lon="4.6258">
        <ele>341</ele>
        <time>2020-12-13T10:14:05Z</time>
      </trkpt>
      <trkpt lat="45.92217" lon="4.62582">
        <ele>341</ele>
        <time>2020-12-13T10:14:06Z</time>
      </trkpt>
      <trkpt lat="45.92216" lon="4.62583">
        <ele>340.9</ele>
        <time>2020-12-13T10:14:07Z</time>
      </trkpt>
      <trkpt lat="45.92216" lon="4.62584">
        <ele>340.9</ele>
        <time>2020-12-13T10:14:08Z</time>
      </trkpt>
      <trkpt lat="45.92215" lon="4.62585">
        <ele>340.9</ele>
        <time>2020-12-13T10:14:09Z</time>
      </trkpt>
      <trkpt lat="45.92213" lon="4.62588">
        <ele>340.8</ele>
        <time>2020-12-13T10:14:10Z</time>
      </trkpt>
      <trkpt lat="45.92213" lon="4.62588">
        <ele>340.8</ele>
        <time>2020-12-13T10:14:11Z</time>
      </trkpt>
      <trkpt lat="45.92212" lon="4.62589">
        <ele>340.8</ele>
        <time>2020-12-13T10:14:12Z</time>
      </trkpt>
      <trkpt lat="45.92211" lon="4.6259">
        <ele>340.8</ele>
        <time>2020-12-13T10:14:13Z</time>
      </trkpt>
      <trkpt lat="45.9221" lon="4.62591">
        <ele>340.7</ele>
        <time>2020-12-13T10:14:14Z</time>
      </trkpt>
      <trkpt lat="45.92207" lon="4.62594">
        <ele>340.7</ele>
        <time>2020-12-13T10:14:15Z</time>
      </trkpt>
      <trkpt lat="45.92207" lon="4.62595">
        <ele>340.6</ele>
        <time>2020-12-13T10:14:16Z</time>
      </trkpt>
      <trkpt lat="45.92205" lon="4.62597">
        <ele>340.5</ele>
        <time>2020-12-13T10:14:17Z</time>
      </trkpt>
      <trkpt lat="45.92204" lon="4.62599">
        <ele>340.4</ele>
        <time>2020-12-13T10:14:18Z</time>
      </trkpt>
      <trkpt lat="45.92203" lon="4.62599">
        <ele>340.3</ele>
        <time>2020-12-13T10:14:19Z</time>
      </trkpt>
      <trkpt lat="45.92202" lon="4.626">
        <ele>340.3</ele>
        <time>2020-12-13T10:14:20Z</time>
      </trkpt>
      <trkpt lat="45.92201" lon="4.62601">
        <ele>340.2</ele>
        <time>2020-12-13T10:14:21Z</time>
      </trkpt>
      <trkpt lat="45.922" lon="4.62602">
        <ele>340.1</ele>
        <time>2020-12-13T10:14:22Z</time>
      </trkpt>
      <trkpt lat="45.92199" lon="4.62603">
        <ele>340</ele>
        <time>2020-12-13T10:14:23Z</time>
      </trkpt>
      <trkpt lat="45.92198" lon="4.62604">
        <ele>340</ele>
        <time>2020-12-13T10:14:24Z</time>
      </trkpt>
      <trkpt lat="45.92197" lon="4.62606">
        <ele>339.9</ele>
        <time>2020-12-13T10:14:26Z</time>
      </trkpt>
      <trkpt lat="45.92196" lon="4.62607">
        <ele>339.8</ele>
        <time>2020-12-13T10:14:27Z</time>
      </trkpt>
      <trkpt lat="45.92195" lon="4.62609">
        <ele>339.7</ele>
        <time>2020-12-13T10:14:28Z</time>
      </trkpt>
      <trkpt lat="45.92194" lon="4.6261">
        <ele>339.7</ele>
        <time>2020-12-13T10:14:29Z</time>
      </trkpt>
      <trkpt lat="45.92194" lon="4.6261">
        <ele>339.6</ele>
        <time>2020-12-13T10:14:30Z</time>
      </trkpt>
      <trkpt lat="45.92192" lon="4.62613">
        <ele>339.5</ele>
        <time>2020-12-13T10:14:31Z</time>
      </trkpt>
      <trkpt lat="45.92192" lon="4.62614">
        <ele>339.4</ele>
        <time>2020-12-13T10:14:32Z</time>
      </trkpt>
      <trkpt lat="45.92191" lon="4.62615">
        <ele>339.4</ele>
        <time>2020-12-13T10:14:33Z</time>
      </trkpt>
      <trkpt lat="45.92189" lon="4.62617">
        <ele>339.3</ele>
        <time>2020-12-13T10:14:34Z</time>
      </trkpt>
      <trkpt lat="45.92188" lon="4.62617">
        <ele>339.2</ele>
        <time>2020-12-13T10:14:35Z</time>
      </trkpt>
      <trkpt lat="45.92188" lon="4.62619">
        <ele>339.2</ele>
        <time>2020-12-13T10:14:36Z</time>
      </trkpt>
      <trkpt lat="45.92186" lon="4.6262">
        <ele>339.1</ele>
        <time>2020-12-13T10:14:37Z</time>
      </trkpt>
      <trkpt lat="45.92185" lon="4.62621">
        <ele>339</ele>
        <time>2020-12-13T10:14:38Z</time>
      </trkpt>
      <trkpt lat="45.92184" lon="4.62622">
        <ele>339</ele>
        <time>2020-12-13T10:14:40Z</time>
      </trkpt>
      <trkpt lat="45.92184" lon="4.62624">
        <ele>338.9</ele>
        <time>2020-12-13T10:14:41Z</time>
      </trkpt>
      <trkpt lat="45.92183" lon="4.62625">
        <ele>338.9</ele>
        <time>2020-12-13T10:14:42Z</time>
      </trkpt>
      <trkpt lat="45.92183" lon="4.62625">
        <ele>338.9</ele>
        <time>2020-12-13T10:14:43Z</time>
      </trkpt>
      <trkpt lat="45.92181" lon="4.62626">
        <ele>338.8</ele>
        <time>2020-12-13T10:14:44Z</time>
      </trkpt>
      <trkpt lat="45.92181" lon="4.62627">
        <ele>338.8</ele>
        <time>2020-12-13T10:14:45Z</time>
      </trkpt>
      <trkpt lat="45.9218" lon="4.62628">
        <ele>338.7</ele>
        <time>2020-12-13T10:14:46Z</time>
      </trkpt>
      <trkpt lat="45.92178" lon="4.62629">
        <ele>338.7</ele>
        <time>2020-12-13T10:14:47Z</time>
      </trkpt>
      <trkpt lat="45.92177" lon="4.62631">
        <ele>338.6</ele>
        <time>2020-12-13T10:14:48Z</time>
      </trkpt>
      <trkpt lat="45.92176" lon="4.62631">
        <ele>338.6</ele>
        <time>2020-12-13T10:14:49Z</time>
      </trkpt>
      <trkpt lat="45.92175" lon="4.62632">
        <ele>338.5</ele>
        <time>2020-12-13T10:14:50Z</time>
      </trkpt>
      <trkpt lat="45.92173" lon="4.62634">
        <ele>338.4</ele>
        <time>2020-12-13T10:14:51Z</time>
      </trkpt>
      <trkpt lat="45.92172" lon="4.62635">
        <ele>338.4</ele>
        <time>2020-12-13T10:14:52Z</time>
      </trkpt>
      <trkpt lat="45.92169" lon="4.62637">
        <ele>338.3</ele>
        <time>2020-12-13T10:14:53Z</time>
      </trkpt>
      <trkpt lat="45.92169" lon="4.62637">
        <ele>338.3</ele>
        <time>2020-12-13T10:14:54Z</time>
      </trkpt>
      <trkpt lat="45.92167" lon="4.62639">
        <ele>338.2</ele>
        <time>2020-12-13T10:14:55Z</time>
      </trkpt>
      <trkpt lat="45.92166" lon="4.6264">
        <ele>338.2</ele>
        <time>2020-12-13T10:14:56Z</time>
      </trkpt>
      <trkpt lat="45.92165" lon="4.62642">
        <ele>338.1</ele>
        <time>2020-12-13T10:14:57Z</time>
      </trkpt>
      <trkpt lat="45.92164" lon="4.62642">
        <ele>338.1</ele>
        <time>2020-12-13T10:14:58Z</time>
      </trkpt>
      <trkpt lat="45.92162" lon="4.62644">
        <ele>338</ele>
        <time>2020-12-13T10:14:59Z</time>
      </trkpt>
      <trkpt lat="45.92161" lon="4.62645">
        <ele>338</ele>
        <time>2020-12-13T10:15:00Z</time>
      </trkpt>
      <trkpt lat="45.9216" lon="4.62645">
        <ele>338</ele>
        <time>2020-12-13T10:15:01Z</time>
      </trkpt>
      <trkpt lat="45.92159" lon="4.62647">
        <ele>337.9</ele>
        <time>2020-12-13T10:15:02Z</time>
      </trkpt>
      <trkpt lat="45.92158" lon="4.62647">
        <ele>337.9</ele>
        <time>2020-12-13T10:15:03Z</time>
      </trkpt>
      <trkpt lat="45.92157" lon="4.62648">
        <ele>337.8</ele>
        <time>2020-12-13T10:15:04Z</time>
      </trkpt>
      <trkpt lat="45.92155" lon="4.62649">
        <ele>337.8</ele>
        <time>2020-12-13T10:15:05Z</time>
      </trkpt>
      <trkpt lat="45.92154" lon="4.62649">
        <ele>337.8</ele>
        <time>2020-12-13T10:15:06Z</time>
      </trkpt>
      <trkpt lat="45.92152" lon="4.6265">
        <ele>337.7</ele>
        <time>2020-12-13T10:15:07Z</time>
      </trkpt>
      <trkpt lat="45.9215" lon="4.62652">
        <ele>337.6</ele>
        <time>2020-12-13T10:15:08Z</time>
      </trkpt>
      <trkpt lat="45.92149" lon="4.62653">
        <ele>337.6</ele>
        <time>2020-12-13T10:15:09Z</time>
      </trkpt>
      <trkpt lat="45.92148" lon="4.62653">
        <ele>337.6</ele>
        <time>2020-12-13T10:15:10Z</time>
      </trkpt>
      <trkpt lat="45.92147" lon="4.62655">
        <ele>337.5</ele>
        <time>2020-12-13T10:15:11Z</time>
      </trkpt>
      <trkpt lat="45.92147" lon="4.62655">
        <ele>337.5</ele>
        <time>2020-12-13T10:15:12Z</time>
      </trkpt>
      <trkpt lat="45.92147" lon="4.62656">
        <ele>337.5</ele>
        <time>2020-12-13T10:15:13Z</time>
      </trkpt>
      <trkpt lat="45.92146" lon="4.62657">
        <ele>337.5</ele>
        <time>2020-12-13T10:15:14Z</time>
      </trkpt>
      <trkpt lat="45.92145" lon="4.62658">
        <ele>337.5</ele>
        <time>2020-12-13T10:15:15Z</time>
      </trkpt>
      <trkpt lat="45.92144" lon="4.6266">
        <ele>337.4</ele>
        <time>2020-12-13T10:15:16Z</time>
      </trkpt>
      <trkpt lat="45.92144" lon="4.6266">
        <ele>337.4</ele>
        <time>2020-12-13T10:15:17Z</time>
      </trkpt>
      <trkpt lat="45.92143" lon="4.62662">
        <ele>337.3</ele>
        <time>2020-12-13T10:15:18Z</time>
      </trkpt>
      <trkpt lat="45.92142" lon="4.62663">
        <ele>337.3</ele>
        <time>2020-12-13T10:15:19Z</time>
      </trkpt>
      <trkpt lat="45.92141" lon="4.62664">
        <ele>337.3</ele>
        <time>2020-12-13T10:15:20Z</time>
      </trkpt>
      <trkpt lat="45.9214" lon="4.62665">
        <ele>337.3</ele>
        <time>2020-12-13T10:15:21Z</time>
      </trkpt>
      <trkpt lat="45.92139" lon="4.62665">
        <ele>337.2</ele>
        <time>2020-12-13T10:15:22Z</time>
      </trkpt>
      <trkpt lat="45.92138" lon="4.62666">
        <ele>337.2</ele>
        <time>2020-12-13T10:15:23Z</time>
      </trkpt>
      <trkpt lat="45.92137" lon="4.62666">
        <ele>337.2</ele>
        <time>2020-12-13T10:15:24Z</time>
      </trkpt>
      <trkpt lat="45.92135" lon="4.62667">
        <ele>337.1</ele>
        <time>2020-12-13T10:15:25Z</time>
      </trkpt>
      <trkpt lat="45.92134" lon="4.62667">
        <ele>337.1</ele>
        <time>2020-12-13T10:15:26Z</time>
      </trkpt>
      <trkpt lat="45.92134" lon="4.62668">
        <ele>337.1</ele>
        <time>2020-12-13T10:15:27Z</time>
      </trkpt>
      <trkpt lat="45.92132" lon="4.62669">
        <ele>337.1</ele>
        <time>2020-12-13T10:15:28Z</time>
      </trkpt>
      <trkpt lat="45.92131" lon="4.62669">
        <ele>337</ele>
        <time>2020-12-13T10:15:29Z</time>
      </trkpt>
      <trkpt lat="45.92129" lon="4.62671">
        <ele>337</ele>
        <time>2020-12-13T10:15:30Z</time>
      </trkpt>
      <trkpt lat="45.92128" lon="4.62672">
        <ele>336.9</ele>
        <time>2020-12-13T10:15:31Z</time>
      </trkpt>
      <trkpt lat="45.92128" lon="4.62673">
        <ele>336.9</ele>
        <time>2020-12-13T10:15:32Z</time>
      </trkpt>
      <trkpt lat="45.92126" lon="4.62674">
        <ele>336.9</ele>
        <time>2020-12-13T10:15:33Z</time>
      </trkpt>
      <trkpt lat="45.92124" lon="4.62675">
        <ele>336.8</ele>
        <time>2020-12-13T10:15:34Z</time>
      </trkpt>
      <trkpt lat="45.92123" lon="4.62676">
        <ele>336.8</ele>
        <time>2020-12-13T10:15:35Z</time>
      </trkpt>
      <trkpt lat="45.92122" lon="4.62677">
        <ele>336.7</ele>
        <time>2020-12-13T10:15:36Z</time>
      </trkpt>
      <trkpt lat="45.9212" lon="4.62678">
        <ele>336.7</ele>
        <time>2020-12-13T10:15:37Z</time>
      </trkpt>
      <trkpt lat="45.92119" lon="4.62678">
        <ele>336.7</ele>
        <time>2020-12-13T10:15:38Z</time>
      </trkpt>
      <trkpt lat="45.92117" lon="4.6268">
        <ele>336.6</ele>
        <time>2020-12-13T10:15:39Z</time>
      </trkpt>
      <trkpt lat="45.92115" lon="4.6268">
        <ele>336.6</ele>
        <time>2020-12-13T10:15:40Z</time>
      </trkpt>
      <trkpt lat="45.92114" lon="4.62681">
        <ele>336.5</ele>
        <time>2020-12-13T10:15:41Z</time>
      </trkpt>
      <trkpt lat="45.92113" lon="4.62682">
        <ele>336.5</ele>
        <time>2020-12-13T10:15:42Z</time>
      </trkpt>
      <trkpt lat="45.92111" lon="4.62682">
        <ele>336.5</ele>
        <time>2020-12-13T10:15:43Z</time>
      </trkpt>
      <trkpt lat="45.9211" lon="4.62683">
        <ele>336.4</ele>
        <time>2020-12-13T10:15:44Z</time>
      </trkpt>
      <trkpt lat="45.92108" lon="4.62684">
        <ele>336.4</ele>
        <time>2020-12-13T10:15:45Z</time>
      </trkpt>
      <trkpt lat="45.92106" lon="4.62686">
        <ele>336.4</ele>
        <time>2020-12-13T10:15:46Z</time>
      </trkpt>
      <trkpt lat="45.92106" lon="4.62686">
        <ele>336.3</ele>
        <time>2020-12-13T10:15:47Z</time>
      </trkpt>
      <trkpt lat="45.92106" lon="4.62687">
        <ele>336.3</ele>
        <time>2020-12-13T10:15:48Z</time>
      </trkpt>
      <trkpt lat="45.92105" lon="4.62687">
        <ele>336.3</ele>
        <time>2020-12-13T10:15:49Z</time>
      </trkpt>
      <trkpt lat="45.92103" lon="4.62689">
        <ele>336.3</ele>
        <time>2020-12-13T10:15:50Z</time>
      </trkpt>
      <trkpt lat="45.92103" lon="4.6269">
        <ele>336.3</ele>
        <time>2020-12-13T10:15:51Z</time>
      </trkpt>
      <trkpt lat="45.92102" lon="4.62692">
        <ele>336.2</ele>
        <time>2020-12-13T10:15:52Z</time>
      </trkpt>
      <trkpt lat="45.92101" lon="4.62692">
        <ele>336.2</ele>
        <time>2020-12-13T10:15:53Z</time>
      </trkpt>
      <trkpt lat="45.921" lon="4.62693">
        <ele>336.2</ele>
        <time>2020-12-13T10:15:54Z</time>
      </trkpt>
      <trkpt lat="45.921" lon="4.62694">
        <ele>336.2</ele>
        <time>2020-12-13T10:15:55Z</time>
      </trkpt>
      <trkpt lat="45.92098" lon="4.62695">
        <ele>336.1</ele>
        <time>2020-12-13T10:15:56Z</time>
      </trkpt>
      <trkpt lat="45.92096" lon="4.62695">
        <ele>336.1</ele>
        <time>2020-12-13T10:15:57Z</time>
      </trkpt>
      <trkpt lat="45.92094" lon="4.62697">
        <ele>336.1</ele>
        <time>2020-12-13T10:15:58Z</time>
      </trkpt>
      <trkpt lat="45.92094" lon="4.62698">
        <ele>336.1</ele>
        <time>2020-12-13T10:15:59Z</time>
      </trkpt>
      <trkpt lat="45.92092" lon="4.62699">
        <ele>336</ele>
        <time>2020-12-13T10:16:00Z</time>
      </trkpt>
      <trkpt lat="45.92091" lon="4.627">
        <ele>336</ele>
        <time>2020-12-13T10:16:01Z</time>
      </trkpt>
      <trkpt lat="45.9209" lon="4.627">
        <ele>336</ele>
        <time>2020-12-13T10:16:02Z</time>
      </trkpt>
      <trkpt lat="45.92088" lon="4.62702">
        <ele>335.9</ele>
        <time>2020-12-13T10:16:03Z</time>
      </trkpt>
      <trkpt lat="45.92087" lon="4.62703">
        <ele>335.9</ele>
        <time>2020-12-13T10:16:04Z</time>
      </trkpt>
      <trkpt lat="45.92087" lon="4.62704">
        <ele>335.9</ele>
        <time>2020-12-13T10:16:05Z</time>
      </trkpt>
      <trkpt lat="45.92086" lon="4.62705">
        <ele>335.9</ele>
        <time>2020-12-13T10:16:06Z</time>
      </trkpt>
      <trkpt lat="45.92084" lon="4.62705">
        <ele>335.8</ele>
        <time>2020-12-13T10:16:07Z</time>
      </trkpt>
      <trkpt lat="45.92083" lon="4.62706">
        <ele>335.8</ele>
        <time>2020-12-13T10:16:08Z</time>
      </trkpt>
      <trkpt lat="45.92082" lon="4.62706">
        <ele>335.8</ele>
        <time>2020-12-13T10:16:09Z</time>
      </trkpt>
      <trkpt lat="45.92082" lon="4.62708">
        <ele>335.7</ele>
        <time>2020-12-13T10:16:10Z</time>
      </trkpt>
      <trkpt lat="45.92081" lon="4.62709">
        <ele>335.7</ele>
        <time>2020-12-13T10:16:11Z</time>
      </trkpt>
      <trkpt lat="45.92079" lon="4.6271">
        <ele>335.7</ele>
        <time>2020-12-13T10:16:12Z</time>
      </trkpt>
      <trkpt lat="45.92079" lon="4.62711">
        <ele>335.7</ele>
        <time>2020-12-13T10:16:13Z</time>
      </trkpt>
      <trkpt lat="45.92078" lon="4.62711">
        <ele>335.6</ele>
        <time>2020-12-13T10:16:14Z</time>
      </trkpt>
      <trkpt lat="45.92075" lon="4.62713">
        <ele>335.6</ele>
        <time>2020-12-13T10:16:15Z</time>
      </trkpt>
      <trkpt lat="45.92074" lon="4.62714">
        <ele>335.6</ele>
        <time>2020-12-13T10:16:16Z</time>
      </trkpt>
      <trkpt lat="45.92072" lon="4.62716">
        <ele>335.5</ele>
        <time>2020-12-13T10:16:17Z</time>
      </trkpt>
      <trkpt lat="45.92071" lon="4.62717">
        <ele>335.5</ele>
        <time>2020-12-13T10:16:18Z</time>
      </trkpt>
      <trkpt lat="45.9207" lon="4.62719">
        <ele>335.4</ele>
        <time>2020-12-13T10:16:19Z</time>
      </trkpt>
      <trkpt lat="45.92069" lon="4.62721">
        <ele>335.4</ele>
        <time>2020-12-13T10:16:20Z</time>
      </trkpt>
      <trkpt lat="45.92068" lon="4.62722">
        <ele>335.4</ele>
        <time>2020-12-13T10:16:21Z</time>
      </trkpt>
      <trkpt lat="45.92067" lon="4.62723">
        <ele>335.4</ele>
        <time>2020-12-13T10:16:22Z</time>
      </trkpt>
      <trkpt lat="45.92066" lon="4.62726">
        <ele>335.3</ele>
        <time>2020-12-13T10:16:23Z</time>
      </trkpt>
      <trkpt lat="45.92065" lon="4.62726">
        <ele>335.3</ele>
        <time>2020-12-13T10:16:24Z</time>
      </trkpt>
      <trkpt lat="45.92064" lon="4.62727">
        <ele>335.3</ele>
        <time>2020-12-13T10:16:25Z</time>
      </trkpt>
      <trkpt lat="45.92063" lon="4.62728">
        <ele>335.3</ele>
        <time>2020-12-13T10:16:26Z</time>
      </trkpt>
      <trkpt lat="45.92062" lon="4.62729">
        <ele>335.3</ele>
        <time>2020-12-13T10:16:27Z</time>
      </trkpt>
      <trkpt lat="45.92061" lon="4.6273">
        <ele>335.3</ele>
        <time>2020-12-13T10:16:28Z</time>
      </trkpt>
      <trkpt lat="45.92059" lon="4.62732">
        <ele>335.2</ele>
        <time>2020-12-13T10:16:29Z</time>
      </trkpt>
      <trkpt lat="45.92059" lon="4.62732">
        <ele>335.2</ele>
        <time>2020-12-13T10:16:30Z</time>
      </trkpt>
      <trkpt lat="45.92057" lon="4.62734">
        <ele>335.2</ele>
        <time>2020-12-13T10:16:32Z</time>
      </trkpt>
      <trkpt lat="45.92056" lon="4.62735">
        <ele>335.2</ele>
        <time>2020-12-13T10:16:33Z</time>
      </trkpt>
      <trkpt lat="45.92055" lon="4.62736">
        <ele>335.1</ele>
        <time>2020-12-13T10:16:34Z</time>
      </trkpt>
      <trkpt lat="45.92053" lon="4.62739">
        <ele>335.1</ele>
        <time>2020-12-13T10:16:35Z</time>
      </trkpt>
      <trkpt lat="45.92052" lon="4.62739">
        <ele>335.1</ele>
        <time>2020-12-13T10:16:36Z</time>
      </trkpt>
      <trkpt lat="45.92051" lon="4.6274">
        <ele>335.1</ele>
        <time>2020-12-13T10:16:37Z</time>
      </trkpt>
      <trkpt lat="45.9205" lon="4.62741">
        <ele>335.1</ele>
        <time>2020-12-13T10:16:38Z</time>
      </trkpt>
      <trkpt lat="45.92049" lon="4.62742">
        <ele>335</ele>
        <time>2020-12-13T10:16:39Z</time>
      </trkpt>
      <trkpt lat="45.92047" lon="4.62743">
        <ele>335</ele>
        <time>2020-12-13T10:16:40Z</time>
      </trkpt>
      <trkpt lat="45.92047" lon="4.62744">
        <ele>335</ele>
        <time>2020-12-13T10:16:41Z</time>
      </trkpt>
      <trkpt lat="45.92046" lon="4.62745">
        <ele>335</ele>
        <time>2020-12-13T10:16:42Z</time>
      </trkpt>
      <trkpt lat="45.92045" lon="4.62746">
        <ele>335</ele>
        <time>2020-12-13T10:16:43Z</time>
      </trkpt>
      <trkpt lat="45.92044" lon="4.62747">
        <ele>334.9</ele>
        <time>2020-12-13T10:16:44Z</time>
      </trkpt>
      <trkpt lat="45.92043" lon="4.62749">
        <ele>334.9</ele>
        <time>2020-12-13T10:16:46Z</time>
      </trkpt>
      <trkpt lat="45.92041" lon="4.62751">
        <ele>334.9</ele>
        <time>2020-12-13T10:16:47Z</time>
      </trkpt>
      <trkpt lat="45.9204" lon="4.62752">
        <ele>334.9</ele>
        <time>2020-12-13T10:16:48Z</time>
      </trkpt>
      <trkpt lat="45.92039" lon="4.62753">
        <ele>334.8</ele>
        <time>2020-12-13T10:16:49Z</time>
      </trkpt>
      <trkpt lat="45.92038" lon="4.62754">
        <ele>334.8</ele>
        <time>2020-12-13T10:16:50Z</time>
      </trkpt>
      <trkpt lat="45.92037" lon="4.62756">
        <ele>334.8</ele>
        <time>2020-12-13T10:16:51Z</time>
      </trkpt>
      <trkpt lat="45.92036" lon="4.62757">
        <ele>334.8</ele>
        <time>2020-12-13T10:16:52Z</time>
      </trkpt>
      <trkpt lat="45.92036" lon="4.62759">
        <ele>334.8</ele>
        <time>2020-12-13T10:16:53Z</time>
      </trkpt>
      <trkpt lat="45.92036" lon="4.62759">
        <ele>334.8</ele>
        <time>2020-12-13T10:16:54Z</time>
      </trkpt>
      <trkpt lat="45.92035" lon="4.62759">
        <ele>334.7</ele>
        <time>2020-12-13T10:16:55Z</time>
      </trkpt>
      <trkpt lat="45.92035" lon="4.62761">
        <ele>334.7</ele>
        <time>2020-12-13T10:16:56Z</time>
      </trkpt>
      <trkpt lat="45.92032" lon="4.62763">
        <ele>334.7</ele>
        <time>2020-12-13T10:16:57Z</time>
      </trkpt>
      <trkpt lat="45.92032" lon="4.62764">
        <ele>334.7</ele>
        <time>2020-12-13T10:16:58Z</time>
      </trkpt>
      <trkpt lat="45.9203" lon="4.62765">
        <ele>334.7</ele>
        <time>2020-12-13T10:16:59Z</time>
      </trkpt>
      <trkpt lat="45.92029" lon="4.62766">
        <ele>334.7</ele>
        <time>2020-12-13T10:17:00Z</time>
      </trkpt>
      <trkpt lat="45.92029" lon="4.62767">
        <ele>334.7</ele>
        <time>2020-12-13T10:17:01Z</time>
      </trkpt>
      <trkpt lat="45.92028" lon="4.62768">
        <ele>334.7</ele>
        <time>2020-12-13T10:17:02Z</time>
      </trkpt>
      <trkpt lat="45.92027" lon="4.62769">
        <ele>334.7</ele>
        <time>2020-12-13T10:17:03Z</time>
      </trkpt>
      <trkpt lat="45.92026" lon="4.6277">
        <ele>334.7</ele>
        <time>2020-12-13T10:17:04Z</time>
      </trkpt>
      <trkpt lat="45.92024" lon="4.62772">
        <ele>334.7</ele>
        <time>2020-12-13T10:17:05Z</time>
      </trkpt>
      <trkpt lat="45.92024" lon="4.62773">
        <ele>334.7</ele>
        <time>2020-12-13T10:17:06Z</time>
      </trkpt>
      <trkpt lat="45.92023" lon="4.62774">
        <ele>334.7</ele>
        <time>2020-12-13T10:17:07Z</time>
      </trkpt>
      <trkpt lat="45.92021" lon="4.62776">
        <ele>334.7</ele>
        <time>2020-12-13T10:17:08Z</time>
      </trkpt>
      <trkpt lat="45.9202" lon="4.62777">
        <ele>334.7</ele>
        <time>2020-12-13T10:17:09Z</time>
      </trkpt>
      <trkpt lat="45.92019" lon="4.62779">
        <ele>334.7</ele>
        <time>2020-12-13T10:17:10Z</time>
      </trkpt>
      <trkpt lat="45.92018" lon="4.6278">
        <ele>334.7</ele>
        <time>2020-12-13T10:17:11Z</time>
      </trkpt>
      <trkpt lat="45.92016" lon="4.62782">
        <ele>334.7</ele>
        <time>2020-12-13T10:17:12Z</time>
      </trkpt>
      <trkpt lat="45.92015" lon="4.62783">
        <ele>334.7</ele>
        <time>2020-12-13T10:17:13Z</time>
      </trkpt>
      <trkpt lat="45.92013" lon="4.62785">
        <ele>334.7</ele>
        <time>2020-12-13T10:17:14Z</time>
      </trkpt>
      <trkpt lat="45.92012" lon="4.62786">
        <ele>334.7</ele>
        <time>2020-12-13T10:17:15Z</time>
      </trkpt>
      <trkpt lat="45.92012" lon="4.62787">
        <ele>334.7</ele>
        <time>2020-12-13T10:17:16Z</time>
      </trkpt>
      <trkpt lat="45.92011" lon="4.62788">
        <ele>334.7</ele>
        <time>2020-12-13T10:17:17Z</time>
      </trkpt>
      <trkpt lat="45.92009" lon="4.6279">
        <ele>334.7</ele>
        <time>2020-12-13T10:17:18Z</time>
      </trkpt>
      <trkpt lat="45.92009" lon="4.62791">
        <ele>334.7</ele>
        <time>2020-12-13T10:17:19Z</time>
      </trkpt>
      <trkpt lat="45.92007" lon="4.62792">
        <ele>334.7</ele>
        <time>2020-12-13T10:17:20Z</time>
      </trkpt>
      <trkpt lat="45.92006" lon="4.62793">
        <ele>334.7</ele>
        <time>2020-12-13T10:17:21Z</time>
      </trkpt>
      <trkpt lat="45.92005" lon="4.62795">
        <ele>334.7</ele>
        <time>2020-12-13T10:17:22Z</time>
      </trkpt>
      <trkpt lat="45.92004" lon="4.62796">
        <ele>334.7</ele>
        <time>2020-12-13T10:17:23Z</time>
      </trkpt>
      <trkpt lat="45.92003" lon="4.62798">
        <ele>334.7</ele>
        <time>2020-12-13T10:17:24Z</time>
      </trkpt>
      <trkpt lat="45.92002" lon="4.62799">
        <ele>334.7</ele>
        <time>2020-12-13T10:17:25Z</time>
      </trkpt>
      <trkpt lat="45.92001" lon="4.628">
        <ele>334.7</ele>
        <time>2020-12-13T10:17:26Z</time>
      </trkpt>
      <trkpt lat="45.92" lon="4.62801">
        <ele>334.7</ele>
        <time>2020-12-13T10:17:27Z</time>
      </trkpt>
      <trkpt lat="45.91999" lon="4.62803">
        <ele>334.7</ele>
        <time>2020-12-13T10:17:28Z</time>
      </trkpt>
      <trkpt lat="45.91998" lon="4.62804">
        <ele>334.6</ele>
        <time>2020-12-13T10:17:29Z</time>
      </trkpt>
      <trkpt lat="45.91997" lon="4.62806">
        <ele>334.6</ele>
        <time>2020-12-13T10:17:30Z</time>
      </trkpt>
      <trkpt lat="45.91996" lon="4.62807">
        <ele>334.6</ele>
        <time>2020-12-13T10:17:31Z</time>
      </trkpt>
      <trkpt lat="45.91995" lon="4.62809">
        <ele>334.6</ele>
        <time>2020-12-13T10:17:32Z</time>
      </trkpt>
      <trkpt lat="45.91994" lon="4.6281">
        <ele>334.6</ele>
        <time>2020-12-13T10:17:33Z</time>
      </trkpt>
      <trkpt lat="45.91995" lon="4.6281">
        <ele>334.6</ele>
        <time>2020-12-13T10:17:34Z</time>
      </trkpt>
      <trkpt lat="45.91993" lon="4.62812">
        <ele>334.6</ele>
        <time>2020-12-13T10:17:35Z</time>
      </trkpt>
      <trkpt lat="45.91993" lon="4.62814">
        <ele>334.6</ele>
        <time>2020-12-13T10:17:36Z</time>
      </trkpt>
      <trkpt lat="45.91991" lon="4.62816">
        <ele>334.6</ele>
        <time>2020-12-13T10:17:37Z</time>
      </trkpt>
      <trkpt lat="45.9199" lon="4.62819">
        <ele>334.6</ele>
        <time>2020-12-13T10:17:38Z</time>
      </trkpt>
      <trkpt lat="45.9199" lon="4.6282">
        <ele>334.6</ele>
        <time>2020-12-13T10:17:39Z</time>
      </trkpt>
      <trkpt lat="45.91989" lon="4.62821">
        <ele>334.6</ele>
        <time>2020-12-13T10:17:40Z</time>
      </trkpt>
      <trkpt lat="45.91989" lon="4.62821">
        <ele>334.6</ele>
        <time>2020-12-13T10:17:41Z</time>
      </trkpt>
      <trkpt lat="45.91987" lon="4.62824">
        <ele>334.6</ele>
        <time>2020-12-13T10:17:42Z</time>
      </trkpt>
      <trkpt lat="45.91986" lon="4.62825">
        <ele>334.6</ele>
        <time>2020-12-13T10:17:43Z</time>
      </trkpt>
      <trkpt lat="45.91986" lon="4.62826">
        <ele>334.6</ele>
        <time>2020-12-13T10:17:44Z</time>
      </trkpt>
      <trkpt lat="45.91985" lon="4.62827">
        <ele>334.6</ele>
        <time>2020-12-13T10:17:45Z</time>
      </trkpt>
      <trkpt lat="45.91984" lon="4.62829">
        <ele>334.6</ele>
        <time>2020-12-13T10:17:46Z</time>
      </trkpt>
      <trkpt lat="45.91982" lon="4.62832">
        <ele>334.6</ele>
        <time>2020-12-13T10:17:47Z</time>
      </trkpt>
      <trkpt lat="45.91981" lon="4.62833">
        <ele>334.6</ele>
        <time>2020-12-13T10:17:48Z</time>
      </trkpt>
      <trkpt lat="45.91981" lon="4.62834">
        <ele>334.6</ele>
        <time>2020-12-13T10:17:49Z</time>
      </trkpt>
      <trkpt lat="45.9198" lon="4.62835">
        <ele>334.6</ele>
        <time>2020-12-13T10:17:50Z</time>
      </trkpt>
      <trkpt lat="45.91979" lon="4.62837">
        <ele>334.6</ele>
        <time>2020-12-13T10:17:51Z</time>
      </trkpt>
      <trkpt lat="45.91978" lon="4.62839">
        <ele>334.6</ele>
        <time>2020-12-13T10:17:52Z</time>
      </trkpt>
      <trkpt lat="45.91978" lon="4.62841">
        <ele>334.7</ele>
        <time>2020-12-13T10:17:53Z</time>
      </trkpt>
      <trkpt lat="45.91977" lon="4.62842">
        <ele>334.7</ele>
        <time>2020-12-13T10:17:54Z</time>
      </trkpt>
      <trkpt lat="45.91976" lon="4.62844">
        <ele>334.7</ele>
        <time>2020-12-13T10:17:55Z</time>
      </trkpt>
      <trkpt lat="45.91975" lon="4.62845">
        <ele>334.7</ele>
        <time>2020-12-13T10:17:56Z</time>
      </trkpt>
      <trkpt lat="45.91974" lon="4.62848">
        <ele>334.7</ele>
        <time>2020-12-13T10:17:57Z</time>
      </trkpt>
      <trkpt lat="45.91973" lon="4.62849">
        <ele>334.7</ele>
        <time>2020-12-13T10:17:58Z</time>
      </trkpt>
      <trkpt lat="45.91972" lon="4.6285">
        <ele>334.7</ele>
        <time>2020-12-13T10:17:59Z</time>
      </trkpt>
      <trkpt lat="45.9197" lon="4.62852">
        <ele>334.8</ele>
        <time>2020-12-13T10:18:00Z</time>
      </trkpt>
      <trkpt lat="45.9197" lon="4.62853">
        <ele>334.8</ele>
        <time>2020-12-13T10:18:01Z</time>
      </trkpt>
      <trkpt lat="45.91969" lon="4.62854">
        <ele>334.8</ele>
        <time>2020-12-13T10:18:02Z</time>
      </trkpt>
      <trkpt lat="45.91968" lon="4.62856">
        <ele>334.8</ele>
        <time>2020-12-13T10:18:03Z</time>
      </trkpt>
      <trkpt lat="45.91967" lon="4.62857">
        <ele>334.8</ele>
        <time>2020-12-13T10:18:04Z</time>
      </trkpt>
      <trkpt lat="45.91966" lon="4.62858">
        <ele>334.8</ele>
        <time>2020-12-13T10:18:05Z</time>
      </trkpt>
      <trkpt lat="45.91965" lon="4.62859">
        <ele>334.8</ele>
        <time>2020-12-13T10:18:06Z</time>
      </trkpt>
      <trkpt lat="45.91964" lon="4.6286">
        <ele>334.8</ele>
        <time>2020-12-13T10:18:07Z</time>
      </trkpt>
      <trkpt lat="45.91962" lon="4.62862">
        <ele>334.9</ele>
        <time>2020-12-13T10:18:08Z</time>
      </trkpt>
      <trkpt lat="45.91961" lon="4.62863">
        <ele>334.9</ele>
        <time>2020-12-13T10:18:09Z</time>
      </trkpt>
      <trkpt lat="45.9196" lon="4.62863">
        <ele>334.9</ele>
        <time>2020-12-13T10:18:10Z</time>
      </trkpt>
      <trkpt lat="45.91958" lon="4.62865">
        <ele>334.9</ele>
        <time>2020-12-13T10:18:11Z</time>
      </trkpt>
      <trkpt lat="45.91957" lon="4.62866">
        <ele>334.9</ele>
        <time>2020-12-13T10:18:12Z</time>
      </trkpt>
      <trkpt lat="45.91955" lon="4.62867">
        <ele>334.9</ele>
        <time>2020-12-13T10:18:13Z</time>
      </trkpt>
      <trkpt lat="45.91954" lon="4.62867">
        <ele>334.9</ele>
        <time>2020-12-13T10:18:14Z</time>
      </trkpt>
      <trkpt lat="45.91953" lon="4.62868">
        <ele>334.9</ele>
        <time>2020-12-13T10:18:15Z</time>
      </trkpt>
      <trkpt lat="45.91952" lon="4.6287">
        <ele>334.9</ele>
        <time>2020-12-13T10:18:16Z</time>
      </trkpt>
      <trkpt lat="45.91952" lon="4.62872">
        <ele>334.9</ele>
        <time>2020-12-13T10:18:17Z</time>
      </trkpt>
      <trkpt lat="45.9195" lon="4.62873">
        <ele>334.9</ele>
        <time>2020-12-13T10:18:18Z</time>
      </trkpt>
      <trkpt lat="45.91949" lon="4.62874">
        <ele>334.8</ele>
        <time>2020-12-13T10:18:19Z</time>
      </trkpt>
      <trkpt lat="45.91948" lon="4.62875">
        <ele>334.8</ele>
        <time>2020-12-13T10:18:20Z</time>
      </trkpt>
      <trkpt lat="45.91947" lon="4.62876">
        <ele>334.8</ele>
        <time>2020-12-13T10:18:21Z</time>
      </trkpt>
      <trkpt lat="45.91946" lon="4.62877">
        <ele>334.8</ele>
        <time>2020-12-13T10:18:22Z</time>
      </trkpt>
      <trkpt lat="45.91944" lon="4.62878">
        <ele>334.8</ele>
        <time>2020-12-13T10:18:23Z</time>
      </trkpt>
      <trkpt lat="45.91943" lon="4.62879">
        <ele>334.8</ele>
        <time>2020-12-13T10:18:24Z</time>
      </trkpt>
      <trkpt lat="45.91942" lon="4.62879">
        <ele>334.8</ele>
        <time>2020-12-13T10:18:25Z</time>
      </trkpt>
      <trkpt lat="45.9194" lon="4.62881">
        <ele>334.8</ele>
        <time>2020-12-13T10:18:26Z</time>
      </trkpt>
      <trkpt lat="45.91939" lon="4.62881">
        <ele>334.8</ele>
        <time>2020-12-13T10:18:27Z</time>
      </trkpt>
      <trkpt lat="45.91938" lon="4.62883">
        <ele>334.7</ele>
        <time>2020-12-13T10:18:28Z</time>
      </trkpt>
      <trkpt lat="45.91937" lon="4.62883">
        <ele>334.7</ele>
        <time>2020-12-13T10:18:29Z</time>
      </trkpt>
      <trkpt lat="45.91935" lon="4.62885">
        <ele>334.7</ele>
        <time>2020-12-13T10:18:30Z</time>
      </trkpt>
      <trkpt lat="45.91934" lon="4.62885">
        <ele>334.7</ele>
        <time>2020-12-13T10:18:31Z</time>
      </trkpt>
      <trkpt lat="45.91933" lon="4.62886">
        <ele>334.7</ele>
        <time>2020-12-13T10:18:32Z</time>
      </trkpt>
      <trkpt lat="45.91931" lon="4.62887">
        <ele>334.6</ele>
        <time>2020-12-13T10:18:33Z</time>
      </trkpt>
      <trkpt lat="45.9193" lon="4.62888">
        <ele>334.6</ele>
        <time>2020-12-13T10:18:34Z</time>
      </trkpt>
      <trkpt lat="45.91929" lon="4.62889">
        <ele>334.6</ele>
        <time>2020-12-13T10:18:35Z</time>
      </trkpt>
      <trkpt lat="45.91927" lon="4.6289">
        <ele>334.5</ele>
        <time>2020-12-13T10:18:36Z</time>
      </trkpt>
      <trkpt lat="45.91926" lon="4.62892">
        <ele>334.5</ele>
        <time>2020-12-13T10:18:38Z</time>
      </trkpt>
      <trkpt lat="45.91925" lon="4.62892">
        <ele>334.5</ele>
        <time>2020-12-13T10:18:39Z</time>
      </trkpt>
      <trkpt lat="45.91925" lon="4.62893">
        <ele>334.5</ele>
        <time>2020-12-13T10:18:40Z</time>
      </trkpt>
      <trkpt lat="45.91924" lon="4.62894">
        <ele>334.5</ele>
        <time>2020-12-13T10:18:41Z</time>
      </trkpt>
      <trkpt lat="45.91922" lon="4.62894">
        <ele>334.4</ele>
        <time>2020-12-13T10:18:42Z</time>
      </trkpt>
      <trkpt lat="45.91921" lon="4.62895">
        <ele>334.4</ele>
        <time>2020-12-13T10:18:43Z</time>
      </trkpt>
      <trkpt lat="45.91919" lon="4.62895">
        <ele>334.3</ele>
        <time>2020-12-13T10:18:44Z</time>
      </trkpt>
      <trkpt lat="45.91917" lon="4.62897">
        <ele>334.3</ele>
        <time>2020-12-13T10:18:45Z</time>
      </trkpt>
      <trkpt lat="45.91916" lon="4.62897">
        <ele>334.3</ele>
        <time>2020-12-13T10:18:46Z</time>
      </trkpt>
      <trkpt lat="45.91916" lon="4.62898">
        <ele>334.2</ele>
        <time>2020-12-13T10:18:47Z</time>
      </trkpt>
      <trkpt lat="45.91916" lon="4.62899">
        <ele>334.2</ele>
        <time>2020-12-13T10:18:48Z</time>
      </trkpt>
      <trkpt lat="45.91915" lon="4.62899">
        <ele>334.2</ele>
        <time>2020-12-13T10:18:49Z</time>
      </trkpt>
      <trkpt lat="45.91913" lon="4.62901">
        <ele>334.2</ele>
        <time>2020-12-13T10:18:50Z</time>
      </trkpt>
      <trkpt lat="45.9191" lon="4.62902">
        <ele>334.1</ele>
        <time>2020-12-13T10:18:51Z</time>
      </trkpt>
      <trkpt lat="45.91909" lon="4.62902">
        <ele>334.1</ele>
        <time>2020-12-13T10:18:52Z</time>
      </trkpt>
      <trkpt lat="45.91908" lon="4.62903">
        <ele>334</ele>
        <time>2020-12-13T10:18:53Z</time>
      </trkpt>
      <trkpt lat="45.91907" lon="4.62904">
        <ele>334</ele>
        <time>2020-12-13T10:18:54Z</time>
      </trkpt>
      <trkpt lat="45.91905" lon="4.62905">
        <ele>334</ele>
        <time>2020-12-13T10:18:55Z</time>
      </trkpt>
      <trkpt lat="45.91904" lon="4.62906">
        <ele>333.9</ele>
        <time>2020-12-13T10:18:56Z</time>
      </trkpt>
      <trkpt lat="45.91903" lon="4.62907">
        <ele>333.9</ele>
        <time>2020-12-13T10:18:57Z</time>
      </trkpt>
      <trkpt lat="45.91901" lon="4.62908">
        <ele>333.9</ele>
        <time>2020-12-13T10:18:58Z</time>
      </trkpt>
      <trkpt lat="45.919" lon="4.62909">
        <ele>333.8</ele>
        <time>2020-12-13T10:18:59Z</time>
      </trkpt>
      <trkpt lat="45.91898" lon="4.62911">
        <ele>333.8</ele>
        <time>2020-12-13T10:19:00Z</time>
      </trkpt>
      <trkpt lat="45.91897" lon="4.62911">
        <ele>333.8</ele>
        <time>2020-12-13T10:19:01Z</time>
      </trkpt>
      <trkpt lat="45.91895" lon="4.62913">
        <ele>333.7</ele>
        <time>2020-12-13T10:19:02Z</time>
      </trkpt>
      <trkpt lat="45.91894" lon="4.62913">
        <ele>333.7</ele>
        <time>2020-12-13T10:19:03Z</time>
      </trkpt>
      <trkpt lat="45.91894" lon="4.62914">
        <ele>333.7</ele>
        <time>2020-12-13T10:19:04Z</time>
      </trkpt>
      <trkpt lat="45.91893" lon="4.62915">
        <ele>333.7</ele>
        <time>2020-12-13T10:19:05Z</time>
      </trkpt>
      <trkpt lat="45.91891" lon="4.62916">
        <ele>333.7</ele>
        <time>2020-12-13T10:19:06Z</time>
      </trkpt>
      <trkpt lat="45.91891" lon="4.62916">
        <ele>333.6</ele>
        <time>2020-12-13T10:19:07Z</time>
      </trkpt>
      <trkpt lat="45.91889" lon="4.62918">
        <ele>333.6</ele>
        <time>2020-12-13T10:19:08Z</time>
      </trkpt>
      <trkpt lat="45.91889" lon="4.6292">
        <ele>333.6</ele>
        <time>2020-12-13T10:19:09Z</time>
      </trkpt>
      <trkpt lat="45.91887" lon="4.62921">
        <ele>333.5</ele>
        <time>2020-12-13T10:19:10Z</time>
      </trkpt>
      <trkpt lat="45.91886" lon="4.62922">
        <ele>333.5</ele>
        <time>2020-12-13T10:19:11Z</time>
      </trkpt>
      <trkpt lat="45.91884" lon="4.62923">
        <ele>333.5</ele>
        <time>2020-12-13T10:19:12Z</time>
      </trkpt>
      <trkpt lat="45.91883" lon="4.62923">
        <ele>333.5</ele>
        <time>2020-12-13T10:19:13Z</time>
      </trkpt>
      <trkpt lat="45.91883" lon="4.62924">
        <ele>333.4</ele>
        <time>2020-12-13T10:19:14Z</time>
      </trkpt>
      <trkpt lat="45.91882" lon="4.62925">
        <ele>333.4</ele>
        <time>2020-12-13T10:19:15Z</time>
      </trkpt>
      <trkpt lat="45.91881" lon="4.62926">
        <ele>333.4</ele>
        <time>2020-12-13T10:19:16Z</time>
      </trkpt>
      <trkpt lat="45.91879" lon="4.62929">
        <ele>333.3</ele>
        <time>2020-12-13T10:19:17Z</time>
      </trkpt>
      <trkpt lat="45.91878" lon="4.6293">
        <ele>333.3</ele>
        <time>2020-12-13T10:19:18Z</time>
      </trkpt>
      <trkpt lat="45.91877" lon="4.62931">
        <ele>333.3</ele>
        <time>2020-12-13T10:19:19Z</time>
      </trkpt>
      <trkpt lat="45.91876" lon="4.62932">
        <ele>333.2</ele>
        <time>2020-12-13T10:19:20Z</time>
      </trkpt>
      <trkpt lat="45.91875" lon="4.62934">
        <ele>333.2</ele>
        <time>2020-12-13T10:19:21Z</time>
      </trkpt>
      <trkpt lat="45.91874" lon="4.62935">
        <ele>333.2</ele>
        <time>2020-12-13T10:19:22Z</time>
      </trkpt>
      <trkpt lat="45.91874" lon="4.62936">
        <ele>333.2</ele>
        <time>2020-12-13T10:19:23Z</time>
      </trkpt>
      <trkpt lat="45.91872" lon="4.6294">
        <ele>333.1</ele>
        <time>2020-12-13T10:19:24Z</time>
      </trkpt>
      <trkpt lat="45.91871" lon="4.62942">
        <ele>333</ele>
        <time>2020-12-13T10:19:25Z</time>
      </trkpt>
      <trkpt lat="45.91871" lon="4.62942">
        <ele>333</ele>
        <time>2020-12-13T10:19:26Z</time>
      </trkpt>
      <trkpt lat="45.91871" lon="4.62943">
        <ele>333</ele>
        <time>2020-12-13T10:19:27Z</time>
      </trkpt>
      <trkpt lat="45.9187" lon="4.62944">
        <ele>333</ele>
        <time>2020-12-13T10:19:28Z</time>
      </trkpt>
      <trkpt lat="45.9187" lon="4.62946">
        <ele>333</ele>
        <time>2020-12-13T10:19:29Z</time>
      </trkpt>
      <trkpt lat="45.9187" lon="4.62947">
        <ele>333</ele>
        <time>2020-12-13T10:19:30Z</time>
      </trkpt>
      <trkpt lat="45.9187" lon="4.62948">
        <ele>332.9</ele>
        <time>2020-12-13T10:19:31Z</time>
      </trkpt>
      <trkpt lat="45.91868" lon="4.62951">
        <ele>332.9</ele>
        <time>2020-12-13T10:19:32Z</time>
      </trkpt>
      <trkpt lat="45.91867" lon="4.62953">
        <ele>332.8</ele>
        <time>2020-12-13T10:19:33Z</time>
      </trkpt>
      <trkpt lat="45.91866" lon="4.62955">
        <ele>332.8</ele>
        <time>2020-12-13T10:19:34Z</time>
      </trkpt>
      <trkpt lat="45.91865" lon="4.62958">
        <ele>332.7</ele>
        <time>2020-12-13T10:19:35Z</time>
      </trkpt>
      <trkpt lat="45.91865" lon="4.62959">
        <ele>332.7</ele>
        <time>2020-12-13T10:19:36Z</time>
      </trkpt>
      <trkpt lat="45.91864" lon="4.62961">
        <ele>332.7</ele>
        <time>2020-12-13T10:19:37Z</time>
      </trkpt>
      <trkpt lat="45.91863" lon="4.62962">
        <ele>332.6</ele>
        <time>2020-12-13T10:19:38Z</time>
      </trkpt>
      <trkpt lat="45.91863" lon="4.62964">
        <ele>332.6</ele>
        <time>2020-12-13T10:19:39Z</time>
      </trkpt>
      <trkpt lat="45.91862" lon="4.62966">
        <ele>332.6</ele>
        <time>2020-12-13T10:19:40Z</time>
      </trkpt>
      <trkpt lat="45.91861" lon="4.62969">
        <ele>332.5</ele>
        <time>2020-12-13T10:19:41Z</time>
      </trkpt>
      <trkpt lat="45.91861" lon="4.6297">
        <ele>332.5</ele>
        <time>2020-12-13T10:19:42Z</time>
      </trkpt>
      <trkpt lat="45.9186" lon="4.62971">
        <ele>332.5</ele>
        <time>2020-12-13T10:19:43Z</time>
      </trkpt>
      <trkpt lat="45.9186" lon="4.62972">
        <ele>332.4</ele>
        <time>2020-12-13T10:19:44Z</time>
      </trkpt>
      <trkpt lat="45.91859" lon="4.62973">
        <ele>332.4</ele>
        <time>2020-12-13T10:19:45Z</time>
      </trkpt>
      <trkpt lat="45.91859" lon="4.62974">
        <ele>332.4</ele>
        <time>2020-12-13T10:19:46Z</time>
      </trkpt>
      <trkpt lat="45.91858" lon="4.62976">
        <ele>332.4</ele>
        <time>2020-12-13T10:19:47Z</time>
      </trkpt>
      <trkpt lat="45.91857" lon="4.62977">
        <ele>332.3</ele>
        <time>2020-12-13T10:19:48Z</time>
      </trkpt>
      <trkpt lat="45.91857" lon="4.62978">
        <ele>332.3</ele>
        <time>2020-12-13T10:19:49Z</time>
      </trkpt>
      <trkpt lat="45.91854" lon="4.62981">
        <ele>332.2</ele>
        <time>2020-12-13T10:19:50Z</time>
      </trkpt>
      <trkpt lat="45.91854" lon="4.62982">
        <ele>332.2</ele>
        <time>2020-12-13T10:19:51Z</time>
      </trkpt>
      <trkpt lat="45.91851" lon="4.62984">
        <ele>332.1</ele>
        <time>2020-12-13T10:19:52Z</time>
      </trkpt>
      <trkpt lat="45.91852" lon="4.62985">
        <ele>332.1</ele>
        <time>2020-12-13T10:19:53Z</time>
      </trkpt>
      <trkpt lat="45.91851" lon="4.62987">
        <ele>332</ele>
        <time>2020-12-13T10:19:54Z</time>
      </trkpt>
      <trkpt lat="45.91851" lon="4.62987">
        <ele>332</ele>
        <time>2020-12-13T10:19:55Z</time>
      </trkpt>
      <trkpt lat="45.91851" lon="4.62989">
        <ele>332</ele>
        <time>2020-12-13T10:19:56Z</time>
      </trkpt>
      <trkpt lat="45.91851" lon="4.62989">
        <ele>332</ele>
        <time>2020-12-13T10:19:57Z</time>
      </trkpt>
      <trkpt lat="45.9185" lon="4.62991">
        <ele>331.9</ele>
        <time>2020-12-13T10:19:58Z</time>
      </trkpt>
      <trkpt lat="45.91849" lon="4.62993">
        <ele>331.9</ele>
        <time>2020-12-13T10:19:59Z</time>
      </trkpt>
      <trkpt lat="45.91848" lon="4.62994">
        <ele>331.8</ele>
        <time>2020-12-13T10:20:00Z</time>
      </trkpt>
      <trkpt lat="45.91847" lon="4.62996">
        <ele>331.8</ele>
        <time>2020-12-13T10:20:01Z</time>
      </trkpt>
      <trkpt lat="45.91846" lon="4.62997">
        <ele>331.8</ele>
        <time>2020-12-13T10:20:02Z</time>
      </trkpt>
      <trkpt lat="45.91845" lon="4.62999">
        <ele>331.7</ele>
        <time>2020-12-13T10:20:03Z</time>
      </trkpt>
      <trkpt lat="45.91844" lon="4.63">
        <ele>331.7</ele>
        <time>2020-12-13T10:20:04Z</time>
      </trkpt>
      <trkpt lat="45.91843" lon="4.63002">
        <ele>331.6</ele>
        <time>2020-12-13T10:20:05Z</time>
      </trkpt>
      <trkpt lat="45.91843" lon="4.63003">
        <ele>331.6</ele>
        <time>2020-12-13T10:20:06Z</time>
      </trkpt>
      <trkpt lat="45.91841" lon="4.63005">
        <ele>331.5</ele>
        <time>2020-12-13T10:20:07Z</time>
      </trkpt>
      <trkpt lat="45.91841" lon="4.63006">
        <ele>331.5</ele>
        <time>2020-12-13T10:20:08Z</time>
      </trkpt>
      <trkpt lat="45.9184" lon="4.63008">
        <ele>331.5</ele>
        <time>2020-12-13T10:20:09Z</time>
      </trkpt>
      <trkpt lat="45.9184" lon="4.6301">
        <ele>331.4</ele>
        <time>2020-12-13T10:20:10Z</time>
      </trkpt>
      <trkpt lat="45.9184" lon="4.63011">
        <ele>331.4</ele>
        <time>2020-12-13T10:20:11Z</time>
      </trkpt>
      <trkpt lat="45.91839" lon="4.63013">
        <ele>331.3</ele>
        <time>2020-12-13T10:20:12Z</time>
      </trkpt>
      <trkpt lat="45.91838" lon="4.63013">
        <ele>331.3</ele>
        <time>2020-12-13T10:20:13Z</time>
      </trkpt>
      <trkpt lat="45.91837" lon="4.63014">
        <ele>331.3</ele>
        <time>2020-12-13T10:20:14Z</time>
      </trkpt>
      <trkpt lat="45.91836" lon="4.63015">
        <ele>331.3</ele>
        <time>2020-12-13T10:20:15Z</time>
      </trkpt>
      <trkpt lat="45.91835" lon="4.63017">
        <ele>331.2</ele>
        <time>2020-12-13T10:20:16Z</time>
      </trkpt>
      <trkpt lat="45.91834" lon="4.63017">
        <ele>331.2</ele>
        <time>2020-12-13T10:20:17Z</time>
      </trkpt>
      <trkpt lat="45.91832" lon="4.63021">
        <ele>331.1</ele>
        <time>2020-12-13T10:20:18Z</time>
      </trkpt>
      <trkpt lat="45.91832" lon="4.63022">
        <ele>331</ele>
        <time>2020-12-13T10:20:19Z</time>
      </trkpt>
      <trkpt lat="45.9183" lon="4.63023">
        <ele>331</ele>
        <time>2020-12-13T10:20:20Z</time>
      </trkpt>
      <trkpt lat="45.91829" lon="4.63025">
        <ele>330.9</ele>
        <time>2020-12-13T10:20:21Z</time>
      </trkpt>
      <trkpt lat="45.91828" lon="4.63027">
        <ele>330.9</ele>
        <time>2020-12-13T10:20:22Z</time>
      </trkpt>
      <trkpt lat="45.91827" lon="4.63028">
        <ele>330.8</ele>
        <time>2020-12-13T10:20:23Z</time>
      </trkpt>
      <trkpt lat="45.91826" lon="4.63029">
        <ele>330.8</ele>
        <time>2020-12-13T10:20:24Z</time>
      </trkpt>
      <trkpt lat="45.91826" lon="4.63029">
        <ele>330.8</ele>
        <time>2020-12-13T10:20:25Z</time>
      </trkpt>
      <trkpt lat="45.91825" lon="4.63031">
        <ele>330.8</ele>
        <time>2020-12-13T10:20:26Z</time>
      </trkpt>
      <trkpt lat="45.91824" lon="4.63033">
        <ele>330.7</ele>
        <time>2020-12-13T10:20:27Z</time>
      </trkpt>
      <trkpt lat="45.91823" lon="4.63035">
        <ele>330.7</ele>
        <time>2020-12-13T10:20:28Z</time>
      </trkpt>
      <trkpt lat="45.91823" lon="4.63037">
        <ele>330.6</ele>
        <time>2020-12-13T10:20:29Z</time>
      </trkpt>
      <trkpt lat="45.91822" lon="4.63039">
        <ele>330.6</ele>
        <time>2020-12-13T10:20:30Z</time>
      </trkpt>
      <trkpt lat="45.91822" lon="4.6304">
        <ele>330.5</ele>
        <time>2020-12-13T10:20:31Z</time>
      </trkpt>
      <trkpt lat="45.91821" lon="4.63041">
        <ele>330.5</ele>
        <time>2020-12-13T10:20:32Z</time>
      </trkpt>
      <trkpt lat="45.9182" lon="4.63043">
        <ele>330.4</ele>
        <time>2020-12-13T10:20:33Z</time>
      </trkpt>
      <trkpt lat="45.91819" lon="4.63044">
        <ele>330.4</ele>
        <time>2020-12-13T10:20:34Z</time>
      </trkpt>
      <trkpt lat="45.91818" lon="4.63046">
        <ele>330.3</ele>
        <time>2020-12-13T10:20:35Z</time>
      </trkpt>
      <trkpt lat="45.91817" lon="4.63047">
        <ele>330.3</ele>
        <time>2020-12-13T10:20:36Z</time>
      </trkpt>
      <trkpt lat="45.91816" lon="4.63048">
        <ele>330.3</ele>
        <time>2020-12-13T10:20:37Z</time>
      </trkpt>
      <trkpt lat="45.91814" lon="4.63051">
        <ele>330.2</ele>
        <time>2020-12-13T10:20:38Z</time>
      </trkpt>
      <trkpt lat="45.91813" lon="4.63052">
        <ele>330.2</ele>
        <time>2020-12-13T10:20:39Z</time>
      </trkpt>
      <trkpt lat="45.91813" lon="4.63052">
        <ele>330.1</ele>
        <time>2020-12-13T10:20:40Z</time>
      </trkpt>
      <trkpt lat="45.91812" lon="4.63054">
        <ele>330.1</ele>
        <time>2020-12-13T10:20:41Z</time>
      </trkpt>
      <trkpt lat="45.91811" lon="4.63056">
        <ele>330.1</ele>
        <time>2020-12-13T10:20:42Z</time>
      </trkpt>
      <trkpt lat="45.91811" lon="4.63056">
        <ele>330</ele>
        <time>2020-12-13T10:20:44Z</time>
      </trkpt>
      <trkpt lat="45.91809" lon="4.63058">
        <ele>329.9</ele>
        <time>2020-12-13T10:20:45Z</time>
      </trkpt>
      <trkpt lat="45.91808" lon="4.6306">
        <ele>329.9</ele>
        <time>2020-12-13T10:20:46Z</time>
      </trkpt>
      <trkpt lat="45.91807" lon="4.63061">
        <ele>329.8</ele>
        <time>2020-12-13T10:20:47Z</time>
      </trkpt>
      <trkpt lat="45.91805" lon="4.63063">
        <ele>329.8</ele>
        <time>2020-12-13T10:20:48Z</time>
      </trkpt>
      <trkpt lat="45.91805" lon="4.63063">
        <ele>329.7</ele>
        <time>2020-12-13T10:20:49Z</time>
      </trkpt>
      <trkpt lat="45.91804" lon="4.63064">
        <ele>329.7</ele>
        <time>2020-12-13T10:20:50Z</time>
      </trkpt>
      <trkpt lat="45.91802" lon="4.63065">
        <ele>329.4</ele>
        <time>2020-12-13T10:20:51Z</time>
      </trkpt>
      <trkpt lat="45.91801" lon="4.63065">
        <ele>329.3</ele>
        <time>2020-12-13T10:20:52Z</time>
      </trkpt>
      <trkpt lat="45.918" lon="4.63064">
        <ele>329.3</ele>
        <time>2020-12-13T10:20:53Z</time>
      </trkpt>
      <trkpt lat="45.91799" lon="4.63064">
        <ele>329.3</ele>
        <time>2020-12-13T10:20:54Z</time>
      </trkpt>
      <trkpt lat="45.91798" lon="4.63063">
        <ele>329.3</ele>
        <time>2020-12-13T10:20:55Z</time>
      </trkpt>
      <trkpt lat="45.91797" lon="4.63061">
        <ele>329.3</ele>
        <time>2020-12-13T10:20:56Z</time>
      </trkpt>
      <trkpt lat="45.91796" lon="4.63059">
        <ele>329.3</ele>
        <time>2020-12-13T10:20:57Z</time>
      </trkpt>
      <trkpt lat="45.91795" lon="4.63058">
        <ele>329.2</ele>
        <time>2020-12-13T10:20:58Z</time>
      </trkpt>
      <trkpt lat="45.91794" lon="4.63057">
        <ele>329.2</ele>
        <time>2020-12-13T10:20:59Z</time>
      </trkpt>
      <trkpt lat="45.91793" lon="4.63056">
        <ele>329.2</ele>
        <time>2020-12-13T10:21:00Z</time>
      </trkpt>
      <trkpt lat="45.91793" lon="4.63054">
        <ele>329.2</ele>
        <time>2020-12-13T10:21:01Z</time>
      </trkpt>
      <trkpt lat="45.91792" lon="4.63054">
        <ele>329.1</ele>
        <time>2020-12-13T10:21:02Z</time>
      </trkpt>
      <trkpt lat="45.91791" lon="4.63052">
        <ele>329.1</ele>
        <time>2020-12-13T10:21:03Z</time>
      </trkpt>
      <trkpt lat="45.91791" lon="4.6305">
        <ele>329.1</ele>
        <time>2020-12-13T10:21:04Z</time>
      </trkpt>
      <trkpt lat="45.91791" lon="4.6305">
        <ele>329.1</ele>
        <time>2020-12-13T10:21:05Z</time>
      </trkpt>
      <trkpt lat="45.9179" lon="4.63048">
        <ele>329</ele>
        <time>2020-12-13T10:21:06Z</time>
      </trkpt>
      <trkpt lat="45.9179" lon="4.63046">
        <ele>329</ele>
        <time>2020-12-13T10:21:07Z</time>
      </trkpt>
      <trkpt lat="45.91788" lon="4.63045">
        <ele>329</ele>
        <time>2020-12-13T10:21:08Z</time>
      </trkpt>
      <trkpt lat="45.91787" lon="4.63043">
        <ele>329</ele>
        <time>2020-12-13T10:21:09Z</time>
      </trkpt>
      <trkpt lat="45.91787" lon="4.63041">
        <ele>328.9</ele>
        <time>2020-12-13T10:21:10Z</time>
      </trkpt>
      <trkpt lat="45.91787" lon="4.63039">
        <ele>328.9</ele>
        <time>2020-12-13T10:21:11Z</time>
      </trkpt>
      <trkpt lat="45.91786" lon="4.63036">
        <ele>328.8</ele>
        <time>2020-12-13T10:21:12Z</time>
      </trkpt>
      <trkpt lat="45.91785" lon="4.63036">
        <ele>328.8</ele>
        <time>2020-12-13T10:21:13Z</time>
      </trkpt>
      <trkpt lat="45.91784" lon="4.63035">
        <ele>328.8</ele>
        <time>2020-12-13T10:21:14Z</time>
      </trkpt>
      <trkpt lat="45.91783" lon="4.63032">
        <ele>328.7</ele>
        <time>2020-12-13T10:21:15Z</time>
      </trkpt>
      <trkpt lat="45.91782" lon="4.63031">
        <ele>328.7</ele>
        <time>2020-12-13T10:21:16Z</time>
      </trkpt>
      <trkpt lat="45.91782" lon="4.6303">
        <ele>328.7</ele>
        <time>2020-12-13T10:21:17Z</time>
      </trkpt>
      <trkpt lat="45.91781" lon="4.63028">
        <ele>328.6</ele>
        <time>2020-12-13T10:21:18Z</time>
      </trkpt>
      <trkpt lat="45.91781" lon="4.63026">
        <ele>328.6</ele>
        <time>2020-12-13T10:21:19Z</time>
      </trkpt>
      <trkpt lat="45.9178" lon="4.63025">
        <ele>328.6</ele>
        <time>2020-12-13T10:21:20Z</time>
      </trkpt>
      <trkpt lat="45.9178" lon="4.63022">
        <ele>328.5</ele>
        <time>2020-12-13T10:21:21Z</time>
      </trkpt>
      <trkpt lat="45.91779" lon="4.63021">
        <ele>328.5</ele>
        <time>2020-12-13T10:21:22Z</time>
      </trkpt>
      <trkpt lat="45.91779" lon="4.63018">
        <ele>328.5</ele>
        <time>2020-12-13T10:21:23Z</time>
      </trkpt>
      <trkpt lat="45.91778" lon="4.63017">
        <ele>328.4</ele>
        <time>2020-12-13T10:21:24Z</time>
      </trkpt>
      <trkpt lat="45.91777" lon="4.63015">
        <ele>328.4</ele>
        <time>2020-12-13T10:21:25Z</time>
      </trkpt>
      <trkpt lat="45.91777" lon="4.63013">
        <ele>328.4</ele>
        <time>2020-12-13T10:21:26Z</time>
      </trkpt>
      <trkpt lat="45.91776" lon="4.63013">
        <ele>328.3</ele>
        <time>2020-12-13T10:21:27Z</time>
      </trkpt>
      <trkpt lat="45.91775" lon="4.63012">
        <ele>328.3</ele>
        <time>2020-12-13T10:21:28Z</time>
      </trkpt>
      <trkpt lat="45.91774" lon="4.6301">
        <ele>328.3</ele>
        <time>2020-12-13T10:21:29Z</time>
      </trkpt>
      <trkpt lat="45.91773" lon="4.63009">
        <ele>328.2</ele>
        <time>2020-12-13T10:21:30Z</time>
      </trkpt>
      <trkpt lat="45.91773" lon="4.63007">
        <ele>328.2</ele>
        <time>2020-12-13T10:21:31Z</time>
      </trkpt>
      <trkpt lat="45.91772" lon="4.63005">
        <ele>328.1</ele>
        <time>2020-12-13T10:21:32Z</time>
      </trkpt>
      <trkpt lat="45.91771" lon="4.63003">
        <ele>328.1</ele>
        <time>2020-12-13T10:21:33Z</time>
      </trkpt>
      <trkpt lat="45.9177" lon="4.63002">
        <ele>328.1</ele>
        <time>2020-12-13T10:21:34Z</time>
      </trkpt>
      <trkpt lat="45.91769" lon="4.63001">
        <ele>328</ele>
        <time>2020-12-13T10:21:35Z</time>
      </trkpt>
      <trkpt lat="45.91768" lon="4.62998">
        <ele>328</ele>
        <time>2020-12-13T10:21:36Z</time>
      </trkpt>
      <trkpt lat="45.91767" lon="4.62997">
        <ele>327.9</ele>
        <time>2020-12-13T10:21:37Z</time>
      </trkpt>
      <trkpt lat="45.91766" lon="4.62994">
        <ele>327.9</ele>
        <time>2020-12-13T10:21:38Z</time>
      </trkpt>
      <trkpt lat="45.91765" lon="4.62993">
        <ele>327.9</ele>
        <time>2020-12-13T10:21:39Z</time>
      </trkpt>
      <trkpt lat="45.91764" lon="4.62992">
        <ele>327.8</ele>
        <time>2020-12-13T10:21:40Z</time>
      </trkpt>
      <trkpt lat="45.91764" lon="4.6299">
        <ele>327.8</ele>
        <time>2020-12-13T10:21:41Z</time>
      </trkpt>
      <trkpt lat="45.91763" lon="4.62988">
        <ele>327.7</ele>
        <time>2020-12-13T10:21:42Z</time>
      </trkpt>
      <trkpt lat="45.91762" lon="4.62985">
        <ele>327.7</ele>
        <time>2020-12-13T10:21:43Z</time>
      </trkpt>
      <trkpt lat="45.91761" lon="4.62985">
        <ele>327.6</ele>
        <time>2020-12-13T10:21:44Z</time>
      </trkpt>
      <trkpt lat="45.9176" lon="4.62983">
        <ele>327.6</ele>
        <time>2020-12-13T10:21:45Z</time>
      </trkpt>
      <trkpt lat="45.91759" lon="4.62982">
        <ele>327.5</ele>
        <time>2020-12-13T10:21:46Z</time>
      </trkpt>
      <trkpt lat="45.91758" lon="4.62981">
        <ele>327.5</ele>
        <time>2020-12-13T10:21:47Z</time>
      </trkpt>
      <trkpt lat="45.91758" lon="4.62981">
        <ele>327.5</ele>
        <time>2020-12-13T10:21:48Z</time>
      </trkpt>
      <trkpt lat="45.91757" lon="4.62979">
        <ele>327.4</ele>
        <time>2020-12-13T10:21:49Z</time>
      </trkpt>
      <trkpt lat="45.91756" lon="4.62979">
        <ele>327.4</ele>
        <time>2020-12-13T10:21:50Z</time>
      </trkpt>
      <trkpt lat="45.91754" lon="4.62977">
        <ele>327.3</ele>
        <time>2020-12-13T10:21:51Z</time>
      </trkpt>
      <trkpt lat="45.91753" lon="4.62974">
        <ele>327.2</ele>
        <time>2020-12-13T10:21:52Z</time>
      </trkpt>
      <trkpt lat="45.91752" lon="4.62974">
        <ele>327.2</ele>
        <time>2020-12-13T10:21:53Z</time>
      </trkpt>
      <trkpt lat="45.91751" lon="4.62972">
        <ele>327.1</ele>
        <time>2020-12-13T10:21:54Z</time>
      </trkpt>
      <trkpt lat="45.9175" lon="4.62972">
        <ele>327.1</ele>
        <time>2020-12-13T10:21:55Z</time>
      </trkpt>
      <trkpt lat="45.91749" lon="4.62971">
        <ele>327.1</ele>
        <time>2020-12-13T10:21:56Z</time>
      </trkpt>
      <trkpt lat="45.91748" lon="4.6297">
        <ele>327</ele>
        <time>2020-12-13T10:21:57Z</time>
      </trkpt>
      <trkpt lat="45.91747" lon="4.62969">
        <ele>327</ele>
        <time>2020-12-13T10:21:58Z</time>
      </trkpt>
      <trkpt lat="45.91746" lon="4.62967">
        <ele>326.9</ele>
        <time>2020-12-13T10:21:59Z</time>
      </trkpt>
      <trkpt lat="45.91744" lon="4.62966">
        <ele>326.8</ele>
        <time>2020-12-13T10:22:00Z</time>
      </trkpt>
      <trkpt lat="45.91742" lon="4.62965">
        <ele>326.7</ele>
        <time>2020-12-13T10:22:01Z</time>
      </trkpt>
      <trkpt lat="45.91742" lon="4.62964">
        <ele>326.7</ele>
        <time>2020-12-13T10:22:02Z</time>
      </trkpt>
      <trkpt lat="45.91741" lon="4.62963">
        <ele>326.6</ele>
        <time>2020-12-13T10:22:03Z</time>
      </trkpt>
      <trkpt lat="45.91739" lon="4.62961">
        <ele>326.5</ele>
        <time>2020-12-13T10:22:04Z</time>
      </trkpt>
      <trkpt lat="45.91738" lon="4.6296">
        <ele>326.5</ele>
        <time>2020-12-13T10:22:05Z</time>
      </trkpt>
      <trkpt lat="45.91738" lon="4.62959">
        <ele>326.5</ele>
        <time>2020-12-13T10:22:06Z</time>
      </trkpt>
      <trkpt lat="45.91737" lon="4.62957">
        <ele>326.4</ele>
        <time>2020-12-13T10:22:07Z</time>
      </trkpt>
      <trkpt lat="45.91736" lon="4.62956">
        <ele>326.3</ele>
        <time>2020-12-13T10:22:08Z</time>
      </trkpt>
      <trkpt lat="45.91735" lon="4.62955">
        <ele>326.3</ele>
        <time>2020-12-13T10:22:09Z</time>
      </trkpt>
      <trkpt lat="45.91735" lon="4.62954">
        <ele>326.2</ele>
        <time>2020-12-13T10:22:10Z</time>
      </trkpt>
      <trkpt lat="45.91734" lon="4.62953">
        <ele>326.2</ele>
        <time>2020-12-13T10:22:11Z</time>
      </trkpt>
      <trkpt lat="45.91733" lon="4.62952">
        <ele>326.1</ele>
        <time>2020-12-13T10:22:12Z</time>
      </trkpt>
      <trkpt lat="45.91732" lon="4.62951">
        <ele>326</ele>
        <time>2020-12-13T10:22:13Z</time>
      </trkpt>
      <trkpt lat="45.91731" lon="4.62948">
        <ele>325.9</ele>
        <time>2020-12-13T10:22:14Z</time>
      </trkpt>
      <trkpt lat="45.9173" lon="4.62947">
        <ele>325.9</ele>
        <time>2020-12-13T10:22:15Z</time>
      </trkpt>
      <trkpt lat="45.9173" lon="4.62947">
        <ele>325.9</ele>
        <time>2020-12-13T10:22:16Z</time>
      </trkpt>
      <trkpt lat="45.91728" lon="4.62945">
        <ele>325.7</ele>
        <time>2020-12-13T10:22:17Z</time>
      </trkpt>
      <trkpt lat="45.91727" lon="4.62944">
        <ele>325.7</ele>
        <time>2020-12-13T10:22:18Z</time>
      </trkpt>
      <trkpt lat="45.91727" lon="4.62943">
        <ele>325.7</ele>
        <time>2020-12-13T10:22:19Z</time>
      </trkpt>
      <trkpt lat="45.91726" lon="4.62943">
        <ele>325.6</ele>
        <time>2020-12-13T10:22:20Z</time>
      </trkpt>
      <trkpt lat="45.91725" lon="4.62943">
        <ele>325.6</ele>
        <time>2020-12-13T10:22:21Z</time>
      </trkpt>
      <trkpt lat="45.91724" lon="4.62942">
        <ele>325.5</ele>
        <time>2020-12-13T10:22:22Z</time>
      </trkpt>
      <trkpt lat="45.91723" lon="4.62939">
        <ele>325.4</ele>
        <time>2020-12-13T10:22:23Z</time>
      </trkpt>
      <trkpt lat="45.91722" lon="4.62939">
        <ele>325.3</ele>
        <time>2020-12-13T10:22:24Z</time>
      </trkpt>
      <trkpt lat="45.91721" lon="4.62938">
        <ele>325.3</ele>
        <time>2020-12-13T10:22:25Z</time>
      </trkpt>
      <trkpt lat="45.9172" lon="4.62935">
        <ele>325.2</ele>
        <time>2020-12-13T10:22:26Z</time>
      </trkpt>
      <trkpt lat="45.9172" lon="4.62934">
        <ele>325.1</ele>
        <time>2020-12-13T10:22:27Z</time>
      </trkpt>
      <trkpt lat="45.91719" lon="4.62933">
        <ele>325.1</ele>
        <time>2020-12-13T10:22:28Z</time>
      </trkpt>
      <trkpt lat="45.91718" lon="4.62932">
        <ele>325</ele>
        <time>2020-12-13T10:22:29Z</time>
      </trkpt>
      <trkpt lat="45.91717" lon="4.62931">
        <ele>324.9</ele>
        <time>2020-12-13T10:22:30Z</time>
      </trkpt>
      <trkpt lat="45.91716" lon="4.62929">
        <ele>324.7</ele>
        <time>2020-12-13T10:22:31Z</time>
      </trkpt>
      <trkpt lat="45.91715" lon="4.62928">
        <ele>324.7</ele>
        <time>2020-12-13T10:22:32Z</time>
      </trkpt>
      <trkpt lat="45.91714" lon="4.62926">
        <ele>324.5</ele>
        <time>2020-12-13T10:22:33Z</time>
      </trkpt>
      <trkpt lat="45.91714" lon="4.62925">
        <ele>324.5</ele>
        <time>2020-12-13T10:22:34Z</time>
      </trkpt>
      <trkpt lat="45.91713" lon="4.62923">
        <ele>324.4</ele>
        <time>2020-12-13T10:22:35Z</time>
      </trkpt>
      <trkpt lat="45.91712" lon="4.62922">
        <ele>324.3</ele>
        <time>2020-12-13T10:22:36Z</time>
      </trkpt>
      <trkpt lat="45.91711" lon="4.62921">
        <ele>324.2</ele>
        <time>2020-12-13T10:22:37Z</time>
      </trkpt>
      <trkpt lat="45.9171" lon="4.62919">
        <ele>324</ele>
        <time>2020-12-13T10:22:38Z</time>
      </trkpt>
      <trkpt lat="45.91709" lon="4.62917">
        <ele>323.9</ele>
        <time>2020-12-13T10:22:39Z</time>
      </trkpt>
      <trkpt lat="45.91708" lon="4.62916">
        <ele>323.8</ele>
        <time>2020-12-13T10:22:40Z</time>
      </trkpt>
      <trkpt lat="45.91707" lon="4.62916">
        <ele>323.7</ele>
        <time>2020-12-13T10:22:41Z</time>
      </trkpt>
      <trkpt lat="45.91707" lon="4.62915">
        <ele>323.6</ele>
        <time>2020-12-13T10:22:42Z</time>
      </trkpt>
      <trkpt lat="45.91705" lon="4.62913">
        <ele>323.4</ele>
        <time>2020-12-13T10:22:43Z</time>
      </trkpt>
      <trkpt lat="45.91704" lon="4.62913">
        <ele>323.3</ele>
        <time>2020-12-13T10:22:44Z</time>
      </trkpt>
      <trkpt lat="45.91703" lon="4.62912">
        <ele>323.2</ele>
        <time>2020-12-13T10:22:45Z</time>
      </trkpt>
      <trkpt lat="45.91702" lon="4.62911">
        <ele>323.1</ele>
        <time>2020-12-13T10:22:46Z</time>
      </trkpt>
      <trkpt lat="45.91701" lon="4.6291">
        <ele>323</ele>
        <time>2020-12-13T10:22:47Z</time>
      </trkpt>
      <trkpt lat="45.917" lon="4.6291">
        <ele>322.9</ele>
        <time>2020-12-13T10:22:48Z</time>
      </trkpt>
      <trkpt lat="45.91699" lon="4.62908">
        <ele>322.8</ele>
        <time>2020-12-13T10:22:50Z</time>
      </trkpt>
      <trkpt lat="45.91698" lon="4.62908">
        <ele>322.7</ele>
        <time>2020-12-13T10:22:51Z</time>
      </trkpt>
      <trkpt lat="45.91697" lon="4.62907">
        <ele>322.6</ele>
        <time>2020-12-13T10:22:52Z</time>
      </trkpt>
      <trkpt lat="45.91695" lon="4.62906">
        <ele>322.4</ele>
        <time>2020-12-13T10:22:53Z</time>
      </trkpt>
      <trkpt lat="45.91693" lon="4.62904">
        <ele>322.3</ele>
        <time>2020-12-13T10:22:54Z</time>
      </trkpt>
      <trkpt lat="45.91692" lon="4.62903">
        <ele>322.2</ele>
        <time>2020-12-13T10:22:55Z</time>
      </trkpt>
      <trkpt lat="45.91691" lon="4.62902">
        <ele>322.1</ele>
        <time>2020-12-13T10:22:56Z</time>
      </trkpt>
      <trkpt lat="45.91691" lon="4.62901">
        <ele>322</ele>
        <time>2020-12-13T10:22:57Z</time>
      </trkpt>
      <trkpt lat="45.9169" lon="4.62901">
        <ele>321.9</ele>
        <time>2020-12-13T10:22:58Z</time>
      </trkpt>
      <trkpt lat="45.91687" lon="4.62898">
        <ele>321.7</ele>
        <time>2020-12-13T10:22:59Z</time>
      </trkpt>
      <trkpt lat="45.91685" lon="4.62897">
        <ele>321.6</ele>
        <time>2020-12-13T10:23:00Z</time>
      </trkpt>
      <trkpt lat="45.91685" lon="4.62896">
        <ele>321.5</ele>
        <time>2020-12-13T10:23:01Z</time>
      </trkpt>
      <trkpt lat="45.91684" lon="4.62896">
        <ele>321.5</ele>
        <time>2020-12-13T10:23:02Z</time>
      </trkpt>
      <trkpt lat="45.91682" lon="4.62895">
        <ele>321.4</ele>
        <time>2020-12-13T10:23:03Z</time>
      </trkpt>
      <trkpt lat="45.91681" lon="4.62896">
        <ele>321.3</ele>
        <time>2020-12-13T10:23:04Z</time>
      </trkpt>
      <trkpt lat="45.91679" lon="4.62894">
        <ele>321.2</ele>
        <time>2020-12-13T10:23:05Z</time>
      </trkpt>
      <trkpt lat="45.91678" lon="4.62893">
        <ele>321.1</ele>
        <time>2020-12-13T10:23:06Z</time>
      </trkpt>
      <trkpt lat="45.91676" lon="4.62892">
        <ele>321.1</ele>
        <time>2020-12-13T10:23:07Z</time>
      </trkpt>
      <trkpt lat="45.91675" lon="4.62892">
        <ele>321</ele>
        <time>2020-12-13T10:23:08Z</time>
      </trkpt>
      <trkpt lat="45.91674" lon="4.6289">
        <ele>320.9</ele>
        <time>2020-12-13T10:23:09Z</time>
      </trkpt>
      <trkpt lat="45.91671" lon="4.62888">
        <ele>320.8</ele>
        <time>2020-12-13T10:23:10Z</time>
      </trkpt>
      <trkpt lat="45.9167" lon="4.62887">
        <ele>320.8</ele>
        <time>2020-12-13T10:23:11Z</time>
      </trkpt>
      <trkpt lat="45.9167" lon="4.62887">
        <ele>320.8</ele>
        <time>2020-12-13T10:23:12Z</time>
      </trkpt>
      <trkpt lat="45.91669" lon="4.62886">
        <ele>320.8</ele>
        <time>2020-12-13T10:23:13Z</time>
      </trkpt>
      <trkpt lat="45.91668" lon="4.62885">
        <ele>320.7</ele>
        <time>2020-12-13T10:23:14Z</time>
      </trkpt>
      <trkpt lat="45.91666" lon="4.62884">
        <ele>320.6</ele>
        <time>2020-12-13T10:23:15Z</time>
      </trkpt>
      <trkpt lat="45.91665" lon="4.62884">
        <ele>320.6</ele>
        <time>2020-12-13T10:23:16Z</time>
      </trkpt>
      <trkpt lat="45.91663" lon="4.62884">
        <ele>320.6</ele>
        <time>2020-12-13T10:23:17Z</time>
      </trkpt>
      <trkpt lat="45.91662" lon="4.62883">
        <ele>320.6</ele>
        <time>2020-12-13T10:23:18Z</time>
      </trkpt>
      <trkpt lat="45.9166" lon="4.62881">
        <ele>320.5</ele>
        <time>2020-12-13T10:23:19Z</time>
      </trkpt>
      <trkpt lat="45.9166" lon="4.62881">
        <ele>320.5</ele>
        <time>2020-12-13T10:23:20Z</time>
      </trkpt>
      <trkpt lat="45.91659" lon="4.6288">
        <ele>320.5</ele>
        <time>2020-12-13T10:23:21Z</time>
      </trkpt>
      <trkpt lat="45.91659" lon="4.62879">
        <ele>320.5</ele>
        <time>2020-12-13T10:23:22Z</time>
      </trkpt>
      <trkpt lat="45.91658" lon="4.62879">
        <ele>320.4</ele>
        <time>2020-12-13T10:23:23Z</time>
      </trkpt>
      <trkpt lat="45.91656" lon="4.62876">
        <ele>320.4</ele>
        <time>2020-12-13T10:23:24Z</time>
      </trkpt>
      <trkpt lat="45.91655" lon="4.62877">
        <ele>320.3</ele>
        <time>2020-12-13T10:23:25Z</time>
      </trkpt>
      <trkpt lat="45.91654" lon="4.62876">
        <ele>320.3</ele>
        <time>2020-12-13T10:23:26Z</time>
      </trkpt>
      <trkpt lat="45.91653" lon="4.62876">
        <ele>320.4</ele>
        <time>2020-12-13T10:23:27Z</time>
      </trkpt>
      <trkpt lat="45.91653" lon="4.62876">
        <ele>320.4</ele>
        <time>2020-12-13T10:23:28Z</time>
      </trkpt>
      <trkpt lat="45.91651" lon="4.62876">
        <ele>320.3</ele>
        <time>2020-12-13T10:23:29Z</time>
      </trkpt>
      <trkpt lat="45.9165" lon="4.62874">
        <ele>320.3</ele>
        <time>2020-12-13T10:23:30Z</time>
      </trkpt>
      <trkpt lat="45.91648" lon="4.62872">
        <ele>320.3</ele>
        <time>2020-12-13T10:23:31Z</time>
      </trkpt>
      <trkpt lat="45.91648" lon="4.62872">
        <ele>320.3</ele>
        <time>2020-12-13T10:23:32Z</time>
      </trkpt>
      <trkpt lat="45.91647" lon="4.6287">
        <ele>320.3</ele>
        <time>2020-12-13T10:23:33Z</time>
      </trkpt>
      <trkpt lat="45.91646" lon="4.62869">
        <ele>320.3</ele>
        <time>2020-12-13T10:23:34Z</time>
      </trkpt>
      <trkpt lat="45.91646" lon="4.62868">
        <ele>320.4</ele>
        <time>2020-12-13T10:23:35Z</time>
      </trkpt>
      <trkpt lat="45.91647" lon="4.62867">
        <ele>320.4</ele>
        <time>2020-12-13T10:23:36Z</time>
      </trkpt>
      <trkpt lat="45.91646" lon="4.62865">
        <ele>320.4</ele>
        <time>2020-12-13T10:23:37Z</time>
      </trkpt>
      <trkpt lat="45.91646" lon="4.62863">
        <ele>320.5</ele>
        <time>2020-12-13T10:23:38Z</time>
      </trkpt>
      <trkpt lat="45.91646" lon="4.62862">
        <ele>320.5</ele>
        <time>2020-12-13T10:23:39Z</time>
      </trkpt>
      <trkpt lat="45.91646" lon="4.6286">
        <ele>320.5</ele>
        <time>2020-12-13T10:23:40Z</time>
      </trkpt>
      <trkpt lat="45.91646" lon="4.62859">
        <ele>320.6</ele>
        <time>2020-12-13T10:23:41Z</time>
      </trkpt>
      <trkpt lat="45.91646" lon="4.62857">
        <ele>320.6</ele>
        <time>2020-12-13T10:23:42Z</time>
      </trkpt>
      <trkpt lat="45.91646" lon="4.62856">
        <ele>320.6</ele>
        <time>2020-12-13T10:23:43Z</time>
      </trkpt>
      <trkpt lat="45.91645" lon="4.62855">
        <ele>320.8</ele>
        <time>2020-12-13T10:23:44Z</time>
      </trkpt>
      <trkpt lat="45.91645" lon="4.62854">
        <ele>320.8</ele>
        <time>2020-12-13T10:23:45Z</time>
      </trkpt>
      <trkpt lat="45.91644" lon="4.62853">
        <ele>320.8</ele>
        <time>2020-12-13T10:23:46Z</time>
      </trkpt>
      <trkpt lat="45.91644" lon="4.62852">
        <ele>320.8</ele>
        <time>2020-12-13T10:23:47Z</time>
      </trkpt>
      <trkpt lat="45.91643" lon="4.62851">
        <ele>320.8</ele>
        <time>2020-12-13T10:23:48Z</time>
      </trkpt>
      <trkpt lat="45.91643" lon="4.62849">
        <ele>321</ele>
        <time>2020-12-13T10:23:49Z</time>
      </trkpt>
      <trkpt lat="45.91643" lon="4.62848">
        <ele>321</ele>
        <time>2020-12-13T10:23:50Z</time>
      </trkpt>
      <trkpt lat="45.91642" lon="4.62846">
        <ele>321</ele>
        <time>2020-12-13T10:23:51Z</time>
      </trkpt>
      <trkpt lat="45.91642" lon="4.62845">
        <ele>321.3</ele>
        <time>2020-12-13T10:23:52Z</time>
      </trkpt>
      <trkpt lat="45.91642" lon="4.62843">
        <ele>321.3</ele>
        <time>2020-12-13T10:23:53Z</time>
      </trkpt>
      <trkpt lat="45.91641" lon="4.62841">
        <ele>321.5</ele>
        <time>2020-12-13T10:23:54Z</time>
      </trkpt>
      <trkpt lat="45.91641" lon="4.62838">
        <ele>321.5</ele>
        <time>2020-12-13T10:23:55Z</time>
      </trkpt>
      <trkpt lat="45.9164" lon="4.62837">
        <ele>321.9</ele>
        <time>2020-12-13T10:23:56Z</time>
      </trkpt>
      <trkpt lat="45.9164" lon="4.62835">
        <ele>321.9</ele>
        <time>2020-12-13T10:23:57Z</time>
      </trkpt>
      <trkpt lat="45.9164" lon="4.62834">
        <ele>321.9</ele>
        <time>2020-12-13T10:23:58Z</time>
      </trkpt>
      <trkpt lat="45.91639" lon="4.62831">
        <ele>322.2</ele>
        <time>2020-12-13T10:23:59Z</time>
      </trkpt>
      <trkpt lat="45.91639" lon="4.6283">
        <ele>322.2</ele>
        <time>2020-12-13T10:24:00Z</time>
      </trkpt>
      <trkpt lat="45.91639" lon="4.62829">
        <ele>322.5</ele>
        <time>2020-12-13T10:24:01Z</time>
      </trkpt>
      <trkpt lat="45.91638" lon="4.62826">
        <ele>322.5</ele>
        <time>2020-12-13T10:24:02Z</time>
      </trkpt>
      <trkpt lat="45.91638" lon="4.62824">
        <ele>322.8</ele>
        <time>2020-12-13T10:24:03Z</time>
      </trkpt>
      <trkpt lat="45.91638" lon="4.62822">
        <ele>322.9</ele>
        <time>2020-12-13T10:24:04Z</time>
      </trkpt>
      <trkpt lat="45.91638" lon="4.62821">
        <ele>322.9</ele>
        <time>2020-12-13T10:24:05Z</time>
      </trkpt>
      <trkpt lat="45.91637" lon="4.62819">
        <ele>323.2</ele>
        <time>2020-12-13T10:24:06Z</time>
      </trkpt>
      <trkpt lat="45.91637" lon="4.62818">
        <ele>323.2</ele>
        <time>2020-12-13T10:24:07Z</time>
      </trkpt>
      <trkpt lat="45.91637" lon="4.62817">
        <ele>323.2</ele>
        <time>2020-12-13T10:24:08Z</time>
      </trkpt>
      <trkpt lat="45.91637" lon="4.62814">
        <ele>323.4</ele>
        <time>2020-12-13T10:24:09Z</time>
      </trkpt>
      <trkpt lat="45.91636" lon="4.62813">
        <ele>323.4</ele>
        <time>2020-12-13T10:24:10Z</time>
      </trkpt>
      <trkpt lat="45.91636" lon="4.62812">
        <ele>323.7</ele>
        <time>2020-12-13T10:24:11Z</time>
      </trkpt>
      <trkpt lat="45.91636" lon="4.6281">
        <ele>323.7</ele>
        <time>2020-12-13T10:24:12Z</time>
      </trkpt>
      <trkpt lat="45.91636" lon="4.62809">
        <ele>323.7</ele>
        <time>2020-12-13T10:24:13Z</time>
      </trkpt>
      <trkpt lat="45.91636" lon="4.62807">
        <ele>324</ele>
        <time>2020-12-13T10:24:14Z</time>
      </trkpt>
      <trkpt lat="45.91636" lon="4.62806">
        <ele>324</ele>
        <time>2020-12-13T10:24:15Z</time>
      </trkpt>
      <trkpt lat="45.91635" lon="4.62803">
        <ele>324.2</ele>
        <time>2020-12-13T10:24:16Z</time>
      </trkpt>
      <trkpt lat="45.91635" lon="4.62801">
        <ele>324.2</ele>
        <time>2020-12-13T10:24:17Z</time>
      </trkpt>
      <trkpt lat="45.91635" lon="4.62799">
        <ele>324.4</ele>
        <time>2020-12-13T10:24:18Z</time>
      </trkpt>
      <trkpt lat="45.91634" lon="4.62797">
        <ele>324.4</ele>
        <time>2020-12-13T10:24:19Z</time>
      </trkpt>
      <trkpt lat="45.91634" lon="4.62796">
        <ele>324.4</ele>
        <time>2020-12-13T10:24:20Z</time>
      </trkpt>
      <trkpt lat="45.91634" lon="4.62795">
        <ele>324.6</ele>
        <time>2020-12-13T10:24:21Z</time>
      </trkpt>
      <trkpt lat="45.91634" lon="4.62793">
        <ele>324.6</ele>
        <time>2020-12-13T10:24:22Z</time>
      </trkpt>
      <trkpt lat="45.91634" lon="4.6279">
        <ele>324.9</ele>
        <time>2020-12-13T10:24:23Z</time>
      </trkpt>
      <trkpt lat="45.91634" lon="4.62788">
        <ele>324.9</ele>
        <time>2020-12-13T10:24:24Z</time>
      </trkpt>
      <trkpt lat="45.91634" lon="4.62786">
        <ele>324.9</ele>
        <time>2020-12-13T10:24:25Z</time>
      </trkpt>
      <trkpt lat="45.91634" lon="4.62785">
        <ele>325.1</ele>
        <time>2020-12-13T10:24:26Z</time>
      </trkpt>
      <trkpt lat="45.91634" lon="4.62783">
        <ele>325.1</ele>
        <time>2020-12-13T10:24:27Z</time>
      </trkpt>
      <trkpt lat="45.91634" lon="4.62782">
        <ele>325.3</ele>
        <time>2020-12-13T10:24:28Z</time>
      </trkpt>
      <trkpt lat="45.91633" lon="4.62781">
        <ele>325.3</ele>
        <time>2020-12-13T10:24:29Z</time>
      </trkpt>
      <trkpt lat="45.91633" lon="4.62779">
        <ele>325.3</ele>
        <time>2020-12-13T10:24:30Z</time>
      </trkpt>
      <trkpt lat="45.91634" lon="4.62778">
        <ele>325.3</ele>
        <time>2020-12-13T10:24:31Z</time>
      </trkpt>
      <trkpt lat="45.91633" lon="4.62776">
        <ele>325.6</ele>
        <time>2020-12-13T10:24:32Z</time>
      </trkpt>
      <trkpt lat="45.91634" lon="4.62775">
        <ele>325.6</ele>
        <time>2020-12-13T10:24:33Z</time>
      </trkpt>
      <trkpt lat="45.91634" lon="4.62773">
        <ele>325.8</ele>
        <time>2020-12-13T10:24:34Z</time>
      </trkpt>
      <trkpt lat="45.91634" lon="4.62772">
        <ele>325.8</ele>
        <time>2020-12-13T10:24:35Z</time>
      </trkpt>
      <trkpt lat="45.91634" lon="4.62771">
        <ele>325.8</ele>
        <time>2020-12-13T10:24:36Z</time>
      </trkpt>
      <trkpt lat="45.91634" lon="4.62769">
        <ele>326</ele>
        <time>2020-12-13T10:24:37Z</time>
      </trkpt>
      <trkpt lat="45.91635" lon="4.62768">
        <ele>326</ele>
        <time>2020-12-13T10:24:38Z</time>
      </trkpt>
      <trkpt lat="45.91635" lon="4.62768">
        <ele>326</ele>
        <time>2020-12-13T10:24:39Z</time>
      </trkpt>
      <trkpt lat="45.91635" lon="4.62766">
        <ele>326</ele>
        <time>2020-12-13T10:24:40Z</time>
      </trkpt>
      <trkpt lat="45.91635" lon="4.62765">
        <ele>326.2</ele>
        <time>2020-12-13T10:24:41Z</time>
      </trkpt>
      <trkpt lat="45.91636" lon="4.62763">
        <ele>326.2</ele>
        <time>2020-12-13T10:24:42Z</time>
      </trkpt>
      <trkpt lat="45.91635" lon="4.62762">
        <ele>326.2</ele>
        <time>2020-12-13T10:24:43Z</time>
      </trkpt>
      <trkpt lat="45.91635" lon="4.62761">
        <ele>326.2</ele>
        <time>2020-12-13T10:24:44Z</time>
      </trkpt>
      <trkpt lat="45.91635" lon="4.6276">
        <ele>326.4</ele>
        <time>2020-12-13T10:24:45Z</time>
      </trkpt>
      <trkpt lat="45.91636" lon="4.62757">
        <ele>326.4</ele>
        <time>2020-12-13T10:24:46Z</time>
      </trkpt>
      <trkpt lat="45.91636" lon="4.62756">
        <ele>326.4</ele>
        <time>2020-12-13T10:24:47Z</time>
      </trkpt>
      <trkpt lat="45.91635" lon="4.62755">
        <ele>326.6</ele>
        <time>2020-12-13T10:24:48Z</time>
      </trkpt>
      <trkpt lat="45.91636" lon="4.62753">
        <ele>326.6</ele>
        <time>2020-12-13T10:24:49Z</time>
      </trkpt>
      <trkpt lat="45.91636" lon="4.62752">
        <ele>326.8</ele>
        <time>2020-12-13T10:24:50Z</time>
      </trkpt>
      <trkpt lat="45.91636" lon="4.62749">
        <ele>326.8</ele>
        <time>2020-12-13T10:24:51Z</time>
      </trkpt>
      <trkpt lat="45.91637" lon="4.62749">
        <ele>326.8</ele>
        <time>2020-12-13T10:24:52Z</time>
      </trkpt>
      <trkpt lat="45.91637" lon="4.62747">
        <ele>327.1</ele>
        <time>2020-12-13T10:24:53Z</time>
      </trkpt>
      <trkpt lat="45.91637" lon="4.62745">
        <ele>327.1</ele>
        <time>2020-12-13T10:24:54Z</time>
      </trkpt>
      <trkpt lat="45.91638" lon="4.62743">
        <ele>327.3</ele>
        <time>2020-12-13T10:24:56Z</time>
      </trkpt>
      <trkpt lat="45.91638" lon="4.62741">
        <ele>327.3</ele>
        <time>2020-12-13T10:24:57Z</time>
      </trkpt>
      <trkpt lat="45.91638" lon="4.62738">
        <ele>327.5</ele>
        <time>2020-12-13T10:24:58Z</time>
      </trkpt>
      <trkpt lat="45.91638" lon="4.62737">
        <ele>327.5</ele>
        <time>2020-12-13T10:24:59Z</time>
      </trkpt>
      <trkpt lat="45.91638" lon="4.62736">
        <ele>327.5</ele>
        <time>2020-12-13T10:25:00Z</time>
      </trkpt>
      <trkpt lat="45.91638" lon="4.62735">
        <ele>327.5</ele>
        <time>2020-12-13T10:25:01Z</time>
      </trkpt>
      <trkpt lat="45.91638" lon="4.62734">
        <ele>327.7</ele>
        <time>2020-12-13T10:25:02Z</time>
      </trkpt>
      <trkpt lat="45.91638" lon="4.62732">
        <ele>327.7</ele>
        <time>2020-12-13T10:25:03Z</time>
      </trkpt>
      <trkpt lat="45.91639" lon="4.6273">
        <ele>327.9</ele>
        <time>2020-12-13T10:25:04Z</time>
      </trkpt>
      <trkpt lat="45.91639" lon="4.62728">
        <ele>327.9</ele>
        <time>2020-12-13T10:25:05Z</time>
      </trkpt>
      <trkpt lat="45.91639" lon="4.62726">
        <ele>328</ele>
        <time>2020-12-13T10:25:06Z</time>
      </trkpt>
      <trkpt lat="45.91638" lon="4.62723">
        <ele>328</ele>
        <time>2020-12-13T10:25:07Z</time>
      </trkpt>
      <trkpt lat="45.91638" lon="4.62721">
        <ele>328.2</ele>
        <time>2020-12-13T10:25:08Z</time>
      </trkpt>
      <trkpt lat="45.91638" lon="4.6272">
        <ele>328.2</ele>
        <time>2020-12-13T10:25:09Z</time>
      </trkpt>
      <trkpt lat="45.91638" lon="4.62719">
        <ele>328.2</ele>
        <time>2020-12-13T10:25:10Z</time>
      </trkpt>
      <trkpt lat="45.91638" lon="4.62718">
        <ele>328.2</ele>
        <time>2020-12-13T10:25:11Z</time>
      </trkpt>
      <trkpt lat="45.91638" lon="4.62717">
        <ele>328.3</ele>
        <time>2020-12-13T10:25:12Z</time>
      </trkpt>
      <trkpt lat="45.91638" lon="4.62716">
        <ele>328.3</ele>
        <time>2020-12-13T10:25:14Z</time>
      </trkpt>
      <trkpt lat="45.91639" lon="4.62714">
        <ele>328.3</ele>
        <time>2020-12-13T10:25:15Z</time>
      </trkpt>
      <trkpt lat="45.91639" lon="4.62713">
        <ele>328.5</ele>
        <time>2020-12-13T10:25:16Z</time>
      </trkpt>
      <trkpt lat="45.9164" lon="4.62712">
        <ele>328.5</ele>
        <time>2020-12-13T10:25:17Z</time>
      </trkpt>
      <trkpt lat="45.9164" lon="4.6271">
        <ele>328.5</ele>
        <time>2020-12-13T10:25:18Z</time>
      </trkpt>
      <trkpt lat="45.9164" lon="4.62709">
        <ele>328.5</ele>
        <time>2020-12-13T10:25:19Z</time>
      </trkpt>
      <trkpt lat="45.91642" lon="4.62706">
        <ele>328.8</ele>
        <time>2020-12-13T10:25:20Z</time>
      </trkpt>
      <trkpt lat="45.91642" lon="4.62705">
        <ele>328.8</ele>
        <time>2020-12-13T10:25:21Z</time>
      </trkpt>
      <trkpt lat="45.91643" lon="4.62704">
        <ele>328.9</ele>
        <time>2020-12-13T10:25:22Z</time>
      </trkpt>
      <trkpt lat="45.91643" lon="4.62703">
        <ele>328.9</ele>
        <time>2020-12-13T10:25:23Z</time>
      </trkpt>
      <trkpt lat="45.91643" lon="4.62702">
        <ele>328.9</ele>
        <time>2020-12-13T10:25:24Z</time>
      </trkpt>
      <trkpt lat="45.91643" lon="4.62701">
        <ele>328.9</ele>
        <time>2020-12-13T10:25:25Z</time>
      </trkpt>
      <trkpt lat="45.91644" lon="4.62699">
        <ele>329.1</ele>
        <time>2020-12-13T10:25:26Z</time>
      </trkpt>
      <trkpt lat="45.91644" lon="4.62699">
        <ele>329.3</ele>
        <time>2020-12-13T10:25:27Z</time>
      </trkpt>
      <trkpt lat="45.91644" lon="4.62698">
        <ele>329.3</ele>
        <time>2020-12-13T10:25:28Z</time>
      </trkpt>
      <trkpt lat="45.91644" lon="4.62696">
        <ele>329.3</ele>
        <time>2020-12-13T10:25:29Z</time>
      </trkpt>
      <trkpt lat="45.91644" lon="4.62695">
        <ele>329.4</ele>
        <time>2020-12-13T10:25:30Z</time>
      </trkpt>
      <trkpt lat="45.91646" lon="4.62692">
        <ele>329.4</ele>
        <time>2020-12-13T10:25:31Z</time>
      </trkpt>
      <trkpt lat="45.91646" lon="4.62691">
        <ele>329.6</ele>
        <time>2020-12-13T10:25:32Z</time>
      </trkpt>
      <trkpt lat="45.91647" lon="4.6269">
        <ele>329.6</ele>
        <time>2020-12-13T10:25:33Z</time>
      </trkpt>
      <trkpt lat="45.91646" lon="4.62688">
        <ele>329.6</ele>
        <time>2020-12-13T10:25:34Z</time>
      </trkpt>
      <trkpt lat="45.91647" lon="4.62687">
        <ele>329.8</ele>
        <time>2020-12-13T10:25:35Z</time>
      </trkpt>
      <trkpt lat="45.91647" lon="4.62685">
        <ele>329.9</ele>
        <time>2020-12-13T10:25:36Z</time>
      </trkpt>
      <trkpt lat="45.91647" lon="4.62684">
        <ele>329.8</ele>
        <time>2020-12-13T10:25:37Z</time>
      </trkpt>
      <trkpt lat="45.91647" lon="4.62682">
        <ele>330</ele>
        <time>2020-12-13T10:25:38Z</time>
      </trkpt>
      <trkpt lat="45.91647" lon="4.62681">
        <ele>330.1</ele>
        <time>2020-12-13T10:25:39Z</time>
      </trkpt>
      <trkpt lat="45.91647" lon="4.6268">
        <ele>330.1</ele>
        <time>2020-12-13T10:25:40Z</time>
      </trkpt>
      <trkpt lat="45.91648" lon="4.62679">
        <ele>330.1</ele>
        <time>2020-12-13T10:25:41Z</time>
      </trkpt>
      <trkpt lat="45.91648" lon="4.62678">
        <ele>330.3</ele>
        <time>2020-12-13T10:25:42Z</time>
      </trkpt>
      <trkpt lat="45.91648" lon="4.62678">
        <ele>330.3</ele>
        <time>2020-12-13T10:25:43Z</time>
      </trkpt>
      <trkpt lat="45.91649" lon="4.62678">
        <ele>330.3</ele>
        <time>2020-12-13T10:25:44Z</time>
      </trkpt>
      <trkpt lat="45.91649" lon="4.62676">
        <ele>330.3</ele>
        <time>2020-12-13T10:25:45Z</time>
      </trkpt>
      <trkpt lat="45.9165" lon="4.62674">
        <ele>330.6</ele>
        <time>2020-12-13T10:25:46Z</time>
      </trkpt>
      <trkpt lat="45.91651" lon="4.62674">
        <ele>330.6</ele>
        <time>2020-12-13T10:25:47Z</time>
      </trkpt>
      <trkpt lat="45.91651" lon="4.62673">
        <ele>330.6</ele>
        <time>2020-12-13T10:25:48Z</time>
      </trkpt>
      <trkpt lat="45.91652" lon="4.62672">
        <ele>330.6</ele>
        <time>2020-12-13T10:25:49Z</time>
      </trkpt>
      <trkpt lat="45.91652" lon="4.6267">
        <ele>330.6</ele>
        <time>2020-12-13T10:25:50Z</time>
      </trkpt>
      <trkpt lat="45.91653" lon="4.62669">
        <ele>331</ele>
        <time>2020-12-13T10:25:51Z</time>
      </trkpt>
      <trkpt lat="45.91653" lon="4.62667">
        <ele>331</ele>
        <time>2020-12-13T10:25:52Z</time>
      </trkpt>
      <trkpt lat="45.91653" lon="4.62666">
        <ele>331.2</ele>
        <time>2020-12-13T10:25:53Z</time>
      </trkpt>
      <trkpt lat="45.91654" lon="4.62663">
        <ele>331.2</ele>
        <time>2020-12-13T10:25:54Z</time>
      </trkpt>
      <trkpt lat="45.91654" lon="4.62662">
        <ele>331.2</ele>
        <time>2020-12-13T10:25:55Z</time>
      </trkpt>
      <trkpt lat="45.91654" lon="4.62661">
        <ele>331.3</ele>
        <time>2020-12-13T10:25:56Z</time>
      </trkpt>
      <trkpt lat="45.91655" lon="4.6266">
        <ele>331.3</ele>
        <time>2020-12-13T10:25:57Z</time>
      </trkpt>
      <trkpt lat="45.91655" lon="4.62658">
        <ele>331.3</ele>
        <time>2020-12-13T10:25:58Z</time>
      </trkpt>
      <trkpt lat="45.91655" lon="4.62657">
        <ele>331.5</ele>
        <time>2020-12-13T10:25:59Z</time>
      </trkpt>
      <trkpt lat="45.91655" lon="4.62655">
        <ele>331.5</ele>
        <time>2020-12-13T10:26:00Z</time>
      </trkpt>
      <trkpt lat="45.91656" lon="4.62654">
        <ele>331.7</ele>
        <time>2020-12-13T10:26:01Z</time>
      </trkpt>
      <trkpt lat="45.91656" lon="4.62652">
        <ele>331.8</ele>
        <time>2020-12-13T10:26:02Z</time>
      </trkpt>
      <trkpt lat="45.91657" lon="4.62649">
        <ele>331.8</ele>
        <time>2020-12-13T10:26:03Z</time>
      </trkpt>
      <trkpt lat="45.91657" lon="4.62648">
        <ele>332</ele>
        <time>2020-12-13T10:26:04Z</time>
      </trkpt>
      <trkpt lat="45.91657" lon="4.62646">
        <ele>332</ele>
        <time>2020-12-13T10:26:05Z</time>
      </trkpt>
      <trkpt lat="45.91657" lon="4.62646">
        <ele>332</ele>
        <time>2020-12-13T10:26:06Z</time>
      </trkpt>
      <trkpt lat="45.91657" lon="4.62645">
        <ele>332</ele>
        <time>2020-12-13T10:26:07Z</time>
      </trkpt>
      <trkpt lat="45.91657" lon="4.62643">
        <ele>332.1</ele>
        <time>2020-12-13T10:26:08Z</time>
      </trkpt>
      <trkpt lat="45.91657" lon="4.62642">
        <ele>332.1</ele>
        <time>2020-12-13T10:26:09Z</time>
      </trkpt>
      <trkpt lat="45.91657" lon="4.62639">
        <ele>332.2</ele>
        <time>2020-12-13T10:26:10Z</time>
      </trkpt>
      <trkpt lat="45.91657" lon="4.62638">
        <ele>332.2</ele>
        <time>2020-12-13T10:26:11Z</time>
      </trkpt>
      <trkpt lat="45.91657" lon="4.62637">
        <ele>332.2</ele>
        <time>2020-12-13T10:26:12Z</time>
      </trkpt>
      <trkpt lat="45.91657" lon="4.62636">
        <ele>332.3</ele>
        <time>2020-12-13T10:26:13Z</time>
      </trkpt>
      <trkpt lat="45.91657" lon="4.62633">
        <ele>332.3</ele>
        <time>2020-12-13T10:26:14Z</time>
      </trkpt>
      <trkpt lat="45.91657" lon="4.62631">
        <ele>332.4</ele>
        <time>2020-12-13T10:26:15Z</time>
      </trkpt>
      <trkpt lat="45.91657" lon="4.6263">
        <ele>332.4</ele>
        <time>2020-12-13T10:26:16Z</time>
      </trkpt>
      <trkpt lat="45.91657" lon="4.62629">
        <ele>332.4</ele>
        <time>2020-12-13T10:26:17Z</time>
      </trkpt>
      <trkpt lat="45.91658" lon="4.62628">
        <ele>332.4</ele>
        <time>2020-12-13T10:26:18Z</time>
      </trkpt>
      <trkpt lat="45.91658" lon="4.62625">
        <ele>332.5</ele>
        <time>2020-12-13T10:26:19Z</time>
      </trkpt>
      <trkpt lat="45.91658" lon="4.62623">
        <ele>332.5</ele>
        <time>2020-12-13T10:26:20Z</time>
      </trkpt>
      <trkpt lat="45.91658" lon="4.62622">
        <ele>332.6</ele>
        <time>2020-12-13T10:26:21Z</time>
      </trkpt>
      <trkpt lat="45.91658" lon="4.6262">
        <ele>332.6</ele>
        <time>2020-12-13T10:26:22Z</time>
      </trkpt>
      <trkpt lat="45.91658" lon="4.62618">
        <ele>332.7</ele>
        <time>2020-12-13T10:26:23Z</time>
      </trkpt>
      <trkpt lat="45.91659" lon="4.62617">
        <ele>332.7</ele>
        <time>2020-12-13T10:26:24Z</time>
      </trkpt>
      <trkpt lat="45.91659" lon="4.62616">
        <ele>332.9</ele>
        <time>2020-12-13T10:26:25Z</time>
      </trkpt>
      <trkpt lat="45.91659" lon="4.62615">
        <ele>332.9</ele>
        <time>2020-12-13T10:26:26Z</time>
      </trkpt>
      <trkpt lat="45.91659" lon="4.62614">
        <ele>332.9</ele>
        <time>2020-12-13T10:26:27Z</time>
      </trkpt>
      <trkpt lat="45.91659" lon="4.62612">
        <ele>332.9</ele>
        <time>2020-12-13T10:26:28Z</time>
      </trkpt>
      <trkpt lat="45.91659" lon="4.6261">
        <ele>333</ele>
        <time>2020-12-13T10:26:29Z</time>
      </trkpt>
      <trkpt lat="45.9166" lon="4.62609">
        <ele>333</ele>
        <time>2020-12-13T10:26:30Z</time>
      </trkpt>
      <trkpt lat="45.91661" lon="4.62607">
        <ele>333</ele>
        <time>2020-12-13T10:26:31Z</time>
      </trkpt>
      <trkpt lat="45.91661" lon="4.62605">
        <ele>333.1</ele>
        <time>2020-12-13T10:26:32Z</time>
      </trkpt>
      <trkpt lat="45.91662" lon="4.62603">
        <ele>333.1</ele>
        <time>2020-12-13T10:26:33Z</time>
      </trkpt>
      <trkpt lat="45.91662" lon="4.62602">
        <ele>333.3</ele>
        <time>2020-12-13T10:26:34Z</time>
      </trkpt>
      <trkpt lat="45.91662" lon="4.626">
        <ele>333.3</ele>
        <time>2020-12-13T10:26:35Z</time>
      </trkpt>
      <trkpt lat="45.91662" lon="4.62599">
        <ele>333.3</ele>
        <time>2020-12-13T10:26:36Z</time>
      </trkpt>
      <trkpt lat="45.91663" lon="4.62597">
        <ele>333.3</ele>
        <time>2020-12-13T10:26:37Z</time>
      </trkpt>
      <trkpt lat="45.91663" lon="4.62596">
        <ele>333.3</ele>
        <time>2020-12-13T10:26:38Z</time>
      </trkpt>
      <trkpt lat="45.91663" lon="4.62594">
        <ele>333.3</ele>
        <time>2020-12-13T10:26:39Z</time>
      </trkpt>
      <trkpt lat="45.91664" lon="4.62593">
        <ele>333.3</ele>
        <time>2020-12-13T10:26:40Z</time>
      </trkpt>
      <trkpt lat="45.91665" lon="4.62593">
        <ele>333.3</ele>
        <time>2020-12-13T10:26:41Z</time>
      </trkpt>
      <trkpt lat="45.91665" lon="4.62592">
        <ele>333.5</ele>
        <time>2020-12-13T10:26:42Z</time>
      </trkpt>
      <trkpt lat="45.91666" lon="4.6259">
        <ele>333.5</ele>
        <time>2020-12-13T10:26:43Z</time>
      </trkpt>
      <trkpt lat="45.91666" lon="4.62589">
        <ele>333.5</ele>
        <time>2020-12-13T10:26:44Z</time>
      </trkpt>
      <trkpt lat="45.91666" lon="4.62587">
        <ele>333.4</ele>
        <time>2020-12-13T10:26:45Z</time>
      </trkpt>
      <trkpt lat="45.91667" lon="4.62585">
        <ele>333.4</ele>
        <time>2020-12-13T10:26:46Z</time>
      </trkpt>
      <trkpt lat="45.91667" lon="4.62582">
        <ele>333.4</ele>
        <time>2020-12-13T10:26:47Z</time>
      </trkpt>
      <trkpt lat="45.91667" lon="4.62582">
        <ele>333.4</ele>
        <time>2020-12-13T10:26:48Z</time>
      </trkpt>
      <trkpt lat="45.91668" lon="4.62581">
        <ele>333.4</ele>
        <time>2020-12-13T10:26:49Z</time>
      </trkpt>
      <trkpt lat="45.91668" lon="4.62578">
        <ele>333.5</ele>
        <time>2020-12-13T10:26:50Z</time>
      </trkpt>
      <trkpt lat="45.91668" lon="4.62578">
        <ele>333.5</ele>
        <time>2020-12-13T10:26:51Z</time>
      </trkpt>
      <trkpt lat="45.91668" lon="4.62576">
        <ele>333.5</ele>
        <time>2020-12-13T10:26:52Z</time>
      </trkpt>
      <trkpt lat="45.91668" lon="4.62575">
        <ele>333.4</ele>
        <time>2020-12-13T10:26:53Z</time>
      </trkpt>
      <trkpt lat="45.91669" lon="4.62573">
        <ele>333.4</ele>
        <time>2020-12-13T10:26:54Z</time>
      </trkpt>
      <trkpt lat="45.91668" lon="4.62571">
        <ele>333.3</ele>
        <time>2020-12-13T10:26:55Z</time>
      </trkpt>
      <trkpt lat="45.91669" lon="4.6257">
        <ele>333.3</ele>
        <time>2020-12-13T10:26:56Z</time>
      </trkpt>
      <trkpt lat="45.91669" lon="4.62568">
        <ele>333.3</ele>
        <time>2020-12-13T10:26:57Z</time>
      </trkpt>
      <trkpt lat="45.91669" lon="4.62566">
        <ele>333.2</ele>
        <time>2020-12-13T10:26:58Z</time>
      </trkpt>
      <trkpt lat="45.91669" lon="4.62564">
        <ele>333.2</ele>
        <time>2020-12-13T10:26:59Z</time>
      </trkpt>
      <trkpt lat="45.9167" lon="4.62561">
        <ele>333.1</ele>
        <time>2020-12-13T10:27:00Z</time>
      </trkpt>
      <trkpt lat="45.9167" lon="4.6256">
        <ele>333.1</ele>
        <time>2020-12-13T10:27:02Z</time>
      </trkpt>
      <trkpt lat="45.9167" lon="4.62558">
        <ele>333</ele>
        <time>2020-12-13T10:27:03Z</time>
      </trkpt>
      <trkpt lat="45.91671" lon="4.62557">
        <ele>333</ele>
        <time>2020-12-13T10:27:04Z</time>
      </trkpt>
      <trkpt lat="45.91671" lon="4.62555">
        <ele>333.1</ele>
        <time>2020-12-13T10:27:05Z</time>
      </trkpt>
      <trkpt lat="45.91669" lon="4.62553">
        <ele>332.9</ele>
        <time>2020-12-13T10:27:06Z</time>
      </trkpt>
      <trkpt lat="45.91667" lon="4.62551">
        <ele>332.8</ele>
        <time>2020-12-13T10:27:07Z</time>
      </trkpt>
      <trkpt lat="45.91667" lon="4.6255">
        <ele>332.7</ele>
        <time>2020-12-13T10:27:08Z</time>
      </trkpt>
      <trkpt lat="45.91666" lon="4.62548">
        <ele>332.7</ele>
        <time>2020-12-13T10:27:09Z</time>
      </trkpt>
      <trkpt lat="45.91667" lon="4.62547">
        <ele>332.7</ele>
        <time>2020-12-13T10:27:10Z</time>
      </trkpt>
      <trkpt lat="45.91666" lon="4.62545">
        <ele>332.6</ele>
        <time>2020-12-13T10:27:12Z</time>
      </trkpt>
      <trkpt lat="45.91665" lon="4.62542">
        <ele>332.6</ele>
        <time>2020-12-13T10:27:13Z</time>
      </trkpt>
      <trkpt lat="45.91665" lon="4.62541">
        <ele>332.4</ele>
        <time>2020-12-13T10:27:14Z</time>
      </trkpt>
      <trkpt lat="45.91665" lon="4.6254">
        <ele>332.4</ele>
        <time>2020-12-13T10:27:15Z</time>
      </trkpt>
      <trkpt lat="45.91665" lon="4.62539">
        <ele>332.4</ele>
        <time>2020-12-13T10:27:16Z</time>
      </trkpt>
      <trkpt lat="45.91665" lon="4.62539">
        <ele>332.4</ele>
        <time>2020-12-13T10:27:17Z</time>
      </trkpt>
      <trkpt lat="45.91665" lon="4.62537">
        <ele>332.3</ele>
        <time>2020-12-13T10:27:18Z</time>
      </trkpt>
      <trkpt lat="45.91664" lon="4.62536">
        <ele>332.2</ele>
        <time>2020-12-13T10:27:19Z</time>
      </trkpt>
      <trkpt lat="45.91664" lon="4.62535">
        <ele>332.2</ele>
        <time>2020-12-13T10:27:20Z</time>
      </trkpt>
      <trkpt lat="45.91663" lon="4.62533">
        <ele>332.2</ele>
        <time>2020-12-13T10:29:36Z</time>
      </trkpt>
      <trkpt lat="45.91663" lon="4.62532">
        <ele>332.1</ele>
        <time>2020-12-13T10:29:37Z</time>
      </trkpt>
      <trkpt lat="45.91662" lon="4.6253">
        <ele>332.1</ele>
        <time>2020-12-13T10:29:38Z</time>
      </trkpt>
      <trkpt lat="45.91662" lon="4.62529">
        <ele>332.1</ele>
        <time>2020-12-13T10:29:39Z</time>
      </trkpt>
      <trkpt lat="45.91657" lon="4.62531">
        <ele>332</ele>
        <time>2020-12-13T10:29:40Z</time>
      </trkpt>
      <trkpt lat="45.91658" lon="4.62531">
        <ele>332</ele>
        <time>2020-12-13T10:29:41Z</time>
      </trkpt>
      <trkpt lat="45.91657" lon="4.6253">
        <ele>332</ele>
        <time>2020-12-13T10:29:42Z</time>
      </trkpt>
      <trkpt lat="45.91656" lon="4.6253">
        <ele>332</ele>
        <time>2020-12-13T10:29:43Z</time>
      </trkpt>
      <trkpt lat="45.91656" lon="4.6253">
        <ele>332</ele>
        <time>2020-12-13T10:29:44Z</time>
      </trkpt>
      <trkpt lat="45.91656" lon="4.62529">
        <ele>332</ele>
        <time>2020-12-13T10:29:45Z</time>
      </trkpt>
      <trkpt lat="45.91656" lon="4.62529">
        <ele>332</ele>
        <time>2020-12-13T10:29:46Z</time>
      </trkpt>
      <trkpt lat="45.91656" lon="4.62529">
        <ele>332</ele>
        <time>2020-12-13T10:29:47Z</time>
      </trkpt>
      <trkpt lat="45.91654" lon="4.62529">
        <ele>331.9</ele>
        <time>2020-12-13T10:29:48Z</time>
      </trkpt>
      <trkpt lat="45.91653" lon="4.62527">
        <ele>331.9</ele>
        <time>2020-12-13T10:29:49Z</time>
      </trkpt>
      <trkpt lat="45.91652" lon="4.62526">
        <ele>331.9</ele>
        <time>2020-12-13T10:29:50Z</time>
      </trkpt>
      <trkpt lat="45.91651" lon="4.62524">
        <ele>331.7</ele>
        <time>2020-12-13T10:29:51Z</time>
      </trkpt>
      <trkpt lat="45.91649" lon="4.62523">
        <ele>331.7</ele>
        <time>2020-12-13T10:29:52Z</time>
      </trkpt>
      <trkpt lat="45.91648" lon="4.62522">
        <ele>331.7</ele>
        <time>2020-12-13T10:29:54Z</time>
      </trkpt>
      <trkpt lat="45.91648" lon="4.6252">
        <ele>331.7</ele>
        <time>2020-12-13T10:29:55Z</time>
      </trkpt>
      <trkpt lat="45.91648" lon="4.6252">
        <ele>331.5</ele>
        <time>2020-12-13T10:29:56Z</time>
      </trkpt>
      <trkpt lat="45.91647" lon="4.62518">
        <ele>331.5</ele>
        <time>2020-12-13T10:29:57Z</time>
      </trkpt>
      <trkpt lat="45.91646" lon="4.62518">
        <ele>331.6</ele>
        <time>2020-12-13T10:29:58Z</time>
      </trkpt>
      <trkpt lat="45.91646" lon="4.62517">
        <ele>331.6</ele>
        <time>2020-12-13T10:29:59Z</time>
      </trkpt>
      <trkpt lat="45.91646" lon="4.62517">
        <ele>331.6</ele>
        <time>2020-12-13T10:30:00Z</time>
      </trkpt>
      <trkpt lat="45.91647" lon="4.62517">
        <ele>331.6</ele>
        <time>2020-12-13T10:30:01Z</time>
      </trkpt>
      <trkpt lat="45.91647" lon="4.62518">
        <ele>331.5</ele>
        <time>2020-12-13T10:30:02Z</time>
      </trkpt>
      <trkpt lat="45.91647" lon="4.6252">
        <ele>331.5</ele>
        <time>2020-12-13T10:30:03Z</time>
      </trkpt>
      <trkpt lat="45.91648" lon="4.62522">
        <ele>331.7</ele>
        <time>2020-12-13T10:30:04Z</time>
      </trkpt>
      <trkpt lat="45.91648" lon="4.62525">
        <ele>331.9</ele>
        <time>2020-12-13T10:30:05Z</time>
      </trkpt>
      <trkpt lat="45.91648" lon="4.62526">
        <ele>331.9</ele>
        <time>2020-12-13T10:30:06Z</time>
      </trkpt>
      <trkpt lat="45.91649" lon="4.62523">
        <ele>331.7</ele>
        <time>2020-12-13T10:30:56Z</time>
      </trkpt>
      <trkpt lat="45.91647" lon="4.62521">
        <ele>331.7</ele>
        <time>2020-12-13T10:30:57Z</time>
      </trkpt>
      <trkpt lat="45.91647" lon="4.6252">
        <ele>331.6</ele>
        <time>2020-12-13T10:30:58Z</time>
      </trkpt>
      <trkpt lat="45.91646" lon="4.62519">
        <ele>331.6</ele>
        <time>2020-12-13T10:30:59Z</time>
      </trkpt>
      <trkpt lat="45.91644" lon="4.62517">
        <ele>331.6</ele>
        <time>2020-12-13T10:31:00Z</time>
      </trkpt>
      <trkpt lat="45.91643" lon="4.62517">
        <ele>331.6</ele>
        <time>2020-12-13T10:31:01Z</time>
      </trkpt>
      <trkpt lat="45.91643" lon="4.62517">
        <ele>331.6</ele>
        <time>2020-12-13T10:31:02Z</time>
      </trkpt>
      <trkpt lat="45.91641" lon="4.62516">
        <ele>331.6</ele>
        <time>2020-12-13T10:31:03Z</time>
      </trkpt>
      <trkpt lat="45.91641" lon="4.62515">
        <ele>331.4</ele>
        <time>2020-12-13T10:31:04Z</time>
      </trkpt>
      <trkpt lat="45.9164" lon="4.62514">
        <ele>331.5</ele>
        <time>2020-12-13T10:31:05Z</time>
      </trkpt>
      <trkpt lat="45.9164" lon="4.62513">
        <ele>331.5</ele>
        <time>2020-12-13T10:31:06Z</time>
      </trkpt>
      <trkpt lat="45.91639" lon="4.62512">
        <ele>331.5</ele>
        <time>2020-12-13T10:31:07Z</time>
      </trkpt>
      <trkpt lat="45.91637" lon="4.62511">
        <ele>331.4</ele>
        <time>2020-12-13T10:31:08Z</time>
      </trkpt>
      <trkpt lat="45.91637" lon="4.6251">
        <ele>331.3</ele>
        <time>2020-12-13T10:31:09Z</time>
      </trkpt>
      <trkpt lat="45.91636" lon="4.62509">
        <ele>331.3</ele>
        <time>2020-12-13T10:31:10Z</time>
      </trkpt>
      <trkpt lat="45.91635" lon="4.62509">
        <ele>331.3</ele>
        <time>2020-12-13T10:31:11Z</time>
      </trkpt>
      <trkpt lat="45.91634" lon="4.62506">
        <ele>331.1</ele>
        <time>2020-12-13T10:31:12Z</time>
      </trkpt>
      <trkpt lat="45.91633" lon="4.62506">
        <ele>331.1</ele>
        <time>2020-12-13T10:31:13Z</time>
      </trkpt>
      <trkpt lat="45.91633" lon="4.62505">
        <ele>331.1</ele>
        <time>2020-12-13T10:31:14Z</time>
      </trkpt>
      <trkpt lat="45.91632" lon="4.62504">
        <ele>331.2</ele>
        <time>2020-12-13T10:31:15Z</time>
      </trkpt>
      <trkpt lat="45.9163" lon="4.62504">
        <ele>331.2</ele>
        <time>2020-12-13T10:31:16Z</time>
      </trkpt>
      <trkpt lat="45.9163" lon="4.62504">
        <ele>331.2</ele>
        <time>2020-12-13T10:31:17Z</time>
      </trkpt>
      <trkpt lat="45.91629" lon="4.62504">
        <ele>331.2</ele>
        <time>2020-12-13T10:31:18Z</time>
      </trkpt>
      <trkpt lat="45.91629" lon="4.62504">
        <ele>331.2</ele>
        <time>2020-12-13T10:31:19Z</time>
      </trkpt>
      <trkpt lat="45.91629" lon="4.62504">
        <ele>331.3</ele>
        <time>2020-12-13T10:31:20Z</time>
      </trkpt>
      <trkpt lat="45.91627" lon="4.62502">
        <ele>331.1</ele>
        <time>2020-12-13T10:31:21Z</time>
      </trkpt>
      <trkpt lat="45.91627" lon="4.62501">
        <ele>331.1</ele>
        <time>2020-12-13T10:31:22Z</time>
      </trkpt>
      <trkpt lat="45.91626" lon="4.625">
        <ele>331.2</ele>
        <time>2020-12-13T10:31:23Z</time>
      </trkpt>
      <trkpt lat="45.91624" lon="4.62499">
        <ele>330.9</ele>
        <time>2020-12-13T10:31:24Z</time>
      </trkpt>
      <trkpt lat="45.91623" lon="4.62499">
        <ele>331.2</ele>
        <time>2020-12-13T10:31:25Z</time>
      </trkpt>
      <trkpt lat="45.91623" lon="4.62499">
        <ele>331.2</ele>
        <time>2020-12-13T10:31:26Z</time>
      </trkpt>
      <trkpt lat="45.91622" lon="4.62499">
        <ele>331.2</ele>
        <time>2020-12-13T10:31:27Z</time>
      </trkpt>
      <trkpt lat="45.91621" lon="4.62497">
        <ele>331</ele>
        <time>2020-12-13T10:31:28Z</time>
      </trkpt>
      <trkpt lat="45.9162" lon="4.62497">
        <ele>331</ele>
        <time>2020-12-13T10:31:29Z</time>
      </trkpt>
      <trkpt lat="45.9162" lon="4.62497">
        <ele>331</ele>
        <time>2020-12-13T10:31:30Z</time>
      </trkpt>
      <trkpt lat="45.9162" lon="4.62496">
        <ele>331</ele>
        <time>2020-12-13T10:31:31Z</time>
      </trkpt>
      <trkpt lat="45.91619" lon="4.62494">
        <ele>330.8</ele>
        <time>2020-12-13T10:31:32Z</time>
      </trkpt>
      <trkpt lat="45.91618" lon="4.62494">
        <ele>330.8</ele>
        <time>2020-12-13T10:31:33Z</time>
      </trkpt>
      <trkpt lat="45.91617" lon="4.62495">
        <ele>331.1</ele>
        <time>2020-12-13T10:31:34Z</time>
      </trkpt>
      <trkpt lat="45.91616" lon="4.62495">
        <ele>331.1</ele>
        <time>2020-12-13T10:31:35Z</time>
      </trkpt>
      <trkpt lat="45.91615" lon="4.62495">
        <ele>331.1</ele>
        <time>2020-12-13T10:31:36Z</time>
      </trkpt>
      <trkpt lat="45.91614" lon="4.62494">
        <ele>331</ele>
        <time>2020-12-13T10:31:37Z</time>
      </trkpt>
      <trkpt lat="45.91613" lon="4.62492">
        <ele>331</ele>
        <time>2020-12-13T10:31:38Z</time>
      </trkpt>
      <trkpt lat="45.91611" lon="4.62491">
        <ele>331</ele>
        <time>2020-12-13T10:31:39Z</time>
      </trkpt>
      <trkpt lat="45.91611" lon="4.6249">
        <ele>331</ele>
        <time>2020-12-13T10:31:40Z</time>
      </trkpt>
      <trkpt lat="45.9161" lon="4.62487">
        <ele>331</ele>
        <time>2020-12-13T10:31:41Z</time>
      </trkpt>
      <trkpt lat="45.91609" lon="4.62485">
        <ele>330.8</ele>
        <time>2020-12-13T10:31:42Z</time>
      </trkpt>
      <trkpt lat="45.91608" lon="4.62484">
        <ele>330.9</ele>
        <time>2020-12-13T10:31:43Z</time>
      </trkpt>
      <trkpt lat="45.91607" lon="4.62483">
        <ele>330.9</ele>
        <time>2020-12-13T10:31:44Z</time>
      </trkpt>
      <trkpt lat="45.91605" lon="4.6248">
        <ele>330.8</ele>
        <time>2020-12-13T10:31:46Z</time>
      </trkpt>
      <trkpt lat="45.91604" lon="4.62479">
        <ele>330.8</ele>
        <time>2020-12-13T10:31:47Z</time>
      </trkpt>
      <trkpt lat="45.91603" lon="4.62478">
        <ele>330.8</ele>
        <time>2020-12-13T10:31:48Z</time>
      </trkpt>
      <trkpt lat="45.91602" lon="4.62477">
        <ele>330.8</ele>
        <time>2020-12-13T10:31:49Z</time>
      </trkpt>
      <trkpt lat="45.91602" lon="4.62477">
        <ele>330.8</ele>
        <time>2020-12-13T10:31:50Z</time>
      </trkpt>
      <trkpt lat="45.91601" lon="4.62475">
        <ele>330.8</ele>
        <time>2020-12-13T10:31:51Z</time>
      </trkpt>
      <trkpt lat="45.916" lon="4.62472">
        <ele>330.5</ele>
        <time>2020-12-13T10:31:52Z</time>
      </trkpt>
      <trkpt lat="45.916" lon="4.62471">
        <ele>330.5</ele>
        <time>2020-12-13T10:31:53Z</time>
      </trkpt>
      <trkpt lat="45.91599" lon="4.6247">
        <ele>330.5</ele>
        <time>2020-12-13T10:31:54Z</time>
      </trkpt>
      <trkpt lat="45.91599" lon="4.62469">
        <ele>330.7</ele>
        <time>2020-12-13T10:31:55Z</time>
      </trkpt>
      <trkpt lat="45.91598" lon="4.62468">
        <ele>330.5</ele>
        <time>2020-12-13T10:31:56Z</time>
      </trkpt>
      <trkpt lat="45.91597" lon="4.62467">
        <ele>330.5</ele>
        <time>2020-12-13T10:31:57Z</time>
      </trkpt>
      <trkpt lat="45.91596" lon="4.62464">
        <ele>330.3</ele>
        <time>2020-12-13T10:31:58Z</time>
      </trkpt>
      <trkpt lat="45.91596" lon="4.62463">
        <ele>330.5</ele>
        <time>2020-12-13T10:31:59Z</time>
      </trkpt>
      <trkpt lat="45.91595" lon="4.62461">
        <ele>330.5</ele>
        <time>2020-12-13T10:32:00Z</time>
      </trkpt>
      <trkpt lat="45.91595" lon="4.62458">
        <ele>330.4</ele>
        <time>2020-12-13T10:32:01Z</time>
      </trkpt>
      <trkpt lat="45.91595" lon="4.62457">
        <ele>330.4</ele>
        <time>2020-12-13T10:32:02Z</time>
      </trkpt>
      <trkpt lat="45.91594" lon="4.62455">
        <ele>330.3</ele>
        <time>2020-12-13T10:32:03Z</time>
      </trkpt>
      <trkpt lat="45.91593" lon="4.62453">
        <ele>330.4</ele>
        <time>2020-12-13T10:32:04Z</time>
      </trkpt>
      <trkpt lat="45.91592" lon="4.62451">
        <ele>330.3</ele>
        <time>2020-12-13T10:32:05Z</time>
      </trkpt>
      <trkpt lat="45.91592" lon="4.6245">
        <ele>330.3</ele>
        <time>2020-12-13T10:32:06Z</time>
      </trkpt>
      <trkpt lat="45.91591" lon="4.62448">
        <ele>330.3</ele>
        <time>2020-12-13T10:32:07Z</time>
      </trkpt>
      <trkpt lat="45.91591" lon="4.62447">
        <ele>330.3</ele>
        <time>2020-12-13T10:32:08Z</time>
      </trkpt>
      <trkpt lat="45.91589" lon="4.62445">
        <ele>330.4</ele>
        <time>2020-12-13T10:32:09Z</time>
      </trkpt>
      <trkpt lat="45.91589" lon="4.62444">
        <ele>330.4</ele>
        <time>2020-12-13T10:32:10Z</time>
      </trkpt>
      <trkpt lat="45.91588" lon="4.62442">
        <ele>330.4</ele>
        <time>2020-12-13T10:32:11Z</time>
      </trkpt>
      <trkpt lat="45.91587" lon="4.62441">
        <ele>330.5</ele>
        <time>2020-12-13T10:32:12Z</time>
      </trkpt>
      <trkpt lat="45.91586" lon="4.62438">
        <ele>330.4</ele>
        <time>2020-12-13T10:32:13Z</time>
      </trkpt>
      <trkpt lat="45.91585" lon="4.62438">
        <ele>330.4</ele>
        <time>2020-12-13T10:32:14Z</time>
      </trkpt>
      <trkpt lat="45.91585" lon="4.62437">
        <ele>330.4</ele>
        <time>2020-12-13T10:32:15Z</time>
      </trkpt>
      <trkpt lat="45.91584" lon="4.62437">
        <ele>330.4</ele>
        <time>2020-12-13T10:32:16Z</time>
      </trkpt>
      <trkpt lat="45.91583" lon="4.62435">
        <ele>330.6</ele>
        <time>2020-12-13T10:32:17Z</time>
      </trkpt>
      <trkpt lat="45.91583" lon="4.62435">
        <ele>330.6</ele>
        <time>2020-12-13T10:32:18Z</time>
      </trkpt>
      <trkpt lat="45.91582" lon="4.62434">
        <ele>330.6</ele>
        <time>2020-12-13T10:32:19Z</time>
      </trkpt>
      <trkpt lat="45.91581" lon="4.62433">
        <ele>330.6</ele>
        <time>2020-12-13T10:32:20Z</time>
      </trkpt>
      <trkpt lat="45.91581" lon="4.62432">
        <ele>330.7</ele>
        <time>2020-12-13T10:32:21Z</time>
      </trkpt>
      <trkpt lat="45.9158" lon="4.62431">
        <ele>330.7</ele>
        <time>2020-12-13T10:32:22Z</time>
      </trkpt>
      <trkpt lat="45.91579" lon="4.6243">
        <ele>330.7</ele>
        <time>2020-12-13T10:32:23Z</time>
      </trkpt>
      <trkpt lat="45.91578" lon="4.62429">
        <ele>330.9</ele>
        <time>2020-12-13T10:32:24Z</time>
      </trkpt>
      <trkpt lat="45.91577" lon="4.62428">
        <ele>330.9</ele>
        <time>2020-12-13T10:32:25Z</time>
      </trkpt>
      <trkpt lat="45.91576" lon="4.62427">
        <ele>330.9</ele>
        <time>2020-12-13T10:32:26Z</time>
      </trkpt>
      <trkpt lat="45.91576" lon="4.62427">
        <ele>330.9</ele>
        <time>2020-12-13T10:32:27Z</time>
      </trkpt>
      <trkpt lat="45.91574" lon="4.62426">
        <ele>331</ele>
        <time>2020-12-13T10:32:28Z</time>
      </trkpt>
      <trkpt lat="45.91574" lon="4.62424">
        <ele>331</ele>
        <time>2020-12-13T10:32:29Z</time>
      </trkpt>
      <trkpt lat="45.91573" lon="4.62423">
        <ele>331</ele>
        <time>2020-12-13T10:32:30Z</time>
      </trkpt>
      <trkpt lat="45.91573" lon="4.62422">
        <ele>331</ele>
        <time>2020-12-13T10:32:31Z</time>
      </trkpt>
      <trkpt lat="45.91572" lon="4.6242">
        <ele>331</ele>
        <time>2020-12-13T10:32:32Z</time>
      </trkpt>
      <trkpt lat="45.91572" lon="4.62419">
        <ele>331</ele>
        <time>2020-12-13T10:32:33Z</time>
      </trkpt>
      <trkpt lat="45.91572" lon="4.62419">
        <ele>331</ele>
        <time>2020-12-13T10:32:34Z</time>
      </trkpt>
      <trkpt lat="45.91572" lon="4.62419">
        <ele>331</ele>
        <time>2020-12-13T10:32:35Z</time>
      </trkpt>
      <trkpt lat="45.91572" lon="4.62418">
        <ele>330.9</ele>
        <time>2020-12-13T10:32:36Z</time>
      </trkpt>
      <trkpt lat="45.91573" lon="4.62417">
        <ele>330.8</ele>
        <time>2020-12-13T10:32:37Z</time>
      </trkpt>
      <trkpt lat="45.9157" lon="4.62414">
        <ele>331</ele>
        <time>2020-12-13T10:32:45Z</time>
      </trkpt>
      <trkpt lat="45.91569" lon="4.62413">
        <ele>331.1</ele>
        <time>2020-12-13T10:32:46Z</time>
      </trkpt>
      <trkpt lat="45.91568" lon="4.62413">
        <ele>331.1</ele>
        <time>2020-12-13T10:32:47Z</time>
      </trkpt>
      <trkpt lat="45.91567" lon="4.62412">
        <ele>331.1</ele>
        <time>2020-12-13T10:32:48Z</time>
      </trkpt>
      <trkpt lat="45.91566" lon="4.62411">
        <ele>331.2</ele>
        <time>2020-12-13T10:32:49Z</time>
      </trkpt>
      <trkpt lat="45.91565" lon="4.6241">
        <ele>331.2</ele>
        <time>2020-12-13T10:32:50Z</time>
      </trkpt>
      <trkpt lat="45.91564" lon="4.62409">
        <ele>331.2</ele>
        <time>2020-12-13T10:32:51Z</time>
      </trkpt>
      <trkpt lat="45.91563" lon="4.62408">
        <ele>331.3</ele>
        <time>2020-12-13T10:32:52Z</time>
      </trkpt>
      <trkpt lat="45.91561" lon="4.62406">
        <ele>331.3</ele>
        <time>2020-12-13T10:32:53Z</time>
      </trkpt>
      <trkpt lat="45.9156" lon="4.62405">
        <ele>331.4</ele>
        <time>2020-12-13T10:32:54Z</time>
      </trkpt>
      <trkpt lat="45.91559" lon="4.62404">
        <ele>331.4</ele>
        <time>2020-12-13T10:32:55Z</time>
      </trkpt>
      <trkpt lat="45.91559" lon="4.62403">
        <ele>331.4</ele>
        <time>2020-12-13T10:32:56Z</time>
      </trkpt>
      <trkpt lat="45.91557" lon="4.62402">
        <ele>331.5</ele>
        <time>2020-12-13T10:32:57Z</time>
      </trkpt>
      <trkpt lat="45.91556" lon="4.62401">
        <ele>331.5</ele>
        <time>2020-12-13T10:32:58Z</time>
      </trkpt>
      <trkpt lat="45.91554" lon="4.624">
        <ele>331.5</ele>
        <time>2020-12-13T10:32:59Z</time>
      </trkpt>
      <trkpt lat="45.91553" lon="4.62399">
        <ele>331.6</ele>
        <time>2020-12-13T10:33:00Z</time>
      </trkpt>
      <trkpt lat="45.91553" lon="4.62398">
        <ele>331.6</ele>
        <time>2020-12-13T10:33:01Z</time>
      </trkpt>
      <trkpt lat="45.91551" lon="4.62397">
        <ele>331.6</ele>
        <time>2020-12-13T10:33:02Z</time>
      </trkpt>
      <trkpt lat="45.9155" lon="4.62396">
        <ele>331.7</ele>
        <time>2020-12-13T10:33:03Z</time>
      </trkpt>
      <trkpt lat="45.91549" lon="4.62395">
        <ele>331.7</ele>
        <time>2020-12-13T10:33:04Z</time>
      </trkpt>
      <trkpt lat="45.91548" lon="4.62394">
        <ele>331.8</ele>
        <time>2020-12-13T10:33:05Z</time>
      </trkpt>
      <trkpt lat="45.91548" lon="4.62393">
        <ele>331.8</ele>
        <time>2020-12-13T10:33:06Z</time>
      </trkpt>
      <trkpt lat="45.91547" lon="4.62392">
        <ele>331.8</ele>
        <time>2020-12-13T10:33:07Z</time>
      </trkpt>
      <trkpt lat="45.91546" lon="4.62391">
        <ele>331.9</ele>
        <time>2020-12-13T10:33:08Z</time>
      </trkpt>
      <trkpt lat="45.91546" lon="4.6239">
        <ele>331.9</ele>
        <time>2020-12-13T10:33:09Z</time>
      </trkpt>
      <trkpt lat="45.91545" lon="4.6239">
        <ele>332</ele>
        <time>2020-12-13T10:33:10Z</time>
      </trkpt>
      <trkpt lat="45.91543" lon="4.62388">
        <ele>332</ele>
        <time>2020-12-13T10:33:11Z</time>
      </trkpt>
      <trkpt lat="45.91542" lon="4.62387">
        <ele>332.1</ele>
        <time>2020-12-13T10:33:12Z</time>
      </trkpt>
      <trkpt lat="45.91541" lon="4.62386">
        <ele>332.1</ele>
        <time>2020-12-13T10:33:13Z</time>
      </trkpt>
      <trkpt lat="45.9154" lon="4.62385">
        <ele>332.1</ele>
        <time>2020-12-13T10:33:14Z</time>
      </trkpt>
      <trkpt lat="45.91539" lon="4.62384">
        <ele>332.2</ele>
        <time>2020-12-13T10:33:15Z</time>
      </trkpt>
      <trkpt lat="45.91537" lon="4.62383">
        <ele>332.2</ele>
        <time>2020-12-13T10:33:16Z</time>
      </trkpt>
      <trkpt lat="45.91536" lon="4.62382">
        <ele>332.3</ele>
        <time>2020-12-13T10:33:17Z</time>
      </trkpt>
      <trkpt lat="45.91535" lon="4.62382">
        <ele>332.4</ele>
        <time>2020-12-13T10:33:18Z</time>
      </trkpt>
      <trkpt lat="45.91534" lon="4.62382">
        <ele>332.4</ele>
        <time>2020-12-13T10:33:19Z</time>
      </trkpt>
      <trkpt lat="45.91533" lon="4.6238">
        <ele>332.6</ele>
        <time>2020-12-13T10:33:20Z</time>
      </trkpt>
      <trkpt lat="45.91532" lon="4.6238">
        <ele>332.6</ele>
        <time>2020-12-13T10:33:21Z</time>
      </trkpt>
      <trkpt lat="45.91531" lon="4.62379">
        <ele>332.6</ele>
        <time>2020-12-13T10:33:22Z</time>
      </trkpt>
      <trkpt lat="45.91529" lon="4.62377">
        <ele>332.8</ele>
        <time>2020-12-13T10:33:23Z</time>
      </trkpt>
      <trkpt lat="45.91529" lon="4.62376">
        <ele>332.8</ele>
        <time>2020-12-13T10:33:24Z</time>
      </trkpt>
      <trkpt lat="45.91528" lon="4.62375">
        <ele>332.8</ele>
        <time>2020-12-13T10:33:25Z</time>
      </trkpt>
      <trkpt lat="45.91526" lon="4.62375">
        <ele>332.9</ele>
        <time>2020-12-13T10:33:26Z</time>
      </trkpt>
      <trkpt lat="45.91524" lon="4.62373">
        <ele>333.2</ele>
        <time>2020-12-13T10:33:27Z</time>
      </trkpt>
      <trkpt lat="45.91523" lon="4.62373">
        <ele>333.2</ele>
        <time>2020-12-13T10:33:28Z</time>
      </trkpt>
      <trkpt lat="45.91523" lon="4.62372">
        <ele>333.2</ele>
        <time>2020-12-13T10:33:29Z</time>
      </trkpt>
      <trkpt lat="45.91521" lon="4.62371">
        <ele>333.2</ele>
        <time>2020-12-13T10:33:30Z</time>
      </trkpt>
      <trkpt lat="45.9152" lon="4.6237">
        <ele>333.3</ele>
        <time>2020-12-13T10:33:31Z</time>
      </trkpt>
      <trkpt lat="45.91518" lon="4.6237">
        <ele>333.5</ele>
        <time>2020-12-13T10:33:32Z</time>
      </trkpt>
      <trkpt lat="45.91517" lon="4.62368">
        <ele>333.6</ele>
        <time>2020-12-13T10:33:33Z</time>
      </trkpt>
      <trkpt lat="45.91516" lon="4.62368">
        <ele>333.6</ele>
        <time>2020-12-13T10:33:34Z</time>
      </trkpt>
      <trkpt lat="45.91515" lon="4.62368">
        <ele>333.8</ele>
        <time>2020-12-13T10:33:35Z</time>
      </trkpt>
      <trkpt lat="45.91514" lon="4.62367">
        <ele>333.8</ele>
        <time>2020-12-13T10:33:36Z</time>
      </trkpt>
      <trkpt lat="45.91513" lon="4.62367">
        <ele>333.8</ele>
        <time>2020-12-13T10:33:37Z</time>
      </trkpt>
      <trkpt lat="45.91512" lon="4.62367">
        <ele>333.9</ele>
        <time>2020-12-13T10:33:38Z</time>
      </trkpt>
      <trkpt lat="45.91511" lon="4.62367">
        <ele>333.9</ele>
        <time>2020-12-13T10:33:39Z</time>
      </trkpt>
      <trkpt lat="45.9151" lon="4.62366">
        <ele>333.9</ele>
        <time>2020-12-13T10:33:40Z</time>
      </trkpt>
      <trkpt lat="45.91508" lon="4.62366">
        <ele>334</ele>
        <time>2020-12-13T10:33:41Z</time>
      </trkpt>
      <trkpt lat="45.91507" lon="4.62366">
        <ele>334</ele>
        <time>2020-12-13T10:33:42Z</time>
      </trkpt>
      <trkpt lat="45.91507" lon="4.62366">
        <ele>334</ele>
        <time>2020-12-13T10:33:43Z</time>
      </trkpt>
      <trkpt lat="45.91505" lon="4.62365">
        <ele>334.3</ele>
        <time>2020-12-13T10:33:44Z</time>
      </trkpt>
      <trkpt lat="45.91504" lon="4.62365">
        <ele>334.3</ele>
        <time>2020-12-13T10:33:45Z</time>
      </trkpt>
      <trkpt lat="45.91503" lon="4.62365">
        <ele>334.5</ele>
        <time>2020-12-13T10:33:46Z</time>
      </trkpt>
      <trkpt lat="45.91502" lon="4.62365">
        <ele>334.5</ele>
        <time>2020-12-13T10:33:47Z</time>
      </trkpt>
      <trkpt lat="45.91501" lon="4.62364">
        <ele>334.5</ele>
        <time>2020-12-13T10:33:48Z</time>
      </trkpt>
      <trkpt lat="45.915" lon="4.62363">
        <ele>334.6</ele>
        <time>2020-12-13T10:33:49Z</time>
      </trkpt>
      <trkpt lat="45.91499" lon="4.62361">
        <ele>334.6</ele>
        <time>2020-12-13T10:33:50Z</time>
      </trkpt>
      <trkpt lat="45.91497" lon="4.62361">
        <ele>334.9</ele>
        <time>2020-12-13T10:33:52Z</time>
      </trkpt>
      <trkpt lat="45.91496" lon="4.6236">
        <ele>334.9</ele>
        <time>2020-12-13T10:33:53Z</time>
      </trkpt>
      <trkpt lat="45.91495" lon="4.6236">
        <ele>334.9</ele>
        <time>2020-12-13T10:33:54Z</time>
      </trkpt>
      <trkpt lat="45.91494" lon="4.62358">
        <ele>335.1</ele>
        <time>2020-12-13T10:33:55Z</time>
      </trkpt>
      <trkpt lat="45.91493" lon="4.62358">
        <ele>335.1</ele>
        <time>2020-12-13T10:33:56Z</time>
      </trkpt>
      <trkpt lat="45.91491" lon="4.62356">
        <ele>335.3</ele>
        <time>2020-12-13T10:33:57Z</time>
      </trkpt>
      <trkpt lat="45.9149" lon="4.62355">
        <ele>335.3</ele>
        <time>2020-12-13T10:33:58Z</time>
      </trkpt>
      <trkpt lat="45.91489" lon="4.62354">
        <ele>335.3</ele>
        <time>2020-12-13T10:33:59Z</time>
      </trkpt>
      <trkpt lat="45.91488" lon="4.62354">
        <ele>335.5</ele>
        <time>2020-12-13T10:34:00Z</time>
      </trkpt>
      <trkpt lat="45.91487" lon="4.62354">
        <ele>335.5</ele>
        <time>2020-12-13T10:34:01Z</time>
      </trkpt>
      <trkpt lat="45.91486" lon="4.62353">
        <ele>335.5</ele>
        <time>2020-12-13T10:34:02Z</time>
      </trkpt>
      <trkpt lat="45.91484" lon="4.62352">
        <ele>335.7</ele>
        <time>2020-12-13T10:34:03Z</time>
      </trkpt>
      <trkpt lat="45.91483" lon="4.62351">
        <ele>335.7</ele>
        <time>2020-12-13T10:34:04Z</time>
      </trkpt>
      <trkpt lat="45.91482" lon="4.6235">
        <ele>335.8</ele>
        <time>2020-12-13T10:34:05Z</time>
      </trkpt>
      <trkpt lat="45.91481" lon="4.6235">
        <ele>335.8</ele>
        <time>2020-12-13T10:34:06Z</time>
      </trkpt>
      <trkpt lat="45.9148" lon="4.62349">
        <ele>335.8</ele>
        <time>2020-12-13T10:34:07Z</time>
      </trkpt>
      <trkpt lat="45.91479" lon="4.62348">
        <ele>336</ele>
        <time>2020-12-13T10:34:08Z</time>
      </trkpt>
      <trkpt lat="45.91477" lon="4.62347">
        <ele>336</ele>
        <time>2020-12-13T10:34:09Z</time>
      </trkpt>
      <trkpt lat="45.91476" lon="4.62346">
        <ele>336.1</ele>
        <time>2020-12-13T10:34:10Z</time>
      </trkpt>
      <trkpt lat="45.91475" lon="4.62345">
        <ele>336.1</ele>
        <time>2020-12-13T10:34:11Z</time>
      </trkpt>
      <trkpt lat="45.91474" lon="4.62344">
        <ele>336.1</ele>
        <time>2020-12-13T10:34:12Z</time>
      </trkpt>
      <trkpt lat="45.91473" lon="4.62343">
        <ele>336.3</ele>
        <time>2020-12-13T10:34:13Z</time>
      </trkpt>
      <trkpt lat="45.91473" lon="4.62343">
        <ele>336.3</ele>
        <time>2020-12-13T10:34:14Z</time>
      </trkpt>
      <trkpt lat="45.91471" lon="4.62342">
        <ele>336.3</ele>
        <time>2020-12-13T10:34:15Z</time>
      </trkpt>
      <trkpt lat="45.91469" lon="4.6234">
        <ele>336.4</ele>
        <time>2020-12-13T10:34:16Z</time>
      </trkpt>
      <trkpt lat="45.91468" lon="4.6234">
        <ele>336.4</ele>
        <time>2020-12-13T10:34:17Z</time>
      </trkpt>
      <trkpt lat="45.91468" lon="4.6234">
        <ele>336.4</ele>
        <time>2020-12-13T10:34:18Z</time>
      </trkpt>
      <trkpt lat="45.91467" lon="4.6234">
        <ele>336.5</ele>
        <time>2020-12-13T10:34:19Z</time>
      </trkpt>
      <trkpt lat="45.91466" lon="4.6234">
        <ele>336.5</ele>
        <time>2020-12-13T10:34:20Z</time>
      </trkpt>
      <trkpt lat="45.91465" lon="4.6234">
        <ele>336.5</ele>
        <time>2020-12-13T10:34:21Z</time>
      </trkpt>
      <trkpt lat="45.91464" lon="4.62339">
        <ele>336.5</ele>
        <time>2020-12-13T10:34:22Z</time>
      </trkpt>
      <trkpt lat="45.91462" lon="4.62338">
        <ele>336.5</ele>
        <time>2020-12-13T10:34:23Z</time>
      </trkpt>
      <trkpt lat="45.9146" lon="4.62337">
        <ele>336.6</ele>
        <time>2020-12-13T10:34:24Z</time>
      </trkpt>
      <trkpt lat="45.91458" lon="4.62336">
        <ele>336.6</ele>
        <time>2020-12-13T10:34:25Z</time>
      </trkpt>
      <trkpt lat="45.91456" lon="4.62335">
        <ele>336.6</ele>
        <time>2020-12-13T10:34:26Z</time>
      </trkpt>
      <trkpt lat="45.91455" lon="4.62334">
        <ele>336.7</ele>
        <time>2020-12-13T10:34:27Z</time>
      </trkpt>
      <trkpt lat="45.91454" lon="4.62333">
        <ele>336.7</ele>
        <time>2020-12-13T10:34:28Z</time>
      </trkpt>
      <trkpt lat="45.91453" lon="4.62333">
        <ele>336.7</ele>
        <time>2020-12-13T10:34:29Z</time>
      </trkpt>
      <trkpt lat="45.91452" lon="4.62333">
        <ele>336.7</ele>
        <time>2020-12-13T10:34:30Z</time>
      </trkpt>
      <trkpt lat="45.9145" lon="4.62332">
        <ele>336.7</ele>
        <time>2020-12-13T10:34:31Z</time>
      </trkpt>
      <trkpt lat="45.9145" lon="4.62333">
        <ele>336.7</ele>
        <time>2020-12-13T10:34:32Z</time>
      </trkpt>
      <trkpt lat="45.91449" lon="4.62333">
        <ele>336.7</ele>
        <time>2020-12-13T10:34:33Z</time>
      </trkpt>
      <trkpt lat="45.91447" lon="4.62333">
        <ele>336.7</ele>
        <time>2020-12-13T10:34:34Z</time>
      </trkpt>
      <trkpt lat="45.91446" lon="4.62335">
        <ele>336.7</ele>
        <time>2020-12-13T10:34:35Z</time>
      </trkpt>
      <trkpt lat="45.91445" lon="4.62335">
        <ele>336.8</ele>
        <time>2020-12-13T10:34:36Z</time>
      </trkpt>
      <trkpt lat="45.91444" lon="4.62336">
        <ele>336.8</ele>
        <time>2020-12-13T10:34:37Z</time>
      </trkpt>
      <trkpt lat="45.91444" lon="4.62338">
        <ele>336.8</ele>
        <time>2020-12-13T10:34:38Z</time>
      </trkpt>
      <trkpt lat="45.91443" lon="4.62339">
        <ele>336.8</ele>
        <time>2020-12-13T10:34:39Z</time>
      </trkpt>
      <trkpt lat="45.91442" lon="4.6234">
        <ele>336.8</ele>
        <time>2020-12-13T10:34:40Z</time>
      </trkpt>
      <trkpt lat="45.91441" lon="4.6234">
        <ele>336.8</ele>
        <time>2020-12-13T10:34:41Z</time>
      </trkpt>
      <trkpt lat="45.9144" lon="4.62341">
        <ele>336.8</ele>
        <time>2020-12-13T10:34:42Z</time>
      </trkpt>
      <trkpt lat="45.91438" lon="4.62341">
        <ele>336.8</ele>
        <time>2020-12-13T10:34:43Z</time>
      </trkpt>
      <trkpt lat="45.91437" lon="4.62342">
        <ele>336.9</ele>
        <time>2020-12-13T10:34:44Z</time>
      </trkpt>
      <trkpt lat="45.91436" lon="4.62343">
        <ele>336.9</ele>
        <time>2020-12-13T10:34:45Z</time>
      </trkpt>
      <trkpt lat="45.91434" lon="4.62344">
        <ele>336.9</ele>
        <time>2020-12-13T10:34:46Z</time>
      </trkpt>
      <trkpt lat="45.91433" lon="4.62344">
        <ele>336.9</ele>
        <time>2020-12-13T10:34:47Z</time>
      </trkpt>
      <trkpt lat="45.91432" lon="4.62345">
        <ele>336.9</ele>
        <time>2020-12-13T10:34:48Z</time>
      </trkpt>
      <trkpt lat="45.91431" lon="4.62345">
        <ele>336.9</ele>
        <time>2020-12-13T10:34:49Z</time>
      </trkpt>
      <trkpt lat="45.9143" lon="4.62346">
        <ele>336.9</ele>
        <time>2020-12-13T10:34:50Z</time>
      </trkpt>
      <trkpt lat="45.91427" lon="4.62346">
        <ele>337</ele>
        <time>2020-12-13T10:34:51Z</time>
      </trkpt>
      <trkpt lat="45.91426" lon="4.62346">
        <ele>337</ele>
        <time>2020-12-13T10:34:52Z</time>
      </trkpt>
      <trkpt lat="45.91425" lon="4.62347">
        <ele>337</ele>
        <time>2020-12-13T10:34:53Z</time>
      </trkpt>
      <trkpt lat="45.91423" lon="4.62347">
        <ele>337</ele>
        <time>2020-12-13T10:34:54Z</time>
      </trkpt>
      <trkpt lat="45.91422" lon="4.62347">
        <ele>337</ele>
        <time>2020-12-13T10:34:55Z</time>
      </trkpt>
      <trkpt lat="45.91421" lon="4.62348">
        <ele>337</ele>
        <time>2020-12-13T10:34:56Z</time>
      </trkpt>
      <trkpt lat="45.91419" lon="4.62348">
        <ele>337</ele>
        <time>2020-12-13T10:34:57Z</time>
      </trkpt>
      <trkpt lat="45.91419" lon="4.62348">
        <ele>337.1</ele>
        <time>2020-12-13T10:34:58Z</time>
      </trkpt>
      <trkpt lat="45.91417" lon="4.62349">
        <ele>337.1</ele>
        <time>2020-12-13T10:34:59Z</time>
      </trkpt>
      <trkpt lat="45.91416" lon="4.6235">
        <ele>337.1</ele>
        <time>2020-12-13T10:35:00Z</time>
      </trkpt>
      <trkpt lat="45.91414" lon="4.62351">
        <ele>337.1</ele>
        <time>2020-12-13T10:35:01Z</time>
      </trkpt>
      <trkpt lat="45.91413" lon="4.62352">
        <ele>337.1</ele>
        <time>2020-12-13T10:35:02Z</time>
      </trkpt>
      <trkpt lat="45.91412" lon="4.62352">
        <ele>337.1</ele>
        <time>2020-12-13T10:35:03Z</time>
      </trkpt>
      <trkpt lat="45.91411" lon="4.62352">
        <ele>337.1</ele>
        <time>2020-12-13T10:35:04Z</time>
      </trkpt>
      <trkpt lat="45.91409" lon="4.62352">
        <ele>337.1</ele>
        <time>2020-12-13T10:35:05Z</time>
      </trkpt>
      <trkpt lat="45.91407" lon="4.62352">
        <ele>337.2</ele>
        <time>2020-12-13T10:35:06Z</time>
      </trkpt>
      <trkpt lat="45.91406" lon="4.62352">
        <ele>337.2</ele>
        <time>2020-12-13T10:35:07Z</time>
      </trkpt>
      <trkpt lat="45.91405" lon="4.62353">
        <ele>337.2</ele>
        <time>2020-12-13T10:35:08Z</time>
      </trkpt>
      <trkpt lat="45.91404" lon="4.62353">
        <ele>337.2</ele>
        <time>2020-12-13T10:35:09Z</time>
      </trkpt>
      <trkpt lat="45.91403" lon="4.62354">
        <ele>337.2</ele>
        <time>2020-12-13T10:35:10Z</time>
      </trkpt>
      <trkpt lat="45.91402" lon="4.62354">
        <ele>337.2</ele>
        <time>2020-12-13T10:35:11Z</time>
      </trkpt>
      <trkpt lat="45.914" lon="4.62354">
        <ele>337.2</ele>
        <time>2020-12-13T10:35:12Z</time>
      </trkpt>
      <trkpt lat="45.91399" lon="4.62354">
        <ele>337.2</ele>
        <time>2020-12-13T10:35:13Z</time>
      </trkpt>
      <trkpt lat="45.91397" lon="4.62354">
        <ele>337.2</ele>
        <time>2020-12-13T10:35:14Z</time>
      </trkpt>
      <trkpt lat="45.91396" lon="4.62355">
        <ele>337.2</ele>
        <time>2020-12-13T10:35:15Z</time>
      </trkpt>
      <trkpt lat="45.91395" lon="4.62356">
        <ele>337.2</ele>
        <time>2020-12-13T10:35:16Z</time>
      </trkpt>
      <trkpt lat="45.91393" lon="4.62356">
        <ele>337.3</ele>
        <time>2020-12-13T10:35:17Z</time>
      </trkpt>
      <trkpt lat="45.91392" lon="4.62356">
        <ele>337.3</ele>
        <time>2020-12-13T10:35:18Z</time>
      </trkpt>
      <trkpt lat="45.91392" lon="4.62356">
        <ele>337.3</ele>
        <time>2020-12-13T10:35:19Z</time>
      </trkpt>
      <trkpt lat="45.9139" lon="4.62357">
        <ele>337.3</ele>
        <time>2020-12-13T10:35:20Z</time>
      </trkpt>
      <trkpt lat="45.91389" lon="4.62357">
        <ele>337.3</ele>
        <time>2020-12-13T10:35:21Z</time>
      </trkpt>
      <trkpt lat="45.91388" lon="4.62358">
        <ele>337.3</ele>
        <time>2020-12-13T10:35:22Z</time>
      </trkpt>
      <trkpt lat="45.91385" lon="4.62358">
        <ele>337.3</ele>
        <time>2020-12-13T10:35:23Z</time>
      </trkpt>
      <trkpt lat="45.91384" lon="4.62359">
        <ele>337.3</ele>
        <time>2020-12-13T10:35:24Z</time>
      </trkpt>
      <trkpt lat="45.91383" lon="4.62359">
        <ele>337.3</ele>
        <time>2020-12-13T10:35:25Z</time>
      </trkpt>
      <trkpt lat="45.91382" lon="4.62358">
        <ele>337.3</ele>
        <time>2020-12-13T10:35:26Z</time>
      </trkpt>
      <trkpt lat="45.91381" lon="4.62358">
        <ele>337.3</ele>
        <time>2020-12-13T10:35:27Z</time>
      </trkpt>
      <trkpt lat="45.9138" lon="4.62358">
        <ele>337.3</ele>
        <time>2020-12-13T10:35:28Z</time>
      </trkpt>
      <trkpt lat="45.91379" lon="4.62359">
        <ele>337.3</ele>
        <time>2020-12-13T10:35:29Z</time>
      </trkpt>
      <trkpt lat="45.91378" lon="4.6236">
        <ele>337.4</ele>
        <time>2020-12-13T10:35:30Z</time>
      </trkpt>
      <trkpt lat="45.91377" lon="4.6236">
        <ele>337.4</ele>
        <time>2020-12-13T10:35:31Z</time>
      </trkpt>
      <trkpt lat="45.91376" lon="4.62361">
        <ele>337.4</ele>
        <time>2020-12-13T10:35:32Z</time>
      </trkpt>
      <trkpt lat="45.91375" lon="4.62361">
        <ele>337.4</ele>
        <time>2020-12-13T10:35:33Z</time>
      </trkpt>
      <trkpt lat="45.91374" lon="4.62362">
        <ele>337.4</ele>
        <time>2020-12-13T10:35:34Z</time>
      </trkpt>
      <trkpt lat="45.91372" lon="4.62363">
        <ele>337.4</ele>
        <time>2020-12-13T10:35:35Z</time>
      </trkpt>
      <trkpt lat="45.91371" lon="4.62364">
        <ele>337.4</ele>
        <time>2020-12-13T10:35:36Z</time>
      </trkpt>
      <trkpt lat="45.91369" lon="4.62365">
        <ele>337.3</ele>
        <time>2020-12-13T10:35:37Z</time>
      </trkpt>
      <trkpt lat="45.91369" lon="4.62365">
        <ele>337.3</ele>
        <time>2020-12-13T10:35:38Z</time>
      </trkpt>
      <trkpt lat="45.91367" lon="4.62365">
        <ele>337.3</ele>
        <time>2020-12-13T10:35:39Z</time>
      </trkpt>
      <trkpt lat="45.91366" lon="4.62366">
        <ele>337.3</ele>
        <time>2020-12-13T10:35:40Z</time>
      </trkpt>
      <trkpt lat="45.91364" lon="4.62367">
        <ele>337.3</ele>
        <time>2020-12-13T10:35:41Z</time>
      </trkpt>
      <trkpt lat="45.91363" lon="4.62367">
        <ele>337.3</ele>
        <time>2020-12-13T10:35:42Z</time>
      </trkpt>
      <trkpt lat="45.91362" lon="4.62368">
        <ele>337.3</ele>
        <time>2020-12-13T10:35:43Z</time>
      </trkpt>
      <trkpt lat="45.9136" lon="4.62369">
        <ele>337.3</ele>
        <time>2020-12-13T10:35:44Z</time>
      </trkpt>
      <trkpt lat="45.91359" lon="4.6237">
        <ele>337.3</ele>
        <time>2020-12-13T10:35:45Z</time>
      </trkpt>
      <trkpt lat="45.91358" lon="4.6237">
        <ele>337.3</ele>
        <time>2020-12-13T10:35:46Z</time>
      </trkpt>
      <trkpt lat="45.91357" lon="4.6237">
        <ele>337.2</ele>
        <time>2020-12-13T10:35:47Z</time>
      </trkpt>
      <trkpt lat="45.91355" lon="4.62371">
        <ele>337.2</ele>
        <time>2020-12-13T10:35:48Z</time>
      </trkpt>
      <trkpt lat="45.91354" lon="4.62371">
        <ele>337.2</ele>
        <time>2020-12-13T10:35:49Z</time>
      </trkpt>
      <trkpt lat="45.91353" lon="4.62372">
        <ele>337.2</ele>
        <time>2020-12-13T10:35:50Z</time>
      </trkpt>
      <trkpt lat="45.91352" lon="4.62372">
        <ele>337.2</ele>
        <time>2020-12-13T10:35:51Z</time>
      </trkpt>
      <trkpt lat="45.91351" lon="4.62373">
        <ele>337.2</ele>
        <time>2020-12-13T10:35:52Z</time>
      </trkpt>
      <trkpt lat="45.91349" lon="4.62374">
        <ele>337.1</ele>
        <time>2020-12-13T10:35:53Z</time>
      </trkpt>
      <trkpt lat="45.91347" lon="4.62375">
        <ele>337.1</ele>
        <time>2020-12-13T10:35:54Z</time>
      </trkpt>
      <trkpt lat="45.91346" lon="4.62375">
        <ele>337.1</ele>
        <time>2020-12-13T10:35:55Z</time>
      </trkpt>
      <trkpt lat="45.91345" lon="4.62376">
        <ele>337.1</ele>
        <time>2020-12-13T10:35:56Z</time>
      </trkpt>
      <trkpt lat="45.91344" lon="4.62376">
        <ele>337.1</ele>
        <time>2020-12-13T10:35:58Z</time>
      </trkpt>
      <trkpt lat="45.91343" lon="4.62377">
        <ele>337.1</ele>
        <time>2020-12-13T10:35:59Z</time>
      </trkpt>
      <trkpt lat="45.91342" lon="4.62378">
        <ele>337</ele>
        <time>2020-12-13T10:36:00Z</time>
      </trkpt>
      <trkpt lat="45.9134" lon="4.62379">
        <ele>337</ele>
        <time>2020-12-13T10:36:01Z</time>
      </trkpt>
      <trkpt lat="45.91339" lon="4.62379">
        <ele>337</ele>
        <time>2020-12-13T10:36:02Z</time>
      </trkpt>
      <trkpt lat="45.91337" lon="4.62379">
        <ele>337</ele>
        <time>2020-12-13T10:36:03Z</time>
      </trkpt>
      <trkpt lat="45.91337" lon="4.6238">
        <ele>336.9</ele>
        <time>2020-12-13T10:36:04Z</time>
      </trkpt>
      <trkpt lat="45.91334" lon="4.62381">
        <ele>336.9</ele>
        <time>2020-12-13T10:36:05Z</time>
      </trkpt>
      <trkpt lat="45.91333" lon="4.62381">
        <ele>336.9</ele>
        <time>2020-12-13T10:36:06Z</time>
      </trkpt>
      <trkpt lat="45.91332" lon="4.62381">
        <ele>336.9</ele>
        <time>2020-12-13T10:36:07Z</time>
      </trkpt>
      <trkpt lat="45.91331" lon="4.62382">
        <ele>336.9</ele>
        <time>2020-12-13T10:36:08Z</time>
      </trkpt>
      <trkpt lat="45.9133" lon="4.62382">
        <ele>336.8</ele>
        <time>2020-12-13T10:36:09Z</time>
      </trkpt>
      <trkpt lat="45.9133" lon="4.62382">
        <ele>336.8</ele>
        <time>2020-12-13T10:36:10Z</time>
      </trkpt>
      <trkpt lat="45.91329" lon="4.62383">
        <ele>336.8</ele>
        <time>2020-12-13T10:36:11Z</time>
      </trkpt>
      <trkpt lat="45.91327" lon="4.62383">
        <ele>336.8</ele>
        <time>2020-12-13T10:36:12Z</time>
      </trkpt>
      <trkpt lat="45.91326" lon="4.62384">
        <ele>336.7</ele>
        <time>2020-12-13T10:36:13Z</time>
      </trkpt>
      <trkpt lat="45.91325" lon="4.62384">
        <ele>336.7</ele>
        <time>2020-12-13T10:36:14Z</time>
      </trkpt>
      <trkpt lat="45.91323" lon="4.62386">
        <ele>336.7</ele>
        <time>2020-12-13T10:36:15Z</time>
      </trkpt>
      <trkpt lat="45.91321" lon="4.62387">
        <ele>336.6</ele>
        <time>2020-12-13T10:36:16Z</time>
      </trkpt>
      <trkpt lat="45.9132" lon="4.62387">
        <ele>336.6</ele>
        <time>2020-12-13T10:36:17Z</time>
      </trkpt>
      <trkpt lat="45.91319" lon="4.62387">
        <ele>336.6</ele>
        <time>2020-12-13T10:36:18Z</time>
      </trkpt>
      <trkpt lat="45.91317" lon="4.62388">
        <ele>336.5</ele>
        <time>2020-12-13T10:36:19Z</time>
      </trkpt>
      <trkpt lat="45.91316" lon="4.62388">
        <ele>336.5</ele>
        <time>2020-12-13T10:36:20Z</time>
      </trkpt>
      <trkpt lat="45.91315" lon="4.62389">
        <ele>336.5</ele>
        <time>2020-12-13T10:36:21Z</time>
      </trkpt>
      <trkpt lat="45.91314" lon="4.6239">
        <ele>336.4</ele>
        <time>2020-12-13T10:36:22Z</time>
      </trkpt>
      <trkpt lat="45.91312" lon="4.6239">
        <ele>336.4</ele>
        <time>2020-12-13T10:36:23Z</time>
      </trkpt>
      <trkpt lat="45.91311" lon="4.62391">
        <ele>336.4</ele>
        <time>2020-12-13T10:36:24Z</time>
      </trkpt>
      <trkpt lat="45.91309" lon="4.62391">
        <ele>336.3</ele>
        <time>2020-12-13T10:36:25Z</time>
      </trkpt>
      <trkpt lat="45.91308" lon="4.62391">
        <ele>336.3</ele>
        <time>2020-12-13T10:36:26Z</time>
      </trkpt>
      <trkpt lat="45.91307" lon="4.62392">
        <ele>336.2</ele>
        <time>2020-12-13T10:36:27Z</time>
      </trkpt>
      <trkpt lat="45.91306" lon="4.62392">
        <ele>336.2</ele>
        <time>2020-12-13T10:36:28Z</time>
      </trkpt>
      <trkpt lat="45.91305" lon="4.62393">
        <ele>336.2</ele>
        <time>2020-12-13T10:36:29Z</time>
      </trkpt>
      <trkpt lat="45.91304" lon="4.62393">
        <ele>336.1</ele>
        <time>2020-12-13T10:36:30Z</time>
      </trkpt>
      <trkpt lat="45.913" lon="4.62394">
        <ele>336</ele>
        <time>2020-12-13T10:36:31Z</time>
      </trkpt>
      <trkpt lat="45.91299" lon="4.62394">
        <ele>336</ele>
        <time>2020-12-13T10:36:32Z</time>
      </trkpt>
      <trkpt lat="45.91299" lon="4.62395">
        <ele>336</ele>
        <time>2020-12-13T10:36:33Z</time>
      </trkpt>
      <trkpt lat="45.91297" lon="4.62396">
        <ele>335.9</ele>
        <time>2020-12-13T10:36:34Z</time>
      </trkpt>
      <trkpt lat="45.91295" lon="4.62396">
        <ele>335.8</ele>
        <time>2020-12-13T10:36:35Z</time>
      </trkpt>
      <trkpt lat="45.91294" lon="4.62397">
        <ele>335.8</ele>
        <time>2020-12-13T10:36:36Z</time>
      </trkpt>
      <trkpt lat="45.91293" lon="4.62397">
        <ele>335.7</ele>
        <time>2020-12-13T10:36:37Z</time>
      </trkpt>
      <trkpt lat="45.91292" lon="4.62398">
        <ele>335.7</ele>
        <time>2020-12-13T10:36:38Z</time>
      </trkpt>
      <trkpt lat="45.91291" lon="4.62398">
        <ele>335.6</ele>
        <time>2020-12-13T10:36:39Z</time>
      </trkpt>
      <trkpt lat="45.9129" lon="4.62398">
        <ele>335.6</ele>
        <time>2020-12-13T10:36:40Z</time>
      </trkpt>
      <trkpt lat="45.91288" lon="4.62399">
        <ele>335.6</ele>
        <time>2020-12-13T10:36:41Z</time>
      </trkpt>
      <trkpt lat="45.91287" lon="4.62399">
        <ele>335.5</ele>
        <time>2020-12-13T10:36:42Z</time>
      </trkpt>
      <trkpt lat="45.91286" lon="4.624">
        <ele>335.5</ele>
        <time>2020-12-13T10:36:43Z</time>
      </trkpt>
      <trkpt lat="45.91283" lon="4.62401">
        <ele>335.3</ele>
        <time>2020-12-13T10:36:44Z</time>
      </trkpt>
      <trkpt lat="45.91282" lon="4.62402">
        <ele>335.3</ele>
        <time>2020-12-13T10:36:45Z</time>
      </trkpt>
      <trkpt lat="45.91282" lon="4.62402">
        <ele>335.3</ele>
        <time>2020-12-13T10:36:46Z</time>
      </trkpt>
      <trkpt lat="45.91281" lon="4.62403">
        <ele>335.2</ele>
        <time>2020-12-13T10:36:47Z</time>
      </trkpt>
      <trkpt lat="45.91279" lon="4.62403">
        <ele>335.2</ele>
        <time>2020-12-13T10:36:48Z</time>
      </trkpt>
      <trkpt lat="45.91278" lon="4.62404">
        <ele>335.1</ele>
        <time>2020-12-13T10:36:49Z</time>
      </trkpt>
      <trkpt lat="45.91278" lon="4.62405">
        <ele>335.1</ele>
        <time>2020-12-13T10:36:50Z</time>
      </trkpt>
      <trkpt lat="45.91276" lon="4.62405">
        <ele>335.1</ele>
        <time>2020-12-13T10:36:51Z</time>
      </trkpt>
      <trkpt lat="45.91275" lon="4.62406">
        <ele>335</ele>
        <time>2020-12-13T10:36:52Z</time>
      </trkpt>
      <trkpt lat="45.91275" lon="4.62406">
        <ele>335</ele>
        <time>2020-12-13T10:36:53Z</time>
      </trkpt>
      <trkpt lat="45.91274" lon="4.62405">
        <ele>335</ele>
        <time>2020-12-13T10:36:54Z</time>
      </trkpt>
      <trkpt lat="45.91273" lon="4.62406">
        <ele>334.9</ele>
        <time>2020-12-13T10:36:55Z</time>
      </trkpt>
      <trkpt lat="45.91271" lon="4.62406">
        <ele>334.9</ele>
        <time>2020-12-13T10:36:56Z</time>
      </trkpt>
      <trkpt lat="45.91269" lon="4.62407">
        <ele>334.8</ele>
        <time>2020-12-13T10:36:57Z</time>
      </trkpt>
      <trkpt lat="45.91268" lon="4.62407">
        <ele>334.8</ele>
        <time>2020-12-13T10:36:58Z</time>
      </trkpt>
      <trkpt lat="45.91268" lon="4.62407">
        <ele>334.8</ele>
        <time>2020-12-13T10:36:59Z</time>
      </trkpt>
      <trkpt lat="45.91268" lon="4.62408">
        <ele>334.7</ele>
        <time>2020-12-13T10:37:00Z</time>
      </trkpt>
      <trkpt lat="45.91267" lon="4.62408">
        <ele>334.7</ele>
        <time>2020-12-13T10:37:01Z</time>
      </trkpt>
      <trkpt lat="45.91265" lon="4.62409">
        <ele>334.6</ele>
        <time>2020-12-13T10:37:02Z</time>
      </trkpt>
      <trkpt lat="45.91263" lon="4.6241">
        <ele>334.5</ele>
        <time>2020-12-13T10:37:03Z</time>
      </trkpt>
      <trkpt lat="45.91262" lon="4.6241">
        <ele>334.5</ele>
        <time>2020-12-13T10:37:04Z</time>
      </trkpt>
      <trkpt lat="45.9126" lon="4.62411">
        <ele>334.4</ele>
        <time>2020-12-13T10:37:05Z</time>
      </trkpt>
      <trkpt lat="45.91258" lon="4.62412">
        <ele>334.3</ele>
        <time>2020-12-13T10:37:06Z</time>
      </trkpt>
      <trkpt lat="45.91257" lon="4.62412">
        <ele>334.3</ele>
        <time>2020-12-13T10:37:07Z</time>
      </trkpt>
      <trkpt lat="45.91257" lon="4.62413">
        <ele>334.2</ele>
        <time>2020-12-13T10:37:08Z</time>
      </trkpt>
      <trkpt lat="45.91255" lon="4.62413">
        <ele>334.1</ele>
        <time>2020-12-13T10:37:09Z</time>
      </trkpt>
      <trkpt lat="45.91255" lon="4.62413">
        <ele>334.1</ele>
        <time>2020-12-13T10:37:10Z</time>
      </trkpt>
      <trkpt lat="45.91252" lon="4.62415">
        <ele>333.9</ele>
        <time>2020-12-13T10:37:11Z</time>
      </trkpt>
      <trkpt lat="45.91251" lon="4.62415">
        <ele>333.9</ele>
        <time>2020-12-13T10:37:12Z</time>
      </trkpt>
      <trkpt lat="45.9125" lon="4.62416">
        <ele>333.8</ele>
        <time>2020-12-13T10:37:13Z</time>
      </trkpt>
      <trkpt lat="45.91249" lon="4.62416">
        <ele>333.7</ele>
        <time>2020-12-13T10:37:14Z</time>
      </trkpt>
      <trkpt lat="45.91248" lon="4.62416">
        <ele>333.7</ele>
        <time>2020-12-13T10:37:15Z</time>
      </trkpt>
      <trkpt lat="45.91247" lon="4.62416">
        <ele>333.6</ele>
        <time>2020-12-13T10:37:16Z</time>
      </trkpt>
      <trkpt lat="45.91246" lon="4.62417">
        <ele>333.5</ele>
        <time>2020-12-13T10:37:17Z</time>
      </trkpt>
      <trkpt lat="45.91244" lon="4.62418">
        <ele>333.4</ele>
        <time>2020-12-13T10:37:18Z</time>
      </trkpt>
      <trkpt lat="45.91242" lon="4.62419">
        <ele>333.3</ele>
        <time>2020-12-13T10:37:19Z</time>
      </trkpt>
      <trkpt lat="45.91241" lon="4.62419">
        <ele>333.3</ele>
        <time>2020-12-13T10:37:20Z</time>
      </trkpt>
      <trkpt lat="45.9124" lon="4.62419">
        <ele>333.2</ele>
        <time>2020-12-13T10:37:21Z</time>
      </trkpt>
      <trkpt lat="45.91239" lon="4.6242">
        <ele>333.2</ele>
        <time>2020-12-13T10:37:22Z</time>
      </trkpt>
      <trkpt lat="45.91239" lon="4.6242">
        <ele>333.1</ele>
        <time>2020-12-13T10:37:23Z</time>
      </trkpt>
      <trkpt lat="45.91237" lon="4.62421">
        <ele>333.1</ele>
        <time>2020-12-13T10:37:24Z</time>
      </trkpt>
      <trkpt lat="45.91237" lon="4.62422">
        <ele>333</ele>
        <time>2020-12-13T10:37:25Z</time>
      </trkpt>
      <trkpt lat="45.91235" lon="4.62422">
        <ele>333</ele>
        <time>2020-12-13T10:37:26Z</time>
      </trkpt>
      <trkpt lat="45.91235" lon="4.62422">
        <ele>332.9</ele>
        <time>2020-12-13T10:37:27Z</time>
      </trkpt>
      <trkpt lat="45.91233" lon="4.62423">
        <ele>332.9</ele>
        <time>2020-12-13T10:37:28Z</time>
      </trkpt>
      <trkpt lat="45.91232" lon="4.62423">
        <ele>332.8</ele>
        <time>2020-12-13T10:37:29Z</time>
      </trkpt>
      <trkpt lat="45.9123" lon="4.62424">
        <ele>332.7</ele>
        <time>2020-12-13T10:37:30Z</time>
      </trkpt>
      <trkpt lat="45.91229" lon="4.62424">
        <ele>332.6</ele>
        <time>2020-12-13T10:37:31Z</time>
      </trkpt>
      <trkpt lat="45.91227" lon="4.62424">
        <ele>332.5</ele>
        <time>2020-12-13T10:37:32Z</time>
      </trkpt>
      <trkpt lat="45.91226" lon="4.62425">
        <ele>332.5</ele>
        <time>2020-12-13T10:37:33Z</time>
      </trkpt>
      <trkpt lat="45.91224" lon="4.62425">
        <ele>332.4</ele>
        <time>2020-12-13T10:37:34Z</time>
      </trkpt>
      <trkpt lat="45.91223" lon="4.62425">
        <ele>332.3</ele>
        <time>2020-12-13T10:37:35Z</time>
      </trkpt>
      <trkpt lat="45.91222" lon="4.62425">
        <ele>332.3</ele>
        <time>2020-12-13T10:37:36Z</time>
      </trkpt>
      <trkpt lat="45.91221" lon="4.62426">
        <ele>332.2</ele>
        <time>2020-12-13T10:37:37Z</time>
      </trkpt>
      <trkpt lat="45.9122" lon="4.62427">
        <ele>332.2</ele>
        <time>2020-12-13T10:37:38Z</time>
      </trkpt>
      <trkpt lat="45.91218" lon="4.62428">
        <ele>332.1</ele>
        <time>2020-12-13T10:37:39Z</time>
      </trkpt>
      <trkpt lat="45.91218" lon="4.62428">
        <ele>332.1</ele>
        <time>2020-12-13T10:37:40Z</time>
      </trkpt>
      <trkpt lat="45.91217" lon="4.62429">
        <ele>332</ele>
        <time>2020-12-13T10:37:41Z</time>
      </trkpt>
      <trkpt lat="45.91215" lon="4.62429">
        <ele>331.9</ele>
        <time>2020-12-13T10:37:42Z</time>
      </trkpt>
      <trkpt lat="45.91213" lon="4.6243">
        <ele>331.8</ele>
        <time>2020-12-13T10:37:43Z</time>
      </trkpt>
      <trkpt lat="45.91212" lon="4.6243">
        <ele>331.7</ele>
        <time>2020-12-13T10:37:44Z</time>
      </trkpt>
      <trkpt lat="45.91211" lon="4.6243">
        <ele>331.7</ele>
        <time>2020-12-13T10:37:45Z</time>
      </trkpt>
      <trkpt lat="45.9121" lon="4.6243">
        <ele>331.6</ele>
        <time>2020-12-13T10:37:46Z</time>
      </trkpt>
      <trkpt lat="45.91208" lon="4.6243">
        <ele>331.6</ele>
        <time>2020-12-13T10:37:47Z</time>
      </trkpt>
      <trkpt lat="45.91206" lon="4.6243">
        <ele>331.5</ele>
        <time>2020-12-13T10:37:48Z</time>
      </trkpt>
      <trkpt lat="45.91206" lon="4.62431">
        <ele>331.4</ele>
        <time>2020-12-13T10:37:49Z</time>
      </trkpt>
      <trkpt lat="45.91205" lon="4.62431">
        <ele>331.4</ele>
        <time>2020-12-13T10:37:50Z</time>
      </trkpt>
      <trkpt lat="45.91205" lon="4.62431">
        <ele>331.4</ele>
        <time>2020-12-13T10:37:51Z</time>
      </trkpt>
      <trkpt lat="45.91202" lon="4.62432">
        <ele>331.2</ele>
        <time>2020-12-13T10:37:52Z</time>
      </trkpt>
      <trkpt lat="45.91201" lon="4.62432">
        <ele>331.2</ele>
        <time>2020-12-13T10:37:53Z</time>
      </trkpt>
      <trkpt lat="45.912" lon="4.62432">
        <ele>331.1</ele>
        <time>2020-12-13T10:37:54Z</time>
      </trkpt>
      <trkpt lat="45.91199" lon="4.62433">
        <ele>331.1</ele>
        <time>2020-12-13T10:37:55Z</time>
      </trkpt>
      <trkpt lat="45.91198" lon="4.62433">
        <ele>331</ele>
        <time>2020-12-13T10:37:56Z</time>
      </trkpt>
      <trkpt lat="45.91197" lon="4.62433">
        <ele>331</ele>
        <time>2020-12-13T10:37:57Z</time>
      </trkpt>
      <trkpt lat="45.91196" lon="4.62432">
        <ele>330.9</ele>
        <time>2020-12-13T10:37:58Z</time>
      </trkpt>
      <trkpt lat="45.91194" lon="4.62433">
        <ele>330.8</ele>
        <time>2020-12-13T10:37:59Z</time>
      </trkpt>
      <trkpt lat="45.91194" lon="4.62433">
        <ele>330.8</ele>
        <time>2020-12-13T10:38:00Z</time>
      </trkpt>
      <trkpt lat="45.91192" lon="4.62432">
        <ele>330.7</ele>
        <time>2020-12-13T10:38:01Z</time>
      </trkpt>
      <trkpt lat="45.91191" lon="4.62431">
        <ele>330.7</ele>
        <time>2020-12-13T10:38:02Z</time>
      </trkpt>
      <trkpt lat="45.91189" lon="4.62431">
        <ele>330.6</ele>
        <time>2020-12-13T10:38:04Z</time>
      </trkpt>
      <trkpt lat="45.91188" lon="4.62429">
        <ele>330.5</ele>
        <time>2020-12-13T10:38:05Z</time>
      </trkpt>
      <trkpt lat="45.91188" lon="4.62428">
        <ele>330.5</ele>
        <time>2020-12-13T10:38:06Z</time>
      </trkpt>
      <trkpt lat="45.91186" lon="4.62426">
        <ele>330.4</ele>
        <time>2020-12-13T10:38:07Z</time>
      </trkpt>
      <trkpt lat="45.91185" lon="4.62425">
        <ele>330.3</ele>
        <time>2020-12-13T10:38:08Z</time>
      </trkpt>
      <trkpt lat="45.91184" lon="4.62425">
        <ele>330.3</ele>
        <time>2020-12-13T10:38:09Z</time>
      </trkpt>
      <trkpt lat="45.91183" lon="4.62424">
        <ele>330.3</ele>
        <time>2020-12-13T10:38:10Z</time>
      </trkpt>
      <trkpt lat="45.91181" lon="4.62423">
        <ele>330.2</ele>
        <time>2020-12-13T10:38:11Z</time>
      </trkpt>
      <trkpt lat="45.91179" lon="4.62421">
        <ele>330.1</ele>
        <time>2020-12-13T10:38:12Z</time>
      </trkpt>
      <trkpt lat="45.91179" lon="4.62421">
        <ele>330.1</ele>
        <time>2020-12-13T10:38:13Z</time>
      </trkpt>
      <trkpt lat="45.91178" lon="4.62421">
        <ele>330.1</ele>
        <time>2020-12-13T10:38:14Z</time>
      </trkpt>
      <trkpt lat="45.91175" lon="4.62419">
        <ele>329.9</ele>
        <time>2020-12-13T10:38:15Z</time>
      </trkpt>
      <trkpt lat="45.91174" lon="4.62418">
        <ele>329.9</ele>
        <time>2020-12-13T10:38:16Z</time>
      </trkpt>
      <trkpt lat="45.91173" lon="4.62415">
        <ele>329.8</ele>
        <time>2020-12-13T10:38:17Z</time>
      </trkpt>
      <trkpt lat="45.91172" lon="4.62414">
        <ele>329.8</ele>
        <time>2020-12-13T10:38:18Z</time>
      </trkpt>
      <trkpt lat="45.91171" lon="4.62411">
        <ele>329.7</ele>
        <time>2020-12-13T10:38:20Z</time>
      </trkpt>
      <trkpt lat="45.9117" lon="4.62409">
        <ele>329.6</ele>
        <time>2020-12-13T10:38:21Z</time>
      </trkpt>
      <trkpt lat="45.91169" lon="4.62407">
        <ele>329.6</ele>
        <time>2020-12-13T10:38:22Z</time>
      </trkpt>
      <trkpt lat="45.91168" lon="4.62406">
        <ele>329.5</ele>
        <time>2020-12-13T10:38:23Z</time>
      </trkpt>
      <trkpt lat="45.91167" lon="4.62405">
        <ele>329.5</ele>
        <time>2020-12-13T10:38:24Z</time>
      </trkpt>
      <trkpt lat="45.91166" lon="4.62403">
        <ele>329.4</ele>
        <time>2020-12-13T10:38:25Z</time>
      </trkpt>
      <trkpt lat="45.91165" lon="4.62402">
        <ele>329.4</ele>
        <time>2020-12-13T10:38:26Z</time>
      </trkpt>
      <trkpt lat="45.91164" lon="4.62399">
        <ele>329.3</ele>
        <time>2020-12-13T10:38:27Z</time>
      </trkpt>
      <trkpt lat="45.91164" lon="4.62398">
        <ele>329.3</ele>
        <time>2020-12-13T10:38:28Z</time>
      </trkpt>
      <trkpt lat="45.91163" lon="4.62397">
        <ele>329.3</ele>
        <time>2020-12-13T10:38:29Z</time>
      </trkpt>
      <trkpt lat="45.91162" lon="4.62396">
        <ele>329.2</ele>
        <time>2020-12-13T10:38:30Z</time>
      </trkpt>
      <trkpt lat="45.91161" lon="4.62394">
        <ele>329.2</ele>
        <time>2020-12-13T10:38:31Z</time>
      </trkpt>
      <trkpt lat="45.91161" lon="4.62392">
        <ele>329.1</ele>
        <time>2020-12-13T10:38:32Z</time>
      </trkpt>
      <trkpt lat="45.9116" lon="4.62391">
        <ele>329.1</ele>
        <time>2020-12-13T10:38:33Z</time>
      </trkpt>
      <trkpt lat="45.91159" lon="4.6239">
        <ele>329.1</ele>
        <time>2020-12-13T10:38:34Z</time>
      </trkpt>
      <trkpt lat="45.91159" lon="4.62388">
        <ele>329</ele>
        <time>2020-12-13T10:38:35Z</time>
      </trkpt>
      <trkpt lat="45.91158" lon="4.62387">
        <ele>329</ele>
        <time>2020-12-13T10:38:36Z</time>
      </trkpt>
      <trkpt lat="45.91158" lon="4.62387">
        <ele>329</ele>
        <time>2020-12-13T10:38:37Z</time>
      </trkpt>
      <trkpt lat="45.91157" lon="4.62385">
        <ele>328.9</ele>
        <time>2020-12-13T10:38:38Z</time>
      </trkpt>
      <trkpt lat="45.91156" lon="4.62383">
        <ele>328.9</ele>
        <time>2020-12-13T10:38:39Z</time>
      </trkpt>
      <trkpt lat="45.91155" lon="4.62382">
        <ele>328.8</ele>
        <time>2020-12-13T10:38:40Z</time>
      </trkpt>
      <trkpt lat="45.91155" lon="4.62381">
        <ele>328.8</ele>
        <time>2020-12-13T10:38:41Z</time>
      </trkpt>
      <trkpt lat="45.91154" lon="4.62379">
        <ele>328.8</ele>
        <time>2020-12-13T10:38:42Z</time>
      </trkpt>
      <trkpt lat="45.91152" lon="4.62376">
        <ele>328.7</ele>
        <time>2020-12-13T10:38:43Z</time>
      </trkpt>
      <trkpt lat="45.91152" lon="4.62375">
        <ele>328.7</ele>
        <time>2020-12-13T10:38:44Z</time>
      </trkpt>
      <trkpt lat="45.91152" lon="4.62374">
        <ele>328.6</ele>
        <time>2020-12-13T10:38:45Z</time>
      </trkpt>
      <trkpt lat="45.91151" lon="4.62373">
        <ele>328.6</ele>
        <time>2020-12-13T10:38:46Z</time>
      </trkpt>
      <trkpt lat="45.9115" lon="4.62371">
        <ele>328.6</ele>
        <time>2020-12-13T10:38:47Z</time>
      </trkpt>
      <trkpt lat="45.91149" lon="4.6237">
        <ele>328.5</ele>
        <time>2020-12-13T10:38:48Z</time>
      </trkpt>
      <trkpt lat="45.91148" lon="4.62368">
        <ele>328.5</ele>
        <time>2020-12-13T10:38:49Z</time>
      </trkpt>
      <trkpt lat="45.91147" lon="4.62366">
        <ele>328.4</ele>
        <time>2020-12-13T10:38:50Z</time>
      </trkpt>
      <trkpt lat="45.91147" lon="4.62364">
        <ele>328.4</ele>
        <time>2020-12-13T10:38:51Z</time>
      </trkpt>
      <trkpt lat="45.91146" lon="4.62363">
        <ele>328.4</ele>
        <time>2020-12-13T10:38:52Z</time>
      </trkpt>
      <trkpt lat="45.91146" lon="4.62362">
        <ele>328.3</ele>
        <time>2020-12-13T10:38:53Z</time>
      </trkpt>
      <trkpt lat="45.91145" lon="4.62361">
        <ele>328.3</ele>
        <time>2020-12-13T10:38:54Z</time>
      </trkpt>
      <trkpt lat="45.91144" lon="4.62359">
        <ele>328.2</ele>
        <time>2020-12-13T10:38:55Z</time>
      </trkpt>
      <trkpt lat="45.91143" lon="4.62356">
        <ele>328.2</ele>
        <time>2020-12-13T10:38:56Z</time>
      </trkpt>
      <trkpt lat="45.91142" lon="4.62355">
        <ele>328.1</ele>
        <time>2020-12-13T10:38:57Z</time>
      </trkpt>
      <trkpt lat="45.91141" lon="4.62353">
        <ele>328.1</ele>
        <time>2020-12-13T10:38:58Z</time>
      </trkpt>
      <trkpt lat="45.91141" lon="4.62353">
        <ele>328.1</ele>
        <time>2020-12-13T10:38:59Z</time>
      </trkpt>
      <trkpt lat="45.9114" lon="4.62352">
        <ele>328</ele>
        <time>2020-12-13T10:39:00Z</time>
      </trkpt>
      <trkpt lat="45.9114" lon="4.62352">
        <ele>328</ele>
        <time>2020-12-13T10:39:01Z</time>
      </trkpt>
      <trkpt lat="45.91138" lon="4.62349">
        <ele>327.9</ele>
        <time>2020-12-13T10:39:02Z</time>
      </trkpt>
      <trkpt lat="45.91136" lon="4.62346">
        <ele>327.8</ele>
        <time>2020-12-13T10:39:03Z</time>
      </trkpt>
      <trkpt lat="45.91136" lon="4.62345">
        <ele>327.7</ele>
        <time>2020-12-13T10:39:04Z</time>
      </trkpt>
      <trkpt lat="45.91135" lon="4.62344">
        <ele>327.7</ele>
        <time>2020-12-13T10:39:05Z</time>
      </trkpt>
      <trkpt lat="45.91134" lon="4.62343">
        <ele>327.6</ele>
        <time>2020-12-13T10:39:06Z</time>
      </trkpt>
      <trkpt lat="45.91133" lon="4.62342">
        <ele>327.6</ele>
        <time>2020-12-13T10:39:07Z</time>
      </trkpt>
      <trkpt lat="45.91131" lon="4.62338">
        <ele>327.4</ele>
        <time>2020-12-13T10:39:08Z</time>
      </trkpt>
      <trkpt lat="45.9113" lon="4.62338">
        <ele>327.4</ele>
        <time>2020-12-13T10:39:09Z</time>
      </trkpt>
      <trkpt lat="45.9113" lon="4.62337">
        <ele>327.4</ele>
        <time>2020-12-13T10:39:10Z</time>
      </trkpt>
      <trkpt lat="45.91129" lon="4.62335">
        <ele>327.3</ele>
        <time>2020-12-13T10:39:11Z</time>
      </trkpt>
      <trkpt lat="45.91128" lon="4.62334">
        <ele>327.2</ele>
        <time>2020-12-13T10:39:12Z</time>
      </trkpt>
      <trkpt lat="45.91127" lon="4.62333">
        <ele>327.2</ele>
        <time>2020-12-13T10:39:13Z</time>
      </trkpt>
      <trkpt lat="45.91126" lon="4.62331">
        <ele>327.1</ele>
        <time>2020-12-13T10:39:14Z</time>
      </trkpt>
      <trkpt lat="45.91125" lon="4.6233">
        <ele>327.1</ele>
        <time>2020-12-13T10:39:15Z</time>
      </trkpt>
      <trkpt lat="45.91124" lon="4.62327">
        <ele>327</ele>
        <time>2020-12-13T10:39:16Z</time>
      </trkpt>
      <trkpt lat="45.91123" lon="4.62325">
        <ele>326.9</ele>
        <time>2020-12-13T10:39:17Z</time>
      </trkpt>
      <trkpt lat="45.91123" lon="4.62324">
        <ele>326.8</ele>
        <time>2020-12-13T10:39:18Z</time>
      </trkpt>
      <trkpt lat="45.91121" lon="4.62321">
        <ele>326.7</ele>
        <time>2020-12-13T10:39:19Z</time>
      </trkpt>
      <trkpt lat="45.9112" lon="4.6232">
        <ele>326.7</ele>
        <time>2020-12-13T10:39:20Z</time>
      </trkpt>
      <trkpt lat="45.91119" lon="4.62319">
        <ele>326.6</ele>
        <time>2020-12-13T10:39:21Z</time>
      </trkpt>
      <trkpt lat="45.91118" lon="4.62318">
        <ele>326.5</ele>
        <time>2020-12-13T10:39:22Z</time>
      </trkpt>
      <trkpt lat="45.91118" lon="4.62317">
        <ele>326.5</ele>
        <time>2020-12-13T10:39:23Z</time>
      </trkpt>
      <trkpt lat="45.91117" lon="4.62316">
        <ele>326.4</ele>
        <time>2020-12-13T10:39:24Z</time>
      </trkpt>
      <trkpt lat="45.91115" lon="4.62314">
        <ele>326.3</ele>
        <time>2020-12-13T10:39:25Z</time>
      </trkpt>
      <trkpt lat="45.91114" lon="4.62313">
        <ele>326.3</ele>
        <time>2020-12-13T10:39:26Z</time>
      </trkpt>
      <trkpt lat="45.91113" lon="4.62312">
        <ele>326.2</ele>
        <time>2020-12-13T10:39:27Z</time>
      </trkpt>
      <trkpt lat="45.91112" lon="4.6231">
        <ele>326.1</ele>
        <time>2020-12-13T10:39:28Z</time>
      </trkpt>
      <trkpt lat="45.91111" lon="4.62309">
        <ele>326.1</ele>
        <time>2020-12-13T10:39:29Z</time>
      </trkpt>
      <trkpt lat="45.9111" lon="4.62307">
        <ele>325.9</ele>
        <time>2020-12-13T10:39:30Z</time>
      </trkpt>
      <trkpt lat="45.91108" lon="4.62306">
        <ele>325.8</ele>
        <time>2020-12-13T10:39:31Z</time>
      </trkpt>
      <trkpt lat="45.91107" lon="4.62305">
        <ele>325.8</ele>
        <time>2020-12-13T10:39:32Z</time>
      </trkpt>
      <trkpt lat="45.91107" lon="4.62304">
        <ele>325.7</ele>
        <time>2020-12-13T10:39:33Z</time>
      </trkpt>
      <trkpt lat="45.91105" lon="4.62301">
        <ele>325.6</ele>
        <time>2020-12-13T10:39:34Z</time>
      </trkpt>
      <trkpt lat="45.91104" lon="4.623">
        <ele>325.6</ele>
        <time>2020-12-13T10:39:35Z</time>
      </trkpt>
      <trkpt lat="45.91104" lon="4.623">
        <ele>325.5</ele>
        <time>2020-12-13T10:39:36Z</time>
      </trkpt>
      <trkpt lat="45.91102" lon="4.62299">
        <ele>325.5</ele>
        <time>2020-12-13T10:39:37Z</time>
      </trkpt>
      <trkpt lat="45.91101" lon="4.62297">
        <ele>325.4</ele>
        <time>2020-12-13T10:39:38Z</time>
      </trkpt>
      <trkpt lat="45.911" lon="4.62297">
        <ele>325.3</ele>
        <time>2020-12-13T10:39:39Z</time>
      </trkpt>
      <trkpt lat="45.91099" lon="4.62296">
        <ele>325.3</ele>
        <time>2020-12-13T10:39:40Z</time>
      </trkpt>
      <trkpt lat="45.91098" lon="4.62295">
        <ele>325.2</ele>
        <time>2020-12-13T10:39:41Z</time>
      </trkpt>
      <trkpt lat="45.91098" lon="4.62295">
        <ele>325.2</ele>
        <time>2020-12-13T10:39:42Z</time>
      </trkpt>
      <trkpt lat="45.91097" lon="4.62294">
        <ele>325.2</ele>
        <time>2020-12-13T10:39:43Z</time>
      </trkpt>
      <trkpt lat="45.91095" lon="4.62292">
        <ele>325.1</ele>
        <time>2020-12-13T10:39:44Z</time>
      </trkpt>
      <trkpt lat="45.91095" lon="4.62292">
        <ele>325.1</ele>
        <time>2020-12-13T10:39:45Z</time>
      </trkpt>
      <trkpt lat="45.91093" lon="4.62291">
        <ele>325</ele>
        <time>2020-12-13T10:39:46Z</time>
      </trkpt>
      <trkpt lat="45.91092" lon="4.62289">
        <ele>324.9</ele>
        <time>2020-12-13T10:39:47Z</time>
      </trkpt>
      <trkpt lat="45.91091" lon="4.62288">
        <ele>324.9</ele>
        <time>2020-12-13T10:39:48Z</time>
      </trkpt>
      <trkpt lat="45.91088" lon="4.62287">
        <ele>324.8</ele>
        <time>2020-12-13T10:39:49Z</time>
      </trkpt>
      <trkpt lat="45.91088" lon="4.62286">
        <ele>324.8</ele>
        <time>2020-12-13T10:39:50Z</time>
      </trkpt>
      <trkpt lat="45.91087" lon="4.62286">
        <ele>324.7</ele>
        <time>2020-12-13T10:39:51Z</time>
      </trkpt>
      <trkpt lat="45.91086" lon="4.62286">
        <ele>324.7</ele>
        <time>2020-12-13T10:39:52Z</time>
      </trkpt>
      <trkpt lat="45.91084" lon="4.62286">
        <ele>324.6</ele>
        <time>2020-12-13T10:39:53Z</time>
      </trkpt>
      <trkpt lat="45.91084" lon="4.62285">
        <ele>324.6</ele>
        <time>2020-12-13T10:39:54Z</time>
      </trkpt>
      <trkpt lat="45.91082" lon="4.62284">
        <ele>324.6</ele>
        <time>2020-12-13T10:39:55Z</time>
      </trkpt>
      <trkpt lat="45.91081" lon="4.62282">
        <ele>324.5</ele>
        <time>2020-12-13T10:39:56Z</time>
      </trkpt>
      <trkpt lat="45.9108" lon="4.62282">
        <ele>324.5</ele>
        <time>2020-12-13T10:39:57Z</time>
      </trkpt>
      <trkpt lat="45.9108" lon="4.62282">
        <ele>324.4</ele>
        <time>2020-12-13T10:39:58Z</time>
      </trkpt>
      <trkpt lat="45.91078" lon="4.6228">
        <ele>324.4</ele>
        <time>2020-12-13T10:39:59Z</time>
      </trkpt>
      <trkpt lat="45.91077" lon="4.6228">
        <ele>324.3</ele>
        <time>2020-12-13T10:40:00Z</time>
      </trkpt>
      <trkpt lat="45.91076" lon="4.62279">
        <ele>324.3</ele>
        <time>2020-12-13T10:40:01Z</time>
      </trkpt>
      <trkpt lat="45.91076" lon="4.62277">
        <ele>324.3</ele>
        <time>2020-12-13T10:40:02Z</time>
      </trkpt>
      <trkpt lat="45.91074" lon="4.62276">
        <ele>324.2</ele>
        <time>2020-12-13T10:40:03Z</time>
      </trkpt>
      <trkpt lat="45.91074" lon="4.62274">
        <ele>324.1</ele>
        <time>2020-12-13T10:40:04Z</time>
      </trkpt>
      <trkpt lat="45.91073" lon="4.62272">
        <ele>324.1</ele>
        <time>2020-12-13T10:40:05Z</time>
      </trkpt>
      <trkpt lat="45.91072" lon="4.6227">
        <ele>324</ele>
        <time>2020-12-13T10:40:06Z</time>
      </trkpt>
      <trkpt lat="45.91072" lon="4.62268">
        <ele>323.9</ele>
        <time>2020-12-13T10:40:07Z</time>
      </trkpt>
      <trkpt lat="45.9107" lon="4.62266">
        <ele>323.9</ele>
        <time>2020-12-13T10:40:08Z</time>
      </trkpt>
      <trkpt lat="45.91069" lon="4.62264">
        <ele>323.8</ele>
        <time>2020-12-13T10:40:10Z</time>
      </trkpt>
      <trkpt lat="45.91069" lon="4.62263">
        <ele>323.8</ele>
        <time>2020-12-13T10:40:11Z</time>
      </trkpt>
      <trkpt lat="45.91068" lon="4.62263">
        <ele>323.7</ele>
        <time>2020-12-13T10:40:12Z</time>
      </trkpt>
      <trkpt lat="45.91067" lon="4.62262">
        <ele>323.7</ele>
        <time>2020-12-13T10:40:13Z</time>
      </trkpt>
      <trkpt lat="45.91066" lon="4.62262">
        <ele>323.7</ele>
        <time>2020-12-13T10:40:14Z</time>
      </trkpt>
      <trkpt lat="45.91065" lon="4.62259">
        <ele>323.7</ele>
        <time>2020-12-13T10:40:15Z</time>
      </trkpt>
      <trkpt lat="45.91064" lon="4.62257">
        <ele>323.7</ele>
        <time>2020-12-13T10:40:16Z</time>
      </trkpt>
      <trkpt lat="45.91063" lon="4.62256">
        <ele>323.8</ele>
        <time>2020-12-13T10:40:17Z</time>
      </trkpt>
      <trkpt lat="45.91063" lon="4.62255">
        <ele>323.8</ele>
        <time>2020-12-13T10:40:18Z</time>
      </trkpt>
      <trkpt lat="45.91061" lon="4.62252">
        <ele>323.8</ele>
        <time>2020-12-13T10:40:19Z</time>
      </trkpt>
      <trkpt lat="45.91061" lon="4.62252">
        <ele>323.8</ele>
        <time>2020-12-13T10:40:20Z</time>
      </trkpt>
      <trkpt lat="45.9106" lon="4.62251">
        <ele>323.8</ele>
        <time>2020-12-13T10:40:21Z</time>
      </trkpt>
      <trkpt lat="45.91059" lon="4.62248">
        <ele>323.9</ele>
        <time>2020-12-13T10:40:22Z</time>
      </trkpt>
      <trkpt lat="45.91058" lon="4.62247">
        <ele>323.9</ele>
        <time>2020-12-13T10:40:23Z</time>
      </trkpt>
      <trkpt lat="45.91058" lon="4.62247">
        <ele>323.9</ele>
        <time>2020-12-13T10:40:24Z</time>
      </trkpt>
      <trkpt lat="45.91056" lon="4.62243">
        <ele>323.9</ele>
        <time>2020-12-13T10:40:25Z</time>
      </trkpt>
      <trkpt lat="45.91055" lon="4.6224">
        <ele>324</ele>
        <time>2020-12-13T10:40:26Z</time>
      </trkpt>
      <trkpt lat="45.91054" lon="4.62239">
        <ele>324</ele>
        <time>2020-12-13T10:40:27Z</time>
      </trkpt>
      <trkpt lat="45.91053" lon="4.62237">
        <ele>324.1</ele>
        <time>2020-12-13T10:40:28Z</time>
      </trkpt>
      <trkpt lat="45.91052" lon="4.62236">
        <ele>324.1</ele>
        <time>2020-12-13T10:40:29Z</time>
      </trkpt>
      <trkpt lat="45.91051" lon="4.62235">
        <ele>324.1</ele>
        <time>2020-12-13T10:40:30Z</time>
      </trkpt>
      <trkpt lat="45.91051" lon="4.62233">
        <ele>324.2</ele>
        <time>2020-12-13T10:40:31Z</time>
      </trkpt>
      <trkpt lat="45.9105" lon="4.62231">
        <ele>324.2</ele>
        <time>2020-12-13T10:40:32Z</time>
      </trkpt>
      <trkpt lat="45.91049" lon="4.6223">
        <ele>324.3</ele>
        <time>2020-12-13T10:40:33Z</time>
      </trkpt>
      <trkpt lat="45.91048" lon="4.62228">
        <ele>324.3</ele>
        <time>2020-12-13T10:40:34Z</time>
      </trkpt>
      <trkpt lat="45.91047" lon="4.62226">
        <ele>324.4</ele>
        <time>2020-12-13T10:40:35Z</time>
      </trkpt>
      <trkpt lat="45.91047" lon="4.62225">
        <ele>324.4</ele>
        <time>2020-12-13T10:40:36Z</time>
      </trkpt>
      <trkpt lat="45.91046" lon="4.62225">
        <ele>324.4</ele>
        <time>2020-12-13T10:40:37Z</time>
      </trkpt>
      <trkpt lat="45.91045" lon="4.62223">
        <ele>324.5</ele>
        <time>2020-12-13T10:40:38Z</time>
      </trkpt>
      <trkpt lat="45.91044" lon="4.62222">
        <ele>324.5</ele>
        <time>2020-12-13T10:40:39Z</time>
      </trkpt>
      <trkpt lat="45.91044" lon="4.62221">
        <ele>324.5</ele>
        <time>2020-12-13T10:40:40Z</time>
      </trkpt>
      <trkpt lat="45.91043" lon="4.6222">
        <ele>324.5</ele>
        <time>2020-12-13T10:40:41Z</time>
      </trkpt>
      <trkpt lat="45.91042" lon="4.62218">
        <ele>324.6</ele>
        <time>2020-12-13T10:40:42Z</time>
      </trkpt>
      <trkpt lat="45.91041" lon="4.62217">
        <ele>324.6</ele>
        <time>2020-12-13T10:40:43Z</time>
      </trkpt>
      <trkpt lat="45.91041" lon="4.62217">
        <ele>324.6</ele>
        <time>2020-12-13T10:40:44Z</time>
      </trkpt>
      <trkpt lat="45.91039" lon="4.62214">
        <ele>324.6</ele>
        <time>2020-12-13T10:40:45Z</time>
      </trkpt>
      <trkpt lat="45.91039" lon="4.62213">
        <ele>324.6</ele>
        <time>2020-12-13T10:40:46Z</time>
      </trkpt>
      <trkpt lat="45.91037" lon="4.62211">
        <ele>324.7</ele>
        <time>2020-12-13T10:40:47Z</time>
      </trkpt>
      <trkpt lat="45.91036" lon="4.62209">
        <ele>324.7</ele>
        <time>2020-12-13T10:40:48Z</time>
      </trkpt>
      <trkpt lat="45.91035" lon="4.62208">
        <ele>324.7</ele>
        <time>2020-12-13T10:40:49Z</time>
      </trkpt>
      <trkpt lat="45.91035" lon="4.62207">
        <ele>324.7</ele>
        <time>2020-12-13T10:40:50Z</time>
      </trkpt>
      <trkpt lat="45.91033" lon="4.62204">
        <ele>324.8</ele>
        <time>2020-12-13T10:40:51Z</time>
      </trkpt>
      <trkpt lat="45.91033" lon="4.62203">
        <ele>324.8</ele>
        <time>2020-12-13T10:40:52Z</time>
      </trkpt>
      <trkpt lat="45.91032" lon="4.62203">
        <ele>324.8</ele>
        <time>2020-12-13T10:40:53Z</time>
      </trkpt>
      <trkpt lat="45.91031" lon="4.62201">
        <ele>324.8</ele>
        <time>2020-12-13T10:40:54Z</time>
      </trkpt>
      <trkpt lat="45.9103" lon="4.62199">
        <ele>324.8</ele>
        <time>2020-12-13T10:40:55Z</time>
      </trkpt>
      <trkpt lat="45.91029" lon="4.62197">
        <ele>324.9</ele>
        <time>2020-12-13T10:40:56Z</time>
      </trkpt>
      <trkpt lat="45.91028" lon="4.62197">
        <ele>324.9</ele>
        <time>2020-12-13T10:40:57Z</time>
      </trkpt>
      <trkpt lat="45.91026" lon="4.62195">
        <ele>324.9</ele>
        <time>2020-12-13T10:40:58Z</time>
      </trkpt>
      <trkpt lat="45.91025" lon="4.62194">
        <ele>324.9</ele>
        <time>2020-12-13T10:40:59Z</time>
      </trkpt>
      <trkpt lat="45.91025" lon="4.62193">
        <ele>324.9</ele>
        <time>2020-12-13T10:41:00Z</time>
      </trkpt>
      <trkpt lat="45.91024" lon="4.62192">
        <ele>324.9</ele>
        <time>2020-12-13T10:41:01Z</time>
      </trkpt>
      <trkpt lat="45.91022" lon="4.6219">
        <ele>325</ele>
        <time>2020-12-13T10:41:02Z</time>
      </trkpt>
      <trkpt lat="45.91022" lon="4.62189">
        <ele>325</ele>
        <time>2020-12-13T10:41:03Z</time>
      </trkpt>
      <trkpt lat="45.91021" lon="4.62188">
        <ele>325</ele>
        <time>2020-12-13T10:41:04Z</time>
      </trkpt>
      <trkpt lat="45.9102" lon="4.62186">
        <ele>325</ele>
        <time>2020-12-13T10:41:05Z</time>
      </trkpt>
      <trkpt lat="45.91019" lon="4.62184">
        <ele>325</ele>
        <time>2020-12-13T10:41:06Z</time>
      </trkpt>
      <trkpt lat="45.91018" lon="4.62183">
        <ele>325</ele>
        <time>2020-12-13T10:41:07Z</time>
      </trkpt>
      <trkpt lat="45.91017" lon="4.62181">
        <ele>325.1</ele>
        <time>2020-12-13T10:41:08Z</time>
      </trkpt>
      <trkpt lat="45.91015" lon="4.62179">
        <ele>325.1</ele>
        <time>2020-12-13T10:41:09Z</time>
      </trkpt>
      <trkpt lat="45.91014" lon="4.62176">
        <ele>325.1</ele>
        <time>2020-12-13T10:41:10Z</time>
      </trkpt>
      <trkpt lat="45.91013" lon="4.62176">
        <ele>325.1</ele>
        <time>2020-12-13T10:41:11Z</time>
      </trkpt>
      <trkpt lat="45.91013" lon="4.62175">
        <ele>325.1</ele>
        <time>2020-12-13T10:41:12Z</time>
      </trkpt>
      <trkpt lat="45.91012" lon="4.62175">
        <ele>325.1</ele>
        <time>2020-12-13T10:41:13Z</time>
      </trkpt>
      <trkpt lat="45.91012" lon="4.62173">
        <ele>325.1</ele>
        <time>2020-12-13T10:41:14Z</time>
      </trkpt>
      <trkpt lat="45.9101" lon="4.62171">
        <ele>325.2</ele>
        <time>2020-12-13T10:41:15Z</time>
      </trkpt>
      <trkpt lat="45.91009" lon="4.62169">
        <ele>325.2</ele>
        <time>2020-12-13T10:41:16Z</time>
      </trkpt>
      <trkpt lat="45.91008" lon="4.62168">
        <ele>325.2</ele>
        <time>2020-12-13T10:41:17Z</time>
      </trkpt>
      <trkpt lat="45.91007" lon="4.62167">
        <ele>325.2</ele>
        <time>2020-12-13T10:41:18Z</time>
      </trkpt>
      <trkpt lat="45.91007" lon="4.62166">
        <ele>325.3</ele>
        <time>2020-12-13T10:41:19Z</time>
      </trkpt>
      <trkpt lat="45.91006" lon="4.62164">
        <ele>325.3</ele>
        <time>2020-12-13T10:41:20Z</time>
      </trkpt>
      <trkpt lat="45.91005" lon="4.62162">
        <ele>325.3</ele>
        <time>2020-12-13T10:41:21Z</time>
      </trkpt>
      <trkpt lat="45.91004" lon="4.62161">
        <ele>325.4</ele>
        <time>2020-12-13T10:41:22Z</time>
      </trkpt>
      <trkpt lat="45.91002" lon="4.62158">
        <ele>325.5</ele>
        <time>2020-12-13T10:41:23Z</time>
      </trkpt>
      <trkpt lat="45.91002" lon="4.62157">
        <ele>325.5</ele>
        <time>2020-12-13T10:41:24Z</time>
      </trkpt>
      <trkpt lat="45.91002" lon="4.62156">
        <ele>325.5</ele>
        <time>2020-12-13T10:41:25Z</time>
      </trkpt>
      <trkpt lat="45.91001" lon="4.62154">
        <ele>325.6</ele>
        <time>2020-12-13T10:41:26Z</time>
      </trkpt>
      <trkpt lat="45.91" lon="4.62152">
        <ele>325.6</ele>
        <time>2020-12-13T10:41:27Z</time>
      </trkpt>
      <trkpt lat="45.90999" lon="4.6215">
        <ele>325.7</ele>
        <time>2020-12-13T10:41:28Z</time>
      </trkpt>
      <trkpt lat="45.90999" lon="4.62149">
        <ele>325.8</ele>
        <time>2020-12-13T10:41:29Z</time>
      </trkpt>
      <trkpt lat="45.90997" lon="4.62148">
        <ele>325.8</ele>
        <time>2020-12-13T10:41:30Z</time>
      </trkpt>
      <trkpt lat="45.90996" lon="4.62145">
        <ele>325.9</ele>
        <time>2020-12-13T10:41:31Z</time>
      </trkpt>
      <trkpt lat="45.90996" lon="4.62145">
        <ele>325.9</ele>
        <time>2020-12-13T10:41:32Z</time>
      </trkpt>
      <trkpt lat="45.90995" lon="4.62143">
        <ele>326</ele>
        <time>2020-12-13T10:41:33Z</time>
      </trkpt>
      <trkpt lat="45.90994" lon="4.62142">
        <ele>326</ele>
        <time>2020-12-13T10:41:34Z</time>
      </trkpt>
      <trkpt lat="45.90994" lon="4.62141">
        <ele>326.1</ele>
        <time>2020-12-13T10:41:35Z</time>
      </trkpt>
      <trkpt lat="45.90993" lon="4.62139">
        <ele>326.2</ele>
        <time>2020-12-13T10:41:36Z</time>
      </trkpt>
      <trkpt lat="45.90992" lon="4.62136">
        <ele>326.2</ele>
        <time>2020-12-13T10:41:37Z</time>
      </trkpt>
      <trkpt lat="45.90991" lon="4.62135">
        <ele>326.2</ele>
        <time>2020-12-13T10:41:38Z</time>
      </trkpt>
      <trkpt lat="45.90991" lon="4.62134">
        <ele>326.3</ele>
        <time>2020-12-13T10:41:39Z</time>
      </trkpt>
      <trkpt lat="45.90989" lon="4.62132">
        <ele>326.3</ele>
        <time>2020-12-13T10:41:40Z</time>
      </trkpt>
      <trkpt lat="45.90989" lon="4.62131">
        <ele>326.3</ele>
        <time>2020-12-13T10:41:41Z</time>
      </trkpt>
      <trkpt lat="45.90988" lon="4.6213">
        <ele>326.3</ele>
        <time>2020-12-13T10:41:42Z</time>
      </trkpt>
      <trkpt lat="45.90987" lon="4.62129">
        <ele>326.4</ele>
        <time>2020-12-13T10:41:43Z</time>
      </trkpt>
      <trkpt lat="45.90986" lon="4.62128">
        <ele>326.4</ele>
        <time>2020-12-13T10:41:44Z</time>
      </trkpt>
      <trkpt lat="45.90986" lon="4.62127">
        <ele>326.4</ele>
        <time>2020-12-13T10:41:45Z</time>
      </trkpt>
      <trkpt lat="45.90984" lon="4.62124">
        <ele>326.4</ele>
        <time>2020-12-13T10:41:46Z</time>
      </trkpt>
      <trkpt lat="45.90983" lon="4.62123">
        <ele>326.4</ele>
        <time>2020-12-13T10:41:47Z</time>
      </trkpt>
      <trkpt lat="45.90982" lon="4.6212">
        <ele>326.4</ele>
        <time>2020-12-13T10:41:48Z</time>
      </trkpt>
      <trkpt lat="45.90981" lon="4.6212">
        <ele>326.4</ele>
        <time>2020-12-13T10:41:49Z</time>
      </trkpt>
      <trkpt lat="45.9098" lon="4.62119">
        <ele>326.5</ele>
        <time>2020-12-13T10:41:50Z</time>
      </trkpt>
      <trkpt lat="45.9098" lon="4.62119">
        <ele>326.5</ele>
        <time>2020-12-13T10:41:51Z</time>
      </trkpt>
      <trkpt lat="45.90979" lon="4.62116">
        <ele>326.5</ele>
        <time>2020-12-13T10:41:52Z</time>
      </trkpt>
      <trkpt lat="45.90978" lon="4.62116">
        <ele>326.5</ele>
        <time>2020-12-13T10:41:53Z</time>
      </trkpt>
      <trkpt lat="45.90977" lon="4.62114">
        <ele>326.5</ele>
        <time>2020-12-13T10:41:54Z</time>
      </trkpt>
      <trkpt lat="45.90976" lon="4.62113">
        <ele>326.5</ele>
        <time>2020-12-13T10:41:55Z</time>
      </trkpt>
      <trkpt lat="45.90974" lon="4.6211">
        <ele>326.5</ele>
        <time>2020-12-13T10:41:56Z</time>
      </trkpt>
      <trkpt lat="45.90974" lon="4.62109">
        <ele>326.6</ele>
        <time>2020-12-13T10:41:57Z</time>
      </trkpt>
      <trkpt lat="45.90973" lon="4.62108">
        <ele>326.6</ele>
        <time>2020-12-13T10:41:58Z</time>
      </trkpt>
      <trkpt lat="45.90972" lon="4.62107">
        <ele>326.6</ele>
        <time>2020-12-13T10:41:59Z</time>
      </trkpt>
      <trkpt lat="45.90971" lon="4.62106">
        <ele>326.6</ele>
        <time>2020-12-13T10:42:00Z</time>
      </trkpt>
      <trkpt lat="45.90969" lon="4.62103">
        <ele>326.6</ele>
        <time>2020-12-13T10:42:01Z</time>
      </trkpt>
      <trkpt lat="45.90968" lon="4.62102">
        <ele>326.7</ele>
        <time>2020-12-13T10:42:02Z</time>
      </trkpt>
      <trkpt lat="45.90968" lon="4.62102">
        <ele>326.7</ele>
        <time>2020-12-13T10:42:03Z</time>
      </trkpt>
      <trkpt lat="45.90967" lon="4.621">
        <ele>326.7</ele>
        <time>2020-12-13T10:42:04Z</time>
      </trkpt>
      <trkpt lat="45.90966" lon="4.62098">
        <ele>326.7</ele>
        <time>2020-12-13T10:42:05Z</time>
      </trkpt>
      <trkpt lat="45.90965" lon="4.62096">
        <ele>326.8</ele>
        <time>2020-12-13T10:42:06Z</time>
      </trkpt>
      <trkpt lat="45.90965" lon="4.62095">
        <ele>326.8</ele>
        <time>2020-12-13T10:42:07Z</time>
      </trkpt>
      <trkpt lat="45.90964" lon="4.62094">
        <ele>326.8</ele>
        <time>2020-12-13T10:42:08Z</time>
      </trkpt>
      <trkpt lat="45.90964" lon="4.62093">
        <ele>326.8</ele>
        <time>2020-12-13T10:42:09Z</time>
      </trkpt>
      <trkpt lat="45.90962" lon="4.62092">
        <ele>326.9</ele>
        <time>2020-12-13T10:42:10Z</time>
      </trkpt>
      <trkpt lat="45.90961" lon="4.62091">
        <ele>326.9</ele>
        <time>2020-12-13T10:42:11Z</time>
      </trkpt>
      <trkpt lat="45.90959" lon="4.62088">
        <ele>327</ele>
        <time>2020-12-13T10:42:12Z</time>
      </trkpt>
      <trkpt lat="45.90957" lon="4.62087">
        <ele>327</ele>
        <time>2020-12-13T10:42:13Z</time>
      </trkpt>
      <trkpt lat="45.90956" lon="4.62086">
        <ele>327.1</ele>
        <time>2020-12-13T10:42:14Z</time>
      </trkpt>
      <trkpt lat="45.90955" lon="4.62085">
        <ele>327.1</ele>
        <time>2020-12-13T10:42:16Z</time>
      </trkpt>
      <trkpt lat="45.90953" lon="4.62084">
        <ele>327.2</ele>
        <time>2020-12-13T10:42:17Z</time>
      </trkpt>
      <trkpt lat="45.90952" lon="4.62083">
        <ele>327.2</ele>
        <time>2020-12-13T10:42:18Z</time>
      </trkpt>
      <trkpt lat="45.90949" lon="4.62081">
        <ele>327.2</ele>
        <time>2020-12-13T10:42:19Z</time>
      </trkpt>
      <trkpt lat="45.90948" lon="4.62081">
        <ele>327.2</ele>
        <time>2020-12-13T10:42:20Z</time>
      </trkpt>
      <trkpt lat="45.90948" lon="4.62081">
        <ele>327.2</ele>
        <time>2020-12-13T10:42:21Z</time>
      </trkpt>
      <trkpt lat="45.90945" lon="4.6208">
        <ele>327.2</ele>
        <time>2020-12-13T10:42:22Z</time>
      </trkpt>
      <trkpt lat="45.90944" lon="4.62079">
        <ele>327.2</ele>
        <time>2020-12-13T10:42:23Z</time>
      </trkpt>
      <trkpt lat="45.90941" lon="4.62078">
        <ele>327.2</ele>
        <time>2020-12-13T10:42:24Z</time>
      </trkpt>
      <trkpt lat="45.90939" lon="4.62078">
        <ele>327.2</ele>
        <time>2020-12-13T10:42:25Z</time>
      </trkpt>
      <trkpt lat="45.90938" lon="4.62078">
        <ele>327.2</ele>
        <time>2020-12-13T10:42:26Z</time>
      </trkpt>
      <trkpt lat="45.90937" lon="4.62078">
        <ele>327.2</ele>
        <time>2020-12-13T10:42:27Z</time>
      </trkpt>
      <trkpt lat="45.90935" lon="4.62078">
        <ele>327.2</ele>
        <time>2020-12-13T10:42:28Z</time>
      </trkpt>
      <trkpt lat="45.90934" lon="4.62079">
        <ele>327.2</ele>
        <time>2020-12-13T10:42:29Z</time>
      </trkpt>
      <trkpt lat="45.90933" lon="4.62079">
        <ele>327.2</ele>
        <time>2020-12-13T10:42:30Z</time>
      </trkpt>
      <trkpt lat="45.90932" lon="4.62079">
        <ele>327.2</ele>
        <time>2020-12-13T10:42:31Z</time>
      </trkpt>
      <trkpt lat="45.90931" lon="4.6208">
        <ele>327.2</ele>
        <time>2020-12-13T10:42:32Z</time>
      </trkpt>
      <trkpt lat="45.90929" lon="4.62081">
        <ele>327.2</ele>
        <time>2020-12-13T10:42:33Z</time>
      </trkpt>
      <trkpt lat="45.90928" lon="4.62081">
        <ele>327.2</ele>
        <time>2020-12-13T10:42:34Z</time>
      </trkpt>
      <trkpt lat="45.90927" lon="4.62082">
        <ele>327.2</ele>
        <time>2020-12-13T10:42:35Z</time>
      </trkpt>
      <trkpt lat="45.90925" lon="4.62081">
        <ele>327.2</ele>
        <time>2020-12-13T10:42:36Z</time>
      </trkpt>
      <trkpt lat="45.90924" lon="4.62082">
        <ele>327.2</ele>
        <time>2020-12-13T10:42:37Z</time>
      </trkpt>
      <trkpt lat="45.90922" lon="4.62082">
        <ele>327.2</ele>
        <time>2020-12-13T10:42:38Z</time>
      </trkpt>
      <trkpt lat="45.90921" lon="4.62082">
        <ele>327.2</ele>
        <time>2020-12-13T10:42:39Z</time>
      </trkpt>
      <trkpt lat="45.90919" lon="4.62083">
        <ele>327.2</ele>
        <time>2020-12-13T10:42:40Z</time>
      </trkpt>
      <trkpt lat="45.90918" lon="4.62083">
        <ele>327.2</ele>
        <time>2020-12-13T10:42:41Z</time>
      </trkpt>
      <trkpt lat="45.90917" lon="4.62084">
        <ele>327.2</ele>
        <time>2020-12-13T10:42:42Z</time>
      </trkpt>
      <trkpt lat="45.90917" lon="4.62084">
        <ele>327.2</ele>
        <time>2020-12-13T10:42:43Z</time>
      </trkpt>
      <trkpt lat="45.90914" lon="4.62085">
        <ele>327.2</ele>
        <time>2020-12-13T10:42:44Z</time>
      </trkpt>
      <trkpt lat="45.90913" lon="4.62086">
        <ele>327.2</ele>
        <time>2020-12-13T10:42:45Z</time>
      </trkpt>
      <trkpt lat="45.90911" lon="4.62086">
        <ele>327.2</ele>
        <time>2020-12-13T10:42:46Z</time>
      </trkpt>
      <trkpt lat="45.9091" lon="4.62086">
        <ele>327.2</ele>
        <time>2020-12-13T10:42:47Z</time>
      </trkpt>
      <trkpt lat="45.90909" lon="4.62086">
        <ele>327.2</ele>
        <time>2020-12-13T10:42:48Z</time>
      </trkpt>
      <trkpt lat="45.90906" lon="4.62087">
        <ele>327.2</ele>
        <time>2020-12-13T10:42:49Z</time>
      </trkpt>
      <trkpt lat="45.90905" lon="4.62087">
        <ele>327.2</ele>
        <time>2020-12-13T10:42:50Z</time>
      </trkpt>
      <trkpt lat="45.90905" lon="4.62088">
        <ele>327.2</ele>
        <time>2020-12-13T10:42:51Z</time>
      </trkpt>
      <trkpt lat="45.90905" lon="4.62088">
        <ele>327.2</ele>
        <time>2020-12-13T10:42:52Z</time>
      </trkpt>
      <trkpt lat="45.90903" lon="4.62089">
        <ele>327.2</ele>
        <time>2020-12-13T10:42:53Z</time>
      </trkpt>
      <trkpt lat="45.90902" lon="4.62089">
        <ele>327.2</ele>
        <time>2020-12-13T10:42:54Z</time>
      </trkpt>
      <trkpt lat="45.90901" lon="4.62089">
        <ele>327.2</ele>
        <time>2020-12-13T10:42:55Z</time>
      </trkpt>
      <trkpt lat="45.90899" lon="4.6209">
        <ele>327.3</ele>
        <time>2020-12-13T10:42:56Z</time>
      </trkpt>
      <trkpt lat="45.90898" lon="4.6209">
        <ele>327.3</ele>
        <time>2020-12-13T10:42:57Z</time>
      </trkpt>
      <trkpt lat="45.90897" lon="4.62091">
        <ele>327.3</ele>
        <time>2020-12-13T10:42:58Z</time>
      </trkpt>
      <trkpt lat="45.90895" lon="4.62091">
        <ele>327.3</ele>
        <time>2020-12-13T10:42:59Z</time>
      </trkpt>
      <trkpt lat="45.90894" lon="4.62092">
        <ele>327.3</ele>
        <time>2020-12-13T10:43:00Z</time>
      </trkpt>
      <trkpt lat="45.90893" lon="4.62092">
        <ele>327.3</ele>
        <time>2020-12-13T10:43:01Z</time>
      </trkpt>
      <trkpt lat="45.90892" lon="4.62092">
        <ele>327.3</ele>
        <time>2020-12-13T10:43:02Z</time>
      </trkpt>
      <trkpt lat="45.9089" lon="4.62093">
        <ele>327.3</ele>
        <time>2020-12-13T10:43:03Z</time>
      </trkpt>
      <trkpt lat="45.90889" lon="4.62094">
        <ele>327.3</ele>
        <time>2020-12-13T10:43:04Z</time>
      </trkpt>
      <trkpt lat="45.90888" lon="4.62094">
        <ele>327.3</ele>
        <time>2020-12-13T10:43:05Z</time>
      </trkpt>
      <trkpt lat="45.90888" lon="4.62094">
        <ele>327.3</ele>
        <time>2020-12-13T10:43:06Z</time>
      </trkpt>
      <trkpt lat="45.90887" lon="4.62095">
        <ele>327.3</ele>
        <time>2020-12-13T10:43:07Z</time>
      </trkpt>
      <trkpt lat="45.90884" lon="4.62096">
        <ele>327.4</ele>
        <time>2020-12-13T10:43:08Z</time>
      </trkpt>
      <trkpt lat="45.90883" lon="4.62096">
        <ele>327.4</ele>
        <time>2020-12-13T10:43:09Z</time>
      </trkpt>
      <trkpt lat="45.90881" lon="4.62096">
        <ele>327.4</ele>
        <time>2020-12-13T10:43:10Z</time>
      </trkpt>
      <trkpt lat="45.90881" lon="4.62097">
        <ele>327.4</ele>
        <time>2020-12-13T10:43:11Z</time>
      </trkpt>
      <trkpt lat="45.90879" lon="4.62097">
        <ele>327.4</ele>
        <time>2020-12-13T10:43:12Z</time>
      </trkpt>
      <trkpt lat="45.90879" lon="4.62098">
        <ele>327.4</ele>
        <time>2020-12-13T10:43:13Z</time>
      </trkpt>
      <trkpt lat="45.90878" lon="4.62098">
        <ele>327.4</ele>
        <time>2020-12-13T10:43:14Z</time>
      </trkpt>
      <trkpt lat="45.90876" lon="4.62099">
        <ele>327.5</ele>
        <time>2020-12-13T10:43:15Z</time>
      </trkpt>
      <trkpt lat="45.90874" lon="4.621">
        <ele>327.5</ele>
        <time>2020-12-13T10:43:16Z</time>
      </trkpt>
      <trkpt lat="45.90873" lon="4.621">
        <ele>327.5</ele>
        <time>2020-12-13T10:43:17Z</time>
      </trkpt>
      <trkpt lat="45.90872" lon="4.62101">
        <ele>327.5</ele>
        <time>2020-12-13T10:43:18Z</time>
      </trkpt>
      <trkpt lat="45.9087" lon="4.62102">
        <ele>327.5</ele>
        <time>2020-12-13T10:43:19Z</time>
      </trkpt>
      <trkpt lat="45.9087" lon="4.62103">
        <ele>327.5</ele>
        <time>2020-12-13T10:43:20Z</time>
      </trkpt>
      <trkpt lat="45.90869" lon="4.62104">
        <ele>327.5</ele>
        <time>2020-12-13T10:43:21Z</time>
      </trkpt>
      <trkpt lat="45.90867" lon="4.62104">
        <ele>327.6</ele>
        <time>2020-12-13T10:43:22Z</time>
      </trkpt>
      <trkpt lat="45.90866" lon="4.62105">
        <ele>327.6</ele>
        <time>2020-12-13T10:43:23Z</time>
      </trkpt>
      <trkpt lat="45.90865" lon="4.62106">
        <ele>327.6</ele>
        <time>2020-12-13T10:43:24Z</time>
      </trkpt>
      <trkpt lat="45.90863" lon="4.62106">
        <ele>327.6</ele>
        <time>2020-12-13T10:43:25Z</time>
      </trkpt>
      <trkpt lat="45.90862" lon="4.62106">
        <ele>327.6</ele>
        <time>2020-12-13T10:43:26Z</time>
      </trkpt>
      <trkpt lat="45.90862" lon="4.62106">
        <ele>327.6</ele>
        <time>2020-12-13T10:43:27Z</time>
      </trkpt>
      <trkpt lat="45.90861" lon="4.62106">
        <ele>327.6</ele>
        <time>2020-12-13T10:43:28Z</time>
      </trkpt>
      <trkpt lat="45.90861" lon="4.62107">
        <ele>327.7</ele>
        <time>2020-12-13T10:43:29Z</time>
      </trkpt>
      <trkpt lat="45.90859" lon="4.62108">
        <ele>327.7</ele>
        <time>2020-12-13T10:43:30Z</time>
      </trkpt>
      <trkpt lat="45.90856" lon="4.62109">
        <ele>327.7</ele>
        <time>2020-12-13T10:43:31Z</time>
      </trkpt>
      <trkpt lat="45.90854" lon="4.62109">
        <ele>327.7</ele>
        <time>2020-12-13T10:43:32Z</time>
      </trkpt>
      <trkpt lat="45.90854" lon="4.6211">
        <ele>327.7</ele>
        <time>2020-12-13T10:43:33Z</time>
      </trkpt>
      <trkpt lat="45.90853" lon="4.62112">
        <ele>327.8</ele>
        <time>2020-12-13T10:43:34Z</time>
      </trkpt>
      <trkpt lat="45.90852" lon="4.62113">
        <ele>327.8</ele>
        <time>2020-12-13T10:43:35Z</time>
      </trkpt>
      <trkpt lat="45.90851" lon="4.62114">
        <ele>327.8</ele>
        <time>2020-12-13T10:43:36Z</time>
      </trkpt>
      <trkpt lat="45.9085" lon="4.62115">
        <ele>327.8</ele>
        <time>2020-12-13T10:43:37Z</time>
      </trkpt>
      <trkpt lat="45.90848" lon="4.62117">
        <ele>327.8</ele>
        <time>2020-12-13T10:43:38Z</time>
      </trkpt>
      <trkpt lat="45.90847" lon="4.62118">
        <ele>327.8</ele>
        <time>2020-12-13T10:43:39Z</time>
      </trkpt>
      <trkpt lat="45.90845" lon="4.62118">
        <ele>327.8</ele>
        <time>2020-12-13T10:43:40Z</time>
      </trkpt>
      <trkpt lat="45.90844" lon="4.62118">
        <ele>327.8</ele>
        <time>2020-12-13T10:43:41Z</time>
      </trkpt>
      <trkpt lat="45.90843" lon="4.62117">
        <ele>327.8</ele>
        <time>2020-12-13T10:43:42Z</time>
      </trkpt>
      <trkpt lat="45.90843" lon="4.62117">
        <ele>327.8</ele>
        <time>2020-12-13T10:43:43Z</time>
      </trkpt>
      <trkpt lat="45.9084" lon="4.62115">
        <ele>327.9</ele>
        <time>2020-12-13T10:43:44Z</time>
      </trkpt>
      <trkpt lat="45.90839" lon="4.62114">
        <ele>327.9</ele>
        <time>2020-12-13T10:43:45Z</time>
      </trkpt>
      <trkpt lat="45.90838" lon="4.62112">
        <ele>327.7</ele>
        <time>2020-12-13T10:43:46Z</time>
      </trkpt>
      <trkpt lat="45.90838" lon="4.6211">
        <ele>327.7</ele>
        <time>2020-12-13T10:43:47Z</time>
      </trkpt>
      <trkpt lat="45.90837" lon="4.62109">
        <ele>327.7</ele>
        <time>2020-12-13T10:43:48Z</time>
      </trkpt>
      <trkpt lat="45.90837" lon="4.62106">
        <ele>327.6</ele>
        <time>2020-12-13T10:43:49Z</time>
      </trkpt>
      <trkpt lat="45.90837" lon="4.62105">
        <ele>327.6</ele>
        <time>2020-12-13T10:43:50Z</time>
      </trkpt>
      <trkpt lat="45.90837" lon="4.62104">
        <ele>327.6</ele>
        <time>2020-12-13T10:43:51Z</time>
      </trkpt>
      <trkpt lat="45.90836" lon="4.62102">
        <ele>327.6</ele>
        <time>2020-12-13T10:43:52Z</time>
      </trkpt>
      <trkpt lat="45.90836" lon="4.62101">
        <ele>327.5</ele>
        <time>2020-12-13T10:43:53Z</time>
      </trkpt>
      <trkpt lat="45.90835" lon="4.62101">
        <ele>327.5</ele>
        <time>2020-12-13T10:43:54Z</time>
      </trkpt>
      <trkpt lat="45.90835" lon="4.62098">
        <ele>327.4</ele>
        <time>2020-12-13T10:43:55Z</time>
      </trkpt>
      <trkpt lat="45.90835" lon="4.62096">
        <ele>327.4</ele>
        <time>2020-12-13T10:43:56Z</time>
      </trkpt>
      <trkpt lat="45.90834" lon="4.62094">
        <ele>327.3</ele>
        <time>2020-12-13T10:43:57Z</time>
      </trkpt>
      <trkpt lat="45.90834" lon="4.62093">
        <ele>327.3</ele>
        <time>2020-12-13T10:43:58Z</time>
      </trkpt>
      <trkpt lat="45.90834" lon="4.62092">
        <ele>327.3</ele>
        <time>2020-12-13T10:43:59Z</time>
      </trkpt>
      <trkpt lat="45.90834" lon="4.6209">
        <ele>327.2</ele>
        <time>2020-12-13T10:44:00Z</time>
      </trkpt>
      <trkpt lat="45.90834" lon="4.62089">
        <ele>327.2</ele>
        <time>2020-12-13T10:44:01Z</time>
      </trkpt>
      <trkpt lat="45.90834" lon="4.62087">
        <ele>327.2</ele>
        <time>2020-12-13T10:44:02Z</time>
      </trkpt>
      <trkpt lat="45.90833" lon="4.62085">
        <ele>327.1</ele>
        <time>2020-12-13T10:44:03Z</time>
      </trkpt>
      <trkpt lat="45.90833" lon="4.62081">
        <ele>327</ele>
        <time>2020-12-13T10:44:04Z</time>
      </trkpt>
      <trkpt lat="45.90833" lon="4.6208">
        <ele>327</ele>
        <time>2020-12-13T10:44:05Z</time>
      </trkpt>
      <trkpt lat="45.90833" lon="4.62079">
        <ele>327</ele>
        <time>2020-12-13T10:44:06Z</time>
      </trkpt>
      <trkpt lat="45.90833" lon="4.62076">
        <ele>326.9</ele>
        <time>2020-12-13T10:44:07Z</time>
      </trkpt>
      <trkpt lat="45.90834" lon="4.62074">
        <ele>326.9</ele>
        <time>2020-12-13T10:44:08Z</time>
      </trkpt>
      <trkpt lat="45.90833" lon="4.62072">
        <ele>326.9</ele>
        <time>2020-12-13T10:44:09Z</time>
      </trkpt>
      <trkpt lat="45.90834" lon="4.62069">
        <ele>326.8</ele>
        <time>2020-12-13T10:44:10Z</time>
      </trkpt>
      <trkpt lat="45.90834" lon="4.62067">
        <ele>326.8</ele>
        <time>2020-12-13T10:44:11Z</time>
      </trkpt>
      <trkpt lat="45.90833" lon="4.62066">
        <ele>326.7</ele>
        <time>2020-12-13T10:44:12Z</time>
      </trkpt>
      <trkpt lat="45.90833" lon="4.62065">
        <ele>326.7</ele>
        <time>2020-12-13T10:44:13Z</time>
      </trkpt>
      <trkpt lat="45.90833" lon="4.62061">
        <ele>326.6</ele>
        <time>2020-12-13T10:44:14Z</time>
      </trkpt>
      <trkpt lat="45.90834" lon="4.62059">
        <ele>326.6</ele>
        <time>2020-12-13T10:44:15Z</time>
      </trkpt>
      <trkpt lat="45.90833" lon="4.62058">
        <ele>326.6</ele>
        <time>2020-12-13T10:44:16Z</time>
      </trkpt>
      <trkpt lat="45.90833" lon="4.62055">
        <ele>326.5</ele>
        <time>2020-12-13T10:44:17Z</time>
      </trkpt>
      <trkpt lat="45.90833" lon="4.62054">
        <ele>326.5</ele>
        <time>2020-12-13T10:44:18Z</time>
      </trkpt>
      <trkpt lat="45.90832" lon="4.62052">
        <ele>326.4</ele>
        <time>2020-12-13T10:44:19Z</time>
      </trkpt>
      <trkpt lat="45.90832" lon="4.6205">
        <ele>326.4</ele>
        <time>2020-12-13T10:44:20Z</time>
      </trkpt>
      <trkpt lat="45.90832" lon="4.62048">
        <ele>326.3</ele>
        <time>2020-12-13T10:44:22Z</time>
      </trkpt>
      <trkpt lat="45.90832" lon="4.62046">
        <ele>326.3</ele>
        <time>2020-12-13T10:44:23Z</time>
      </trkpt>
      <trkpt lat="45.90832" lon="4.62043">
        <ele>326.2</ele>
        <time>2020-12-13T10:44:24Z</time>
      </trkpt>
      <trkpt lat="45.90832" lon="4.62042">
        <ele>326.2</ele>
        <time>2020-12-13T10:44:25Z</time>
      </trkpt>
      <trkpt lat="45.90832" lon="4.6204">
        <ele>326.2</ele>
        <time>2020-12-13T10:44:26Z</time>
      </trkpt>
      <trkpt lat="45.90832" lon="4.62037">
        <ele>326.1</ele>
        <time>2020-12-13T10:44:27Z</time>
      </trkpt>
      <trkpt lat="45.90831" lon="4.62033">
        <ele>326</ele>
        <time>2020-12-13T10:44:28Z</time>
      </trkpt>
      <trkpt lat="45.90831" lon="4.62031">
        <ele>325.9</ele>
        <time>2020-12-13T10:44:30Z</time>
      </trkpt>
      <trkpt lat="45.90831" lon="4.62029">
        <ele>325.8</ele>
        <time>2020-12-13T10:44:31Z</time>
      </trkpt>
      <trkpt lat="45.90831" lon="4.62028">
        <ele>325.8</ele>
        <time>2020-12-13T10:44:32Z</time>
      </trkpt>
      <trkpt lat="45.90831" lon="4.62026">
        <ele>325.8</ele>
        <time>2020-12-13T10:44:33Z</time>
      </trkpt>
      <trkpt lat="45.90831" lon="4.62025">
        <ele>325.7</ele>
        <time>2020-12-13T10:44:34Z</time>
      </trkpt>
      <trkpt lat="45.90831" lon="4.62022">
        <ele>325.7</ele>
        <time>2020-12-13T10:44:35Z</time>
      </trkpt>
      <trkpt lat="45.9083" lon="4.62022">
        <ele>325.6</ele>
        <time>2020-12-13T10:44:36Z</time>
      </trkpt>
      <trkpt lat="45.9083" lon="4.62021">
        <ele>325.6</ele>
        <time>2020-12-13T10:44:37Z</time>
      </trkpt>
      <trkpt lat="45.9083" lon="4.62019">
        <ele>325.6</ele>
        <time>2020-12-13T10:44:38Z</time>
      </trkpt>
      <trkpt lat="45.9083" lon="4.62017">
        <ele>325.5</ele>
        <time>2020-12-13T10:44:40Z</time>
      </trkpt>
      <trkpt lat="45.9083" lon="4.62014">
        <ele>325.4</ele>
        <time>2020-12-13T10:44:41Z</time>
      </trkpt>
      <trkpt lat="45.9083" lon="4.62012">
        <ele>325.4</ele>
        <time>2020-12-13T10:44:42Z</time>
      </trkpt>
      <trkpt lat="45.9083" lon="4.62011">
        <ele>325.3</ele>
        <time>2020-12-13T10:44:43Z</time>
      </trkpt>
      <trkpt lat="45.90829" lon="4.62008">
        <ele>325.2</ele>
        <time>2020-12-13T10:44:44Z</time>
      </trkpt>
      <trkpt lat="45.90829" lon="4.62007">
        <ele>325.2</ele>
        <time>2020-12-13T10:44:45Z</time>
      </trkpt>
      <trkpt lat="45.90829" lon="4.62005">
        <ele>325.2</ele>
        <time>2020-12-13T10:44:46Z</time>
      </trkpt>
      <trkpt lat="45.90829" lon="4.62003">
        <ele>325.1</ele>
        <time>2020-12-13T10:44:47Z</time>
      </trkpt>
      <trkpt lat="45.90829" lon="4.62001">
        <ele>325</ele>
        <time>2020-12-13T10:44:48Z</time>
      </trkpt>
      <trkpt lat="45.90829" lon="4.62">
        <ele>325</ele>
        <time>2020-12-13T10:44:49Z</time>
      </trkpt>
      <trkpt lat="45.90828" lon="4.61998">
        <ele>325</ele>
        <time>2020-12-13T10:44:50Z</time>
      </trkpt>
      <trkpt lat="45.90828" lon="4.61995">
        <ele>324.9</ele>
        <time>2020-12-13T10:44:51Z</time>
      </trkpt>
      <trkpt lat="45.90828" lon="4.61994">
        <ele>324.8</ele>
        <time>2020-12-13T10:44:52Z</time>
      </trkpt>
      <trkpt lat="45.90828" lon="4.61992">
        <ele>324.8</ele>
        <time>2020-12-13T10:44:53Z</time>
      </trkpt>
      <trkpt lat="45.90828" lon="4.6199">
        <ele>324.7</ele>
        <time>2020-12-13T10:44:54Z</time>
      </trkpt>
      <trkpt lat="45.90828" lon="4.61989">
        <ele>324.7</ele>
        <time>2020-12-13T10:44:55Z</time>
      </trkpt>
      <trkpt lat="45.90827" lon="4.61985">
        <ele>324.5</ele>
        <time>2020-12-13T10:44:56Z</time>
      </trkpt>
      <trkpt lat="45.90826" lon="4.61984">
        <ele>324.5</ele>
        <time>2020-12-13T10:44:57Z</time>
      </trkpt>
      <trkpt lat="45.90826" lon="4.61981">
        <ele>324.4</ele>
        <time>2020-12-13T10:44:58Z</time>
      </trkpt>
      <trkpt lat="45.90826" lon="4.61979">
        <ele>324.3</ele>
        <time>2020-12-13T10:44:59Z</time>
      </trkpt>
      <trkpt lat="45.90827" lon="4.61977">
        <ele>324.3</ele>
        <time>2020-12-13T10:45:00Z</time>
      </trkpt>
      <trkpt lat="45.90827" lon="4.61975">
        <ele>324.2</ele>
        <time>2020-12-13T10:45:01Z</time>
      </trkpt>
      <trkpt lat="45.90826" lon="4.61972">
        <ele>324.1</ele>
        <time>2020-12-13T10:45:02Z</time>
      </trkpt>
      <trkpt lat="45.90826" lon="4.6197">
        <ele>324</ele>
        <time>2020-12-13T10:45:03Z</time>
      </trkpt>
      <trkpt lat="45.90826" lon="4.61969">
        <ele>323.9</ele>
        <time>2020-12-13T10:45:04Z</time>
      </trkpt>
      <trkpt lat="45.90826" lon="4.61967">
        <ele>323.9</ele>
        <time>2020-12-13T10:45:05Z</time>
      </trkpt>
      <trkpt lat="45.90826" lon="4.61965">
        <ele>323.8</ele>
        <time>2020-12-13T10:45:06Z</time>
      </trkpt>
      <trkpt lat="45.90825" lon="4.61963">
        <ele>323.7</ele>
        <time>2020-12-13T10:45:07Z</time>
      </trkpt>
      <trkpt lat="45.90826" lon="4.6196">
        <ele>323.6</ele>
        <time>2020-12-13T10:45:08Z</time>
      </trkpt>
      <trkpt lat="45.90825" lon="4.61957">
        <ele>323.5</ele>
        <time>2020-12-13T10:45:09Z</time>
      </trkpt>
      <trkpt lat="45.90825" lon="4.61956">
        <ele>323.5</ele>
        <time>2020-12-13T10:45:10Z</time>
      </trkpt>
      <trkpt lat="45.90825" lon="4.61954">
        <ele>323.4</ele>
        <time>2020-12-13T10:45:11Z</time>
      </trkpt>
      <trkpt lat="45.90825" lon="4.6195">
        <ele>323.3</ele>
        <time>2020-12-13T10:45:12Z</time>
      </trkpt>
      <trkpt lat="45.90825" lon="4.61949">
        <ele>323.3</ele>
        <time>2020-12-13T10:45:13Z</time>
      </trkpt>
      <trkpt lat="45.90825" lon="4.61948">
        <ele>323.3</ele>
        <time>2020-12-13T10:45:14Z</time>
      </trkpt>
      <trkpt lat="45.90825" lon="4.61947">
        <ele>323.2</ele>
        <time>2020-12-13T10:45:15Z</time>
      </trkpt>
      <trkpt lat="45.90825" lon="4.61944">
        <ele>323.1</ele>
        <time>2020-12-13T10:45:16Z</time>
      </trkpt>
      <trkpt lat="45.90825" lon="4.61943">
        <ele>323.1</ele>
        <time>2020-12-13T10:45:17Z</time>
      </trkpt>
      <trkpt lat="45.90825" lon="4.6194">
        <ele>323</ele>
        <time>2020-12-13T10:45:18Z</time>
      </trkpt>
      <trkpt lat="45.90825" lon="4.61937">
        <ele>322.9</ele>
        <time>2020-12-13T10:45:19Z</time>
      </trkpt>
      <trkpt lat="45.90825" lon="4.61936">
        <ele>322.9</ele>
        <time>2020-12-13T10:45:20Z</time>
      </trkpt>
      <trkpt lat="45.90825" lon="4.61935">
        <ele>322.9</ele>
        <time>2020-12-13T10:45:21Z</time>
      </trkpt>
      <trkpt lat="45.90825" lon="4.61932">
        <ele>322.8</ele>
        <time>2020-12-13T10:45:22Z</time>
      </trkpt>
      <trkpt lat="45.90824" lon="4.6193">
        <ele>322.8</ele>
        <time>2020-12-13T10:45:23Z</time>
      </trkpt>
      <trkpt lat="45.90824" lon="4.61928">
        <ele>322.7</ele>
        <time>2020-12-13T10:45:24Z</time>
      </trkpt>
      <trkpt lat="45.90824" lon="4.61927">
        <ele>322.7</ele>
        <time>2020-12-13T10:45:25Z</time>
      </trkpt>
      <trkpt lat="45.90824" lon="4.61925">
        <ele>322.6</ele>
        <time>2020-12-13T10:45:26Z</time>
      </trkpt>
      <trkpt lat="45.90824" lon="4.61921">
        <ele>322.5</ele>
        <time>2020-12-13T10:45:27Z</time>
      </trkpt>
      <trkpt lat="45.90825" lon="4.6192">
        <ele>322.5</ele>
        <time>2020-12-13T10:45:28Z</time>
      </trkpt>
      <trkpt lat="45.90825" lon="4.61918">
        <ele>322.5</ele>
        <time>2020-12-13T10:45:29Z</time>
      </trkpt>
      <trkpt lat="45.90824" lon="4.61918">
        <ele>322.5</ele>
        <time>2020-12-13T10:45:30Z</time>
      </trkpt>
      <trkpt lat="45.90824" lon="4.61916">
        <ele>322.4</ele>
        <time>2020-12-13T10:45:31Z</time>
      </trkpt>
      <trkpt lat="45.90824" lon="4.61914">
        <ele>322.4</ele>
        <time>2020-12-13T10:45:32Z</time>
      </trkpt>
      <trkpt lat="45.90824" lon="4.61912">
        <ele>322.4</ele>
        <time>2020-12-13T10:45:33Z</time>
      </trkpt>
      <trkpt lat="45.90825" lon="4.61909">
        <ele>322.3</ele>
        <time>2020-12-13T10:45:34Z</time>
      </trkpt>
      <trkpt lat="45.90824" lon="4.61908">
        <ele>322.3</ele>
        <time>2020-12-13T10:45:35Z</time>
      </trkpt>
      <trkpt lat="45.90824" lon="4.61905">
        <ele>322.3</ele>
        <time>2020-12-13T10:45:36Z</time>
      </trkpt>
      <trkpt lat="45.90825" lon="4.61904">
        <ele>322.2</ele>
        <time>2020-12-13T10:45:37Z</time>
      </trkpt>
      <trkpt lat="45.90825" lon="4.61902">
        <ele>322.2</ele>
        <time>2020-12-13T10:45:38Z</time>
      </trkpt>
      <trkpt lat="45.90824" lon="4.619">
        <ele>322.2</ele>
        <time>2020-12-13T10:45:39Z</time>
      </trkpt>
      <trkpt lat="45.90825" lon="4.61898">
        <ele>322.2</ele>
        <time>2020-12-13T10:45:40Z</time>
      </trkpt>
      <trkpt lat="45.90825" lon="4.61896">
        <ele>322.1</ele>
        <time>2020-12-13T10:45:41Z</time>
      </trkpt>
      <trkpt lat="45.90825" lon="4.61893">
        <ele>322.1</ele>
        <time>2020-12-13T10:45:42Z</time>
      </trkpt>
      <trkpt lat="45.90825" lon="4.61892">
        <ele>322.1</ele>
        <time>2020-12-13T10:45:43Z</time>
      </trkpt>
      <trkpt lat="45.90824" lon="4.6189">
        <ele>322.1</ele>
        <time>2020-12-13T10:45:44Z</time>
      </trkpt>
      <trkpt lat="45.90823" lon="4.6189">
        <ele>322.1</ele>
        <time>2020-12-13T10:45:45Z</time>
      </trkpt>
      <trkpt lat="45.90824" lon="4.61887">
        <ele>322</ele>
        <time>2020-12-13T10:45:46Z</time>
      </trkpt>
      <trkpt lat="45.90825" lon="4.61884">
        <ele>322</ele>
        <time>2020-12-13T10:45:47Z</time>
      </trkpt>
      <trkpt lat="45.90825" lon="4.61883">
        <ele>322</ele>
        <time>2020-12-13T10:45:48Z</time>
      </trkpt>
      <trkpt lat="45.90825" lon="4.61882">
        <ele>322</ele>
        <time>2020-12-13T10:45:49Z</time>
      </trkpt>
      <trkpt lat="45.90826" lon="4.61878">
        <ele>322</ele>
        <time>2020-12-13T10:45:50Z</time>
      </trkpt>
      <trkpt lat="45.90826" lon="4.61877">
        <ele>322</ele>
        <time>2020-12-13T10:45:51Z</time>
      </trkpt>
      <trkpt lat="45.90826" lon="4.61875">
        <ele>322</ele>
        <time>2020-12-13T10:45:52Z</time>
      </trkpt>
      <trkpt lat="45.90826" lon="4.61873">
        <ele>321.9</ele>
        <time>2020-12-13T10:45:53Z</time>
      </trkpt>
      <trkpt lat="45.90827" lon="4.61872">
        <ele>321.9</ele>
        <time>2020-12-13T10:45:54Z</time>
      </trkpt>
      <trkpt lat="45.90826" lon="4.61869">
        <ele>321.9</ele>
        <time>2020-12-13T10:45:55Z</time>
      </trkpt>
      <trkpt lat="45.90827" lon="4.61868">
        <ele>321.9</ele>
        <time>2020-12-13T10:45:56Z</time>
      </trkpt>
      <trkpt lat="45.90828" lon="4.61866">
        <ele>321.9</ele>
        <time>2020-12-13T10:45:57Z</time>
      </trkpt>
      <trkpt lat="45.90828" lon="4.61864">
        <ele>321.9</ele>
        <time>2020-12-13T10:45:58Z</time>
      </trkpt>
      <trkpt lat="45.90828" lon="4.61863">
        <ele>321.9</ele>
        <time>2020-12-13T10:45:59Z</time>
      </trkpt>
      <trkpt lat="45.90829" lon="4.6186">
        <ele>321.9</ele>
        <time>2020-12-13T10:46:00Z</time>
      </trkpt>
      <trkpt lat="45.90829" lon="4.61859">
        <ele>321.8</ele>
        <time>2020-12-13T10:46:01Z</time>
      </trkpt>
      <trkpt lat="45.9083" lon="4.61857">
        <ele>321.8</ele>
        <time>2020-12-13T10:46:02Z</time>
      </trkpt>
      <trkpt lat="45.9083" lon="4.61855">
        <ele>321.8</ele>
        <time>2020-12-13T10:46:03Z</time>
      </trkpt>
      <trkpt lat="45.9083" lon="4.61853">
        <ele>321.8</ele>
        <time>2020-12-13T10:46:04Z</time>
      </trkpt>
      <trkpt lat="45.90831" lon="4.61851">
        <ele>321.8</ele>
        <time>2020-12-13T10:46:05Z</time>
      </trkpt>
      <trkpt lat="45.9083" lon="4.6185">
        <ele>321.8</ele>
        <time>2020-12-13T10:46:06Z</time>
      </trkpt>
      <trkpt lat="45.90831" lon="4.61848">
        <ele>321.8</ele>
        <time>2020-12-13T10:46:07Z</time>
      </trkpt>
      <trkpt lat="45.90832" lon="4.61846">
        <ele>321.7</ele>
        <time>2020-12-13T10:46:08Z</time>
      </trkpt>
      <trkpt lat="45.90832" lon="4.61844">
        <ele>321.7</ele>
        <time>2020-12-13T10:46:09Z</time>
      </trkpt>
      <trkpt lat="45.90833" lon="4.61842">
        <ele>321.7</ele>
        <time>2020-12-13T10:46:10Z</time>
      </trkpt>
      <trkpt lat="45.90833" lon="4.61838">
        <ele>321.6</ele>
        <time>2020-12-13T10:46:11Z</time>
      </trkpt>
      <trkpt lat="45.90833" lon="4.61837">
        <ele>321.6</ele>
        <time>2020-12-13T10:46:12Z</time>
      </trkpt>
      <trkpt lat="45.90833" lon="4.61836">
        <ele>321.6</ele>
        <time>2020-12-13T10:46:13Z</time>
      </trkpt>
      <trkpt lat="45.90833" lon="4.61834">
        <ele>321.6</ele>
        <time>2020-12-13T10:46:14Z</time>
      </trkpt>
      <trkpt lat="45.90834" lon="4.61832">
        <ele>321.5</ele>
        <time>2020-12-13T10:46:15Z</time>
      </trkpt>
      <trkpt lat="45.90834" lon="4.61831">
        <ele>321.5</ele>
        <time>2020-12-13T10:46:16Z</time>
      </trkpt>
      <trkpt lat="45.90834" lon="4.61828">
        <ele>321.5</ele>
        <time>2020-12-13T10:46:17Z</time>
      </trkpt>
      <trkpt lat="45.90835" lon="4.61827">
        <ele>321.5</ele>
        <time>2020-12-13T10:46:18Z</time>
      </trkpt>
      <trkpt lat="45.90835" lon="4.61826">
        <ele>321.4</ele>
        <time>2020-12-13T10:46:19Z</time>
      </trkpt>
      <trkpt lat="45.90835" lon="4.61824">
        <ele>321.4</ele>
        <time>2020-12-13T10:46:20Z</time>
      </trkpt>
      <trkpt lat="45.90836" lon="4.61822">
        <ele>321.4</ele>
        <time>2020-12-13T10:46:21Z</time>
      </trkpt>
      <trkpt lat="45.90836" lon="4.6182">
        <ele>321.3</ele>
        <time>2020-12-13T10:46:22Z</time>
      </trkpt>
      <trkpt lat="45.90836" lon="4.61818">
        <ele>321.3</ele>
        <time>2020-12-13T10:46:23Z</time>
      </trkpt>
      <trkpt lat="45.90837" lon="4.61816">
        <ele>321.2</ele>
        <time>2020-12-13T10:46:24Z</time>
      </trkpt>
      <trkpt lat="45.90837" lon="4.61813">
        <ele>321.1</ele>
        <time>2020-12-13T10:46:25Z</time>
      </trkpt>
      <trkpt lat="45.90838" lon="4.6181">
        <ele>321</ele>
        <time>2020-12-13T10:46:26Z</time>
      </trkpt>
      <trkpt lat="45.90838" lon="4.61809">
        <ele>321</ele>
        <time>2020-12-13T10:46:28Z</time>
      </trkpt>
      <trkpt lat="45.90838" lon="4.61808">
        <ele>320.9</ele>
        <time>2020-12-13T10:46:29Z</time>
      </trkpt>
      <trkpt lat="45.90838" lon="4.61807">
        <ele>320.9</ele>
        <time>2020-12-13T10:46:30Z</time>
      </trkpt>
      <trkpt lat="45.90839" lon="4.61803">
        <ele>320.8</ele>
        <time>2020-12-13T10:46:31Z</time>
      </trkpt>
      <trkpt lat="45.9084" lon="4.61802">
        <ele>320.7</ele>
        <time>2020-12-13T10:46:32Z</time>
      </trkpt>
      <trkpt lat="45.9084" lon="4.61799">
        <ele>320.6</ele>
        <time>2020-12-13T10:46:33Z</time>
      </trkpt>
      <trkpt lat="45.90841" lon="4.61797">
        <ele>320.5</ele>
        <time>2020-12-13T10:46:34Z</time>
      </trkpt>
      <trkpt lat="45.90841" lon="4.61794">
        <ele>320.4</ele>
        <time>2020-12-13T10:46:35Z</time>
      </trkpt>
      <trkpt lat="45.90841" lon="4.61793">
        <ele>320.3</ele>
        <time>2020-12-13T10:46:36Z</time>
      </trkpt>
      <trkpt lat="45.90841" lon="4.61791">
        <ele>320.2</ele>
        <time>2020-12-13T10:46:37Z</time>
      </trkpt>
      <trkpt lat="45.90841" lon="4.61789">
        <ele>320.1</ele>
        <time>2020-12-13T10:46:38Z</time>
      </trkpt>
      <trkpt lat="45.90842" lon="4.61785">
        <ele>320</ele>
        <time>2020-12-13T10:46:39Z</time>
      </trkpt>
      <trkpt lat="45.90842" lon="4.61782">
        <ele>320</ele>
        <time>2020-12-13T10:46:40Z</time>
      </trkpt>
      <trkpt lat="45.90842" lon="4.61781">
        <ele>320</ele>
        <time>2020-12-13T10:46:41Z</time>
      </trkpt>
      <trkpt lat="45.90842" lon="4.61778">
        <ele>320</ele>
        <time>2020-12-13T10:46:42Z</time>
      </trkpt>
      <trkpt lat="45.90842" lon="4.61777">
        <ele>320</ele>
        <time>2020-12-13T10:46:43Z</time>
      </trkpt>
      <trkpt lat="45.90843" lon="4.61775">
        <ele>320</ele>
        <time>2020-12-13T10:46:44Z</time>
      </trkpt>
      <trkpt lat="45.90844" lon="4.61773">
        <ele>320</ele>
        <time>2020-12-13T10:46:45Z</time>
      </trkpt>
      <trkpt lat="45.90844" lon="4.61772">
        <ele>320</ele>
        <time>2020-12-13T10:46:46Z</time>
      </trkpt>
      <trkpt lat="45.90844" lon="4.6177">
        <ele>320</ele>
        <time>2020-12-13T10:46:47Z</time>
      </trkpt>
      <trkpt lat="45.90844" lon="4.61769">
        <ele>319.9</ele>
        <time>2020-12-13T10:46:48Z</time>
      </trkpt>
      <trkpt lat="45.90844" lon="4.61766">
        <ele>319.9</ele>
        <time>2020-12-13T10:46:49Z</time>
      </trkpt>
      <trkpt lat="45.90844" lon="4.61764">
        <ele>319.9</ele>
        <time>2020-12-13T10:46:50Z</time>
      </trkpt>
      <trkpt lat="45.90843" lon="4.6176">
        <ele>319.9</ele>
        <time>2020-12-13T10:46:51Z</time>
      </trkpt>
      <trkpt lat="45.90843" lon="4.61758">
        <ele>319.8</ele>
        <time>2020-12-13T10:46:52Z</time>
      </trkpt>
      <trkpt lat="45.90844" lon="4.61758">
        <ele>319.8</ele>
        <time>2020-12-13T10:46:53Z</time>
      </trkpt>
      <trkpt lat="45.90844" lon="4.61756">
        <ele>319.8</ele>
        <time>2020-12-13T10:46:54Z</time>
      </trkpt>
      <trkpt lat="45.90844" lon="4.61753">
        <ele>319.7</ele>
        <time>2020-12-13T10:46:55Z</time>
      </trkpt>
      <trkpt lat="45.90844" lon="4.6175">
        <ele>319.7</ele>
        <time>2020-12-13T10:46:56Z</time>
      </trkpt>
      <trkpt lat="45.90844" lon="4.61749">
        <ele>319.7</ele>
        <time>2020-12-13T10:46:57Z</time>
      </trkpt>
      <trkpt lat="45.90845" lon="4.61748">
        <ele>319.6</ele>
        <time>2020-12-13T10:46:58Z</time>
      </trkpt>
      <trkpt lat="45.90845" lon="4.61747">
        <ele>319.6</ele>
        <time>2020-12-13T10:46:59Z</time>
      </trkpt>
      <trkpt lat="45.90845" lon="4.61745">
        <ele>319.6</ele>
        <time>2020-12-13T10:47:00Z</time>
      </trkpt>
      <trkpt lat="45.90845" lon="4.61743">
        <ele>319.5</ele>
        <time>2020-12-13T10:47:01Z</time>
      </trkpt>
      <trkpt lat="45.90845" lon="4.61739">
        <ele>319.5</ele>
        <time>2020-12-13T10:47:02Z</time>
      </trkpt>
      <trkpt lat="45.90845" lon="4.61738">
        <ele>319.4</ele>
        <time>2020-12-13T10:47:03Z</time>
      </trkpt>
      <trkpt lat="45.90845" lon="4.61736">
        <ele>319.4</ele>
        <time>2020-12-13T10:47:04Z</time>
      </trkpt>
      <trkpt lat="45.90845" lon="4.61734">
        <ele>319.4</ele>
        <time>2020-12-13T10:47:05Z</time>
      </trkpt>
      <trkpt lat="45.90845" lon="4.61732">
        <ele>319.3</ele>
        <time>2020-12-13T10:47:06Z</time>
      </trkpt>
      <trkpt lat="45.90846" lon="4.61731">
        <ele>319.3</ele>
        <time>2020-12-13T10:47:07Z</time>
      </trkpt>
      <trkpt lat="45.90846" lon="4.61728">
        <ele>319.3</ele>
        <time>2020-12-13T10:47:08Z</time>
      </trkpt>
      <trkpt lat="45.90847" lon="4.61726">
        <ele>319.2</ele>
        <time>2020-12-13T10:47:09Z</time>
      </trkpt>
      <trkpt lat="45.90847" lon="4.61725">
        <ele>319.2</ele>
        <time>2020-12-13T10:47:10Z</time>
      </trkpt>
      <trkpt lat="45.90847" lon="4.61722">
        <ele>319.1</ele>
        <time>2020-12-13T10:47:11Z</time>
      </trkpt>
      <trkpt lat="45.90847" lon="4.61722">
        <ele>319.1</ele>
        <time>2020-12-13T10:47:12Z</time>
      </trkpt>
      <trkpt lat="45.90847" lon="4.61721">
        <ele>319.1</ele>
        <time>2020-12-13T10:47:13Z</time>
      </trkpt>
      <trkpt lat="45.90847" lon="4.6172">
        <ele>319</ele>
        <time>2020-12-13T10:47:14Z</time>
      </trkpt>
      <trkpt lat="45.90847" lon="4.61718">
        <ele>319</ele>
        <time>2020-12-13T10:47:15Z</time>
      </trkpt>
      <trkpt lat="45.90847" lon="4.61716">
        <ele>318.9</ele>
        <time>2020-12-13T10:47:16Z</time>
      </trkpt>
      <trkpt lat="45.90848" lon="4.61713">
        <ele>318.8</ele>
        <time>2020-12-13T10:47:17Z</time>
      </trkpt>
      <trkpt lat="45.90848" lon="4.61711">
        <ele>318.8</ele>
        <time>2020-12-13T10:47:18Z</time>
      </trkpt>
      <trkpt lat="45.90849" lon="4.61708">
        <ele>318.7</ele>
        <time>2020-12-13T10:47:19Z</time>
      </trkpt>
      <trkpt lat="45.90849" lon="4.61707">
        <ele>318.6</ele>
        <time>2020-12-13T10:47:20Z</time>
      </trkpt>
      <trkpt lat="45.90849" lon="4.61705">
        <ele>318.5</ele>
        <time>2020-12-13T10:47:21Z</time>
      </trkpt>
      <trkpt lat="45.90849" lon="4.61704">
        <ele>318.5</ele>
        <time>2020-12-13T10:47:22Z</time>
      </trkpt>
      <trkpt lat="45.90849" lon="4.61702">
        <ele>318.4</ele>
        <time>2020-12-13T10:47:23Z</time>
      </trkpt>
      <trkpt lat="45.90849" lon="4.61701">
        <ele>318.3</ele>
        <time>2020-12-13T10:47:24Z</time>
      </trkpt>
      <trkpt lat="45.9085" lon="4.61697">
        <ele>318.2</ele>
        <time>2020-12-13T10:47:25Z</time>
      </trkpt>
      <trkpt lat="45.9085" lon="4.61696">
        <ele>318.1</ele>
        <time>2020-12-13T10:47:26Z</time>
      </trkpt>
      <trkpt lat="45.9085" lon="4.61694">
        <ele>318.1</ele>
        <time>2020-12-13T10:47:27Z</time>
      </trkpt>
      <trkpt lat="45.9085" lon="4.61693">
        <ele>318</ele>
        <time>2020-12-13T10:47:28Z</time>
      </trkpt>
      <trkpt lat="45.9085" lon="4.61691">
        <ele>317.9</ele>
        <time>2020-12-13T10:47:29Z</time>
      </trkpt>
      <trkpt lat="45.9085" lon="4.61688">
        <ele>317.8</ele>
        <time>2020-12-13T10:47:30Z</time>
      </trkpt>
      <trkpt lat="45.9085" lon="4.61687">
        <ele>317.8</ele>
        <time>2020-12-13T10:47:31Z</time>
      </trkpt>
      <trkpt lat="45.9085" lon="4.61686">
        <ele>317.7</ele>
        <time>2020-12-13T10:47:32Z</time>
      </trkpt>
      <trkpt lat="45.9085" lon="4.61685">
        <ele>317.7</ele>
        <time>2020-12-13T10:47:33Z</time>
      </trkpt>
      <trkpt lat="45.90851" lon="4.61683">
        <ele>317.6</ele>
        <time>2020-12-13T10:47:34Z</time>
      </trkpt>
      <trkpt lat="45.90851" lon="4.61681">
        <ele>317.5</ele>
        <time>2020-12-13T10:47:35Z</time>
      </trkpt>
      <trkpt lat="45.90851" lon="4.61679">
        <ele>317.4</ele>
        <time>2020-12-13T10:47:36Z</time>
      </trkpt>
      <trkpt lat="45.90851" lon="4.61677">
        <ele>317.3</ele>
        <time>2020-12-13T10:47:37Z</time>
      </trkpt>
      <trkpt lat="45.90852" lon="4.61674">
        <ele>317.2</ele>
        <time>2020-12-13T10:47:38Z</time>
      </trkpt>
      <trkpt lat="45.90852" lon="4.61673">
        <ele>317.1</ele>
        <time>2020-12-13T10:47:39Z</time>
      </trkpt>
      <trkpt lat="45.90852" lon="4.61671">
        <ele>317.1</ele>
        <time>2020-12-13T10:47:40Z</time>
      </trkpt>
      <trkpt lat="45.90852" lon="4.61669">
        <ele>316.9</ele>
        <time>2020-12-13T10:47:41Z</time>
      </trkpt>
      <trkpt lat="45.90852" lon="4.61667">
        <ele>316.9</ele>
        <time>2020-12-13T10:47:42Z</time>
      </trkpt>
      <trkpt lat="45.90853" lon="4.61666">
        <ele>316.8</ele>
        <time>2020-12-13T10:47:43Z</time>
      </trkpt>
      <trkpt lat="45.90853" lon="4.61665">
        <ele>316.8</ele>
        <time>2020-12-13T10:47:44Z</time>
      </trkpt>
      <trkpt lat="45.90853" lon="4.61664">
        <ele>316.7</ele>
        <time>2020-12-13T10:47:45Z</time>
      </trkpt>
      <trkpt lat="45.90854" lon="4.61661">
        <ele>316.6</ele>
        <time>2020-12-13T10:47:46Z</time>
      </trkpt>
      <trkpt lat="45.90854" lon="4.6166">
        <ele>316.5</ele>
        <time>2020-12-13T10:47:47Z</time>
      </trkpt>
      <trkpt lat="45.90854" lon="4.61659">
        <ele>316.5</ele>
        <time>2020-12-13T10:47:48Z</time>
      </trkpt>
      <trkpt lat="45.90855" lon="4.61658">
        <ele>316.4</ele>
        <time>2020-12-13T10:47:49Z</time>
      </trkpt>
      <trkpt lat="45.90855" lon="4.61656">
        <ele>316.4</ele>
        <time>2020-12-13T10:47:50Z</time>
      </trkpt>
      <trkpt lat="45.90856" lon="4.61654">
        <ele>316.3</ele>
        <time>2020-12-13T10:47:51Z</time>
      </trkpt>
      <trkpt lat="45.90856" lon="4.61653">
        <ele>316.2</ele>
        <time>2020-12-13T10:47:52Z</time>
      </trkpt>
      <trkpt lat="45.90856" lon="4.61652">
        <ele>316.2</ele>
        <time>2020-12-13T10:47:53Z</time>
      </trkpt>
      <trkpt lat="45.90858" lon="4.6165">
        <ele>316.1</ele>
        <time>2020-12-13T10:47:54Z</time>
      </trkpt>
      <trkpt lat="45.90858" lon="4.61649">
        <ele>316.1</ele>
        <time>2020-12-13T10:47:55Z</time>
      </trkpt>
      <trkpt lat="45.90859" lon="4.61648">
        <ele>316</ele>
        <time>2020-12-13T10:47:56Z</time>
      </trkpt>
      <trkpt lat="45.9086" lon="4.61647">
        <ele>315.9</ele>
        <time>2020-12-13T10:47:57Z</time>
      </trkpt>
      <trkpt lat="45.90862" lon="4.61645">
        <ele>315.8</ele>
        <time>2020-12-13T10:47:58Z</time>
      </trkpt>
      <trkpt lat="45.90862" lon="4.61644">
        <ele>315.8</ele>
        <time>2020-12-13T10:47:59Z</time>
      </trkpt>
      <trkpt lat="45.90863" lon="4.61643">
        <ele>315.7</ele>
        <time>2020-12-13T10:48:00Z</time>
      </trkpt>
      <trkpt lat="45.90864" lon="4.61642">
        <ele>315.5</ele>
        <time>2020-12-13T10:48:01Z</time>
      </trkpt>
      <trkpt lat="45.90864" lon="4.61642">
        <ele>315.5</ele>
        <time>2020-12-13T10:48:02Z</time>
      </trkpt>
      <trkpt lat="45.90865" lon="4.61641">
        <ele>315.5</ele>
        <time>2020-12-13T10:48:03Z</time>
      </trkpt>
      <trkpt lat="45.90865" lon="4.61641">
        <ele>315.5</ele>
        <time>2020-12-13T10:48:04Z</time>
      </trkpt>
      <trkpt lat="45.90867" lon="4.61639">
        <ele>315.6</ele>
        <time>2020-12-13T10:48:05Z</time>
      </trkpt>
      <trkpt lat="45.90867" lon="4.61639">
        <ele>315.6</ele>
        <time>2020-12-13T10:48:06Z</time>
      </trkpt>
      <trkpt lat="45.90867" lon="4.61638">
        <ele>315.6</ele>
        <time>2020-12-13T10:48:07Z</time>
      </trkpt>
      <trkpt lat="45.90866" lon="4.61637">
        <ele>315.6</ele>
        <time>2020-12-13T10:48:08Z</time>
      </trkpt>
      <trkpt lat="45.90865" lon="4.61637">
        <ele>315.6</ele>
        <time>2020-12-13T10:48:09Z</time>
      </trkpt>
      <trkpt lat="45.90865" lon="4.61637">
        <ele>315.6</ele>
        <time>2020-12-13T10:48:10Z</time>
      </trkpt>
      <trkpt lat="45.90864" lon="4.61636">
        <ele>315.6</ele>
        <time>2020-12-13T10:48:11Z</time>
      </trkpt>
      <trkpt lat="45.90863" lon="4.61634">
        <ele>315.6</ele>
        <time>2020-12-13T10:48:12Z</time>
      </trkpt>
      <trkpt lat="45.90861" lon="4.61632">
        <ele>315.6</ele>
        <time>2020-12-13T10:48:13Z</time>
      </trkpt>
      <trkpt lat="45.90859" lon="4.61631">
        <ele>315.6</ele>
        <time>2020-12-13T10:48:14Z</time>
      </trkpt>
      <trkpt lat="45.90858" lon="4.6163">
        <ele>315.6</ele>
        <time>2020-12-13T10:48:15Z</time>
      </trkpt>
      <trkpt lat="45.90857" lon="4.6163">
        <ele>315.6</ele>
        <time>2020-12-13T10:48:16Z</time>
      </trkpt>
      <trkpt lat="45.90857" lon="4.6163">
        <ele>315.6</ele>
        <time>2020-12-13T10:48:17Z</time>
      </trkpt>
      <trkpt lat="45.90856" lon="4.61629">
        <ele>315.6</ele>
        <time>2020-12-13T10:48:18Z</time>
      </trkpt>
      <trkpt lat="45.90853" lon="4.6163">
        <ele>315.6</ele>
        <time>2020-12-13T10:48:19Z</time>
      </trkpt>
      <trkpt lat="45.90852" lon="4.61631">
        <ele>315.6</ele>
        <time>2020-12-13T10:48:20Z</time>
      </trkpt>
      <trkpt lat="45.90851" lon="4.61631">
        <ele>315.6</ele>
        <time>2020-12-13T10:48:21Z</time>
      </trkpt>
      <trkpt lat="45.9085" lon="4.6163">
        <ele>315.6</ele>
        <time>2020-12-13T10:48:22Z</time>
      </trkpt>
      <trkpt lat="45.90849" lon="4.61631">
        <ele>315.6</ele>
        <time>2020-12-13T10:48:23Z</time>
      </trkpt>
      <trkpt lat="45.90847" lon="4.61632">
        <ele>315.6</ele>
        <time>2020-12-13T10:48:24Z</time>
      </trkpt>
      <trkpt lat="45.90846" lon="4.61633">
        <ele>315.6</ele>
        <time>2020-12-13T10:48:25Z</time>
      </trkpt>
      <trkpt lat="45.90845" lon="4.61633">
        <ele>315.6</ele>
        <time>2020-12-13T10:48:26Z</time>
      </trkpt>
      <trkpt lat="45.90844" lon="4.61633">
        <ele>315.5</ele>
        <time>2020-12-13T10:48:27Z</time>
      </trkpt>
      <trkpt lat="45.90843" lon="4.61633">
        <ele>315.5</ele>
        <time>2020-12-13T10:48:28Z</time>
      </trkpt>
      <trkpt lat="45.9084" lon="4.61634">
        <ele>315.5</ele>
        <time>2020-12-13T10:48:29Z</time>
      </trkpt>
      <trkpt lat="45.90838" lon="4.61635">
        <ele>315.5</ele>
        <time>2020-12-13T10:48:30Z</time>
      </trkpt>
      <trkpt lat="45.90837" lon="4.61635">
        <ele>315.4</ele>
        <time>2020-12-13T10:48:31Z</time>
      </trkpt>
      <trkpt lat="45.90836" lon="4.61636">
        <ele>315.4</ele>
        <time>2020-12-13T10:48:32Z</time>
      </trkpt>
      <trkpt lat="45.90835" lon="4.61636">
        <ele>315.4</ele>
        <time>2020-12-13T10:48:34Z</time>
      </trkpt>
      <trkpt lat="45.90834" lon="4.61636">
        <ele>315.4</ele>
        <time>2020-12-13T10:48:35Z</time>
      </trkpt>
      <trkpt lat="45.90833" lon="4.61637">
        <ele>315.3</ele>
        <time>2020-12-13T10:48:36Z</time>
      </trkpt>
      <trkpt lat="45.90831" lon="4.61637">
        <ele>315.3</ele>
        <time>2020-12-13T10:48:37Z</time>
      </trkpt>
      <trkpt lat="45.9083" lon="4.61637">
        <ele>315.2</ele>
        <time>2020-12-13T10:48:38Z</time>
      </trkpt>
      <trkpt lat="45.90828" lon="4.61637">
        <ele>315.2</ele>
        <time>2020-12-13T10:48:39Z</time>
      </trkpt>
      <trkpt lat="45.90826" lon="4.61638">
        <ele>315.2</ele>
        <time>2020-12-13T10:48:40Z</time>
      </trkpt>
      <trkpt lat="45.90825" lon="4.61638">
        <ele>315.1</ele>
        <time>2020-12-13T10:48:41Z</time>
      </trkpt>
      <trkpt lat="45.90824" lon="4.61639">
        <ele>315.1</ele>
        <time>2020-12-13T10:48:42Z</time>
      </trkpt>
      <trkpt lat="45.90823" lon="4.61639">
        <ele>315</ele>
        <time>2020-12-13T10:48:43Z</time>
      </trkpt>
      <trkpt lat="45.90821" lon="4.61641">
        <ele>315</ele>
        <time>2020-12-13T10:48:44Z</time>
      </trkpt>
      <trkpt lat="45.9082" lon="4.61641">
        <ele>314.9</ele>
        <time>2020-12-13T10:48:45Z</time>
      </trkpt>
      <trkpt lat="45.90818" lon="4.61643">
        <ele>314.9</ele>
        <time>2020-12-13T10:48:46Z</time>
      </trkpt>
      <trkpt lat="45.90817" lon="4.61643">
        <ele>314.8</ele>
        <time>2020-12-13T10:48:47Z</time>
      </trkpt>
      <trkpt lat="45.90816" lon="4.61644">
        <ele>314.8</ele>
        <time>2020-12-13T10:48:48Z</time>
      </trkpt>
      <trkpt lat="45.90815" lon="4.61645">
        <ele>314.7</ele>
        <time>2020-12-13T10:48:49Z</time>
      </trkpt>
      <trkpt lat="45.90814" lon="4.61645">
        <ele>314.7</ele>
        <time>2020-12-13T10:48:50Z</time>
      </trkpt>
      <trkpt lat="45.90813" lon="4.61646">
        <ele>314.7</ele>
        <time>2020-12-13T10:48:51Z</time>
      </trkpt>
      <trkpt lat="45.90812" lon="4.61646">
        <ele>314.7</ele>
        <time>2020-12-13T10:48:52Z</time>
      </trkpt>
      <trkpt lat="45.90811" lon="4.61647">
        <ele>314.6</ele>
        <time>2020-12-13T10:48:53Z</time>
      </trkpt>
      <trkpt lat="45.9081" lon="4.61648">
        <ele>314.6</ele>
        <time>2020-12-13T10:48:54Z</time>
      </trkpt>
      <trkpt lat="45.90809" lon="4.61649">
        <ele>314.5</ele>
        <time>2020-12-13T10:48:55Z</time>
      </trkpt>
      <trkpt lat="45.90808" lon="4.61649">
        <ele>314.5</ele>
        <time>2020-12-13T10:48:56Z</time>
      </trkpt>
      <trkpt lat="45.90806" lon="4.61651">
        <ele>314.4</ele>
        <time>2020-12-13T10:48:57Z</time>
      </trkpt>
      <trkpt lat="45.90805" lon="4.61652">
        <ele>314.4</ele>
        <time>2020-12-13T10:48:58Z</time>
      </trkpt>
      <trkpt lat="45.90805" lon="4.61652">
        <ele>314.4</ele>
        <time>2020-12-13T10:48:59Z</time>
      </trkpt>
      <trkpt lat="45.90804" lon="4.61652">
        <ele>314.4</ele>
        <time>2020-12-13T10:49:00Z</time>
      </trkpt>
      <trkpt lat="45.90803" lon="4.61652">
        <ele>314.3</ele>
        <time>2020-12-13T10:49:01Z</time>
      </trkpt>
      <trkpt lat="45.90802" lon="4.61653">
        <ele>314.3</ele>
        <time>2020-12-13T10:49:02Z</time>
      </trkpt>
      <trkpt lat="45.90799" lon="4.61654">
        <ele>314.3</ele>
        <time>2020-12-13T10:49:03Z</time>
      </trkpt>
      <trkpt lat="45.90799" lon="4.61654">
        <ele>314.2</ele>
        <time>2020-12-13T10:49:04Z</time>
      </trkpt>
      <trkpt lat="45.90797" lon="4.61655">
        <ele>314.2</ele>
        <time>2020-12-13T10:49:05Z</time>
      </trkpt>
      <trkpt lat="45.90796" lon="4.61656">
        <ele>314.2</ele>
        <time>2020-12-13T10:49:06Z</time>
      </trkpt>
      <trkpt lat="45.90794" lon="4.61657">
        <ele>314.1</ele>
        <time>2020-12-13T10:49:07Z</time>
      </trkpt>
      <trkpt lat="45.90793" lon="4.61658">
        <ele>314.1</ele>
        <time>2020-12-13T10:49:08Z</time>
      </trkpt>
      <trkpt lat="45.90791" lon="4.61659">
        <ele>314.1</ele>
        <time>2020-12-13T10:49:09Z</time>
      </trkpt>
      <trkpt lat="45.9079" lon="4.6166">
        <ele>314</ele>
        <time>2020-12-13T10:49:10Z</time>
      </trkpt>
      <trkpt lat="45.9079" lon="4.61662">
        <ele>314</ele>
        <time>2020-12-13T10:49:11Z</time>
      </trkpt>
      <trkpt lat="45.90789" lon="4.61662">
        <ele>314</ele>
        <time>2020-12-13T10:49:12Z</time>
      </trkpt>
      <trkpt lat="45.90788" lon="4.61663">
        <ele>313.9</ele>
        <time>2020-12-13T10:49:13Z</time>
      </trkpt>
      <trkpt lat="45.90785" lon="4.61664">
        <ele>313.9</ele>
        <time>2020-12-13T10:49:14Z</time>
      </trkpt>
      <trkpt lat="45.90784" lon="4.61665">
        <ele>313.8</ele>
        <time>2020-12-13T10:49:15Z</time>
      </trkpt>
      <trkpt lat="45.90783" lon="4.61665">
        <ele>313.8</ele>
        <time>2020-12-13T10:49:16Z</time>
      </trkpt>
      <trkpt lat="45.90782" lon="4.61666">
        <ele>313.8</ele>
        <time>2020-12-13T10:49:17Z</time>
      </trkpt>
      <trkpt lat="45.90781" lon="4.61666">
        <ele>313.7</ele>
        <time>2020-12-13T10:49:18Z</time>
      </trkpt>
      <trkpt lat="45.9078" lon="4.61666">
        <ele>313.7</ele>
        <time>2020-12-13T10:49:19Z</time>
      </trkpt>
      <trkpt lat="45.90778" lon="4.61667">
        <ele>313.6</ele>
        <time>2020-12-13T10:49:20Z</time>
      </trkpt>
      <trkpt lat="45.90777" lon="4.61668">
        <ele>313.6</ele>
        <time>2020-12-13T10:49:21Z</time>
      </trkpt>
      <trkpt lat="45.90776" lon="4.61668">
        <ele>313.5</ele>
        <time>2020-12-13T10:49:22Z</time>
      </trkpt>
      <trkpt lat="45.90774" lon="4.61669">
        <ele>313.5</ele>
        <time>2020-12-13T10:49:23Z</time>
      </trkpt>
      <trkpt lat="45.90773" lon="4.61669">
        <ele>313.5</ele>
        <time>2020-12-13T10:49:24Z</time>
      </trkpt>
      <trkpt lat="45.90773" lon="4.6167">
        <ele>313.4</ele>
        <time>2020-12-13T10:49:25Z</time>
      </trkpt>
      <trkpt lat="45.90771" lon="4.61671">
        <ele>313.4</ele>
        <time>2020-12-13T10:49:26Z</time>
      </trkpt>
      <trkpt lat="45.9077" lon="4.61671">
        <ele>313.3</ele>
        <time>2020-12-13T10:49:27Z</time>
      </trkpt>
      <trkpt lat="45.90769" lon="4.61671">
        <ele>313.3</ele>
        <time>2020-12-13T10:49:28Z</time>
      </trkpt>
      <trkpt lat="45.90768" lon="4.61672">
        <ele>313.3</ele>
        <time>2020-12-13T10:49:29Z</time>
      </trkpt>
      <trkpt lat="45.90766" lon="4.61674">
        <ele>313.2</ele>
        <time>2020-12-13T10:49:30Z</time>
      </trkpt>
      <trkpt lat="45.90765" lon="4.61675">
        <ele>313.1</ele>
        <time>2020-12-13T10:49:31Z</time>
      </trkpt>
      <trkpt lat="45.90764" lon="4.61676">
        <ele>313.1</ele>
        <time>2020-12-13T10:49:32Z</time>
      </trkpt>
      <trkpt lat="45.90763" lon="4.61676">
        <ele>313</ele>
        <time>2020-12-13T10:49:33Z</time>
      </trkpt>
      <trkpt lat="45.90761" lon="4.61678">
        <ele>313</ele>
        <time>2020-12-13T10:49:34Z</time>
      </trkpt>
      <trkpt lat="45.9076" lon="4.61679">
        <ele>312.9</ele>
        <time>2020-12-13T10:49:35Z</time>
      </trkpt>
      <trkpt lat="45.90759" lon="4.6168">
        <ele>312.8</ele>
        <time>2020-12-13T10:49:36Z</time>
      </trkpt>
      <trkpt lat="45.90759" lon="4.61682">
        <ele>312.8</ele>
        <time>2020-12-13T10:49:37Z</time>
      </trkpt>
      <trkpt lat="45.90758" lon="4.61683">
        <ele>312.8</ele>
        <time>2020-12-13T10:49:38Z</time>
      </trkpt>
      <trkpt lat="45.90757" lon="4.61684">
        <ele>312.7</ele>
        <time>2020-12-13T10:49:39Z</time>
      </trkpt>
      <trkpt lat="45.90755" lon="4.61685">
        <ele>312.6</ele>
        <time>2020-12-13T10:49:40Z</time>
      </trkpt>
      <trkpt lat="45.90754" lon="4.61686">
        <ele>312.6</ele>
        <time>2020-12-13T10:49:41Z</time>
      </trkpt>
      <trkpt lat="45.90753" lon="4.61688">
        <ele>312.5</ele>
        <time>2020-12-13T10:49:42Z</time>
      </trkpt>
      <trkpt lat="45.90752" lon="4.61689">
        <ele>312.5</ele>
        <time>2020-12-13T10:49:43Z</time>
      </trkpt>
      <trkpt lat="45.90751" lon="4.61691">
        <ele>312.4</ele>
        <time>2020-12-13T10:49:44Z</time>
      </trkpt>
      <trkpt lat="45.9075" lon="4.61693">
        <ele>312.3</ele>
        <time>2020-12-13T10:49:45Z</time>
      </trkpt>
      <trkpt lat="45.90749" lon="4.61694">
        <ele>312.3</ele>
        <time>2020-12-13T10:49:46Z</time>
      </trkpt>
      <trkpt lat="45.90748" lon="4.61695">
        <ele>312.2</ele>
        <time>2020-12-13T10:49:47Z</time>
      </trkpt>
      <trkpt lat="45.90747" lon="4.61696">
        <ele>312.2</ele>
        <time>2020-12-13T10:49:48Z</time>
      </trkpt>
      <trkpt lat="45.90747" lon="4.61697">
        <ele>312.2</ele>
        <time>2020-12-13T10:49:49Z</time>
      </trkpt>
      <trkpt lat="45.90745" lon="4.61698">
        <ele>312.1</ele>
        <time>2020-12-13T10:49:50Z</time>
      </trkpt>
      <trkpt lat="45.90745" lon="4.61699">
        <ele>312.1</ele>
        <time>2020-12-13T10:49:51Z</time>
      </trkpt>
      <trkpt lat="45.90744" lon="4.617">
        <ele>312</ele>
        <time>2020-12-13T10:49:52Z</time>
      </trkpt>
      <trkpt lat="45.90743" lon="4.61702">
        <ele>311.9</ele>
        <time>2020-12-13T10:49:53Z</time>
      </trkpt>
      <trkpt lat="45.90742" lon="4.61704">
        <ele>311.9</ele>
        <time>2020-12-13T10:49:54Z</time>
      </trkpt>
      <trkpt lat="45.90741" lon="4.61705">
        <ele>311.9</ele>
        <time>2020-12-13T10:49:55Z</time>
      </trkpt>
      <trkpt lat="45.90741" lon="4.61706">
        <ele>311.9</ele>
        <time>2020-12-13T10:49:56Z</time>
      </trkpt>
      <trkpt lat="45.9074" lon="4.61707">
        <ele>311.8</ele>
        <time>2020-12-13T10:49:57Z</time>
      </trkpt>
      <trkpt lat="45.9074" lon="4.61709">
        <ele>311.8</ele>
        <time>2020-12-13T10:49:58Z</time>
      </trkpt>
      <trkpt lat="45.90739" lon="4.6171">
        <ele>311.7</ele>
        <time>2020-12-13T10:49:59Z</time>
      </trkpt>
      <trkpt lat="45.90738" lon="4.61712">
        <ele>311.7</ele>
        <time>2020-12-13T10:50:00Z</time>
      </trkpt>
      <trkpt lat="45.90737" lon="4.61714">
        <ele>311.6</ele>
        <time>2020-12-13T10:50:01Z</time>
      </trkpt>
      <trkpt lat="45.90736" lon="4.61717">
        <ele>311.6</ele>
        <time>2020-12-13T10:50:02Z</time>
      </trkpt>
      <trkpt lat="45.90735" lon="4.61718">
        <ele>311.6</ele>
        <time>2020-12-13T10:50:03Z</time>
      </trkpt>
      <trkpt lat="45.90735" lon="4.61719">
        <ele>311.5</ele>
        <time>2020-12-13T10:50:04Z</time>
      </trkpt>
      <trkpt lat="45.90734" lon="4.61721">
        <ele>311.5</ele>
        <time>2020-12-13T10:50:05Z</time>
      </trkpt>
      <trkpt lat="45.90733" lon="4.61724">
        <ele>311.4</ele>
        <time>2020-12-13T10:50:06Z</time>
      </trkpt>
      <trkpt lat="45.90732" lon="4.61724">
        <ele>311.4</ele>
        <time>2020-12-13T10:50:07Z</time>
      </trkpt>
      <trkpt lat="45.90732" lon="4.61725">
        <ele>311.4</ele>
        <time>2020-12-13T10:50:08Z</time>
      </trkpt>
      <trkpt lat="45.90731" lon="4.61728">
        <ele>311.4</ele>
        <time>2020-12-13T10:50:09Z</time>
      </trkpt>
      <trkpt lat="45.9073" lon="4.6173">
        <ele>311.3</ele>
        <time>2020-12-13T10:50:10Z</time>
      </trkpt>
      <trkpt lat="45.9073" lon="4.61732">
        <ele>311.3</ele>
        <time>2020-12-13T10:50:11Z</time>
      </trkpt>
      <trkpt lat="45.90729" lon="4.61733">
        <ele>311.3</ele>
        <time>2020-12-13T10:50:12Z</time>
      </trkpt>
      <trkpt lat="45.90728" lon="4.61735">
        <ele>311.2</ele>
        <time>2020-12-13T10:50:13Z</time>
      </trkpt>
      <trkpt lat="45.90727" lon="4.61737">
        <ele>311.2</ele>
        <time>2020-12-13T10:50:14Z</time>
      </trkpt>
      <trkpt lat="45.90726" lon="4.61738">
        <ele>311.2</ele>
        <time>2020-12-13T10:50:15Z</time>
      </trkpt>
      <trkpt lat="45.90725" lon="4.6174">
        <ele>311.2</ele>
        <time>2020-12-13T10:50:16Z</time>
      </trkpt>
      <trkpt lat="45.90725" lon="4.61741">
        <ele>311.2</ele>
        <time>2020-12-13T10:50:17Z</time>
      </trkpt>
      <trkpt lat="45.90725" lon="4.61741">
        <ele>311.1</ele>
        <time>2020-12-13T10:50:18Z</time>
      </trkpt>
      <trkpt lat="45.90723" lon="4.61745">
        <ele>311.1</ele>
        <time>2020-12-13T10:50:19Z</time>
      </trkpt>
      <trkpt lat="45.90723" lon="4.61746">
        <ele>311.1</ele>
        <time>2020-12-13T10:50:20Z</time>
      </trkpt>
      <trkpt lat="45.90722" lon="4.61748">
        <ele>311</ele>
        <time>2020-12-13T10:50:21Z</time>
      </trkpt>
      <trkpt lat="45.90721" lon="4.6175">
        <ele>311</ele>
        <time>2020-12-13T10:50:22Z</time>
      </trkpt>
      <trkpt lat="45.9072" lon="4.61752">
        <ele>311</ele>
        <time>2020-12-13T10:50:23Z</time>
      </trkpt>
      <trkpt lat="45.9072" lon="4.61753">
        <ele>311</ele>
        <time>2020-12-13T10:50:24Z</time>
      </trkpt>
      <trkpt lat="45.90719" lon="4.61756">
        <ele>310.9</ele>
        <time>2020-12-13T10:50:25Z</time>
      </trkpt>
      <trkpt lat="45.90718" lon="4.61757">
        <ele>310.9</ele>
        <time>2020-12-13T10:50:26Z</time>
      </trkpt>
      <trkpt lat="45.90718" lon="4.61758">
        <ele>310.9</ele>
        <time>2020-12-13T10:50:27Z</time>
      </trkpt>
      <trkpt lat="45.90717" lon="4.6176">
        <ele>310.9</ele>
        <time>2020-12-13T10:50:28Z</time>
      </trkpt>
      <trkpt lat="45.90716" lon="4.61762">
        <ele>310.9</ele>
        <time>2020-12-13T10:50:29Z</time>
      </trkpt>
      <trkpt lat="45.90715" lon="4.61763">
        <ele>310.9</ele>
        <time>2020-12-13T10:50:30Z</time>
      </trkpt>
      <trkpt lat="45.90715" lon="4.61765">
        <ele>310.9</ele>
        <time>2020-12-13T10:50:31Z</time>
      </trkpt>
      <trkpt lat="45.90714" lon="4.61766">
        <ele>310.9</ele>
        <time>2020-12-13T10:50:32Z</time>
      </trkpt>
      <trkpt lat="45.90714" lon="4.61767">
        <ele>310.9</ele>
        <time>2020-12-13T10:50:33Z</time>
      </trkpt>
      <trkpt lat="45.90712" lon="4.6177">
        <ele>310.8</ele>
        <time>2020-12-13T10:50:34Z</time>
      </trkpt>
      <trkpt lat="45.90712" lon="4.61771">
        <ele>310.8</ele>
        <time>2020-12-13T10:50:35Z</time>
      </trkpt>
      <trkpt lat="45.90712" lon="4.61772">
        <ele>310.8</ele>
        <time>2020-12-13T10:50:36Z</time>
      </trkpt>
      <trkpt lat="45.9071" lon="4.61773">
        <ele>310.8</ele>
        <time>2020-12-13T10:50:37Z</time>
      </trkpt>
      <trkpt lat="45.9071" lon="4.61774">
        <ele>310.8</ele>
        <time>2020-12-13T10:50:38Z</time>
      </trkpt>
      <trkpt lat="45.90709" lon="4.61776">
        <ele>310.8</ele>
        <time>2020-12-13T10:50:40Z</time>
      </trkpt>
      <trkpt lat="45.90708" lon="4.61777">
        <ele>310.8</ele>
        <time>2020-12-13T10:50:41Z</time>
      </trkpt>
      <trkpt lat="45.90706" lon="4.6178">
        <ele>310.9</ele>
        <time>2020-12-13T10:50:42Z</time>
      </trkpt>
      <trkpt lat="45.90706" lon="4.61781">
        <ele>310.9</ele>
        <time>2020-12-13T10:50:43Z</time>
      </trkpt>
      <trkpt lat="45.90705" lon="4.61782">
        <ele>310.9</ele>
        <time>2020-12-13T10:50:44Z</time>
      </trkpt>
      <trkpt lat="45.90705" lon="4.61782">
        <ele>310.9</ele>
        <time>2020-12-13T10:50:45Z</time>
      </trkpt>
      <trkpt lat="45.90704" lon="4.61784">
        <ele>310.9</ele>
        <time>2020-12-13T10:50:46Z</time>
      </trkpt>
      <trkpt lat="45.90703" lon="4.61785">
        <ele>310.9</ele>
        <time>2020-12-13T10:50:47Z</time>
      </trkpt>
      <trkpt lat="45.90702" lon="4.61786">
        <ele>310.9</ele>
        <time>2020-12-13T10:50:48Z</time>
      </trkpt>
      <trkpt lat="45.907" lon="4.61789">
        <ele>311</ele>
        <time>2020-12-13T10:50:49Z</time>
      </trkpt>
      <trkpt lat="45.90699" lon="4.6179">
        <ele>311</ele>
        <time>2020-12-13T10:50:50Z</time>
      </trkpt>
      <trkpt lat="45.90698" lon="4.61791">
        <ele>311</ele>
        <time>2020-12-13T10:50:51Z</time>
      </trkpt>
      <trkpt lat="45.90697" lon="4.61793">
        <ele>311</ele>
        <time>2020-12-13T10:50:52Z</time>
      </trkpt>
      <trkpt lat="45.90696" lon="4.61795">
        <ele>311</ele>
        <time>2020-12-13T10:50:53Z</time>
      </trkpt>
      <trkpt lat="45.90695" lon="4.61796">
        <ele>311.1</ele>
        <time>2020-12-13T10:50:54Z</time>
      </trkpt>
      <trkpt lat="45.90693" lon="4.61799">
        <ele>311.1</ele>
        <time>2020-12-13T10:50:55Z</time>
      </trkpt>
      <trkpt lat="45.90693" lon="4.618">
        <ele>311.1</ele>
        <time>2020-12-13T10:50:56Z</time>
      </trkpt>
      <trkpt lat="45.90691" lon="4.61802">
        <ele>311.1</ele>
        <time>2020-12-13T10:50:57Z</time>
      </trkpt>
      <trkpt lat="45.9069" lon="4.61803">
        <ele>311.1</ele>
        <time>2020-12-13T10:50:58Z</time>
      </trkpt>
      <trkpt lat="45.9069" lon="4.61804">
        <ele>311.1</ele>
        <time>2020-12-13T10:50:59Z</time>
      </trkpt>
      <trkpt lat="45.90689" lon="4.61806">
        <ele>311.2</ele>
        <time>2020-12-13T10:51:00Z</time>
      </trkpt>
      <trkpt lat="45.90688" lon="4.61806">
        <ele>311.2</ele>
        <time>2020-12-13T10:51:01Z</time>
      </trkpt>
      <trkpt lat="45.90687" lon="4.61808">
        <ele>311.2</ele>
        <time>2020-12-13T10:51:02Z</time>
      </trkpt>
      <trkpt lat="45.90686" lon="4.61809">
        <ele>311.2</ele>
        <time>2020-12-13T10:51:03Z</time>
      </trkpt>
      <trkpt lat="45.90686" lon="4.6181">
        <ele>311.2</ele>
        <time>2020-12-13T10:51:04Z</time>
      </trkpt>
      <trkpt lat="45.90685" lon="4.61811">
        <ele>311.2</ele>
        <time>2020-12-13T10:51:05Z</time>
      </trkpt>
      <trkpt lat="45.90685" lon="4.61812">
        <ele>311.2</ele>
        <time>2020-12-13T10:51:06Z</time>
      </trkpt>
      <trkpt lat="45.90683" lon="4.61813">
        <ele>311.2</ele>
        <time>2020-12-13T10:51:07Z</time>
      </trkpt>
      <trkpt lat="45.90682" lon="4.61814">
        <ele>311.2</ele>
        <time>2020-12-13T10:51:08Z</time>
      </trkpt>
      <trkpt lat="45.90681" lon="4.61815">
        <ele>311.2</ele>
        <time>2020-12-13T10:51:09Z</time>
      </trkpt>
      <trkpt lat="45.9068" lon="4.61817">
        <ele>311.3</ele>
        <time>2020-12-13T10:51:10Z</time>
      </trkpt>
      <trkpt lat="45.90679" lon="4.61818">
        <ele>311.3</ele>
        <time>2020-12-13T10:51:11Z</time>
      </trkpt>
      <trkpt lat="45.90679" lon="4.61818">
        <ele>311.3</ele>
        <time>2020-12-13T10:51:12Z</time>
      </trkpt>
      <trkpt lat="45.90677" lon="4.61821">
        <ele>311.3</ele>
        <time>2020-12-13T10:51:13Z</time>
      </trkpt>
      <trkpt lat="45.90676" lon="4.61822">
        <ele>311.3</ele>
        <time>2020-12-13T10:51:14Z</time>
      </trkpt>
      <trkpt lat="45.90675" lon="4.61823">
        <ele>311.3</ele>
        <time>2020-12-13T10:51:15Z</time>
      </trkpt>
      <trkpt lat="45.90674" lon="4.61825">
        <ele>311.3</ele>
        <time>2020-12-13T10:51:16Z</time>
      </trkpt>
      <trkpt lat="45.90673" lon="4.61826">
        <ele>311.3</ele>
        <time>2020-12-13T10:51:17Z</time>
      </trkpt>
      <trkpt lat="45.90673" lon="4.61827">
        <ele>311.3</ele>
        <time>2020-12-13T10:51:18Z</time>
      </trkpt>
      <trkpt lat="45.9067" lon="4.61829">
        <ele>311.3</ele>
        <time>2020-12-13T10:51:19Z</time>
      </trkpt>
      <trkpt lat="45.9067" lon="4.6183">
        <ele>311.3</ele>
        <time>2020-12-13T10:51:20Z</time>
      </trkpt>
      <trkpt lat="45.9067" lon="4.6183">
        <ele>311.3</ele>
        <time>2020-12-13T10:51:21Z</time>
      </trkpt>
      <trkpt lat="45.90667" lon="4.61833">
        <ele>311.3</ele>
        <time>2020-12-13T10:51:22Z</time>
      </trkpt>
      <trkpt lat="45.90667" lon="4.61833">
        <ele>311.3</ele>
        <time>2020-12-13T10:51:23Z</time>
      </trkpt>
      <trkpt lat="45.90667" lon="4.61834">
        <ele>311.3</ele>
        <time>2020-12-13T10:51:24Z</time>
      </trkpt>
      <trkpt lat="45.90666" lon="4.61835">
        <ele>311.3</ele>
        <time>2020-12-13T10:51:25Z</time>
      </trkpt>
      <trkpt lat="45.90664" lon="4.61837">
        <ele>311.2</ele>
        <time>2020-12-13T10:51:26Z</time>
      </trkpt>
      <trkpt lat="45.90663" lon="4.61838">
        <ele>311.2</ele>
        <time>2020-12-13T10:51:27Z</time>
      </trkpt>
      <trkpt lat="45.90662" lon="4.61839">
        <ele>311.2</ele>
        <time>2020-12-13T10:51:28Z</time>
      </trkpt>
      <trkpt lat="45.90661" lon="4.6184">
        <ele>311.2</ele>
        <time>2020-12-13T10:51:29Z</time>
      </trkpt>
      <trkpt lat="45.9066" lon="4.61841">
        <ele>311.2</ele>
        <time>2020-12-13T10:51:30Z</time>
      </trkpt>
      <trkpt lat="45.9066" lon="4.61842">
        <ele>311.2</ele>
        <time>2020-12-13T10:51:31Z</time>
      </trkpt>
      <trkpt lat="45.90659" lon="4.61843">
        <ele>311.2</ele>
        <time>2020-12-13T10:51:32Z</time>
      </trkpt>
      <trkpt lat="45.90658" lon="4.61845">
        <ele>311.1</ele>
        <time>2020-12-13T10:51:33Z</time>
      </trkpt>
      <trkpt lat="45.90657" lon="4.61846">
        <ele>311.1</ele>
        <time>2020-12-13T10:51:34Z</time>
      </trkpt>
      <trkpt lat="45.90655" lon="4.61848">
        <ele>311.1</ele>
        <time>2020-12-13T10:51:35Z</time>
      </trkpt>
      <trkpt lat="45.90654" lon="4.61849">
        <ele>311.1</ele>
        <time>2020-12-13T10:51:36Z</time>
      </trkpt>
      <trkpt lat="45.90653" lon="4.6185">
        <ele>311.1</ele>
        <time>2020-12-13T10:51:37Z</time>
      </trkpt>
      <trkpt lat="45.90652" lon="4.61851">
        <ele>311.1</ele>
        <time>2020-12-13T10:51:38Z</time>
      </trkpt>
      <trkpt lat="45.90651" lon="4.61853">
        <ele>311</ele>
        <time>2020-12-13T10:51:39Z</time>
      </trkpt>
      <trkpt lat="45.9065" lon="4.61854">
        <ele>311</ele>
        <time>2020-12-13T10:51:40Z</time>
      </trkpt>
      <trkpt lat="45.90649" lon="4.61856">
        <ele>311</ele>
        <time>2020-12-13T10:51:41Z</time>
      </trkpt>
      <trkpt lat="45.90649" lon="4.61856">
        <ele>311</ele>
        <time>2020-12-13T10:51:42Z</time>
      </trkpt>
      <trkpt lat="45.90648" lon="4.61858">
        <ele>311</ele>
        <time>2020-12-13T10:51:43Z</time>
      </trkpt>
      <trkpt lat="45.90648" lon="4.61859">
        <ele>311</ele>
        <time>2020-12-13T10:51:44Z</time>
      </trkpt>
      <trkpt lat="45.90647" lon="4.6186">
        <ele>311</ele>
        <time>2020-12-13T10:51:45Z</time>
      </trkpt>
      <trkpt lat="45.90646" lon="4.6186">
        <ele>311</ele>
        <time>2020-12-13T10:51:46Z</time>
      </trkpt>
      <trkpt lat="45.90645" lon="4.61863">
        <ele>311</ele>
        <time>2020-12-13T10:51:47Z</time>
      </trkpt>
      <trkpt lat="45.90644" lon="4.61863">
        <ele>311</ele>
        <time>2020-12-13T10:51:48Z</time>
      </trkpt>
      <trkpt lat="45.90642" lon="4.61866">
        <ele>310.9</ele>
        <time>2020-12-13T10:51:49Z</time>
      </trkpt>
      <trkpt lat="45.90641" lon="4.61868">
        <ele>310.9</ele>
        <time>2020-12-13T10:51:50Z</time>
      </trkpt>
      <trkpt lat="45.9064" lon="4.61869">
        <ele>310.9</ele>
        <time>2020-12-13T10:51:51Z</time>
      </trkpt>
      <trkpt lat="45.90639" lon="4.6187">
        <ele>310.9</ele>
        <time>2020-12-13T10:51:52Z</time>
      </trkpt>
      <trkpt lat="45.90637" lon="4.61872">
        <ele>310.9</ele>
        <time>2020-12-13T10:51:53Z</time>
      </trkpt>
      <trkpt lat="45.90637" lon="4.61873">
        <ele>310.9</ele>
        <time>2020-12-13T10:51:54Z</time>
      </trkpt>
      <trkpt lat="45.90636" lon="4.61874">
        <ele>310.9</ele>
        <time>2020-12-13T10:51:55Z</time>
      </trkpt>
      <trkpt lat="45.90635" lon="4.61876">
        <ele>310.9</ele>
        <time>2020-12-13T10:51:56Z</time>
      </trkpt>
      <trkpt lat="45.90635" lon="4.61876">
        <ele>310.9</ele>
        <time>2020-12-13T10:51:57Z</time>
      </trkpt>
      <trkpt lat="45.90634" lon="4.61878">
        <ele>310.9</ele>
        <time>2020-12-13T10:51:58Z</time>
      </trkpt>
      <trkpt lat="45.90633" lon="4.61879">
        <ele>310.9</ele>
        <time>2020-12-13T10:51:59Z</time>
      </trkpt>
      <trkpt lat="45.90631" lon="4.61881">
        <ele>310.9</ele>
        <time>2020-12-13T10:52:00Z</time>
      </trkpt>
      <trkpt lat="45.90631" lon="4.61882">
        <ele>310.9</ele>
        <time>2020-12-13T10:52:01Z</time>
      </trkpt>
      <trkpt lat="45.9063" lon="4.61882">
        <ele>310.9</ele>
        <time>2020-12-13T10:52:02Z</time>
      </trkpt>
      <trkpt lat="45.90629" lon="4.61885">
        <ele>310.9</ele>
        <time>2020-12-13T10:52:03Z</time>
      </trkpt>
      <trkpt lat="45.90628" lon="4.61886">
        <ele>310.9</ele>
        <time>2020-12-13T10:52:04Z</time>
      </trkpt>
      <trkpt lat="45.90627" lon="4.61887">
        <ele>310.9</ele>
        <time>2020-12-13T10:52:05Z</time>
      </trkpt>
      <trkpt lat="45.90627" lon="4.61888">
        <ele>310.8</ele>
        <time>2020-12-13T10:52:06Z</time>
      </trkpt>
      <trkpt lat="45.90626" lon="4.61889">
        <ele>310.8</ele>
        <time>2020-12-13T10:52:07Z</time>
      </trkpt>
      <trkpt lat="45.90625" lon="4.61891">
        <ele>310.8</ele>
        <time>2020-12-13T10:52:08Z</time>
      </trkpt>
      <trkpt lat="45.90624" lon="4.61893">
        <ele>310.8</ele>
        <time>2020-12-13T10:52:09Z</time>
      </trkpt>
      <trkpt lat="45.90623" lon="4.61894">
        <ele>310.8</ele>
        <time>2020-12-13T10:52:10Z</time>
      </trkpt>
      <trkpt lat="45.90622" lon="4.61895">
        <ele>310.8</ele>
        <time>2020-12-13T10:52:11Z</time>
      </trkpt>
      <trkpt lat="45.90621" lon="4.61897">
        <ele>310.8</ele>
        <time>2020-12-13T10:52:12Z</time>
      </trkpt>
      <trkpt lat="45.9062" lon="4.61898">
        <ele>310.8</ele>
        <time>2020-12-13T10:52:13Z</time>
      </trkpt>
      <trkpt lat="45.9062" lon="4.61898">
        <ele>310.8</ele>
        <time>2020-12-13T10:52:14Z</time>
      </trkpt>
      <trkpt lat="45.90619" lon="4.619">
        <ele>310.8</ele>
        <time>2020-12-13T10:52:15Z</time>
      </trkpt>
      <trkpt lat="45.90617" lon="4.61902">
        <ele>310.8</ele>
        <time>2020-12-13T10:52:16Z</time>
      </trkpt>
      <trkpt lat="45.90617" lon="4.61903">
        <ele>310.8</ele>
        <time>2020-12-13T10:52:17Z</time>
      </trkpt>
      <trkpt lat="45.90616" lon="4.61904">
        <ele>310.8</ele>
        <time>2020-12-13T10:52:18Z</time>
      </trkpt>
      <trkpt lat="45.90615" lon="4.61907">
        <ele>310.8</ele>
        <time>2020-12-13T10:52:19Z</time>
      </trkpt>
      <trkpt lat="45.90613" lon="4.61909">
        <ele>310.8</ele>
        <time>2020-12-13T10:52:20Z</time>
      </trkpt>
      <trkpt lat="45.90613" lon="4.6191">
        <ele>310.8</ele>
        <time>2020-12-13T10:52:21Z</time>
      </trkpt>
      <trkpt lat="45.90612" lon="4.61911">
        <ele>310.7</ele>
        <time>2020-12-13T10:52:22Z</time>
      </trkpt>
      <trkpt lat="45.90611" lon="4.61913">
        <ele>310.7</ele>
        <time>2020-12-13T10:52:23Z</time>
      </trkpt>
      <trkpt lat="45.90609" lon="4.61915">
        <ele>310.7</ele>
        <time>2020-12-13T10:52:24Z</time>
      </trkpt>
      <trkpt lat="45.90609" lon="4.61915">
        <ele>310.7</ele>
        <time>2020-12-13T10:52:25Z</time>
      </trkpt>
      <trkpt lat="45.90608" lon="4.61915">
        <ele>310.7</ele>
        <time>2020-12-13T10:52:26Z</time>
      </trkpt>
      <trkpt lat="45.90607" lon="4.61917">
        <ele>310.7</ele>
        <time>2020-12-13T10:52:27Z</time>
      </trkpt>
      <trkpt lat="45.90607" lon="4.61919">
        <ele>310.7</ele>
        <time>2020-12-13T10:52:28Z</time>
      </trkpt>
      <trkpt lat="45.90606" lon="4.6192">
        <ele>310.7</ele>
        <time>2020-12-13T10:52:29Z</time>
      </trkpt>
      <trkpt lat="45.90605" lon="4.61921">
        <ele>310.7</ele>
        <time>2020-12-13T10:52:30Z</time>
      </trkpt>
      <trkpt lat="45.90604" lon="4.61922">
        <ele>310.6</ele>
        <time>2020-12-13T10:52:31Z</time>
      </trkpt>
      <trkpt lat="45.90602" lon="4.61926">
        <ele>310.6</ele>
        <time>2020-12-13T10:52:32Z</time>
      </trkpt>
      <trkpt lat="45.90602" lon="4.61927">
        <ele>310.6</ele>
        <time>2020-12-13T10:52:33Z</time>
      </trkpt>
      <trkpt lat="45.90601" lon="4.61927">
        <ele>310.6</ele>
        <time>2020-12-13T10:52:34Z</time>
      </trkpt>
      <trkpt lat="45.906" lon="4.61928">
        <ele>310.6</ele>
        <time>2020-12-13T10:52:35Z</time>
      </trkpt>
      <trkpt lat="45.906" lon="4.61929">
        <ele>310.6</ele>
        <time>2020-12-13T10:52:36Z</time>
      </trkpt>
      <trkpt lat="45.906" lon="4.61929">
        <ele>310.6</ele>
        <time>2020-12-13T10:52:37Z</time>
      </trkpt>
      <trkpt lat="45.90599" lon="4.6193">
        <ele>310.6</ele>
        <time>2020-12-13T10:52:38Z</time>
      </trkpt>
      <trkpt lat="45.90598" lon="4.61932">
        <ele>310.6</ele>
        <time>2020-12-13T10:52:39Z</time>
      </trkpt>
      <trkpt lat="45.90597" lon="4.61934">
        <ele>310.6</ele>
        <time>2020-12-13T10:52:40Z</time>
      </trkpt>
      <trkpt lat="45.90595" lon="4.61938">
        <ele>310.6</ele>
        <time>2020-12-13T10:52:41Z</time>
      </trkpt>
      <trkpt lat="45.90595" lon="4.61939">
        <ele>310.6</ele>
        <time>2020-12-13T10:52:42Z</time>
      </trkpt>
      <trkpt lat="45.90595" lon="4.61939">
        <ele>310.6</ele>
        <time>2020-12-13T10:52:43Z</time>
      </trkpt>
      <trkpt lat="45.90594" lon="4.61941">
        <ele>310.6</ele>
        <time>2020-12-13T10:52:44Z</time>
      </trkpt>
      <trkpt lat="45.90593" lon="4.61943">
        <ele>310.6</ele>
        <time>2020-12-13T10:52:46Z</time>
      </trkpt>
      <trkpt lat="45.90592" lon="4.61944">
        <ele>310.6</ele>
        <time>2020-12-13T10:52:47Z</time>
      </trkpt>
      <trkpt lat="45.90592" lon="4.61945">
        <ele>310.6</ele>
        <time>2020-12-13T10:52:48Z</time>
      </trkpt>
      <trkpt lat="45.90592" lon="4.61946">
        <ele>310.6</ele>
        <time>2020-12-13T10:52:49Z</time>
      </trkpt>
      <trkpt lat="45.9059" lon="4.61948">
        <ele>310.6</ele>
        <time>2020-12-13T10:52:50Z</time>
      </trkpt>
      <trkpt lat="45.9059" lon="4.61949">
        <ele>310.7</ele>
        <time>2020-12-13T10:52:51Z</time>
      </trkpt>
      <trkpt lat="45.9059" lon="4.6195">
        <ele>310.7</ele>
        <time>2020-12-13T10:52:52Z</time>
      </trkpt>
      <trkpt lat="45.90589" lon="4.61953">
        <ele>310.7</ele>
        <time>2020-12-13T10:52:53Z</time>
      </trkpt>
      <trkpt lat="45.90589" lon="4.61954">
        <ele>310.7</ele>
        <time>2020-12-13T10:52:54Z</time>
      </trkpt>
      <trkpt lat="45.90589" lon="4.61956">
        <ele>310.7</ele>
        <time>2020-12-13T10:52:55Z</time>
      </trkpt>
      <trkpt lat="45.90588" lon="4.61958">
        <ele>310.7</ele>
        <time>2020-12-13T10:52:56Z</time>
      </trkpt>
      <trkpt lat="45.90587" lon="4.61961">
        <ele>310.8</ele>
        <time>2020-12-13T10:52:57Z</time>
      </trkpt>
      <trkpt lat="45.90587" lon="4.61963">
        <ele>310.8</ele>
        <time>2020-12-13T10:52:58Z</time>
      </trkpt>
      <trkpt lat="45.90586" lon="4.61964">
        <ele>310.8</ele>
        <time>2020-12-13T10:52:59Z</time>
      </trkpt>
      <trkpt lat="45.90585" lon="4.61967">
        <ele>310.9</ele>
        <time>2020-12-13T10:53:00Z</time>
      </trkpt>
      <trkpt lat="45.90585" lon="4.61969">
        <ele>310.9</ele>
        <time>2020-12-13T10:53:01Z</time>
      </trkpt>
      <trkpt lat="45.90584" lon="4.61971">
        <ele>311</ele>
        <time>2020-12-13T10:53:02Z</time>
      </trkpt>
      <trkpt lat="45.90584" lon="4.61972">
        <ele>311</ele>
        <time>2020-12-13T10:53:04Z</time>
      </trkpt>
      <trkpt lat="45.90583" lon="4.61973">
        <ele>311</ele>
        <time>2020-12-13T10:53:05Z</time>
      </trkpt>
      <trkpt lat="45.90582" lon="4.61977">
        <ele>311.1</ele>
        <time>2020-12-13T10:53:06Z</time>
      </trkpt>
      <trkpt lat="45.90581" lon="4.61978">
        <ele>311.1</ele>
        <time>2020-12-13T10:53:07Z</time>
      </trkpt>
      <trkpt lat="45.90581" lon="4.6198">
        <ele>311.1</ele>
        <time>2020-12-13T10:53:08Z</time>
      </trkpt>
      <trkpt lat="45.9058" lon="4.61982">
        <ele>311.1</ele>
        <time>2020-12-13T10:53:09Z</time>
      </trkpt>
      <trkpt lat="45.90579" lon="4.61984">
        <ele>311.2</ele>
        <time>2020-12-13T10:53:10Z</time>
      </trkpt>
      <trkpt lat="45.9058" lon="4.61985">
        <ele>311.2</ele>
        <time>2020-12-13T10:53:11Z</time>
      </trkpt>
      <trkpt lat="45.90579" lon="4.61986">
        <ele>311.2</ele>
        <time>2020-12-13T10:53:12Z</time>
      </trkpt>
      <trkpt lat="45.90578" lon="4.61987">
        <ele>311.2</ele>
        <time>2020-12-13T10:53:13Z</time>
      </trkpt>
      <trkpt lat="45.90578" lon="4.61989">
        <ele>311.3</ele>
        <time>2020-12-13T10:53:14Z</time>
      </trkpt>
      <trkpt lat="45.90578" lon="4.61991">
        <ele>311.3</ele>
        <time>2020-12-13T10:53:15Z</time>
      </trkpt>
      <trkpt lat="45.90577" lon="4.61992">
        <ele>311.3</ele>
        <time>2020-12-13T10:53:16Z</time>
      </trkpt>
      <trkpt lat="45.90577" lon="4.61994">
        <ele>311.3</ele>
        <time>2020-12-13T10:53:17Z</time>
      </trkpt>
      <trkpt lat="45.90576" lon="4.61995">
        <ele>311.3</ele>
        <time>2020-12-13T10:53:18Z</time>
      </trkpt>
      <trkpt lat="45.90575" lon="4.61997">
        <ele>311.4</ele>
        <time>2020-12-13T10:53:19Z</time>
      </trkpt>
      <trkpt lat="45.90574" lon="4.61999">
        <ele>311.4</ele>
        <time>2020-12-13T10:53:20Z</time>
      </trkpt>
      <trkpt lat="45.90574" lon="4.62001">
        <ele>311.4</ele>
        <time>2020-12-13T10:53:21Z</time>
      </trkpt>
      <trkpt lat="45.90574" lon="4.62003">
        <ele>311.5</ele>
        <time>2020-12-13T10:53:22Z</time>
      </trkpt>
      <trkpt lat="45.90573" lon="4.62004">
        <ele>311.5</ele>
        <time>2020-12-13T10:53:23Z</time>
      </trkpt>
      <trkpt lat="45.90573" lon="4.62006">
        <ele>311.5</ele>
        <time>2020-12-13T10:53:24Z</time>
      </trkpt>
      <trkpt lat="45.90573" lon="4.62007">
        <ele>311.5</ele>
        <time>2020-12-13T10:53:25Z</time>
      </trkpt>
      <trkpt lat="45.90571" lon="4.6201">
        <ele>311.6</ele>
        <time>2020-12-13T10:53:26Z</time>
      </trkpt>
      <trkpt lat="45.90571" lon="4.62011">
        <ele>311.6</ele>
        <time>2020-12-13T10:53:27Z</time>
      </trkpt>
      <trkpt lat="45.90571" lon="4.62012">
        <ele>311.6</ele>
        <time>2020-12-13T10:53:28Z</time>
      </trkpt>
      <trkpt lat="45.9057" lon="4.62014">
        <ele>311.7</ele>
        <time>2020-12-13T10:53:29Z</time>
      </trkpt>
      <trkpt lat="45.9057" lon="4.62016">
        <ele>311.7</ele>
        <time>2020-12-13T10:53:30Z</time>
      </trkpt>
      <trkpt lat="45.90569" lon="4.62017">
        <ele>311.7</ele>
        <time>2020-12-13T10:53:31Z</time>
      </trkpt>
      <trkpt lat="45.90569" lon="4.62019">
        <ele>311.8</ele>
        <time>2020-12-13T10:53:32Z</time>
      </trkpt>
      <trkpt lat="45.90568" lon="4.6202">
        <ele>311.8</ele>
        <time>2020-12-13T10:53:33Z</time>
      </trkpt>
      <trkpt lat="45.90567" lon="4.62022">
        <ele>311.9</ele>
        <time>2020-12-13T10:53:34Z</time>
      </trkpt>
      <trkpt lat="45.90568" lon="4.62023">
        <ele>311.9</ele>
        <time>2020-12-13T10:53:35Z</time>
      </trkpt>
      <trkpt lat="45.90568" lon="4.62025">
        <ele>312</ele>
        <time>2020-12-13T10:53:36Z</time>
      </trkpt>
      <trkpt lat="45.90567" lon="4.62028">
        <ele>312</ele>
        <time>2020-12-13T10:53:37Z</time>
      </trkpt>
      <trkpt lat="45.90567" lon="4.62029">
        <ele>312.1</ele>
        <time>2020-12-13T10:53:38Z</time>
      </trkpt>
      <trkpt lat="45.90567" lon="4.6203">
        <ele>312.1</ele>
        <time>2020-12-13T10:53:39Z</time>
      </trkpt>
      <trkpt lat="45.90566" lon="4.62032">
        <ele>312.1</ele>
        <time>2020-12-13T10:53:40Z</time>
      </trkpt>
      <trkpt lat="45.90566" lon="4.62034">
        <ele>312.2</ele>
        <time>2020-12-13T10:53:41Z</time>
      </trkpt>
      <trkpt lat="45.90565" lon="4.62035">
        <ele>312.2</ele>
        <time>2020-12-13T10:53:42Z</time>
      </trkpt>
      <trkpt lat="45.90565" lon="4.62036">
        <ele>312.3</ele>
        <time>2020-12-13T10:53:43Z</time>
      </trkpt>
      <trkpt lat="45.90565" lon="4.62038">
        <ele>312.3</ele>
        <time>2020-12-13T10:53:44Z</time>
      </trkpt>
      <trkpt lat="45.90564" lon="4.6204">
        <ele>312.4</ele>
        <time>2020-12-13T10:53:45Z</time>
      </trkpt>
      <trkpt lat="45.90564" lon="4.62041">
        <ele>312.4</ele>
        <time>2020-12-13T10:53:46Z</time>
      </trkpt>
      <trkpt lat="45.90563" lon="4.62043">
        <ele>312.5</ele>
        <time>2020-12-13T10:53:47Z</time>
      </trkpt>
      <trkpt lat="45.90563" lon="4.62045">
        <ele>312.5</ele>
        <time>2020-12-13T10:53:48Z</time>
      </trkpt>
      <trkpt lat="45.90562" lon="4.62046">
        <ele>312.6</ele>
        <time>2020-12-13T10:53:49Z</time>
      </trkpt>
      <trkpt lat="45.90562" lon="4.62048">
        <ele>312.6</ele>
        <time>2020-12-13T10:53:50Z</time>
      </trkpt>
      <trkpt lat="45.90561" lon="4.62049">
        <ele>312.7</ele>
        <time>2020-12-13T10:53:51Z</time>
      </trkpt>
      <trkpt lat="45.90561" lon="4.62051">
        <ele>312.7</ele>
        <time>2020-12-13T10:53:52Z</time>
      </trkpt>
      <trkpt lat="45.9056" lon="4.62052">
        <ele>312.7</ele>
        <time>2020-12-13T10:53:53Z</time>
      </trkpt>
      <trkpt lat="45.90559" lon="4.62053">
        <ele>312.8</ele>
        <time>2020-12-13T10:53:54Z</time>
      </trkpt>
      <trkpt lat="45.90559" lon="4.62056">
        <ele>312.9</ele>
        <time>2020-12-13T10:53:55Z</time>
      </trkpt>
      <trkpt lat="45.90558" lon="4.62058">
        <ele>313</ele>
        <time>2020-12-13T10:53:56Z</time>
      </trkpt>
      <trkpt lat="45.90557" lon="4.62059">
        <ele>313</ele>
        <time>2020-12-13T10:53:57Z</time>
      </trkpt>
      <trkpt lat="45.90556" lon="4.6206">
        <ele>313</ele>
        <time>2020-12-13T10:53:58Z</time>
      </trkpt>
      <trkpt lat="45.90555" lon="4.62062">
        <ele>313.1</ele>
        <time>2020-12-13T10:53:59Z</time>
      </trkpt>
      <trkpt lat="45.90554" lon="4.62063">
        <ele>313.2</ele>
        <time>2020-12-13T10:54:00Z</time>
      </trkpt>
      <trkpt lat="45.90554" lon="4.62065">
        <ele>313.2</ele>
        <time>2020-12-13T10:54:01Z</time>
      </trkpt>
      <trkpt lat="45.90554" lon="4.62066">
        <ele>313.3</ele>
        <time>2020-12-13T10:54:02Z</time>
      </trkpt>
      <trkpt lat="45.90554" lon="4.62068">
        <ele>313.3</ele>
        <time>2020-12-13T10:54:03Z</time>
      </trkpt>
      <trkpt lat="45.90553" lon="4.6207">
        <ele>313.4</ele>
        <time>2020-12-13T10:54:04Z</time>
      </trkpt>
      <trkpt lat="45.90553" lon="4.62072">
        <ele>313.4</ele>
        <time>2020-12-13T10:54:05Z</time>
      </trkpt>
      <trkpt lat="45.90552" lon="4.62074">
        <ele>313.5</ele>
        <time>2020-12-13T10:54:06Z</time>
      </trkpt>
      <trkpt lat="45.90551" lon="4.62076">
        <ele>313.5</ele>
        <time>2020-12-13T10:54:07Z</time>
      </trkpt>
      <trkpt lat="45.9055" lon="4.62078">
        <ele>313.6</ele>
        <time>2020-12-13T10:54:08Z</time>
      </trkpt>
      <trkpt lat="45.90549" lon="4.6208">
        <ele>313.6</ele>
        <time>2020-12-13T10:54:09Z</time>
      </trkpt>
      <trkpt lat="45.90548" lon="4.62082">
        <ele>313.7</ele>
        <time>2020-12-13T10:54:10Z</time>
      </trkpt>
      <trkpt lat="45.90548" lon="4.62083">
        <ele>313.7</ele>
        <time>2020-12-13T10:54:11Z</time>
      </trkpt>
      <trkpt lat="45.90548" lon="4.62085">
        <ele>313.7</ele>
        <time>2020-12-13T10:54:12Z</time>
      </trkpt>
      <trkpt lat="45.90548" lon="4.62085">
        <ele>313.8</ele>
        <time>2020-12-13T10:54:13Z</time>
      </trkpt>
      <trkpt lat="45.90548" lon="4.62087">
        <ele>313.8</ele>
        <time>2020-12-13T10:54:14Z</time>
      </trkpt>
      <trkpt lat="45.90547" lon="4.62088">
        <ele>313.8</ele>
        <time>2020-12-13T10:54:15Z</time>
      </trkpt>
      <trkpt lat="45.90546" lon="4.6209">
        <ele>313.9</ele>
        <time>2020-12-13T10:54:16Z</time>
      </trkpt>
      <trkpt lat="45.90545" lon="4.62091">
        <ele>313.9</ele>
        <time>2020-12-13T10:54:17Z</time>
      </trkpt>
      <trkpt lat="45.90545" lon="4.62092">
        <ele>313.9</ele>
        <time>2020-12-13T10:54:18Z</time>
      </trkpt>
      <trkpt lat="45.90544" lon="4.62095">
        <ele>314</ele>
        <time>2020-12-13T10:54:19Z</time>
      </trkpt>
      <trkpt lat="45.90544" lon="4.62097">
        <ele>314</ele>
        <time>2020-12-13T10:54:20Z</time>
      </trkpt>
      <trkpt lat="45.90543" lon="4.62098">
        <ele>314</ele>
        <time>2020-12-13T10:54:21Z</time>
      </trkpt>
      <trkpt lat="45.90542" lon="4.62099">
        <ele>314.1</ele>
        <time>2020-12-13T10:54:22Z</time>
      </trkpt>
      <trkpt lat="45.90541" lon="4.62101">
        <ele>314.1</ele>
        <time>2020-12-13T10:54:23Z</time>
      </trkpt>
      <trkpt lat="45.90542" lon="4.62102">
        <ele>314.1</ele>
        <time>2020-12-13T10:54:24Z</time>
      </trkpt>
      <trkpt lat="45.90542" lon="4.62103">
        <ele>314.1</ele>
        <time>2020-12-13T10:54:25Z</time>
      </trkpt>
      <trkpt lat="45.90541" lon="4.62105">
        <ele>314.2</ele>
        <time>2020-12-13T10:54:26Z</time>
      </trkpt>
      <trkpt lat="45.9054" lon="4.62106">
        <ele>314.2</ele>
        <time>2020-12-13T10:54:27Z</time>
      </trkpt>
      <trkpt lat="45.90539" lon="4.62109">
        <ele>314.2</ele>
        <time>2020-12-13T10:54:28Z</time>
      </trkpt>
      <trkpt lat="45.90539" lon="4.6211">
        <ele>314.3</ele>
        <time>2020-12-13T10:54:29Z</time>
      </trkpt>
      <trkpt lat="45.90538" lon="4.62111">
        <ele>314.3</ele>
        <time>2020-12-13T10:54:30Z</time>
      </trkpt>
      <trkpt lat="45.90538" lon="4.62113">
        <ele>314.3</ele>
        <time>2020-12-13T10:54:31Z</time>
      </trkpt>
      <trkpt lat="45.90537" lon="4.62114">
        <ele>314.3</ele>
        <time>2020-12-13T10:54:32Z</time>
      </trkpt>
      <trkpt lat="45.90536" lon="4.62115">
        <ele>314.4</ele>
        <time>2020-12-13T10:54:33Z</time>
      </trkpt>
      <trkpt lat="45.90535" lon="4.62117">
        <ele>314.4</ele>
        <time>2020-12-13T10:54:34Z</time>
      </trkpt>
      <trkpt lat="45.90534" lon="4.62118">
        <ele>314.4</ele>
        <time>2020-12-13T10:54:35Z</time>
      </trkpt>
      <trkpt lat="45.90533" lon="4.6212">
        <ele>314.4</ele>
        <time>2020-12-13T10:54:36Z</time>
      </trkpt>
      <trkpt lat="45.90532" lon="4.62121">
        <ele>314.4</ele>
        <time>2020-12-13T10:54:37Z</time>
      </trkpt>
      <trkpt lat="45.90531" lon="4.62122">
        <ele>314.5</ele>
        <time>2020-12-13T10:54:38Z</time>
      </trkpt>
      <trkpt lat="45.9053" lon="4.62124">
        <ele>314.5</ele>
        <time>2020-12-13T10:54:39Z</time>
      </trkpt>
      <trkpt lat="45.9053" lon="4.62125">
        <ele>314.5</ele>
        <time>2020-12-13T10:54:40Z</time>
      </trkpt>
      <trkpt lat="45.90528" lon="4.62127">
        <ele>314.5</ele>
        <time>2020-12-13T10:54:41Z</time>
      </trkpt>
      <trkpt lat="45.90527" lon="4.62128">
        <ele>314.5</ele>
        <time>2020-12-13T10:54:42Z</time>
      </trkpt>
      <trkpt lat="45.90526" lon="4.62131">
        <ele>314.6</ele>
        <time>2020-12-13T10:54:43Z</time>
      </trkpt>
      <trkpt lat="45.90525" lon="4.62132">
        <ele>314.6</ele>
        <time>2020-12-13T10:54:44Z</time>
      </trkpt>
      <trkpt lat="45.90525" lon="4.62133">
        <ele>314.6</ele>
        <time>2020-12-13T10:54:45Z</time>
      </trkpt>
      <trkpt lat="45.90525" lon="4.62134">
        <ele>314.6</ele>
        <time>2020-12-13T10:54:46Z</time>
      </trkpt>
      <trkpt lat="45.90524" lon="4.62134">
        <ele>314.6</ele>
        <time>2020-12-13T10:54:47Z</time>
      </trkpt>
      <trkpt lat="45.90523" lon="4.62136">
        <ele>314.6</ele>
        <time>2020-12-13T10:54:48Z</time>
      </trkpt>
      <trkpt lat="45.90522" lon="4.62139">
        <ele>314.6</ele>
        <time>2020-12-13T10:54:49Z</time>
      </trkpt>
      <trkpt lat="45.90521" lon="4.6214">
        <ele>314.6</ele>
        <time>2020-12-13T10:54:50Z</time>
      </trkpt>
      <trkpt lat="45.90519" lon="4.62142">
        <ele>314.7</ele>
        <time>2020-12-13T10:54:52Z</time>
      </trkpt>
      <trkpt lat="45.90518" lon="4.62142">
        <ele>314.7</ele>
        <time>2020-12-13T10:54:53Z</time>
      </trkpt>
      <trkpt lat="45.90517" lon="4.62144">
        <ele>314.7</ele>
        <time>2020-12-13T10:54:54Z</time>
      </trkpt>
      <trkpt lat="45.90516" lon="4.62146">
        <ele>314.7</ele>
        <time>2020-12-13T10:54:55Z</time>
      </trkpt>
      <trkpt lat="45.90516" lon="4.62148">
        <ele>314.7</ele>
        <time>2020-12-13T10:54:56Z</time>
      </trkpt>
      <trkpt lat="45.90513" lon="4.62151">
        <ele>314.8</ele>
        <time>2020-12-13T10:54:58Z</time>
      </trkpt>
      <trkpt lat="45.90512" lon="4.62154">
        <ele>314.8</ele>
        <time>2020-12-13T10:55:00Z</time>
      </trkpt>
      <trkpt lat="45.90509" lon="4.62158">
        <ele>314.8</ele>
        <time>2020-12-13T10:55:02Z</time>
      </trkpt>
      <trkpt lat="45.90509" lon="4.62159">
        <ele>314.8</ele>
        <time>2020-12-13T10:55:04Z</time>
      </trkpt>
      <trkpt lat="45.90508" lon="4.6216">
        <ele>314.8</ele>
        <time>2020-12-13T10:55:05Z</time>
      </trkpt>
      <trkpt lat="45.90507" lon="4.62161">
        <ele>314.8</ele>
        <time>2020-12-13T10:55:06Z</time>
      </trkpt>
      <trkpt lat="45.90506" lon="4.62162">
        <ele>314.8</ele>
        <time>2020-12-13T10:55:07Z</time>
      </trkpt>
      <trkpt lat="45.90505" lon="4.62164">
        <ele>314.8</ele>
        <time>2020-12-13T10:55:08Z</time>
      </trkpt>
      <trkpt lat="45.90505" lon="4.62166">
        <ele>314.8</ele>
        <time>2020-12-13T10:55:09Z</time>
      </trkpt>
      <trkpt lat="45.90504" lon="4.62166">
        <ele>314.8</ele>
        <time>2020-12-13T10:55:10Z</time>
      </trkpt>
      <trkpt lat="45.90503" lon="4.62167">
        <ele>314.8</ele>
        <time>2020-12-13T10:55:11Z</time>
      </trkpt>
      <trkpt lat="45.905" lon="4.62169">
        <ele>314.9</ele>
        <time>2020-12-13T10:55:12Z</time>
      </trkpt>
      <trkpt lat="45.90499" lon="4.6217">
        <ele>314.9</ele>
        <time>2020-12-13T10:55:13Z</time>
      </trkpt>
      <trkpt lat="45.90497" lon="4.62172">
        <ele>314.9</ele>
        <time>2020-12-13T10:55:14Z</time>
      </trkpt>
      <trkpt lat="45.90497" lon="4.62173">
        <ele>314.9</ele>
        <time>2020-12-13T10:55:15Z</time>
      </trkpt>
      <trkpt lat="45.90495" lon="4.62174">
        <ele>314.9</ele>
        <time>2020-12-13T10:55:16Z</time>
      </trkpt>
      <trkpt lat="45.90495" lon="4.62176">
        <ele>314.9</ele>
        <time>2020-12-13T10:55:17Z</time>
      </trkpt>
      <trkpt lat="45.90495" lon="4.62177">
        <ele>314.8</ele>
        <time>2020-12-13T10:55:18Z</time>
      </trkpt>
      <trkpt lat="45.90493" lon="4.62177">
        <ele>314.8</ele>
        <time>2020-12-13T10:55:19Z</time>
      </trkpt>
      <trkpt lat="45.90492" lon="4.62178">
        <ele>314.8</ele>
        <time>2020-12-13T10:55:20Z</time>
      </trkpt>
      <trkpt lat="45.90491" lon="4.62179">
        <ele>314.8</ele>
        <time>2020-12-13T10:55:21Z</time>
      </trkpt>
      <trkpt lat="45.9049" lon="4.6218">
        <ele>314.8</ele>
        <time>2020-12-13T10:55:22Z</time>
      </trkpt>
      <trkpt lat="45.90488" lon="4.6218">
        <ele>314.8</ele>
        <time>2020-12-13T10:55:23Z</time>
      </trkpt>
      <trkpt lat="45.90487" lon="4.62181">
        <ele>314.8</ele>
        <time>2020-12-13T10:55:24Z</time>
      </trkpt>
      <trkpt lat="45.90486" lon="4.62183">
        <ele>314.8</ele>
        <time>2020-12-13T10:55:25Z</time>
      </trkpt>
      <trkpt lat="45.90485" lon="4.62184">
        <ele>314.8</ele>
        <time>2020-12-13T10:55:26Z</time>
      </trkpt>
      <trkpt lat="45.90484" lon="4.62184">
        <ele>314.8</ele>
        <time>2020-12-13T10:55:27Z</time>
      </trkpt>
      <trkpt lat="45.90483" lon="4.62185">
        <ele>314.8</ele>
        <time>2020-12-13T10:55:28Z</time>
      </trkpt>
      <trkpt lat="45.90482" lon="4.62186">
        <ele>314.8</ele>
        <time>2020-12-13T10:55:29Z</time>
      </trkpt>
      <trkpt lat="45.90482" lon="4.62187">
        <ele>314.8</ele>
        <time>2020-12-13T10:55:30Z</time>
      </trkpt>
      <trkpt lat="45.9048" lon="4.62188">
        <ele>314.7</ele>
        <time>2020-12-13T10:55:31Z</time>
      </trkpt>
      <trkpt lat="45.90479" lon="4.62189">
        <ele>314.7</ele>
        <time>2020-12-13T10:55:32Z</time>
      </trkpt>
      <trkpt lat="45.90477" lon="4.62189">
        <ele>314.7</ele>
        <time>2020-12-13T10:55:33Z</time>
      </trkpt>
      <trkpt lat="45.90476" lon="4.6219">
        <ele>314.7</ele>
        <time>2020-12-13T10:55:34Z</time>
      </trkpt>
      <trkpt lat="45.90475" lon="4.6219">
        <ele>314.7</ele>
        <time>2020-12-13T10:55:35Z</time>
      </trkpt>
      <trkpt lat="45.90473" lon="4.62191">
        <ele>314.7</ele>
        <time>2020-12-13T10:55:36Z</time>
      </trkpt>
      <trkpt lat="45.90473" lon="4.62191">
        <ele>314.7</ele>
        <time>2020-12-13T10:55:37Z</time>
      </trkpt>
      <trkpt lat="45.90472" lon="4.62192">
        <ele>314.7</ele>
        <time>2020-12-13T10:55:38Z</time>
      </trkpt>
      <trkpt lat="45.9047" lon="4.62194">
        <ele>314.6</ele>
        <time>2020-12-13T10:55:39Z</time>
      </trkpt>
      <trkpt lat="45.90469" lon="4.62195">
        <ele>314.6</ele>
        <time>2020-12-13T10:55:40Z</time>
      </trkpt>
      <trkpt lat="45.90468" lon="4.62195">
        <ele>314.6</ele>
        <time>2020-12-13T10:55:41Z</time>
      </trkpt>
      <trkpt lat="45.90467" lon="4.62197">
        <ele>314.6</ele>
        <time>2020-12-13T10:55:42Z</time>
      </trkpt>
      <trkpt lat="45.90466" lon="4.62197">
        <ele>314.6</ele>
        <time>2020-12-13T10:55:43Z</time>
      </trkpt>
      <trkpt lat="45.90465" lon="4.62198">
        <ele>314.6</ele>
        <time>2020-12-13T10:55:44Z</time>
      </trkpt>
      <trkpt lat="45.90464" lon="4.62198">
        <ele>314.6</ele>
        <time>2020-12-13T10:55:45Z</time>
      </trkpt>
      <trkpt lat="45.90463" lon="4.62199">
        <ele>314.6</ele>
        <time>2020-12-13T10:55:46Z</time>
      </trkpt>
      <trkpt lat="45.90462" lon="4.62199">
        <ele>314.6</ele>
        <time>2020-12-13T10:55:47Z</time>
      </trkpt>
      <trkpt lat="45.90461" lon="4.62199">
        <ele>314.5</ele>
        <time>2020-12-13T10:55:48Z</time>
      </trkpt>
      <trkpt lat="45.90459" lon="4.62199">
        <ele>314.5</ele>
        <time>2020-12-13T10:55:49Z</time>
      </trkpt>
      <trkpt lat="45.90458" lon="4.62199">
        <ele>314.5</ele>
        <time>2020-12-13T10:55:50Z</time>
      </trkpt>
      <trkpt lat="45.90457" lon="4.62199">
        <ele>314.5</ele>
        <time>2020-12-13T10:55:51Z</time>
      </trkpt>
      <trkpt lat="45.90455" lon="4.622">
        <ele>314.5</ele>
        <time>2020-12-13T10:55:52Z</time>
      </trkpt>
      <trkpt lat="45.90455" lon="4.622">
        <ele>314.5</ele>
        <time>2020-12-13T10:55:53Z</time>
      </trkpt>
      <trkpt lat="45.90455" lon="4.62201">
        <ele>314.5</ele>
        <time>2020-12-13T10:55:54Z</time>
      </trkpt>
      <trkpt lat="45.90454" lon="4.622">
        <ele>314.5</ele>
        <time>2020-12-13T10:55:55Z</time>
      </trkpt>
      <trkpt lat="45.90452" lon="4.62201">
        <ele>314.5</ele>
        <time>2020-12-13T10:55:56Z</time>
      </trkpt>
      <trkpt lat="45.90451" lon="4.62201">
        <ele>314.5</ele>
        <time>2020-12-13T10:55:57Z</time>
      </trkpt>
      <trkpt lat="45.90449" lon="4.62201">
        <ele>314.5</ele>
        <time>2020-12-13T10:55:58Z</time>
      </trkpt>
      <trkpt lat="45.90446" lon="4.62203">
        <ele>314.5</ele>
        <time>2020-12-13T10:55:59Z</time>
      </trkpt>
      <trkpt lat="45.90445" lon="4.62203">
        <ele>314.5</ele>
        <time>2020-12-13T10:56:00Z</time>
      </trkpt>
      <trkpt lat="45.90444" lon="4.62204">
        <ele>314.5</ele>
        <time>2020-12-13T10:56:01Z</time>
      </trkpt>
      <trkpt lat="45.90442" lon="4.62205">
        <ele>314.5</ele>
        <time>2020-12-13T10:56:02Z</time>
      </trkpt>
      <trkpt lat="45.90441" lon="4.62205">
        <ele>314.5</ele>
        <time>2020-12-13T10:56:03Z</time>
      </trkpt>
      <trkpt lat="45.90441" lon="4.62205">
        <ele>314.5</ele>
        <time>2020-12-13T10:56:04Z</time>
      </trkpt>
      <trkpt lat="45.90439" lon="4.62205">
        <ele>314.5</ele>
        <time>2020-12-13T10:56:05Z</time>
      </trkpt>
      <trkpt lat="45.90438" lon="4.62205">
        <ele>314.5</ele>
        <time>2020-12-13T10:56:06Z</time>
      </trkpt>
      <trkpt lat="45.90437" lon="4.62205">
        <ele>314.5</ele>
        <time>2020-12-13T10:56:07Z</time>
      </trkpt>
      <trkpt lat="45.90436" lon="4.62206">
        <ele>314.5</ele>
        <time>2020-12-13T10:56:08Z</time>
      </trkpt>
      <trkpt lat="45.90434" lon="4.62207">
        <ele>314.5</ele>
        <time>2020-12-13T10:56:09Z</time>
      </trkpt>
      <trkpt lat="45.90433" lon="4.62207">
        <ele>314.5</ele>
        <time>2020-12-13T10:56:10Z</time>
      </trkpt>
      <trkpt lat="45.90432" lon="4.62207">
        <ele>314.5</ele>
        <time>2020-12-13T10:56:11Z</time>
      </trkpt>
      <trkpt lat="45.9043" lon="4.62208">
        <ele>314.5</ele>
        <time>2020-12-13T10:56:12Z</time>
      </trkpt>
      <trkpt lat="45.90429" lon="4.62208">
        <ele>314.5</ele>
        <time>2020-12-13T10:56:13Z</time>
      </trkpt>
      <trkpt lat="45.90429" lon="4.62208">
        <ele>314.5</ele>
        <time>2020-12-13T10:56:14Z</time>
      </trkpt>
      <trkpt lat="45.90428" lon="4.62209">
        <ele>314.5</ele>
        <time>2020-12-13T10:56:15Z</time>
      </trkpt>
      <trkpt lat="45.90427" lon="4.6221">
        <ele>314.5</ele>
        <time>2020-12-13T10:56:16Z</time>
      </trkpt>
      <trkpt lat="45.90425" lon="4.6221">
        <ele>314.5</ele>
        <time>2020-12-13T10:56:17Z</time>
      </trkpt>
      <trkpt lat="45.90424" lon="4.6221">
        <ele>314.6</ele>
        <time>2020-12-13T10:56:18Z</time>
      </trkpt>
      <trkpt lat="45.90422" lon="4.6221">
        <ele>314.6</ele>
        <time>2020-12-13T10:56:19Z</time>
      </trkpt>
      <trkpt lat="45.90421" lon="4.62212">
        <ele>314.6</ele>
        <time>2020-12-13T10:56:20Z</time>
      </trkpt>
      <trkpt lat="45.90419" lon="4.62212">
        <ele>314.6</ele>
        <time>2020-12-13T10:56:21Z</time>
      </trkpt>
      <trkpt lat="45.90418" lon="4.62213">
        <ele>314.6</ele>
        <time>2020-12-13T10:56:22Z</time>
      </trkpt>
      <trkpt lat="45.90416" lon="4.62215">
        <ele>314.7</ele>
        <time>2020-12-13T10:56:23Z</time>
      </trkpt>
      <trkpt lat="45.90415" lon="4.62215">
        <ele>314.7</ele>
        <time>2020-12-13T10:56:24Z</time>
      </trkpt>
      <trkpt lat="45.90414" lon="4.62217">
        <ele>314.7</ele>
        <time>2020-12-13T10:56:25Z</time>
      </trkpt>
      <trkpt lat="45.90412" lon="4.62217">
        <ele>314.7</ele>
        <time>2020-12-13T10:56:26Z</time>
      </trkpt>
      <trkpt lat="45.90412" lon="4.62218">
        <ele>314.7</ele>
        <time>2020-12-13T10:56:27Z</time>
      </trkpt>
      <trkpt lat="45.90411" lon="4.62218">
        <ele>314.7</ele>
        <time>2020-12-13T10:56:28Z</time>
      </trkpt>
      <trkpt lat="45.9041" lon="4.62219">
        <ele>314.8</ele>
        <time>2020-12-13T10:56:29Z</time>
      </trkpt>
      <trkpt lat="45.90409" lon="4.6222">
        <ele>314.8</ele>
        <time>2020-12-13T10:56:30Z</time>
      </trkpt>
      <trkpt lat="45.90407" lon="4.62221">
        <ele>314.8</ele>
        <time>2020-12-13T10:56:31Z</time>
      </trkpt>
      <trkpt lat="45.90405" lon="4.62223">
        <ele>314.8</ele>
        <time>2020-12-13T10:56:32Z</time>
      </trkpt>
      <trkpt lat="45.90404" lon="4.62223">
        <ele>314.9</ele>
        <time>2020-12-13T10:56:33Z</time>
      </trkpt>
      <trkpt lat="45.90403" lon="4.62224">
        <ele>314.9</ele>
        <time>2020-12-13T10:56:34Z</time>
      </trkpt>
      <trkpt lat="45.90402" lon="4.62225">
        <ele>314.9</ele>
        <time>2020-12-13T10:56:35Z</time>
      </trkpt>
      <trkpt lat="45.904" lon="4.62226">
        <ele>314.9</ele>
        <time>2020-12-13T10:56:36Z</time>
      </trkpt>
      <trkpt lat="45.90399" lon="4.62227">
        <ele>315</ele>
        <time>2020-12-13T10:56:37Z</time>
      </trkpt>
      <trkpt lat="45.90397" lon="4.62228">
        <ele>315</ele>
        <time>2020-12-13T10:56:38Z</time>
      </trkpt>
      <trkpt lat="45.90395" lon="4.62229">
        <ele>315</ele>
        <time>2020-12-13T10:56:39Z</time>
      </trkpt>
      <trkpt lat="45.90394" lon="4.62229">
        <ele>315</ele>
        <time>2020-12-13T10:56:40Z</time>
      </trkpt>
      <trkpt lat="45.90393" lon="4.6223">
        <ele>315</ele>
        <time>2020-12-13T10:56:41Z</time>
      </trkpt>
      <trkpt lat="45.90393" lon="4.6223">
        <ele>315</ele>
        <time>2020-12-13T10:56:42Z</time>
      </trkpt>
      <trkpt lat="45.90392" lon="4.62231">
        <ele>315.1</ele>
        <time>2020-12-13T10:56:43Z</time>
      </trkpt>
      <trkpt lat="45.90391" lon="4.62233">
        <ele>315.1</ele>
        <time>2020-12-13T10:56:44Z</time>
      </trkpt>
      <trkpt lat="45.90389" lon="4.62234">
        <ele>315.1</ele>
        <time>2020-12-13T10:56:45Z</time>
      </trkpt>
      <trkpt lat="45.90388" lon="4.62235">
        <ele>315.2</ele>
        <time>2020-12-13T10:56:46Z</time>
      </trkpt>
      <trkpt lat="45.90387" lon="4.62236">
        <ele>315.2</ele>
        <time>2020-12-13T10:56:47Z</time>
      </trkpt>
      <trkpt lat="45.90386" lon="4.62236">
        <ele>315.2</ele>
        <time>2020-12-13T10:56:48Z</time>
      </trkpt>
      <trkpt lat="45.90384" lon="4.62237">
        <ele>315.2</ele>
        <time>2020-12-13T10:56:49Z</time>
      </trkpt>
      <trkpt lat="45.90382" lon="4.62238">
        <ele>315.3</ele>
        <time>2020-12-13T10:56:50Z</time>
      </trkpt>
      <trkpt lat="45.90381" lon="4.62238">
        <ele>315.3</ele>
        <time>2020-12-13T10:56:51Z</time>
      </trkpt>
      <trkpt lat="45.90381" lon="4.62239">
        <ele>315.3</ele>
        <time>2020-12-13T10:56:52Z</time>
      </trkpt>
      <trkpt lat="45.90378" lon="4.6224">
        <ele>315.4</ele>
        <time>2020-12-13T10:56:53Z</time>
      </trkpt>
      <trkpt lat="45.90377" lon="4.62241">
        <ele>315.4</ele>
        <time>2020-12-13T10:56:54Z</time>
      </trkpt>
      <trkpt lat="45.90375" lon="4.62242">
        <ele>315.4</ele>
        <time>2020-12-13T10:56:55Z</time>
      </trkpt>
      <trkpt lat="45.90375" lon="4.62242">
        <ele>315.4</ele>
        <time>2020-12-13T10:56:56Z</time>
      </trkpt>
      <trkpt lat="45.90374" lon="4.62243">
        <ele>315.5</ele>
        <time>2020-12-13T10:56:58Z</time>
      </trkpt>
      <trkpt lat="45.90373" lon="4.62244">
        <ele>315.5</ele>
        <time>2020-12-13T10:56:59Z</time>
      </trkpt>
      <trkpt lat="45.90372" lon="4.62245">
        <ele>315.5</ele>
        <time>2020-12-13T10:57:00Z</time>
      </trkpt>
      <trkpt lat="45.90371" lon="4.62245">
        <ele>315.5</ele>
        <time>2020-12-13T10:57:01Z</time>
      </trkpt>
      <trkpt lat="45.9037" lon="4.62246">
        <ele>315.5</ele>
        <time>2020-12-13T10:57:02Z</time>
      </trkpt>
      <trkpt lat="45.9037" lon="4.62246">
        <ele>315.5</ele>
        <time>2020-12-13T10:57:03Z</time>
      </trkpt>
      <trkpt lat="45.90368" lon="4.62247">
        <ele>315.6</ele>
        <time>2020-12-13T10:57:04Z</time>
      </trkpt>
      <trkpt lat="45.90366" lon="4.62248">
        <ele>315.6</ele>
        <time>2020-12-13T10:57:05Z</time>
      </trkpt>
      <trkpt lat="45.90365" lon="4.62249">
        <ele>315.6</ele>
        <time>2020-12-13T10:57:06Z</time>
      </trkpt>
      <trkpt lat="45.90363" lon="4.6225">
        <ele>315.7</ele>
        <time>2020-12-13T10:57:07Z</time>
      </trkpt>
      <trkpt lat="45.90362" lon="4.62251">
        <ele>315.7</ele>
        <time>2020-12-13T10:57:08Z</time>
      </trkpt>
      <trkpt lat="45.90361" lon="4.62251">
        <ele>315.7</ele>
        <time>2020-12-13T10:57:09Z</time>
      </trkpt>
      <trkpt lat="45.90359" lon="4.62251">
        <ele>315.7</ele>
        <time>2020-12-13T10:57:10Z</time>
      </trkpt>
      <trkpt lat="45.90358" lon="4.62252">
        <ele>315.8</ele>
        <time>2020-12-13T10:57:11Z</time>
      </trkpt>
      <trkpt lat="45.90356" lon="4.62253">
        <ele>315.8</ele>
        <time>2020-12-13T10:57:12Z</time>
      </trkpt>
      <trkpt lat="45.90355" lon="4.62253">
        <ele>315.8</ele>
        <time>2020-12-13T10:57:13Z</time>
      </trkpt>
      <trkpt lat="45.90354" lon="4.62253">
        <ele>315.9</ele>
        <time>2020-12-13T10:57:14Z</time>
      </trkpt>
      <trkpt lat="45.90352" lon="4.62255">
        <ele>315.9</ele>
        <time>2020-12-13T10:57:15Z</time>
      </trkpt>
      <trkpt lat="45.90351" lon="4.62255">
        <ele>315.9</ele>
        <time>2020-12-13T10:57:16Z</time>
      </trkpt>
      <trkpt lat="45.9035" lon="4.62256">
        <ele>315.9</ele>
        <time>2020-12-13T10:57:17Z</time>
      </trkpt>
      <trkpt lat="45.90349" lon="4.62256">
        <ele>316</ele>
        <time>2020-12-13T10:57:18Z</time>
      </trkpt>
      <trkpt lat="45.90347" lon="4.62257">
        <ele>316</ele>
        <time>2020-12-13T10:57:19Z</time>
      </trkpt>
      <trkpt lat="45.90347" lon="4.62258">
        <ele>316.1</ele>
        <time>2020-12-13T10:57:20Z</time>
      </trkpt>
      <trkpt lat="45.90345" lon="4.62259">
        <ele>316.1</ele>
        <time>2020-12-13T10:57:21Z</time>
      </trkpt>
      <trkpt lat="45.90344" lon="4.62259">
        <ele>316.1</ele>
        <time>2020-12-13T10:57:22Z</time>
      </trkpt>
      <trkpt lat="45.90342" lon="4.62259">
        <ele>316.2</ele>
        <time>2020-12-13T10:57:23Z</time>
      </trkpt>
      <trkpt lat="45.90341" lon="4.62259">
        <ele>316.2</ele>
        <time>2020-12-13T10:57:24Z</time>
      </trkpt>
      <trkpt lat="45.9034" lon="4.62259">
        <ele>316.2</ele>
        <time>2020-12-13T10:57:25Z</time>
      </trkpt>
      <trkpt lat="45.90339" lon="4.62258">
        <ele>316.1</ele>
        <time>2020-12-13T10:57:26Z</time>
      </trkpt>
      <trkpt lat="45.90339" lon="4.62257">
        <ele>316.1</ele>
        <time>2020-12-13T10:57:27Z</time>
      </trkpt>
      <trkpt lat="45.90338" lon="4.62256">
        <ele>316</ele>
        <time>2020-12-13T10:57:28Z</time>
      </trkpt>
      <trkpt lat="45.90338" lon="4.62255">
        <ele>316</ele>
        <time>2020-12-13T10:57:29Z</time>
      </trkpt>
      <trkpt lat="45.90336" lon="4.62252">
        <ele>315.9</ele>
        <time>2020-12-13T10:57:30Z</time>
      </trkpt>
      <trkpt lat="45.90336" lon="4.6225">
        <ele>315.9</ele>
        <time>2020-12-13T10:57:31Z</time>
      </trkpt>
      <trkpt lat="45.90336" lon="4.62247">
        <ele>315.8</ele>
        <time>2020-12-13T10:57:32Z</time>
      </trkpt>
      <trkpt lat="45.90336" lon="4.62246">
        <ele>315.7</ele>
        <time>2020-12-13T10:57:33Z</time>
      </trkpt>
      <trkpt lat="45.90336" lon="4.62244">
        <ele>315.7</ele>
        <time>2020-12-13T10:57:34Z</time>
      </trkpt>
      <trkpt lat="45.90335" lon="4.62242">
        <ele>315.6</ele>
        <time>2020-12-13T10:57:35Z</time>
      </trkpt>
      <trkpt lat="45.90334" lon="4.62243">
        <ele>315.5</ele>
        <time>2020-12-13T10:57:36Z</time>
      </trkpt>
      <trkpt lat="45.90334" lon="4.6224">
        <ele>315.5</ele>
        <time>2020-12-13T10:57:37Z</time>
      </trkpt>
      <trkpt lat="45.90334" lon="4.6224">
        <ele>315.4</ele>
        <time>2020-12-13T10:57:38Z</time>
      </trkpt>
      <trkpt lat="45.90334" lon="4.62238">
        <ele>315.4</ele>
        <time>2020-12-13T10:57:39Z</time>
      </trkpt>
      <trkpt lat="45.90333" lon="4.62235">
        <ele>315.2</ele>
        <time>2020-12-13T10:57:40Z</time>
      </trkpt>
      <trkpt lat="45.90333" lon="4.62233">
        <ele>315.2</ele>
        <time>2020-12-13T10:57:41Z</time>
      </trkpt>
      <trkpt lat="45.90333" lon="4.62231">
        <ele>315.1</ele>
        <time>2020-12-13T10:57:42Z</time>
      </trkpt>
      <trkpt lat="45.90333" lon="4.62229">
        <ele>315.1</ele>
        <time>2020-12-13T10:57:43Z</time>
      </trkpt>
      <trkpt lat="45.90333" lon="4.62228">
        <ele>315</ele>
        <time>2020-12-13T10:57:44Z</time>
      </trkpt>
      <trkpt lat="45.90333" lon="4.62227">
        <ele>315</ele>
        <time>2020-12-13T10:57:45Z</time>
      </trkpt>
      <trkpt lat="45.90333" lon="4.62223">
        <ele>314.8</ele>
        <time>2020-12-13T10:57:46Z</time>
      </trkpt>
      <trkpt lat="45.90333" lon="4.62222">
        <ele>314.8</ele>
        <time>2020-12-13T10:57:47Z</time>
      </trkpt>
      <trkpt lat="45.90333" lon="4.62218">
        <ele>314.7</ele>
        <time>2020-12-13T10:57:48Z</time>
      </trkpt>
      <trkpt lat="45.90333" lon="4.62217">
        <ele>314.6</ele>
        <time>2020-12-13T10:57:49Z</time>
      </trkpt>
      <trkpt lat="45.90333" lon="4.62215">
        <ele>314.5</ele>
        <time>2020-12-13T10:57:50Z</time>
      </trkpt>
      <trkpt lat="45.90333" lon="4.62214">
        <ele>314.5</ele>
        <time>2020-12-13T10:57:51Z</time>
      </trkpt>
      <trkpt lat="45.90333" lon="4.62212">
        <ele>314.4</ele>
        <time>2020-12-13T10:57:52Z</time>
      </trkpt>
      <trkpt lat="45.90333" lon="4.6221">
        <ele>314.4</ele>
        <time>2020-12-13T10:57:53Z</time>
      </trkpt>
      <trkpt lat="45.90333" lon="4.62208">
        <ele>314.3</ele>
        <time>2020-12-13T10:57:54Z</time>
      </trkpt>
      <trkpt lat="45.90332" lon="4.62208">
        <ele>314.3</ele>
        <time>2020-12-13T10:57:55Z</time>
      </trkpt>
      <trkpt lat="45.90333" lon="4.62206">
        <ele>314.2</ele>
        <time>2020-12-13T10:57:56Z</time>
      </trkpt>
      <trkpt lat="45.90333" lon="4.62203">
        <ele>314.2</ele>
        <time>2020-12-13T10:57:57Z</time>
      </trkpt>
      <trkpt lat="45.90333" lon="4.62201">
        <ele>314.1</ele>
        <time>2020-12-13T10:57:58Z</time>
      </trkpt>
      <trkpt lat="45.90332" lon="4.622">
        <ele>314.1</ele>
        <time>2020-12-13T10:57:59Z</time>
      </trkpt>
      <trkpt lat="45.90333" lon="4.62196">
        <ele>314</ele>
        <time>2020-12-13T10:58:00Z</time>
      </trkpt>
      <trkpt lat="45.90333" lon="4.62195">
        <ele>313.9</ele>
        <time>2020-12-13T10:58:01Z</time>
      </trkpt>
      <trkpt lat="45.90333" lon="4.62192">
        <ele>313.8</ele>
        <time>2020-12-13T10:58:02Z</time>
      </trkpt>
      <trkpt lat="45.90333" lon="4.6219">
        <ele>313.8</ele>
        <time>2020-12-13T10:58:03Z</time>
      </trkpt>
      <trkpt lat="45.90333" lon="4.62189">
        <ele>313.8</ele>
        <time>2020-12-13T10:58:04Z</time>
      </trkpt>
      <trkpt lat="45.90333" lon="4.62186">
        <ele>313.7</ele>
        <time>2020-12-13T10:58:05Z</time>
      </trkpt>
      <trkpt lat="45.90333" lon="4.62185">
        <ele>313.6</ele>
        <time>2020-12-13T10:58:06Z</time>
      </trkpt>
      <trkpt lat="45.90333" lon="4.62183">
        <ele>313.6</ele>
        <time>2020-12-13T10:58:07Z</time>
      </trkpt>
      <trkpt lat="45.90333" lon="4.62181">
        <ele>313.5</ele>
        <time>2020-12-13T10:58:08Z</time>
      </trkpt>
      <trkpt lat="45.90333" lon="4.6218">
        <ele>313.5</ele>
        <time>2020-12-13T10:58:09Z</time>
      </trkpt>
      <trkpt lat="45.90333" lon="4.62178">
        <ele>313.5</ele>
        <time>2020-12-13T10:58:10Z</time>
      </trkpt>
      <trkpt lat="45.90333" lon="4.62176">
        <ele>313.4</ele>
        <time>2020-12-13T10:58:11Z</time>
      </trkpt>
      <trkpt lat="45.90333" lon="4.62174">
        <ele>313.4</ele>
        <time>2020-12-13T10:58:12Z</time>
      </trkpt>
      <trkpt lat="45.90333" lon="4.62171">
        <ele>313.3</ele>
        <time>2020-12-13T10:58:13Z</time>
      </trkpt>
      <trkpt lat="45.90333" lon="4.62168">
        <ele>313.3</ele>
        <time>2020-12-13T10:58:14Z</time>
      </trkpt>
      <trkpt lat="45.90333" lon="4.62166">
        <ele>313.2</ele>
        <time>2020-12-13T10:58:15Z</time>
      </trkpt>
      <trkpt lat="45.90333" lon="4.62165">
        <ele>313.2</ele>
        <time>2020-12-13T10:58:16Z</time>
      </trkpt>
      <trkpt lat="45.90334" lon="4.62163">
        <ele>313.2</ele>
        <time>2020-12-13T10:58:17Z</time>
      </trkpt>
      <trkpt lat="45.90334" lon="4.62161">
        <ele>313.1</ele>
        <time>2020-12-13T10:58:18Z</time>
      </trkpt>
      <trkpt lat="45.90334" lon="4.6216">
        <ele>313.1</ele>
        <time>2020-12-13T10:58:19Z</time>
      </trkpt>
      <trkpt lat="45.90334" lon="4.62157">
        <ele>313.1</ele>
        <time>2020-12-13T10:58:20Z</time>
      </trkpt>
      <trkpt lat="45.90334" lon="4.62155">
        <ele>313</ele>
        <time>2020-12-13T10:58:21Z</time>
      </trkpt>
      <trkpt lat="45.90335" lon="4.62151">
        <ele>312.9</ele>
        <time>2020-12-13T10:58:22Z</time>
      </trkpt>
      <trkpt lat="45.90335" lon="4.6215">
        <ele>312.9</ele>
        <time>2020-12-13T10:58:23Z</time>
      </trkpt>
      <trkpt lat="45.90334" lon="4.62149">
        <ele>312.9</ele>
        <time>2020-12-13T10:58:24Z</time>
      </trkpt>
      <trkpt lat="45.90334" lon="4.62147">
        <ele>312.9</ele>
        <time>2020-12-13T10:58:25Z</time>
      </trkpt>
      <trkpt lat="45.90335" lon="4.62145">
        <ele>312.8</ele>
        <time>2020-12-13T10:58:26Z</time>
      </trkpt>
      <trkpt lat="45.90335" lon="4.62145">
        <ele>312.8</ele>
        <time>2020-12-13T10:58:27Z</time>
      </trkpt>
      <trkpt lat="45.90335" lon="4.62142">
        <ele>312.8</ele>
        <time>2020-12-13T10:58:28Z</time>
      </trkpt>
      <trkpt lat="45.90335" lon="4.6214">
        <ele>312.7</ele>
        <time>2020-12-13T10:58:29Z</time>
      </trkpt>
      <trkpt lat="45.90334" lon="4.62139">
        <ele>312.7</ele>
        <time>2020-12-13T10:58:30Z</time>
      </trkpt>
      <trkpt lat="45.90334" lon="4.62137">
        <ele>312.7</ele>
        <time>2020-12-13T10:58:31Z</time>
      </trkpt>
      <trkpt lat="45.90333" lon="4.62136">
        <ele>312.7</ele>
        <time>2020-12-13T10:58:32Z</time>
      </trkpt>
      <trkpt lat="45.90333" lon="4.62132">
        <ele>312.6</ele>
        <time>2020-12-13T10:58:33Z</time>
      </trkpt>
      <trkpt lat="45.90333" lon="4.6213">
        <ele>312.5</ele>
        <time>2020-12-13T10:58:34Z</time>
      </trkpt>
      <trkpt lat="45.90333" lon="4.62129">
        <ele>312.5</ele>
        <time>2020-12-13T10:58:35Z</time>
      </trkpt>
      <trkpt lat="45.90333" lon="4.62127">
        <ele>312.5</ele>
        <time>2020-12-13T10:58:36Z</time>
      </trkpt>
      <trkpt lat="45.90333" lon="4.62125">
        <ele>312.4</ele>
        <time>2020-12-13T10:58:37Z</time>
      </trkpt>
      <trkpt lat="45.90333" lon="4.62123">
        <ele>312.4</ele>
        <time>2020-12-13T10:58:38Z</time>
      </trkpt>
      <trkpt lat="45.90332" lon="4.62122">
        <ele>312.4</ele>
        <time>2020-12-13T10:58:39Z</time>
      </trkpt>
      <trkpt lat="45.90332" lon="4.62121">
        <ele>312.4</ele>
        <time>2020-12-13T10:58:40Z</time>
      </trkpt>
      <trkpt lat="45.90331" lon="4.62119">
        <ele>312.3</ele>
        <time>2020-12-13T10:58:41Z</time>
      </trkpt>
      <trkpt lat="45.9033" lon="4.62117">
        <ele>312.3</ele>
        <time>2020-12-13T10:58:42Z</time>
      </trkpt>
      <trkpt lat="45.9033" lon="4.62115">
        <ele>312.2</ele>
        <time>2020-12-13T10:58:43Z</time>
      </trkpt>
      <trkpt lat="45.9033" lon="4.62113">
        <ele>312.2</ele>
        <time>2020-12-13T10:58:44Z</time>
      </trkpt>
      <trkpt lat="45.90329" lon="4.62111">
        <ele>312.2</ele>
        <time>2020-12-13T10:58:45Z</time>
      </trkpt>
      <trkpt lat="45.90328" lon="4.6211">
        <ele>312.1</ele>
        <time>2020-12-13T10:58:46Z</time>
      </trkpt>
      <trkpt lat="45.90327" lon="4.62109">
        <ele>312.1</ele>
        <time>2020-12-13T10:58:47Z</time>
      </trkpt>
      <trkpt lat="45.90326" lon="4.62105">
        <ele>312</ele>
        <time>2020-12-13T10:58:48Z</time>
      </trkpt>
      <trkpt lat="45.90326" lon="4.62103">
        <ele>312</ele>
        <time>2020-12-13T10:58:49Z</time>
      </trkpt>
      <trkpt lat="45.90326" lon="4.62102">
        <ele>312</ele>
        <time>2020-12-13T10:58:50Z</time>
      </trkpt>
      <trkpt lat="45.90325" lon="4.62102">
        <ele>312</ele>
        <time>2020-12-13T10:58:51Z</time>
      </trkpt>
      <trkpt lat="45.90325" lon="4.62102">
        <ele>312</ele>
        <time>2020-12-13T10:58:52Z</time>
      </trkpt>
      <trkpt lat="45.90324" lon="4.62099">
        <ele>311.9</ele>
        <time>2020-12-13T10:58:53Z</time>
      </trkpt>
      <trkpt lat="45.90324" lon="4.62098">
        <ele>311.9</ele>
        <time>2020-12-13T10:58:54Z</time>
      </trkpt>
      <trkpt lat="45.90324" lon="4.62095">
        <ele>311.8</ele>
        <time>2020-12-13T10:58:55Z</time>
      </trkpt>
      <trkpt lat="45.90323" lon="4.62092">
        <ele>311.8</ele>
        <time>2020-12-13T10:58:56Z</time>
      </trkpt>
      <trkpt lat="45.90323" lon="4.62091">
        <ele>311.8</ele>
        <time>2020-12-13T10:58:57Z</time>
      </trkpt>
      <trkpt lat="45.90322" lon="4.62089">
        <ele>311.7</ele>
        <time>2020-12-13T10:58:58Z</time>
      </trkpt>
      <trkpt lat="45.90322" lon="4.62086">
        <ele>311.7</ele>
        <time>2020-12-13T10:58:59Z</time>
      </trkpt>
      <trkpt lat="45.90321" lon="4.62085">
        <ele>311.7</ele>
        <time>2020-12-13T10:59:00Z</time>
      </trkpt>
      <trkpt lat="45.90321" lon="4.62084">
        <ele>311.7</ele>
        <time>2020-12-13T10:59:01Z</time>
      </trkpt>
      <trkpt lat="45.9032" lon="4.62081">
        <ele>311.6</ele>
        <time>2020-12-13T10:59:02Z</time>
      </trkpt>
      <trkpt lat="45.9032" lon="4.6208">
        <ele>311.6</ele>
        <time>2020-12-13T10:59:04Z</time>
      </trkpt>
      <trkpt lat="45.90319" lon="4.62079">
        <ele>311.6</ele>
        <time>2020-12-13T10:59:05Z</time>
      </trkpt>
      <trkpt lat="45.90319" lon="4.62078">
        <ele>311.5</ele>
        <time>2020-12-13T10:59:06Z</time>
      </trkpt>
      <trkpt lat="45.90318" lon="4.62075">
        <ele>311.5</ele>
        <time>2020-12-13T10:59:07Z</time>
      </trkpt>
      <trkpt lat="45.90318" lon="4.62072">
        <ele>311.5</ele>
        <time>2020-12-13T10:59:08Z</time>
      </trkpt>
      <trkpt lat="45.90318" lon="4.62071">
        <ele>311.5</ele>
        <time>2020-12-13T10:59:09Z</time>
      </trkpt>
      <trkpt lat="45.90317" lon="4.62069">
        <ele>311.4</ele>
        <time>2020-12-13T10:59:10Z</time>
      </trkpt>
      <trkpt lat="45.90316" lon="4.62067">
        <ele>311.4</ele>
        <time>2020-12-13T10:59:11Z</time>
      </trkpt>
      <trkpt lat="45.90316" lon="4.62065">
        <ele>311.4</ele>
        <time>2020-12-13T10:59:12Z</time>
      </trkpt>
      <trkpt lat="45.90315" lon="4.62064">
        <ele>311.4</ele>
        <time>2020-12-13T10:59:13Z</time>
      </trkpt>
      <trkpt lat="45.90315" lon="4.62062">
        <ele>311.3</ele>
        <time>2020-12-13T10:59:14Z</time>
      </trkpt>
      <trkpt lat="45.90314" lon="4.6206">
        <ele>311.3</ele>
        <time>2020-12-13T10:59:15Z</time>
      </trkpt>
      <trkpt lat="45.90313" lon="4.62059">
        <ele>311.3</ele>
        <time>2020-12-13T10:59:16Z</time>
      </trkpt>
      <trkpt lat="45.90313" lon="4.62057">
        <ele>311.3</ele>
        <time>2020-12-13T10:59:17Z</time>
      </trkpt>
      <trkpt lat="45.90312" lon="4.62055">
        <ele>311.3</ele>
        <time>2020-12-13T10:59:18Z</time>
      </trkpt>
      <trkpt lat="45.90312" lon="4.62052">
        <ele>311.2</ele>
        <time>2020-12-13T10:59:19Z</time>
      </trkpt>
      <trkpt lat="45.90311" lon="4.62051">
        <ele>311.2</ele>
        <time>2020-12-13T10:59:20Z</time>
      </trkpt>
      <trkpt lat="45.90311" lon="4.62049">
        <ele>311.2</ele>
        <time>2020-12-13T10:59:21Z</time>
      </trkpt>
      <trkpt lat="45.9031" lon="4.62047">
        <ele>311.2</ele>
        <time>2020-12-13T10:59:22Z</time>
      </trkpt>
      <trkpt lat="45.9031" lon="4.62045">
        <ele>311.2</ele>
        <time>2020-12-13T10:59:23Z</time>
      </trkpt>
      <trkpt lat="45.90309" lon="4.62043">
        <ele>311.1</ele>
        <time>2020-12-13T10:59:24Z</time>
      </trkpt>
      <trkpt lat="45.90308" lon="4.62041">
        <ele>311.1</ele>
        <time>2020-12-13T10:59:25Z</time>
      </trkpt>
      <trkpt lat="45.90308" lon="4.62039">
        <ele>311.1</ele>
        <time>2020-12-13T10:59:26Z</time>
      </trkpt>
      <trkpt lat="45.90307" lon="4.62037">
        <ele>311.1</ele>
        <time>2020-12-13T10:59:27Z</time>
      </trkpt>
      <trkpt lat="45.90307" lon="4.62036">
        <ele>311.1</ele>
        <time>2020-12-13T10:59:28Z</time>
      </trkpt>
      <trkpt lat="45.90306" lon="4.62034">
        <ele>311.1</ele>
        <time>2020-12-13T10:59:29Z</time>
      </trkpt>
      <trkpt lat="45.90306" lon="4.62034">
        <ele>311</ele>
        <time>2020-12-13T10:59:30Z</time>
      </trkpt>
      <trkpt lat="45.90305" lon="4.62032">
        <ele>311</ele>
        <time>2020-12-13T10:59:31Z</time>
      </trkpt>
      <trkpt lat="45.90305" lon="4.6203">
        <ele>311</ele>
        <time>2020-12-13T10:59:32Z</time>
      </trkpt>
      <trkpt lat="45.90304" lon="4.62028">
        <ele>311</ele>
        <time>2020-12-13T10:59:33Z</time>
      </trkpt>
      <trkpt lat="45.90304" lon="4.62027">
        <ele>311</ele>
        <time>2020-12-13T10:59:34Z</time>
      </trkpt>
      <trkpt lat="45.90303" lon="4.62024">
        <ele>311</ele>
        <time>2020-12-13T10:59:35Z</time>
      </trkpt>
      <trkpt lat="45.90303" lon="4.62022">
        <ele>310.9</ele>
        <time>2020-12-13T10:59:36Z</time>
      </trkpt>
      <trkpt lat="45.90303" lon="4.62021">
        <ele>310.9</ele>
        <time>2020-12-13T10:59:37Z</time>
      </trkpt>
      <trkpt lat="45.90302" lon="4.6202">
        <ele>310.9</ele>
        <time>2020-12-13T10:59:38Z</time>
      </trkpt>
      <trkpt lat="45.90302" lon="4.62019">
        <ele>310.9</ele>
        <time>2020-12-13T10:59:39Z</time>
      </trkpt>
      <trkpt lat="45.90301" lon="4.62015">
        <ele>310.9</ele>
        <time>2020-12-13T10:59:40Z</time>
      </trkpt>
      <trkpt lat="45.90301" lon="4.62014">
        <ele>310.9</ele>
        <time>2020-12-13T10:59:41Z</time>
      </trkpt>
      <trkpt lat="45.903" lon="4.62013">
        <ele>310.9</ele>
        <time>2020-12-13T10:59:42Z</time>
      </trkpt>
      <trkpt lat="45.903" lon="4.62011">
        <ele>310.8</ele>
        <time>2020-12-13T10:59:43Z</time>
      </trkpt>
      <trkpt lat="45.903" lon="4.62009">
        <ele>310.8</ele>
        <time>2020-12-13T10:59:44Z</time>
      </trkpt>
      <trkpt lat="45.90299" lon="4.62007">
        <ele>310.8</ele>
        <time>2020-12-13T10:59:45Z</time>
      </trkpt>
      <trkpt lat="45.90299" lon="4.62005">
        <ele>310.8</ele>
        <time>2020-12-13T10:59:46Z</time>
      </trkpt>
      <trkpt lat="45.90298" lon="4.62002">
        <ele>310.8</ele>
        <time>2020-12-13T10:59:47Z</time>
      </trkpt>
      <trkpt lat="45.90299" lon="4.62001">
        <ele>310.8</ele>
        <time>2020-12-13T10:59:48Z</time>
      </trkpt>
      <trkpt lat="45.90298" lon="4.62">
        <ele>310.7</ele>
        <time>2020-12-13T10:59:49Z</time>
      </trkpt>
      <trkpt lat="45.90298" lon="4.61999">
        <ele>310.7</ele>
        <time>2020-12-13T10:59:50Z</time>
      </trkpt>
      <trkpt lat="45.90298" lon="4.61998">
        <ele>310.7</ele>
        <time>2020-12-13T10:59:51Z</time>
      </trkpt>
      <trkpt lat="45.90297" lon="4.61995">
        <ele>310.7</ele>
        <time>2020-12-13T10:59:52Z</time>
      </trkpt>
      <trkpt lat="45.90296" lon="4.61992">
        <ele>310.7</ele>
        <time>2020-12-13T10:59:53Z</time>
      </trkpt>
      <trkpt lat="45.90295" lon="4.61991">
        <ele>310.7</ele>
        <time>2020-12-13T10:59:54Z</time>
      </trkpt>
      <trkpt lat="45.90295" lon="4.61989">
        <ele>310.7</ele>
        <time>2020-12-13T10:59:55Z</time>
      </trkpt>
      <trkpt lat="45.90295" lon="4.6199">
        <ele>310.6</ele>
        <time>2020-12-13T10:59:56Z</time>
      </trkpt>
      <trkpt lat="45.90294" lon="4.61988">
        <ele>310.6</ele>
        <time>2020-12-13T10:59:57Z</time>
      </trkpt>
      <trkpt lat="45.90294" lon="4.61985">
        <ele>310.6</ele>
        <time>2020-12-13T10:59:58Z</time>
      </trkpt>
      <trkpt lat="45.90293" lon="4.61983">
        <ele>310.6</ele>
        <time>2020-12-13T10:59:59Z</time>
      </trkpt>
      <trkpt lat="45.90293" lon="4.61981">
        <ele>310.6</ele>
        <time>2020-12-13T11:00:00Z</time>
      </trkpt>
      <trkpt lat="45.90293" lon="4.61979">
        <ele>310.6</ele>
        <time>2020-12-13T11:00:01Z</time>
      </trkpt>
      <trkpt lat="45.90293" lon="4.61978">
        <ele>310.5</ele>
        <time>2020-12-13T11:00:02Z</time>
      </trkpt>
      <trkpt lat="45.90292" lon="4.61977">
        <ele>310.5</ele>
        <time>2020-12-13T11:00:03Z</time>
      </trkpt>
      <trkpt lat="45.90291" lon="4.61975">
        <ele>310.5</ele>
        <time>2020-12-13T11:00:04Z</time>
      </trkpt>
      <trkpt lat="45.90291" lon="4.61973">
        <ele>310.5</ele>
        <time>2020-12-13T11:00:05Z</time>
      </trkpt>
      <trkpt lat="45.90291" lon="4.61972">
        <ele>310.5</ele>
        <time>2020-12-13T11:00:06Z</time>
      </trkpt>
      <trkpt lat="45.90291" lon="4.6197">
        <ele>310.5</ele>
        <time>2020-12-13T11:00:07Z</time>
      </trkpt>
      <trkpt lat="45.90291" lon="4.61968">
        <ele>310.5</ele>
        <time>2020-12-13T11:00:08Z</time>
      </trkpt>
      <trkpt lat="45.9029" lon="4.61967">
        <ele>310.4</ele>
        <time>2020-12-13T11:00:09Z</time>
      </trkpt>
      <trkpt lat="45.9029" lon="4.61964">
        <ele>310.4</ele>
        <time>2020-12-13T11:00:10Z</time>
      </trkpt>
      <trkpt lat="45.9029" lon="4.61962">
        <ele>310.4</ele>
        <time>2020-12-13T11:00:11Z</time>
      </trkpt>
      <trkpt lat="45.9029" lon="4.61961">
        <ele>310.4</ele>
        <time>2020-12-13T11:00:12Z</time>
      </trkpt>
      <trkpt lat="45.9029" lon="4.61959">
        <ele>310.4</ele>
        <time>2020-12-13T11:00:13Z</time>
      </trkpt>
      <trkpt lat="45.9029" lon="4.61956">
        <ele>310.4</ele>
        <time>2020-12-13T11:00:14Z</time>
      </trkpt>
      <trkpt lat="45.9029" lon="4.61954">
        <ele>310.4</ele>
        <time>2020-12-13T11:00:15Z</time>
      </trkpt>
      <trkpt lat="45.9029" lon="4.61952">
        <ele>310.3</ele>
        <time>2020-12-13T11:00:16Z</time>
      </trkpt>
      <trkpt lat="45.9029" lon="4.6195">
        <ele>310.3</ele>
        <time>2020-12-13T11:00:17Z</time>
      </trkpt>
      <trkpt lat="45.90288" lon="4.61947">
        <ele>310.3</ele>
        <time>2020-12-13T11:00:18Z</time>
      </trkpt>
      <trkpt lat="45.90288" lon="4.61946">
        <ele>310.3</ele>
        <time>2020-12-13T11:00:19Z</time>
      </trkpt>
      <trkpt lat="45.90288" lon="4.61944">
        <ele>310.3</ele>
        <time>2020-12-13T11:00:20Z</time>
      </trkpt>
      <trkpt lat="45.90287" lon="4.61942">
        <ele>310.3</ele>
        <time>2020-12-13T11:00:21Z</time>
      </trkpt>
      <trkpt lat="45.90287" lon="4.61941">
        <ele>310.3</ele>
        <time>2020-12-13T11:00:22Z</time>
      </trkpt>
      <trkpt lat="45.90287" lon="4.61939">
        <ele>310.3</ele>
        <time>2020-12-13T11:00:23Z</time>
      </trkpt>
      <trkpt lat="45.90286" lon="4.61936">
        <ele>310.2</ele>
        <time>2020-12-13T11:00:24Z</time>
      </trkpt>
      <trkpt lat="45.90286" lon="4.61935">
        <ele>310.2</ele>
        <time>2020-12-13T11:00:25Z</time>
      </trkpt>
      <trkpt lat="45.90286" lon="4.61933">
        <ele>310.2</ele>
        <time>2020-12-13T11:00:26Z</time>
      </trkpt>
      <trkpt lat="45.90286" lon="4.6193">
        <ele>310.2</ele>
        <time>2020-12-13T11:00:27Z</time>
      </trkpt>
      <trkpt lat="45.90286" lon="4.61928">
        <ele>310.2</ele>
        <time>2020-12-13T11:00:28Z</time>
      </trkpt>
      <trkpt lat="45.90285" lon="4.61926">
        <ele>310.2</ele>
        <time>2020-12-13T11:00:29Z</time>
      </trkpt>
      <trkpt lat="45.90285" lon="4.61923">
        <ele>310.2</ele>
        <time>2020-12-13T11:00:30Z</time>
      </trkpt>
      <trkpt lat="45.90285" lon="4.61922">
        <ele>310.2</ele>
        <time>2020-12-13T11:00:31Z</time>
      </trkpt>
      <trkpt lat="45.90285" lon="4.6192">
        <ele>310.2</ele>
        <time>2020-12-13T11:00:32Z</time>
      </trkpt>
      <trkpt lat="45.90284" lon="4.61919">
        <ele>310.2</ele>
        <time>2020-12-13T11:00:33Z</time>
      </trkpt>
      <trkpt lat="45.90284" lon="4.61917">
        <ele>310.2</ele>
        <time>2020-12-13T11:00:34Z</time>
      </trkpt>
      <trkpt lat="45.90284" lon="4.61914">
        <ele>310.1</ele>
        <time>2020-12-13T11:00:35Z</time>
      </trkpt>
      <trkpt lat="45.90283" lon="4.61913">
        <ele>310.1</ele>
        <time>2020-12-13T11:00:36Z</time>
      </trkpt>
      <trkpt lat="45.90283" lon="4.61909">
        <ele>310.1</ele>
        <time>2020-12-13T11:00:37Z</time>
      </trkpt>
      <trkpt lat="45.90283" lon="4.61908">
        <ele>310.1</ele>
        <time>2020-12-13T11:00:38Z</time>
      </trkpt>
      <trkpt lat="45.90283" lon="4.61907">
        <ele>310.1</ele>
        <time>2020-12-13T11:00:39Z</time>
      </trkpt>
      <trkpt lat="45.90283" lon="4.61906">
        <ele>310.1</ele>
        <time>2020-12-13T11:00:40Z</time>
      </trkpt>
      <trkpt lat="45.90282" lon="4.61904">
        <ele>310.1</ele>
        <time>2020-12-13T11:00:41Z</time>
      </trkpt>
      <trkpt lat="45.90282" lon="4.61902">
        <ele>310.1</ele>
        <time>2020-12-13T11:00:42Z</time>
      </trkpt>
      <trkpt lat="45.90282" lon="4.619">
        <ele>310.1</ele>
        <time>2020-12-13T11:00:43Z</time>
      </trkpt>
      <trkpt lat="45.90281" lon="4.61898">
        <ele>310.1</ele>
        <time>2020-12-13T11:00:44Z</time>
      </trkpt>
      <trkpt lat="45.90282" lon="4.61896">
        <ele>310.1</ele>
        <time>2020-12-13T11:00:45Z</time>
      </trkpt>
      <trkpt lat="45.90281" lon="4.61895">
        <ele>310.1</ele>
        <time>2020-12-13T11:00:46Z</time>
      </trkpt>
      <trkpt lat="45.90281" lon="4.61894">
        <ele>310.1</ele>
        <time>2020-12-13T11:00:47Z</time>
      </trkpt>
      <trkpt lat="45.90281" lon="4.6189">
        <ele>310.1</ele>
        <time>2020-12-13T11:00:48Z</time>
      </trkpt>
      <trkpt lat="45.9028" lon="4.61889">
        <ele>310.1</ele>
        <time>2020-12-13T11:00:49Z</time>
      </trkpt>
      <trkpt lat="45.9028" lon="4.61888">
        <ele>310</ele>
        <time>2020-12-13T11:00:50Z</time>
      </trkpt>
      <trkpt lat="45.9028" lon="4.61885">
        <ele>310</ele>
        <time>2020-12-13T11:00:51Z</time>
      </trkpt>
      <trkpt lat="45.9028" lon="4.61884">
        <ele>310</ele>
        <time>2020-12-13T11:00:52Z</time>
      </trkpt>
      <trkpt lat="45.9028" lon="4.61883">
        <ele>310</ele>
        <time>2020-12-13T11:00:53Z</time>
      </trkpt>
      <trkpt lat="45.9028" lon="4.6188">
        <ele>310</ele>
        <time>2020-12-13T11:00:54Z</time>
      </trkpt>
      <trkpt lat="45.90279" lon="4.61878">
        <ele>310</ele>
        <time>2020-12-13T11:00:55Z</time>
      </trkpt>
      <trkpt lat="45.90279" lon="4.61876">
        <ele>310</ele>
        <time>2020-12-13T11:00:56Z</time>
      </trkpt>
      <trkpt lat="45.90279" lon="4.61874">
        <ele>310</ele>
        <time>2020-12-13T11:00:57Z</time>
      </trkpt>
      <trkpt lat="45.90279" lon="4.61872">
        <ele>310</ele>
        <time>2020-12-13T11:00:58Z</time>
      </trkpt>
      <trkpt lat="45.90279" lon="4.6187">
        <ele>310</ele>
        <time>2020-12-13T11:00:59Z</time>
      </trkpt>
      <trkpt lat="45.9028" lon="4.61868">
        <ele>309.9</ele>
        <time>2020-12-13T11:01:00Z</time>
      </trkpt>
      <trkpt lat="45.9028" lon="4.61867">
        <ele>309.9</ele>
        <time>2020-12-13T11:01:01Z</time>
      </trkpt>
      <trkpt lat="45.90281" lon="4.61865">
        <ele>309.9</ele>
        <time>2020-12-13T11:01:02Z</time>
      </trkpt>
      <trkpt lat="45.90281" lon="4.61864">
        <ele>309.8</ele>
        <time>2020-12-13T11:01:03Z</time>
      </trkpt>
      <trkpt lat="45.90282" lon="4.61862">
        <ele>309.7</ele>
        <time>2020-12-13T11:01:04Z</time>
      </trkpt>
      <trkpt lat="45.90283" lon="4.61861">
        <ele>309.7</ele>
        <time>2020-12-13T11:01:05Z</time>
      </trkpt>
      <trkpt lat="45.90284" lon="4.61859">
        <ele>309.7</ele>
        <time>2020-12-13T11:01:06Z</time>
      </trkpt>
      <trkpt lat="45.90285" lon="4.61858">
        <ele>309.6</ele>
        <time>2020-12-13T11:01:07Z</time>
      </trkpt>
      <trkpt lat="45.90286" lon="4.61857">
        <ele>309.6</ele>
        <time>2020-12-13T11:01:08Z</time>
      </trkpt>
      <trkpt lat="45.90287" lon="4.61856">
        <ele>309.5</ele>
        <time>2020-12-13T11:01:10Z</time>
      </trkpt>
      <trkpt lat="45.90289" lon="4.61854">
        <ele>309.4</ele>
        <time>2020-12-13T11:01:11Z</time>
      </trkpt>
      <trkpt lat="45.90289" lon="4.61853">
        <ele>309.4</ele>
        <time>2020-12-13T11:01:12Z</time>
      </trkpt>
      <trkpt lat="45.9029" lon="4.61852">
        <ele>309.4</ele>
        <time>2020-12-13T11:01:13Z</time>
      </trkpt>
      <trkpt lat="45.90291" lon="4.61851">
        <ele>309.3</ele>
        <time>2020-12-13T11:01:14Z</time>
      </trkpt>
      <trkpt lat="45.90292" lon="4.6185">
        <ele>309.3</ele>
        <time>2020-12-13T11:01:15Z</time>
      </trkpt>
      <trkpt lat="45.90292" lon="4.6185">
        <ele>309.3</ele>
        <time>2020-12-13T11:01:16Z</time>
      </trkpt>
      <trkpt lat="45.90293" lon="4.6185">
        <ele>309.2</ele>
        <time>2020-12-13T11:01:17Z</time>
      </trkpt>
      <trkpt lat="45.90294" lon="4.61849">
        <ele>309.2</ele>
        <time>2020-12-13T11:01:18Z</time>
      </trkpt>
      <trkpt lat="45.90297" lon="4.61847">
        <ele>309</ele>
        <time>2020-12-13T11:01:19Z</time>
      </trkpt>
      <trkpt lat="45.90298" lon="4.61847">
        <ele>309</ele>
        <time>2020-12-13T11:01:20Z</time>
      </trkpt>
      <trkpt lat="45.903" lon="4.61846">
        <ele>308.9</ele>
        <time>2020-12-13T11:01:21Z</time>
      </trkpt>
      <trkpt lat="45.90302" lon="4.61844">
        <ele>308.8</ele>
        <time>2020-12-13T11:01:22Z</time>
      </trkpt>
      <trkpt lat="45.90303" lon="4.61843">
        <ele>308.8</ele>
        <time>2020-12-13T11:01:23Z</time>
      </trkpt>
      <trkpt lat="45.90304" lon="4.61842">
        <ele>308.8</ele>
        <time>2020-12-13T11:01:24Z</time>
      </trkpt>
      <trkpt lat="45.90306" lon="4.61842">
        <ele>308.7</ele>
        <time>2020-12-13T11:01:25Z</time>
      </trkpt>
      <trkpt lat="45.90307" lon="4.61841">
        <ele>308.7</ele>
        <time>2020-12-13T11:01:26Z</time>
      </trkpt>
      <trkpt lat="45.90307" lon="4.61841">
        <ele>308.6</ele>
        <time>2020-12-13T11:01:27Z</time>
      </trkpt>
      <trkpt lat="45.90309" lon="4.61839">
        <ele>308.6</ele>
        <time>2020-12-13T11:01:28Z</time>
      </trkpt>
      <trkpt lat="45.9031" lon="4.61839">
        <ele>308.5</ele>
        <time>2020-12-13T11:01:29Z</time>
      </trkpt>
      <trkpt lat="45.90311" lon="4.61838">
        <ele>308.5</ele>
        <time>2020-12-13T11:01:30Z</time>
      </trkpt>
      <trkpt lat="45.90312" lon="4.61837">
        <ele>308.5</ele>
        <time>2020-12-13T11:01:31Z</time>
      </trkpt>
      <trkpt lat="45.90313" lon="4.61836">
        <ele>308.4</ele>
        <time>2020-12-13T11:01:32Z</time>
      </trkpt>
      <trkpt lat="45.90314" lon="4.61835">
        <ele>308.4</ele>
        <time>2020-12-13T11:01:33Z</time>
      </trkpt>
      <trkpt lat="45.90315" lon="4.61833">
        <ele>308.3</ele>
        <time>2020-12-13T11:01:34Z</time>
      </trkpt>
      <trkpt lat="45.90316" lon="4.61832">
        <ele>308.3</ele>
        <time>2020-12-13T11:01:35Z</time>
      </trkpt>
      <trkpt lat="45.90317" lon="4.61831">
        <ele>308.2</ele>
        <time>2020-12-13T11:01:36Z</time>
      </trkpt>
      <trkpt lat="45.90318" lon="4.61831">
        <ele>308.2</ele>
        <time>2020-12-13T11:01:37Z</time>
      </trkpt>
      <trkpt lat="45.90319" lon="4.6183">
        <ele>308.2</ele>
        <time>2020-12-13T11:01:38Z</time>
      </trkpt>
      <trkpt lat="45.90321" lon="4.61829">
        <ele>308.1</ele>
        <time>2020-12-13T11:01:39Z</time>
      </trkpt>
      <trkpt lat="45.9032" lon="4.61828">
        <ele>308</ele>
        <time>2020-12-13T11:01:40Z</time>
      </trkpt>
      <trkpt lat="45.90321" lon="4.61827">
        <ele>308</ele>
        <time>2020-12-13T11:01:41Z</time>
      </trkpt>
      <trkpt lat="45.90324" lon="4.61826">
        <ele>307.9</ele>
        <time>2020-12-13T11:01:42Z</time>
      </trkpt>
      <trkpt lat="45.90325" lon="4.61825">
        <ele>307.8</ele>
        <time>2020-12-13T11:01:43Z</time>
      </trkpt>
      <trkpt lat="45.90326" lon="4.61824">
        <ele>307.8</ele>
        <time>2020-12-13T11:01:44Z</time>
      </trkpt>
      <trkpt lat="45.90327" lon="4.61823">
        <ele>307.7</ele>
        <time>2020-12-13T11:01:45Z</time>
      </trkpt>
      <trkpt lat="45.90328" lon="4.61823">
        <ele>307.7</ele>
        <time>2020-12-13T11:01:46Z</time>
      </trkpt>
      <trkpt lat="45.90329" lon="4.61822">
        <ele>307.6</ele>
        <time>2020-12-13T11:01:47Z</time>
      </trkpt>
      <trkpt lat="45.9033" lon="4.61821">
        <ele>307.6</ele>
        <time>2020-12-13T11:01:48Z</time>
      </trkpt>
      <trkpt lat="45.90332" lon="4.6182">
        <ele>307.5</ele>
        <time>2020-12-13T11:01:49Z</time>
      </trkpt>
      <trkpt lat="45.90334" lon="4.61819">
        <ele>307.4</ele>
        <time>2020-12-13T11:01:50Z</time>
      </trkpt>
      <trkpt lat="45.90335" lon="4.61819">
        <ele>307.3</ele>
        <time>2020-12-13T11:01:51Z</time>
      </trkpt>
      <trkpt lat="45.90336" lon="4.61817">
        <ele>307.2</ele>
        <time>2020-12-13T11:01:52Z</time>
      </trkpt>
      <trkpt lat="45.90337" lon="4.61816">
        <ele>307.2</ele>
        <time>2020-12-13T11:01:53Z</time>
      </trkpt>
      <trkpt lat="45.90337" lon="4.61815">
        <ele>307.2</ele>
        <time>2020-12-13T11:01:54Z</time>
      </trkpt>
      <trkpt lat="45.90338" lon="4.61815">
        <ele>307.1</ele>
        <time>2020-12-13T11:01:55Z</time>
      </trkpt>
      <trkpt lat="45.9034" lon="4.61815">
        <ele>307</ele>
        <time>2020-12-13T11:01:56Z</time>
      </trkpt>
      <trkpt lat="45.90341" lon="4.61814">
        <ele>307</ele>
        <time>2020-12-13T11:01:57Z</time>
      </trkpt>
      <trkpt lat="45.90342" lon="4.61814">
        <ele>306.9</ele>
        <time>2020-12-13T11:01:58Z</time>
      </trkpt>
      <trkpt lat="45.90343" lon="4.61813">
        <ele>306.9</ele>
        <time>2020-12-13T11:01:59Z</time>
      </trkpt>
      <trkpt lat="45.90344" lon="4.61811">
        <ele>306.8</ele>
        <time>2020-12-13T11:02:00Z</time>
      </trkpt>
      <trkpt lat="45.90345" lon="4.6181">
        <ele>306.7</ele>
        <time>2020-12-13T11:02:01Z</time>
      </trkpt>
      <trkpt lat="45.90347" lon="4.61808">
        <ele>306.6</ele>
        <time>2020-12-13T11:02:02Z</time>
      </trkpt>
      <trkpt lat="45.90347" lon="4.61807">
        <ele>306.6</ele>
        <time>2020-12-13T11:02:03Z</time>
      </trkpt>
      <trkpt lat="45.90347" lon="4.61805">
        <ele>306.5</ele>
        <time>2020-12-13T11:02:04Z</time>
      </trkpt>
      <trkpt lat="45.90348" lon="4.61804">
        <ele>306.4</ele>
        <time>2020-12-13T11:02:05Z</time>
      </trkpt>
      <trkpt lat="45.90349" lon="4.61802">
        <ele>306.3</ele>
        <time>2020-12-13T11:02:06Z</time>
      </trkpt>
      <trkpt lat="45.90351" lon="4.61801">
        <ele>306.3</ele>
        <time>2020-12-13T11:02:07Z</time>
      </trkpt>
      <trkpt lat="45.90352" lon="4.61799">
        <ele>306.2</ele>
        <time>2020-12-13T11:02:08Z</time>
      </trkpt>
      <trkpt lat="45.90354" lon="4.61796">
        <ele>306</ele>
        <time>2020-12-13T11:02:09Z</time>
      </trkpt>
      <trkpt lat="45.90355" lon="4.61795">
        <ele>305.9</ele>
        <time>2020-12-13T11:02:10Z</time>
      </trkpt>
      <trkpt lat="45.90355" lon="4.61794">
        <ele>305.9</ele>
        <time>2020-12-13T11:02:11Z</time>
      </trkpt>
      <trkpt lat="45.90356" lon="4.61794">
        <ele>305.9</ele>
        <time>2020-12-13T11:02:12Z</time>
      </trkpt>
      <trkpt lat="45.90357" lon="4.61792">
        <ele>305.8</ele>
        <time>2020-12-13T11:02:13Z</time>
      </trkpt>
      <trkpt lat="45.90358" lon="4.6179">
        <ele>305.7</ele>
        <time>2020-12-13T11:02:14Z</time>
      </trkpt>
      <trkpt lat="45.90358" lon="4.6179">
        <ele>305.7</ele>
        <time>2020-12-13T11:02:15Z</time>
      </trkpt>
      <trkpt lat="45.90359" lon="4.61789">
        <ele>305.6</ele>
        <time>2020-12-13T11:02:16Z</time>
      </trkpt>
      <trkpt lat="45.90361" lon="4.61786">
        <ele>305.4</ele>
        <time>2020-12-13T11:02:17Z</time>
      </trkpt>
      <trkpt lat="45.90361" lon="4.61785">
        <ele>305.4</ele>
        <time>2020-12-13T11:02:18Z</time>
      </trkpt>
      <trkpt lat="45.90362" lon="4.61785">
        <ele>305.3</ele>
        <time>2020-12-13T11:02:19Z</time>
      </trkpt>
      <trkpt lat="45.90363" lon="4.61783">
        <ele>305.2</ele>
        <time>2020-12-13T11:02:20Z</time>
      </trkpt>
      <trkpt lat="45.90364" lon="4.61782">
        <ele>305.2</ele>
        <time>2020-12-13T11:02:21Z</time>
      </trkpt>
      <trkpt lat="45.90365" lon="4.61781">
        <ele>305.1</ele>
        <time>2020-12-13T11:02:22Z</time>
      </trkpt>
      <trkpt lat="45.90365" lon="4.61783">
        <ele>305</ele>
        <time>2020-12-13T11:02:23Z</time>
      </trkpt>
      <trkpt lat="45.90367" lon="4.6178">
        <ele>304.9</ele>
        <time>2020-12-13T11:02:24Z</time>
      </trkpt>
      <trkpt lat="45.90368" lon="4.61777">
        <ele>304.7</ele>
        <time>2020-12-13T11:02:25Z</time>
      </trkpt>
      <trkpt lat="45.90368" lon="4.61776">
        <ele>304.7</ele>
        <time>2020-12-13T11:02:26Z</time>
      </trkpt>
      <trkpt lat="45.9037" lon="4.61773">
        <ele>304.5</ele>
        <time>2020-12-13T11:02:27Z</time>
      </trkpt>
      <trkpt lat="45.90371" lon="4.61772">
        <ele>304.4</ele>
        <time>2020-12-13T11:02:28Z</time>
      </trkpt>
      <trkpt lat="45.90371" lon="4.61771">
        <ele>304.4</ele>
        <time>2020-12-13T11:02:29Z</time>
      </trkpt>
      <trkpt lat="45.90373" lon="4.61769">
        <ele>304.2</ele>
        <time>2020-12-13T11:02:30Z</time>
      </trkpt>
      <trkpt lat="45.90373" lon="4.61768">
        <ele>304.2</ele>
        <time>2020-12-13T11:02:31Z</time>
      </trkpt>
      <trkpt lat="45.90374" lon="4.61768">
        <ele>304.1</ele>
        <time>2020-12-13T11:02:32Z</time>
      </trkpt>
      <trkpt lat="45.90376" lon="4.61766">
        <ele>304</ele>
        <time>2020-12-13T11:02:33Z</time>
      </trkpt>
      <trkpt lat="45.90377" lon="4.61765">
        <ele>303.9</ele>
        <time>2020-12-13T11:02:34Z</time>
      </trkpt>
      <trkpt lat="45.90378" lon="4.61764">
        <ele>303.8</ele>
        <time>2020-12-13T11:02:35Z</time>
      </trkpt>
      <trkpt lat="45.90379" lon="4.61764">
        <ele>303.8</ele>
        <time>2020-12-13T11:02:36Z</time>
      </trkpt>
      <trkpt lat="45.9038" lon="4.61762">
        <ele>303.7</ele>
        <time>2020-12-13T11:02:37Z</time>
      </trkpt>
      <trkpt lat="45.90381" lon="4.61761">
        <ele>303.6</ele>
        <time>2020-12-13T11:02:38Z</time>
      </trkpt>
      <trkpt lat="45.90383" lon="4.61759">
        <ele>303.4</ele>
        <time>2020-12-13T11:02:39Z</time>
      </trkpt>
      <trkpt lat="45.90384" lon="4.61758">
        <ele>303.4</ele>
        <time>2020-12-13T11:02:40Z</time>
      </trkpt>
      <trkpt lat="45.90384" lon="4.61757">
        <ele>303.3</ele>
        <time>2020-12-13T11:02:41Z</time>
      </trkpt>
      <trkpt lat="45.90386" lon="4.61756">
        <ele>303.2</ele>
        <time>2020-12-13T11:02:42Z</time>
      </trkpt>
      <trkpt lat="45.90387" lon="4.61755">
        <ele>303.1</ele>
        <time>2020-12-13T11:02:43Z</time>
      </trkpt>
      <trkpt lat="45.90387" lon="4.61754">
        <ele>303</ele>
        <time>2020-12-13T11:02:44Z</time>
      </trkpt>
      <trkpt lat="45.90388" lon="4.61753">
        <ele>303</ele>
        <time>2020-12-13T11:02:45Z</time>
      </trkpt>
      <trkpt lat="45.90389" lon="4.61752">
        <ele>302.9</ele>
        <time>2020-12-13T11:02:46Z</time>
      </trkpt>
      <trkpt lat="45.9039" lon="4.61751">
        <ele>302.8</ele>
        <time>2020-12-13T11:02:47Z</time>
      </trkpt>
      <trkpt lat="45.90391" lon="4.6175">
        <ele>302.7</ele>
        <time>2020-12-13T11:02:48Z</time>
      </trkpt>
      <trkpt lat="45.90392" lon="4.61749">
        <ele>302.6</ele>
        <time>2020-12-13T11:02:49Z</time>
      </trkpt>
      <trkpt lat="45.90393" lon="4.61748">
        <ele>302.6</ele>
        <time>2020-12-13T11:02:50Z</time>
      </trkpt>
      <trkpt lat="45.90394" lon="4.61746">
        <ele>302.5</ele>
        <time>2020-12-13T11:02:51Z</time>
      </trkpt>
      <trkpt lat="45.90395" lon="4.61746">
        <ele>302.4</ele>
        <time>2020-12-13T11:02:52Z</time>
      </trkpt>
      <trkpt lat="45.90396" lon="4.61744">
        <ele>302.3</ele>
        <time>2020-12-13T11:02:53Z</time>
      </trkpt>
      <trkpt lat="45.90397" lon="4.61743">
        <ele>302.2</ele>
        <time>2020-12-13T11:02:54Z</time>
      </trkpt>
      <trkpt lat="45.904" lon="4.61741">
        <ele>302</ele>
        <time>2020-12-13T11:02:55Z</time>
      </trkpt>
      <trkpt lat="45.904" lon="4.6174">
        <ele>302</ele>
        <time>2020-12-13T11:02:56Z</time>
      </trkpt>
      <trkpt lat="45.90401" lon="4.6174">
        <ele>301.9</ele>
        <time>2020-12-13T11:02:57Z</time>
      </trkpt>
      <trkpt lat="45.90402" lon="4.61738">
        <ele>301.8</ele>
        <time>2020-12-13T11:02:58Z</time>
      </trkpt>
      <trkpt lat="45.90403" lon="4.61737">
        <ele>301.7</ele>
        <time>2020-12-13T11:02:59Z</time>
      </trkpt>
      <trkpt lat="45.90404" lon="4.61736">
        <ele>301.6</ele>
        <time>2020-12-13T11:03:00Z</time>
      </trkpt>
      <trkpt lat="45.90406" lon="4.61734">
        <ele>301.5</ele>
        <time>2020-12-13T11:03:01Z</time>
      </trkpt>
      <trkpt lat="45.90407" lon="4.61733">
        <ele>301.5</ele>
        <time>2020-12-13T11:03:02Z</time>
      </trkpt>
      <trkpt lat="45.90408" lon="4.61733">
        <ele>301.4</ele>
        <time>2020-12-13T11:03:03Z</time>
      </trkpt>
      <trkpt lat="45.90408" lon="4.61732">
        <ele>301.3</ele>
        <time>2020-12-13T11:03:04Z</time>
      </trkpt>
      <trkpt lat="45.90409" lon="4.61731">
        <ele>301.3</ele>
        <time>2020-12-13T11:03:05Z</time>
      </trkpt>
      <trkpt lat="45.90411" lon="4.6173">
        <ele>301.1</ele>
        <time>2020-12-13T11:03:06Z</time>
      </trkpt>
      <trkpt lat="45.90412" lon="4.61729">
        <ele>301.1</ele>
        <time>2020-12-13T11:03:07Z</time>
      </trkpt>
      <trkpt lat="45.90413" lon="4.61728">
        <ele>301</ele>
        <time>2020-12-13T11:03:08Z</time>
      </trkpt>
      <trkpt lat="45.90414" lon="4.61727">
        <ele>300.9</ele>
        <time>2020-12-13T11:03:09Z</time>
      </trkpt>
      <trkpt lat="45.90415" lon="4.61726">
        <ele>300.8</ele>
        <time>2020-12-13T11:03:10Z</time>
      </trkpt>
      <trkpt lat="45.90415" lon="4.61725">
        <ele>300.8</ele>
        <time>2020-12-13T11:03:11Z</time>
      </trkpt>
      <trkpt lat="45.90416" lon="4.61724">
        <ele>300.7</ele>
        <time>2020-12-13T11:03:12Z</time>
      </trkpt>
      <trkpt lat="45.90417" lon="4.61722">
        <ele>300.6</ele>
        <time>2020-12-13T11:03:13Z</time>
      </trkpt>
      <trkpt lat="45.90418" lon="4.61722">
        <ele>300.6</ele>
        <time>2020-12-13T11:03:14Z</time>
      </trkpt>
      <trkpt lat="45.90419" lon="4.61721">
        <ele>300.5</ele>
        <time>2020-12-13T11:03:16Z</time>
      </trkpt>
      <trkpt lat="45.90421" lon="4.6172">
        <ele>300.4</ele>
        <time>2020-12-13T11:03:17Z</time>
      </trkpt>
      <trkpt lat="45.90422" lon="4.61719">
        <ele>300.3</ele>
        <time>2020-12-13T11:03:18Z</time>
      </trkpt>
      <trkpt lat="45.90423" lon="4.61717">
        <ele>300.2</ele>
        <time>2020-12-13T11:03:19Z</time>
      </trkpt>
      <trkpt lat="45.90424" lon="4.61716">
        <ele>300.1</ele>
        <time>2020-12-13T11:03:20Z</time>
      </trkpt>
      <trkpt lat="45.90424" lon="4.61716">
        <ele>300.1</ele>
        <time>2020-12-13T11:03:21Z</time>
      </trkpt>
      <trkpt lat="45.90425" lon="4.61715">
        <ele>300</ele>
        <time>2020-12-13T11:03:22Z</time>
      </trkpt>
      <trkpt lat="45.90428" lon="4.61712">
        <ele>299.8</ele>
        <time>2020-12-13T11:03:23Z</time>
      </trkpt>
      <trkpt lat="45.90429" lon="4.61712">
        <ele>299.7</ele>
        <time>2020-12-13T11:03:24Z</time>
      </trkpt>
      <trkpt lat="45.9043" lon="4.6171">
        <ele>299.6</ele>
        <time>2020-12-13T11:03:25Z</time>
      </trkpt>
      <trkpt lat="45.90431" lon="4.61709">
        <ele>299.5</ele>
        <time>2020-12-13T11:03:26Z</time>
      </trkpt>
      <trkpt lat="45.90432" lon="4.61707">
        <ele>299.4</ele>
        <time>2020-12-13T11:03:28Z</time>
      </trkpt>
      <trkpt lat="45.90433" lon="4.61706">
        <ele>299.3</ele>
        <time>2020-12-13T11:03:29Z</time>
      </trkpt>
      <trkpt lat="45.90435" lon="4.61704">
        <ele>299.1</ele>
        <time>2020-12-13T11:03:30Z</time>
      </trkpt>
      <trkpt lat="45.90436" lon="4.61705">
        <ele>299.1</ele>
        <time>2020-12-13T11:03:31Z</time>
      </trkpt>
      <trkpt lat="45.90436" lon="4.61704">
        <ele>299</ele>
        <time>2020-12-13T11:03:32Z</time>
      </trkpt>
      <trkpt lat="45.90438" lon="4.61703">
        <ele>298.9</ele>
        <time>2020-12-13T11:03:33Z</time>
      </trkpt>
      <trkpt lat="45.90438" lon="4.61702">
        <ele>298.8</ele>
        <time>2020-12-13T11:03:34Z</time>
      </trkpt>
      <trkpt lat="45.90439" lon="4.61701">
        <ele>298.8</ele>
        <time>2020-12-13T11:03:35Z</time>
      </trkpt>
      <trkpt lat="45.9044" lon="4.617">
        <ele>298.7</ele>
        <time>2020-12-13T11:03:36Z</time>
      </trkpt>
      <trkpt lat="45.90442" lon="4.61699">
        <ele>298.5</ele>
        <time>2020-12-13T11:03:37Z</time>
      </trkpt>
      <trkpt lat="45.90443" lon="4.61698">
        <ele>298.4</ele>
        <time>2020-12-13T11:03:38Z</time>
      </trkpt>
      <trkpt lat="45.90445" lon="4.61696">
        <ele>298.2</ele>
        <time>2020-12-13T11:03:39Z</time>
      </trkpt>
      <trkpt lat="45.90445" lon="4.61695">
        <ele>298.2</ele>
        <time>2020-12-13T11:03:40Z</time>
      </trkpt>
      <trkpt lat="45.90446" lon="4.61694">
        <ele>298.1</ele>
        <time>2020-12-13T11:03:41Z</time>
      </trkpt>
      <trkpt lat="45.90448" lon="4.61693">
        <ele>297.9</ele>
        <time>2020-12-13T11:03:42Z</time>
      </trkpt>
      <trkpt lat="45.90449" lon="4.61692">
        <ele>297.9</ele>
        <time>2020-12-13T11:03:43Z</time>
      </trkpt>
      <trkpt lat="45.9045" lon="4.6169">
        <ele>297.7</ele>
        <time>2020-12-13T11:03:44Z</time>
      </trkpt>
      <trkpt lat="45.90451" lon="4.6169">
        <ele>297.7</ele>
        <time>2020-12-13T11:03:45Z</time>
      </trkpt>
      <trkpt lat="45.90452" lon="4.61689">
        <ele>297.6</ele>
        <time>2020-12-13T11:03:46Z</time>
      </trkpt>
      <trkpt lat="45.90454" lon="4.61688">
        <ele>297.4</ele>
        <time>2020-12-13T11:03:47Z</time>
      </trkpt>
      <trkpt lat="45.90454" lon="4.61687">
        <ele>297.4</ele>
        <time>2020-12-13T11:03:48Z</time>
      </trkpt>
      <trkpt lat="45.90455" lon="4.61686">
        <ele>297.3</ele>
        <time>2020-12-13T11:03:49Z</time>
      </trkpt>
      <trkpt lat="45.90456" lon="4.61685">
        <ele>297.2</ele>
        <time>2020-12-13T11:03:50Z</time>
      </trkpt>
      <trkpt lat="45.90457" lon="4.61684">
        <ele>297.2</ele>
        <time>2020-12-13T11:03:51Z</time>
      </trkpt>
      <trkpt lat="45.90458" lon="4.61683">
        <ele>297.1</ele>
        <time>2020-12-13T11:03:52Z</time>
      </trkpt>
      <trkpt lat="45.90458" lon="4.61682">
        <ele>297</ele>
        <time>2020-12-13T11:03:53Z</time>
      </trkpt>
      <trkpt lat="45.9046" lon="4.61681">
        <ele>296.9</ele>
        <time>2020-12-13T11:03:54Z</time>
      </trkpt>
      <trkpt lat="45.9046" lon="4.61679">
        <ele>296.8</ele>
        <time>2020-12-13T11:03:55Z</time>
      </trkpt>
      <trkpt lat="45.90461" lon="4.61678">
        <ele>296.8</ele>
        <time>2020-12-13T11:03:56Z</time>
      </trkpt>
      <trkpt lat="45.90462" lon="4.61677">
        <ele>296.6</ele>
        <time>2020-12-13T11:03:57Z</time>
      </trkpt>
      <trkpt lat="45.90463" lon="4.61675">
        <ele>296.5</ele>
        <time>2020-12-13T11:03:58Z</time>
      </trkpt>
      <trkpt lat="45.90464" lon="4.61674">
        <ele>296.4</ele>
        <time>2020-12-13T11:03:59Z</time>
      </trkpt>
      <trkpt lat="45.90464" lon="4.61672">
        <ele>296.4</ele>
        <time>2020-12-13T11:04:00Z</time>
      </trkpt>
      <trkpt lat="45.90466" lon="4.61671">
        <ele>296.2</ele>
        <time>2020-12-13T11:04:01Z</time>
      </trkpt>
      <trkpt lat="45.90467" lon="4.6167">
        <ele>296.1</ele>
        <time>2020-12-13T11:04:02Z</time>
      </trkpt>
      <trkpt lat="45.90467" lon="4.61669">
        <ele>296.1</ele>
        <time>2020-12-13T11:04:03Z</time>
      </trkpt>
      <trkpt lat="45.90469" lon="4.61667">
        <ele>296</ele>
        <time>2020-12-13T11:04:04Z</time>
      </trkpt>
      <trkpt lat="45.90469" lon="4.61666">
        <ele>295.9</ele>
        <time>2020-12-13T11:04:05Z</time>
      </trkpt>
      <trkpt lat="45.90471" lon="4.61665">
        <ele>295.8</ele>
        <time>2020-12-13T11:04:06Z</time>
      </trkpt>
      <trkpt lat="45.90471" lon="4.61665">
        <ele>295.7</ele>
        <time>2020-12-13T11:04:07Z</time>
      </trkpt>
      <trkpt lat="45.90472" lon="4.61664">
        <ele>295.6</ele>
        <time>2020-12-13T11:04:08Z</time>
      </trkpt>
      <trkpt lat="45.90473" lon="4.61663">
        <ele>295.5</ele>
        <time>2020-12-13T11:04:09Z</time>
      </trkpt>
      <trkpt lat="45.90474" lon="4.61662">
        <ele>295.4</ele>
        <time>2020-12-13T11:04:10Z</time>
      </trkpt>
      <trkpt lat="45.90474" lon="4.61661">
        <ele>295.4</ele>
        <time>2020-12-13T11:04:11Z</time>
      </trkpt>
      <trkpt lat="45.90474" lon="4.61661">
        <ele>295.4</ele>
        <time>2020-12-13T11:04:12Z</time>
      </trkpt>
      <trkpt lat="45.90475" lon="4.61659">
        <ele>295.3</ele>
        <time>2020-12-13T11:04:13Z</time>
      </trkpt>
      <trkpt lat="45.90476" lon="4.61658">
        <ele>295.1</ele>
        <time>2020-12-13T11:04:14Z</time>
      </trkpt>
      <trkpt lat="45.90478" lon="4.61657">
        <ele>295</ele>
        <time>2020-12-13T11:04:15Z</time>
      </trkpt>
      <trkpt lat="45.90479" lon="4.61656">
        <ele>294.9</ele>
        <time>2020-12-13T11:04:16Z</time>
      </trkpt>
      <trkpt lat="45.9048" lon="4.61655">
        <ele>294.7</ele>
        <time>2020-12-13T11:04:17Z</time>
      </trkpt>
      <trkpt lat="45.90481" lon="4.61654">
        <ele>294.6</ele>
        <time>2020-12-13T11:04:18Z</time>
      </trkpt>
      <trkpt lat="45.90482" lon="4.61653">
        <ele>294.5</ele>
        <time>2020-12-13T11:04:19Z</time>
      </trkpt>
      <trkpt lat="45.90483" lon="4.61652">
        <ele>294.4</ele>
        <time>2020-12-13T11:04:20Z</time>
      </trkpt>
      <trkpt lat="45.90484" lon="4.61651">
        <ele>294.3</ele>
        <time>2020-12-13T11:04:21Z</time>
      </trkpt>
      <trkpt lat="45.90485" lon="4.6165">
        <ele>294.2</ele>
        <time>2020-12-13T11:04:22Z</time>
      </trkpt>
      <trkpt lat="45.90486" lon="4.61649">
        <ele>294</ele>
        <time>2020-12-13T11:04:23Z</time>
      </trkpt>
      <trkpt lat="45.90487" lon="4.61647">
        <ele>293.9</ele>
        <time>2020-12-13T11:04:24Z</time>
      </trkpt>
      <trkpt lat="45.90487" lon="4.61647">
        <ele>293.9</ele>
        <time>2020-12-13T11:04:25Z</time>
      </trkpt>
      <trkpt lat="45.90488" lon="4.61646">
        <ele>293.8</ele>
        <time>2020-12-13T11:04:26Z</time>
      </trkpt>
      <trkpt lat="45.90489" lon="4.61645">
        <ele>293.7</ele>
        <time>2020-12-13T11:04:27Z</time>
      </trkpt>
      <trkpt lat="45.9049" lon="4.61645">
        <ele>293.6</ele>
        <time>2020-12-13T11:04:28Z</time>
      </trkpt>
      <trkpt lat="45.90491" lon="4.61644">
        <ele>293.5</ele>
        <time>2020-12-13T11:04:29Z</time>
      </trkpt>
      <trkpt lat="45.90492" lon="4.61642">
        <ele>293.3</ele>
        <time>2020-12-13T11:04:30Z</time>
      </trkpt>
      <trkpt lat="45.90493" lon="4.61642">
        <ele>293.3</ele>
        <time>2020-12-13T11:04:31Z</time>
      </trkpt>
      <trkpt lat="45.90494" lon="4.61641">
        <ele>293.2</ele>
        <time>2020-12-13T11:04:32Z</time>
      </trkpt>
      <trkpt lat="45.90494" lon="4.61639">
        <ele>293.1</ele>
        <time>2020-12-13T11:04:33Z</time>
      </trkpt>
      <trkpt lat="45.90495" lon="4.61638">
        <ele>293</ele>
        <time>2020-12-13T11:04:34Z</time>
      </trkpt>
      <trkpt lat="45.90496" lon="4.61638">
        <ele>292.9</ele>
        <time>2020-12-13T11:04:35Z</time>
      </trkpt>
      <trkpt lat="45.90496" lon="4.61637">
        <ele>292.8</ele>
        <time>2020-12-13T11:04:36Z</time>
      </trkpt>
      <trkpt lat="45.90497" lon="4.61636">
        <ele>292.8</ele>
        <time>2020-12-13T11:04:37Z</time>
      </trkpt>
      <trkpt lat="45.90498" lon="4.61635">
        <ele>292.6</ele>
        <time>2020-12-13T11:04:38Z</time>
      </trkpt>
      <trkpt lat="45.90499" lon="4.61634">
        <ele>292.6</ele>
        <time>2020-12-13T11:04:39Z</time>
      </trkpt>
      <trkpt lat="45.90501" lon="4.61633">
        <ele>292.4</ele>
        <time>2020-12-13T11:04:40Z</time>
      </trkpt>
      <trkpt lat="45.90502" lon="4.61632">
        <ele>292.4</ele>
        <time>2020-12-13T11:04:41Z</time>
      </trkpt>
      <trkpt lat="45.90502" lon="4.61631">
        <ele>292.3</ele>
        <time>2020-12-13T11:04:42Z</time>
      </trkpt>
      <trkpt lat="45.90504" lon="4.6163">
        <ele>292.2</ele>
        <time>2020-12-13T11:04:43Z</time>
      </trkpt>
      <trkpt lat="45.90505" lon="4.61629">
        <ele>292.1</ele>
        <time>2020-12-13T11:04:44Z</time>
      </trkpt>
      <trkpt lat="45.90505" lon="4.61628">
        <ele>292.1</ele>
        <time>2020-12-13T11:04:45Z</time>
      </trkpt>
      <trkpt lat="45.90508" lon="4.61627">
        <ele>291.9</ele>
        <time>2020-12-13T11:04:46Z</time>
      </trkpt>
      <trkpt lat="45.90509" lon="4.61626">
        <ele>291.9</ele>
        <time>2020-12-13T11:04:47Z</time>
      </trkpt>
      <trkpt lat="45.9051" lon="4.61624">
        <ele>291.8</ele>
        <time>2020-12-13T11:04:48Z</time>
      </trkpt>
      <trkpt lat="45.90512" lon="4.61623">
        <ele>291.7</ele>
        <time>2020-12-13T11:04:49Z</time>
      </trkpt>
      <trkpt lat="45.90513" lon="4.61621">
        <ele>291.6</ele>
        <time>2020-12-13T11:04:50Z</time>
      </trkpt>
      <trkpt lat="45.90513" lon="4.6162">
        <ele>291.6</ele>
        <time>2020-12-13T11:04:51Z</time>
      </trkpt>
      <trkpt lat="45.90512" lon="4.6162">
        <ele>291.6</ele>
        <time>2020-12-13T11:04:52Z</time>
      </trkpt>
      <trkpt lat="45.90513" lon="4.61618">
        <ele>291.5</ele>
        <time>2020-12-13T11:04:53Z</time>
      </trkpt>
      <trkpt lat="45.90514" lon="4.61616">
        <ele>291.5</ele>
        <time>2020-12-13T11:04:54Z</time>
      </trkpt>
      <trkpt lat="45.90515" lon="4.61615">
        <ele>291.5</ele>
        <time>2020-12-13T11:04:55Z</time>
      </trkpt>
      <trkpt lat="45.90515" lon="4.61612">
        <ele>291.4</ele>
        <time>2020-12-13T11:04:56Z</time>
      </trkpt>
      <trkpt lat="45.90516" lon="4.61611">
        <ele>291.4</ele>
        <time>2020-12-13T11:04:57Z</time>
      </trkpt>
      <trkpt lat="45.90516" lon="4.6161">
        <ele>291.4</ele>
        <time>2020-12-13T11:04:58Z</time>
      </trkpt>
      <trkpt lat="45.90517" lon="4.61609">
        <ele>291.4</ele>
        <time>2020-12-13T11:04:59Z</time>
      </trkpt>
      <trkpt lat="45.90518" lon="4.61607">
        <ele>291.4</ele>
        <time>2020-12-13T11:05:00Z</time>
      </trkpt>
      <trkpt lat="45.90518" lon="4.61606">
        <ele>291.4</ele>
        <time>2020-12-13T11:05:01Z</time>
      </trkpt>
      <trkpt lat="45.90519" lon="4.61603">
        <ele>291.4</ele>
        <time>2020-12-13T11:05:02Z</time>
      </trkpt>
      <trkpt lat="45.9052" lon="4.61602">
        <ele>291.4</ele>
        <time>2020-12-13T11:05:03Z</time>
      </trkpt>
      <trkpt lat="45.9052" lon="4.61601">
        <ele>291.4</ele>
        <time>2020-12-13T11:05:04Z</time>
      </trkpt>
      <trkpt lat="45.9052" lon="4.61599">
        <ele>291.4</ele>
        <time>2020-12-13T11:05:05Z</time>
      </trkpt>
      <trkpt lat="45.90521" lon="4.61596">
        <ele>291.4</ele>
        <time>2020-12-13T11:05:06Z</time>
      </trkpt>
      <trkpt lat="45.90521" lon="4.61593">
        <ele>291.5</ele>
        <time>2020-12-13T11:05:07Z</time>
      </trkpt>
      <trkpt lat="45.90522" lon="4.61592">
        <ele>291.5</ele>
        <time>2020-12-13T11:05:08Z</time>
      </trkpt>
      <trkpt lat="45.90522" lon="4.6159">
        <ele>291.5</ele>
        <time>2020-12-13T11:05:09Z</time>
      </trkpt>
      <trkpt lat="45.90523" lon="4.61588">
        <ele>291.6</ele>
        <time>2020-12-13T11:05:10Z</time>
      </trkpt>
      <trkpt lat="45.90524" lon="4.61587">
        <ele>291.6</ele>
        <time>2020-12-13T11:05:11Z</time>
      </trkpt>
      <trkpt lat="45.90523" lon="4.61585">
        <ele>291.6</ele>
        <time>2020-12-13T11:05:12Z</time>
      </trkpt>
      <trkpt lat="45.90523" lon="4.61583">
        <ele>291.7</ele>
        <time>2020-12-13T11:05:13Z</time>
      </trkpt>
      <trkpt lat="45.90523" lon="4.61581">
        <ele>291.7</ele>
        <time>2020-12-13T11:05:14Z</time>
      </trkpt>
      <trkpt lat="45.90523" lon="4.6158">
        <ele>291.8</ele>
        <time>2020-12-13T11:05:15Z</time>
      </trkpt>
      <trkpt lat="45.90523" lon="4.61577">
        <ele>291.9</ele>
        <time>2020-12-13T11:05:16Z</time>
      </trkpt>
      <trkpt lat="45.90523" lon="4.61574">
        <ele>292</ele>
        <time>2020-12-13T11:05:17Z</time>
      </trkpt>
      <trkpt lat="45.90523" lon="4.61573">
        <ele>292</ele>
        <time>2020-12-13T11:05:18Z</time>
      </trkpt>
      <trkpt lat="45.90523" lon="4.61572">
        <ele>292</ele>
        <time>2020-12-13T11:05:19Z</time>
      </trkpt>
      <trkpt lat="45.90522" lon="4.6157">
        <ele>292.1</ele>
        <time>2020-12-13T11:05:20Z</time>
      </trkpt>
      <trkpt lat="45.90522" lon="4.61568">
        <ele>292.2</ele>
        <time>2020-12-13T11:05:22Z</time>
      </trkpt>
      <trkpt lat="45.90521" lon="4.61567">
        <ele>292.2</ele>
        <time>2020-12-13T11:05:23Z</time>
      </trkpt>
      <trkpt lat="45.90521" lon="4.61565">
        <ele>292.3</ele>
        <time>2020-12-13T11:05:24Z</time>
      </trkpt>
      <trkpt lat="45.9052" lon="4.61563">
        <ele>292.4</ele>
        <time>2020-12-13T11:05:25Z</time>
      </trkpt>
      <trkpt lat="45.9052" lon="4.6156">
        <ele>292.6</ele>
        <time>2020-12-13T11:05:26Z</time>
      </trkpt>
      <trkpt lat="45.90519" lon="4.61559">
        <ele>292.6</ele>
        <time>2020-12-13T11:05:27Z</time>
      </trkpt>
      <trkpt lat="45.90519" lon="4.61557">
        <ele>292.7</ele>
        <time>2020-12-13T11:05:28Z</time>
      </trkpt>
      <trkpt lat="45.90518" lon="4.61555">
        <ele>292.8</ele>
        <time>2020-12-13T11:05:29Z</time>
      </trkpt>
      <trkpt lat="45.90518" lon="4.61554">
        <ele>292.9</ele>
        <time>2020-12-13T11:05:30Z</time>
      </trkpt>
      <trkpt lat="45.90517" lon="4.61552">
        <ele>293</ele>
        <time>2020-12-13T11:05:31Z</time>
      </trkpt>
      <trkpt lat="45.90517" lon="4.6155">
        <ele>293.1</ele>
        <time>2020-12-13T11:05:32Z</time>
      </trkpt>
      <trkpt lat="45.90516" lon="4.61548">
        <ele>293.1</ele>
        <time>2020-12-13T11:05:33Z</time>
      </trkpt>
      <trkpt lat="45.90515" lon="4.61546">
        <ele>293.1</ele>
        <time>2020-12-13T11:05:34Z</time>
      </trkpt>
      <trkpt lat="45.90514" lon="4.61544">
        <ele>293.2</ele>
        <time>2020-12-13T11:05:35Z</time>
      </trkpt>
      <trkpt lat="45.90513" lon="4.61542">
        <ele>293.2</ele>
        <time>2020-12-13T11:05:36Z</time>
      </trkpt>
      <trkpt lat="45.90512" lon="4.61541">
        <ele>293.2</ele>
        <time>2020-12-13T11:05:37Z</time>
      </trkpt>
      <trkpt lat="45.90511" lon="4.61538">
        <ele>293.2</ele>
        <time>2020-12-13T11:05:38Z</time>
      </trkpt>
      <trkpt lat="45.90509" lon="4.61537">
        <ele>293.2</ele>
        <time>2020-12-13T11:05:39Z</time>
      </trkpt>
      <trkpt lat="45.90508" lon="4.61536">
        <ele>293.3</ele>
        <time>2020-12-13T11:05:40Z</time>
      </trkpt>
      <trkpt lat="45.90507" lon="4.61535">
        <ele>293.3</ele>
        <time>2020-12-13T11:05:41Z</time>
      </trkpt>
      <trkpt lat="45.90506" lon="4.61534">
        <ele>293.4</ele>
        <time>2020-12-13T11:05:42Z</time>
      </trkpt>
      <trkpt lat="45.90505" lon="4.61534">
        <ele>293.5</ele>
        <time>2020-12-13T11:05:43Z</time>
      </trkpt>
      <trkpt lat="45.90504" lon="4.61533">
        <ele>293.5</ele>
        <time>2020-12-13T11:05:44Z</time>
      </trkpt>
      <trkpt lat="45.90503" lon="4.61532">
        <ele>293.6</ele>
        <time>2020-12-13T11:05:45Z</time>
      </trkpt>
      <trkpt lat="45.90502" lon="4.61532">
        <ele>293.7</ele>
        <time>2020-12-13T11:05:46Z</time>
      </trkpt>
      <trkpt lat="45.90501" lon="4.61531">
        <ele>293.7</ele>
        <time>2020-12-13T11:05:47Z</time>
      </trkpt>
      <trkpt lat="45.90499" lon="4.6153">
        <ele>293.9</ele>
        <time>2020-12-13T11:05:48Z</time>
      </trkpt>
      <trkpt lat="45.90498" lon="4.61529">
        <ele>293.9</ele>
        <time>2020-12-13T11:05:49Z</time>
      </trkpt>
      <trkpt lat="45.90497" lon="4.61529">
        <ele>294</ele>
        <time>2020-12-13T11:05:50Z</time>
      </trkpt>
      <trkpt lat="45.90496" lon="4.61529">
        <ele>294.1</ele>
        <time>2020-12-13T11:05:51Z</time>
      </trkpt>
      <trkpt lat="45.90494" lon="4.61528">
        <ele>294.2</ele>
        <time>2020-12-13T11:05:52Z</time>
      </trkpt>
      <trkpt lat="45.90493" lon="4.61527">
        <ele>294.2</ele>
        <time>2020-12-13T11:05:53Z</time>
      </trkpt>
      <trkpt lat="45.90491" lon="4.61527">
        <ele>294.4</ele>
        <time>2020-12-13T11:05:54Z</time>
      </trkpt>
      <trkpt lat="45.9049" lon="4.61527">
        <ele>294.4</ele>
        <time>2020-12-13T11:05:55Z</time>
      </trkpt>
      <trkpt lat="45.90489" lon="4.61527">
        <ele>294.5</ele>
        <time>2020-12-13T11:05:56Z</time>
      </trkpt>
      <trkpt lat="45.90488" lon="4.61527">
        <ele>294.6</ele>
        <time>2020-12-13T11:05:57Z</time>
      </trkpt>
      <trkpt lat="45.90487" lon="4.61526">
        <ele>294.6</ele>
        <time>2020-12-13T11:05:58Z</time>
      </trkpt>
      <trkpt lat="45.90486" lon="4.61526">
        <ele>294.7</ele>
        <time>2020-12-13T11:05:59Z</time>
      </trkpt>
      <trkpt lat="45.90485" lon="4.61525">
        <ele>294.8</ele>
        <time>2020-12-13T11:06:00Z</time>
      </trkpt>
      <trkpt lat="45.90483" lon="4.61524">
        <ele>295</ele>
        <time>2020-12-13T11:06:01Z</time>
      </trkpt>
      <trkpt lat="45.90482" lon="4.61524">
        <ele>295.1</ele>
        <time>2020-12-13T11:06:02Z</time>
      </trkpt>
      <trkpt lat="45.9048" lon="4.61523">
        <ele>295.3</ele>
        <time>2020-12-13T11:06:03Z</time>
      </trkpt>
      <trkpt lat="45.90479" lon="4.61523">
        <ele>295.4</ele>
        <time>2020-12-13T11:06:04Z</time>
      </trkpt>
      <trkpt lat="45.90477" lon="4.61522">
        <ele>295.6</ele>
        <time>2020-12-13T11:06:05Z</time>
      </trkpt>
      <trkpt lat="45.90476" lon="4.61521">
        <ele>295.7</ele>
        <time>2020-12-13T11:06:06Z</time>
      </trkpt>
      <trkpt lat="45.90475" lon="4.61521">
        <ele>295.8</ele>
        <time>2020-12-13T11:06:07Z</time>
      </trkpt>
      <trkpt lat="45.90473" lon="4.61521">
        <ele>296</ele>
        <time>2020-12-13T11:06:08Z</time>
      </trkpt>
      <trkpt lat="45.90472" lon="4.6152">
        <ele>296.1</ele>
        <time>2020-12-13T11:06:09Z</time>
      </trkpt>
      <trkpt lat="45.9047" lon="4.61519">
        <ele>296.3</ele>
        <time>2020-12-13T11:06:10Z</time>
      </trkpt>
      <trkpt lat="45.90469" lon="4.61518">
        <ele>296.4</ele>
        <time>2020-12-13T11:06:11Z</time>
      </trkpt>
      <trkpt lat="45.90469" lon="4.61517">
        <ele>296.5</ele>
        <time>2020-12-13T11:06:12Z</time>
      </trkpt>
      <trkpt lat="45.90467" lon="4.61517">
        <ele>296.7</ele>
        <time>2020-12-13T11:06:13Z</time>
      </trkpt>
      <trkpt lat="45.90467" lon="4.61516">
        <ele>296.8</ele>
        <time>2020-12-13T11:06:14Z</time>
      </trkpt>
      <trkpt lat="45.90466" lon="4.61516">
        <ele>296.9</ele>
        <time>2020-12-13T11:06:15Z</time>
      </trkpt>
      <trkpt lat="45.90465" lon="4.61514">
        <ele>297</ele>
        <time>2020-12-13T11:06:16Z</time>
      </trkpt>
      <trkpt lat="45.90463" lon="4.61513">
        <ele>297.2</ele>
        <time>2020-12-13T11:06:17Z</time>
      </trkpt>
      <trkpt lat="45.90462" lon="4.61512">
        <ele>297.4</ele>
        <time>2020-12-13T11:06:18Z</time>
      </trkpt>
      <trkpt lat="45.90462" lon="4.61511">
        <ele>297.4</ele>
        <time>2020-12-13T11:06:19Z</time>
      </trkpt>
      <trkpt lat="45.90461" lon="4.6151">
        <ele>297.6</ele>
        <time>2020-12-13T11:06:20Z</time>
      </trkpt>
      <trkpt lat="45.90459" lon="4.61508">
        <ele>297.8</ele>
        <time>2020-12-13T11:06:21Z</time>
      </trkpt>
      <trkpt lat="45.90458" lon="4.61508">
        <ele>297.9</ele>
        <time>2020-12-13T11:06:22Z</time>
      </trkpt>
      <trkpt lat="45.90457" lon="4.61507">
        <ele>298</ele>
        <time>2020-12-13T11:06:23Z</time>
      </trkpt>
      <trkpt lat="45.90456" lon="4.61506">
        <ele>298.2</ele>
        <time>2020-12-13T11:06:24Z</time>
      </trkpt>
      <trkpt lat="45.90455" lon="4.61505">
        <ele>298.3</ele>
        <time>2020-12-13T11:06:25Z</time>
      </trkpt>
      <trkpt lat="45.90455" lon="4.61503">
        <ele>298.4</ele>
        <time>2020-12-13T11:06:26Z</time>
      </trkpt>
      <trkpt lat="45.90454" lon="4.61503">
        <ele>298.5</ele>
        <time>2020-12-13T11:06:27Z</time>
      </trkpt>
      <trkpt lat="45.90454" lon="4.61501">
        <ele>298.7</ele>
        <time>2020-12-13T11:06:28Z</time>
      </trkpt>
      <trkpt lat="45.90453" lon="4.61499">
        <ele>298.8</ele>
        <time>2020-12-13T11:06:29Z</time>
      </trkpt>
      <trkpt lat="45.90452" lon="4.61498">
        <ele>298.9</ele>
        <time>2020-12-13T11:06:30Z</time>
      </trkpt>
      <trkpt lat="45.90452" lon="4.61496">
        <ele>299</ele>
        <time>2020-12-13T11:06:31Z</time>
      </trkpt>
      <trkpt lat="45.90451" lon="4.61494">
        <ele>299.3</ele>
        <time>2020-12-13T11:06:32Z</time>
      </trkpt>
      <trkpt lat="45.9045" lon="4.61493">
        <ele>299.3</ele>
        <time>2020-12-13T11:06:33Z</time>
      </trkpt>
      <trkpt lat="45.9045" lon="4.61492">
        <ele>299.4</ele>
        <time>2020-12-13T11:06:34Z</time>
      </trkpt>
      <trkpt lat="45.90449" lon="4.6149">
        <ele>299.6</ele>
        <time>2020-12-13T11:06:35Z</time>
      </trkpt>
      <trkpt lat="45.90449" lon="4.61489">
        <ele>299.7</ele>
        <time>2020-12-13T11:06:36Z</time>
      </trkpt>
      <trkpt lat="45.90448" lon="4.61487">
        <ele>299.8</ele>
        <time>2020-12-13T11:06:37Z</time>
      </trkpt>
      <trkpt lat="45.90448" lon="4.61485">
        <ele>299.9</ele>
        <time>2020-12-13T11:06:38Z</time>
      </trkpt>
      <trkpt lat="45.90447" lon="4.61484">
        <ele>300</ele>
        <time>2020-12-13T11:06:39Z</time>
      </trkpt>
      <trkpt lat="45.90447" lon="4.61482">
        <ele>300.2</ele>
        <time>2020-12-13T11:06:40Z</time>
      </trkpt>
      <trkpt lat="45.90446" lon="4.61479">
        <ele>300.4</ele>
        <time>2020-12-13T11:06:41Z</time>
      </trkpt>
      <trkpt lat="45.90446" lon="4.61478">
        <ele>300.5</ele>
        <time>2020-12-13T11:06:42Z</time>
      </trkpt>
      <trkpt lat="45.90446" lon="4.61477">
        <ele>300.6</ele>
        <time>2020-12-13T11:06:43Z</time>
      </trkpt>
      <trkpt lat="45.90446" lon="4.61474">
        <ele>300.8</ele>
        <time>2020-12-13T11:06:44Z</time>
      </trkpt>
      <trkpt lat="45.90446" lon="4.61472">
        <ele>300.9</ele>
        <time>2020-12-13T11:06:45Z</time>
      </trkpt>
      <trkpt lat="45.90446" lon="4.61471">
        <ele>301</ele>
        <time>2020-12-13T11:06:46Z</time>
      </trkpt>
      <trkpt lat="45.90445" lon="4.6147">
        <ele>301.1</ele>
        <time>2020-12-13T11:06:47Z</time>
      </trkpt>
      <trkpt lat="45.90445" lon="4.61467">
        <ele>301.2</ele>
        <time>2020-12-13T11:06:48Z</time>
      </trkpt>
      <trkpt lat="45.90444" lon="4.61464">
        <ele>301.5</ele>
        <time>2020-12-13T11:06:49Z</time>
      </trkpt>
      <trkpt lat="45.90444" lon="4.61463">
        <ele>301.5</ele>
        <time>2020-12-13T11:06:50Z</time>
      </trkpt>
      <trkpt lat="45.90444" lon="4.61462">
        <ele>301.6</ele>
        <time>2020-12-13T11:06:51Z</time>
      </trkpt>
      <trkpt lat="45.90444" lon="4.6146">
        <ele>301.8</ele>
        <time>2020-12-13T11:06:52Z</time>
      </trkpt>
      <trkpt lat="45.90444" lon="4.61458">
        <ele>301.9</ele>
        <time>2020-12-13T11:06:53Z</time>
      </trkpt>
      <trkpt lat="45.90444" lon="4.61457">
        <ele>302</ele>
        <time>2020-12-13T11:06:54Z</time>
      </trkpt>
      <trkpt lat="45.90444" lon="4.61455">
        <ele>302.1</ele>
        <time>2020-12-13T11:06:55Z</time>
      </trkpt>
      <trkpt lat="45.90444" lon="4.61454">
        <ele>302.2</ele>
        <time>2020-12-13T11:06:56Z</time>
      </trkpt>
      <trkpt lat="45.90444" lon="4.61451">
        <ele>302.5</ele>
        <time>2020-12-13T11:06:57Z</time>
      </trkpt>
      <trkpt lat="45.90444" lon="4.6145">
        <ele>302.5</ele>
        <time>2020-12-13T11:06:58Z</time>
      </trkpt>
      <trkpt lat="45.90444" lon="4.61448">
        <ele>302.6</ele>
        <time>2020-12-13T11:06:59Z</time>
      </trkpt>
      <trkpt lat="45.90444" lon="4.61447">
        <ele>302.7</ele>
        <time>2020-12-13T11:07:00Z</time>
      </trkpt>
      <trkpt lat="45.90444" lon="4.61445">
        <ele>302.9</ele>
        <time>2020-12-13T11:07:01Z</time>
      </trkpt>
      <trkpt lat="45.90443" lon="4.61444">
        <ele>303</ele>
        <time>2020-12-13T11:07:02Z</time>
      </trkpt>
      <trkpt lat="45.90443" lon="4.61441">
        <ele>303.1</ele>
        <time>2020-12-13T11:07:03Z</time>
      </trkpt>
      <trkpt lat="45.90443" lon="4.6144">
        <ele>303.3</ele>
        <time>2020-12-13T11:07:04Z</time>
      </trkpt>
      <trkpt lat="45.90442" lon="4.61439">
        <ele>303.3</ele>
        <time>2020-12-13T11:07:05Z</time>
      </trkpt>
      <trkpt lat="45.90443" lon="4.61437">
        <ele>303.5</ele>
        <time>2020-12-13T11:07:06Z</time>
      </trkpt>
      <trkpt lat="45.90442" lon="4.61435">
        <ele>303.6</ele>
        <time>2020-12-13T11:07:07Z</time>
      </trkpt>
      <trkpt lat="45.90442" lon="4.61432">
        <ele>303.8</ele>
        <time>2020-12-13T11:07:08Z</time>
      </trkpt>
      <trkpt lat="45.90442" lon="4.61431">
        <ele>303.9</ele>
        <time>2020-12-13T11:07:09Z</time>
      </trkpt>
      <trkpt lat="45.90442" lon="4.6143">
        <ele>304</ele>
        <time>2020-12-13T11:07:10Z</time>
      </trkpt>
      <trkpt lat="45.90441" lon="4.61427">
        <ele>304.2</ele>
        <time>2020-12-13T11:07:11Z</time>
      </trkpt>
      <trkpt lat="45.90441" lon="4.61425">
        <ele>304.3</ele>
        <time>2020-12-13T11:07:12Z</time>
      </trkpt>
      <trkpt lat="45.90441" lon="4.61424">
        <ele>304.4</ele>
        <time>2020-12-13T11:07:13Z</time>
      </trkpt>
      <trkpt lat="45.9044" lon="4.61421">
        <ele>304.6</ele>
        <time>2020-12-13T11:07:14Z</time>
      </trkpt>
      <trkpt lat="45.9044" lon="4.6142">
        <ele>304.7</ele>
        <time>2020-12-13T11:07:15Z</time>
      </trkpt>
      <trkpt lat="45.9044" lon="4.61419">
        <ele>304.8</ele>
        <time>2020-12-13T11:07:16Z</time>
      </trkpt>
      <trkpt lat="45.90439" lon="4.61416">
        <ele>305</ele>
        <time>2020-12-13T11:07:17Z</time>
      </trkpt>
      <trkpt lat="45.90439" lon="4.61415">
        <ele>305.1</ele>
        <time>2020-12-13T11:07:18Z</time>
      </trkpt>
      <trkpt lat="45.90439" lon="4.61414">
        <ele>305.2</ele>
        <time>2020-12-13T11:07:19Z</time>
      </trkpt>
      <trkpt lat="45.90438" lon="4.61411">
        <ele>305.5</ele>
        <time>2020-12-13T11:07:20Z</time>
      </trkpt>
      <trkpt lat="45.90438" lon="4.6141">
        <ele>305.6</ele>
        <time>2020-12-13T11:07:21Z</time>
      </trkpt>
      <trkpt lat="45.90438" lon="4.61408">
        <ele>305.6</ele>
        <time>2020-12-13T11:07:22Z</time>
      </trkpt>
      <trkpt lat="45.90437" lon="4.61407">
        <ele>305.8</ele>
        <time>2020-12-13T11:07:23Z</time>
      </trkpt>
      <trkpt lat="45.90436" lon="4.61406">
        <ele>305.9</ele>
        <time>2020-12-13T11:07:24Z</time>
      </trkpt>
      <trkpt lat="45.90436" lon="4.61404">
        <ele>306</ele>
        <time>2020-12-13T11:07:25Z</time>
      </trkpt>
      <trkpt lat="45.90435" lon="4.61403">
        <ele>306.1</ele>
        <time>2020-12-13T11:07:26Z</time>
      </trkpt>
      <trkpt lat="45.90435" lon="4.61402">
        <ele>306.2</ele>
        <time>2020-12-13T11:07:28Z</time>
      </trkpt>
      <trkpt lat="45.90434" lon="4.614">
        <ele>306.4</ele>
        <time>2020-12-13T11:07:29Z</time>
      </trkpt>
      <trkpt lat="45.90433" lon="4.61399">
        <ele>306.5</ele>
        <time>2020-12-13T11:07:30Z</time>
      </trkpt>
      <trkpt lat="45.90433" lon="4.61397">
        <ele>306.6</ele>
        <time>2020-12-13T11:07:31Z</time>
      </trkpt>
      <trkpt lat="45.90432" lon="4.61396">
        <ele>306.7</ele>
        <time>2020-12-13T11:07:32Z</time>
      </trkpt>
      <trkpt lat="45.90432" lon="4.61395">
        <ele>306.8</ele>
        <time>2020-12-13T11:07:33Z</time>
      </trkpt>
      <trkpt lat="45.90431" lon="4.61392">
        <ele>307</ele>
        <time>2020-12-13T11:07:34Z</time>
      </trkpt>
      <trkpt lat="45.9043" lon="4.61391">
        <ele>307.1</ele>
        <time>2020-12-13T11:07:35Z</time>
      </trkpt>
      <trkpt lat="45.9043" lon="4.6139">
        <ele>307.2</ele>
        <time>2020-12-13T11:07:36Z</time>
      </trkpt>
      <trkpt lat="45.90429" lon="4.61388">
        <ele>307.4</ele>
        <time>2020-12-13T11:07:37Z</time>
      </trkpt>
      <trkpt lat="45.90428" lon="4.61385">
        <ele>307.6</ele>
        <time>2020-12-13T11:07:38Z</time>
      </trkpt>
      <trkpt lat="45.90428" lon="4.61384">
        <ele>307.7</ele>
        <time>2020-12-13T11:07:39Z</time>
      </trkpt>
      <trkpt lat="45.90427" lon="4.61383">
        <ele>307.7</ele>
        <time>2020-12-13T11:07:40Z</time>
      </trkpt>
      <trkpt lat="45.90426" lon="4.61381">
        <ele>307.9</ele>
        <time>2020-12-13T11:07:41Z</time>
      </trkpt>
      <trkpt lat="45.90425" lon="4.61379">
        <ele>308.1</ele>
        <time>2020-12-13T11:07:42Z</time>
      </trkpt>
      <trkpt lat="45.90424" lon="4.61377">
        <ele>308.3</ele>
        <time>2020-12-13T11:07:43Z</time>
      </trkpt>
      <trkpt lat="45.90424" lon="4.61376">
        <ele>308.3</ele>
        <time>2020-12-13T11:07:44Z</time>
      </trkpt>
      <trkpt lat="45.90423" lon="4.61375">
        <ele>308.4</ele>
        <time>2020-12-13T11:07:45Z</time>
      </trkpt>
      <trkpt lat="45.90422" lon="4.61372">
        <ele>308.6</ele>
        <time>2020-12-13T11:07:46Z</time>
      </trkpt>
      <trkpt lat="45.90422" lon="4.61371">
        <ele>308.7</ele>
        <time>2020-12-13T11:07:47Z</time>
      </trkpt>
      <trkpt lat="45.90421" lon="4.6137">
        <ele>308.8</ele>
        <time>2020-12-13T11:07:48Z</time>
      </trkpt>
      <trkpt lat="45.9042" lon="4.61368">
        <ele>308.9</ele>
        <time>2020-12-13T11:07:49Z</time>
      </trkpt>
      <trkpt lat="45.9042" lon="4.61366">
        <ele>309</ele>
        <time>2020-12-13T11:07:50Z</time>
      </trkpt>
      <trkpt lat="45.90419" lon="4.61363">
        <ele>309.2</ele>
        <time>2020-12-13T11:07:51Z</time>
      </trkpt>
      <trkpt lat="45.90418" lon="4.61362">
        <ele>309.2</ele>
        <time>2020-12-13T11:07:52Z</time>
      </trkpt>
      <trkpt lat="45.90418" lon="4.61361">
        <ele>309.3</ele>
        <time>2020-12-13T11:07:53Z</time>
      </trkpt>
      <trkpt lat="45.90417" lon="4.6136">
        <ele>309.4</ele>
        <time>2020-12-13T11:07:54Z</time>
      </trkpt>
      <trkpt lat="45.90417" lon="4.61359">
        <ele>309.4</ele>
        <time>2020-12-13T11:07:55Z</time>
      </trkpt>
      <trkpt lat="45.90416" lon="4.61358">
        <ele>309.5</ele>
        <time>2020-12-13T11:07:56Z</time>
      </trkpt>
      <trkpt lat="45.90415" lon="4.61357">
        <ele>309.6</ele>
        <time>2020-12-13T11:07:57Z</time>
      </trkpt>
      <trkpt lat="45.90415" lon="4.61354">
        <ele>309.7</ele>
        <time>2020-12-13T11:07:58Z</time>
      </trkpt>
      <trkpt lat="45.90414" lon="4.61353">
        <ele>309.8</ele>
        <time>2020-12-13T11:07:59Z</time>
      </trkpt>
      <trkpt lat="45.90413" lon="4.61352">
        <ele>309.9</ele>
        <time>2020-12-13T11:08:00Z</time>
      </trkpt>
      <trkpt lat="45.90413" lon="4.6135">
        <ele>310</ele>
        <time>2020-12-13T11:08:01Z</time>
      </trkpt>
      <trkpt lat="45.90412" lon="4.61348">
        <ele>310.1</ele>
        <time>2020-12-13T11:08:02Z</time>
      </trkpt>
      <trkpt lat="45.90412" lon="4.61347">
        <ele>310.1</ele>
        <time>2020-12-13T11:08:03Z</time>
      </trkpt>
      <trkpt lat="45.90411" lon="4.61346">
        <ele>310.2</ele>
        <time>2020-12-13T11:08:04Z</time>
      </trkpt>
      <trkpt lat="45.90411" lon="4.61344">
        <ele>310.3</ele>
        <time>2020-12-13T11:08:05Z</time>
      </trkpt>
      <trkpt lat="45.9041" lon="4.61342">
        <ele>310.4</ele>
        <time>2020-12-13T11:08:06Z</time>
      </trkpt>
      <trkpt lat="45.9041" lon="4.61341">
        <ele>310.4</ele>
        <time>2020-12-13T11:08:07Z</time>
      </trkpt>
      <trkpt lat="45.9041" lon="4.61339">
        <ele>310.5</ele>
        <time>2020-12-13T11:08:08Z</time>
      </trkpt>
      <trkpt lat="45.90409" lon="4.61337">
        <ele>310.6</ele>
        <time>2020-12-13T11:08:09Z</time>
      </trkpt>
      <trkpt lat="45.90408" lon="4.61337">
        <ele>310.6</ele>
        <time>2020-12-13T11:08:10Z</time>
      </trkpt>
      <trkpt lat="45.90407" lon="4.61338">
        <ele>310.5</ele>
        <time>2020-12-13T11:08:11Z</time>
      </trkpt>
      <trkpt lat="45.90406" lon="4.61338">
        <ele>310.5</ele>
        <time>2020-12-13T11:08:12Z</time>
      </trkpt>
      <trkpt lat="45.90405" lon="4.61339">
        <ele>310.3</ele>
        <time>2020-12-13T11:08:13Z</time>
      </trkpt>
      <trkpt lat="45.90403" lon="4.61338">
        <ele>310.2</ele>
        <time>2020-12-13T11:08:14Z</time>
      </trkpt>
      <trkpt lat="45.90402" lon="4.61338">
        <ele>310.1</ele>
        <time>2020-12-13T11:08:15Z</time>
      </trkpt>
      <trkpt lat="45.904" lon="4.61337">
        <ele>310</ele>
        <time>2020-12-13T11:08:16Z</time>
      </trkpt>
      <trkpt lat="45.904" lon="4.61337">
        <ele>310</ele>
        <time>2020-12-13T11:08:17Z</time>
      </trkpt>
      <trkpt lat="45.90399" lon="4.61336">
        <ele>309.9</ele>
        <time>2020-12-13T11:08:18Z</time>
      </trkpt>
      <trkpt lat="45.90398" lon="4.61336">
        <ele>309.8</ele>
        <time>2020-12-13T11:08:19Z</time>
      </trkpt>
      <trkpt lat="45.90396" lon="4.61336">
        <ele>309.7</ele>
        <time>2020-12-13T11:08:20Z</time>
      </trkpt>
      <trkpt lat="45.90395" lon="4.61335">
        <ele>309.6</ele>
        <time>2020-12-13T11:08:21Z</time>
      </trkpt>
      <trkpt lat="45.90393" lon="4.61335">
        <ele>309.4</ele>
        <time>2020-12-13T11:08:22Z</time>
      </trkpt>
      <trkpt lat="45.90393" lon="4.61335">
        <ele>309.4</ele>
        <time>2020-12-13T11:08:23Z</time>
      </trkpt>
      <trkpt lat="45.90391" lon="4.61335">
        <ele>309.2</ele>
        <time>2020-12-13T11:08:24Z</time>
      </trkpt>
      <trkpt lat="45.9039" lon="4.61335">
        <ele>309.2</ele>
        <time>2020-12-13T11:08:25Z</time>
      </trkpt>
      <trkpt lat="45.90388" lon="4.61335">
        <ele>309</ele>
        <time>2020-12-13T11:08:26Z</time>
      </trkpt>
      <trkpt lat="45.90386" lon="4.61335">
        <ele>308.9</ele>
        <time>2020-12-13T11:08:27Z</time>
      </trkpt>
      <trkpt lat="45.90385" lon="4.61335">
        <ele>308.8</ele>
        <time>2020-12-13T11:08:28Z</time>
      </trkpt>
      <trkpt lat="45.90384" lon="4.61335">
        <ele>308.7</ele>
        <time>2020-12-13T11:08:29Z</time>
      </trkpt>
      <trkpt lat="45.90383" lon="4.61335">
        <ele>308.6</ele>
        <time>2020-12-13T11:08:30Z</time>
      </trkpt>
      <trkpt lat="45.90382" lon="4.61336">
        <ele>308.6</ele>
        <time>2020-12-13T11:08:31Z</time>
      </trkpt>
      <trkpt lat="45.90381" lon="4.61335">
        <ele>308.5</ele>
        <time>2020-12-13T11:08:32Z</time>
      </trkpt>
      <trkpt lat="45.9038" lon="4.61335">
        <ele>308.4</ele>
        <time>2020-12-13T11:08:33Z</time>
      </trkpt>
      <trkpt lat="45.90379" lon="4.61335">
        <ele>308.3</ele>
        <time>2020-12-13T11:08:34Z</time>
      </trkpt>
      <trkpt lat="45.90377" lon="4.61336">
        <ele>308.2</ele>
        <time>2020-12-13T11:08:35Z</time>
      </trkpt>
      <trkpt lat="45.90376" lon="4.61336">
        <ele>308.1</ele>
        <time>2020-12-13T11:08:36Z</time>
      </trkpt>
      <trkpt lat="45.90374" lon="4.61336">
        <ele>308</ele>
        <time>2020-12-13T11:08:37Z</time>
      </trkpt>
      <trkpt lat="45.90373" lon="4.61336">
        <ele>307.9</ele>
        <time>2020-12-13T11:08:38Z</time>
      </trkpt>
      <trkpt lat="45.90372" lon="4.61336">
        <ele>307.9</ele>
        <time>2020-12-13T11:08:39Z</time>
      </trkpt>
      <trkpt lat="45.9037" lon="4.61336">
        <ele>307.7</ele>
        <time>2020-12-13T11:08:40Z</time>
      </trkpt>
      <trkpt lat="45.90369" lon="4.61336">
        <ele>307.6</ele>
        <time>2020-12-13T11:08:41Z</time>
      </trkpt>
      <trkpt lat="45.90367" lon="4.61337">
        <ele>307.5</ele>
        <time>2020-12-13T11:08:42Z</time>
      </trkpt>
      <trkpt lat="45.90367" lon="4.61337">
        <ele>307.5</ele>
        <time>2020-12-13T11:08:43Z</time>
      </trkpt>
      <trkpt lat="45.90365" lon="4.61337">
        <ele>307.4</ele>
        <time>2020-12-13T11:08:44Z</time>
      </trkpt>
      <trkpt lat="45.90365" lon="4.61338">
        <ele>307.3</ele>
        <time>2020-12-13T11:08:45Z</time>
      </trkpt>
      <trkpt lat="45.90363" lon="4.61338">
        <ele>307.3</ele>
        <time>2020-12-13T11:08:46Z</time>
      </trkpt>
      <trkpt lat="45.90362" lon="4.61339">
        <ele>307.2</ele>
        <time>2020-12-13T11:08:47Z</time>
      </trkpt>
      <trkpt lat="45.90362" lon="4.61339">
        <ele>307.2</ele>
        <time>2020-12-13T11:08:48Z</time>
      </trkpt>
      <trkpt lat="45.90361" lon="4.61339">
        <ele>307.1</ele>
        <time>2020-12-13T11:08:49Z</time>
      </trkpt>
      <trkpt lat="45.90358" lon="4.61339">
        <ele>306.9</ele>
        <time>2020-12-13T11:08:50Z</time>
      </trkpt>
      <trkpt lat="45.90357" lon="4.61339">
        <ele>306.9</ele>
        <time>2020-12-13T11:08:51Z</time>
      </trkpt>
      <trkpt lat="45.90356" lon="4.6134">
        <ele>306.8</ele>
        <time>2020-12-13T11:08:52Z</time>
      </trkpt>
      <trkpt lat="45.90355" lon="4.61341">
        <ele>306.7</ele>
        <time>2020-12-13T11:08:53Z</time>
      </trkpt>
      <trkpt lat="45.90354" lon="4.61341">
        <ele>306.7</ele>
        <time>2020-12-13T11:08:54Z</time>
      </trkpt>
      <trkpt lat="45.90352" lon="4.61341">
        <ele>306.6</ele>
        <time>2020-12-13T11:08:55Z</time>
      </trkpt>
      <trkpt lat="45.90351" lon="4.61341">
        <ele>306.5</ele>
        <time>2020-12-13T11:08:56Z</time>
      </trkpt>
      <trkpt lat="45.90349" lon="4.61341">
        <ele>306.5</ele>
        <time>2020-12-13T11:08:57Z</time>
      </trkpt>
      <trkpt lat="45.90346" lon="4.61341">
        <ele>306.3</ele>
        <time>2020-12-13T11:08:58Z</time>
      </trkpt>
      <trkpt lat="45.90345" lon="4.61341">
        <ele>306.3</ele>
        <time>2020-12-13T11:08:59Z</time>
      </trkpt>
      <trkpt lat="45.90345" lon="4.61342">
        <ele>306.3</ele>
        <time>2020-12-13T11:09:00Z</time>
      </trkpt>
      <trkpt lat="45.90344" lon="4.61343">
        <ele>306.2</ele>
        <time>2020-12-13T11:09:01Z</time>
      </trkpt>
      <trkpt lat="45.90343" lon="4.61343">
        <ele>306.2</ele>
        <time>2020-12-13T11:09:02Z</time>
      </trkpt>
      <trkpt lat="45.90341" lon="4.61343">
        <ele>306.1</ele>
        <time>2020-12-13T11:09:03Z</time>
      </trkpt>
      <trkpt lat="45.9034" lon="4.61343">
        <ele>306.1</ele>
        <time>2020-12-13T11:09:04Z</time>
      </trkpt>
      <trkpt lat="45.90339" lon="4.61344">
        <ele>306.1</ele>
        <time>2020-12-13T11:09:05Z</time>
      </trkpt>
      <trkpt lat="45.90336" lon="4.61344">
        <ele>306</ele>
        <time>2020-12-13T11:09:06Z</time>
      </trkpt>
      <trkpt lat="45.90334" lon="4.61344">
        <ele>305.9</ele>
        <time>2020-12-13T11:09:07Z</time>
      </trkpt>
      <trkpt lat="45.90333" lon="4.61344">
        <ele>305.9</ele>
        <time>2020-12-13T11:09:08Z</time>
      </trkpt>
      <trkpt lat="45.90332" lon="4.61344">
        <ele>305.9</ele>
        <time>2020-12-13T11:09:09Z</time>
      </trkpt>
      <trkpt lat="45.90331" lon="4.61343">
        <ele>305.9</ele>
        <time>2020-12-13T11:09:10Z</time>
      </trkpt>
      <trkpt lat="45.9033" lon="4.61344">
        <ele>305.9</ele>
        <time>2020-12-13T11:09:11Z</time>
      </trkpt>
      <trkpt lat="45.90329" lon="4.61344">
        <ele>305.8</ele>
        <time>2020-12-13T11:09:12Z</time>
      </trkpt>
      <trkpt lat="45.90327" lon="4.61342">
        <ele>305.8</ele>
        <time>2020-12-13T11:09:13Z</time>
      </trkpt>
      <trkpt lat="45.90326" lon="4.61341">
        <ele>305.8</ele>
        <time>2020-12-13T11:09:14Z</time>
      </trkpt>
      <trkpt lat="45.90326" lon="4.61341">
        <ele>305.8</ele>
        <time>2020-12-13T11:09:15Z</time>
      </trkpt>
      <trkpt lat="45.90324" lon="4.6134">
        <ele>305.8</ele>
        <time>2020-12-13T11:09:16Z</time>
      </trkpt>
      <trkpt lat="45.90323" lon="4.61339">
        <ele>305.7</ele>
        <time>2020-12-13T11:09:17Z</time>
      </trkpt>
      <trkpt lat="45.90322" lon="4.61338">
        <ele>305.7</ele>
        <time>2020-12-13T11:09:18Z</time>
      </trkpt>
      <trkpt lat="45.90321" lon="4.61338">
        <ele>305.7</ele>
        <time>2020-12-13T11:09:19Z</time>
      </trkpt>
      <trkpt lat="45.9032" lon="4.61336">
        <ele>305.7</ele>
        <time>2020-12-13T11:09:20Z</time>
      </trkpt>
      <trkpt lat="45.90319" lon="4.61336">
        <ele>305.7</ele>
        <time>2020-12-13T11:09:21Z</time>
      </trkpt>
      <trkpt lat="45.90318" lon="4.61335">
        <ele>305.7</ele>
        <time>2020-12-13T11:09:22Z</time>
      </trkpt>
      <trkpt lat="45.90317" lon="4.61333">
        <ele>305.7</ele>
        <time>2020-12-13T11:09:23Z</time>
      </trkpt>
      <trkpt lat="45.90316" lon="4.61332">
        <ele>305.7</ele>
        <time>2020-12-13T11:09:24Z</time>
      </trkpt>
      <trkpt lat="45.90315" lon="4.61331">
        <ele>305.7</ele>
        <time>2020-12-13T11:09:25Z</time>
      </trkpt>
      <trkpt lat="45.90314" lon="4.6133">
        <ele>305.7</ele>
        <time>2020-12-13T11:09:26Z</time>
      </trkpt>
      <trkpt lat="45.90314" lon="4.61329">
        <ele>305.7</ele>
        <time>2020-12-13T11:09:27Z</time>
      </trkpt>
      <trkpt lat="45.90313" lon="4.61328">
        <ele>305.7</ele>
        <time>2020-12-13T11:09:28Z</time>
      </trkpt>
      <trkpt lat="45.90311" lon="4.61326">
        <ele>305.7</ele>
        <time>2020-12-13T11:09:29Z</time>
      </trkpt>
      <trkpt lat="45.9031" lon="4.61326">
        <ele>305.7</ele>
        <time>2020-12-13T11:09:30Z</time>
      </trkpt>
      <trkpt lat="45.90309" lon="4.61325">
        <ele>305.7</ele>
        <time>2020-12-13T11:09:31Z</time>
      </trkpt>
      <trkpt lat="45.90308" lon="4.61323">
        <ele>305.7</ele>
        <time>2020-12-13T11:09:32Z</time>
      </trkpt>
      <trkpt lat="45.90307" lon="4.61322">
        <ele>305.7</ele>
        <time>2020-12-13T11:09:34Z</time>
      </trkpt>
      <trkpt lat="45.90306" lon="4.61322">
        <ele>305.7</ele>
        <time>2020-12-13T11:09:35Z</time>
      </trkpt>
      <trkpt lat="45.90305" lon="4.61321">
        <ele>305.8</ele>
        <time>2020-12-13T11:09:36Z</time>
      </trkpt>
      <trkpt lat="45.90305" lon="4.61319">
        <ele>305.8</ele>
        <time>2020-12-13T11:09:37Z</time>
      </trkpt>
      <trkpt lat="45.90304" lon="4.61318">
        <ele>305.8</ele>
        <time>2020-12-13T11:09:38Z</time>
      </trkpt>
      <trkpt lat="45.90302" lon="4.61314">
        <ele>305.8</ele>
        <time>2020-12-13T11:09:39Z</time>
      </trkpt>
      <trkpt lat="45.90301" lon="4.61313">
        <ele>305.8</ele>
        <time>2020-12-13T11:09:40Z</time>
      </trkpt>
      <trkpt lat="45.903" lon="4.61312">
        <ele>305.8</ele>
        <time>2020-12-13T11:09:41Z</time>
      </trkpt>
      <trkpt lat="45.90299" lon="4.61312">
        <ele>305.8</ele>
        <time>2020-12-13T11:09:42Z</time>
      </trkpt>
      <trkpt lat="45.90298" lon="4.6131">
        <ele>305.8</ele>
        <time>2020-12-13T11:09:43Z</time>
      </trkpt>
      <trkpt lat="45.90297" lon="4.61309">
        <ele>305.8</ele>
        <time>2020-12-13T11:09:44Z</time>
      </trkpt>
      <trkpt lat="45.90296" lon="4.61308">
        <ele>305.8</ele>
        <time>2020-12-13T11:09:45Z</time>
      </trkpt>
      <trkpt lat="45.90295" lon="4.61307">
        <ele>305.9</ele>
        <time>2020-12-13T11:09:46Z</time>
      </trkpt>
      <trkpt lat="45.90294" lon="4.61306">
        <ele>305.9</ele>
        <time>2020-12-13T11:09:48Z</time>
      </trkpt>
      <trkpt lat="45.90293" lon="4.61304">
        <ele>305.9</ele>
        <time>2020-12-13T11:09:49Z</time>
      </trkpt>
      <trkpt lat="45.90292" lon="4.61304">
        <ele>305.9</ele>
        <time>2020-12-13T11:09:50Z</time>
      </trkpt>
      <trkpt lat="45.9029" lon="4.61303">
        <ele>305.9</ele>
        <time>2020-12-13T11:09:52Z</time>
      </trkpt>
      <trkpt lat="45.90289" lon="4.61301">
        <ele>305.9</ele>
        <time>2020-12-13T11:09:53Z</time>
      </trkpt>
      <trkpt lat="45.90288" lon="4.61299">
        <ele>305.9</ele>
        <time>2020-12-13T11:09:54Z</time>
      </trkpt>
      <trkpt lat="45.90287" lon="4.61297">
        <ele>305.9</ele>
        <time>2020-12-13T11:09:55Z</time>
      </trkpt>
      <trkpt lat="45.90287" lon="4.61295">
        <ele>306</ele>
        <time>2020-12-13T11:09:56Z</time>
      </trkpt>
      <trkpt lat="45.90286" lon="4.61295">
        <ele>306</ele>
        <time>2020-12-13T11:09:57Z</time>
      </trkpt>
      <trkpt lat="45.90285" lon="4.61293">
        <ele>306</ele>
        <time>2020-12-13T11:09:58Z</time>
      </trkpt>
      <trkpt lat="45.90285" lon="4.61292">
        <ele>306</ele>
        <time>2020-12-13T11:09:59Z</time>
      </trkpt>
      <trkpt lat="45.90284" lon="4.6129">
        <ele>306</ele>
        <time>2020-12-13T11:10:00Z</time>
      </trkpt>
      <trkpt lat="45.90283" lon="4.61289">
        <ele>306</ele>
        <time>2020-12-13T11:10:01Z</time>
      </trkpt>
      <trkpt lat="45.90281" lon="4.61286">
        <ele>306</ele>
        <time>2020-12-13T11:10:02Z</time>
      </trkpt>
      <trkpt lat="45.9028" lon="4.61284">
        <ele>306</ele>
        <time>2020-12-13T11:10:03Z</time>
      </trkpt>
      <trkpt lat="45.9028" lon="4.61283">
        <ele>306</ele>
        <time>2020-12-13T11:10:04Z</time>
      </trkpt>
      <trkpt lat="45.90279" lon="4.61281">
        <ele>306</ele>
        <time>2020-12-13T11:10:05Z</time>
      </trkpt>
      <trkpt lat="45.90278" lon="4.61281">
        <ele>306</ele>
        <time>2020-12-13T11:10:06Z</time>
      </trkpt>
      <trkpt lat="45.90277" lon="4.6128">
        <ele>306</ele>
        <time>2020-12-13T11:10:07Z</time>
      </trkpt>
      <trkpt lat="45.90276" lon="4.61278">
        <ele>306</ele>
        <time>2020-12-13T11:10:08Z</time>
      </trkpt>
      <trkpt lat="45.90276" lon="4.61277">
        <ele>306</ele>
        <time>2020-12-13T11:10:09Z</time>
      </trkpt>
      <trkpt lat="45.90275" lon="4.61275">
        <ele>306</ele>
        <time>2020-12-13T11:10:10Z</time>
      </trkpt>
      <trkpt lat="45.90275" lon="4.61272">
        <ele>306</ele>
        <time>2020-12-13T11:10:11Z</time>
      </trkpt>
      <trkpt lat="45.90274" lon="4.61271">
        <ele>306</ele>
        <time>2020-12-13T11:10:12Z</time>
      </trkpt>
      <trkpt lat="45.90273" lon="4.6127">
        <ele>306</ele>
        <time>2020-12-13T11:10:13Z</time>
      </trkpt>
      <trkpt lat="45.90273" lon="4.61269">
        <ele>306</ele>
        <time>2020-12-13T11:10:14Z</time>
      </trkpt>
      <trkpt lat="45.90272" lon="4.61266">
        <ele>305.9</ele>
        <time>2020-12-13T11:10:15Z</time>
      </trkpt>
      <trkpt lat="45.90272" lon="4.61265">
        <ele>305.9</ele>
        <time>2020-12-13T11:10:16Z</time>
      </trkpt>
      <trkpt lat="45.90271" lon="4.61264">
        <ele>305.9</ele>
        <time>2020-12-13T11:10:17Z</time>
      </trkpt>
      <trkpt lat="45.90271" lon="4.61263">
        <ele>305.9</ele>
        <time>2020-12-13T11:10:18Z</time>
      </trkpt>
      <trkpt lat="45.9027" lon="4.6126">
        <ele>305.9</ele>
        <time>2020-12-13T11:10:19Z</time>
      </trkpt>
      <trkpt lat="45.90269" lon="4.61256">
        <ele>305.9</ele>
        <time>2020-12-13T11:10:20Z</time>
      </trkpt>
      <trkpt lat="45.90269" lon="4.61255">
        <ele>305.9</ele>
        <time>2020-12-13T11:10:21Z</time>
      </trkpt>
      <trkpt lat="45.90268" lon="4.61253">
        <ele>305.8</ele>
        <time>2020-12-13T11:10:22Z</time>
      </trkpt>
      <trkpt lat="45.90267" lon="4.61252">
        <ele>305.8</ele>
        <time>2020-12-13T11:10:23Z</time>
      </trkpt>
      <trkpt lat="45.90267" lon="4.6125">
        <ele>305.8</ele>
        <time>2020-12-13T11:10:24Z</time>
      </trkpt>
      <trkpt lat="45.90267" lon="4.61248">
        <ele>305.8</ele>
        <time>2020-12-13T11:10:25Z</time>
      </trkpt>
      <trkpt lat="45.90266" lon="4.61247">
        <ele>305.8</ele>
        <time>2020-12-13T11:10:26Z</time>
      </trkpt>
      <trkpt lat="45.90265" lon="4.61244">
        <ele>305.7</ele>
        <time>2020-12-13T11:10:27Z</time>
      </trkpt>
      <trkpt lat="45.90265" lon="4.61243">
        <ele>305.7</ele>
        <time>2020-12-13T11:10:28Z</time>
      </trkpt>
      <trkpt lat="45.90264" lon="4.61241">
        <ele>305.7</ele>
        <time>2020-12-13T11:10:29Z</time>
      </trkpt>
      <trkpt lat="45.90264" lon="4.6124">
        <ele>305.7</ele>
        <time>2020-12-13T11:10:30Z</time>
      </trkpt>
      <trkpt lat="45.90263" lon="4.61239">
        <ele>305.7</ele>
        <time>2020-12-13T11:10:31Z</time>
      </trkpt>
      <trkpt lat="45.90262" lon="4.61238">
        <ele>305.6</ele>
        <time>2020-12-13T11:10:32Z</time>
      </trkpt>
      <trkpt lat="45.90261" lon="4.61236">
        <ele>305.6</ele>
        <time>2020-12-13T11:10:33Z</time>
      </trkpt>
      <trkpt lat="45.9026" lon="4.61235">
        <ele>305.6</ele>
        <time>2020-12-13T11:10:34Z</time>
      </trkpt>
      <trkpt lat="45.9026" lon="4.61234">
        <ele>305.5</ele>
        <time>2020-12-13T11:10:35Z</time>
      </trkpt>
      <trkpt lat="45.90259" lon="4.61232">
        <ele>305.5</ele>
        <time>2020-12-13T11:10:36Z</time>
      </trkpt>
      <trkpt lat="45.90258" lon="4.61231">
        <ele>305.5</ele>
        <time>2020-12-13T11:10:37Z</time>
      </trkpt>
      <trkpt lat="45.90257" lon="4.6123">
        <ele>305.4</ele>
        <time>2020-12-13T11:10:38Z</time>
      </trkpt>
      <trkpt lat="45.90256" lon="4.61228">
        <ele>305.4</ele>
        <time>2020-12-13T11:10:39Z</time>
      </trkpt>
      <trkpt lat="45.90255" lon="4.61228">
        <ele>305.4</ele>
        <time>2020-12-13T11:10:40Z</time>
      </trkpt>
      <trkpt lat="45.90255" lon="4.61227">
        <ele>305.4</ele>
        <time>2020-12-13T11:10:41Z</time>
      </trkpt>
      <trkpt lat="45.90255" lon="4.61226">
        <ele>305.4</ele>
        <time>2020-12-13T11:10:42Z</time>
      </trkpt>
      <trkpt lat="45.90253" lon="4.61223">
        <ele>305.3</ele>
        <time>2020-12-13T11:10:43Z</time>
      </trkpt>
      <trkpt lat="45.90253" lon="4.61222">
        <ele>305.2</ele>
        <time>2020-12-13T11:10:44Z</time>
      </trkpt>
      <trkpt lat="45.90251" lon="4.6122">
        <ele>305.2</ele>
        <time>2020-12-13T11:10:45Z</time>
      </trkpt>
      <trkpt lat="45.9025" lon="4.61219">
        <ele>305.2</ele>
        <time>2020-12-13T11:10:46Z</time>
      </trkpt>
      <trkpt lat="45.9025" lon="4.61218">
        <ele>305.1</ele>
        <time>2020-12-13T11:10:47Z</time>
      </trkpt>
      <trkpt lat="45.90248" lon="4.61216">
        <ele>305.1</ele>
        <time>2020-12-13T11:10:48Z</time>
      </trkpt>
      <trkpt lat="45.90248" lon="4.61215">
        <ele>305.1</ele>
        <time>2020-12-13T11:10:49Z</time>
      </trkpt>
      <trkpt lat="45.90247" lon="4.61215">
        <ele>305</ele>
        <time>2020-12-13T11:10:50Z</time>
      </trkpt>
      <trkpt lat="45.90246" lon="4.61215">
        <ele>305</ele>
        <time>2020-12-13T11:10:51Z</time>
      </trkpt>
      <trkpt lat="45.90246" lon="4.61212">
        <ele>305</ele>
        <time>2020-12-13T11:10:52Z</time>
      </trkpt>
      <trkpt lat="45.90245" lon="4.6121">
        <ele>304.9</ele>
        <time>2020-12-13T11:10:53Z</time>
      </trkpt>
      <trkpt lat="45.90244" lon="4.6121">
        <ele>304.9</ele>
        <time>2020-12-13T11:10:54Z</time>
      </trkpt>
      <trkpt lat="45.90244" lon="4.61209">
        <ele>304.8</ele>
        <time>2020-12-13T11:10:55Z</time>
      </trkpt>
      <trkpt lat="45.90243" lon="4.61208">
        <ele>304.8</ele>
        <time>2020-12-13T11:10:56Z</time>
      </trkpt>
      <trkpt lat="45.90241" lon="4.61205">
        <ele>304.7</ele>
        <time>2020-12-13T11:10:57Z</time>
      </trkpt>
      <trkpt lat="45.90241" lon="4.61204">
        <ele>304.7</ele>
        <time>2020-12-13T11:10:58Z</time>
      </trkpt>
      <trkpt lat="45.9024" lon="4.61203">
        <ele>304.7</ele>
        <time>2020-12-13T11:10:59Z</time>
      </trkpt>
      <trkpt lat="45.9024" lon="4.61202">
        <ele>304.6</ele>
        <time>2020-12-13T11:11:00Z</time>
      </trkpt>
      <trkpt lat="45.90239" lon="4.61201">
        <ele>304.6</ele>
        <time>2020-12-13T11:11:01Z</time>
      </trkpt>
      <trkpt lat="45.90238" lon="4.61199">
        <ele>304.6</ele>
        <time>2020-12-13T11:11:02Z</time>
      </trkpt>
      <trkpt lat="45.90238" lon="4.61197">
        <ele>304.5</ele>
        <time>2020-12-13T11:11:03Z</time>
      </trkpt>
      <trkpt lat="45.90237" lon="4.61197">
        <ele>304.5</ele>
        <time>2020-12-13T11:11:04Z</time>
      </trkpt>
      <trkpt lat="45.90237" lon="4.61196">
        <ele>304.5</ele>
        <time>2020-12-13T11:11:05Z</time>
      </trkpt>
      <trkpt lat="45.90236" lon="4.61195">
        <ele>304.4</ele>
        <time>2020-12-13T11:11:06Z</time>
      </trkpt>
      <trkpt lat="45.90236" lon="4.61193">
        <ele>304.4</ele>
        <time>2020-12-13T11:11:07Z</time>
      </trkpt>
      <trkpt lat="45.90235" lon="4.61192">
        <ele>304.4</ele>
        <time>2020-12-13T11:11:08Z</time>
      </trkpt>
      <trkpt lat="45.90234" lon="4.6119">
        <ele>304.3</ele>
        <time>2020-12-13T11:11:09Z</time>
      </trkpt>
      <trkpt lat="45.90233" lon="4.61188">
        <ele>304.3</ele>
        <time>2020-12-13T11:11:10Z</time>
      </trkpt>
      <trkpt lat="45.90232" lon="4.61187">
        <ele>304.2</ele>
        <time>2020-12-13T11:11:11Z</time>
      </trkpt>
      <trkpt lat="45.90232" lon="4.61185">
        <ele>304.2</ele>
        <time>2020-12-13T11:11:12Z</time>
      </trkpt>
      <trkpt lat="45.90231" lon="4.61183">
        <ele>304.2</ele>
        <time>2020-12-13T11:11:13Z</time>
      </trkpt>
      <trkpt lat="45.90231" lon="4.61182">
        <ele>304.2</ele>
        <time>2020-12-13T11:11:14Z</time>
      </trkpt>
      <trkpt lat="45.9023" lon="4.6118">
        <ele>304.1</ele>
        <time>2020-12-13T11:11:15Z</time>
      </trkpt>
      <trkpt lat="45.90229" lon="4.61179">
        <ele>304.1</ele>
        <time>2020-12-13T11:11:16Z</time>
      </trkpt>
      <trkpt lat="45.90228" lon="4.61177">
        <ele>304.1</ele>
        <time>2020-12-13T11:11:17Z</time>
      </trkpt>
      <trkpt lat="45.90228" lon="4.61176">
        <ele>304.1</ele>
        <time>2020-12-13T11:11:18Z</time>
      </trkpt>
      <trkpt lat="45.90227" lon="4.61174">
        <ele>304</ele>
        <time>2020-12-13T11:11:19Z</time>
      </trkpt>
      <trkpt lat="45.90226" lon="4.61173">
        <ele>304</ele>
        <time>2020-12-13T11:11:20Z</time>
      </trkpt>
      <trkpt lat="45.90226" lon="4.61172">
        <ele>304</ele>
        <time>2020-12-13T11:11:21Z</time>
      </trkpt>
      <trkpt lat="45.90225" lon="4.6117">
        <ele>304</ele>
        <time>2020-12-13T11:11:22Z</time>
      </trkpt>
      <trkpt lat="45.90225" lon="4.61169">
        <ele>304</ele>
        <time>2020-12-13T11:11:23Z</time>
      </trkpt>
      <trkpt lat="45.90224" lon="4.61167">
        <ele>303.9</ele>
        <time>2020-12-13T11:11:24Z</time>
      </trkpt>
      <trkpt lat="45.90223" lon="4.61165">
        <ele>303.9</ele>
        <time>2020-12-13T11:11:25Z</time>
      </trkpt>
      <trkpt lat="45.90223" lon="4.61164">
        <ele>303.9</ele>
        <time>2020-12-13T11:11:26Z</time>
      </trkpt>
      <trkpt lat="45.90221" lon="4.61161">
        <ele>303.9</ele>
        <time>2020-12-13T11:11:27Z</time>
      </trkpt>
      <trkpt lat="45.90221" lon="4.6116">
        <ele>303.9</ele>
        <time>2020-12-13T11:11:28Z</time>
      </trkpt>
      <trkpt lat="45.9022" lon="4.61159">
        <ele>303.9</ele>
        <time>2020-12-13T11:11:29Z</time>
      </trkpt>
      <trkpt lat="45.90218" lon="4.61157">
        <ele>303.9</ele>
        <time>2020-12-13T11:11:30Z</time>
      </trkpt>
      <trkpt lat="45.90218" lon="4.61156">
        <ele>303.9</ele>
        <time>2020-12-13T11:11:31Z</time>
      </trkpt>
      <trkpt lat="45.90217" lon="4.61156">
        <ele>303.9</ele>
        <time>2020-12-13T11:11:32Z</time>
      </trkpt>
      <trkpt lat="45.90217" lon="4.61155">
        <ele>303.9</ele>
        <time>2020-12-13T11:11:33Z</time>
      </trkpt>
      <trkpt lat="45.90216" lon="4.61154">
        <ele>303.9</ele>
        <time>2020-12-13T11:11:34Z</time>
      </trkpt>
      <trkpt lat="45.90216" lon="4.61153">
        <ele>303.9</ele>
        <time>2020-12-13T11:11:35Z</time>
      </trkpt>
      <trkpt lat="45.90215" lon="4.61152">
        <ele>303.9</ele>
        <time>2020-12-13T11:11:36Z</time>
      </trkpt>
      <trkpt lat="45.90214" lon="4.6115">
        <ele>303.9</ele>
        <time>2020-12-13T11:11:37Z</time>
      </trkpt>
      <trkpt lat="45.90213" lon="4.61149">
        <ele>303.9</ele>
        <time>2020-12-13T11:11:38Z</time>
      </trkpt>
      <trkpt lat="45.90212" lon="4.61147">
        <ele>303.9</ele>
        <time>2020-12-13T11:11:40Z</time>
      </trkpt>
      <trkpt lat="45.90212" lon="4.61146">
        <ele>304</ele>
        <time>2020-12-13T11:11:41Z</time>
      </trkpt>
      <trkpt lat="45.90211" lon="4.61145">
        <ele>304</ele>
        <time>2020-12-13T11:11:42Z</time>
      </trkpt>
      <trkpt lat="45.9021" lon="4.61142">
        <ele>304</ele>
        <time>2020-12-13T11:11:43Z</time>
      </trkpt>
      <trkpt lat="45.90209" lon="4.61141">
        <ele>304</ele>
        <time>2020-12-13T11:11:44Z</time>
      </trkpt>
      <trkpt lat="45.90207" lon="4.61137">
        <ele>304</ele>
        <time>2020-12-13T11:11:45Z</time>
      </trkpt>
      <trkpt lat="45.90206" lon="4.61137">
        <ele>304</ele>
        <time>2020-12-13T11:11:46Z</time>
      </trkpt>
      <trkpt lat="45.90205" lon="4.61135">
        <ele>304</ele>
        <time>2020-12-13T11:11:47Z</time>
      </trkpt>
      <trkpt lat="45.90204" lon="4.61134">
        <ele>304.1</ele>
        <time>2020-12-13T11:11:48Z</time>
      </trkpt>
      <trkpt lat="45.90204" lon="4.61133">
        <ele>304.1</ele>
        <time>2020-12-13T11:11:49Z</time>
      </trkpt>
      <trkpt lat="45.90203" lon="4.61131">
        <ele>304.1</ele>
        <time>2020-12-13T11:11:50Z</time>
      </trkpt>
      <trkpt lat="45.90202" lon="4.6113">
        <ele>304.1</ele>
        <time>2020-12-13T11:11:51Z</time>
      </trkpt>
      <trkpt lat="45.90201" lon="4.61129">
        <ele>304.1</ele>
        <time>2020-12-13T11:11:52Z</time>
      </trkpt>
      <trkpt lat="45.902" lon="4.61127">
        <ele>304.1</ele>
        <time>2020-12-13T11:11:53Z</time>
      </trkpt>
      <trkpt lat="45.902" lon="4.61125">
        <ele>304.1</ele>
        <time>2020-12-13T11:11:54Z</time>
      </trkpt>
      <trkpt lat="45.90199" lon="4.61124">
        <ele>304.2</ele>
        <time>2020-12-13T11:11:55Z</time>
      </trkpt>
      <trkpt lat="45.90199" lon="4.61123">
        <ele>304.2</ele>
        <time>2020-12-13T11:11:56Z</time>
      </trkpt>
      <trkpt lat="45.90198" lon="4.61121">
        <ele>304.2</ele>
        <time>2020-12-13T11:11:57Z</time>
      </trkpt>
      <trkpt lat="45.90197" lon="4.6112">
        <ele>304.2</ele>
        <time>2020-12-13T11:11:58Z</time>
      </trkpt>
      <trkpt lat="45.90196" lon="4.61118">
        <ele>304.2</ele>
        <time>2020-12-13T11:11:59Z</time>
      </trkpt>
      <trkpt lat="45.90195" lon="4.61116">
        <ele>304.2</ele>
        <time>2020-12-13T11:12:00Z</time>
      </trkpt>
      <trkpt lat="45.90194" lon="4.61115">
        <ele>304.2</ele>
        <time>2020-12-13T11:12:01Z</time>
      </trkpt>
      <trkpt lat="45.90193" lon="4.61114">
        <ele>304.3</ele>
        <time>2020-12-13T11:12:02Z</time>
      </trkpt>
      <trkpt lat="45.90192" lon="4.61113">
        <ele>304.3</ele>
        <time>2020-12-13T11:12:03Z</time>
      </trkpt>
      <trkpt lat="45.90192" lon="4.61111">
        <ele>304.3</ele>
        <time>2020-12-13T11:12:04Z</time>
      </trkpt>
      <trkpt lat="45.90191" lon="4.6111">
        <ele>304.3</ele>
        <time>2020-12-13T11:12:05Z</time>
      </trkpt>
      <trkpt lat="45.9019" lon="4.61107">
        <ele>304.3</ele>
        <time>2020-12-13T11:12:06Z</time>
      </trkpt>
      <trkpt lat="45.90189" lon="4.61107">
        <ele>304.3</ele>
        <time>2020-12-13T11:12:07Z</time>
      </trkpt>
      <trkpt lat="45.90188" lon="4.61106">
        <ele>304.3</ele>
        <time>2020-12-13T11:12:08Z</time>
      </trkpt>
      <trkpt lat="45.90188" lon="4.61104">
        <ele>304.3</ele>
        <time>2020-12-13T11:12:09Z</time>
      </trkpt>
      <trkpt lat="45.90187" lon="4.61102">
        <ele>304.3</ele>
        <time>2020-12-13T11:12:10Z</time>
      </trkpt>
      <trkpt lat="45.90185" lon="4.611">
        <ele>304.4</ele>
        <time>2020-12-13T11:12:11Z</time>
      </trkpt>
      <trkpt lat="45.90185" lon="4.61099">
        <ele>304.4</ele>
        <time>2020-12-13T11:12:12Z</time>
      </trkpt>
      <trkpt lat="45.90184" lon="4.61098">
        <ele>304.4</ele>
        <time>2020-12-13T11:12:13Z</time>
      </trkpt>
      <trkpt lat="45.90183" lon="4.61095">
        <ele>304.4</ele>
        <time>2020-12-13T11:12:14Z</time>
      </trkpt>
      <trkpt lat="45.90182" lon="4.61094">
        <ele>304.4</ele>
        <time>2020-12-13T11:12:15Z</time>
      </trkpt>
      <trkpt lat="45.90182" lon="4.61093">
        <ele>304.4</ele>
        <time>2020-12-13T11:12:16Z</time>
      </trkpt>
      <trkpt lat="45.90181" lon="4.61093">
        <ele>304.4</ele>
        <time>2020-12-13T11:12:17Z</time>
      </trkpt>
      <trkpt lat="45.90179" lon="4.61092">
        <ele>304.4</ele>
        <time>2020-12-13T11:12:18Z</time>
      </trkpt>
      <trkpt lat="45.90178" lon="4.61093">
        <ele>304.4</ele>
        <time>2020-12-13T11:12:19Z</time>
      </trkpt>
      <trkpt lat="45.90177" lon="4.61093">
        <ele>304.4</ele>
        <time>2020-12-13T11:12:20Z</time>
      </trkpt>
      <trkpt lat="45.90175" lon="4.61092">
        <ele>304.2</ele>
        <time>2020-12-13T11:12:21Z</time>
      </trkpt>
      <trkpt lat="45.90174" lon="4.61092">
        <ele>304.1</ele>
        <time>2020-12-13T11:12:22Z</time>
      </trkpt>
      <trkpt lat="45.90173" lon="4.61093">
        <ele>304.1</ele>
        <time>2020-12-13T11:12:23Z</time>
      </trkpt>
      <trkpt lat="45.90171" lon="4.61094">
        <ele>304</ele>
        <time>2020-12-13T11:12:24Z</time>
      </trkpt>
      <trkpt lat="45.9017" lon="4.61095">
        <ele>303.9</ele>
        <time>2020-12-13T11:12:25Z</time>
      </trkpt>
      <trkpt lat="45.90169" lon="4.61095">
        <ele>303.8</ele>
        <time>2020-12-13T11:12:26Z</time>
      </trkpt>
      <trkpt lat="45.90167" lon="4.61096">
        <ele>303.7</ele>
        <time>2020-12-13T11:12:27Z</time>
      </trkpt>
      <trkpt lat="45.90166" lon="4.61097">
        <ele>303.7</ele>
        <time>2020-12-13T11:12:28Z</time>
      </trkpt>
      <trkpt lat="45.90166" lon="4.61098">
        <ele>303.6</ele>
        <time>2020-12-13T11:12:29Z</time>
      </trkpt>
      <trkpt lat="45.90164" lon="4.61098">
        <ele>303.5</ele>
        <time>2020-12-13T11:12:30Z</time>
      </trkpt>
      <trkpt lat="45.90164" lon="4.61099">
        <ele>303.5</ele>
        <time>2020-12-13T11:12:31Z</time>
      </trkpt>
      <trkpt lat="45.90163" lon="4.611">
        <ele>303.5</ele>
        <time>2020-12-13T11:12:32Z</time>
      </trkpt>
      <trkpt lat="45.90162" lon="4.61101">
        <ele>303.4</ele>
        <time>2020-12-13T11:12:33Z</time>
      </trkpt>
      <trkpt lat="45.9016" lon="4.61103">
        <ele>303.3</ele>
        <time>2020-12-13T11:12:34Z</time>
      </trkpt>
      <trkpt lat="45.90159" lon="4.61103">
        <ele>303.2</ele>
        <time>2020-12-13T11:12:35Z</time>
      </trkpt>
      <trkpt lat="45.90157" lon="4.61105">
        <ele>303.2</ele>
        <time>2020-12-13T11:12:36Z</time>
      </trkpt>
      <trkpt lat="45.90157" lon="4.61106">
        <ele>303.1</ele>
        <time>2020-12-13T11:12:37Z</time>
      </trkpt>
      <trkpt lat="45.90156" lon="4.61107">
        <ele>303.1</ele>
        <time>2020-12-13T11:12:38Z</time>
      </trkpt>
      <trkpt lat="45.90155" lon="4.61108">
        <ele>303</ele>
        <time>2020-12-13T11:12:39Z</time>
      </trkpt>
      <trkpt lat="45.90154" lon="4.61109">
        <ele>302.9</ele>
        <time>2020-12-13T11:12:40Z</time>
      </trkpt>
      <trkpt lat="45.90152" lon="4.61111">
        <ele>302.9</ele>
        <time>2020-12-13T11:12:41Z</time>
      </trkpt>
      <trkpt lat="45.90151" lon="4.61111">
        <ele>302.8</ele>
        <time>2020-12-13T11:12:42Z</time>
      </trkpt>
      <trkpt lat="45.90151" lon="4.61112">
        <ele>302.8</ele>
        <time>2020-12-13T11:12:43Z</time>
      </trkpt>
      <trkpt lat="45.90149" lon="4.61115">
        <ele>302.7</ele>
        <time>2020-12-13T11:12:44Z</time>
      </trkpt>
      <trkpt lat="45.90148" lon="4.61115">
        <ele>302.6</ele>
        <time>2020-12-13T11:12:45Z</time>
      </trkpt>
      <trkpt lat="45.90148" lon="4.61116">
        <ele>302.6</ele>
        <time>2020-12-13T11:12:46Z</time>
      </trkpt>
      <trkpt lat="45.90146" lon="4.61117">
        <ele>302.5</ele>
        <time>2020-12-13T11:12:47Z</time>
      </trkpt>
      <trkpt lat="45.90145" lon="4.61118">
        <ele>302.5</ele>
        <time>2020-12-13T11:12:48Z</time>
      </trkpt>
      <trkpt lat="45.90143" lon="4.6112">
        <ele>302.4</ele>
        <time>2020-12-13T11:12:49Z</time>
      </trkpt>
      <trkpt lat="45.90141" lon="4.6112">
        <ele>302.3</ele>
        <time>2020-12-13T11:12:50Z</time>
      </trkpt>
      <trkpt lat="45.9014" lon="4.61121">
        <ele>302.3</ele>
        <time>2020-12-13T11:12:51Z</time>
      </trkpt>
      <trkpt lat="45.9014" lon="4.61122">
        <ele>302.2</ele>
        <time>2020-12-13T11:12:52Z</time>
      </trkpt>
      <trkpt lat="45.90139" lon="4.61123">
        <ele>302.2</ele>
        <time>2020-12-13T11:12:53Z</time>
      </trkpt>
      <trkpt lat="45.90138" lon="4.61124">
        <ele>302.1</ele>
        <time>2020-12-13T11:12:54Z</time>
      </trkpt>
      <trkpt lat="45.90138" lon="4.61125">
        <ele>302.1</ele>
        <time>2020-12-13T11:12:55Z</time>
      </trkpt>
      <trkpt lat="45.90137" lon="4.61126">
        <ele>302.1</ele>
        <time>2020-12-13T11:12:56Z</time>
      </trkpt>
      <trkpt lat="45.90137" lon="4.61127">
        <ele>302</ele>
        <time>2020-12-13T11:12:57Z</time>
      </trkpt>
      <trkpt lat="45.90135" lon="4.61129">
        <ele>301.9</ele>
        <time>2020-12-13T11:12:58Z</time>
      </trkpt>
      <trkpt lat="45.90134" lon="4.6113">
        <ele>301.9</ele>
        <time>2020-12-13T11:12:59Z</time>
      </trkpt>
      <trkpt lat="45.90133" lon="4.61132">
        <ele>301.8</ele>
        <time>2020-12-13T11:13:00Z</time>
      </trkpt>
      <trkpt lat="45.90132" lon="4.61133">
        <ele>301.8</ele>
        <time>2020-12-13T11:13:01Z</time>
      </trkpt>
      <trkpt lat="45.90131" lon="4.61135">
        <ele>301.7</ele>
        <time>2020-12-13T11:13:02Z</time>
      </trkpt>
      <trkpt lat="45.9013" lon="4.61136">
        <ele>301.7</ele>
        <time>2020-12-13T11:13:03Z</time>
      </trkpt>
      <trkpt lat="45.9013" lon="4.61137">
        <ele>301.6</ele>
        <time>2020-12-13T11:13:04Z</time>
      </trkpt>
      <trkpt lat="45.90129" lon="4.61138">
        <ele>301.6</ele>
        <time>2020-12-13T11:13:05Z</time>
      </trkpt>
      <trkpt lat="45.90127" lon="4.6114">
        <ele>301.5</ele>
        <time>2020-12-13T11:13:06Z</time>
      </trkpt>
      <trkpt lat="45.90127" lon="4.61141">
        <ele>301.5</ele>
        <time>2020-12-13T11:13:07Z</time>
      </trkpt>
      <trkpt lat="45.90127" lon="4.61142">
        <ele>301.4</ele>
        <time>2020-12-13T11:13:08Z</time>
      </trkpt>
      <trkpt lat="45.90125" lon="4.61144">
        <ele>301.4</ele>
        <time>2020-12-13T11:13:09Z</time>
      </trkpt>
      <trkpt lat="45.90125" lon="4.61144">
        <ele>301.3</ele>
        <time>2020-12-13T11:13:10Z</time>
      </trkpt>
      <trkpt lat="45.90124" lon="4.61145">
        <ele>301.3</ele>
        <time>2020-12-13T11:13:11Z</time>
      </trkpt>
      <trkpt lat="45.90123" lon="4.61148">
        <ele>301.2</ele>
        <time>2020-12-13T11:13:12Z</time>
      </trkpt>
      <trkpt lat="45.90123" lon="4.61149">
        <ele>301.2</ele>
        <time>2020-12-13T11:13:13Z</time>
      </trkpt>
      <trkpt lat="45.90122" lon="4.6115">
        <ele>301.2</ele>
        <time>2020-12-13T11:13:14Z</time>
      </trkpt>
      <trkpt lat="45.90121" lon="4.61152">
        <ele>301.1</ele>
        <time>2020-12-13T11:13:15Z</time>
      </trkpt>
      <trkpt lat="45.9012" lon="4.61153">
        <ele>301</ele>
        <time>2020-12-13T11:13:16Z</time>
      </trkpt>
      <trkpt lat="45.9012" lon="4.61155">
        <ele>301</ele>
        <time>2020-12-13T11:13:17Z</time>
      </trkpt>
      <trkpt lat="45.90119" lon="4.61156">
        <ele>301</ele>
        <time>2020-12-13T11:13:18Z</time>
      </trkpt>
      <trkpt lat="45.90118" lon="4.61157">
        <ele>300.9</ele>
        <time>2020-12-13T11:13:19Z</time>
      </trkpt>
      <trkpt lat="45.90118" lon="4.61159">
        <ele>300.9</ele>
        <time>2020-12-13T11:13:20Z</time>
      </trkpt>
      <trkpt lat="45.90117" lon="4.6116">
        <ele>300.8</ele>
        <time>2020-12-13T11:13:21Z</time>
      </trkpt>
      <trkpt lat="45.90117" lon="4.61162">
        <ele>300.8</ele>
        <time>2020-12-13T11:13:22Z</time>
      </trkpt>
      <trkpt lat="45.90115" lon="4.61165">
        <ele>300.7</ele>
        <time>2020-12-13T11:13:23Z</time>
      </trkpt>
      <trkpt lat="45.90115" lon="4.61165">
        <ele>300.7</ele>
        <time>2020-12-13T11:13:24Z</time>
      </trkpt>
      <trkpt lat="45.90114" lon="4.61166">
        <ele>300.7</ele>
        <time>2020-12-13T11:13:25Z</time>
      </trkpt>
      <trkpt lat="45.90113" lon="4.61169">
        <ele>300.6</ele>
        <time>2020-12-13T11:13:26Z</time>
      </trkpt>
      <trkpt lat="45.90112" lon="4.6117">
        <ele>300.6</ele>
        <time>2020-12-13T11:13:27Z</time>
      </trkpt>
      <trkpt lat="45.90112" lon="4.61171">
        <ele>300.5</ele>
        <time>2020-12-13T11:13:28Z</time>
      </trkpt>
      <trkpt lat="45.90111" lon="4.61173">
        <ele>300.5</ele>
        <time>2020-12-13T11:13:29Z</time>
      </trkpt>
      <trkpt lat="45.9011" lon="4.61174">
        <ele>300.5</ele>
        <time>2020-12-13T11:13:30Z</time>
      </trkpt>
      <trkpt lat="45.90109" lon="4.61177">
        <ele>300.4</ele>
        <time>2020-12-13T11:13:31Z</time>
      </trkpt>
      <trkpt lat="45.90109" lon="4.61178">
        <ele>300.4</ele>
        <time>2020-12-13T11:13:32Z</time>
      </trkpt>
      <trkpt lat="45.90109" lon="4.61178">
        <ele>300.4</ele>
        <time>2020-12-13T11:13:33Z</time>
      </trkpt>
      <trkpt lat="45.90108" lon="4.61179">
        <ele>300.4</ele>
        <time>2020-12-13T11:13:34Z</time>
      </trkpt>
      <trkpt lat="45.90108" lon="4.61181">
        <ele>300.3</ele>
        <time>2020-12-13T11:13:35Z</time>
      </trkpt>
      <trkpt lat="45.90108" lon="4.61181">
        <ele>300.3</ele>
        <time>2020-12-13T11:13:36Z</time>
      </trkpt>
      <trkpt lat="45.90108" lon="4.61183">
        <ele>300.3</ele>
        <time>2020-12-13T11:13:37Z</time>
      </trkpt>
      <trkpt lat="45.90106" lon="4.61184">
        <ele>300.2</ele>
        <time>2020-12-13T11:13:38Z</time>
      </trkpt>
      <trkpt lat="45.90105" lon="4.61185">
        <ele>300.2</ele>
        <time>2020-12-13T11:13:39Z</time>
      </trkpt>
      <trkpt lat="45.90102" lon="4.61188">
        <ele>300.1</ele>
        <time>2020-12-13T11:13:40Z</time>
      </trkpt>
      <trkpt lat="45.90101" lon="4.61188">
        <ele>300.1</ele>
        <time>2020-12-13T11:13:41Z</time>
      </trkpt>
      <trkpt lat="45.90101" lon="4.61189">
        <ele>300.1</ele>
        <time>2020-12-13T11:13:42Z</time>
      </trkpt>
      <trkpt lat="45.901" lon="4.61191">
        <ele>300</ele>
        <time>2020-12-13T11:13:43Z</time>
      </trkpt>
      <trkpt lat="45.90099" lon="4.61192">
        <ele>300</ele>
        <time>2020-12-13T11:13:44Z</time>
      </trkpt>
      <trkpt lat="45.90098" lon="4.61194">
        <ele>300</ele>
        <time>2020-12-13T11:13:46Z</time>
      </trkpt>
      <trkpt lat="45.90097" lon="4.61194">
        <ele>300</ele>
        <time>2020-12-13T11:13:47Z</time>
      </trkpt>
      <trkpt lat="45.90096" lon="4.61195">
        <ele>299.9</ele>
        <time>2020-12-13T11:13:48Z</time>
      </trkpt>
      <trkpt lat="45.90095" lon="4.61196">
        <ele>299.9</ele>
        <time>2020-12-13T11:13:49Z</time>
      </trkpt>
      <trkpt lat="45.90093" lon="4.61198">
        <ele>299.9</ele>
        <time>2020-12-13T11:13:50Z</time>
      </trkpt>
      <trkpt lat="45.90092" lon="4.61199">
        <ele>299.8</ele>
        <time>2020-12-13T11:13:51Z</time>
      </trkpt>
      <trkpt lat="45.90092" lon="4.612">
        <ele>299.8</ele>
        <time>2020-12-13T11:13:52Z</time>
      </trkpt>
      <trkpt lat="45.90091" lon="4.61201">
        <ele>299.8</ele>
        <time>2020-12-13T11:13:53Z</time>
      </trkpt>
      <trkpt lat="45.9009" lon="4.61201">
        <ele>299.8</ele>
        <time>2020-12-13T11:13:54Z</time>
      </trkpt>
      <trkpt lat="45.90088" lon="4.61202">
        <ele>299.7</ele>
        <time>2020-12-13T11:13:55Z</time>
      </trkpt>
      <trkpt lat="45.90087" lon="4.61203">
        <ele>299.7</ele>
        <time>2020-12-13T11:13:56Z</time>
      </trkpt>
      <trkpt lat="45.90087" lon="4.61204">
        <ele>299.7</ele>
        <time>2020-12-13T11:13:57Z</time>
      </trkpt>
      <trkpt lat="45.90086" lon="4.61205">
        <ele>299.6</ele>
        <time>2020-12-13T11:13:58Z</time>
      </trkpt>
      <trkpt lat="45.90085" lon="4.61206">
        <ele>299.6</ele>
        <time>2020-12-13T11:13:59Z</time>
      </trkpt>
      <trkpt lat="45.90084" lon="4.61208">
        <ele>299.6</ele>
        <time>2020-12-13T11:14:00Z</time>
      </trkpt>
      <trkpt lat="45.90082" lon="4.61208">
        <ele>299.5</ele>
        <time>2020-12-13T11:14:01Z</time>
      </trkpt>
      <trkpt lat="45.90081" lon="4.61209">
        <ele>299.5</ele>
        <time>2020-12-13T11:14:02Z</time>
      </trkpt>
      <trkpt lat="45.90078" lon="4.61211">
        <ele>299.4</ele>
        <time>2020-12-13T11:14:03Z</time>
      </trkpt>
      <trkpt lat="45.90077" lon="4.61212">
        <ele>299.4</ele>
        <time>2020-12-13T11:14:04Z</time>
      </trkpt>
      <trkpt lat="45.90076" lon="4.61213">
        <ele>299.4</ele>
        <time>2020-12-13T11:14:05Z</time>
      </trkpt>
      <trkpt lat="45.90074" lon="4.61214">
        <ele>299.3</ele>
        <time>2020-12-13T11:14:06Z</time>
      </trkpt>
      <trkpt lat="45.90073" lon="4.61215">
        <ele>299.3</ele>
        <time>2020-12-13T11:14:07Z</time>
      </trkpt>
      <trkpt lat="45.90072" lon="4.61215">
        <ele>299.3</ele>
        <time>2020-12-13T11:14:08Z</time>
      </trkpt>
      <trkpt lat="45.90072" lon="4.61215">
        <ele>299.3</ele>
        <time>2020-12-13T11:14:09Z</time>
      </trkpt>
      <trkpt lat="45.90071" lon="4.61216">
        <ele>299.2</ele>
        <time>2020-12-13T11:14:10Z</time>
      </trkpt>
      <trkpt lat="45.90068" lon="4.61219">
        <ele>299.1</ele>
        <time>2020-12-13T11:14:11Z</time>
      </trkpt>
      <trkpt lat="45.90067" lon="4.6122">
        <ele>299.1</ele>
        <time>2020-12-13T11:14:12Z</time>
      </trkpt>
      <trkpt lat="45.90065" lon="4.61221">
        <ele>299.1</ele>
        <time>2020-12-13T11:14:13Z</time>
      </trkpt>
      <trkpt lat="45.90064" lon="4.61221">
        <ele>299</ele>
        <time>2020-12-13T11:14:14Z</time>
      </trkpt>
      <trkpt lat="45.90064" lon="4.61222">
        <ele>299</ele>
        <time>2020-12-13T11:14:15Z</time>
      </trkpt>
      <trkpt lat="45.90062" lon="4.61222">
        <ele>299</ele>
        <time>2020-12-13T11:14:16Z</time>
      </trkpt>
      <trkpt lat="45.9006" lon="4.61223">
        <ele>298.9</ele>
        <time>2020-12-13T11:14:17Z</time>
      </trkpt>
      <trkpt lat="45.90059" lon="4.61223">
        <ele>298.9</ele>
        <time>2020-12-13T11:14:18Z</time>
      </trkpt>
      <trkpt lat="45.90057" lon="4.61225">
        <ele>298.9</ele>
        <time>2020-12-13T11:14:19Z</time>
      </trkpt>
      <trkpt lat="45.90056" lon="4.61226">
        <ele>298.8</ele>
        <time>2020-12-13T11:14:20Z</time>
      </trkpt>
      <trkpt lat="45.90055" lon="4.61226">
        <ele>298.8</ele>
        <time>2020-12-13T11:14:21Z</time>
      </trkpt>
      <trkpt lat="45.90054" lon="4.61228">
        <ele>298.8</ele>
        <time>2020-12-13T11:14:22Z</time>
      </trkpt>
      <trkpt lat="45.90053" lon="4.61229">
        <ele>298.8</ele>
        <time>2020-12-13T11:14:23Z</time>
      </trkpt>
      <trkpt lat="45.90053" lon="4.6123">
        <ele>298.7</ele>
        <time>2020-12-13T11:14:24Z</time>
      </trkpt>
      <trkpt lat="45.90051" lon="4.61232">
        <ele>298.7</ele>
        <time>2020-12-13T11:14:25Z</time>
      </trkpt>
      <trkpt lat="45.9005" lon="4.61232">
        <ele>298.7</ele>
        <time>2020-12-13T11:14:26Z</time>
      </trkpt>
      <trkpt lat="45.90049" lon="4.61233">
        <ele>298.7</ele>
        <time>2020-12-13T11:14:27Z</time>
      </trkpt>
      <trkpt lat="45.90048" lon="4.61235">
        <ele>298.6</ele>
        <time>2020-12-13T11:14:28Z</time>
      </trkpt>
      <trkpt lat="45.90047" lon="4.61236">
        <ele>298.6</ele>
        <time>2020-12-13T11:14:29Z</time>
      </trkpt>
      <trkpt lat="45.90046" lon="4.61237">
        <ele>298.6</ele>
        <time>2020-12-13T11:14:30Z</time>
      </trkpt>
      <trkpt lat="45.90044" lon="4.61239">
        <ele>298.5</ele>
        <time>2020-12-13T11:14:31Z</time>
      </trkpt>
      <trkpt lat="45.90043" lon="4.61239">
        <ele>298.5</ele>
        <time>2020-12-13T11:14:32Z</time>
      </trkpt>
      <trkpt lat="45.90042" lon="4.6124">
        <ele>298.5</ele>
        <time>2020-12-13T11:14:33Z</time>
      </trkpt>
      <trkpt lat="45.90041" lon="4.6124">
        <ele>298.5</ele>
        <time>2020-12-13T11:14:34Z</time>
      </trkpt>
      <trkpt lat="45.90039" lon="4.61241">
        <ele>298.5</ele>
        <time>2020-12-13T11:14:35Z</time>
      </trkpt>
      <trkpt lat="45.90038" lon="4.61242">
        <ele>298.4</ele>
        <time>2020-12-13T11:14:36Z</time>
      </trkpt>
      <trkpt lat="45.90036" lon="4.61243">
        <ele>298.4</ele>
        <time>2020-12-13T11:14:37Z</time>
      </trkpt>
      <trkpt lat="45.90035" lon="4.61244">
        <ele>298.4</ele>
        <time>2020-12-13T11:14:38Z</time>
      </trkpt>
      <trkpt lat="45.90034" lon="4.61245">
        <ele>298.4</ele>
        <time>2020-12-13T11:14:39Z</time>
      </trkpt>
      <trkpt lat="45.90033" lon="4.61246">
        <ele>298.4</ele>
        <time>2020-12-13T11:14:40Z</time>
      </trkpt>
      <trkpt lat="45.90032" lon="4.61247">
        <ele>298.3</ele>
        <time>2020-12-13T11:14:41Z</time>
      </trkpt>
      <trkpt lat="45.90031" lon="4.61247">
        <ele>298.3</ele>
        <time>2020-12-13T11:14:42Z</time>
      </trkpt>
      <trkpt lat="45.9003" lon="4.61248">
        <ele>298.3</ele>
        <time>2020-12-13T11:14:43Z</time>
      </trkpt>
      <trkpt lat="45.90029" lon="4.61248">
        <ele>298.3</ele>
        <time>2020-12-13T11:14:44Z</time>
      </trkpt>
      <trkpt lat="45.90029" lon="4.61249">
        <ele>298.3</ele>
        <time>2020-12-13T11:14:45Z</time>
      </trkpt>
      <trkpt lat="45.90028" lon="4.6125">
        <ele>298.3</ele>
        <time>2020-12-13T11:14:46Z</time>
      </trkpt>
      <trkpt lat="45.90026" lon="4.61251">
        <ele>298.3</ele>
        <time>2020-12-13T11:14:47Z</time>
      </trkpt>
      <trkpt lat="45.90024" lon="4.61253">
        <ele>298.2</ele>
        <time>2020-12-13T11:14:48Z</time>
      </trkpt>
      <trkpt lat="45.90023" lon="4.61254">
        <ele>298.2</ele>
        <time>2020-12-13T11:14:49Z</time>
      </trkpt>
      <trkpt lat="45.90022" lon="4.61255">
        <ele>298.2</ele>
        <time>2020-12-13T11:14:50Z</time>
      </trkpt>
      <trkpt lat="45.9002" lon="4.61256">
        <ele>298.2</ele>
        <time>2020-12-13T11:14:51Z</time>
      </trkpt>
      <trkpt lat="45.90019" lon="4.61256">
        <ele>298.2</ele>
        <time>2020-12-13T11:14:52Z</time>
      </trkpt>
      <trkpt lat="45.90018" lon="4.61257">
        <ele>298.2</ele>
        <time>2020-12-13T11:14:53Z</time>
      </trkpt>
      <trkpt lat="45.90016" lon="4.61259">
        <ele>298.1</ele>
        <time>2020-12-13T11:14:54Z</time>
      </trkpt>
      <trkpt lat="45.90015" lon="4.6126">
        <ele>298.1</ele>
        <time>2020-12-13T11:14:55Z</time>
      </trkpt>
      <trkpt lat="45.90014" lon="4.6126">
        <ele>298.1</ele>
        <time>2020-12-13T11:14:56Z</time>
      </trkpt>
      <trkpt lat="45.90013" lon="4.61262">
        <ele>298.1</ele>
        <time>2020-12-13T11:14:57Z</time>
      </trkpt>
      <trkpt lat="45.90012" lon="4.61263">
        <ele>298.1</ele>
        <time>2020-12-13T11:14:58Z</time>
      </trkpt>
      <trkpt lat="45.90011" lon="4.61263">
        <ele>298.1</ele>
        <time>2020-12-13T11:14:59Z</time>
      </trkpt>
      <trkpt lat="45.9001" lon="4.61264">
        <ele>298.1</ele>
        <time>2020-12-13T11:15:00Z</time>
      </trkpt>
      <trkpt lat="45.90008" lon="4.61265">
        <ele>298</ele>
        <time>2020-12-13T11:15:01Z</time>
      </trkpt>
      <trkpt lat="45.90008" lon="4.61265">
        <ele>298</ele>
        <time>2020-12-13T11:15:02Z</time>
      </trkpt>
      <trkpt lat="45.90006" lon="4.61266">
        <ele>298</ele>
        <time>2020-12-13T11:15:03Z</time>
      </trkpt>
      <trkpt lat="45.90005" lon="4.61267">
        <ele>298</ele>
        <time>2020-12-13T11:15:04Z</time>
      </trkpt>
      <trkpt lat="45.90004" lon="4.61267">
        <ele>298</ele>
        <time>2020-12-13T11:15:05Z</time>
      </trkpt>
      <trkpt lat="45.90002" lon="4.61267">
        <ele>298</ele>
        <time>2020-12-13T11:15:06Z</time>
      </trkpt>
      <trkpt lat="45.90002" lon="4.61267">
        <ele>298</ele>
        <time>2020-12-13T11:15:07Z</time>
      </trkpt>
      <trkpt lat="45.89998" lon="4.61268">
        <ele>298</ele>
        <time>2020-12-13T11:15:08Z</time>
      </trkpt>
      <trkpt lat="45.89997" lon="4.61269">
        <ele>298</ele>
        <time>2020-12-13T11:15:09Z</time>
      </trkpt>
      <trkpt lat="45.89997" lon="4.61269">
        <ele>298</ele>
        <time>2020-12-13T11:15:10Z</time>
      </trkpt>
      <trkpt lat="45.89997" lon="4.6127">
        <ele>298</ele>
        <time>2020-12-13T11:15:11Z</time>
      </trkpt>
      <trkpt lat="45.89995" lon="4.61271">
        <ele>297.9</ele>
        <time>2020-12-13T11:15:12Z</time>
      </trkpt>
      <trkpt lat="45.89995" lon="4.61271">
        <ele>297.9</ele>
        <time>2020-12-13T11:15:13Z</time>
      </trkpt>
      <trkpt lat="45.89993" lon="4.61272">
        <ele>297.9</ele>
        <time>2020-12-13T11:15:14Z</time>
      </trkpt>
      <trkpt lat="45.89992" lon="4.61274">
        <ele>297.9</ele>
        <time>2020-12-13T11:15:15Z</time>
      </trkpt>
      <trkpt lat="45.89991" lon="4.61275">
        <ele>297.9</ele>
        <time>2020-12-13T11:15:16Z</time>
      </trkpt>
      <trkpt lat="45.89989" lon="4.61276">
        <ele>297.9</ele>
        <time>2020-12-13T11:15:17Z</time>
      </trkpt>
      <trkpt lat="45.89988" lon="4.61276">
        <ele>297.9</ele>
        <time>2020-12-13T11:15:18Z</time>
      </trkpt>
      <trkpt lat="45.89986" lon="4.61277">
        <ele>297.9</ele>
        <time>2020-12-13T11:15:19Z</time>
      </trkpt>
      <trkpt lat="45.89986" lon="4.61278">
        <ele>297.9</ele>
        <time>2020-12-13T11:15:20Z</time>
      </trkpt>
      <trkpt lat="45.89984" lon="4.61278">
        <ele>297.9</ele>
        <time>2020-12-13T11:15:21Z</time>
      </trkpt>
      <trkpt lat="45.89983" lon="4.61278">
        <ele>297.9</ele>
        <time>2020-12-13T11:15:22Z</time>
      </trkpt>
      <trkpt lat="45.89982" lon="4.61278">
        <ele>297.9</ele>
        <time>2020-12-13T11:15:23Z</time>
      </trkpt>
      <trkpt lat="45.89981" lon="4.61279">
        <ele>297.9</ele>
        <time>2020-12-13T11:15:24Z</time>
      </trkpt>
      <trkpt lat="45.89978" lon="4.61279">
        <ele>297.8</ele>
        <time>2020-12-13T11:15:25Z</time>
      </trkpt>
      <trkpt lat="45.89977" lon="4.6128">
        <ele>297.8</ele>
        <time>2020-12-13T11:15:26Z</time>
      </trkpt>
      <trkpt lat="45.89976" lon="4.6128">
        <ele>297.8</ele>
        <time>2020-12-13T11:15:27Z</time>
      </trkpt>
      <trkpt lat="45.89974" lon="4.6128">
        <ele>297.8</ele>
        <time>2020-12-13T11:15:28Z</time>
      </trkpt>
      <trkpt lat="45.89974" lon="4.61281">
        <ele>297.8</ele>
        <time>2020-12-13T11:15:29Z</time>
      </trkpt>
      <trkpt lat="45.89973" lon="4.61281">
        <ele>297.8</ele>
        <time>2020-12-13T11:15:30Z</time>
      </trkpt>
      <trkpt lat="45.89972" lon="4.61282">
        <ele>297.8</ele>
        <time>2020-12-13T11:15:31Z</time>
      </trkpt>
      <trkpt lat="45.89969" lon="4.61282">
        <ele>297.8</ele>
        <time>2020-12-13T11:15:32Z</time>
      </trkpt>
      <trkpt lat="45.89969" lon="4.61282">
        <ele>297.8</ele>
        <time>2020-12-13T11:15:33Z</time>
      </trkpt>
      <trkpt lat="45.89967" lon="4.61282">
        <ele>297.8</ele>
        <time>2020-12-13T11:15:34Z</time>
      </trkpt>
      <trkpt lat="45.89966" lon="4.61283">
        <ele>297.8</ele>
        <time>2020-12-13T11:15:35Z</time>
      </trkpt>
      <trkpt lat="45.89963" lon="4.61283">
        <ele>297.8</ele>
        <time>2020-12-13T11:15:36Z</time>
      </trkpt>
      <trkpt lat="45.89963" lon="4.61283">
        <ele>297.8</ele>
        <time>2020-12-13T11:15:37Z</time>
      </trkpt>
      <trkpt lat="45.89962" lon="4.61283">
        <ele>297.8</ele>
        <time>2020-12-13T11:15:38Z</time>
      </trkpt>
      <trkpt lat="45.89959" lon="4.61283">
        <ele>297.8</ele>
        <time>2020-12-13T11:15:39Z</time>
      </trkpt>
      <trkpt lat="45.89958" lon="4.61283">
        <ele>297.8</ele>
        <time>2020-12-13T11:15:40Z</time>
      </trkpt>
      <trkpt lat="45.89957" lon="4.61283">
        <ele>297.8</ele>
        <time>2020-12-13T11:15:41Z</time>
      </trkpt>
      <trkpt lat="45.89955" lon="4.61283">
        <ele>297.8</ele>
        <time>2020-12-13T11:15:42Z</time>
      </trkpt>
      <trkpt lat="45.89954" lon="4.61284">
        <ele>297.8</ele>
        <time>2020-12-13T11:15:43Z</time>
      </trkpt>
      <trkpt lat="45.89952" lon="4.61284">
        <ele>297.9</ele>
        <time>2020-12-13T11:15:44Z</time>
      </trkpt>
      <trkpt lat="45.89951" lon="4.61284">
        <ele>297.9</ele>
        <time>2020-12-13T11:15:45Z</time>
      </trkpt>
      <trkpt lat="45.89949" lon="4.61285">
        <ele>297.9</ele>
        <time>2020-12-13T11:15:46Z</time>
      </trkpt>
      <trkpt lat="45.89948" lon="4.61286">
        <ele>297.9</ele>
        <time>2020-12-13T11:15:47Z</time>
      </trkpt>
      <trkpt lat="45.89947" lon="4.61286">
        <ele>297.9</ele>
        <time>2020-12-13T11:15:48Z</time>
      </trkpt>
      <trkpt lat="45.89945" lon="4.61286">
        <ele>297.9</ele>
        <time>2020-12-13T11:15:49Z</time>
      </trkpt>
      <trkpt lat="45.89944" lon="4.61286">
        <ele>297.9</ele>
        <time>2020-12-13T11:15:50Z</time>
      </trkpt>
      <trkpt lat="45.89943" lon="4.61287">
        <ele>297.9</ele>
        <time>2020-12-13T11:15:52Z</time>
      </trkpt>
      <trkpt lat="45.89942" lon="4.61287">
        <ele>297.9</ele>
        <time>2020-12-13T11:15:53Z</time>
      </trkpt>
      <trkpt lat="45.8994" lon="4.61287">
        <ele>297.9</ele>
        <time>2020-12-13T11:15:54Z</time>
      </trkpt>
      <trkpt lat="45.89939" lon="4.61287">
        <ele>297.9</ele>
        <time>2020-12-13T11:15:55Z</time>
      </trkpt>
      <trkpt lat="45.89937" lon="4.61286">
        <ele>297.9</ele>
        <time>2020-12-13T11:15:56Z</time>
      </trkpt>
      <trkpt lat="45.89936" lon="4.61287">
        <ele>297.9</ele>
        <time>2020-12-13T11:15:57Z</time>
      </trkpt>
      <trkpt lat="45.89934" lon="4.61287">
        <ele>297.9</ele>
        <time>2020-12-13T11:15:58Z</time>
      </trkpt>
      <trkpt lat="45.89933" lon="4.61287">
        <ele>297.9</ele>
        <time>2020-12-13T11:15:59Z</time>
      </trkpt>
      <trkpt lat="45.89932" lon="4.61288">
        <ele>297.9</ele>
        <time>2020-12-13T11:16:00Z</time>
      </trkpt>
      <trkpt lat="45.89931" lon="4.61288">
        <ele>297.9</ele>
        <time>2020-12-13T11:16:01Z</time>
      </trkpt>
      <trkpt lat="45.8993" lon="4.61288">
        <ele>297.9</ele>
        <time>2020-12-13T11:16:02Z</time>
      </trkpt>
      <trkpt lat="45.89928" lon="4.61288">
        <ele>297.9</ele>
        <time>2020-12-13T11:16:03Z</time>
      </trkpt>
      <trkpt lat="45.89926" lon="4.61289">
        <ele>297.9</ele>
        <time>2020-12-13T11:16:04Z</time>
      </trkpt>
      <trkpt lat="45.89925" lon="4.61289">
        <ele>297.9</ele>
        <time>2020-12-13T11:16:05Z</time>
      </trkpt>
      <trkpt lat="45.89924" lon="4.61289">
        <ele>297.9</ele>
        <time>2020-12-13T11:16:06Z</time>
      </trkpt>
      <trkpt lat="45.89922" lon="4.6129">
        <ele>297.9</ele>
        <time>2020-12-13T11:16:07Z</time>
      </trkpt>
      <trkpt lat="45.89922" lon="4.6129">
        <ele>297.9</ele>
        <time>2020-12-13T11:16:08Z</time>
      </trkpt>
      <trkpt lat="45.89921" lon="4.6129">
        <ele>297.9</ele>
        <time>2020-12-13T11:16:09Z</time>
      </trkpt>
      <trkpt lat="45.89919" lon="4.61289">
        <ele>297.9</ele>
        <time>2020-12-13T11:16:10Z</time>
      </trkpt>
      <trkpt lat="45.89917" lon="4.61291">
        <ele>297.9</ele>
        <time>2020-12-13T11:16:11Z</time>
      </trkpt>
      <trkpt lat="45.89915" lon="4.6129">
        <ele>297.9</ele>
        <time>2020-12-13T11:16:12Z</time>
      </trkpt>
      <trkpt lat="45.89914" lon="4.6129">
        <ele>297.9</ele>
        <time>2020-12-13T11:16:13Z</time>
      </trkpt>
      <trkpt lat="45.89913" lon="4.6129">
        <ele>297.9</ele>
        <time>2020-12-13T11:16:14Z</time>
      </trkpt>
      <trkpt lat="45.89912" lon="4.6129">
        <ele>297.9</ele>
        <time>2020-12-13T11:16:15Z</time>
      </trkpt>
      <trkpt lat="45.8991" lon="4.61289">
        <ele>297.9</ele>
        <time>2020-12-13T11:16:16Z</time>
      </trkpt>
      <trkpt lat="45.89909" lon="4.6129">
        <ele>297.9</ele>
        <time>2020-12-13T11:16:17Z</time>
      </trkpt>
      <trkpt lat="45.89908" lon="4.61289">
        <ele>297.9</ele>
        <time>2020-12-13T11:16:18Z</time>
      </trkpt>
      <trkpt lat="45.89906" lon="4.61289">
        <ele>297.9</ele>
        <time>2020-12-13T11:16:19Z</time>
      </trkpt>
      <trkpt lat="45.89905" lon="4.61289">
        <ele>297.9</ele>
        <time>2020-12-13T11:16:20Z</time>
      </trkpt>
      <trkpt lat="45.89903" lon="4.61288">
        <ele>297.9</ele>
        <time>2020-12-13T11:16:21Z</time>
      </trkpt>
      <trkpt lat="45.89901" lon="4.61288">
        <ele>297.9</ele>
        <time>2020-12-13T11:16:22Z</time>
      </trkpt>
      <trkpt lat="45.899" lon="4.61287">
        <ele>297.9</ele>
        <time>2020-12-13T11:16:23Z</time>
      </trkpt>
      <trkpt lat="45.89898" lon="4.61285">
        <ele>297.9</ele>
        <time>2020-12-13T11:16:24Z</time>
      </trkpt>
      <trkpt lat="45.89897" lon="4.61284">
        <ele>297.9</ele>
        <time>2020-12-13T11:16:25Z</time>
      </trkpt>
      <trkpt lat="45.89896" lon="4.61284">
        <ele>297.9</ele>
        <time>2020-12-13T11:16:26Z</time>
      </trkpt>
      <trkpt lat="45.89894" lon="4.61283">
        <ele>297.9</ele>
        <time>2020-12-13T11:16:27Z</time>
      </trkpt>
      <trkpt lat="45.89893" lon="4.61283">
        <ele>297.9</ele>
        <time>2020-12-13T11:16:28Z</time>
      </trkpt>
      <trkpt lat="45.89891" lon="4.61282">
        <ele>297.9</ele>
        <time>2020-12-13T11:16:29Z</time>
      </trkpt>
      <trkpt lat="45.8989" lon="4.61282">
        <ele>297.9</ele>
        <time>2020-12-13T11:16:30Z</time>
      </trkpt>
      <trkpt lat="45.89889" lon="4.61281">
        <ele>297.9</ele>
        <time>2020-12-13T11:16:31Z</time>
      </trkpt>
      <trkpt lat="45.89886" lon="4.6128">
        <ele>297.9</ele>
        <time>2020-12-13T11:16:32Z</time>
      </trkpt>
      <trkpt lat="45.89886" lon="4.61279">
        <ele>297.9</ele>
        <time>2020-12-13T11:16:33Z</time>
      </trkpt>
      <trkpt lat="45.89885" lon="4.61279">
        <ele>297.9</ele>
        <time>2020-12-13T11:16:34Z</time>
      </trkpt>
      <trkpt lat="45.89882" lon="4.61277">
        <ele>297.9</ele>
        <time>2020-12-13T11:16:35Z</time>
      </trkpt>
      <trkpt lat="45.89881" lon="4.61277">
        <ele>297.9</ele>
        <time>2020-12-13T11:16:36Z</time>
      </trkpt>
      <trkpt lat="45.89881" lon="4.61276">
        <ele>297.9</ele>
        <time>2020-12-13T11:16:37Z</time>
      </trkpt>
      <trkpt lat="45.89879" lon="4.61273">
        <ele>297.9</ele>
        <time>2020-12-13T11:16:38Z</time>
      </trkpt>
      <trkpt lat="45.89878" lon="4.61272">
        <ele>297.9</ele>
        <time>2020-12-13T11:16:39Z</time>
      </trkpt>
      <trkpt lat="45.89876" lon="4.61271">
        <ele>297.9</ele>
        <time>2020-12-13T11:16:40Z</time>
      </trkpt>
      <trkpt lat="45.89875" lon="4.61271">
        <ele>297.9</ele>
        <time>2020-12-13T11:16:41Z</time>
      </trkpt>
      <trkpt lat="45.89874" lon="4.61271">
        <ele>297.9</ele>
        <time>2020-12-13T11:16:42Z</time>
      </trkpt>
      <trkpt lat="45.89873" lon="4.61272">
        <ele>297.9</ele>
        <time>2020-12-13T11:16:43Z</time>
      </trkpt>
      <trkpt lat="45.89872" lon="4.61272">
        <ele>297.9</ele>
        <time>2020-12-13T11:16:44Z</time>
      </trkpt>
      <trkpt lat="45.89871" lon="4.6127">
        <ele>297.9</ele>
        <time>2020-12-13T11:16:45Z</time>
      </trkpt>
      <trkpt lat="45.8987" lon="4.6127">
        <ele>297.9</ele>
        <time>2020-12-13T11:16:46Z</time>
      </trkpt>
      <trkpt lat="45.89869" lon="4.61268">
        <ele>297.9</ele>
        <time>2020-12-13T11:16:47Z</time>
      </trkpt>
      <trkpt lat="45.89867" lon="4.61267">
        <ele>297.9</ele>
        <time>2020-12-13T11:16:48Z</time>
      </trkpt>
      <trkpt lat="45.89866" lon="4.61266">
        <ele>297.9</ele>
        <time>2020-12-13T11:16:49Z</time>
      </trkpt>
      <trkpt lat="45.89865" lon="4.61265">
        <ele>297.9</ele>
        <time>2020-12-13T11:16:50Z</time>
      </trkpt>
      <trkpt lat="45.89864" lon="4.61265">
        <ele>297.9</ele>
        <time>2020-12-13T11:16:51Z</time>
      </trkpt>
      <trkpt lat="45.89862" lon="4.61264">
        <ele>297.9</ele>
        <time>2020-12-13T11:16:52Z</time>
      </trkpt>
      <trkpt lat="45.89861" lon="4.61264">
        <ele>297.9</ele>
        <time>2020-12-13T11:16:53Z</time>
      </trkpt>
      <trkpt lat="45.8986" lon="4.61263">
        <ele>297.9</ele>
        <time>2020-12-13T11:16:54Z</time>
      </trkpt>
      <trkpt lat="45.89859" lon="4.61263">
        <ele>297.9</ele>
        <time>2020-12-13T11:16:55Z</time>
      </trkpt>
      <trkpt lat="45.89857" lon="4.61262">
        <ele>297.9</ele>
        <time>2020-12-13T11:16:56Z</time>
      </trkpt>
      <trkpt lat="45.89856" lon="4.61262">
        <ele>297.9</ele>
        <time>2020-12-13T11:16:57Z</time>
      </trkpt>
      <trkpt lat="45.89855" lon="4.61263">
        <ele>297.9</ele>
        <time>2020-12-13T11:16:58Z</time>
      </trkpt>
      <trkpt lat="45.89855" lon="4.61263">
        <ele>297.9</ele>
        <time>2020-12-13T11:16:59Z</time>
      </trkpt>
      <trkpt lat="45.89853" lon="4.61262">
        <ele>297.9</ele>
        <time>2020-12-13T11:17:00Z</time>
      </trkpt>
      <trkpt lat="45.89853" lon="4.61263">
        <ele>297.9</ele>
        <time>2020-12-13T11:17:01Z</time>
      </trkpt>
      <trkpt lat="45.89851" lon="4.61264">
        <ele>297.9</ele>
        <time>2020-12-13T11:17:02Z</time>
      </trkpt>
      <trkpt lat="45.8985" lon="4.61263">
        <ele>297.9</ele>
        <time>2020-12-13T11:17:03Z</time>
      </trkpt>
      <trkpt lat="45.89848" lon="4.61263">
        <ele>297.9</ele>
        <time>2020-12-13T11:17:04Z</time>
      </trkpt>
      <trkpt lat="45.89847" lon="4.61263">
        <ele>297.9</ele>
        <time>2020-12-13T11:17:05Z</time>
      </trkpt>
      <trkpt lat="45.89846" lon="4.61263">
        <ele>297.9</ele>
        <time>2020-12-13T11:17:06Z</time>
      </trkpt>
      <trkpt lat="45.89843" lon="4.61263">
        <ele>297.9</ele>
        <time>2020-12-13T11:17:07Z</time>
      </trkpt>
      <trkpt lat="45.89843" lon="4.61263">
        <ele>297.9</ele>
        <time>2020-12-13T11:17:08Z</time>
      </trkpt>
      <trkpt lat="45.89842" lon="4.61263">
        <ele>297.9</ele>
        <time>2020-12-13T11:17:09Z</time>
      </trkpt>
      <trkpt lat="45.8984" lon="4.61263">
        <ele>297.9</ele>
        <time>2020-12-13T11:17:10Z</time>
      </trkpt>
      <trkpt lat="45.89839" lon="4.61262">
        <ele>297.9</ele>
        <time>2020-12-13T11:17:11Z</time>
      </trkpt>
      <trkpt lat="45.89838" lon="4.61263">
        <ele>297.9</ele>
        <time>2020-12-13T11:17:12Z</time>
      </trkpt>
      <trkpt lat="45.89836" lon="4.61263">
        <ele>297.9</ele>
        <time>2020-12-13T11:17:13Z</time>
      </trkpt>
      <trkpt lat="45.89835" lon="4.61263">
        <ele>297.9</ele>
        <time>2020-12-13T11:17:14Z</time>
      </trkpt>
      <trkpt lat="45.89833" lon="4.61262">
        <ele>297.9</ele>
        <time>2020-12-13T11:17:15Z</time>
      </trkpt>
      <trkpt lat="45.89832" lon="4.61262">
        <ele>297.9</ele>
        <time>2020-12-13T11:17:16Z</time>
      </trkpt>
      <trkpt lat="45.89831" lon="4.61262">
        <ele>297.9</ele>
        <time>2020-12-13T11:17:17Z</time>
      </trkpt>
      <trkpt lat="45.8983" lon="4.61263">
        <ele>297.9</ele>
        <time>2020-12-13T11:17:18Z</time>
      </trkpt>
      <trkpt lat="45.89828" lon="4.61263">
        <ele>297.9</ele>
        <time>2020-12-13T11:17:19Z</time>
      </trkpt>
      <trkpt lat="45.89827" lon="4.61262">
        <ele>297.9</ele>
        <time>2020-12-13T11:17:20Z</time>
      </trkpt>
      <trkpt lat="45.89824" lon="4.61262">
        <ele>297.9</ele>
        <time>2020-12-13T11:17:21Z</time>
      </trkpt>
      <trkpt lat="45.89823" lon="4.61261">
        <ele>297.9</ele>
        <time>2020-12-13T11:17:22Z</time>
      </trkpt>
      <trkpt lat="45.89822" lon="4.61261">
        <ele>297.9</ele>
        <time>2020-12-13T11:17:23Z</time>
      </trkpt>
      <trkpt lat="45.8982" lon="4.61261">
        <ele>297.9</ele>
        <time>2020-12-13T11:17:24Z</time>
      </trkpt>
      <trkpt lat="45.89819" lon="4.61262">
        <ele>297.9</ele>
        <time>2020-12-13T11:17:25Z</time>
      </trkpt>
      <trkpt lat="45.89819" lon="4.61262">
        <ele>297.9</ele>
        <time>2020-12-13T11:17:26Z</time>
      </trkpt>
      <trkpt lat="45.89817" lon="4.61261">
        <ele>297.9</ele>
        <time>2020-12-13T11:17:27Z</time>
      </trkpt>
      <trkpt lat="45.89814" lon="4.6126">
        <ele>297.9</ele>
        <time>2020-12-13T11:17:28Z</time>
      </trkpt>
      <trkpt lat="45.89813" lon="4.6126">
        <ele>297.9</ele>
        <time>2020-12-13T11:17:29Z</time>
      </trkpt>
      <trkpt lat="45.89812" lon="4.6126">
        <ele>297.9</ele>
        <time>2020-12-13T11:17:30Z</time>
      </trkpt>
      <trkpt lat="45.89811" lon="4.61261">
        <ele>297.9</ele>
        <time>2020-12-13T11:17:31Z</time>
      </trkpt>
      <trkpt lat="45.8981" lon="4.61261">
        <ele>297.9</ele>
        <time>2020-12-13T11:17:32Z</time>
      </trkpt>
      <trkpt lat="45.89809" lon="4.61261">
        <ele>297.9</ele>
        <time>2020-12-13T11:17:33Z</time>
      </trkpt>
      <trkpt lat="45.89806" lon="4.61262">
        <ele>297.9</ele>
        <time>2020-12-13T11:17:34Z</time>
      </trkpt>
      <trkpt lat="45.89805" lon="4.61262">
        <ele>297.9</ele>
        <time>2020-12-13T11:17:35Z</time>
      </trkpt>
      <trkpt lat="45.89803" lon="4.61261">
        <ele>297.9</ele>
        <time>2020-12-13T11:17:36Z</time>
      </trkpt>
      <trkpt lat="45.89802" lon="4.61262">
        <ele>297.9</ele>
        <time>2020-12-13T11:17:37Z</time>
      </trkpt>
      <trkpt lat="45.89801" lon="4.61262">
        <ele>298</ele>
        <time>2020-12-13T11:17:38Z</time>
      </trkpt>
      <trkpt lat="45.898" lon="4.61262">
        <ele>298</ele>
        <time>2020-12-13T11:17:39Z</time>
      </trkpt>
      <trkpt lat="45.89798" lon="4.61263">
        <ele>298</ele>
        <time>2020-12-13T11:17:40Z</time>
      </trkpt>
      <trkpt lat="45.89797" lon="4.61264">
        <ele>298</ele>
        <time>2020-12-13T11:17:41Z</time>
      </trkpt>
      <trkpt lat="45.89795" lon="4.61265">
        <ele>298</ele>
        <time>2020-12-13T11:17:42Z</time>
      </trkpt>
      <trkpt lat="45.89794" lon="4.61265">
        <ele>298</ele>
        <time>2020-12-13T11:17:43Z</time>
      </trkpt>
      <trkpt lat="45.89793" lon="4.61265">
        <ele>298</ele>
        <time>2020-12-13T11:17:44Z</time>
      </trkpt>
      <trkpt lat="45.89792" lon="4.61266">
        <ele>298</ele>
        <time>2020-12-13T11:17:45Z</time>
      </trkpt>
      <trkpt lat="45.8979" lon="4.61267">
        <ele>298</ele>
        <time>2020-12-13T11:17:46Z</time>
      </trkpt>
      <trkpt lat="45.89787" lon="4.61267">
        <ele>298</ele>
        <time>2020-12-13T11:17:47Z</time>
      </trkpt>
      <trkpt lat="45.89786" lon="4.61268">
        <ele>298</ele>
        <time>2020-12-13T11:17:48Z</time>
      </trkpt>
      <trkpt lat="45.89786" lon="4.61269">
        <ele>298.1</ele>
        <time>2020-12-13T11:17:49Z</time>
      </trkpt>
      <trkpt lat="45.89784" lon="4.6127">
        <ele>298.1</ele>
        <time>2020-12-13T11:17:50Z</time>
      </trkpt>
      <trkpt lat="45.89783" lon="4.61271">
        <ele>298.1</ele>
        <time>2020-12-13T11:17:51Z</time>
      </trkpt>
      <trkpt lat="45.89783" lon="4.61272">
        <ele>298.1</ele>
        <time>2020-12-13T11:17:52Z</time>
      </trkpt>
      <trkpt lat="45.89782" lon="4.61272">
        <ele>298.1</ele>
        <time>2020-12-13T11:17:53Z</time>
      </trkpt>
      <trkpt lat="45.8978" lon="4.61273">
        <ele>298.1</ele>
        <time>2020-12-13T11:17:54Z</time>
      </trkpt>
      <trkpt lat="45.89779" lon="4.61274">
        <ele>298.1</ele>
        <time>2020-12-13T11:17:55Z</time>
      </trkpt>
      <trkpt lat="45.89778" lon="4.61274">
        <ele>298.1</ele>
        <time>2020-12-13T11:17:56Z</time>
      </trkpt>
      <trkpt lat="45.89776" lon="4.61275">
        <ele>298.1</ele>
        <time>2020-12-13T11:17:58Z</time>
      </trkpt>
      <trkpt lat="45.89775" lon="4.61276">
        <ele>298.2</ele>
        <time>2020-12-13T11:17:59Z</time>
      </trkpt>
      <trkpt lat="45.89774" lon="4.61276">
        <ele>298.2</ele>
        <time>2020-12-13T11:18:00Z</time>
      </trkpt>
      <trkpt lat="45.89772" lon="4.61278">
        <ele>298.2</ele>
        <time>2020-12-13T11:18:01Z</time>
      </trkpt>
      <trkpt lat="45.8977" lon="4.61279">
        <ele>298.2</ele>
        <time>2020-12-13T11:18:02Z</time>
      </trkpt>
      <trkpt lat="45.89769" lon="4.61279">
        <ele>298.2</ele>
        <time>2020-12-13T11:18:03Z</time>
      </trkpt>
      <trkpt lat="45.89768" lon="4.6128">
        <ele>298.2</ele>
        <time>2020-12-13T11:18:04Z</time>
      </trkpt>
      <trkpt lat="45.89767" lon="4.61281">
        <ele>298.2</ele>
        <time>2020-12-13T11:18:05Z</time>
      </trkpt>
      <trkpt lat="45.89766" lon="4.61281">
        <ele>298.2</ele>
        <time>2020-12-13T11:18:06Z</time>
      </trkpt>
      <trkpt lat="45.89765" lon="4.61282">
        <ele>298.2</ele>
        <time>2020-12-13T11:18:07Z</time>
      </trkpt>
      <trkpt lat="45.89763" lon="4.61283">
        <ele>298.2</ele>
        <time>2020-12-13T11:18:08Z</time>
      </trkpt>
      <trkpt lat="45.89762" lon="4.61283">
        <ele>298.2</ele>
        <time>2020-12-13T11:18:09Z</time>
      </trkpt>
      <trkpt lat="45.8976" lon="4.61285">
        <ele>298.3</ele>
        <time>2020-12-13T11:18:10Z</time>
      </trkpt>
      <trkpt lat="45.89759" lon="4.61285">
        <ele>298.3</ele>
        <time>2020-12-13T11:18:11Z</time>
      </trkpt>
      <trkpt lat="45.89758" lon="4.61286">
        <ele>298.3</ele>
        <time>2020-12-13T11:18:12Z</time>
      </trkpt>
      <trkpt lat="45.89757" lon="4.61286">
        <ele>298.3</ele>
        <time>2020-12-13T11:18:13Z</time>
      </trkpt>
      <trkpt lat="45.89755" lon="4.61287">
        <ele>298.3</ele>
        <time>2020-12-13T11:18:14Z</time>
      </trkpt>
      <trkpt lat="45.89755" lon="4.61287">
        <ele>298.3</ele>
        <time>2020-12-13T11:18:15Z</time>
      </trkpt>
      <trkpt lat="45.89754" lon="4.61288">
        <ele>298.3</ele>
        <time>2020-12-13T11:18:16Z</time>
      </trkpt>
      <trkpt lat="45.89753" lon="4.61289">
        <ele>298.3</ele>
        <time>2020-12-13T11:18:17Z</time>
      </trkpt>
      <trkpt lat="45.89749" lon="4.6129">
        <ele>298.3</ele>
        <time>2020-12-13T11:18:18Z</time>
      </trkpt>
      <trkpt lat="45.89748" lon="4.61291">
        <ele>298.3</ele>
        <time>2020-12-13T11:18:19Z</time>
      </trkpt>
      <trkpt lat="45.89747" lon="4.61291">
        <ele>298.3</ele>
        <time>2020-12-13T11:18:20Z</time>
      </trkpt>
      <trkpt lat="45.89746" lon="4.61292">
        <ele>298.3</ele>
        <time>2020-12-13T11:18:21Z</time>
      </trkpt>
      <trkpt lat="45.89744" lon="4.61292">
        <ele>298.3</ele>
        <time>2020-12-13T11:18:22Z</time>
      </trkpt>
      <trkpt lat="45.89743" lon="4.61293">
        <ele>298.3</ele>
        <time>2020-12-13T11:18:23Z</time>
      </trkpt>
      <trkpt lat="45.89742" lon="4.61293">
        <ele>298.3</ele>
        <time>2020-12-13T11:18:24Z</time>
      </trkpt>
      <trkpt lat="45.89741" lon="4.61294">
        <ele>298.3</ele>
        <time>2020-12-13T11:18:25Z</time>
      </trkpt>
      <trkpt lat="45.8974" lon="4.61294">
        <ele>298.3</ele>
        <time>2020-12-13T11:18:26Z</time>
      </trkpt>
      <trkpt lat="45.89738" lon="4.61294">
        <ele>298.3</ele>
        <time>2020-12-13T11:18:27Z</time>
      </trkpt>
      <trkpt lat="45.89736" lon="4.61295">
        <ele>298.3</ele>
        <time>2020-12-13T11:18:28Z</time>
      </trkpt>
      <trkpt lat="45.89735" lon="4.61295">
        <ele>298.3</ele>
        <time>2020-12-13T11:18:29Z</time>
      </trkpt>
      <trkpt lat="45.89734" lon="4.61295">
        <ele>298.3</ele>
        <time>2020-12-13T11:18:30Z</time>
      </trkpt>
      <trkpt lat="45.89732" lon="4.61296">
        <ele>298.3</ele>
        <time>2020-12-13T11:18:31Z</time>
      </trkpt>
      <trkpt lat="45.89731" lon="4.61296">
        <ele>298.3</ele>
        <time>2020-12-13T11:18:32Z</time>
      </trkpt>
      <trkpt lat="45.8973" lon="4.61297">
        <ele>298.3</ele>
        <time>2020-12-13T11:18:33Z</time>
      </trkpt>
      <trkpt lat="45.89729" lon="4.61297">
        <ele>298.3</ele>
        <time>2020-12-13T11:18:34Z</time>
      </trkpt>
      <trkpt lat="45.89727" lon="4.61297">
        <ele>298.2</ele>
        <time>2020-12-13T11:18:35Z</time>
      </trkpt>
      <trkpt lat="45.89726" lon="4.61297">
        <ele>298.2</ele>
        <time>2020-12-13T11:18:36Z</time>
      </trkpt>
      <trkpt lat="45.89724" lon="4.61297">
        <ele>298.2</ele>
        <time>2020-12-13T11:18:37Z</time>
      </trkpt>
      <trkpt lat="45.89723" lon="4.61298">
        <ele>298.2</ele>
        <time>2020-12-13T11:18:38Z</time>
      </trkpt>
      <trkpt lat="45.89722" lon="4.61298">
        <ele>298.2</ele>
        <time>2020-12-13T11:18:39Z</time>
      </trkpt>
      <trkpt lat="45.8972" lon="4.61298">
        <ele>298.2</ele>
        <time>2020-12-13T11:18:40Z</time>
      </trkpt>
      <trkpt lat="45.89719" lon="4.61298">
        <ele>298.2</ele>
        <time>2020-12-13T11:18:41Z</time>
      </trkpt>
      <trkpt lat="45.89717" lon="4.61298">
        <ele>298.1</ele>
        <time>2020-12-13T11:18:42Z</time>
      </trkpt>
      <trkpt lat="45.89716" lon="4.61299">
        <ele>298.1</ele>
        <time>2020-12-13T11:18:43Z</time>
      </trkpt>
      <trkpt lat="45.89715" lon="4.61299">
        <ele>298.1</ele>
        <time>2020-12-13T11:18:44Z</time>
      </trkpt>
      <trkpt lat="45.89714" lon="4.613">
        <ele>298.1</ele>
        <time>2020-12-13T11:18:45Z</time>
      </trkpt>
      <trkpt lat="45.89713" lon="4.613">
        <ele>298.1</ele>
        <time>2020-12-13T11:18:46Z</time>
      </trkpt>
      <trkpt lat="45.89713" lon="4.61301">
        <ele>298.1</ele>
        <time>2020-12-13T11:18:47Z</time>
      </trkpt>
      <trkpt lat="45.89712" lon="4.61301">
        <ele>298</ele>
        <time>2020-12-13T11:18:48Z</time>
      </trkpt>
      <trkpt lat="45.8971" lon="4.61302">
        <ele>298</ele>
        <time>2020-12-13T11:18:49Z</time>
      </trkpt>
      <trkpt lat="45.89709" lon="4.61302">
        <ele>298</ele>
        <time>2020-12-13T11:18:50Z</time>
      </trkpt>
      <trkpt lat="45.89708" lon="4.61303">
        <ele>298</ele>
        <time>2020-12-13T11:18:51Z</time>
      </trkpt>
      <trkpt lat="45.89706" lon="4.61303">
        <ele>297.9</ele>
        <time>2020-12-13T11:18:52Z</time>
      </trkpt>
      <trkpt lat="45.89705" lon="4.61303">
        <ele>297.9</ele>
        <time>2020-12-13T11:18:53Z</time>
      </trkpt>
      <trkpt lat="45.89704" lon="4.61303">
        <ele>297.9</ele>
        <time>2020-12-13T11:18:54Z</time>
      </trkpt>
      <trkpt lat="45.89702" lon="4.61304">
        <ele>297.9</ele>
        <time>2020-12-13T11:18:55Z</time>
      </trkpt>
      <trkpt lat="45.89701" lon="4.61304">
        <ele>297.9</ele>
        <time>2020-12-13T11:18:56Z</time>
      </trkpt>
      <trkpt lat="45.897" lon="4.61304">
        <ele>297.9</ele>
        <time>2020-12-13T11:18:57Z</time>
      </trkpt>
      <trkpt lat="45.89698" lon="4.61305">
        <ele>297.8</ele>
        <time>2020-12-13T11:18:58Z</time>
      </trkpt>
      <trkpt lat="45.89697" lon="4.61305">
        <ele>297.8</ele>
        <time>2020-12-13T11:18:59Z</time>
      </trkpt>
      <trkpt lat="45.89696" lon="4.61306">
        <ele>297.8</ele>
        <time>2020-12-13T11:19:00Z</time>
      </trkpt>
      <trkpt lat="45.89695" lon="4.61306">
        <ele>297.8</ele>
        <time>2020-12-13T11:19:01Z</time>
      </trkpt>
      <trkpt lat="45.89693" lon="4.61307">
        <ele>297.8</ele>
        <time>2020-12-13T11:19:02Z</time>
      </trkpt>
      <trkpt lat="45.89693" lon="4.61307">
        <ele>297.7</ele>
        <time>2020-12-13T11:19:03Z</time>
      </trkpt>
      <trkpt lat="45.89691" lon="4.61308">
        <ele>297.7</ele>
        <time>2020-12-13T11:19:04Z</time>
      </trkpt>
      <trkpt lat="45.89689" lon="4.61308">
        <ele>297.7</ele>
        <time>2020-12-13T11:19:05Z</time>
      </trkpt>
      <trkpt lat="45.89688" lon="4.61308">
        <ele>297.7</ele>
        <time>2020-12-13T11:19:06Z</time>
      </trkpt>
      <trkpt lat="45.89687" lon="4.61308">
        <ele>297.6</ele>
        <time>2020-12-13T11:19:07Z</time>
      </trkpt>
      <trkpt lat="45.89685" lon="4.6131">
        <ele>297.6</ele>
        <time>2020-12-13T11:19:08Z</time>
      </trkpt>
      <trkpt lat="45.89684" lon="4.6131">
        <ele>297.6</ele>
        <time>2020-12-13T11:19:09Z</time>
      </trkpt>
      <trkpt lat="45.89683" lon="4.6131">
        <ele>297.6</ele>
        <time>2020-12-13T11:19:10Z</time>
      </trkpt>
      <trkpt lat="45.89682" lon="4.61311">
        <ele>297.5</ele>
        <time>2020-12-13T11:19:11Z</time>
      </trkpt>
      <trkpt lat="45.8968" lon="4.61312">
        <ele>297.5</ele>
        <time>2020-12-13T11:19:12Z</time>
      </trkpt>
      <trkpt lat="45.8968" lon="4.61313">
        <ele>297.5</ele>
        <time>2020-12-13T11:19:13Z</time>
      </trkpt>
      <trkpt lat="45.89678" lon="4.61314">
        <ele>297.5</ele>
        <time>2020-12-13T11:19:14Z</time>
      </trkpt>
      <trkpt lat="45.89677" lon="4.61314">
        <ele>297.4</ele>
        <time>2020-12-13T11:19:15Z</time>
      </trkpt>
      <trkpt lat="45.89676" lon="4.61315">
        <ele>297.4</ele>
        <time>2020-12-13T11:19:16Z</time>
      </trkpt>
      <trkpt lat="45.89675" lon="4.61315">
        <ele>297.4</ele>
        <time>2020-12-13T11:19:17Z</time>
      </trkpt>
      <trkpt lat="45.89674" lon="4.61316">
        <ele>297.4</ele>
        <time>2020-12-13T11:19:18Z</time>
      </trkpt>
      <trkpt lat="45.89672" lon="4.61316">
        <ele>297.3</ele>
        <time>2020-12-13T11:19:19Z</time>
      </trkpt>
      <trkpt lat="45.89671" lon="4.61316">
        <ele>297.3</ele>
        <time>2020-12-13T11:19:20Z</time>
      </trkpt>
      <trkpt lat="45.89669" lon="4.61317">
        <ele>297.3</ele>
        <time>2020-12-13T11:19:21Z</time>
      </trkpt>
      <trkpt lat="45.89669" lon="4.61318">
        <ele>297.3</ele>
        <time>2020-12-13T11:19:22Z</time>
      </trkpt>
      <trkpt lat="45.89668" lon="4.61318">
        <ele>297.2</ele>
        <time>2020-12-13T11:19:23Z</time>
      </trkpt>
      <trkpt lat="45.89666" lon="4.61319">
        <ele>297.2</ele>
        <time>2020-12-13T11:19:24Z</time>
      </trkpt>
      <trkpt lat="45.89666" lon="4.6132">
        <ele>297.2</ele>
        <time>2020-12-13T11:19:25Z</time>
      </trkpt>
      <trkpt lat="45.89664" lon="4.61321">
        <ele>297.1</ele>
        <time>2020-12-13T11:19:26Z</time>
      </trkpt>
      <trkpt lat="45.89663" lon="4.6132">
        <ele>297.1</ele>
        <time>2020-12-13T11:19:27Z</time>
      </trkpt>
      <trkpt lat="45.89661" lon="4.61321">
        <ele>297.1</ele>
        <time>2020-12-13T11:19:28Z</time>
      </trkpt>
      <trkpt lat="45.8966" lon="4.61322">
        <ele>297.1</ele>
        <time>2020-12-13T11:19:29Z</time>
      </trkpt>
      <trkpt lat="45.89659" lon="4.61322">
        <ele>297</ele>
        <time>2020-12-13T11:19:30Z</time>
      </trkpt>
      <trkpt lat="45.89658" lon="4.61323">
        <ele>297</ele>
        <time>2020-12-13T11:19:31Z</time>
      </trkpt>
      <trkpt lat="45.89656" lon="4.61323">
        <ele>297</ele>
        <time>2020-12-13T11:19:32Z</time>
      </trkpt>
      <trkpt lat="45.89654" lon="4.61324">
        <ele>296.9</ele>
        <time>2020-12-13T11:19:33Z</time>
      </trkpt>
      <trkpt lat="45.89653" lon="4.61324">
        <ele>296.9</ele>
        <time>2020-12-13T11:19:34Z</time>
      </trkpt>
      <trkpt lat="45.89651" lon="4.61325">
        <ele>296.8</ele>
        <time>2020-12-13T11:19:35Z</time>
      </trkpt>
      <trkpt lat="45.8965" lon="4.61325">
        <ele>296.8</ele>
        <time>2020-12-13T11:19:36Z</time>
      </trkpt>
      <trkpt lat="45.89649" lon="4.61325">
        <ele>296.8</ele>
        <time>2020-12-13T11:19:37Z</time>
      </trkpt>
      <trkpt lat="45.89648" lon="4.61326">
        <ele>296.8</ele>
        <time>2020-12-13T11:19:38Z</time>
      </trkpt>
      <trkpt lat="45.89646" lon="4.61326">
        <ele>296.7</ele>
        <time>2020-12-13T11:19:39Z</time>
      </trkpt>
      <trkpt lat="45.89644" lon="4.61327">
        <ele>296.7</ele>
        <time>2020-12-13T11:19:40Z</time>
      </trkpt>
      <trkpt lat="45.89643" lon="4.61328">
        <ele>296.6</ele>
        <time>2020-12-13T11:19:41Z</time>
      </trkpt>
      <trkpt lat="45.89641" lon="4.61328">
        <ele>296.6</ele>
        <time>2020-12-13T11:19:42Z</time>
      </trkpt>
      <trkpt lat="45.8964" lon="4.61329">
        <ele>296.5</ele>
        <time>2020-12-13T11:19:43Z</time>
      </trkpt>
      <trkpt lat="45.89639" lon="4.6133">
        <ele>296.5</ele>
        <time>2020-12-13T11:19:44Z</time>
      </trkpt>
      <trkpt lat="45.89638" lon="4.6133">
        <ele>296.5</ele>
        <time>2020-12-13T11:19:45Z</time>
      </trkpt>
      <trkpt lat="45.89638" lon="4.61332">
        <ele>296.4</ele>
        <time>2020-12-13T11:19:46Z</time>
      </trkpt>
      <trkpt lat="45.89636" lon="4.61332">
        <ele>296.3</ele>
        <time>2020-12-13T11:19:47Z</time>
      </trkpt>
      <trkpt lat="45.89634" lon="4.61332">
        <ele>296.3</ele>
        <time>2020-12-13T11:19:48Z</time>
      </trkpt>
      <trkpt lat="45.89633" lon="4.61334">
        <ele>296.2</ele>
        <time>2020-12-13T11:19:49Z</time>
      </trkpt>
      <trkpt lat="45.89633" lon="4.61335">
        <ele>296.2</ele>
        <time>2020-12-13T11:19:50Z</time>
      </trkpt>
      <trkpt lat="45.89632" lon="4.61336">
        <ele>296.1</ele>
        <time>2020-12-13T11:19:51Z</time>
      </trkpt>
      <trkpt lat="45.89631" lon="4.61337">
        <ele>296.1</ele>
        <time>2020-12-13T11:19:52Z</time>
      </trkpt>
      <trkpt lat="45.8963" lon="4.61338">
        <ele>296</ele>
        <time>2020-12-13T11:19:53Z</time>
      </trkpt>
      <trkpt lat="45.8963" lon="4.6134">
        <ele>296</ele>
        <time>2020-12-13T11:19:54Z</time>
      </trkpt>
      <trkpt lat="45.89628" lon="4.61341">
        <ele>295.9</ele>
        <time>2020-12-13T11:19:55Z</time>
      </trkpt>
      <trkpt lat="45.89627" lon="4.61342">
        <ele>295.9</ele>
        <time>2020-12-13T11:19:56Z</time>
      </trkpt>
      <trkpt lat="45.89627" lon="4.61344">
        <ele>295.8</ele>
        <time>2020-12-13T11:19:57Z</time>
      </trkpt>
      <trkpt lat="45.89626" lon="4.61344">
        <ele>295.8</ele>
        <time>2020-12-13T11:19:58Z</time>
      </trkpt>
      <trkpt lat="45.89625" lon="4.61344">
        <ele>295.7</ele>
        <time>2020-12-13T11:19:59Z</time>
      </trkpt>
      <trkpt lat="45.89624" lon="4.61346">
        <ele>295.7</ele>
        <time>2020-12-13T11:20:00Z</time>
      </trkpt>
      <trkpt lat="45.89623" lon="4.61348">
        <ele>295.6</ele>
        <time>2020-12-13T11:20:01Z</time>
      </trkpt>
      <trkpt lat="45.89622" lon="4.6135">
        <ele>295.6</ele>
        <time>2020-12-13T11:20:02Z</time>
      </trkpt>
      <trkpt lat="45.8962" lon="4.61352">
        <ele>295.5</ele>
        <time>2020-12-13T11:20:04Z</time>
      </trkpt>
      <trkpt lat="45.8962" lon="4.61353">
        <ele>295.5</ele>
        <time>2020-12-13T11:20:05Z</time>
      </trkpt>
      <trkpt lat="45.89619" lon="4.61354">
        <ele>295.4</ele>
        <time>2020-12-13T11:20:06Z</time>
      </trkpt>
      <trkpt lat="45.89619" lon="4.61355">
        <ele>295.4</ele>
        <time>2020-12-13T11:20:07Z</time>
      </trkpt>
      <trkpt lat="45.89618" lon="4.61356">
        <ele>295.4</ele>
        <time>2020-12-13T11:20:08Z</time>
      </trkpt>
      <trkpt lat="45.89617" lon="4.61357">
        <ele>295.4</ele>
        <time>2020-12-13T11:20:09Z</time>
      </trkpt>
      <trkpt lat="45.89615" lon="4.61358">
        <ele>295.4</ele>
        <time>2020-12-13T11:20:10Z</time>
      </trkpt>
      <trkpt lat="45.89615" lon="4.61359">
        <ele>295.3</ele>
        <time>2020-12-13T11:20:11Z</time>
      </trkpt>
      <trkpt lat="45.89614" lon="4.6136">
        <ele>295.3</ele>
        <time>2020-12-13T11:20:12Z</time>
      </trkpt>
      <trkpt lat="45.89613" lon="4.61362">
        <ele>295.3</ele>
        <time>2020-12-13T11:20:13Z</time>
      </trkpt>
      <trkpt lat="45.89611" lon="4.61364">
        <ele>295.2</ele>
        <time>2020-12-13T11:20:14Z</time>
      </trkpt>
      <trkpt lat="45.8961" lon="4.61365">
        <ele>295.1</ele>
        <time>2020-12-13T11:20:15Z</time>
      </trkpt>
      <trkpt lat="45.89608" lon="4.61366">
        <ele>295</ele>
        <time>2020-12-13T11:20:16Z</time>
      </trkpt>
      <trkpt lat="45.89607" lon="4.61369">
        <ele>294.8</ele>
        <time>2020-12-13T11:20:17Z</time>
      </trkpt>
      <trkpt lat="45.89607" lon="4.6137">
        <ele>294.8</ele>
        <time>2020-12-13T11:20:18Z</time>
      </trkpt>
      <trkpt lat="45.89606" lon="4.61371">
        <ele>294.7</ele>
        <time>2020-12-13T11:20:19Z</time>
      </trkpt>
      <trkpt lat="45.89605" lon="4.61371">
        <ele>294.6</ele>
        <time>2020-12-13T11:20:20Z</time>
      </trkpt>
      <trkpt lat="45.89604" lon="4.61373">
        <ele>294.5</ele>
        <time>2020-12-13T11:20:21Z</time>
      </trkpt>
      <trkpt lat="45.89601" lon="4.61374">
        <ele>294.4</ele>
        <time>2020-12-13T11:20:22Z</time>
      </trkpt>
      <trkpt lat="45.896" lon="4.61375">
        <ele>294.3</ele>
        <time>2020-12-13T11:20:23Z</time>
      </trkpt>
      <trkpt lat="45.89599" lon="4.61375">
        <ele>294.2</ele>
        <time>2020-12-13T11:20:24Z</time>
      </trkpt>
      <trkpt lat="45.89599" lon="4.61376">
        <ele>294.2</ele>
        <time>2020-12-13T11:20:25Z</time>
      </trkpt>
      <trkpt lat="45.89597" lon="4.61376">
        <ele>294.1</ele>
        <time>2020-12-13T11:20:26Z</time>
      </trkpt>
      <trkpt lat="45.89596" lon="4.61378">
        <ele>294</ele>
        <time>2020-12-13T11:20:27Z</time>
      </trkpt>
      <trkpt lat="45.89595" lon="4.61379">
        <ele>293.9</ele>
        <time>2020-12-13T11:20:28Z</time>
      </trkpt>
      <trkpt lat="45.89594" lon="4.6138">
        <ele>293.8</ele>
        <time>2020-12-13T11:20:29Z</time>
      </trkpt>
      <trkpt lat="45.89592" lon="4.61381">
        <ele>293.7</ele>
        <time>2020-12-13T11:20:30Z</time>
      </trkpt>
      <trkpt lat="45.89592" lon="4.61382">
        <ele>293.7</ele>
        <time>2020-12-13T11:20:31Z</time>
      </trkpt>
      <trkpt lat="45.8959" lon="4.61383">
        <ele>293.6</ele>
        <time>2020-12-13T11:20:32Z</time>
      </trkpt>
      <trkpt lat="45.8959" lon="4.61384">
        <ele>293.5</ele>
        <time>2020-12-13T11:20:33Z</time>
      </trkpt>
      <trkpt lat="45.89589" lon="4.61385">
        <ele>293.5</ele>
        <time>2020-12-13T11:20:34Z</time>
      </trkpt>
      <trkpt lat="45.89588" lon="4.61387">
        <ele>293.4</ele>
        <time>2020-12-13T11:20:35Z</time>
      </trkpt>
      <trkpt lat="45.89588" lon="4.61388">
        <ele>293.4</ele>
        <time>2020-12-13T11:20:36Z</time>
      </trkpt>
      <trkpt lat="45.89588" lon="4.61388">
        <ele>293.4</ele>
        <time>2020-12-13T11:20:37Z</time>
      </trkpt>
      <trkpt lat="45.89587" lon="4.61388">
        <ele>293.3</ele>
        <time>2020-12-13T11:20:38Z</time>
      </trkpt>
      <trkpt lat="45.89587" lon="4.61388">
        <ele>293.3</ele>
        <time>2020-12-13T11:20:39Z</time>
      </trkpt>
      <trkpt lat="45.89587" lon="4.61388">
        <ele>293.3</ele>
        <time>2020-12-13T11:20:40Z</time>
      </trkpt>
      <trkpt lat="45.89587" lon="4.61388">
        <ele>293.3</ele>
        <time>2020-12-13T11:20:41Z</time>
      </trkpt>
      <trkpt lat="45.89585" lon="4.6139">
        <ele>293.2</ele>
        <time>2020-12-13T11:20:42Z</time>
      </trkpt>
      <trkpt lat="45.89585" lon="4.61392">
        <ele>293.1</ele>
        <time>2020-12-13T11:20:43Z</time>
      </trkpt>
      <trkpt lat="45.89584" lon="4.61392">
        <ele>293.1</ele>
        <time>2020-12-13T11:20:44Z</time>
      </trkpt>
      <trkpt lat="45.89582" lon="4.61392">
        <ele>293</ele>
        <time>2020-12-13T11:20:45Z</time>
      </trkpt>
      <trkpt lat="45.8958" lon="4.61392">
        <ele>292.9</ele>
        <time>2020-12-13T11:20:46Z</time>
      </trkpt>
      <trkpt lat="45.8958" lon="4.61394">
        <ele>292.9</ele>
        <time>2020-12-13T11:20:47Z</time>
      </trkpt>
      <trkpt lat="45.89579" lon="4.61396">
        <ele>292.8</ele>
        <time>2020-12-13T11:20:48Z</time>
      </trkpt>
      <trkpt lat="45.89578" lon="4.61397">
        <ele>292.8</ele>
        <time>2020-12-13T11:20:49Z</time>
      </trkpt>
      <trkpt lat="45.89577" lon="4.61398">
        <ele>292.7</ele>
        <time>2020-12-13T11:20:50Z</time>
      </trkpt>
      <trkpt lat="45.89576" lon="4.61399">
        <ele>292.6</ele>
        <time>2020-12-13T11:20:51Z</time>
      </trkpt>
      <trkpt lat="45.89576" lon="4.61401">
        <ele>292.6</ele>
        <time>2020-12-13T11:20:52Z</time>
      </trkpt>
      <trkpt lat="45.89575" lon="4.61402">
        <ele>292.5</ele>
        <time>2020-12-13T11:20:53Z</time>
      </trkpt>
      <trkpt lat="45.89574" lon="4.61404">
        <ele>292.5</ele>
        <time>2020-12-13T11:20:54Z</time>
      </trkpt>
      <trkpt lat="45.89573" lon="4.61405">
        <ele>292.4</ele>
        <time>2020-12-13T11:20:55Z</time>
      </trkpt>
      <trkpt lat="45.89571" lon="4.61406">
        <ele>292.3</ele>
        <time>2020-12-13T11:20:56Z</time>
      </trkpt>
      <trkpt lat="45.8957" lon="4.61407">
        <ele>292.3</ele>
        <time>2020-12-13T11:20:57Z</time>
      </trkpt>
      <trkpt lat="45.89569" lon="4.61409">
        <ele>292.2</ele>
        <time>2020-12-13T11:20:58Z</time>
      </trkpt>
      <trkpt lat="45.89568" lon="4.6141">
        <ele>292.2</ele>
        <time>2020-12-13T11:20:59Z</time>
      </trkpt>
      <trkpt lat="45.89567" lon="4.61411">
        <ele>292.2</ele>
        <time>2020-12-13T11:21:00Z</time>
      </trkpt>
      <trkpt lat="45.89566" lon="4.61412">
        <ele>292.1</ele>
        <time>2020-12-13T11:21:01Z</time>
      </trkpt>
      <trkpt lat="45.89565" lon="4.61412">
        <ele>292.1</ele>
        <time>2020-12-13T11:21:02Z</time>
      </trkpt>
      <trkpt lat="45.89564" lon="4.61413">
        <ele>292</ele>
        <time>2020-12-13T11:21:03Z</time>
      </trkpt>
      <trkpt lat="45.89563" lon="4.61415">
        <ele>292</ele>
        <time>2020-12-13T11:21:04Z</time>
      </trkpt>
      <trkpt lat="45.89562" lon="4.61417">
        <ele>291.9</ele>
        <time>2020-12-13T11:21:05Z</time>
      </trkpt>
      <trkpt lat="45.8956" lon="4.61418">
        <ele>291.8</ele>
        <time>2020-12-13T11:21:06Z</time>
      </trkpt>
      <trkpt lat="45.89559" lon="4.61418">
        <ele>291.8</ele>
        <time>2020-12-13T11:21:07Z</time>
      </trkpt>
      <trkpt lat="45.89558" lon="4.61419">
        <ele>291.8</ele>
        <time>2020-12-13T11:21:08Z</time>
      </trkpt>
      <trkpt lat="45.89558" lon="4.61421">
        <ele>291.7</ele>
        <time>2020-12-13T11:21:09Z</time>
      </trkpt>
      <trkpt lat="45.89556" lon="4.61423">
        <ele>291.6</ele>
        <time>2020-12-13T11:21:10Z</time>
      </trkpt>
      <trkpt lat="45.89555" lon="4.61423">
        <ele>291.6</ele>
        <time>2020-12-13T11:21:11Z</time>
      </trkpt>
      <trkpt lat="45.89553" lon="4.61425">
        <ele>291.5</ele>
        <time>2020-12-13T11:21:12Z</time>
      </trkpt>
      <trkpt lat="45.89552" lon="4.61426">
        <ele>291.5</ele>
        <time>2020-12-13T11:21:13Z</time>
      </trkpt>
      <trkpt lat="45.89551" lon="4.61427">
        <ele>291.4</ele>
        <time>2020-12-13T11:21:14Z</time>
      </trkpt>
      <trkpt lat="45.8955" lon="4.61427">
        <ele>291.4</ele>
        <time>2020-12-13T11:21:15Z</time>
      </trkpt>
      <trkpt lat="45.89549" lon="4.61428">
        <ele>291.3</ele>
        <time>2020-12-13T11:21:16Z</time>
      </trkpt>
      <trkpt lat="45.89548" lon="4.61429">
        <ele>291.3</ele>
        <time>2020-12-13T11:21:17Z</time>
      </trkpt>
      <trkpt lat="45.89547" lon="4.6143">
        <ele>291.2</ele>
        <time>2020-12-13T11:21:18Z</time>
      </trkpt>
      <trkpt lat="45.89546" lon="4.61432">
        <ele>291.2</ele>
        <time>2020-12-13T11:21:19Z</time>
      </trkpt>
      <trkpt lat="45.89544" lon="4.61434">
        <ele>291.1</ele>
        <time>2020-12-13T11:21:20Z</time>
      </trkpt>
      <trkpt lat="45.89543" lon="4.61434">
        <ele>291.1</ele>
        <time>2020-12-13T11:21:21Z</time>
      </trkpt>
      <trkpt lat="45.89542" lon="4.61435">
        <ele>291</ele>
        <time>2020-12-13T11:21:22Z</time>
      </trkpt>
      <trkpt lat="45.89541" lon="4.61437">
        <ele>290.9</ele>
        <time>2020-12-13T11:21:23Z</time>
      </trkpt>
      <trkpt lat="45.8954" lon="4.61438">
        <ele>290.9</ele>
        <time>2020-12-13T11:21:24Z</time>
      </trkpt>
      <trkpt lat="45.89539" lon="4.61439">
        <ele>290.8</ele>
        <time>2020-12-13T11:21:25Z</time>
      </trkpt>
      <trkpt lat="45.89538" lon="4.6144">
        <ele>290.8</ele>
        <time>2020-12-13T11:21:26Z</time>
      </trkpt>
      <trkpt lat="45.89537" lon="4.61441">
        <ele>290.7</ele>
        <time>2020-12-13T11:21:27Z</time>
      </trkpt>
      <trkpt lat="45.89537" lon="4.61442">
        <ele>290.7</ele>
        <time>2020-12-13T11:21:28Z</time>
      </trkpt>
      <trkpt lat="45.89536" lon="4.61443">
        <ele>290.7</ele>
        <time>2020-12-13T11:21:29Z</time>
      </trkpt>
      <trkpt lat="45.89535" lon="4.61444">
        <ele>290.6</ele>
        <time>2020-12-13T11:21:30Z</time>
      </trkpt>
      <trkpt lat="45.89534" lon="4.61446">
        <ele>290.5</ele>
        <time>2020-12-13T11:21:31Z</time>
      </trkpt>
      <trkpt lat="45.89534" lon="4.61447">
        <ele>290.5</ele>
        <time>2020-12-13T11:21:32Z</time>
      </trkpt>
      <trkpt lat="45.89532" lon="4.61449">
        <ele>290.4</ele>
        <time>2020-12-13T11:21:33Z</time>
      </trkpt>
      <trkpt lat="45.8953" lon="4.61451">
        <ele>290.3</ele>
        <time>2020-12-13T11:21:34Z</time>
      </trkpt>
      <trkpt lat="45.8953" lon="4.61451">
        <ele>290.3</ele>
        <time>2020-12-13T11:21:35Z</time>
      </trkpt>
      <trkpt lat="45.89529" lon="4.61452">
        <ele>290.2</ele>
        <time>2020-12-13T11:21:36Z</time>
      </trkpt>
      <trkpt lat="45.89528" lon="4.61453">
        <ele>290.2</ele>
        <time>2020-12-13T11:21:37Z</time>
      </trkpt>
      <trkpt lat="45.89527" lon="4.61455">
        <ele>290.1</ele>
        <time>2020-12-13T11:21:38Z</time>
      </trkpt>
      <trkpt lat="45.89527" lon="4.61456">
        <ele>290.1</ele>
        <time>2020-12-13T11:21:39Z</time>
      </trkpt>
      <trkpt lat="45.89524" lon="4.61457">
        <ele>289.9</ele>
        <time>2020-12-13T11:21:40Z</time>
      </trkpt>
      <trkpt lat="45.89525" lon="4.61458">
        <ele>289.9</ele>
        <time>2020-12-13T11:21:41Z</time>
      </trkpt>
      <trkpt lat="45.89523" lon="4.61459">
        <ele>289.8</ele>
        <time>2020-12-13T11:21:42Z</time>
      </trkpt>
      <trkpt lat="45.89522" lon="4.61461">
        <ele>289.7</ele>
        <time>2020-12-13T11:21:43Z</time>
      </trkpt>
      <trkpt lat="45.89521" lon="4.61461">
        <ele>289.7</ele>
        <time>2020-12-13T11:21:44Z</time>
      </trkpt>
      <trkpt lat="45.8952" lon="4.61463">
        <ele>289.6</ele>
        <time>2020-12-13T11:21:45Z</time>
      </trkpt>
      <trkpt lat="45.8952" lon="4.61464">
        <ele>289.6</ele>
        <time>2020-12-13T11:21:46Z</time>
      </trkpt>
      <trkpt lat="45.89518" lon="4.61466">
        <ele>289.5</ele>
        <time>2020-12-13T11:21:47Z</time>
      </trkpt>
      <trkpt lat="45.89518" lon="4.61467">
        <ele>289.4</ele>
        <time>2020-12-13T11:21:48Z</time>
      </trkpt>
      <trkpt lat="45.89517" lon="4.61468">
        <ele>289.4</ele>
        <time>2020-12-13T11:21:49Z</time>
      </trkpt>
      <trkpt lat="45.89516" lon="4.61469">
        <ele>289.3</ele>
        <time>2020-12-13T11:21:50Z</time>
      </trkpt>
      <trkpt lat="45.89515" lon="4.6147">
        <ele>289.2</ele>
        <time>2020-12-13T11:21:51Z</time>
      </trkpt>
      <trkpt lat="45.89515" lon="4.61472">
        <ele>289.2</ele>
        <time>2020-12-13T11:21:52Z</time>
      </trkpt>
      <trkpt lat="45.89513" lon="4.61473">
        <ele>289.1</ele>
        <time>2020-12-13T11:21:53Z</time>
      </trkpt>
      <trkpt lat="45.89512" lon="4.61474">
        <ele>289</ele>
        <time>2020-12-13T11:21:54Z</time>
      </trkpt>
      <trkpt lat="45.89511" lon="4.61475">
        <ele>288.9</ele>
        <time>2020-12-13T11:21:55Z</time>
      </trkpt>
      <trkpt lat="45.89509" lon="4.61476">
        <ele>288.8</ele>
        <time>2020-12-13T11:21:56Z</time>
      </trkpt>
      <trkpt lat="45.89509" lon="4.61478">
        <ele>288.7</ele>
        <time>2020-12-13T11:21:57Z</time>
      </trkpt>
      <trkpt lat="45.89507" lon="4.61479">
        <ele>288.6</ele>
        <time>2020-12-13T11:21:58Z</time>
      </trkpt>
      <trkpt lat="45.89506" lon="4.61481">
        <ele>288.5</ele>
        <time>2020-12-13T11:21:59Z</time>
      </trkpt>
      <trkpt lat="45.89505" lon="4.61482">
        <ele>288.5</ele>
        <time>2020-12-13T11:22:00Z</time>
      </trkpt>
      <trkpt lat="45.89504" lon="4.61483">
        <ele>288.4</ele>
        <time>2020-12-13T11:22:01Z</time>
      </trkpt>
      <trkpt lat="45.89504" lon="4.61484">
        <ele>288.4</ele>
        <time>2020-12-13T11:22:02Z</time>
      </trkpt>
      <trkpt lat="45.89502" lon="4.61485">
        <ele>288.3</ele>
        <time>2020-12-13T11:22:03Z</time>
      </trkpt>
      <trkpt lat="45.89502" lon="4.61487">
        <ele>288.2</ele>
        <time>2020-12-13T11:22:04Z</time>
      </trkpt>
      <trkpt lat="45.89501" lon="4.61488">
        <ele>288.1</ele>
        <time>2020-12-13T11:22:05Z</time>
      </trkpt>
      <trkpt lat="45.895" lon="4.61488">
        <ele>288.1</ele>
        <time>2020-12-13T11:22:06Z</time>
      </trkpt>
      <trkpt lat="45.89499" lon="4.6149">
        <ele>288</ele>
        <time>2020-12-13T11:22:07Z</time>
      </trkpt>
      <trkpt lat="45.89497" lon="4.61491">
        <ele>287.9</ele>
        <time>2020-12-13T11:22:08Z</time>
      </trkpt>
      <trkpt lat="45.89495" lon="4.61493">
        <ele>287.7</ele>
        <time>2020-12-13T11:22:10Z</time>
      </trkpt>
      <trkpt lat="45.89494" lon="4.61494">
        <ele>287.7</ele>
        <time>2020-12-13T11:22:11Z</time>
      </trkpt>
      <trkpt lat="45.89494" lon="4.61495">
        <ele>287.6</ele>
        <time>2020-12-13T11:22:12Z</time>
      </trkpt>
      <trkpt lat="45.89492" lon="4.61496">
        <ele>287.6</ele>
        <time>2020-12-13T11:22:13Z</time>
      </trkpt>
      <trkpt lat="45.89491" lon="4.61497">
        <ele>287.5</ele>
        <time>2020-12-13T11:22:14Z</time>
      </trkpt>
      <trkpt lat="45.89489" lon="4.61499">
        <ele>287.3</ele>
        <time>2020-12-13T11:22:15Z</time>
      </trkpt>
      <trkpt lat="45.89488" lon="4.61499">
        <ele>287.3</ele>
        <time>2020-12-13T11:22:16Z</time>
      </trkpt>
      <trkpt lat="45.89488" lon="4.615">
        <ele>287.2</ele>
        <time>2020-12-13T11:22:17Z</time>
      </trkpt>
      <trkpt lat="45.89487" lon="4.61501">
        <ele>287.2</ele>
        <time>2020-12-13T11:22:18Z</time>
      </trkpt>
      <trkpt lat="45.89485" lon="4.61502">
        <ele>287.1</ele>
        <time>2020-12-13T11:22:19Z</time>
      </trkpt>
      <trkpt lat="45.89484" lon="4.61505">
        <ele>286.9</ele>
        <time>2020-12-13T11:22:20Z</time>
      </trkpt>
      <trkpt lat="45.89484" lon="4.61507">
        <ele>286.9</ele>
        <time>2020-12-13T11:22:21Z</time>
      </trkpt>
      <trkpt lat="45.89482" lon="4.61508">
        <ele>286.7</ele>
        <time>2020-12-13T11:22:22Z</time>
      </trkpt>
      <trkpt lat="45.89481" lon="4.61509">
        <ele>286.7</ele>
        <time>2020-12-13T11:22:23Z</time>
      </trkpt>
      <trkpt lat="45.8948" lon="4.6151">
        <ele>286.6</ele>
        <time>2020-12-13T11:22:24Z</time>
      </trkpt>
      <trkpt lat="45.8948" lon="4.6151">
        <ele>286.6</ele>
        <time>2020-12-13T11:22:25Z</time>
      </trkpt>
      <trkpt lat="45.89479" lon="4.61511">
        <ele>286.5</ele>
        <time>2020-12-13T11:22:26Z</time>
      </trkpt>
      <trkpt lat="45.89478" lon="4.61512">
        <ele>286.4</ele>
        <time>2020-12-13T11:22:27Z</time>
      </trkpt>
      <trkpt lat="45.89475" lon="4.61514">
        <ele>286.2</ele>
        <time>2020-12-13T11:22:28Z</time>
      </trkpt>
      <trkpt lat="45.89474" lon="4.61515">
        <ele>286.1</ele>
        <time>2020-12-13T11:22:29Z</time>
      </trkpt>
      <trkpt lat="45.89472" lon="4.61517">
        <ele>286</ele>
        <time>2020-12-13T11:22:30Z</time>
      </trkpt>
      <trkpt lat="45.89472" lon="4.61518">
        <ele>285.9</ele>
        <time>2020-12-13T11:22:31Z</time>
      </trkpt>
      <trkpt lat="45.89471" lon="4.61518">
        <ele>285.9</ele>
        <time>2020-12-13T11:22:32Z</time>
      </trkpt>
      <trkpt lat="45.89468" lon="4.6152">
        <ele>285.7</ele>
        <time>2020-12-13T11:22:33Z</time>
      </trkpt>
      <trkpt lat="45.89468" lon="4.61521">
        <ele>285.6</ele>
        <time>2020-12-13T11:22:34Z</time>
      </trkpt>
      <trkpt lat="45.89466" lon="4.61523">
        <ele>285.5</ele>
        <time>2020-12-13T11:22:35Z</time>
      </trkpt>
      <trkpt lat="45.89465" lon="4.61524">
        <ele>285.5</ele>
        <time>2020-12-13T11:22:36Z</time>
      </trkpt>
      <trkpt lat="45.89465" lon="4.61524">
        <ele>285.4</ele>
        <time>2020-12-13T11:22:37Z</time>
      </trkpt>
      <trkpt lat="45.89465" lon="4.61525">
        <ele>285.4</ele>
        <time>2020-12-13T11:22:38Z</time>
      </trkpt>
      <trkpt lat="45.89464" lon="4.61526">
        <ele>285.3</ele>
        <time>2020-12-13T11:22:39Z</time>
      </trkpt>
      <trkpt lat="45.89462" lon="4.61527">
        <ele>285.2</ele>
        <time>2020-12-13T11:22:40Z</time>
      </trkpt>
      <trkpt lat="45.89461" lon="4.61528">
        <ele>285.1</ele>
        <time>2020-12-13T11:22:41Z</time>
      </trkpt>
      <trkpt lat="45.89461" lon="4.61529">
        <ele>285</ele>
        <time>2020-12-13T11:22:42Z</time>
      </trkpt>
      <trkpt lat="45.8946" lon="4.6153">
        <ele>285</ele>
        <time>2020-12-13T11:22:43Z</time>
      </trkpt>
      <trkpt lat="45.89458" lon="4.61532">
        <ele>284.8</ele>
        <time>2020-12-13T11:22:44Z</time>
      </trkpt>
      <trkpt lat="45.89459" lon="4.61534">
        <ele>284.7</ele>
        <time>2020-12-13T11:22:45Z</time>
      </trkpt>
      <trkpt lat="45.89457" lon="4.61535">
        <ele>284.6</ele>
        <time>2020-12-13T11:22:46Z</time>
      </trkpt>
      <trkpt lat="45.89456" lon="4.61536">
        <ele>284.6</ele>
        <time>2020-12-13T11:22:47Z</time>
      </trkpt>
      <trkpt lat="45.89456" lon="4.61537">
        <ele>284.5</ele>
        <time>2020-12-13T11:22:48Z</time>
      </trkpt>
      <trkpt lat="45.89453" lon="4.6154">
        <ele>284.3</ele>
        <time>2020-12-13T11:22:49Z</time>
      </trkpt>
      <trkpt lat="45.89453" lon="4.6154">
        <ele>284.2</ele>
        <time>2020-12-13T11:22:50Z</time>
      </trkpt>
      <trkpt lat="45.89451" lon="4.61541">
        <ele>284.1</ele>
        <time>2020-12-13T11:22:51Z</time>
      </trkpt>
      <trkpt lat="45.8945" lon="4.61543">
        <ele>284</ele>
        <time>2020-12-13T11:22:52Z</time>
      </trkpt>
      <trkpt lat="45.89449" lon="4.61544">
        <ele>283.9</ele>
        <time>2020-12-13T11:22:53Z</time>
      </trkpt>
      <trkpt lat="45.89448" lon="4.61545">
        <ele>283.8</ele>
        <time>2020-12-13T11:22:54Z</time>
      </trkpt>
      <trkpt lat="45.89447" lon="4.61546">
        <ele>283.7</ele>
        <time>2020-12-13T11:22:55Z</time>
      </trkpt>
      <trkpt lat="45.89446" lon="4.61547">
        <ele>283.6</ele>
        <time>2020-12-13T11:22:56Z</time>
      </trkpt>
      <trkpt lat="45.89445" lon="4.61548">
        <ele>283.5</ele>
        <time>2020-12-13T11:22:57Z</time>
      </trkpt>
      <trkpt lat="45.89445" lon="4.61549">
        <ele>283.5</ele>
        <time>2020-12-13T11:22:58Z</time>
      </trkpt>
      <trkpt lat="45.89444" lon="4.6155">
        <ele>283.4</ele>
        <time>2020-12-13T11:22:59Z</time>
      </trkpt>
      <trkpt lat="45.89443" lon="4.61552">
        <ele>283.3</ele>
        <time>2020-12-13T11:23:00Z</time>
      </trkpt>
      <trkpt lat="45.8944" lon="4.61554">
        <ele>283.1</ele>
        <time>2020-12-13T11:23:01Z</time>
      </trkpt>
      <trkpt lat="45.8944" lon="4.61555">
        <ele>283</ele>
        <time>2020-12-13T11:23:02Z</time>
      </trkpt>
      <trkpt lat="45.89439" lon="4.61555">
        <ele>282.9</ele>
        <time>2020-12-13T11:23:03Z</time>
      </trkpt>
      <trkpt lat="45.89438" lon="4.61557">
        <ele>282.8</ele>
        <time>2020-12-13T11:23:04Z</time>
      </trkpt>
      <trkpt lat="45.89437" lon="4.61558">
        <ele>282.8</ele>
        <time>2020-12-13T11:23:05Z</time>
      </trkpt>
      <trkpt lat="45.89435" lon="4.61559">
        <ele>282.6</ele>
        <time>2020-12-13T11:23:06Z</time>
      </trkpt>
      <trkpt lat="45.89434" lon="4.6156">
        <ele>282.5</ele>
        <time>2020-12-13T11:23:07Z</time>
      </trkpt>
      <trkpt lat="45.89433" lon="4.61562">
        <ele>282.4</ele>
        <time>2020-12-13T11:23:08Z</time>
      </trkpt>
      <trkpt lat="45.89431" lon="4.61563">
        <ele>282.2</ele>
        <time>2020-12-13T11:23:09Z</time>
      </trkpt>
      <trkpt lat="45.89431" lon="4.61564">
        <ele>282.1</ele>
        <time>2020-12-13T11:23:10Z</time>
      </trkpt>
      <trkpt lat="45.8943" lon="4.61564">
        <ele>282.1</ele>
        <time>2020-12-13T11:23:11Z</time>
      </trkpt>
      <trkpt lat="45.8943" lon="4.61564">
        <ele>282.1</ele>
        <time>2020-12-13T11:23:12Z</time>
      </trkpt>
      <trkpt lat="45.89428" lon="4.61565">
        <ele>281.9</ele>
        <time>2020-12-13T11:23:13Z</time>
      </trkpt>
      <trkpt lat="45.89427" lon="4.61567">
        <ele>281.8</ele>
        <time>2020-12-13T11:23:14Z</time>
      </trkpt>
      <trkpt lat="45.89426" lon="4.61568">
        <ele>281.7</ele>
        <time>2020-12-13T11:23:15Z</time>
      </trkpt>
      <trkpt lat="45.89425" lon="4.61569">
        <ele>281.6</ele>
        <time>2020-12-13T11:23:16Z</time>
      </trkpt>
      <trkpt lat="45.89423" lon="4.6157">
        <ele>281.4</ele>
        <time>2020-12-13T11:23:17Z</time>
      </trkpt>
      <trkpt lat="45.89422" lon="4.61572">
        <ele>281.3</ele>
        <time>2020-12-13T11:23:18Z</time>
      </trkpt>
      <trkpt lat="45.89421" lon="4.61573">
        <ele>281.2</ele>
        <time>2020-12-13T11:23:19Z</time>
      </trkpt>
      <trkpt lat="45.89421" lon="4.61574">
        <ele>281.1</ele>
        <time>2020-12-13T11:23:20Z</time>
      </trkpt>
      <trkpt lat="45.8942" lon="4.61575">
        <ele>281.1</ele>
        <time>2020-12-13T11:23:21Z</time>
      </trkpt>
      <trkpt lat="45.89419" lon="4.61577">
        <ele>280.9</ele>
        <time>2020-12-13T11:23:22Z</time>
      </trkpt>
      <trkpt lat="45.89418" lon="4.61579">
        <ele>280.8</ele>
        <time>2020-12-13T11:23:23Z</time>
      </trkpt>
      <trkpt lat="45.89417" lon="4.6158">
        <ele>280.6</ele>
        <time>2020-12-13T11:23:24Z</time>
      </trkpt>
      <trkpt lat="45.89416" lon="4.61581">
        <ele>280.5</ele>
        <time>2020-12-13T11:23:25Z</time>
      </trkpt>
      <trkpt lat="45.89415" lon="4.61582">
        <ele>280.4</ele>
        <time>2020-12-13T11:23:26Z</time>
      </trkpt>
      <trkpt lat="45.89414" lon="4.61583">
        <ele>280.4</ele>
        <time>2020-12-13T11:23:27Z</time>
      </trkpt>
      <trkpt lat="45.89412" lon="4.61584">
        <ele>280.2</ele>
        <time>2020-12-13T11:23:28Z</time>
      </trkpt>
      <trkpt lat="45.89412" lon="4.61585">
        <ele>280.1</ele>
        <time>2020-12-13T11:23:29Z</time>
      </trkpt>
      <trkpt lat="45.8941" lon="4.61587">
        <ele>279.9</ele>
        <time>2020-12-13T11:23:30Z</time>
      </trkpt>
      <trkpt lat="45.89409" lon="4.61587">
        <ele>279.8</ele>
        <time>2020-12-13T11:23:31Z</time>
      </trkpt>
      <trkpt lat="45.89408" lon="4.61588">
        <ele>279.7</ele>
        <time>2020-12-13T11:23:32Z</time>
      </trkpt>
      <trkpt lat="45.89406" lon="4.61591">
        <ele>279.4</ele>
        <time>2020-12-13T11:23:33Z</time>
      </trkpt>
      <trkpt lat="45.89405" lon="4.61591">
        <ele>279.4</ele>
        <time>2020-12-13T11:23:34Z</time>
      </trkpt>
      <trkpt lat="45.89405" lon="4.61592">
        <ele>279.3</ele>
        <time>2020-12-13T11:23:35Z</time>
      </trkpt>
      <trkpt lat="45.89404" lon="4.61592">
        <ele>279.3</ele>
        <time>2020-12-13T11:23:36Z</time>
      </trkpt>
      <trkpt lat="45.89404" lon="4.61592">
        <ele>279.2</ele>
        <time>2020-12-13T11:23:37Z</time>
      </trkpt>
      <trkpt lat="45.89402" lon="4.61593">
        <ele>279.1</ele>
        <time>2020-12-13T11:23:38Z</time>
      </trkpt>
      <trkpt lat="45.894" lon="4.61595">
        <ele>278.8</ele>
        <time>2020-12-13T11:23:39Z</time>
      </trkpt>
      <trkpt lat="45.89399" lon="4.61596">
        <ele>278.7</ele>
        <time>2020-12-13T11:23:40Z</time>
      </trkpt>
      <trkpt lat="45.89398" lon="4.61596">
        <ele>278.6</ele>
        <time>2020-12-13T11:23:41Z</time>
      </trkpt>
      <trkpt lat="45.89396" lon="4.61597">
        <ele>278.5</ele>
        <time>2020-12-13T11:23:42Z</time>
      </trkpt>
      <trkpt lat="45.89395" lon="4.61597">
        <ele>278.4</ele>
        <time>2020-12-13T11:23:43Z</time>
      </trkpt>
      <trkpt lat="45.89395" lon="4.61598">
        <ele>278.3</ele>
        <time>2020-12-13T11:23:44Z</time>
      </trkpt>
      <trkpt lat="45.89394" lon="4.61598">
        <ele>278.2</ele>
        <time>2020-12-13T11:23:45Z</time>
      </trkpt>
      <trkpt lat="45.89393" lon="4.61599">
        <ele>278.1</ele>
        <time>2020-12-13T11:23:46Z</time>
      </trkpt>
      <trkpt lat="45.89391" lon="4.61601">
        <ele>277.9</ele>
        <time>2020-12-13T11:23:47Z</time>
      </trkpt>
      <trkpt lat="45.8939" lon="4.61601">
        <ele>277.8</ele>
        <time>2020-12-13T11:23:48Z</time>
      </trkpt>
      <trkpt lat="45.89388" lon="4.61603">
        <ele>277.5</ele>
        <time>2020-12-13T11:23:49Z</time>
      </trkpt>
      <trkpt lat="45.89387" lon="4.61604">
        <ele>277.5</ele>
        <time>2020-12-13T11:23:50Z</time>
      </trkpt>
      <trkpt lat="45.89385" lon="4.61606">
        <ele>277.2</ele>
        <time>2020-12-13T11:23:51Z</time>
      </trkpt>
      <trkpt lat="45.89384" lon="4.61607">
        <ele>277.1</ele>
        <time>2020-12-13T11:23:52Z</time>
      </trkpt>
      <trkpt lat="45.89384" lon="4.61607">
        <ele>277.1</ele>
        <time>2020-12-13T11:23:53Z</time>
      </trkpt>
      <trkpt lat="45.89383" lon="4.61608">
        <ele>277</ele>
        <time>2020-12-13T11:23:54Z</time>
      </trkpt>
      <trkpt lat="45.89381" lon="4.61609">
        <ele>276.8</ele>
        <time>2020-12-13T11:23:55Z</time>
      </trkpt>
      <trkpt lat="45.89378" lon="4.61611">
        <ele>276.5</ele>
        <time>2020-12-13T11:23:56Z</time>
      </trkpt>
      <trkpt lat="45.89378" lon="4.61612">
        <ele>276.4</ele>
        <time>2020-12-13T11:23:57Z</time>
      </trkpt>
      <trkpt lat="45.89377" lon="4.61613">
        <ele>276.3</ele>
        <time>2020-12-13T11:23:58Z</time>
      </trkpt>
      <trkpt lat="45.89376" lon="4.61615">
        <ele>276.1</ele>
        <time>2020-12-13T11:23:59Z</time>
      </trkpt>
      <trkpt lat="45.89375" lon="4.61615">
        <ele>276</ele>
        <time>2020-12-13T11:24:00Z</time>
      </trkpt>
      <trkpt lat="45.89374" lon="4.61615">
        <ele>275.9</ele>
        <time>2020-12-13T11:24:01Z</time>
      </trkpt>
      <trkpt lat="45.89372" lon="4.61616">
        <ele>275.7</ele>
        <time>2020-12-13T11:24:02Z</time>
      </trkpt>
      <trkpt lat="45.89371" lon="4.61617">
        <ele>275.6</ele>
        <time>2020-12-13T11:24:03Z</time>
      </trkpt>
      <trkpt lat="45.89371" lon="4.61618">
        <ele>275.5</ele>
        <time>2020-12-13T11:24:04Z</time>
      </trkpt>
      <trkpt lat="45.89369" lon="4.61618">
        <ele>275.4</ele>
        <time>2020-12-13T11:24:05Z</time>
      </trkpt>
      <trkpt lat="45.89368" lon="4.61619">
        <ele>275.3</ele>
        <time>2020-12-13T11:24:06Z</time>
      </trkpt>
      <trkpt lat="45.89367" lon="4.61619">
        <ele>275.2</ele>
        <time>2020-12-13T11:24:07Z</time>
      </trkpt>
      <trkpt lat="45.89366" lon="4.6162">
        <ele>275</ele>
        <time>2020-12-13T11:24:08Z</time>
      </trkpt>
      <trkpt lat="45.89366" lon="4.61621">
        <ele>275</ele>
        <time>2020-12-13T11:24:09Z</time>
      </trkpt>
      <trkpt lat="45.89365" lon="4.61621">
        <ele>274.9</ele>
        <time>2020-12-13T11:24:10Z</time>
      </trkpt>
      <trkpt lat="45.89364" lon="4.61622">
        <ele>274.8</ele>
        <time>2020-12-13T11:24:11Z</time>
      </trkpt>
      <trkpt lat="45.89364" lon="4.61623">
        <ele>274.7</ele>
        <time>2020-12-13T11:24:12Z</time>
      </trkpt>
      <trkpt lat="45.89362" lon="4.61624">
        <ele>274.5</ele>
        <time>2020-12-13T11:24:13Z</time>
      </trkpt>
      <trkpt lat="45.89361" lon="4.61625">
        <ele>274.4</ele>
        <time>2020-12-13T11:24:14Z</time>
      </trkpt>
      <trkpt lat="45.8936" lon="4.61626">
        <ele>274.3</ele>
        <time>2020-12-13T11:24:16Z</time>
      </trkpt>
      <trkpt lat="45.89359" lon="4.61628">
        <ele>274.1</ele>
        <time>2020-12-13T11:24:17Z</time>
      </trkpt>
      <trkpt lat="45.89358" lon="4.61629">
        <ele>273.9</ele>
        <time>2020-12-13T11:24:18Z</time>
      </trkpt>
      <trkpt lat="45.89357" lon="4.61629">
        <ele>273.8</ele>
        <time>2020-12-13T11:24:19Z</time>
      </trkpt>
      <trkpt lat="45.89355" lon="4.61632">
        <ele>273.5</ele>
        <time>2020-12-13T11:24:20Z</time>
      </trkpt>
      <trkpt lat="45.89354" lon="4.61633">
        <ele>273.3</ele>
        <time>2020-12-13T11:24:21Z</time>
      </trkpt>
      <trkpt lat="45.89353" lon="4.61634">
        <ele>273.2</ele>
        <time>2020-12-13T11:24:22Z</time>
      </trkpt>
      <trkpt lat="45.89352" lon="4.61636">
        <ele>273.1</ele>
        <time>2020-12-13T11:24:24Z</time>
      </trkpt>
      <trkpt lat="45.89352" lon="4.61636">
        <ele>273</ele>
        <time>2020-12-13T11:24:25Z</time>
      </trkpt>
      <trkpt lat="45.89351" lon="4.61638">
        <ele>272.8</ele>
        <time>2020-12-13T11:24:26Z</time>
      </trkpt>
      <trkpt lat="45.89349" lon="4.61639">
        <ele>272.6</ele>
        <time>2020-12-13T11:24:27Z</time>
      </trkpt>
      <trkpt lat="45.89347" lon="4.61642">
        <ele>272.2</ele>
        <time>2020-12-13T11:24:28Z</time>
      </trkpt>
      <trkpt lat="45.89344" lon="4.61645">
        <ele>271.9</ele>
        <time>2020-12-13T11:24:30Z</time>
      </trkpt>
      <trkpt lat="45.89344" lon="4.61646">
        <ele>271.8</ele>
        <time>2020-12-13T11:24:31Z</time>
      </trkpt>
      <trkpt lat="45.89343" lon="4.61647">
        <ele>271.7</ele>
        <time>2020-12-13T11:24:32Z</time>
      </trkpt>
      <trkpt lat="45.89343" lon="4.61648">
        <ele>271.6</ele>
        <time>2020-12-13T11:24:33Z</time>
      </trkpt>
      <trkpt lat="45.89343" lon="4.61649">
        <ele>271.5</ele>
        <time>2020-12-13T11:24:34Z</time>
      </trkpt>
      <trkpt lat="45.89342" lon="4.6165">
        <ele>271.4</ele>
        <time>2020-12-13T11:24:35Z</time>
      </trkpt>
      <trkpt lat="45.89341" lon="4.61651">
        <ele>271.3</ele>
        <time>2020-12-13T11:24:36Z</time>
      </trkpt>
      <trkpt lat="45.8934" lon="4.61653">
        <ele>271.1</ele>
        <time>2020-12-13T11:24:37Z</time>
      </trkpt>
      <trkpt lat="45.89339" lon="4.61655">
        <ele>270.9</ele>
        <time>2020-12-13T11:24:38Z</time>
      </trkpt>
      <trkpt lat="45.89338" lon="4.61656">
        <ele>270.7</ele>
        <time>2020-12-13T11:24:39Z</time>
      </trkpt>
      <trkpt lat="45.89336" lon="4.61658">
        <ele>270.5</ele>
        <time>2020-12-13T11:24:40Z</time>
      </trkpt>
      <trkpt lat="45.89336" lon="4.61659">
        <ele>270.4</ele>
        <time>2020-12-13T11:24:41Z</time>
      </trkpt>
      <trkpt lat="45.89334" lon="4.61661">
        <ele>270.2</ele>
        <time>2020-12-13T11:24:42Z</time>
      </trkpt>
      <trkpt lat="45.89334" lon="4.61662">
        <ele>270.1</ele>
        <time>2020-12-13T11:24:43Z</time>
      </trkpt>
      <trkpt lat="45.89333" lon="4.61662">
        <ele>270</ele>
        <time>2020-12-13T11:24:44Z</time>
      </trkpt>
      <trkpt lat="45.89332" lon="4.61665">
        <ele>269.8</ele>
        <time>2020-12-13T11:24:45Z</time>
      </trkpt>
      <trkpt lat="45.89331" lon="4.61666">
        <ele>269.7</ele>
        <time>2020-12-13T11:24:46Z</time>
      </trkpt>
      <trkpt lat="45.89331" lon="4.61667">
        <ele>269.6</ele>
        <time>2020-12-13T11:24:47Z</time>
      </trkpt>
      <trkpt lat="45.89331" lon="4.61667">
        <ele>269.5</ele>
        <time>2020-12-13T11:24:48Z</time>
      </trkpt>
      <trkpt lat="45.8933" lon="4.61669">
        <ele>269.3</ele>
        <time>2020-12-13T11:24:49Z</time>
      </trkpt>
      <trkpt lat="45.89329" lon="4.61671">
        <ele>269.2</ele>
        <time>2020-12-13T11:24:50Z</time>
      </trkpt>
      <trkpt lat="45.89327" lon="4.61673">
        <ele>269</ele>
        <time>2020-12-13T11:24:51Z</time>
      </trkpt>
      <trkpt lat="45.89327" lon="4.61674">
        <ele>268.8</ele>
        <time>2020-12-13T11:24:52Z</time>
      </trkpt>
      <trkpt lat="45.89326" lon="4.61675">
        <ele>268.8</ele>
        <time>2020-12-13T11:24:53Z</time>
      </trkpt>
      <trkpt lat="45.89325" lon="4.61675">
        <ele>268.6</ele>
        <time>2020-12-13T11:24:54Z</time>
      </trkpt>
      <trkpt lat="45.89324" lon="4.61677">
        <ele>268.5</ele>
        <time>2020-12-13T11:24:55Z</time>
      </trkpt>
      <trkpt lat="45.89324" lon="4.61678">
        <ele>268.4</ele>
        <time>2020-12-13T11:24:56Z</time>
      </trkpt>
      <trkpt lat="45.89323" lon="4.61679">
        <ele>268.2</ele>
        <time>2020-12-13T11:24:57Z</time>
      </trkpt>
      <trkpt lat="45.89322" lon="4.6168">
        <ele>268.1</ele>
        <time>2020-12-13T11:24:58Z</time>
      </trkpt>
      <trkpt lat="45.89321" lon="4.61681">
        <ele>267.9</ele>
        <time>2020-12-13T11:24:59Z</time>
      </trkpt>
      <trkpt lat="45.89319" lon="4.61684">
        <ele>267.7</ele>
        <time>2020-12-13T11:25:00Z</time>
      </trkpt>
      <trkpt lat="45.89318" lon="4.61685">
        <ele>267.6</ele>
        <time>2020-12-13T11:25:01Z</time>
      </trkpt>
      <trkpt lat="45.89317" lon="4.61685">
        <ele>267.5</ele>
        <time>2020-12-13T11:25:02Z</time>
      </trkpt>
      <trkpt lat="45.89316" lon="4.61687">
        <ele>267.4</ele>
        <time>2020-12-13T11:25:03Z</time>
      </trkpt>
      <trkpt lat="45.89315" lon="4.61688">
        <ele>267.2</ele>
        <time>2020-12-13T11:25:04Z</time>
      </trkpt>
      <trkpt lat="45.89314" lon="4.61689">
        <ele>267</ele>
        <time>2020-12-13T11:25:05Z</time>
      </trkpt>
      <trkpt lat="45.89313" lon="4.6169">
        <ele>266.9</ele>
        <time>2020-12-13T11:25:06Z</time>
      </trkpt>
      <trkpt lat="45.89311" lon="4.61692">
        <ele>266.7</ele>
        <time>2020-12-13T11:25:07Z</time>
      </trkpt>
      <trkpt lat="45.8931" lon="4.61693">
        <ele>266.6</ele>
        <time>2020-12-13T11:25:08Z</time>
      </trkpt>
      <trkpt lat="45.89309" lon="4.61694">
        <ele>266.5</ele>
        <time>2020-12-13T11:25:09Z</time>
      </trkpt>
      <trkpt lat="45.89308" lon="4.61694">
        <ele>266.4</ele>
        <time>2020-12-13T11:25:10Z</time>
      </trkpt>
      <trkpt lat="45.89307" lon="4.61695">
        <ele>266.3</ele>
        <time>2020-12-13T11:25:11Z</time>
      </trkpt>
      <trkpt lat="45.89306" lon="4.61695">
        <ele>266.2</ele>
        <time>2020-12-13T11:25:12Z</time>
      </trkpt>
      <trkpt lat="45.89306" lon="4.61696">
        <ele>266.1</ele>
        <time>2020-12-13T11:25:13Z</time>
      </trkpt>
      <trkpt lat="45.89305" lon="4.61697">
        <ele>266</ele>
        <time>2020-12-13T11:25:14Z</time>
      </trkpt>
      <trkpt lat="45.89303" lon="4.61698">
        <ele>265.9</ele>
        <time>2020-12-13T11:25:15Z</time>
      </trkpt>
      <trkpt lat="45.89302" lon="4.61699">
        <ele>265.7</ele>
        <time>2020-12-13T11:25:16Z</time>
      </trkpt>
      <trkpt lat="45.89301" lon="4.617">
        <ele>265.6</ele>
        <time>2020-12-13T11:25:17Z</time>
      </trkpt>
      <trkpt lat="45.89301" lon="4.617">
        <ele>265.6</ele>
        <time>2020-12-13T11:25:18Z</time>
      </trkpt>
      <trkpt lat="45.893" lon="4.61701">
        <ele>265.5</ele>
        <time>2020-12-13T11:25:19Z</time>
      </trkpt>
      <trkpt lat="45.89298" lon="4.61702">
        <ele>265.3</ele>
        <time>2020-12-13T11:25:20Z</time>
      </trkpt>
      <trkpt lat="45.89297" lon="4.61703">
        <ele>265.2</ele>
        <time>2020-12-13T11:25:21Z</time>
      </trkpt>
      <trkpt lat="45.89295" lon="4.61705">
        <ele>265</ele>
        <time>2020-12-13T11:25:22Z</time>
      </trkpt>
      <trkpt lat="45.89294" lon="4.61705">
        <ele>264.9</ele>
        <time>2020-12-13T11:25:23Z</time>
      </trkpt>
      <trkpt lat="45.89294" lon="4.61706">
        <ele>264.8</ele>
        <time>2020-12-13T11:25:24Z</time>
      </trkpt>
      <trkpt lat="45.89293" lon="4.61706">
        <ele>264.7</ele>
        <time>2020-12-13T11:25:25Z</time>
      </trkpt>
      <trkpt lat="45.89292" lon="4.61707">
        <ele>264.6</ele>
        <time>2020-12-13T11:25:26Z</time>
      </trkpt>
      <trkpt lat="45.89291" lon="4.61708">
        <ele>264.5</ele>
        <time>2020-12-13T11:25:27Z</time>
      </trkpt>
      <trkpt lat="45.89289" lon="4.61709">
        <ele>264.4</ele>
        <time>2020-12-13T11:25:28Z</time>
      </trkpt>
      <trkpt lat="45.89288" lon="4.61709">
        <ele>264.3</ele>
        <time>2020-12-13T11:25:29Z</time>
      </trkpt>
      <trkpt lat="45.89287" lon="4.6171">
        <ele>264.2</ele>
        <time>2020-12-13T11:25:30Z</time>
      </trkpt>
      <trkpt lat="45.89284" lon="4.61712">
        <ele>264</ele>
        <time>2020-12-13T11:25:31Z</time>
      </trkpt>
      <trkpt lat="45.89283" lon="4.61712">
        <ele>263.9</ele>
        <time>2020-12-13T11:25:32Z</time>
      </trkpt>
      <trkpt lat="45.89282" lon="4.61713">
        <ele>263.8</ele>
        <time>2020-12-13T11:25:33Z</time>
      </trkpt>
      <trkpt lat="45.89281" lon="4.61713">
        <ele>263.7</ele>
        <time>2020-12-13T11:25:34Z</time>
      </trkpt>
      <trkpt lat="45.8928" lon="4.61713">
        <ele>263.6</ele>
        <time>2020-12-13T11:25:35Z</time>
      </trkpt>
      <trkpt lat="45.8928" lon="4.61714">
        <ele>263.5</ele>
        <time>2020-12-13T11:25:36Z</time>
      </trkpt>
      <trkpt lat="45.89278" lon="4.61715">
        <ele>263.3</ele>
        <time>2020-12-13T11:25:37Z</time>
      </trkpt>
      <trkpt lat="45.89276" lon="4.61715">
        <ele>263.2</ele>
        <time>2020-12-13T11:25:38Z</time>
      </trkpt>
      <trkpt lat="45.89274" lon="4.61716">
        <ele>263</ele>
        <time>2020-12-13T11:25:39Z</time>
      </trkpt>
      <trkpt lat="45.89273" lon="4.61716">
        <ele>263</ele>
        <time>2020-12-13T11:25:40Z</time>
      </trkpt>
      <trkpt lat="45.89273" lon="4.61717">
        <ele>262.9</ele>
        <time>2020-12-13T11:25:41Z</time>
      </trkpt>
      <trkpt lat="45.89271" lon="4.61718">
        <ele>262.8</ele>
        <time>2020-12-13T11:25:42Z</time>
      </trkpt>
      <trkpt lat="45.89271" lon="4.61718">
        <ele>262.7</ele>
        <time>2020-12-13T11:25:43Z</time>
      </trkpt>
      <trkpt lat="45.89268" lon="4.61718">
        <ele>262.5</ele>
        <time>2020-12-13T11:25:44Z</time>
      </trkpt>
      <trkpt lat="45.89266" lon="4.61719">
        <ele>262.3</ele>
        <time>2020-12-13T11:25:45Z</time>
      </trkpt>
      <trkpt lat="45.89265" lon="4.6172">
        <ele>262.2</ele>
        <time>2020-12-13T11:25:46Z</time>
      </trkpt>
      <trkpt lat="45.89264" lon="4.61721">
        <ele>262.1</ele>
        <time>2020-12-13T11:25:47Z</time>
      </trkpt>
      <trkpt lat="45.89263" lon="4.61722">
        <ele>262</ele>
        <time>2020-12-13T11:25:48Z</time>
      </trkpt>
      <trkpt lat="45.89262" lon="4.61723">
        <ele>261.9</ele>
        <time>2020-12-13T11:25:49Z</time>
      </trkpt>
      <trkpt lat="45.89261" lon="4.61723">
        <ele>261.8</ele>
        <time>2020-12-13T11:25:50Z</time>
      </trkpt>
      <trkpt lat="45.8926" lon="4.61724">
        <ele>261.7</ele>
        <time>2020-12-13T11:25:51Z</time>
      </trkpt>
      <trkpt lat="45.89259" lon="4.61724">
        <ele>261.6</ele>
        <time>2020-12-13T11:25:52Z</time>
      </trkpt>
      <trkpt lat="45.89257" lon="4.61726">
        <ele>261.4</ele>
        <time>2020-12-13T11:25:53Z</time>
      </trkpt>
      <trkpt lat="45.89256" lon="4.61726">
        <ele>261.3</ele>
        <time>2020-12-13T11:25:54Z</time>
      </trkpt>
      <trkpt lat="45.89255" lon="4.61727">
        <ele>261.2</ele>
        <time>2020-12-13T11:25:55Z</time>
      </trkpt>
      <trkpt lat="45.89254" lon="4.61728">
        <ele>261</ele>
        <time>2020-12-13T11:25:56Z</time>
      </trkpt>
      <trkpt lat="45.89253" lon="4.61729">
        <ele>260.9</ele>
        <time>2020-12-13T11:25:57Z</time>
      </trkpt>
      <trkpt lat="45.89252" lon="4.61729">
        <ele>260.8</ele>
        <time>2020-12-13T11:25:58Z</time>
      </trkpt>
      <trkpt lat="45.8925" lon="4.6173">
        <ele>260.6</ele>
        <time>2020-12-13T11:25:59Z</time>
      </trkpt>
      <trkpt lat="45.89249" lon="4.61731">
        <ele>260.6</ele>
        <time>2020-12-13T11:26:00Z</time>
      </trkpt>
      <trkpt lat="45.89248" lon="4.61731">
        <ele>260.5</ele>
        <time>2020-12-13T11:26:01Z</time>
      </trkpt>
      <trkpt lat="45.89247" lon="4.61732">
        <ele>260.4</ele>
        <time>2020-12-13T11:26:02Z</time>
      </trkpt>
      <trkpt lat="45.89247" lon="4.61732">
        <ele>260.4</ele>
        <time>2020-12-13T11:26:03Z</time>
      </trkpt>
      <trkpt lat="45.89246" lon="4.61732">
        <ele>260.3</ele>
        <time>2020-12-13T11:26:04Z</time>
      </trkpt>
      <trkpt lat="45.89245" lon="4.61732">
        <ele>260.2</ele>
        <time>2020-12-13T11:26:05Z</time>
      </trkpt>
      <trkpt lat="45.89244" lon="4.61733">
        <ele>260.1</ele>
        <time>2020-12-13T11:26:06Z</time>
      </trkpt>
      <trkpt lat="45.89243" lon="4.61734">
        <ele>259.9</ele>
        <time>2020-12-13T11:26:07Z</time>
      </trkpt>
      <trkpt lat="45.89242" lon="4.61734">
        <ele>259.9</ele>
        <time>2020-12-13T11:26:08Z</time>
      </trkpt>
      <trkpt lat="45.89241" lon="4.61734">
        <ele>259.8</ele>
        <time>2020-12-13T11:26:09Z</time>
      </trkpt>
      <trkpt lat="45.89241" lon="4.61734">
        <ele>259.7</ele>
        <time>2020-12-13T11:26:10Z</time>
      </trkpt>
      <trkpt lat="45.89239" lon="4.61735">
        <ele>259.6</ele>
        <time>2020-12-13T11:26:11Z</time>
      </trkpt>
      <trkpt lat="45.89238" lon="4.61735">
        <ele>259.5</ele>
        <time>2020-12-13T11:26:12Z</time>
      </trkpt>
      <trkpt lat="45.89237" lon="4.61736">
        <ele>259.3</ele>
        <time>2020-12-13T11:26:13Z</time>
      </trkpt>
      <trkpt lat="45.89236" lon="4.61737">
        <ele>259.2</ele>
        <time>2020-12-13T11:26:14Z</time>
      </trkpt>
      <trkpt lat="45.89234" lon="4.61737">
        <ele>259</ele>
        <time>2020-12-13T11:26:15Z</time>
      </trkpt>
      <trkpt lat="45.89233" lon="4.61737">
        <ele>259</ele>
        <time>2020-12-13T11:26:16Z</time>
      </trkpt>
      <trkpt lat="45.89232" lon="4.61738">
        <ele>258.9</ele>
        <time>2020-12-13T11:26:17Z</time>
      </trkpt>
      <trkpt lat="45.89232" lon="4.61739">
        <ele>258.8</ele>
        <time>2020-12-13T11:26:18Z</time>
      </trkpt>
      <trkpt lat="45.89231" lon="4.61739">
        <ele>258.7</ele>
        <time>2020-12-13T11:26:19Z</time>
      </trkpt>
      <trkpt lat="45.8923" lon="4.61739">
        <ele>258.6</ele>
        <time>2020-12-13T11:26:20Z</time>
      </trkpt>
      <trkpt lat="45.89228" lon="4.61739">
        <ele>258.5</ele>
        <time>2020-12-13T11:26:22Z</time>
      </trkpt>
      <trkpt lat="45.89227" lon="4.61738">
        <ele>258.3</ele>
        <time>2020-12-13T11:26:23Z</time>
      </trkpt>
      <trkpt lat="45.89227" lon="4.61737">
        <ele>258.3</ele>
        <time>2020-12-13T11:26:24Z</time>
      </trkpt>
      <trkpt lat="45.89226" lon="4.61735">
        <ele>258.1</ele>
        <time>2020-12-13T11:26:25Z</time>
      </trkpt>
      <trkpt lat="45.89225" lon="4.61735">
        <ele>258</ele>
        <time>2020-12-13T11:26:26Z</time>
      </trkpt>
      <trkpt lat="45.89224" lon="4.61734">
        <ele>257.6</ele>
        <time>2020-12-13T11:26:27Z</time>
      </trkpt>
      <trkpt lat="45.89223" lon="4.61734">
        <ele>257.6</ele>
        <time>2020-12-13T11:26:28Z</time>
      </trkpt>
      <trkpt lat="45.89221" lon="4.61732">
        <ele>257.7</ele>
        <time>2020-12-13T11:26:29Z</time>
      </trkpt>
      <trkpt lat="45.89221" lon="4.61731">
        <ele>257.7</ele>
        <time>2020-12-13T11:26:30Z</time>
      </trkpt>
      <trkpt lat="45.8922" lon="4.61729">
        <ele>257.8</ele>
        <time>2020-12-13T11:26:31Z</time>
      </trkpt>
      <trkpt lat="45.8922" lon="4.61728">
        <ele>257.8</ele>
        <time>2020-12-13T11:26:32Z</time>
      </trkpt>
      <trkpt lat="45.89219" lon="4.61727">
        <ele>257.9</ele>
        <time>2020-12-13T11:26:33Z</time>
      </trkpt>
      <trkpt lat="45.89219" lon="4.61725">
        <ele>257.9</ele>
        <time>2020-12-13T11:26:34Z</time>
      </trkpt>
      <trkpt lat="45.89218" lon="4.61724">
        <ele>257.9</ele>
        <time>2020-12-13T11:26:35Z</time>
      </trkpt>
      <trkpt lat="45.89217" lon="4.61723">
        <ele>258</ele>
        <time>2020-12-13T11:26:36Z</time>
      </trkpt>
      <trkpt lat="45.89217" lon="4.61722">
        <ele>258</ele>
        <time>2020-12-13T11:26:37Z</time>
      </trkpt>
      <trkpt lat="45.89217" lon="4.61721">
        <ele>258</ele>
        <time>2020-12-13T11:26:38Z</time>
      </trkpt>
      <trkpt lat="45.89217" lon="4.61721">
        <ele>258.1</ele>
        <time>2020-12-13T11:26:39Z</time>
      </trkpt>
      <trkpt lat="45.89216" lon="4.61719">
        <ele>258.1</ele>
        <time>2020-12-13T11:26:40Z</time>
      </trkpt>
      <trkpt lat="45.89216" lon="4.61717">
        <ele>258.2</ele>
        <time>2020-12-13T11:26:41Z</time>
      </trkpt>
      <trkpt lat="45.89215" lon="4.61714">
        <ele>258.3</ele>
        <time>2020-12-13T11:26:42Z</time>
      </trkpt>
      <trkpt lat="45.89214" lon="4.61712">
        <ele>258.4</ele>
        <time>2020-12-13T11:26:43Z</time>
      </trkpt>
      <trkpt lat="45.89213" lon="4.61711">
        <ele>258.4</ele>
        <time>2020-12-13T11:26:44Z</time>
      </trkpt>
      <trkpt lat="45.89212" lon="4.6171">
        <ele>258.5</ele>
        <time>2020-12-13T11:26:45Z</time>
      </trkpt>
      <trkpt lat="45.89212" lon="4.61709">
        <ele>258.5</ele>
        <time>2020-12-13T11:26:46Z</time>
      </trkpt>
      <trkpt lat="45.89211" lon="4.61707">
        <ele>258.6</ele>
        <time>2020-12-13T11:26:47Z</time>
      </trkpt>
      <trkpt lat="45.8921" lon="4.61706">
        <ele>258.7</ele>
        <time>2020-12-13T11:26:48Z</time>
      </trkpt>
      <trkpt lat="45.8921" lon="4.61705">
        <ele>258.7</ele>
        <time>2020-12-13T11:26:49Z</time>
      </trkpt>
      <trkpt lat="45.89209" lon="4.61702">
        <ele>258.9</ele>
        <time>2020-12-13T11:26:50Z</time>
      </trkpt>
      <trkpt lat="45.89208" lon="4.61701">
        <ele>258.9</ele>
        <time>2020-12-13T11:26:51Z</time>
      </trkpt>
      <trkpt lat="45.89208" lon="4.61701">
        <ele>259</ele>
        <time>2020-12-13T11:26:52Z</time>
      </trkpt>
      <trkpt lat="45.89206" lon="4.61699">
        <ele>259.1</ele>
        <time>2020-12-13T11:26:53Z</time>
      </trkpt>
      <trkpt lat="45.89205" lon="4.61698">
        <ele>259.2</ele>
        <time>2020-12-13T11:26:54Z</time>
      </trkpt>
      <trkpt lat="45.89205" lon="4.61697">
        <ele>259.2</ele>
        <time>2020-12-13T11:26:55Z</time>
      </trkpt>
      <trkpt lat="45.89204" lon="4.61696">
        <ele>259.3</ele>
        <time>2020-12-13T11:26:56Z</time>
      </trkpt>
      <trkpt lat="45.89203" lon="4.61696">
        <ele>259.4</ele>
        <time>2020-12-13T11:26:57Z</time>
      </trkpt>
      <trkpt lat="45.89202" lon="4.61694">
        <ele>259.5</ele>
        <time>2020-12-13T11:26:58Z</time>
      </trkpt>
      <trkpt lat="45.89201" lon="4.61692">
        <ele>259.6</ele>
        <time>2020-12-13T11:26:59Z</time>
      </trkpt>
      <trkpt lat="45.89201" lon="4.61692">
        <ele>259.6</ele>
        <time>2020-12-13T11:27:00Z</time>
      </trkpt>
      <trkpt lat="45.89199" lon="4.61691">
        <ele>259.8</ele>
        <time>2020-12-13T11:27:01Z</time>
      </trkpt>
      <trkpt lat="45.89198" lon="4.61689">
        <ele>259.9</ele>
        <time>2020-12-13T11:27:02Z</time>
      </trkpt>
      <trkpt lat="45.89198" lon="4.61688">
        <ele>260</ele>
        <time>2020-12-13T11:27:03Z</time>
      </trkpt>
      <trkpt lat="45.89197" lon="4.61687">
        <ele>260</ele>
        <time>2020-12-13T11:27:04Z</time>
      </trkpt>
      <trkpt lat="45.89196" lon="4.61686">
        <ele>260.1</ele>
        <time>2020-12-13T11:27:05Z</time>
      </trkpt>
    </trkseg>
  </trk>
</gpx>